<?xml version='1.0' encoding='UTF-8'?><gpx version="1.1" creator="JPX - https://github.com/jenetics/jpx" xmlns="http://www.topografix.com/GPX/1/1"><trk><trkseg><trkpt lat="44.0487383" lon="12.586195"><ele>4.0</ele><time>2026-04-05T07:03:33.589Z</time></trkpt><trkpt lat="44.0486217" lon="12.5862467"><ele>4.0</ele><time>2026-04-05T07:03:36.589Z</time></trkpt><trkpt lat="44.0485667" lon="12.5862917"><ele>4.0</ele><time>2026-04-05T07:03:37.59Z</time></trkpt><trkpt lat="44.0484883" lon="12.5863717"><ele>4.0</ele><time>2026-04-05T07:03:39.589Z</time></trkpt><trkpt lat="44.04846" lon="12.586475"><ele>4.0</ele><time>2026-04-05T07:03:41.59Z</time></trkpt><trkpt lat="44.0485183" lon="12.5866033"><ele>3.9999999999999996</ele><time>2026-04-05T07:03:43.59Z</time></trkpt><trkpt lat="44.048555" lon="12.5866817"><ele>4.0</ele><time>2026-04-05T07:03:44.59Z</time></trkpt><trkpt lat="44.0486083" lon="12.586775"><ele>4.0</ele><time>2026-04-05T07:03:46.589Z</time></trkpt><trkpt lat="44.0486717" lon="12.5868283"><ele>4.0</ele><time>2026-04-05T07:03:49.589Z</time></trkpt><trkpt lat="44.04876" lon="12.586745"><ele>3.9999999999999996</ele><time>2026-04-05T07:03:51.589Z</time></trkpt><trkpt lat="44.048825" lon="12.5866633"><ele>4.0</ele><time>2026-04-05T07:03:52.59Z</time></trkpt><trkpt lat="44.0489117" lon="12.5865783"><ele>3.9999999999999996</ele><time>2026-04-05T07:03:53.59Z</time></trkpt><trkpt lat="44.0489933" lon="12.586485"><ele>4.0</ele><time>2026-04-05T07:03:54.59Z</time></trkpt><trkpt lat="44.0490683" lon="12.586405"><ele>4.0</ele><time>2026-04-05T07:03:55.59Z</time></trkpt><trkpt lat="44.0491267" lon="12.58633"><ele>4.0</ele><time>2026-04-05T07:03:56.589Z</time></trkpt><trkpt lat="44.0491817" lon="12.5862633"><ele>3.9999999999999996</ele><time>2026-04-05T07:03:57.59Z</time></trkpt><trkpt lat="44.049235" lon="12.5862067"><ele>4.0</ele><time>2026-04-05T07:03:58.59Z</time></trkpt><trkpt lat="44.0492967" lon="12.586125"><ele>4.4</ele><time>2026-04-05T07:04:00.59Z</time></trkpt><trkpt lat="44.0492783" lon="12.586015"><ele>4.800000000000001</ele><time>2026-04-05T07:04:04.589Z</time></trkpt><trkpt lat="44.0492017" lon="12.58587"><ele>5.199999999999999</ele><time>2026-04-05T07:04:06.59Z</time></trkpt><trkpt lat="44.0491383" lon="12.5857683"><ele>5.6</ele><time>2026-04-05T07:04:07.59Z</time></trkpt><trkpt lat="44.0490667" lon="12.5856367"><ele>6.0</ele><time>2026-04-05T07:04:08.59Z</time></trkpt><trkpt lat="44.0489917" lon="12.585515"><ele>6.0</ele><time>2026-04-05T07:04:09.589Z</time></trkpt><trkpt lat="44.048925" lon="12.5854033"><ele>6.0</ele><time>2026-04-05T07:04:10.59Z</time></trkpt><trkpt lat="44.0488617" lon="12.5853033"><ele>6.0</ele><time>2026-04-05T07:04:11.59Z</time></trkpt><trkpt lat="44.04881" lon="12.5852133"><ele>6.0</ele><time>2026-04-05T07:04:12.59Z</time></trkpt><trkpt lat="44.0487583" lon="12.5851367"><ele>6.0</ele><time>2026-04-05T07:04:13.59Z</time></trkpt><trkpt lat="44.04871" lon="12.5850683"><ele>6.0</ele><time>2026-04-05T07:04:14.59Z</time></trkpt><trkpt lat="44.0486567" lon="12.58501"><ele>6.166666666666667</ele><time>2026-04-05T07:04:15.589Z</time></trkpt><trkpt lat="44.0486017" lon="12.5849433"><ele>6.333333333333334</ele><time>2026-04-05T07:04:16.59Z</time></trkpt><trkpt lat="44.0485433" lon="12.58487"><ele>6.5</ele><time>2026-04-05T07:04:17.589Z</time></trkpt><trkpt lat="44.04848" lon="12.584795"><ele>6.666666666666667</ele><time>2026-04-05T07:04:18.59Z</time></trkpt><trkpt lat="44.0484233" lon="12.58471"><ele>6.833333333333334</ele><time>2026-04-05T07:04:19.59Z</time></trkpt><trkpt lat="44.0483633" lon="12.5846417"><ele>7.0</ele><time>2026-04-05T07:04:20.59Z</time></trkpt><trkpt lat="44.0483067" lon="12.5845717"><ele>7.000000000000001</ele><time>2026-04-05T07:04:21.59Z</time></trkpt><trkpt lat="44.0482433" lon="12.5845217"><ele>7.0</ele><time>2026-04-05T07:04:22.59Z</time></trkpt><trkpt lat="44.0481517" lon="12.58441"><ele>7.0</ele><time>2026-04-05T07:04:24.59Z</time></trkpt><trkpt lat="44.0480683" lon="12.58432"><ele>7.0</ele><time>2026-04-05T07:04:26.59Z</time></trkpt><trkpt lat="44.0480183" lon="12.58424"><ele>7.000000000000001</ele><time>2026-04-05T07:04:28.589Z</time></trkpt><trkpt lat="44.048" lon="12.5841417"><ele>7.0</ele><time>2026-04-05T07:04:30.589Z</time></trkpt><trkpt lat="44.0480183" lon="12.5840233"><ele>7.0</ele><time>2026-04-05T07:04:32.59Z</time></trkpt><trkpt lat="44.04806" lon="12.5839483"><ele>7.0</ele><time>2026-04-05T07:04:33.59Z</time></trkpt><trkpt lat="44.0481033" lon="12.58387"><ele>7.0</ele><time>2026-04-05T07:04:34.589Z</time></trkpt><trkpt lat="44.0481633" lon="12.5838083"><ele>7.0</ele><time>2026-04-05T07:04:35.59Z</time></trkpt><trkpt lat="44.04822" lon="12.5837417"><ele>7.0</ele><time>2026-04-05T07:04:36.59Z</time></trkpt><trkpt lat="44.04827" lon="12.5836733"><ele>7.0</ele><time>2026-04-05T07:04:37.59Z</time></trkpt><trkpt lat="44.0483217" lon="12.583615"><ele>7.0</ele><time>2026-04-05T07:04:38.59Z</time></trkpt><trkpt lat="44.048395" lon="12.583515"><ele>7.000000000000001</ele><time>2026-04-05T07:04:40.589Z</time></trkpt><trkpt lat="44.04846" lon="12.5834317"><ele>7.0</ele><time>2026-04-05T07:04:42.589Z</time></trkpt><trkpt lat="44.0484783" lon="12.5833383"><ele>7.0</ele><time>2026-04-05T07:04:44.59Z</time></trkpt><trkpt lat="44.0484283" lon="12.5832233"><ele>7.0</ele><time>2026-04-05T07:04:46.59Z</time></trkpt><trkpt lat="44.0483783" lon="12.5831533"><ele>7.000000000000001</ele><time>2026-04-05T07:04:47.589Z</time></trkpt><trkpt lat="44.0483233" lon="12.583085"><ele>7.0</ele><time>2026-04-05T07:04:48.59Z</time></trkpt><trkpt lat="44.04827" lon="12.5830117"><ele>7.000000000000001</ele><time>2026-04-05T07:04:49.589Z</time></trkpt><trkpt lat="44.04822" lon="12.5829433"><ele>7.0</ele><time>2026-04-05T07:04:50.589Z</time></trkpt><trkpt lat="44.0481667" lon="12.5828883"><ele>7.0</ele><time>2026-04-05T07:04:51.589Z</time></trkpt><trkpt lat="44.04812" lon="12.5828283"><ele>7.0</ele><time>2026-04-05T07:04:52.59Z</time></trkpt><trkpt lat="44.0480467" lon="12.582735"><ele>7.000000000000001</ele><time>2026-04-05T07:04:54.59Z</time></trkpt><trkpt lat="44.0479667" lon="12.5826333"><ele>7.0</ele><time>2026-04-05T07:04:56.589Z</time></trkpt><trkpt lat="44.0479233" lon="12.5825667"><ele>7.000000000000001</ele><time>2026-04-05T07:04:57.59Z</time></trkpt><trkpt lat="44.0478783" lon="12.5825"><ele>7.0</ele><time>2026-04-05T07:04:58.589Z</time></trkpt><trkpt lat="44.04783" lon="12.58243"><ele>7.0</ele><time>2026-04-05T07:04:59.59Z</time></trkpt><trkpt lat="44.04777" lon="12.5823633"><ele>7.0</ele><time>2026-04-05T07:05:00.589Z</time></trkpt><trkpt lat="44.047705" lon="12.5822817"><ele>7.000000000000001</ele><time>2026-04-05T07:05:01.59Z</time></trkpt><trkpt lat="44.0476383" lon="12.58219"><ele>7.0</ele><time>2026-04-05T07:05:02.59Z</time></trkpt><trkpt lat="44.0475717" lon="12.5821017"><ele>7.000000000000001</ele><time>2026-04-05T07:05:03.59Z</time></trkpt><trkpt lat="44.0475017" lon="12.5820233"><ele>7.0</ele><time>2026-04-05T07:05:04.589Z</time></trkpt><trkpt lat="44.0474367" lon="12.581955"><ele>7.0</ele><time>2026-04-05T07:05:05.589Z</time></trkpt><trkpt lat="44.0473833" lon="12.5818967"><ele>7.0</ele><time>2026-04-05T07:05:06.589Z</time></trkpt><trkpt lat="44.04731" lon="12.5818233"><ele>7.000000000000001</ele><time>2026-04-05T07:05:08.59Z</time></trkpt><trkpt lat="44.0472567" lon="12.5817567"><ele>7.0</ele><time>2026-04-05T07:05:11.59Z</time></trkpt><trkpt lat="44.0472183" lon="12.5816383"><ele>7.0</ele><time>2026-04-05T07:05:19.59Z</time></trkpt><trkpt lat="44.047225" lon="12.58154"><ele>6.999999999999999</ele><time>2026-04-05T07:05:21.59Z</time></trkpt><trkpt lat="44.0472567" lon="12.5814633"><ele>6.999999999999999</ele><time>2026-04-05T07:05:22.59Z</time></trkpt><trkpt lat="44.0473117" lon="12.58136"><ele>7.0</ele><time>2026-04-05T07:05:23.59Z</time></trkpt><trkpt lat="44.0473883" lon="12.58124"><ele>7.0</ele><time>2026-04-05T07:05:24.59Z</time></trkpt><trkpt lat="44.0474733" lon="12.58111"><ele>7.25</ele><time>2026-04-05T07:05:25.59Z</time></trkpt><trkpt lat="44.047555" lon="12.5809783"><ele>7.5</ele><time>2026-04-05T07:05:26.59Z</time></trkpt><trkpt lat="44.0476333" lon="12.5808433"><ele>7.75</ele><time>2026-04-05T07:05:27.589Z</time></trkpt><trkpt lat="44.0477067" lon="12.5807167"><ele>8.0</ele><time>2026-04-05T07:05:28.589Z</time></trkpt><trkpt lat="44.047775" lon="12.5806033"><ele>7.999999999999999</ele><time>2026-04-05T07:05:29.59Z</time></trkpt><trkpt lat="44.0478367" lon="12.580505"><ele>8.0</ele><time>2026-04-05T07:05:30.589Z</time></trkpt><trkpt lat="44.047885" lon="12.58042"><ele>8.0</ele><time>2026-04-05T07:05:31.59Z</time></trkpt><trkpt lat="44.0479333" lon="12.5803467"><ele>8.0</ele><time>2026-04-05T07:05:32.59Z</time></trkpt><trkpt lat="44.04798" lon="12.58028"><ele>7.999999999999999</ele><time>2026-04-05T07:05:33.59Z</time></trkpt><trkpt lat="44.04803" lon="12.58022"><ele>8.0</ele><time>2026-04-05T07:05:34.589Z</time></trkpt><trkpt lat="44.0481017" lon="12.5800967"><ele>7.800000000000001</ele><time>2026-04-05T07:05:36.59Z</time></trkpt><trkpt lat="44.0480867" lon="12.5799583"><ele>7.6000000000000005</ele><time>2026-04-05T07:05:38.589Z</time></trkpt><trkpt lat="44.048025" lon="12.5798983"><ele>7.3999999999999995</ele><time>2026-04-05T07:05:39.59Z</time></trkpt><trkpt lat="44.0479533" lon="12.5798233"><ele>7.199999999999999</ele><time>2026-04-05T07:05:40.589Z</time></trkpt><trkpt lat="44.0478667" lon="12.5797167"><ele>7.0</ele><time>2026-04-05T07:05:41.59Z</time></trkpt><trkpt lat="44.0477567" lon="12.579565"><ele>6.666666666666667</ele><time>2026-04-05T07:05:42.589Z</time></trkpt><trkpt lat="44.047635" lon="12.5794067"><ele>6.333333333333334</ele><time>2026-04-05T07:05:43.589Z</time></trkpt><trkpt lat="44.04751" lon="12.5792367"><ele>6.0</ele><time>2026-04-05T07:05:44.59Z</time></trkpt><trkpt lat="44.04737" lon="12.5790683"><ele>6.0</ele><time>2026-04-05T07:05:45.59Z</time></trkpt><trkpt lat="44.04725" lon="12.57889"><ele>6.0</ele><time>2026-04-05T07:05:46.59Z</time></trkpt><trkpt lat="44.0471317" lon="12.5787117"><ele>6.0</ele><time>2026-04-05T07:05:47.589Z</time></trkpt><trkpt lat="44.047005" lon="12.5785233"><ele>6.0</ele><time>2026-04-05T07:05:48.59Z</time></trkpt><trkpt lat="44.0468717" lon="12.578325"><ele>6.0</ele><time>2026-04-05T07:05:49.59Z</time></trkpt><trkpt lat="44.0467367" lon="12.5781233"><ele>6.0</ele><time>2026-04-05T07:05:50.589Z</time></trkpt><trkpt lat="44.0466017" lon="12.577925"><ele>6.666666666666666</ele><time>2026-04-05T07:05:51.59Z</time></trkpt><trkpt lat="44.0464633" lon="12.5777283"><ele>7.333333333333333</ele><time>2026-04-05T07:05:52.59Z</time></trkpt><trkpt lat="44.0463367" lon="12.5775417"><ele>8.0</ele><time>2026-04-05T07:05:53.59Z</time></trkpt><trkpt lat="44.04621" lon="12.5773467"><ele>8.0</ele><time>2026-04-05T07:05:54.59Z</time></trkpt><trkpt lat="44.046085" lon="12.5771617"><ele>8.0</ele><time>2026-04-05T07:05:55.59Z</time></trkpt><trkpt lat="44.0459667" lon="12.5769983"><ele>8.0</ele><time>2026-04-05T07:05:56.59Z</time></trkpt><trkpt lat="44.045855" lon="12.57684"><ele>8.5</ele><time>2026-04-05T07:05:57.59Z</time></trkpt><trkpt lat="44.0457583" lon="12.57669"><ele>9.0</ele><time>2026-04-05T07:05:58.589Z</time></trkpt><trkpt lat="44.0456567" lon="12.5765583"><ele>9.5</ele><time>2026-04-05T07:05:59.589Z</time></trkpt><trkpt lat="44.045575" lon="12.5764467"><ele>10.0</ele><time>2026-04-05T07:06:00.589Z</time></trkpt><trkpt lat="44.045515" lon="12.5763517"><ele>10.0</ele><time>2026-04-05T07:06:01.589Z</time></trkpt><trkpt lat="44.04547" lon="12.5762733"><ele>10.0</ele><time>2026-04-05T07:06:02.59Z</time></trkpt><trkpt lat="44.0454417" lon="12.5761167"><ele>10.0</ele><time>2026-04-05T07:06:04.59Z</time></trkpt><trkpt lat="44.0454533" lon="12.5759417"><ele>10.0</ele><time>2026-04-05T07:06:06.589Z</time></trkpt><trkpt lat="44.0454283" lon="12.5758533"><ele>10.0</ele><time>2026-04-05T07:06:07.59Z</time></trkpt><trkpt lat="44.0453833" lon="12.5757783"><ele>10.25</ele><time>2026-04-05T07:06:08.59Z</time></trkpt><trkpt lat="44.0453133" lon="12.5757217"><ele>10.5</ele><time>2026-04-05T07:06:09.59Z</time></trkpt><trkpt lat="44.0452067" lon="12.57568"><ele>10.75</ele><time>2026-04-05T07:06:10.589Z</time></trkpt><trkpt lat="44.0450783" lon="12.5756067"><ele>11.0</ele><time>2026-04-05T07:06:11.589Z</time></trkpt><trkpt lat="44.0449617" lon="12.5754867"><ele>11.0</ele><time>2026-04-05T07:06:12.589Z</time></trkpt><trkpt lat="44.0448583" lon="12.5753417"><ele>11.0</ele><time>2026-04-05T07:06:13.59Z</time></trkpt><trkpt lat="44.044765" lon="12.5751967"><ele>11.0</ele><time>2026-04-05T07:06:14.59Z</time></trkpt><trkpt lat="44.0446717" lon="12.57506"><ele>11.0</ele><time>2026-04-05T07:06:15.59Z</time></trkpt><trkpt lat="44.0445767" lon="12.5749267"><ele>11.0</ele><time>2026-04-05T07:06:16.59Z</time></trkpt><trkpt lat="44.044485" lon="12.5747983"><ele>11.0</ele><time>2026-04-05T07:06:17.59Z</time></trkpt><trkpt lat="44.0443983" lon="12.574675"><ele>11.0</ele><time>2026-04-05T07:06:18.59Z</time></trkpt><trkpt lat="44.044315" lon="12.57456"><ele>11.0</ele><time>2026-04-05T07:06:19.59Z</time></trkpt><trkpt lat="44.04423" lon="12.5744467"><ele>11.25</ele><time>2026-04-05T07:06:20.59Z</time></trkpt><trkpt lat="44.0441433" lon="12.5743267"><ele>11.5</ele><time>2026-04-05T07:06:21.59Z</time></trkpt><trkpt lat="44.04405" lon="12.5741933"><ele>11.75</ele><time>2026-04-05T07:06:22.59Z</time></trkpt><trkpt lat="44.04399" lon="12.5740817"><ele>12.0</ele><time>2026-04-05T07:06:23.777Z</time></trkpt><trkpt lat="44.0438617" lon="12.573825"><ele>11.333333333333334</ele><time>2026-04-05T07:06:25.09Z</time></trkpt><trkpt lat="44.0437548" lon="12.5736493"><ele>10.666666666666668</ele><time>2026-04-05T07:06:26.089Z</time></trkpt><trkpt lat="44.0436412" lon="12.573491"><ele>10.0</ele><time>2026-04-05T07:06:27.09Z</time></trkpt><trkpt lat="44.0434652" lon="12.573253"><ele>10.0</ele><time>2026-04-05T07:06:28.591Z</time></trkpt><trkpt lat="44.0433171" lon="12.5730832"><ele>10.0</ele><time>2026-04-05T07:06:29.591Z</time></trkpt><trkpt lat="44.0431597" lon="12.5728981"><ele>10.0</ele><time>2026-04-05T07:06:30.591Z</time></trkpt><trkpt lat="44.0430121" lon="12.5727022"><ele>10.0</ele><time>2026-04-05T07:06:31.59Z</time></trkpt><trkpt lat="44.0428872" lon="12.5725133"><ele>10.0</ele><time>2026-04-05T07:06:32.591Z</time></trkpt><trkpt lat="44.042537" lon="12.5723569"><ele>10.0</ele><time>2026-04-05T07:06:34.096Z</time></trkpt><trkpt lat="44.0424313" lon="12.5721999"><ele>10.0</ele><time>2026-04-05T07:06:35.089Z</time></trkpt><trkpt lat="44.042401" lon="12.5720153"><ele>10.0</ele><time>2026-04-05T07:06:36.089Z</time></trkpt><trkpt lat="44.0423632" lon="12.5718593"><ele>10.0</ele><time>2026-04-05T07:06:37.09Z</time></trkpt><trkpt lat="44.0422598" lon="12.5716816"><ele>10.0</ele><time>2026-04-05T07:06:38.59Z</time></trkpt><trkpt lat="44.0422023" lon="12.5715622"><ele>10.0</ele><time>2026-04-05T07:06:39.591Z</time></trkpt><trkpt lat="44.0421769" lon="12.5714238"><ele>10.0</ele><time>2026-04-05T07:06:40.591Z</time></trkpt><trkpt lat="44.042177" lon="12.5712673"><ele>10.0</ele><time>2026-04-05T07:06:41.591Z</time></trkpt><trkpt lat="44.042185" lon="12.5711058"><ele>10.0</ele><time>2026-04-05T07:06:42.59Z</time></trkpt><trkpt lat="44.0421882" lon="12.5709278"><ele>10.0</ele><time>2026-04-05T07:06:43.589Z</time></trkpt><trkpt lat="44.0421705" lon="12.5707454"><ele>10.0</ele><time>2026-04-05T07:06:44.589Z</time></trkpt><trkpt lat="44.0421401" lon="12.570561"><ele>10.0</ele><time>2026-04-05T07:06:45.59Z</time></trkpt><trkpt lat="44.0421202" lon="12.5703662"><ele>10.0</ele><time>2026-04-05T07:06:46.589Z</time></trkpt><trkpt lat="44.0421206" lon="12.5701352"><ele>9.666666666666668</ele><time>2026-04-05T07:06:47.59Z</time></trkpt><trkpt lat="44.0421402" lon="12.5698564"><ele>9.333333333333334</ele><time>2026-04-05T07:06:48.59Z</time></trkpt><trkpt lat="44.0421616" lon="12.5695454"><ele>9.0</ele><time>2026-04-05T07:06:49.59Z</time></trkpt><trkpt lat="44.0421826" lon="12.5692259"><ele>9.0</ele><time>2026-04-05T07:06:50.589Z</time></trkpt><trkpt lat="44.0422077" lon="12.5688938"><ele>9.0</ele><time>2026-04-05T07:06:51.59Z</time></trkpt><trkpt lat="44.0422319" lon="12.568548"><ele>10.5</ele><time>2026-04-05T07:06:52.59Z</time></trkpt><trkpt lat="44.0422561" lon="12.5681921"><ele>12.0</ele><time>2026-04-05T07:06:53.59Z</time></trkpt><trkpt lat="44.0422832" lon="12.5678248"><ele>12.0</ele><time>2026-04-05T07:06:54.59Z</time></trkpt><trkpt lat="44.0423151" lon="12.5674541"><ele>12.0</ele><time>2026-04-05T07:06:55.59Z</time></trkpt><trkpt lat="44.0423517" lon="12.567098"><ele>10.5</ele><time>2026-04-05T07:06:56.59Z</time></trkpt><trkpt lat="44.042401" lon="12.5667542"><ele>9.0</ele><time>2026-04-05T07:06:57.59Z</time></trkpt><trkpt lat="44.0424632" lon="12.5664196"><ele>9.0</ele><time>2026-04-05T07:06:58.589Z</time></trkpt><trkpt lat="44.0425282" lon="12.56609"><ele>9.0</ele><time>2026-04-05T07:06:59.59Z</time></trkpt><trkpt lat="44.0425992" lon="12.5657608"><ele>9.0</ele><time>2026-04-05T07:07:00.589Z</time></trkpt><trkpt lat="44.0426775" lon="12.5654301"><ele>9.0</ele><time>2026-04-05T07:07:01.59Z</time></trkpt><trkpt lat="44.0427578" lon="12.5650983"><ele>9.0</ele><time>2026-04-05T07:07:02.59Z</time></trkpt><trkpt lat="44.042835" lon="12.5647647"><ele>9.0</ele><time>2026-04-05T07:07:03.589Z</time></trkpt><trkpt lat="44.0429184" lon="12.5644343"><ele>8.5</ele><time>2026-04-05T07:07:04.59Z</time></trkpt><trkpt lat="44.0430058" lon="12.5641162"><ele>8.0</ele><time>2026-04-05T07:07:05.59Z</time></trkpt><trkpt lat="44.0430892" lon="12.5638056"><ele>8.0</ele><time>2026-04-05T07:07:06.59Z</time></trkpt><trkpt lat="44.0431761" lon="12.5634968"><ele>8.0</ele><time>2026-04-05T07:07:07.59Z</time></trkpt><trkpt lat="44.0432624" lon="12.5632003"><ele>8.666666666666666</ele><time>2026-04-05T07:07:08.589Z</time></trkpt><trkpt lat="44.0433384" lon="12.562918"><ele>9.333333333333334</ele><time>2026-04-05T07:07:09.589Z</time></trkpt><trkpt lat="44.0434079" lon="12.5626517"><ele>10.0</ele><time>2026-04-05T07:07:10.59Z</time></trkpt><trkpt lat="44.0434755" lon="12.5623926"><ele>10.0</ele><time>2026-04-05T07:07:11.59Z</time></trkpt><trkpt lat="44.0435402" lon="12.56214"><ele>10.0</ele><time>2026-04-05T07:07:12.589Z</time></trkpt><trkpt lat="44.0436031" lon="12.5619006"><ele>10.0</ele><time>2026-04-05T07:07:13.589Z</time></trkpt><trkpt lat="44.0436623" lon="12.5616738"><ele>10.666666666666668</ele><time>2026-04-05T07:07:14.59Z</time></trkpt><trkpt lat="44.0437189" lon="12.5614592"><ele>11.333333333333334</ele><time>2026-04-05T07:07:15.59Z</time></trkpt><trkpt lat="44.0437702" lon="12.56125"><ele>12.0</ele><time>2026-04-05T07:07:16.59Z</time></trkpt><trkpt lat="44.043818" lon="12.5610407"><ele>12.0</ele><time>2026-04-05T07:07:17.59Z</time></trkpt><trkpt lat="44.0438631" lon="12.5608407"><ele>12.0</ele><time>2026-04-05T07:07:18.59Z</time></trkpt><trkpt lat="44.0439059" lon="12.5606579"><ele>12.0</ele><time>2026-04-05T07:07:19.589Z</time></trkpt><trkpt lat="44.043947" lon="12.5604986"><ele>12.0</ele><time>2026-04-05T07:07:20.589Z</time></trkpt><trkpt lat="44.0439875" lon="12.5603621"><ele>12.0</ele><time>2026-04-05T07:07:21.59Z</time></trkpt><trkpt lat="44.0440351" lon="12.560245"><ele>12.0</ele><time>2026-04-05T07:07:22.59Z</time></trkpt><trkpt lat="44.0440987" lon="12.5601388"><ele>12.0</ele><time>2026-04-05T07:07:23.59Z</time></trkpt><trkpt lat="44.0441692" lon="12.5600537"><ele>12.0</ele><time>2026-04-05T07:07:24.59Z</time></trkpt><trkpt lat="44.0442309" lon="12.5599665"><ele>12.0</ele><time>2026-04-05T07:07:25.59Z</time></trkpt><trkpt lat="44.0442756" lon="12.5598612"><ele>12.25</ele><time>2026-04-05T07:07:26.59Z</time></trkpt><trkpt lat="44.0442977" lon="12.5597255"><ele>12.5</ele><time>2026-04-05T07:07:27.589Z</time></trkpt><trkpt lat="44.0443031" lon="12.5595486"><ele>12.75</ele><time>2026-04-05T07:07:28.59Z</time></trkpt><trkpt lat="44.0443082" lon="12.5593347"><ele>13.0</ele><time>2026-04-05T07:07:29.589Z</time></trkpt><trkpt lat="44.0443362" lon="12.5590947"><ele>12.333333333333332</ele><time>2026-04-05T07:07:30.589Z</time></trkpt><trkpt lat="44.0443853" lon="12.5588257"><ele>11.666666666666666</ele><time>2026-04-05T07:07:31.59Z</time></trkpt><trkpt lat="44.044457" lon="12.5585353"><ele>11.0</ele><time>2026-04-05T07:07:32.59Z</time></trkpt><trkpt lat="44.04454" lon="12.55822"><ele>11.0</ele><time>2026-04-05T07:07:33.59Z</time></trkpt><trkpt lat="44.0446233" lon="12.5579017"><ele>11.0</ele><time>2026-04-05T07:07:34.59Z</time></trkpt><trkpt lat="44.0447133" lon="12.557575"><ele>11.0</ele><time>2026-04-05T07:07:35.589Z</time></trkpt><trkpt lat="44.04481" lon="12.5572433"><ele>11.0</ele><time>2026-04-05T07:07:36.59Z</time></trkpt><trkpt lat="44.0449067" lon="12.5569"><ele>10.5</ele><time>2026-04-05T07:07:37.589Z</time></trkpt><trkpt lat="44.0449983" lon="12.556545"><ele>10.0</ele><time>2026-04-05T07:07:38.59Z</time></trkpt><trkpt lat="44.0450933" lon="12.5561883"><ele>10.0</ele><time>2026-04-05T07:07:39.59Z</time></trkpt><trkpt lat="44.045185" lon="12.555845"><ele>10.0</ele><time>2026-04-05T07:07:40.59Z</time></trkpt><trkpt lat="44.04527" lon="12.5555267"><ele>10.5</ele><time>2026-04-05T07:07:41.59Z</time></trkpt><trkpt lat="44.0453517" lon="12.5552283"><ele>11.0</ele><time>2026-04-05T07:07:42.59Z</time></trkpt><trkpt lat="44.0454283" lon="12.55494"><ele>11.0</ele><time>2026-04-05T07:07:43.59Z</time></trkpt><trkpt lat="44.045505" lon="12.554665"><ele>11.0</ele><time>2026-04-05T07:07:44.589Z</time></trkpt><trkpt lat="44.045585" lon="12.554405"><ele>11.0</ele><time>2026-04-05T07:07:45.59Z</time></trkpt><trkpt lat="44.045665" lon="12.554165"><ele>11.666666666666666</ele><time>2026-04-05T07:07:46.59Z</time></trkpt><trkpt lat="44.0457467" lon="12.553945"><ele>12.333333333333332</ele><time>2026-04-05T07:07:47.59Z</time></trkpt><trkpt lat="44.0458233" lon="12.5537433"><ele>13.0</ele><time>2026-04-05T07:07:48.59Z</time></trkpt><trkpt lat="44.0458883" lon="12.55356"><ele>12.0</ele><time>2026-04-05T07:07:49.59Z</time></trkpt><trkpt lat="44.0459583" lon="12.5534083"><ele>11.0</ele><time>2026-04-05T07:07:50.59Z</time></trkpt><trkpt lat="44.0460433" lon="12.5532933"><ele>10.0</ele><time>2026-04-05T07:07:51.59Z</time></trkpt><trkpt lat="44.0461317" lon="12.553215"><ele>9.0</ele><time>2026-04-05T07:07:52.59Z</time></trkpt><trkpt lat="44.046225" lon="12.5531633"><ele>9.0</ele><time>2026-04-05T07:07:53.59Z</time></trkpt><trkpt lat="44.0463117" lon="12.5531017"><ele>9.0</ele><time>2026-04-05T07:07:54.59Z</time></trkpt><trkpt lat="44.0463733" lon="12.553005"><ele>9.0</ele><time>2026-04-05T07:07:55.59Z</time></trkpt><trkpt lat="44.0463933" lon="12.5528883"><ele>9.0</ele><time>2026-04-05T07:07:56.59Z</time></trkpt><trkpt lat="44.0463783" lon="12.5527633"><ele>9.0</ele><time>2026-04-05T07:07:57.589Z</time></trkpt><trkpt lat="44.0463367" lon="12.552655"><ele>9.6</ele><time>2026-04-05T07:07:58.59Z</time></trkpt><trkpt lat="44.0462683" lon="12.5525733"><ele>10.2</ele><time>2026-04-05T07:07:59.59Z</time></trkpt><trkpt lat="44.0461767" lon="12.552525"><ele>10.799999999999999</ele><time>2026-04-05T07:08:00.589Z</time></trkpt><trkpt lat="44.046065" lon="12.5524883"><ele>11.4</ele><time>2026-04-05T07:08:01.59Z</time></trkpt><trkpt lat="44.0459433" lon="12.5524233"><ele>12.0</ele><time>2026-04-05T07:08:02.59Z</time></trkpt><trkpt lat="44.0458383" lon="12.5523117"><ele>12.0</ele><time>2026-04-05T07:08:03.59Z</time></trkpt><trkpt lat="44.04571" lon="12.552175"><ele>12.0</ele><time>2026-04-05T07:08:04.589Z</time></trkpt><trkpt lat="44.045575" lon="12.55201"><ele>12.0</ele><time>2026-04-05T07:08:05.589Z</time></trkpt><trkpt lat="44.0454383" lon="12.5518667"><ele>13.25</ele><time>2026-04-05T07:08:06.589Z</time></trkpt><trkpt lat="44.0453133" lon="12.55173"><ele>14.5</ele><time>2026-04-05T07:08:07.59Z</time></trkpt><trkpt lat="44.0451943" lon="12.5516101"><ele>15.75</ele><time>2026-04-05T07:08:08.589Z</time></trkpt><trkpt lat="44.0450984" lon="12.5514992"><ele>17.0</ele><time>2026-04-05T07:08:09.59Z</time></trkpt><trkpt lat="44.0450268" lon="12.5514009"><ele>17.0</ele><time>2026-04-05T07:08:10.59Z</time></trkpt><trkpt lat="44.0449757" lon="12.5512917"><ele>17.0</ele><time>2026-04-05T07:08:11.589Z</time></trkpt><trkpt lat="44.0449565" lon="12.5511671"><ele>17.0</ele><time>2026-04-05T07:08:12.589Z</time></trkpt><trkpt lat="44.0449672" lon="12.5510378"><ele>17.0</ele><time>2026-04-05T07:08:13.59Z</time></trkpt><trkpt lat="44.0449945" lon="12.5509061"><ele>17.0</ele><time>2026-04-05T07:08:14.589Z</time></trkpt><trkpt lat="44.0449927" lon="12.5507632"><ele>17.75</ele><time>2026-04-05T07:08:15.59Z</time></trkpt><trkpt lat="44.0449477" lon="12.5506178"><ele>18.5</ele><time>2026-04-05T07:08:16.589Z</time></trkpt><trkpt lat="44.0448798" lon="12.5504521"><ele>19.25</ele><time>2026-04-05T07:08:17.589Z</time></trkpt><trkpt lat="44.0448081" lon="12.5502805"><ele>20.0</ele><time>2026-04-05T07:08:18.59Z</time></trkpt><trkpt lat="44.0447204" lon="12.5501203"><ele>20.0</ele><time>2026-04-05T07:08:19.589Z</time></trkpt><trkpt lat="44.0445952" lon="12.5499717"><ele>20.0</ele><time>2026-04-05T07:08:20.59Z</time></trkpt><trkpt lat="44.0444675" lon="12.5498397"><ele>20.0</ele><time>2026-04-05T07:08:21.589Z</time></trkpt><trkpt lat="44.0443454" lon="12.5496958"><ele>18.666666666666668</ele><time>2026-04-05T07:08:22.59Z</time></trkpt><trkpt lat="44.0442373" lon="12.5495162"><ele>17.333333333333332</ele><time>2026-04-05T07:08:23.589Z</time></trkpt><trkpt lat="44.0441328" lon="12.549302"><ele>16.0</ele><time>2026-04-05T07:08:24.59Z</time></trkpt><trkpt lat="44.0440459" lon="12.5490741"><ele>16.0</ele><time>2026-04-05T07:08:25.589Z</time></trkpt><trkpt lat="44.0439759" lon="12.5488465"><ele>16.0</ele><time>2026-04-05T07:08:26.59Z</time></trkpt><trkpt lat="44.0439183" lon="12.548614"><ele>16.0</ele><time>2026-04-05T07:08:27.59Z</time></trkpt><trkpt lat="44.0438732" lon="12.5483682"><ele>16.666666666666664</ele><time>2026-04-05T07:08:28.589Z</time></trkpt><trkpt lat="44.0438426" lon="12.5481031"><ele>17.333333333333332</ele><time>2026-04-05T07:08:29.59Z</time></trkpt><trkpt lat="44.0438214" lon="12.5478315"><ele>18.0</ele><time>2026-04-05T07:08:30.59Z</time></trkpt><trkpt lat="44.0437956" lon="12.5475655"><ele>18.333333333333332</ele><time>2026-04-05T07:08:31.59Z</time></trkpt><trkpt lat="44.043762" lon="12.5473069"><ele>18.666666666666664</ele><time>2026-04-05T07:08:32.589Z</time></trkpt><trkpt lat="44.0437337" lon="12.5470617"><ele>19.0</ele><time>2026-04-05T07:08:33.59Z</time></trkpt><trkpt lat="44.043702" lon="12.5468319"><ele>19.666666666666664</ele><time>2026-04-05T07:08:34.59Z</time></trkpt><trkpt lat="44.0436528" lon="12.5466126"><ele>20.333333333333332</ele><time>2026-04-05T07:08:35.589Z</time></trkpt><trkpt lat="44.0435861" lon="12.5463991"><ele>21.0</ele><time>2026-04-05T07:08:36.59Z</time></trkpt><trkpt lat="44.0434984" lon="12.5462112"><ele>20.0</ele><time>2026-04-05T07:08:37.59Z</time></trkpt><trkpt lat="44.0433977" lon="12.5460514"><ele>19.0</ele><time>2026-04-05T07:08:38.59Z</time></trkpt><trkpt lat="44.0433092" lon="12.5458862"><ele>18.0</ele><time>2026-04-05T07:08:39.589Z</time></trkpt><trkpt lat="44.0432428" lon="12.5457067"><ele>17.0</ele><time>2026-04-05T07:08:40.589Z</time></trkpt><trkpt lat="44.0432091" lon="12.5455099"><ele>16.0</ele><time>2026-04-05T07:08:41.589Z</time></trkpt><trkpt lat="44.0432153" lon="12.5452965"><ele>15.0</ele><time>2026-04-05T07:08:42.589Z</time></trkpt><trkpt lat="44.043267" lon="12.5450694"><ele>14.0</ele><time>2026-04-05T07:08:43.59Z</time></trkpt><trkpt lat="44.0433554" lon="12.544814"><ele>12.5</ele><time>2026-04-05T07:08:44.589Z</time></trkpt><trkpt lat="44.0434639" lon="12.5445284"><ele>11.0</ele><time>2026-04-05T07:08:45.589Z</time></trkpt><trkpt lat="44.0435824" lon="12.5442299"><ele>11.0</ele><time>2026-04-05T07:08:46.59Z</time></trkpt><trkpt lat="44.0436958" lon="12.5439345"><ele>11.0</ele><time>2026-04-05T07:08:47.59Z</time></trkpt><trkpt lat="44.0438105" lon="12.5436439"><ele>10.333333333333332</ele><time>2026-04-05T07:08:48.589Z</time></trkpt><trkpt lat="44.0439292" lon="12.5433812"><ele>9.666666666666666</ele><time>2026-04-05T07:08:49.589Z</time></trkpt><trkpt lat="44.044056" lon="12.5431436"><ele>9.0</ele><time>2026-04-05T07:08:50.59Z</time></trkpt><trkpt lat="44.0441751" lon="12.5429313"><ele>9.666666666666666</ele><time>2026-04-05T07:08:51.59Z</time></trkpt><trkpt lat="44.0442818" lon="12.5427242"><ele>10.333333333333332</ele><time>2026-04-05T07:08:52.59Z</time></trkpt><trkpt lat="44.0443598" lon="12.5425119"><ele>11.0</ele><time>2026-04-05T07:08:53.59Z</time></trkpt><trkpt lat="44.0444064" lon="12.5422751"><ele>11.0</ele><time>2026-04-05T07:08:54.59Z</time></trkpt><trkpt lat="44.0444089" lon="12.5420102"><ele>11.0</ele><time>2026-04-05T07:08:55.589Z</time></trkpt><trkpt lat="44.0443834" lon="12.5417391"><ele>11.0</ele><time>2026-04-05T07:08:56.59Z</time></trkpt><trkpt lat="44.0443434" lon="12.5414605"><ele>10.666666666666666</ele><time>2026-04-05T07:08:57.59Z</time></trkpt><trkpt lat="44.044302" lon="12.5411844"><ele>10.333333333333334</ele><time>2026-04-05T07:08:58.59Z</time></trkpt><trkpt lat="44.04427" lon="12.5409018"><ele>10.0</ele><time>2026-04-05T07:08:59.589Z</time></trkpt><trkpt lat="44.0442431" lon="12.540629"><ele>10.333333333333334</ele><time>2026-04-05T07:09:00.59Z</time></trkpt><trkpt lat="44.0442255" lon="12.5403758"><ele>10.666666666666666</ele><time>2026-04-05T07:09:01.59Z</time></trkpt><trkpt lat="44.0442173" lon="12.5401369"><ele>11.0</ele><time>2026-04-05T07:09:02.589Z</time></trkpt><trkpt lat="44.0442096" lon="12.5399181"><ele>11.0</ele><time>2026-04-05T07:09:03.589Z</time></trkpt><trkpt lat="44.0442137" lon="12.5397137"><ele>11.0</ele><time>2026-04-05T07:09:04.59Z</time></trkpt><trkpt lat="44.0442458" lon="12.539533"><ele>11.0</ele><time>2026-04-05T07:09:05.589Z</time></trkpt><trkpt lat="44.0443194" lon="12.5393625"><ele>11.0</ele><time>2026-04-05T07:09:06.59Z</time></trkpt><trkpt lat="44.0444195" lon="12.5392159"><ele>13.25</ele><time>2026-04-05T07:09:07.59Z</time></trkpt><trkpt lat="44.0445236" lon="12.5391066"><ele>15.5</ele><time>2026-04-05T07:09:08.589Z</time></trkpt><trkpt lat="44.0446163" lon="12.5389941"><ele>17.75</ele><time>2026-04-05T07:09:09.59Z</time></trkpt><trkpt lat="44.0446836" lon="12.5388672"><ele>20.0</ele><time>2026-04-05T07:09:10.59Z</time></trkpt><trkpt lat="44.0447003" lon="12.5387208"><ele>21.5</ele><time>2026-04-05T07:09:11.589Z</time></trkpt><trkpt lat="44.0446615" lon="12.5385666"><ele>23.0</ele><time>2026-04-05T07:09:12.59Z</time></trkpt><trkpt lat="44.0445872" lon="12.5384213"><ele>24.5</ele><time>2026-04-05T07:09:13.59Z</time></trkpt><trkpt lat="44.0444908" lon="12.5382834"><ele>26.0</ele><time>2026-04-05T07:09:14.59Z</time></trkpt><trkpt lat="44.0443932" lon="12.5381527"><ele>26.0</ele><time>2026-04-05T07:09:15.589Z</time></trkpt><trkpt lat="44.044314" lon="12.5380138"><ele>26.0</ele><time>2026-04-05T07:09:16.59Z</time></trkpt><trkpt lat="44.0442607" lon="12.5378486"><ele>26.0</ele><time>2026-04-05T07:09:17.589Z</time></trkpt><trkpt lat="44.0442313" lon="12.5376641"><ele>26.0</ele><time>2026-04-05T07:09:18.59Z</time></trkpt><trkpt lat="44.0442223" lon="12.5374887"><ele>25.6</ele><time>2026-04-05T07:09:19.59Z</time></trkpt><trkpt lat="44.0442028" lon="12.5373424"><ele>25.200000000000003</ele><time>2026-04-05T07:09:20.59Z</time></trkpt><trkpt lat="44.0441539" lon="12.5372173"><ele>24.799999999999997</ele><time>2026-04-05T07:09:21.59Z</time></trkpt><trkpt lat="44.0440713" lon="12.5371308"><ele>24.4</ele><time>2026-04-05T07:09:22.59Z</time></trkpt><trkpt lat="44.0439628" lon="12.5370825"><ele>24.0</ele><time>2026-04-05T07:09:23.59Z</time></trkpt><trkpt lat="44.0438211" lon="12.5370688"><ele>20.666666666666668</ele><time>2026-04-05T07:09:24.589Z</time></trkpt><trkpt lat="44.0436622" lon="12.5370523"><ele>17.333333333333336</ele><time>2026-04-05T07:09:25.589Z</time></trkpt><trkpt lat="44.0435042" lon="12.5370049"><ele>14.0</ele><time>2026-04-05T07:09:26.59Z</time></trkpt><trkpt lat="44.0433533" lon="12.5369204"><ele>13.666666666666668</ele><time>2026-04-05T07:09:27.59Z</time></trkpt><trkpt lat="44.0432131" lon="12.5368007"><ele>13.333333333333332</ele><time>2026-04-05T07:09:28.59Z</time></trkpt><trkpt lat="44.043072" lon="12.5366543"><ele>13.0</ele><time>2026-04-05T07:09:29.589Z</time></trkpt><trkpt lat="44.0429277" lon="12.5365007"><ele>13.0</ele><time>2026-04-05T07:09:30.59Z</time></trkpt><trkpt lat="44.0427926" lon="12.5363414"><ele>13.0</ele><time>2026-04-05T07:09:31.59Z</time></trkpt><trkpt lat="44.0426581" lon="12.5361857"><ele>13.0</ele><time>2026-04-05T07:09:32.59Z</time></trkpt><trkpt lat="44.0425144" lon="12.536018"><ele>13.0</ele><time>2026-04-05T07:09:33.59Z</time></trkpt><trkpt lat="44.0423625" lon="12.5358445"><ele>13.0</ele><time>2026-04-05T07:09:34.59Z</time></trkpt><trkpt lat="44.0422138" lon="12.5356832"><ele>13.0</ele><time>2026-04-05T07:09:35.59Z</time></trkpt><trkpt lat="44.0420756" lon="12.5355176"><ele>13.333333333333332</ele><time>2026-04-05T07:09:36.59Z</time></trkpt><trkpt lat="44.0419462" lon="12.5353467"><ele>13.666666666666668</ele><time>2026-04-05T07:09:37.59Z</time></trkpt><trkpt lat="44.0418264" lon="12.5351729"><ele>14.0</ele><time>2026-04-05T07:09:38.589Z</time></trkpt><trkpt lat="44.0417151" lon="12.5350007"><ele>14.666666666666668</ele><time>2026-04-05T07:09:39.59Z</time></trkpt><trkpt lat="44.0416174" lon="12.534824"><ele>15.333333333333332</ele><time>2026-04-05T07:09:40.59Z</time></trkpt><trkpt lat="44.0415303" lon="12.5346421"><ele>16.0</ele><time>2026-04-05T07:09:41.589Z</time></trkpt><trkpt lat="44.041469" lon="12.5344485"><ele>17.0</ele><time>2026-04-05T07:09:42.59Z</time></trkpt><trkpt lat="44.0414421" lon="12.534236"><ele>18.0</ele><time>2026-04-05T07:09:43.59Z</time></trkpt><trkpt lat="44.0414625" lon="12.5340049"><ele>19.0</ele><time>2026-04-05T07:09:44.589Z</time></trkpt><trkpt lat="44.0415215" lon="12.5337542"><ele>20.0</ele><time>2026-04-05T07:09:45.589Z</time></trkpt><trkpt lat="44.0416109" lon="12.5334742"><ele>21.0</ele><time>2026-04-05T07:09:46.59Z</time></trkpt><trkpt lat="44.041713" lon="12.533178"><ele>18.5</ele><time>2026-04-05T07:09:47.589Z</time></trkpt><trkpt lat="44.0418191" lon="12.5328696"><ele>16.0</ele><time>2026-04-05T07:09:48.589Z</time></trkpt><trkpt lat="44.0419287" lon="12.5325456"><ele>16.0</ele><time>2026-04-05T07:09:49.589Z</time></trkpt><trkpt lat="44.0420454" lon="12.5322248"><ele>16.0</ele><time>2026-04-05T07:09:50.59Z</time></trkpt><trkpt lat="44.0421573" lon="12.5319147"><ele>17.0</ele><time>2026-04-05T07:09:51.59Z</time></trkpt><trkpt lat="44.0422692" lon="12.5316253"><ele>18.0</ele><time>2026-04-05T07:09:52.59Z</time></trkpt><trkpt lat="44.0423706" lon="12.5313555"><ele>18.0</ele><time>2026-04-05T07:09:53.59Z</time></trkpt><trkpt lat="44.0424582" lon="12.5310949"><ele>18.0</ele><time>2026-04-05T07:09:54.59Z</time></trkpt><trkpt lat="44.0425451" lon="12.5308564"><ele>18.0</ele><time>2026-04-05T07:09:55.589Z</time></trkpt><trkpt lat="44.0426266" lon="12.5306353"><ele>18.0</ele><time>2026-04-05T07:09:56.59Z</time></trkpt><trkpt lat="44.0426978" lon="12.5304344"><ele>18.0</ele><time>2026-04-05T07:09:57.589Z</time></trkpt><trkpt lat="44.0427598" lon="12.5302517"><ele>18.0</ele><time>2026-04-05T07:09:58.59Z</time></trkpt><trkpt lat="44.0428104" lon="12.5300749"><ele>18.0</ele><time>2026-04-05T07:09:59.59Z</time></trkpt><trkpt lat="44.042843" lon="12.5298941"><ele>18.25</ele><time>2026-04-05T07:10:00.59Z</time></trkpt><trkpt lat="44.0428451" lon="12.5297058"><ele>18.5</ele><time>2026-04-05T07:10:01.59Z</time></trkpt><trkpt lat="44.0428052" lon="12.5295116"><ele>18.75</ele><time>2026-04-05T07:10:02.59Z</time></trkpt><trkpt lat="44.0427446" lon="12.5293122"><ele>19.0</ele><time>2026-04-05T07:10:03.59Z</time></trkpt><trkpt lat="44.0426561" lon="12.5291248"><ele>19.0</ele><time>2026-04-05T07:10:04.59Z</time></trkpt><trkpt lat="44.04255" lon="12.5289408"><ele>19.0</ele><time>2026-04-05T07:10:05.59Z</time></trkpt><trkpt lat="44.0424297" lon="12.5287447"><ele>19.0</ele><time>2026-04-05T07:10:06.59Z</time></trkpt><trkpt lat="44.0423011" lon="12.5285377"><ele>19.333333333333332</ele><time>2026-04-05T07:10:07.59Z</time></trkpt><trkpt lat="44.0421742" lon="12.5283263"><ele>19.666666666666668</ele><time>2026-04-05T07:10:08.59Z</time></trkpt><trkpt lat="44.0420615" lon="12.5281248"><ele>20.0</ele><time>2026-04-05T07:10:09.59Z</time></trkpt><trkpt lat="44.0419601" lon="12.52793"><ele>18.333333333333336</ele><time>2026-04-05T07:10:10.59Z</time></trkpt><trkpt lat="44.0418723" lon="12.5277281"><ele>16.666666666666668</ele><time>2026-04-05T07:10:11.589Z</time></trkpt><trkpt lat="44.0417997" lon="12.5275142"><ele>15.0</ele><time>2026-04-05T07:10:12.59Z</time></trkpt><trkpt lat="44.0417364" lon="12.5272776"><ele>14.666666666666668</ele><time>2026-04-05T07:10:13.589Z</time></trkpt><trkpt lat="44.0416718" lon="12.5270264"><ele>14.333333333333334</ele><time>2026-04-05T07:10:14.59Z</time></trkpt><trkpt lat="44.0416104" lon="12.5267683"><ele>14.0</ele><time>2026-04-05T07:10:15.59Z</time></trkpt><trkpt lat="44.0415581" lon="12.5265007"><ele>16.333333333333336</ele><time>2026-04-05T07:10:16.589Z</time></trkpt><trkpt lat="44.041521" lon="12.5262327"><ele>18.666666666666668</ele><time>2026-04-05T07:10:17.59Z</time></trkpt><trkpt lat="44.0414905" lon="12.5259755"><ele>21.0</ele><time>2026-04-05T07:10:18.59Z</time></trkpt><trkpt lat="44.0414636" lon="12.5257391"><ele>21.0</ele><time>2026-04-05T07:10:19.59Z</time></trkpt><trkpt lat="44.0414441" lon="12.5255243"><ele>21.0</ele><time>2026-04-05T07:10:20.589Z</time></trkpt><trkpt lat="44.041448" lon="12.5253211"><ele>21.0</ele><time>2026-04-05T07:10:21.59Z</time></trkpt><trkpt lat="44.0414807" lon="12.5251275"><ele>21.0</ele><time>2026-04-05T07:10:22.59Z</time></trkpt><trkpt lat="44.0415393" lon="12.5249309"><ele>20.0</ele><time>2026-04-05T07:10:23.59Z</time></trkpt><trkpt lat="44.0416328" lon="12.5247174"><ele>19.0</ele><time>2026-04-05T07:10:24.59Z</time></trkpt><trkpt lat="44.0417317" lon="12.5244883"><ele>18.0</ele><time>2026-04-05T07:10:25.59Z</time></trkpt><trkpt lat="44.0418252" lon="12.5242574"><ele>17.666666666666668</ele><time>2026-04-05T07:10:26.589Z</time></trkpt><trkpt lat="44.04191" lon="12.5240338"><ele>17.333333333333336</ele><time>2026-04-05T07:10:27.59Z</time></trkpt><trkpt lat="44.0419841" lon="12.5238006"><ele>17.0</ele><time>2026-04-05T07:10:28.589Z</time></trkpt><trkpt lat="44.0420254" lon="12.5235622"><ele>15.333333333333334</ele><time>2026-04-05T07:10:29.59Z</time></trkpt><trkpt lat="44.0420257" lon="12.5233314"><ele>13.666666666666668</ele><time>2026-04-05T07:10:30.59Z</time></trkpt><trkpt lat="44.0420098" lon="12.5231261"><ele>12.0</ele><time>2026-04-05T07:10:31.589Z</time></trkpt><trkpt lat="44.041968" lon="12.5229296"><ele>12.333333333333332</ele><time>2026-04-05T07:10:32.59Z</time></trkpt><trkpt lat="44.0418894" lon="12.5227304"><ele>12.666666666666666</ele><time>2026-04-05T07:10:33.59Z</time></trkpt><trkpt lat="44.0417872" lon="12.5225332"><ele>13.0</ele><time>2026-04-05T07:10:34.589Z</time></trkpt><trkpt lat="44.0416801" lon="12.5223424"><ele>13.333333333333332</ele><time>2026-04-05T07:10:35.59Z</time></trkpt><trkpt lat="44.0415738" lon="12.5221523"><ele>13.666666666666668</ele><time>2026-04-05T07:10:36.59Z</time></trkpt><trkpt lat="44.041458" lon="12.5219518"><ele>14.0</ele><time>2026-04-05T07:10:37.59Z</time></trkpt><trkpt lat="44.041331" lon="12.5217365"><ele>14.0</ele><time>2026-04-05T07:10:38.59Z</time></trkpt><trkpt lat="44.0412025" lon="12.5215129"><ele>14.0</ele><time>2026-04-05T07:10:39.59Z</time></trkpt><trkpt lat="44.0410736" lon="12.5212846"><ele>14.0</ele><time>2026-04-05T07:10:40.589Z</time></trkpt><trkpt lat="44.0409477" lon="12.5210503"><ele>13.666666666666668</ele><time>2026-04-05T07:10:41.589Z</time></trkpt><trkpt lat="44.0408245" lon="12.5207983"><ele>13.333333333333332</ele><time>2026-04-05T07:10:42.59Z</time></trkpt><trkpt lat="44.0407031" lon="12.5205451"><ele>13.0</ele><time>2026-04-05T07:10:43.59Z</time></trkpt><trkpt lat="44.0405852" lon="12.5202904"><ele>12.666666666666666</ele><time>2026-04-05T07:10:44.589Z</time></trkpt><trkpt lat="44.0404644" lon="12.5200363"><ele>12.333333333333332</ele><time>2026-04-05T07:10:45.59Z</time></trkpt><trkpt lat="44.040351" lon="12.519798"><ele>12.0</ele><time>2026-04-05T07:10:46.589Z</time></trkpt><trkpt lat="44.0402381" lon="12.5195719"><ele>12.333333333333332</ele><time>2026-04-05T07:10:47.59Z</time></trkpt><trkpt lat="44.0401199" lon="12.5193439"><ele>12.666666666666666</ele><time>2026-04-05T07:10:48.59Z</time></trkpt><trkpt lat="44.0399984" lon="12.5191267"><ele>13.0</ele><time>2026-04-05T07:10:49.59Z</time></trkpt><trkpt lat="44.039862" lon="12.5189145"><ele>13.0</ele><time>2026-04-05T07:10:50.59Z</time></trkpt><trkpt lat="44.0397155" lon="12.5187068"><ele>13.0</ele><time>2026-04-05T07:10:51.59Z</time></trkpt><trkpt lat="44.039551" lon="12.5185043"><ele>13.0</ele><time>2026-04-05T07:10:52.589Z</time></trkpt><trkpt lat="44.0393731" lon="12.5183131"><ele>13.0</ele><time>2026-04-05T07:10:53.589Z</time></trkpt><trkpt lat="44.0392011" lon="12.5181287"><ele>13.0</ele><time>2026-04-05T07:10:54.589Z</time></trkpt><trkpt lat="44.0390352" lon="12.5179619"><ele>13.0</ele><time>2026-04-05T07:10:55.589Z</time></trkpt><trkpt lat="44.0388767" lon="12.5178078"><ele>13.666666666666666</ele><time>2026-04-05T07:10:56.589Z</time></trkpt><trkpt lat="44.0387229" lon="12.5176558"><ele>14.333333333333332</ele><time>2026-04-05T07:10:57.589Z</time></trkpt><trkpt lat="44.0385837" lon="12.5174993"><ele>15.0</ele><time>2026-04-05T07:10:58.59Z</time></trkpt><trkpt lat="44.0384564" lon="12.5173309"><ele>15.0</ele><time>2026-04-05T07:10:59.589Z</time></trkpt><trkpt lat="44.0383337" lon="12.5171579"><ele>15.0</ele><time>2026-04-05T07:11:00.59Z</time></trkpt><trkpt lat="44.0382209" lon="12.5169625"><ele>15.0</ele><time>2026-04-05T07:11:01.589Z</time></trkpt><trkpt lat="44.0381137" lon="12.5167543"><ele>16.666666666666668</ele><time>2026-04-05T07:11:02.59Z</time></trkpt><trkpt lat="44.0380116" lon="12.5165206"><ele>18.333333333333336</ele><time>2026-04-05T07:11:03.59Z</time></trkpt><trkpt lat="44.0379107" lon="12.5162741"><ele>20.0</ele><time>2026-04-05T07:11:04.589Z</time></trkpt><trkpt lat="44.037814" lon="12.5160144"><ele>20.666666666666668</ele><time>2026-04-05T07:11:05.59Z</time></trkpt><trkpt lat="44.0377227" lon="12.5157591"><ele>21.333333333333332</ele><time>2026-04-05T07:11:06.59Z</time></trkpt><trkpt lat="44.0376391" lon="12.5155264"><ele>22.0</ele><time>2026-04-05T07:11:07.59Z</time></trkpt><trkpt lat="44.0375657" lon="12.5153165"><ele>22.25</ele><time>2026-04-05T07:11:08.589Z</time></trkpt><trkpt lat="44.0375036" lon="12.5151307"><ele>22.5</ele><time>2026-04-05T07:11:09.59Z</time></trkpt><trkpt lat="44.0374473" lon="12.5149755"><ele>22.75</ele><time>2026-04-05T07:11:10.59Z</time></trkpt><trkpt lat="44.0373857" lon="12.5148554"><ele>23.0</ele><time>2026-04-05T07:11:11.589Z</time></trkpt><trkpt lat="44.0373016" lon="12.5147871"><ele>25.0</ele><time>2026-04-05T07:11:12.589Z</time></trkpt><trkpt lat="44.0372056" lon="12.5147923"><ele>27.0</ele><time>2026-04-05T07:11:13.59Z</time></trkpt><trkpt lat="44.0371211" lon="12.5148644"><ele>28.999999999999996</ele><time>2026-04-05T07:11:14.589Z</time></trkpt><trkpt lat="44.0370511" lon="12.5149944"><ele>31.0</ele><time>2026-04-05T07:11:15.589Z</time></trkpt><trkpt lat="44.0369915" lon="12.5151519"><ele>33.0</ele><time>2026-04-05T07:11:16.59Z</time></trkpt><trkpt lat="44.0369174" lon="12.5152861"><ele>33.0</ele><time>2026-04-05T07:11:17.59Z</time></trkpt><trkpt lat="44.0368135" lon="12.5153705"><ele>33.0</ele><time>2026-04-05T07:11:18.589Z</time></trkpt><trkpt lat="44.0366902" lon="12.5153973"><ele>33.0</ele><time>2026-04-05T07:11:19.59Z</time></trkpt><trkpt lat="44.0365526" lon="12.515364"><ele>33.0</ele><time>2026-04-05T07:11:20.59Z</time></trkpt><trkpt lat="44.0364047" lon="12.5152959"><ele>35.0</ele><time>2026-04-05T07:11:21.589Z</time></trkpt><trkpt lat="44.0362382" lon="12.5152125"><ele>37.0</ele><time>2026-04-05T07:11:22.589Z</time></trkpt><trkpt lat="44.0360597" lon="12.5151233"><ele>39.0</ele><time>2026-04-05T07:11:23.589Z</time></trkpt><trkpt lat="44.0358687" lon="12.515036"><ele>40.666666666666664</ele><time>2026-04-05T07:11:24.59Z</time></trkpt><trkpt lat="44.0356746" lon="12.5149542"><ele>42.33333333333333</ele><time>2026-04-05T07:11:25.59Z</time></trkpt><trkpt lat="44.0354913" lon="12.5148953"><ele>44.0</ele><time>2026-04-05T07:11:26.59Z</time></trkpt><trkpt lat="44.0353132" lon="12.5148818"><ele>44.0</ele><time>2026-04-05T07:11:27.59Z</time></trkpt><trkpt lat="44.035151" lon="12.5149098"><ele>44.0</ele><time>2026-04-05T07:11:28.59Z</time></trkpt><trkpt lat="44.0350025" lon="12.5149472"><ele>44.0</ele><time>2026-04-05T07:11:29.59Z</time></trkpt><trkpt lat="44.034856" lon="12.5149456"><ele>45.666666666666664</ele><time>2026-04-05T07:11:30.59Z</time></trkpt><trkpt lat="44.0347096" lon="12.5148754"><ele>47.33333333333333</ele><time>2026-04-05T07:11:31.59Z</time></trkpt><trkpt lat="44.0345657" lon="12.5147358"><ele>49.0</ele><time>2026-04-05T07:11:32.589Z</time></trkpt><trkpt lat="44.0344024" lon="12.5145412"><ele>49.0</ele><time>2026-04-05T07:11:33.654Z</time></trkpt><trkpt lat="44.034257" lon="12.5143243"><ele>49.0</ele><time>2026-04-05T07:11:35.089Z</time></trkpt><trkpt lat="44.0341206" lon="12.514214"><ele>49.0</ele><time>2026-04-05T07:11:36.09Z</time></trkpt><trkpt lat="44.0339527" lon="12.5140716"><ele>50.0</ele><time>2026-04-05T07:11:37.59Z</time></trkpt><trkpt lat="44.0338479" lon="12.5140432"><ele>51.0</ele><time>2026-04-05T07:11:38.589Z</time></trkpt><trkpt lat="44.0337499" lon="12.5140787"><ele>52.0</ele><time>2026-04-05T07:11:39.589Z</time></trkpt><trkpt lat="44.0336592" lon="12.5141936"><ele>53.0</ele><time>2026-04-05T07:11:40.59Z</time></trkpt><trkpt lat="44.0335658" lon="12.5143667"><ele>53.0</ele><time>2026-04-05T07:11:41.589Z</time></trkpt><trkpt lat="44.0334717" lon="12.5145561"><ele>53.0</ele><time>2026-04-05T07:11:42.59Z</time></trkpt><trkpt lat="44.0333792" lon="12.5147205"><ele>53.0</ele><time>2026-04-05T07:11:43.589Z</time></trkpt><trkpt lat="44.033266" lon="12.5148484"><ele>52.66666666666667</ele><time>2026-04-05T07:11:44.589Z</time></trkpt><trkpt lat="44.0331212" lon="12.5149398"><ele>52.33333333333333</ele><time>2026-04-05T07:11:45.59Z</time></trkpt><trkpt lat="44.0329449" lon="12.5149969"><ele>52.0</ele><time>2026-04-05T07:11:46.59Z</time></trkpt><trkpt lat="44.0327487" lon="12.5150343"><ele>52.0</ele><time>2026-04-05T07:11:47.59Z</time></trkpt><trkpt lat="44.0325464" lon="12.5150546"><ele>52.0</ele><time>2026-04-05T07:11:48.59Z</time></trkpt><trkpt lat="44.0323522" lon="12.5150486"><ele>52.0</ele><time>2026-04-05T07:11:49.59Z</time></trkpt><trkpt lat="44.0321647" lon="12.5149903"><ele>53.666666666666664</ele><time>2026-04-05T07:11:50.59Z</time></trkpt><trkpt lat="44.0319805" lon="12.5148754"><ele>55.33333333333333</ele><time>2026-04-05T07:11:51.59Z</time></trkpt><trkpt lat="44.031791" lon="12.5147399"><ele>57.0</ele><time>2026-04-05T07:11:52.59Z</time></trkpt><trkpt lat="44.0316048" lon="12.5146035"><ele>59.66666666666667</ele><time>2026-04-05T07:11:53.59Z</time></trkpt><trkpt lat="44.0314337" lon="12.5144638"><ele>62.333333333333336</ele><time>2026-04-05T07:11:54.59Z</time></trkpt><trkpt lat="44.0312806" lon="12.5142916"><ele>65.0</ele><time>2026-04-05T07:11:55.59Z</time></trkpt><trkpt lat="44.0311473" lon="12.5140843"><ele>65.0</ele><time>2026-04-05T07:11:56.59Z</time></trkpt><trkpt lat="44.0310077" lon="12.5138638"><ele>65.0</ele><time>2026-04-05T07:11:57.59Z</time></trkpt><trkpt lat="44.030865" lon="12.5136446"><ele>65.0</ele><time>2026-04-05T07:11:58.59Z</time></trkpt><trkpt lat="44.0307319" lon="12.5134379"><ele>67.33333333333334</ele><time>2026-04-05T07:11:59.59Z</time></trkpt><trkpt lat="44.0306074" lon="12.513245"><ele>69.66666666666667</ele><time>2026-04-05T07:12:00.589Z</time></trkpt><trkpt lat="44.0304762" lon="12.5130769"><ele>72.0</ele><time>2026-04-05T07:12:01.59Z</time></trkpt><trkpt lat="44.0303267" lon="12.5129352"><ele>72.33333333333333</ele><time>2026-04-05T07:12:02.589Z</time></trkpt><trkpt lat="44.0301577" lon="12.5128078"><ele>72.66666666666666</ele><time>2026-04-05T07:12:03.59Z</time></trkpt><trkpt lat="44.0299793" lon="12.5126914"><ele>73.0</ele><time>2026-04-05T07:12:04.59Z</time></trkpt><trkpt lat="44.0298197" lon="12.5125787"><ele>74.0</ele><time>2026-04-05T07:12:05.59Z</time></trkpt><trkpt lat="44.0296697" lon="12.5124718"><ele>75.0</ele><time>2026-04-05T07:12:06.59Z</time></trkpt><trkpt lat="44.0295251" lon="12.5123726"><ele>76.0</ele><time>2026-04-05T07:12:07.59Z</time></trkpt><trkpt lat="44.0293967" lon="12.5122875"><ele>76.0</ele><time>2026-04-05T07:12:08.59Z</time></trkpt><trkpt lat="44.0292549" lon="12.5122411"><ele>76.0</ele><time>2026-04-05T07:12:09.589Z</time></trkpt><trkpt lat="44.0290939" lon="12.5122443"><ele>76.0</ele><time>2026-04-05T07:12:10.59Z</time></trkpt><trkpt lat="44.0289109" lon="12.5123023"><ele>76.0</ele><time>2026-04-05T07:12:11.59Z</time></trkpt><trkpt lat="44.0287083" lon="12.5123901"><ele>76.0</ele><time>2026-04-05T07:12:12.589Z</time></trkpt><trkpt lat="44.0284874" lon="12.5124848"><ele>76.0</ele><time>2026-04-05T07:12:13.59Z</time></trkpt><trkpt lat="44.0282545" lon="12.5125861"><ele>76.0</ele><time>2026-04-05T07:12:14.59Z</time></trkpt><trkpt lat="44.0280251" lon="12.5126835"><ele>76.0</ele><time>2026-04-05T07:12:15.589Z</time></trkpt><trkpt lat="44.0278129" lon="12.5127673"><ele>76.0</ele><time>2026-04-05T07:12:16.59Z</time></trkpt><trkpt lat="44.0276161" lon="12.5128409"><ele>76.0</ele><time>2026-04-05T07:12:17.59Z</time></trkpt><trkpt lat="44.027427" lon="12.5129083"><ele>76.0</ele><time>2026-04-05T07:12:18.59Z</time></trkpt><trkpt lat="44.0272546" lon="12.512974"><ele>77.0</ele><time>2026-04-05T07:12:19.59Z</time></trkpt><trkpt lat="44.0271002" lon="12.5130315"><ele>78.0</ele><time>2026-04-05T07:12:20.59Z</time></trkpt><trkpt lat="44.0269569" lon="12.5130782"><ele>79.0</ele><time>2026-04-05T07:12:21.59Z</time></trkpt><trkpt lat="44.0268264" lon="12.5131126"><ele>80.0</ele><time>2026-04-05T07:12:22.59Z</time></trkpt><trkpt lat="44.0267048" lon="12.5131258"><ele>79.5</ele><time>2026-04-05T07:12:23.59Z</time></trkpt><trkpt lat="44.0265913" lon="12.5131028"><ele>79.0</ele><time>2026-04-05T07:12:24.589Z</time></trkpt><trkpt lat="44.0264849" lon="12.5130255"><ele>78.5</ele><time>2026-04-05T07:12:25.589Z</time></trkpt><trkpt lat="44.0263874" lon="12.5129004"><ele>78.0</ele><time>2026-04-05T07:12:26.589Z</time></trkpt><trkpt lat="44.0263035" lon="12.5127497"><ele>78.0</ele><time>2026-04-05T07:12:27.589Z</time></trkpt><trkpt lat="44.0262243" lon="12.5126056"><ele>78.0</ele><time>2026-04-05T07:12:28.59Z</time></trkpt><trkpt lat="44.0261423" lon="12.5124673"><ele>78.0</ele><time>2026-04-05T07:12:29.59Z</time></trkpt><trkpt lat="44.0260518" lon="12.5123238"><ele>78.0</ele><time>2026-04-05T07:12:30.59Z</time></trkpt><trkpt lat="44.0259429" lon="12.5121495"><ele>78.0</ele><time>2026-04-05T07:12:31.59Z</time></trkpt><trkpt lat="44.0258142" lon="12.5119397"><ele>78.0</ele><time>2026-04-05T07:12:32.59Z</time></trkpt><trkpt lat="44.0256627" lon="12.5117227"><ele>78.0</ele><time>2026-04-05T07:12:33.589Z</time></trkpt><trkpt lat="44.0255024" lon="12.5114998"><ele>82.0</ele><time>2026-04-05T07:12:34.59Z</time></trkpt><trkpt lat="44.0253399" lon="12.5112796"><ele>86.0</ele><time>2026-04-05T07:12:35.59Z</time></trkpt><trkpt lat="44.0251689" lon="12.5110752"><ele>86.0</ele><time>2026-04-05T07:12:36.589Z</time></trkpt><trkpt lat="44.0249925" lon="12.510909"><ele>86.0</ele><time>2026-04-05T07:12:37.589Z</time></trkpt><trkpt lat="44.0248267" lon="12.5107683"><ele>86.0</ele><time>2026-04-05T07:12:38.589Z</time></trkpt><trkpt lat="44.0246767" lon="12.5105967"><ele>89.33333333333334</ele><time>2026-04-05T07:12:39.59Z</time></trkpt><trkpt lat="44.0245517" lon="12.5103717"><ele>92.66666666666667</ele><time>2026-04-05T07:12:40.59Z</time></trkpt><trkpt lat="44.0244317" lon="12.5101017"><ele>96.0</ele><time>2026-04-05T07:12:41.59Z</time></trkpt><trkpt lat="44.0243167" lon="12.509815"><ele>94.66666666666667</ele><time>2026-04-05T07:12:42.589Z</time></trkpt><trkpt lat="44.0242067" lon="12.50954"><ele>93.33333333333334</ele><time>2026-04-05T07:12:43.589Z</time></trkpt><trkpt lat="44.0241" lon="12.5092783"><ele>92.0</ele><time>2026-04-05T07:12:44.59Z</time></trkpt><trkpt lat="44.02399" lon="12.5090333"><ele>94.33333333333334</ele><time>2026-04-05T07:12:45.59Z</time></trkpt><trkpt lat="44.023885" lon="12.5088067"><ele>96.66666666666667</ele><time>2026-04-05T07:12:46.589Z</time></trkpt><trkpt lat="44.0237867" lon="12.5085833"><ele>99.0</ele><time>2026-04-05T07:12:47.59Z</time></trkpt><trkpt lat="44.0236983" lon="12.508355"><ele>99.0</ele><time>2026-04-05T07:12:48.59Z</time></trkpt><trkpt lat="44.0236267" lon="12.5081017"><ele>99.0</ele><time>2026-04-05T07:12:49.59Z</time></trkpt><trkpt lat="44.02358" lon="12.5078267"><ele>99.0</ele><time>2026-04-05T07:12:50.59Z</time></trkpt><trkpt lat="44.0235233" lon="12.5075583"><ele>98.33333333333334</ele><time>2026-04-05T07:12:51.59Z</time></trkpt><trkpt lat="44.0234617" lon="12.5072833"><ele>97.66666666666667</ele><time>2026-04-05T07:12:52.589Z</time></trkpt><trkpt lat="44.0233967" lon="12.5070117"><ele>97.0</ele><time>2026-04-05T07:12:53.589Z</time></trkpt><trkpt lat="44.0233433" lon="12.5067383"><ele>96.66666666666667</ele><time>2026-04-05T07:12:54.59Z</time></trkpt><trkpt lat="44.023275" lon="12.5064567"><ele>96.33333333333334</ele><time>2026-04-05T07:12:55.59Z</time></trkpt><trkpt lat="44.02321" lon="12.5061867"><ele>96.0</ele><time>2026-04-05T07:12:56.59Z</time></trkpt><trkpt lat="44.0231467" lon="12.505915"><ele>94.33333333333333</ele><time>2026-04-05T07:12:57.59Z</time></trkpt><trkpt lat="44.0230833" lon="12.5056567"><ele>92.66666666666666</ele><time>2026-04-05T07:12:58.59Z</time></trkpt><trkpt lat="44.0230117" lon="12.5054083"><ele>91.0</ele><time>2026-04-05T07:12:59.589Z</time></trkpt><trkpt lat="44.0229433" lon="12.5051633"><ele>90.66666666666666</ele><time>2026-04-05T07:13:00.59Z</time></trkpt><trkpt lat="44.0228933" lon="12.5049167"><ele>90.33333333333333</ele><time>2026-04-05T07:13:01.59Z</time></trkpt><trkpt lat="44.022865" lon="12.5046517"><ele>90.0</ele><time>2026-04-05T07:13:02.589Z</time></trkpt><trkpt lat="44.0228567" lon="12.5043833"><ele>89.66666666666667</ele><time>2026-04-05T07:13:03.59Z</time></trkpt><trkpt lat="44.0228667" lon="12.50412"><ele>89.33333333333334</ele><time>2026-04-05T07:13:04.59Z</time></trkpt><trkpt lat="44.0228817" lon="12.503875"><ele>89.0</ele><time>2026-04-05T07:13:05.59Z</time></trkpt><trkpt lat="44.022885" lon="12.50363"><ele>89.66666666666667</ele><time>2026-04-05T07:13:06.59Z</time></trkpt><trkpt lat="44.0228733" lon="12.5033967"><ele>90.33333333333333</ele><time>2026-04-05T07:13:07.59Z</time></trkpt><trkpt lat="44.022815" lon="12.5031717"><ele>91.0</ele><time>2026-04-05T07:13:08.59Z</time></trkpt><trkpt lat="44.0227167" lon="12.5029533"><ele>90.66666666666666</ele><time>2026-04-05T07:13:09.59Z</time></trkpt><trkpt lat="44.0226283" lon="12.502735"><ele>90.33333333333333</ele><time>2026-04-05T07:13:10.59Z</time></trkpt><trkpt lat="44.022555" lon="12.5024983"><ele>90.0</ele><time>2026-04-05T07:13:11.59Z</time></trkpt><trkpt lat="44.02247" lon="12.5022767"><ele>92.66666666666666</ele><time>2026-04-05T07:13:12.589Z</time></trkpt><trkpt lat="44.0223667" lon="12.5020767"><ele>95.33333333333333</ele><time>2026-04-05T07:13:13.59Z</time></trkpt><trkpt lat="44.022235" lon="12.50189"><ele>98.0</ele><time>2026-04-05T07:13:14.589Z</time></trkpt><trkpt lat="44.0220933" lon="12.501705"><ele>98.0</ele><time>2026-04-05T07:13:15.59Z</time></trkpt><trkpt lat="44.0219567" lon="12.5015183"><ele>98.0</ele><time>2026-04-05T07:13:16.59Z</time></trkpt><trkpt lat="44.0218117" lon="12.5013267"><ele>98.0</ele><time>2026-04-05T07:13:17.59Z</time></trkpt><trkpt lat="44.0216717" lon="12.50113"><ele>100.33333333333333</ele><time>2026-04-05T07:13:18.589Z</time></trkpt><trkpt lat="44.0215367" lon="12.5009383"><ele>102.66666666666666</ele><time>2026-04-05T07:13:19.59Z</time></trkpt><trkpt lat="44.0213933" lon="12.5007483"><ele>105.0</ele><time>2026-04-05T07:13:20.59Z</time></trkpt><trkpt lat="44.0212533" lon="12.50055"><ele>104.66666666666666</ele><time>2026-04-05T07:13:21.59Z</time></trkpt><trkpt lat="44.0211167" lon="12.5003533"><ele>104.33333333333333</ele><time>2026-04-05T07:13:22.59Z</time></trkpt><trkpt lat="44.020975" lon="12.500155"><ele>104.0</ele><time>2026-04-05T07:13:23.589Z</time></trkpt><trkpt lat="44.0208317" lon="12.4999617"><ele>104.0</ele><time>2026-04-05T07:13:24.589Z</time></trkpt><trkpt lat="44.0206817" lon="12.4997767"><ele>104.0</ele><time>2026-04-05T07:13:25.59Z</time></trkpt><trkpt lat="44.020525" lon="12.4995867"><ele>104.0</ele><time>2026-04-05T07:13:26.59Z</time></trkpt><trkpt lat="44.0203617" lon="12.4993967"><ele>104.0</ele><time>2026-04-05T07:13:27.59Z</time></trkpt><trkpt lat="44.0202017" lon="12.499225"><ele>104.0</ele><time>2026-04-05T07:13:28.59Z</time></trkpt><trkpt lat="44.0200483" lon="12.4990717"><ele>104.0</ele><time>2026-04-05T07:13:29.59Z</time></trkpt><trkpt lat="44.0199083" lon="12.4989183"><ele>104.0</ele><time>2026-04-05T07:13:30.59Z</time></trkpt><trkpt lat="44.01978" lon="12.4987533"><ele>104.0</ele><time>2026-04-05T07:13:31.59Z</time></trkpt><trkpt lat="44.019655" lon="12.498565"><ele>104.0</ele><time>2026-04-05T07:13:32.59Z</time></trkpt><trkpt lat="44.0195417" lon="12.498355"><ele>107.0</ele><time>2026-04-05T07:13:33.59Z</time></trkpt><trkpt lat="44.0194367" lon="12.4981433"><ele>110.0</ele><time>2026-04-05T07:13:34.59Z</time></trkpt><trkpt lat="44.0193467" lon="12.4979533"><ele>113.0</ele><time>2026-04-05T07:13:35.59Z</time></trkpt><trkpt lat="44.0192483" lon="12.4977833"><ele>116.66666666666666</ele><time>2026-04-05T07:13:36.589Z</time></trkpt><trkpt lat="44.019135" lon="12.49765"><ele>120.33333333333334</ele><time>2026-04-05T07:13:37.59Z</time></trkpt><trkpt lat="44.0189867" lon="12.49757"><ele>124.0</ele><time>2026-04-05T07:13:38.589Z</time></trkpt><trkpt lat="44.01883" lon="12.4975133"><ele>124.0</ele><time>2026-04-05T07:13:39.59Z</time></trkpt><trkpt lat="44.018685" lon="12.4974733"><ele>124.0</ele><time>2026-04-05T07:13:40.59Z</time></trkpt><trkpt lat="44.01856" lon="12.497435"><ele>124.0</ele><time>2026-04-05T07:13:41.59Z</time></trkpt><trkpt lat="44.01846" lon="12.4974033"><ele>124.0</ele><time>2026-04-05T07:13:42.59Z</time></trkpt><trkpt lat="44.0183867" lon="12.49738"><ele>124.0</ele><time>2026-04-05T07:13:43.59Z</time></trkpt><trkpt lat="44.0182967" lon="12.4973433"><ele>124.0</ele><time>2026-04-05T07:13:45.589Z</time></trkpt><trkpt lat="44.0182217" lon="12.4972733"><ele>124.0</ele><time>2026-04-05T07:13:47.589Z</time></trkpt><trkpt lat="44.0181517" lon="12.4972283"><ele>124.0</ele><time>2026-04-05T07:13:48.59Z</time></trkpt><trkpt lat="44.0180633" lon="12.4971733"><ele>124.0</ele><time>2026-04-05T07:13:49.589Z</time></trkpt><trkpt lat="44.017955" lon="12.497095"><ele>124.33333333333334</ele><time>2026-04-05T07:13:50.59Z</time></trkpt><trkpt lat="44.0178517" lon="12.49696"><ele>124.66666666666666</ele><time>2026-04-05T07:13:51.59Z</time></trkpt><trkpt lat="44.01775" lon="12.4967883"><ele>125.0</ele><time>2026-04-05T07:13:52.59Z</time></trkpt><trkpt lat="44.017645" lon="12.4965833"><ele>125.0</ele><time>2026-04-05T07:13:53.589Z</time></trkpt><trkpt lat="44.01754" lon="12.4963733"><ele>125.0</ele><time>2026-04-05T07:13:54.59Z</time></trkpt><trkpt lat="44.0174317" lon="12.496165"><ele>125.0</ele><time>2026-04-05T07:13:55.59Z</time></trkpt><trkpt lat="44.017325" lon="12.49596"><ele>125.66666666666666</ele><time>2026-04-05T07:13:56.589Z</time></trkpt><trkpt lat="44.017205" lon="12.49575"><ele>126.33333333333334</ele><time>2026-04-05T07:13:57.589Z</time></trkpt><trkpt lat="44.0170783" lon="12.4955333"><ele>127.0</ele><time>2026-04-05T07:13:58.59Z</time></trkpt><trkpt lat="44.0169367" lon="12.495305"><ele>127.0</ele><time>2026-04-05T07:13:59.589Z</time></trkpt><trkpt lat="44.0167833" lon="12.495065"><ele>127.0</ele><time>2026-04-05T07:14:00.59Z</time></trkpt><trkpt lat="44.016605" lon="12.4948267"><ele>126.0</ele><time>2026-04-05T07:14:01.59Z</time></trkpt><trkpt lat="44.01642" lon="12.494585"><ele>125.0</ele><time>2026-04-05T07:14:02.59Z</time></trkpt><trkpt lat="44.016235" lon="12.4943417"><ele>125.0</ele><time>2026-04-05T07:14:03.59Z</time></trkpt><trkpt lat="44.0160517" lon="12.4941"><ele>125.0</ele><time>2026-04-05T07:14:04.59Z</time></trkpt><trkpt lat="44.015865" lon="12.49386"><ele>128.0</ele><time>2026-04-05T07:14:05.59Z</time></trkpt><trkpt lat="44.015665" lon="12.49362"><ele>131.0</ele><time>2026-04-05T07:14:06.59Z</time></trkpt><trkpt lat="44.0154683" lon="12.49338"><ele>131.0</ele><time>2026-04-05T07:14:07.59Z</time></trkpt><trkpt lat="44.0152617" lon="12.4931533"><ele>131.0</ele><time>2026-04-05T07:14:08.59Z</time></trkpt><trkpt lat="44.01505" lon="12.49293"><ele>133.0</ele><time>2026-04-05T07:14:09.589Z</time></trkpt><trkpt lat="44.014835" lon="12.4927067"><ele>135.0</ele><time>2026-04-05T07:14:10.589Z</time></trkpt><trkpt lat="44.01462" lon="12.4924883"><ele>135.0</ele><time>2026-04-05T07:14:11.59Z</time></trkpt><trkpt lat="44.0144217" lon="12.4922817"><ele>135.0</ele><time>2026-04-05T07:14:12.59Z</time></trkpt><trkpt lat="44.014225" lon="12.4920867"><ele>133.0</ele><time>2026-04-05T07:14:13.589Z</time></trkpt><trkpt lat="44.0140317" lon="12.4918933"><ele>131.0</ele><time>2026-04-05T07:14:14.59Z</time></trkpt><trkpt lat="44.01384" lon="12.4917"><ele>131.0</ele><time>2026-04-05T07:14:15.589Z</time></trkpt><trkpt lat="44.0136517" lon="12.491515"><ele>131.0</ele><time>2026-04-05T07:14:16.59Z</time></trkpt><trkpt lat="44.0134617" lon="12.4913367"><ele>132.0</ele><time>2026-04-05T07:14:17.59Z</time></trkpt><trkpt lat="44.0132667" lon="12.4911583"><ele>133.0</ele><time>2026-04-05T07:14:18.59Z</time></trkpt><trkpt lat="44.01307" lon="12.49101"><ele>133.0</ele><time>2026-04-05T07:14:19.59Z</time></trkpt><trkpt lat="44.0128817" lon="12.4908617"><ele>133.0</ele><time>2026-04-05T07:14:20.59Z</time></trkpt><trkpt lat="44.0126933" lon="12.49071"><ele>133.0</ele><time>2026-04-05T07:14:21.59Z</time></trkpt><trkpt lat="44.0124983" lon="12.4905567"><ele>136.5</ele><time>2026-04-05T07:14:22.59Z</time></trkpt><trkpt lat="44.0123" lon="12.4904033"><ele>140.0</ele><time>2026-04-05T07:14:23.59Z</time></trkpt><trkpt lat="44.012085" lon="12.49024"><ele>140.0</ele><time>2026-04-05T07:14:24.59Z</time></trkpt><trkpt lat="44.0118667" lon="12.490075"><ele>140.0</ele><time>2026-04-05T07:14:25.59Z</time></trkpt><trkpt lat="44.01165" lon="12.4899133"><ele>144.0</ele><time>2026-04-05T07:14:26.59Z</time></trkpt><trkpt lat="44.0114517" lon="12.4897567"><ele>148.0</ele><time>2026-04-05T07:14:27.59Z</time></trkpt><trkpt lat="44.0112633" lon="12.4895883"><ele>148.0</ele><time>2026-04-05T07:14:28.589Z</time></trkpt><trkpt lat="44.011075" lon="12.4894283"><ele>148.0</ele><time>2026-04-05T07:14:29.59Z</time></trkpt><trkpt lat="44.0108917" lon="12.4892883"><ele>148.0</ele><time>2026-04-05T07:14:30.59Z</time></trkpt><trkpt lat="44.0107283" lon="12.4891533"><ele>148.66666666666669</ele><time>2026-04-05T07:14:31.59Z</time></trkpt><trkpt lat="44.0105617" lon="12.489015"><ele>149.33333333333334</ele><time>2026-04-05T07:14:32.589Z</time></trkpt><trkpt lat="44.0103917" lon="12.4888767"><ele>150.0</ele><time>2026-04-05T07:14:33.589Z</time></trkpt><trkpt lat="44.01021" lon="12.4887033"><ele>147.5</ele><time>2026-04-05T07:14:34.59Z</time></trkpt><trkpt lat="44.0100217" lon="12.4885217"><ele>145.0</ele><time>2026-04-05T07:14:35.589Z</time></trkpt><trkpt lat="44.009845" lon="12.4883367"><ele>143.5</ele><time>2026-04-05T07:14:36.59Z</time></trkpt><trkpt lat="44.0096667" lon="12.4881467"><ele>142.0</ele><time>2026-04-05T07:14:37.59Z</time></trkpt><trkpt lat="44.0094867" lon="12.48795"><ele>142.0</ele><time>2026-04-05T07:14:38.59Z</time></trkpt><trkpt lat="44.0093" lon="12.4877567"><ele>142.0</ele><time>2026-04-05T07:14:39.59Z</time></trkpt><trkpt lat="44.00912" lon="12.487575"><ele>140.33333333333334</ele><time>2026-04-05T07:14:40.589Z</time></trkpt><trkpt lat="44.0089517" lon="12.4873917"><ele>138.66666666666666</ele><time>2026-04-05T07:14:41.589Z</time></trkpt><trkpt lat="44.0087817" lon="12.487205"><ele>137.0</ele><time>2026-04-05T07:14:42.59Z</time></trkpt><trkpt lat="44.0086033" lon="12.4870317"><ele>137.0</ele><time>2026-04-05T07:14:43.59Z</time></trkpt><trkpt lat="44.008415" lon="12.4868633"><ele>137.0</ele><time>2026-04-05T07:14:44.59Z</time></trkpt><trkpt lat="44.0082217" lon="12.4866883"><ele>133.5</ele><time>2026-04-05T07:14:45.59Z</time></trkpt><trkpt lat="44.0080217" lon="12.4865317"><ele>130.0</ele><time>2026-04-05T07:14:46.59Z</time></trkpt><trkpt lat="44.0078233" lon="12.48638"><ele>131.0</ele><time>2026-04-05T07:14:47.59Z</time></trkpt><trkpt lat="44.0076267" lon="12.48623"><ele>132.0</ele><time>2026-04-05T07:14:48.59Z</time></trkpt><trkpt lat="44.0074217" lon="12.4860883"><ele>133.33333333333334</ele><time>2026-04-05T07:14:49.589Z</time></trkpt><trkpt lat="44.007205" lon="12.48598"><ele>134.66666666666669</ele><time>2026-04-05T07:14:50.59Z</time></trkpt><trkpt lat="44.0070033" lon="12.4858817"><ele>136.0</ele><time>2026-04-05T07:14:51.589Z</time></trkpt><trkpt lat="44.0068183" lon="12.4857833"><ele>137.33333333333334</ele><time>2026-04-05T07:14:52.59Z</time></trkpt><trkpt lat="44.0066433" lon="12.485655"><ele>138.66666666666666</ele><time>2026-04-05T07:14:53.59Z</time></trkpt><trkpt lat="44.0064833" lon="12.4854817"><ele>140.0</ele><time>2026-04-05T07:14:54.59Z</time></trkpt><trkpt lat="44.006345" lon="12.4852833"><ele>140.33333333333331</ele><time>2026-04-05T07:14:55.589Z</time></trkpt><trkpt lat="44.00623" lon="12.4850933"><ele>140.66666666666666</ele><time>2026-04-05T07:14:56.589Z</time></trkpt><trkpt lat="44.0061133" lon="12.4849233"><ele>141.0</ele><time>2026-04-05T07:14:57.59Z</time></trkpt><trkpt lat="44.006005" lon="12.4847583"><ele>141.0</ele><time>2026-04-05T07:14:58.59Z</time></trkpt><trkpt lat="44.0058967" lon="12.4846"><ele>141.0</ele><time>2026-04-05T07:14:59.589Z</time></trkpt><trkpt lat="44.0058017" lon="12.48444"><ele>141.0</ele><time>2026-04-05T07:15:00.59Z</time></trkpt><trkpt lat="44.0057" lon="12.484275"><ele>141.33333333333334</ele><time>2026-04-05T07:15:01.59Z</time></trkpt><trkpt lat="44.0055867" lon="12.4840983"><ele>141.66666666666669</ele><time>2026-04-05T07:15:02.589Z</time></trkpt><trkpt lat="44.005455" lon="12.483915"><ele>142.0</ele><time>2026-04-05T07:15:03.59Z</time></trkpt><trkpt lat="44.0053183" lon="12.4837017"><ele>142.0</ele><time>2026-04-05T07:15:04.59Z</time></trkpt><trkpt lat="44.005155" lon="12.4834683"><ele>142.0</ele><time>2026-04-05T07:15:05.59Z</time></trkpt><trkpt lat="44.0049817" lon="12.4832117"><ele>143.5</ele><time>2026-04-05T07:15:06.589Z</time></trkpt><trkpt lat="44.004805" lon="12.4829417"><ele>145.0</ele><time>2026-04-05T07:15:07.59Z</time></trkpt><trkpt lat="44.0046367" lon="12.4826717"><ele>145.0</ele><time>2026-04-05T07:15:08.589Z</time></trkpt><trkpt lat="44.0044833" lon="12.4824233"><ele>145.0</ele><time>2026-04-05T07:15:09.59Z</time></trkpt><trkpt lat="44.004335" lon="12.482185"><ele>146.66666666666669</ele><time>2026-04-05T07:15:10.589Z</time></trkpt><trkpt lat="44.00419" lon="12.4819617"><ele>148.33333333333334</ele><time>2026-04-05T07:15:11.59Z</time></trkpt><trkpt lat="44.004025" lon="12.481755"><ele>150.0</ele><time>2026-04-05T07:15:12.59Z</time></trkpt><trkpt lat="44.0038533" lon="12.4815717"><ele>150.66666666666666</ele><time>2026-04-05T07:15:13.589Z</time></trkpt><trkpt lat="44.0036617" lon="12.4814167"><ele>151.33333333333331</ele><time>2026-04-05T07:15:14.59Z</time></trkpt><trkpt lat="44.00348" lon="12.4812783"><ele>152.0</ele><time>2026-04-05T07:15:15.59Z</time></trkpt><trkpt lat="44.0033083" lon="12.4811417"><ele>155.33333333333331</ele><time>2026-04-05T07:15:16.589Z</time></trkpt><trkpt lat="44.00315" lon="12.4810133"><ele>158.66666666666666</ele><time>2026-04-05T07:15:17.59Z</time></trkpt><trkpt lat="44.0030133" lon="12.4808833"><ele>162.0</ele><time>2026-04-05T07:15:18.59Z</time></trkpt><trkpt lat="44.0028967" lon="12.4807517"><ele>162.0</ele><time>2026-04-05T07:15:19.59Z</time></trkpt><trkpt lat="44.002825" lon="12.48058"><ele>162.0</ele><time>2026-04-05T07:15:20.59Z</time></trkpt><trkpt lat="44.0027967" lon="12.4803883"><ele>162.0</ele><time>2026-04-05T07:15:21.59Z</time></trkpt><trkpt lat="44.0027867" lon="12.4802183"><ele>162.0</ele><time>2026-04-05T07:15:22.59Z</time></trkpt><trkpt lat="44.0027667" lon="12.4800883"><ele>162.39999999999998</ele><time>2026-04-05T07:15:23.59Z</time></trkpt><trkpt lat="44.002715" lon="12.4800017"><ele>162.79999999999998</ele><time>2026-04-05T07:15:24.59Z</time></trkpt><trkpt lat="44.0026367" lon="12.47996"><ele>163.2</ele><time>2026-04-05T07:15:25.59Z</time></trkpt><trkpt lat="44.0025283" lon="12.4799867"><ele>163.6</ele><time>2026-04-05T07:15:26.59Z</time></trkpt><trkpt lat="44.00242" lon="12.480075"><ele>164.0</ele><time>2026-04-05T07:15:27.589Z</time></trkpt><trkpt lat="44.0023017" lon="12.480225"><ele>166.25</ele><time>2026-04-05T07:15:28.59Z</time></trkpt><trkpt lat="44.002195" lon="12.4804083"><ele>168.5</ele><time>2026-04-05T07:15:29.589Z</time></trkpt><trkpt lat="44.0020983" lon="12.4805667"><ele>170.75</ele><time>2026-04-05T07:15:30.589Z</time></trkpt><trkpt lat="44.0020117" lon="12.4806917"><ele>173.0</ele><time>2026-04-05T07:15:31.59Z</time></trkpt><trkpt lat="44.001935" lon="12.4807833"><ele>173.0</ele><time>2026-04-05T07:15:32.59Z</time></trkpt><trkpt lat="44.0018667" lon="12.4808267"><ele>173.0</ele><time>2026-04-05T07:15:33.59Z</time></trkpt><trkpt lat="44.0017883" lon="12.4808183"><ele>173.0</ele><time>2026-04-05T07:15:34.59Z</time></trkpt><trkpt lat="44.0017267" lon="12.4807567"><ele>173.0</ele><time>2026-04-05T07:15:35.589Z</time></trkpt><trkpt lat="44.0016967" lon="12.4806617"><ele>173.0</ele><time>2026-04-05T07:15:36.59Z</time></trkpt><trkpt lat="44.0017333" lon="12.48049"><ele>173.0</ele><time>2026-04-05T07:15:37.589Z</time></trkpt><trkpt lat="44.001775" lon="12.4802967"><ele>174.5</ele><time>2026-04-05T07:15:38.59Z</time></trkpt><trkpt lat="44.0018117" lon="12.4801067"><ele>176.0</ele><time>2026-04-05T07:15:39.589Z</time></trkpt><trkpt lat="44.0018333" lon="12.4799217"><ele>177.5</ele><time>2026-04-05T07:15:40.589Z</time></trkpt><trkpt lat="44.0018067" lon="12.4797383"><ele>179.0</ele><time>2026-04-05T07:15:41.589Z</time></trkpt><trkpt lat="44.0017317" lon="12.4795417"><ele>181.33333333333331</ele><time>2026-04-05T07:15:42.59Z</time></trkpt><trkpt lat="44.00163" lon="12.4793417"><ele>183.66666666666666</ele><time>2026-04-05T07:15:43.59Z</time></trkpt><trkpt lat="44.0015183" lon="12.479125"><ele>186.0</ele><time>2026-04-05T07:15:44.59Z</time></trkpt><trkpt lat="44.0013967" lon="12.478905"><ele>185.66666666666666</ele><time>2026-04-05T07:15:45.589Z</time></trkpt><trkpt lat="44.0012883" lon="12.4786883"><ele>185.33333333333331</ele><time>2026-04-05T07:15:46.589Z</time></trkpt><trkpt lat="44.0011983" lon="12.4784767"><ele>185.0</ele><time>2026-04-05T07:15:47.59Z</time></trkpt><trkpt lat="44.0011133" lon="12.4782267"><ele>185.0</ele><time>2026-04-05T07:15:48.59Z</time></trkpt><trkpt lat="44.0010383" lon="12.4779467"><ele>185.0</ele><time>2026-04-05T07:15:49.59Z</time></trkpt><trkpt lat="44.0009667" lon="12.4776517"><ele>185.0</ele><time>2026-04-05T07:15:50.59Z</time></trkpt><trkpt lat="44.0008967" lon="12.47737"><ele>184.33333333333331</ele><time>2026-04-05T07:15:51.59Z</time></trkpt><trkpt lat="44.000825" lon="12.4770967"><ele>183.66666666666666</ele><time>2026-04-05T07:15:52.589Z</time></trkpt><trkpt lat="44.0007483" lon="12.47683"><ele>183.0</ele><time>2026-04-05T07:15:53.59Z</time></trkpt><trkpt lat="44.00066" lon="12.476565"><ele>183.0</ele><time>2026-04-05T07:15:54.59Z</time></trkpt><trkpt lat="44.0005717" lon="12.4763133"><ele>183.0</ele><time>2026-04-05T07:15:55.59Z</time></trkpt><trkpt lat="44.0004867" lon="12.476085"><ele>183.0</ele><time>2026-04-05T07:15:56.589Z</time></trkpt><trkpt lat="44.0004033" lon="12.475875"><ele>185.5</ele><time>2026-04-05T07:15:57.59Z</time></trkpt><trkpt lat="44.0003067" lon="12.4756967"><ele>188.0</ele><time>2026-04-05T07:15:58.59Z</time></trkpt><trkpt lat="44.0002233" lon="12.4755417"><ele>190.5</ele><time>2026-04-05T07:15:59.589Z</time></trkpt><trkpt lat="44.0001383" lon="12.47541"><ele>193.0</ele><time>2026-04-05T07:16:00.59Z</time></trkpt><trkpt lat="44.0000433" lon="12.47531"><ele>195.0</ele><time>2026-04-05T07:16:01.59Z</time></trkpt><trkpt lat="43.9999367" lon="12.4752167"><ele>197.0</ele><time>2026-04-05T07:16:02.59Z</time></trkpt><trkpt lat="43.9997967" lon="12.475115"><ele>199.0</ele><time>2026-04-05T07:16:03.59Z</time></trkpt><trkpt lat="43.9996433" lon="12.4749933"><ele>199.0</ele><time>2026-04-05T07:16:04.59Z</time></trkpt><trkpt lat="43.9994633" lon="12.4748733"><ele>199.0</ele><time>2026-04-05T07:16:05.589Z</time></trkpt><trkpt lat="43.9992567" lon="12.4747533"><ele>199.0</ele><time>2026-04-05T07:16:06.589Z</time></trkpt><trkpt lat="43.9990483" lon="12.4746383"><ele>196.66666666666666</ele><time>2026-04-05T07:16:07.59Z</time></trkpt><trkpt lat="43.99886" lon="12.47453"><ele>194.33333333333331</ele><time>2026-04-05T07:16:08.59Z</time></trkpt><trkpt lat="43.9986817" lon="12.4744233"><ele>192.0</ele><time>2026-04-05T07:16:09.589Z</time></trkpt><trkpt lat="43.9985017" lon="12.47432"><ele>191.33333333333334</ele><time>2026-04-05T07:16:10.589Z</time></trkpt><trkpt lat="43.9983267" lon="12.474215"><ele>190.66666666666669</ele><time>2026-04-05T07:16:11.59Z</time></trkpt><trkpt lat="43.9981567" lon="12.4741117"><ele>190.0</ele><time>2026-04-05T07:16:12.589Z</time></trkpt><trkpt lat="43.9979917" lon="12.4740117"><ele>190.0</ele><time>2026-04-05T07:16:13.589Z</time></trkpt><trkpt lat="43.9978267" lon="12.47391"><ele>190.0</ele><time>2026-04-05T07:16:14.59Z</time></trkpt><trkpt lat="43.997675" lon="12.47381"><ele>190.0</ele><time>2026-04-05T07:16:15.589Z</time></trkpt><trkpt lat="43.9975283" lon="12.4737133"><ele>189.0</ele><time>2026-04-05T07:16:16.591Z</time></trkpt><trkpt lat="43.9973883" lon="12.4736017"><ele>188.0</ele><time>2026-04-05T07:16:17.591Z</time></trkpt><trkpt lat="43.9972496" lon="12.4734685"><ele>187.0</ele><time>2026-04-05T07:16:18.59Z</time></trkpt><trkpt lat="43.9971084" lon="12.4732987"><ele>187.0</ele><time>2026-04-05T07:16:19.591Z</time></trkpt><trkpt lat="43.9969692" lon="12.4730852"><ele>187.0</ele><time>2026-04-05T07:16:20.591Z</time></trkpt><trkpt lat="43.99682" lon="12.4728497"><ele>187.0</ele><time>2026-04-05T07:16:21.591Z</time></trkpt><trkpt lat="43.9966634" lon="12.4726111"><ele>184.0</ele><time>2026-04-05T07:16:22.591Z</time></trkpt><trkpt lat="43.9964887" lon="12.472362"><ele>181.0</ele><time>2026-04-05T07:16:23.591Z</time></trkpt><trkpt lat="43.9963074" lon="12.4721132"><ele>178.5</ele><time>2026-04-05T07:16:24.59Z</time></trkpt><trkpt lat="43.9961235" lon="12.4718643"><ele>176.0</ele><time>2026-04-05T07:16:25.59Z</time></trkpt><trkpt lat="43.9959409" lon="12.471626"><ele>176.0</ele><time>2026-04-05T07:16:26.59Z</time></trkpt><trkpt lat="43.9957608" lon="12.4713911"><ele>176.0</ele><time>2026-04-05T07:16:27.591Z</time></trkpt><trkpt lat="43.9955849" lon="12.4711572"><ele>175.5</ele><time>2026-04-05T07:16:28.59Z</time></trkpt><trkpt lat="43.995409" lon="12.4709253"><ele>175.0</ele><time>2026-04-05T07:16:29.591Z</time></trkpt><trkpt lat="43.9952379" lon="12.4706818"><ele>175.0</ele><time>2026-04-05T07:16:30.591Z</time></trkpt><trkpt lat="43.9950617" lon="12.4704313"><ele>175.0</ele><time>2026-04-05T07:16:31.591Z</time></trkpt><trkpt lat="43.9948811" lon="12.4701788"><ele>175.0</ele><time>2026-04-05T07:16:32.591Z</time></trkpt><trkpt lat="43.9947026" lon="12.4699239"><ele>175.0</ele><time>2026-04-05T07:16:33.591Z</time></trkpt><trkpt lat="43.9945243" lon="12.469671"><ele>173.0</ele><time>2026-04-05T07:16:34.591Z</time></trkpt><trkpt lat="43.9943468" lon="12.4694143"><ele>171.0</ele><time>2026-04-05T07:16:35.591Z</time></trkpt><trkpt lat="43.9941722" lon="12.4691552"><ele>173.5</ele><time>2026-04-05T07:16:36.591Z</time></trkpt><trkpt lat="43.9940004" lon="12.4689056"><ele>176.0</ele><time>2026-04-05T07:16:37.59Z</time></trkpt><trkpt lat="43.9938407" lon="12.4686669"><ele>176.5</ele><time>2026-04-05T07:16:38.591Z</time></trkpt><trkpt lat="43.9936862" lon="12.4684209"><ele>177.0</ele><time>2026-04-05T07:16:39.591Z</time></trkpt><trkpt lat="43.9935313" lon="12.4681633"><ele>176.5</ele><time>2026-04-05T07:16:40.59Z</time></trkpt><trkpt lat="43.9933627" lon="12.4679076"><ele>176.0</ele><time>2026-04-05T07:16:41.591Z</time></trkpt><trkpt lat="43.9931988" lon="12.4676551"><ele>176.0</ele><time>2026-04-05T07:16:42.59Z</time></trkpt><trkpt lat="43.9930396" lon="12.4674146"><ele>176.0</ele><time>2026-04-05T07:16:43.591Z</time></trkpt><trkpt lat="43.99288" lon="12.4671846"><ele>176.0</ele><time>2026-04-05T07:16:44.59Z</time></trkpt><trkpt lat="43.9927328" lon="12.4669557"><ele>176.0</ele><time>2026-04-05T07:16:45.591Z</time></trkpt><trkpt lat="43.9925889" lon="12.4667324"><ele>176.0</ele><time>2026-04-05T07:16:46.59Z</time></trkpt><trkpt lat="43.9924451" lon="12.466516"><ele>176.33333333333331</ele><time>2026-04-05T07:16:47.59Z</time></trkpt><trkpt lat="43.992307" lon="12.4663007"><ele>176.66666666666666</ele><time>2026-04-05T07:16:48.59Z</time></trkpt><trkpt lat="43.9921717" lon="12.4660854"><ele>177.0</ele><time>2026-04-05T07:16:49.591Z</time></trkpt><trkpt lat="43.9920349" lon="12.4658603"><ele>177.0</ele><time>2026-04-05T07:16:50.59Z</time></trkpt><trkpt lat="43.9918846" lon="12.4656394"><ele>177.0</ele><time>2026-04-05T07:16:51.591Z</time></trkpt><trkpt lat="43.991735" lon="12.4654224"><ele>177.0</ele><time>2026-04-05T07:16:52.591Z</time></trkpt><trkpt lat="43.9915868" lon="12.465213"><ele>176.33333333333334</ele><time>2026-04-05T07:16:53.591Z</time></trkpt><trkpt lat="43.9914361" lon="12.4650065"><ele>175.66666666666669</ele><time>2026-04-05T07:16:54.591Z</time></trkpt><trkpt lat="43.9912795" lon="12.4647967"><ele>175.0</ele><time>2026-04-05T07:16:55.59Z</time></trkpt><trkpt lat="43.991131" lon="12.4645827"><ele>174.33333333333334</ele><time>2026-04-05T07:16:56.59Z</time></trkpt><trkpt lat="43.990983" lon="12.4643757"><ele>173.66666666666666</ele><time>2026-04-05T07:16:57.591Z</time></trkpt><trkpt lat="43.9908457" lon="12.4641855"><ele>173.0</ele><time>2026-04-05T07:16:58.591Z</time></trkpt><trkpt lat="43.9907155" lon="12.4640111"><ele>174.66666666666666</ele><time>2026-04-05T07:16:59.591Z</time></trkpt><trkpt lat="43.9905895" lon="12.4638484"><ele>176.33333333333334</ele><time>2026-04-05T07:17:00.59Z</time></trkpt><trkpt lat="43.9904635" lon="12.4636928"><ele>178.0</ele><time>2026-04-05T07:17:01.591Z</time></trkpt><trkpt lat="43.990326" lon="12.4635391"><ele>178.0</ele><time>2026-04-05T07:17:02.591Z</time></trkpt><trkpt lat="43.9901729" lon="12.4633917"><ele>178.0</ele><time>2026-04-05T07:17:03.591Z</time></trkpt><trkpt lat="43.9900171" lon="12.4632543"><ele>178.0</ele><time>2026-04-05T07:17:04.59Z</time></trkpt><trkpt lat="43.9898736" lon="12.4631181"><ele>179.66666666666669</ele><time>2026-04-05T07:17:05.59Z</time></trkpt><trkpt lat="43.9897332" lon="12.4629954"><ele>181.33333333333334</ele><time>2026-04-05T07:17:06.59Z</time></trkpt><trkpt lat="43.9895809" lon="12.4628841"><ele>183.0</ele><time>2026-04-05T07:17:07.591Z</time></trkpt><trkpt lat="43.9894133" lon="12.4627715"><ele>183.66666666666666</ele><time>2026-04-05T07:17:08.591Z</time></trkpt><trkpt lat="43.98923" lon="12.4626572"><ele>184.33333333333331</ele><time>2026-04-05T07:17:09.591Z</time></trkpt><trkpt lat="43.989041" lon="12.4625527"><ele>185.0</ele><time>2026-04-05T07:17:10.591Z</time></trkpt><trkpt lat="43.988851" lon="12.4624443"><ele>185.0</ele><time>2026-04-05T07:17:11.591Z</time></trkpt><trkpt lat="43.988661" lon="12.4623332"><ele>185.0</ele><time>2026-04-05T07:17:12.591Z</time></trkpt><trkpt lat="43.9884618" lon="12.4622226"><ele>185.0</ele><time>2026-04-05T07:17:13.591Z</time></trkpt><trkpt lat="43.9882421" lon="12.4621166"><ele>184.0</ele><time>2026-04-05T07:17:14.591Z</time></trkpt><trkpt lat="43.9880184" lon="12.462011"><ele>183.0</ele><time>2026-04-05T07:17:15.59Z</time></trkpt><trkpt lat="43.9878025" lon="12.4619031"><ele>183.0</ele><time>2026-04-05T07:17:16.59Z</time></trkpt><trkpt lat="43.9875844" lon="12.4618019"><ele>183.0</ele><time>2026-04-05T07:17:17.59Z</time></trkpt><trkpt lat="43.9873599" lon="12.4616993"><ele>180.0</ele><time>2026-04-05T07:17:18.591Z</time></trkpt><trkpt lat="43.9871403" lon="12.4615977"><ele>177.0</ele><time>2026-04-05T07:17:19.591Z</time></trkpt><trkpt lat="43.9869326" lon="12.4614979"><ele>177.0</ele><time>2026-04-05T07:17:20.591Z</time></trkpt><trkpt lat="43.9867284" lon="12.461406"><ele>177.0</ele><time>2026-04-05T07:17:21.59Z</time></trkpt><trkpt lat="43.9865239" lon="12.4613057"><ele>177.0</ele><time>2026-04-05T07:17:22.59Z</time></trkpt><trkpt lat="43.9863175" lon="12.4612023"><ele>175.0</ele><time>2026-04-05T07:17:23.59Z</time></trkpt><trkpt lat="43.9861061" lon="12.4611118"><ele>173.0</ele><time>2026-04-05T07:17:24.591Z</time></trkpt><trkpt lat="43.9859059" lon="12.461031"><ele>171.0</ele><time>2026-04-05T07:17:25.591Z</time></trkpt><trkpt lat="43.9856999" lon="12.4609521"><ele>171.0</ele><time>2026-04-05T07:17:26.59Z</time></trkpt><trkpt lat="43.9854946" lon="12.4608724"><ele>171.0</ele><time>2026-04-05T07:17:27.59Z</time></trkpt><trkpt lat="43.9852942" lon="12.4608019"><ele>171.0</ele><time>2026-04-05T07:17:28.591Z</time></trkpt><trkpt lat="43.9850988" lon="12.4607434"><ele>171.66666666666666</ele><time>2026-04-05T07:17:29.591Z</time></trkpt><trkpt lat="43.9849043" lon="12.460698"><ele>172.33333333333331</ele><time>2026-04-05T07:17:30.591Z</time></trkpt><trkpt lat="43.984711" lon="12.4606653"><ele>173.0</ele><time>2026-04-05T07:17:31.591Z</time></trkpt><trkpt lat="43.9845024" lon="12.4606187"><ele>173.0</ele><time>2026-04-05T07:17:32.591Z</time></trkpt><trkpt lat="43.9843054" lon="12.4605504"><ele>173.0</ele><time>2026-04-05T07:17:33.591Z</time></trkpt><trkpt lat="43.9841163" lon="12.4604714"><ele>173.0</ele><time>2026-04-05T07:17:34.591Z</time></trkpt><trkpt lat="43.9839386" lon="12.4603924"><ele>175.66666666666666</ele><time>2026-04-05T07:17:35.59Z</time></trkpt><trkpt lat="43.9837742" lon="12.460313"><ele>178.33333333333334</ele><time>2026-04-05T07:17:36.591Z</time></trkpt><trkpt lat="43.9836222" lon="12.4602456"><ele>181.0</ele><time>2026-04-05T07:17:37.591Z</time></trkpt><trkpt lat="43.9834691" lon="12.4601959"><ele>182.0</ele><time>2026-04-05T07:17:38.59Z</time></trkpt><trkpt lat="43.983305" lon="12.460167"><ele>183.0</ele><time>2026-04-05T07:17:39.591Z</time></trkpt><trkpt lat="43.9831206" lon="12.4601632"><ele>184.0</ele><time>2026-04-05T07:17:40.591Z</time></trkpt><trkpt lat="43.982915" lon="12.4601747"><ele>184.0</ele><time>2026-04-05T07:17:41.591Z</time></trkpt><trkpt lat="43.9827034" lon="12.4601954"><ele>184.0</ele><time>2026-04-05T07:17:42.591Z</time></trkpt><trkpt lat="43.9824941" lon="12.4602237"><ele>184.0</ele><time>2026-04-05T07:17:43.591Z</time></trkpt><trkpt lat="43.9822894" lon="12.460254"><ele>182.33333333333334</ele><time>2026-04-05T07:17:44.591Z</time></trkpt><trkpt lat="43.9820939" lon="12.460275"><ele>180.66666666666666</ele><time>2026-04-05T07:17:45.591Z</time></trkpt><trkpt lat="43.9819185" lon="12.4602845"><ele>179.0</ele><time>2026-04-05T07:17:46.591Z</time></trkpt><trkpt lat="43.9817614" lon="12.4602901"><ele>179.0</ele><time>2026-04-05T07:17:47.591Z</time></trkpt><trkpt lat="43.9816112" lon="12.4603143"><ele>179.0</ele><time>2026-04-05T07:17:48.591Z</time></trkpt><trkpt lat="43.9814651" lon="12.4603793"><ele>179.0</ele><time>2026-04-05T07:17:49.591Z</time></trkpt><trkpt lat="43.9813171" lon="12.4604895"><ele>179.66666666666666</ele><time>2026-04-05T07:17:50.591Z</time></trkpt><trkpt lat="43.9811659" lon="12.4606394"><ele>180.33333333333334</ele><time>2026-04-05T07:17:51.591Z</time></trkpt><trkpt lat="43.9810144" lon="12.4608004"><ele>181.0</ele><time>2026-04-05T07:17:52.59Z</time></trkpt><trkpt lat="43.9808666" lon="12.460968"><ele>180.66666666666669</ele><time>2026-04-05T07:17:53.59Z</time></trkpt><trkpt lat="43.9807256" lon="12.4611339"><ele>180.33333333333334</ele><time>2026-04-05T07:17:54.59Z</time></trkpt><trkpt lat="43.9805876" lon="12.4612903"><ele>180.0</ele><time>2026-04-05T07:17:55.591Z</time></trkpt><trkpt lat="43.9804514" lon="12.4614397"><ele>180.0</ele><time>2026-04-05T07:17:56.591Z</time></trkpt><trkpt lat="43.9803135" lon="12.4615772"><ele>180.0</ele><time>2026-04-05T07:17:57.591Z</time></trkpt><trkpt lat="43.9801651" lon="12.4616992"><ele>180.0</ele><time>2026-04-05T07:17:58.591Z</time></trkpt><trkpt lat="43.9799966" lon="12.4617863"><ele>181.66666666666666</ele><time>2026-04-05T07:17:59.59Z</time></trkpt><trkpt lat="43.9798143" lon="12.4618573"><ele>183.33333333333331</ele><time>2026-04-05T07:18:00.591Z</time></trkpt><trkpt lat="43.9796215" lon="12.4619144"><ele>185.0</ele><time>2026-04-05T07:18:01.59Z</time></trkpt><trkpt lat="43.9794239" lon="12.4619613"><ele>185.0</ele><time>2026-04-05T07:18:02.591Z</time></trkpt><trkpt lat="43.9792264" lon="12.4620072"><ele>185.0</ele><time>2026-04-05T07:18:03.591Z</time></trkpt><trkpt lat="43.9790309" lon="12.4620588"><ele>185.0</ele><time>2026-04-05T07:18:04.591Z</time></trkpt><trkpt lat="43.9788372" lon="12.4621059"><ele>184.33333333333331</ele><time>2026-04-05T07:18:05.59Z</time></trkpt><trkpt lat="43.9786444" lon="12.462146"><ele>183.66666666666666</ele><time>2026-04-05T07:18:06.591Z</time></trkpt><trkpt lat="43.9784495" lon="12.4621793"><ele>183.0</ele><time>2026-04-05T07:18:07.591Z</time></trkpt><trkpt lat="43.9782526" lon="12.4622107"><ele>186.0</ele><time>2026-04-05T07:18:08.59Z</time></trkpt><trkpt lat="43.9780627" lon="12.4622358"><ele>189.0</ele><time>2026-04-05T07:18:09.59Z</time></trkpt><trkpt lat="43.9778714" lon="12.4622475"><ele>192.0</ele><time>2026-04-05T07:18:10.591Z</time></trkpt><trkpt lat="43.9776789" lon="12.4622487"><ele>195.0</ele><time>2026-04-05T07:18:11.591Z</time></trkpt><trkpt lat="43.9775011" lon="12.4622523"><ele>198.0</ele><time>2026-04-05T07:18:12.591Z</time></trkpt><trkpt lat="43.9773399" lon="12.462259"><ele>201.0</ele><time>2026-04-05T07:18:13.591Z</time></trkpt><trkpt lat="43.9771974" lon="12.4622621"><ele>201.0</ele><time>2026-04-05T07:18:14.591Z</time></trkpt><trkpt lat="43.9770663" lon="12.4622809"><ele>201.0</ele><time>2026-04-05T07:18:15.59Z</time></trkpt><trkpt lat="43.9769534" lon="12.4623295"><ele>201.0</ele><time>2026-04-05T07:18:16.591Z</time></trkpt><trkpt lat="43.976855" lon="12.4624256"><ele>201.0</ele><time>2026-04-05T07:18:17.591Z</time></trkpt><trkpt lat="43.9767796" lon="12.4625724"><ele>201.0</ele><time>2026-04-05T07:18:18.591Z</time></trkpt><trkpt lat="43.9767413" lon="12.4627721"><ele>201.0</ele><time>2026-04-05T07:18:19.591Z</time></trkpt><trkpt lat="43.9767303" lon="12.4629999"><ele>201.0</ele><time>2026-04-05T07:18:20.591Z</time></trkpt><trkpt lat="43.976729" lon="12.4632023"><ele>199.8</ele><time>2026-04-05T07:18:21.59Z</time></trkpt><trkpt lat="43.9767285" lon="12.4633469"><ele>198.60000000000002</ele><time>2026-04-05T07:18:22.591Z</time></trkpt><trkpt lat="43.9767088" lon="12.4634547"><ele>197.4</ele><time>2026-04-05T07:18:23.591Z</time></trkpt><trkpt lat="43.9766657" lon="12.4635287"><ele>196.2</ele><time>2026-04-05T07:18:24.591Z</time></trkpt><trkpt lat="43.9765544" lon="12.4634875"><ele>195.0</ele><time>2026-04-05T07:18:26.59Z</time></trkpt><trkpt lat="43.9764994" lon="12.4633808"><ele>199.0</ele><time>2026-04-05T07:18:27.591Z</time></trkpt><trkpt lat="43.9764411" lon="12.4632532"><ele>203.0</ele><time>2026-04-05T07:18:28.59Z</time></trkpt><trkpt lat="43.9763613" lon="12.4631343"><ele>207.0</ele><time>2026-04-05T07:18:29.591Z</time></trkpt><trkpt lat="43.9762649" lon="12.4630426"><ele>211.0</ele><time>2026-04-05T07:18:30.59Z</time></trkpt><trkpt lat="43.9761549" lon="12.4629853"><ele>211.0</ele><time>2026-04-05T07:18:31.59Z</time></trkpt><trkpt lat="43.9760358" lon="12.4629602"><ele>211.0</ele><time>2026-04-05T07:18:32.591Z</time></trkpt><trkpt lat="43.9758934" lon="12.4629714"><ele>211.0</ele><time>2026-04-05T07:18:33.59Z</time></trkpt><trkpt lat="43.9757405" lon="12.4629958"><ele>211.0</ele><time>2026-04-05T07:18:34.59Z</time></trkpt><trkpt lat="43.9755764" lon="12.463017"><ele>210.66666666666666</ele><time>2026-04-05T07:18:35.591Z</time></trkpt><trkpt lat="43.9754033" lon="12.4630124"><ele>210.33333333333331</ele><time>2026-04-05T07:18:36.59Z</time></trkpt><trkpt lat="43.9752292" lon="12.462977"><ele>210.0</ele><time>2026-04-05T07:18:37.591Z</time></trkpt><trkpt lat="43.9750571" lon="12.4629228"><ele>213.0</ele><time>2026-04-05T07:18:38.591Z</time></trkpt><trkpt lat="43.9748961" lon="12.4628712"><ele>216.0</ele><time>2026-04-05T07:18:39.591Z</time></trkpt><trkpt lat="43.9747493" lon="12.4628145"><ele>219.0</ele><time>2026-04-05T07:18:40.59Z</time></trkpt><trkpt lat="43.9746116" lon="12.4627148"><ele>219.0</ele><time>2026-04-05T07:18:41.591Z</time></trkpt><trkpt lat="43.9744806" lon="12.4625639"><ele>219.0</ele><time>2026-04-05T07:18:42.591Z</time></trkpt><trkpt lat="43.9743676" lon="12.4623682"><ele>219.0</ele><time>2026-04-05T07:18:43.59Z</time></trkpt><trkpt lat="43.9742625" lon="12.4621402"><ele>217.66666666666669</ele><time>2026-04-05T07:18:44.59Z</time></trkpt><trkpt lat="43.9741633" lon="12.4618861"><ele>216.33333333333334</ele><time>2026-04-05T07:18:45.591Z</time></trkpt><trkpt lat="43.9740597" lon="12.4616207"><ele>215.0</ele><time>2026-04-05T07:18:46.591Z</time></trkpt><trkpt lat="43.9739487" lon="12.4613551"><ele>213.66666666666669</ele><time>2026-04-05T07:18:47.591Z</time></trkpt><trkpt lat="43.9738295" lon="12.4610949"><ele>212.33333333333331</ele><time>2026-04-05T07:18:48.591Z</time></trkpt><trkpt lat="43.9737083" lon="12.4608308"><ele>211.0</ele><time>2026-04-05T07:18:49.591Z</time></trkpt><trkpt lat="43.9735916" lon="12.4605615"><ele>206.5</ele><time>2026-04-05T07:18:50.591Z</time></trkpt><trkpt lat="43.9734811" lon="12.460283"><ele>202.0</ele><time>2026-04-05T07:18:51.591Z</time></trkpt><trkpt lat="43.9733705" lon="12.4600136"><ele>205.0</ele><time>2026-04-05T07:18:52.591Z</time></trkpt><trkpt lat="43.9732632" lon="12.4597462"><ele>208.0</ele><time>2026-04-05T07:18:53.591Z</time></trkpt><trkpt lat="43.9731639" lon="12.4594824"><ele>211.0</ele><time>2026-04-05T07:18:54.591Z</time></trkpt><trkpt lat="43.9730707" lon="12.4592095"><ele>211.0</ele><time>2026-04-05T07:18:55.591Z</time></trkpt><trkpt lat="43.9729839" lon="12.4589309"><ele>211.0</ele><time>2026-04-05T07:18:56.59Z</time></trkpt><trkpt lat="43.972904" lon="12.4586452"><ele>211.0</ele><time>2026-04-05T07:18:57.591Z</time></trkpt><trkpt lat="43.9728343" lon="12.4583576"><ele>211.33333333333331</ele><time>2026-04-05T07:18:58.591Z</time></trkpt><trkpt lat="43.9727758" lon="12.4580719"><ele>211.66666666666669</ele><time>2026-04-05T07:18:59.591Z</time></trkpt><trkpt lat="43.9727248" lon="12.4578103"><ele>212.0</ele><time>2026-04-05T07:19:00.591Z</time></trkpt><trkpt lat="43.9726907" lon="12.4575509"><ele>212.0</ele><time>2026-04-05T07:19:01.591Z</time></trkpt><trkpt lat="43.9726888" lon="12.4572859"><ele>212.0</ele><time>2026-04-05T07:19:02.591Z</time></trkpt><trkpt lat="43.9727247" lon="12.4570074"><ele>212.0</ele><time>2026-04-05T07:19:03.591Z</time></trkpt><trkpt lat="43.9727863" lon="12.4567331"><ele>214.33333333333334</ele><time>2026-04-05T07:19:04.591Z</time></trkpt><trkpt lat="43.9728433" lon="12.4564768"><ele>216.66666666666669</ele><time>2026-04-05T07:19:05.59Z</time></trkpt><trkpt lat="43.9728796" lon="12.456243"><ele>219.0</ele><time>2026-04-05T07:19:06.591Z</time></trkpt><trkpt lat="43.9728801" lon="12.4560095"><ele>219.66666666666669</ele><time>2026-04-05T07:19:07.591Z</time></trkpt><trkpt lat="43.9728373" lon="12.4557685"><ele>220.33333333333334</ele><time>2026-04-05T07:19:08.591Z</time></trkpt><trkpt lat="43.9727586" lon="12.4555238"><ele>221.0</ele><time>2026-04-05T07:19:09.591Z</time></trkpt><trkpt lat="43.9726749" lon="12.4552865"><ele>219.0</ele><time>2026-04-05T07:19:10.591Z</time></trkpt><trkpt lat="43.97259" lon="12.455066"><ele>217.0</ele><time>2026-04-05T07:19:11.591Z</time></trkpt><trkpt lat="43.9725196" lon="12.4548633"><ele>215.0</ele><time>2026-04-05T07:19:12.59Z</time></trkpt><trkpt lat="43.9724703" lon="12.4546583"><ele>216.0</ele><time>2026-04-05T07:19:13.59Z</time></trkpt><trkpt lat="43.9724532" lon="12.4544386"><ele>217.0</ele><time>2026-04-05T07:19:14.591Z</time></trkpt><trkpt lat="43.97248" lon="12.454213"><ele>218.0</ele><time>2026-04-05T07:19:15.59Z</time></trkpt><trkpt lat="43.9725455" lon="12.4539769"><ele>220.33333333333334</ele><time>2026-04-05T07:19:16.591Z</time></trkpt><trkpt lat="43.9726344" lon="12.453755"><ele>222.66666666666669</ele><time>2026-04-05T07:19:17.59Z</time></trkpt><trkpt lat="43.9727136" lon="12.4535531"><ele>225.0</ele><time>2026-04-05T07:19:18.591Z</time></trkpt><trkpt lat="43.9727694" lon="12.4533812"><ele>225.0</ele><time>2026-04-05T07:19:19.591Z</time></trkpt><trkpt lat="43.9727925" lon="12.4532299"><ele>225.0</ele><time>2026-04-05T07:19:20.59Z</time></trkpt><trkpt lat="43.9727736" lon="12.45307"><ele>225.0</ele><time>2026-04-05T07:19:21.59Z</time></trkpt><trkpt lat="43.9727217" lon="12.4529105"><ele>225.0</ele><time>2026-04-05T07:19:22.591Z</time></trkpt><trkpt lat="43.9726274" lon="12.452774"><ele>229.0</ele><time>2026-04-05T07:19:23.591Z</time></trkpt><trkpt lat="43.972492" lon="12.4526633"><ele>233.0</ele><time>2026-04-05T07:19:24.591Z</time></trkpt><trkpt lat="43.9723443" lon="12.452578"><ele>237.0</ele><time>2026-04-05T07:19:25.591Z</time></trkpt><trkpt lat="43.9722034" lon="12.4525125"><ele>237.0</ele><time>2026-04-05T07:19:26.591Z</time></trkpt><trkpt lat="43.9720848" lon="12.4524585"><ele>237.0</ele><time>2026-04-05T07:19:27.591Z</time></trkpt><trkpt lat="43.9719905" lon="12.4524102"><ele>237.0</ele><time>2026-04-05T07:19:28.591Z</time></trkpt><trkpt lat="43.9719237" lon="12.452363"><ele>237.0</ele><time>2026-04-05T07:19:29.591Z</time></trkpt><trkpt lat="43.9718767" lon="12.4523034"><ele>237.0</ele><time>2026-04-05T07:19:30.591Z</time></trkpt><trkpt lat="43.9718865" lon="12.4521706"><ele>237.0</ele><time>2026-04-05T07:19:32.591Z</time></trkpt><trkpt lat="43.9719572" lon="12.4521321"><ele>237.0</ele><time>2026-04-05T07:19:33.591Z</time></trkpt><trkpt lat="43.9720567" lon="12.4521173"><ele>237.0</ele><time>2026-04-05T07:19:34.591Z</time></trkpt><trkpt lat="43.9722014" lon="12.4521066"><ele>237.0</ele><time>2026-04-05T07:19:35.59Z</time></trkpt><trkpt lat="43.9723802" lon="12.4520963"><ele>232.0</ele><time>2026-04-05T07:19:36.59Z</time></trkpt><trkpt lat="43.9725677" lon="12.452087"><ele>227.0</ele><time>2026-04-05T07:19:37.591Z</time></trkpt><trkpt lat="43.9727423" lon="12.4520809"><ele>222.0</ele><time>2026-04-05T07:19:38.59Z</time></trkpt><trkpt lat="43.9729048" lon="12.4520717"><ele>222.0</ele><time>2026-04-05T07:19:39.59Z</time></trkpt><trkpt lat="43.9730603" lon="12.452059"><ele>222.0</ele><time>2026-04-05T07:19:40.591Z</time></trkpt><trkpt lat="43.9732043" lon="12.452056"><ele>222.0</ele><time>2026-04-05T07:19:41.591Z</time></trkpt><trkpt lat="43.9733512" lon="12.4520884"><ele>222.0</ele><time>2026-04-05T07:19:42.591Z</time></trkpt><trkpt lat="43.973506" lon="12.4521523"><ele>221.0</ele><time>2026-04-05T07:19:43.591Z</time></trkpt><trkpt lat="43.9736591" lon="12.4522399"><ele>220.0</ele><time>2026-04-05T07:19:44.591Z</time></trkpt><trkpt lat="43.973804" lon="12.4523289"><ele>219.0</ele><time>2026-04-05T07:19:45.59Z</time></trkpt><trkpt lat="43.9739622" lon="12.4524057"><ele>219.0</ele><time>2026-04-05T07:19:46.591Z</time></trkpt><trkpt lat="43.9741374" lon="12.4524392"><ele>219.0</ele><time>2026-04-05T07:19:47.591Z</time></trkpt><trkpt lat="43.9743329" lon="12.4524443"><ele>219.0</ele><time>2026-04-05T07:19:48.591Z</time></trkpt><trkpt lat="43.9745446" lon="12.4524327"><ele>216.66666666666669</ele><time>2026-04-05T07:19:49.59Z</time></trkpt><trkpt lat="43.9747504" lon="12.4524089"><ele>214.33333333333334</ele><time>2026-04-05T07:19:50.59Z</time></trkpt><trkpt lat="43.9749484" lon="12.4523878"><ele>212.0</ele><time>2026-04-05T07:19:51.591Z</time></trkpt><trkpt lat="43.9751314" lon="12.4523707"><ele>212.66666666666669</ele><time>2026-04-05T07:19:52.591Z</time></trkpt><trkpt lat="43.97531" lon="12.4523343"><ele>213.33333333333331</ele><time>2026-04-05T07:19:53.59Z</time></trkpt><trkpt lat="43.9754778" lon="12.4522511"><ele>214.0</ele><time>2026-04-05T07:19:54.591Z</time></trkpt><trkpt lat="43.9756444" lon="12.4521171"><ele>214.0</ele><time>2026-04-05T07:19:55.591Z</time></trkpt><trkpt lat="43.975812" lon="12.4519501"><ele>214.0</ele><time>2026-04-05T07:19:56.59Z</time></trkpt><trkpt lat="43.975979" lon="12.4517537"><ele>214.0</ele><time>2026-04-05T07:19:57.591Z</time></trkpt><trkpt lat="43.9761488" lon="12.4515429"><ele>211.0</ele><time>2026-04-05T07:19:58.591Z</time></trkpt><trkpt lat="43.9763287" lon="12.451309"><ele>208.0</ele><time>2026-04-05T07:19:59.59Z</time></trkpt><trkpt lat="43.9765172" lon="12.451074"><ele>203.0</ele><time>2026-04-05T07:20:00.591Z</time></trkpt><trkpt lat="43.9767059" lon="12.4508364"><ele>198.0</ele><time>2026-04-05T07:20:01.591Z</time></trkpt><trkpt lat="43.976885" lon="12.4506063"><ele>201.0</ele><time>2026-04-05T07:20:02.591Z</time></trkpt><trkpt lat="43.9770629" lon="12.4503848"><ele>204.0</ele><time>2026-04-05T07:20:03.59Z</time></trkpt><trkpt lat="43.9772385" lon="12.4501736"><ele>204.0</ele><time>2026-04-05T07:20:04.591Z</time></trkpt><trkpt lat="43.9774127" lon="12.4499837"><ele>204.0</ele><time>2026-04-05T07:20:05.591Z</time></trkpt><trkpt lat="43.9775772" lon="12.4498099"><ele>204.0</ele><time>2026-04-05T07:20:06.591Z</time></trkpt><trkpt lat="43.9777277" lon="12.4496423"><ele>205.0</ele><time>2026-04-05T07:20:07.591Z</time></trkpt><trkpt lat="43.9778655" lon="12.4494779"><ele>206.0</ele><time>2026-04-05T07:20:08.59Z</time></trkpt><trkpt lat="43.977994" lon="12.4493019"><ele>207.0</ele><time>2026-04-05T07:20:09.591Z</time></trkpt><trkpt lat="43.9780999" lon="12.4490945"><ele>207.0</ele><time>2026-04-05T07:20:10.59Z</time></trkpt><trkpt lat="43.9781819" lon="12.4488507"><ele>207.0</ele><time>2026-04-05T07:20:11.591Z</time></trkpt><trkpt lat="43.9782592" lon="12.4485714"><ele>207.0</ele><time>2026-04-05T07:20:12.59Z</time></trkpt><trkpt lat="43.9783373" lon="12.4482756"><ele>206.5</ele><time>2026-04-05T07:20:13.59Z</time></trkpt><trkpt lat="43.978423" lon="12.4479802"><ele>206.0</ele><time>2026-04-05T07:20:14.59Z</time></trkpt><trkpt lat="43.9785147" lon="12.4476663"><ele>206.0</ele><time>2026-04-05T07:20:15.591Z</time></trkpt><trkpt lat="43.9786109" lon="12.4473519"><ele>206.0</ele><time>2026-04-05T07:20:16.591Z</time></trkpt><trkpt lat="43.9787103" lon="12.4470368"><ele>208.5</ele><time>2026-04-05T07:20:17.59Z</time></trkpt><trkpt lat="43.9788174" lon="12.4467259"><ele>211.0</ele><time>2026-04-05T07:20:18.59Z</time></trkpt><trkpt lat="43.9789253" lon="12.4464201"><ele>213.5</ele><time>2026-04-05T07:20:19.59Z</time></trkpt><trkpt lat="43.9790254" lon="12.4461292"><ele>216.0</ele><time>2026-04-05T07:20:20.59Z</time></trkpt><trkpt lat="43.9791216" lon="12.4458424"><ele>214.5</ele><time>2026-04-05T07:20:21.591Z</time></trkpt><trkpt lat="43.9792194" lon="12.4455576"><ele>213.0</ele><time>2026-04-05T07:20:22.59Z</time></trkpt><trkpt lat="43.9793127" lon="12.4452767"><ele>213.0</ele><time>2026-04-05T07:20:23.59Z</time></trkpt><trkpt lat="43.9794083" lon="12.4449915"><ele>213.0</ele><time>2026-04-05T07:20:24.591Z</time></trkpt><trkpt lat="43.9795063" lon="12.4447054"><ele>215.33333333333331</ele><time>2026-04-05T07:20:25.59Z</time></trkpt><trkpt lat="43.9796066" lon="12.4444301"><ele>217.66666666666666</ele><time>2026-04-05T07:20:26.591Z</time></trkpt><trkpt lat="43.9797052" lon="12.4441697"><ele>220.0</ele><time>2026-04-05T07:20:27.591Z</time></trkpt><trkpt lat="43.9798012" lon="12.4439175"><ele>221.66666666666666</ele><time>2026-04-05T07:20:28.591Z</time></trkpt><trkpt lat="43.9798972" lon="12.4436763"><ele>223.33333333333331</ele><time>2026-04-05T07:20:29.591Z</time></trkpt><trkpt lat="43.9799955" lon="12.4434485"><ele>225.0</ele><time>2026-04-05T07:20:30.591Z</time></trkpt><trkpt lat="43.9801078" lon="12.4432436"><ele>225.0</ele><time>2026-04-05T07:20:31.591Z</time></trkpt><trkpt lat="43.9802457" lon="12.4430782"><ele>225.0</ele><time>2026-04-05T07:20:32.591Z</time></trkpt><trkpt lat="43.9804086" lon="12.4429207"><ele>225.0</ele><time>2026-04-05T07:20:33.591Z</time></trkpt><trkpt lat="43.9805733" lon="12.4427762"><ele>225.66666666666669</ele><time>2026-04-05T07:20:34.59Z</time></trkpt><trkpt lat="43.9807258" lon="12.4426457"><ele>226.33333333333334</ele><time>2026-04-05T07:20:35.591Z</time></trkpt><trkpt lat="43.9808692" lon="12.4425277"><ele>227.0</ele><time>2026-04-05T07:20:36.591Z</time></trkpt><trkpt lat="43.9810022" lon="12.4424176"><ele>227.0</ele><time>2026-04-05T07:20:37.59Z</time></trkpt><trkpt lat="43.9811266" lon="12.4423182"><ele>227.0</ele><time>2026-04-05T07:20:38.59Z</time></trkpt><trkpt lat="43.981245" lon="12.4422241"><ele>227.0</ele><time>2026-04-05T07:20:39.591Z</time></trkpt><trkpt lat="43.98135" lon="12.4421129"><ele>227.0</ele><time>2026-04-05T07:20:40.59Z</time></trkpt><trkpt lat="43.9814449" lon="12.4419637"><ele>228.33333333333334</ele><time>2026-04-05T07:20:41.59Z</time></trkpt><trkpt lat="43.9815218" lon="12.4417716"><ele>229.66666666666669</ele><time>2026-04-05T07:20:42.591Z</time></trkpt><trkpt lat="43.9815899" lon="12.4415457"><ele>231.0</ele><time>2026-04-05T07:20:43.59Z</time></trkpt><trkpt lat="43.98166" lon="12.4413004"><ele>226.0</ele><time>2026-04-05T07:20:44.59Z</time></trkpt><trkpt lat="43.9817316" lon="12.4410373"><ele>221.0</ele><time>2026-04-05T07:20:45.591Z</time></trkpt><trkpt lat="43.981803" lon="12.4407652"><ele>216.0</ele><time>2026-04-05T07:20:46.591Z</time></trkpt><trkpt lat="43.9818795" lon="12.4404947"><ele>218.33333333333331</ele><time>2026-04-05T07:20:47.591Z</time></trkpt><trkpt lat="43.9819543" lon="12.4402355"><ele>220.66666666666666</ele><time>2026-04-05T07:20:48.59Z</time></trkpt><trkpt lat="43.9820193" lon="12.4399851"><ele>223.0</ele><time>2026-04-05T07:20:49.591Z</time></trkpt><trkpt lat="43.9820754" lon="12.4397515"><ele>224.66666666666666</ele><time>2026-04-05T07:20:50.591Z</time></trkpt><trkpt lat="43.9821252" lon="12.4395213"><ele>226.33333333333331</ele><time>2026-04-05T07:20:51.591Z</time></trkpt><trkpt lat="43.9821638" lon="12.4392981"><ele>228.0</ele><time>2026-04-05T07:20:52.591Z</time></trkpt><trkpt lat="43.9821775" lon="12.4390803"><ele>228.0</ele><time>2026-04-05T07:20:53.59Z</time></trkpt><trkpt lat="43.9821672" lon="12.4388447"><ele>228.0</ele><time>2026-04-05T07:20:54.591Z</time></trkpt><trkpt lat="43.9821471" lon="12.4385817"><ele>228.0</ele><time>2026-04-05T07:20:55.591Z</time></trkpt><trkpt lat="43.9821271" lon="12.43832"><ele>229.33333333333331</ele><time>2026-04-05T07:20:56.59Z</time></trkpt><trkpt lat="43.9821139" lon="12.4380733"><ele>230.66666666666666</ele><time>2026-04-05T07:20:57.591Z</time></trkpt><trkpt lat="43.9820965" lon="12.4378331"><ele>232.0</ele><time>2026-04-05T07:20:58.59Z</time></trkpt><trkpt lat="43.9820641" lon="12.4375733"><ele>233.33333333333331</ele><time>2026-04-05T07:20:59.59Z</time></trkpt><trkpt lat="43.9820126" lon="12.4372869"><ele>234.66666666666669</ele><time>2026-04-05T07:21:00.59Z</time></trkpt><trkpt lat="43.981951" lon="12.4369889"><ele>236.0</ele><time>2026-04-05T07:21:01.59Z</time></trkpt><trkpt lat="43.9818773" lon="12.4366932"><ele>237.0</ele><time>2026-04-05T07:21:02.59Z</time></trkpt><trkpt lat="43.9817934" lon="12.4364158"><ele>238.0</ele><time>2026-04-05T07:21:03.591Z</time></trkpt><trkpt lat="43.9817091" lon="12.4361651"><ele>239.0</ele><time>2026-04-05T07:21:04.591Z</time></trkpt><trkpt lat="43.9816322" lon="12.4359391"><ele>239.33333333333334</ele><time>2026-04-05T07:21:05.591Z</time></trkpt><trkpt lat="43.9815596" lon="12.4357347"><ele>239.66666666666669</ele><time>2026-04-05T07:21:06.591Z</time></trkpt><trkpt lat="43.9814947" lon="12.4355486"><ele>240.0</ele><time>2026-04-05T07:21:07.591Z</time></trkpt><trkpt lat="43.9814498" lon="12.4353665"><ele>240.66666666666669</ele><time>2026-04-05T07:21:08.59Z</time></trkpt><trkpt lat="43.9814362" lon="12.4351675"><ele>241.33333333333334</ele><time>2026-04-05T07:21:09.59Z</time></trkpt><trkpt lat="43.9814515" lon="12.4349462"><ele>242.0</ele><time>2026-04-05T07:21:10.591Z</time></trkpt><trkpt lat="43.9814715" lon="12.4347108"><ele>240.0</ele><time>2026-04-05T07:21:11.591Z</time></trkpt><trkpt lat="43.9814937" lon="12.4344611"><ele>238.0</ele><time>2026-04-05T07:21:12.59Z</time></trkpt><trkpt lat="43.9815191" lon="12.4341925"><ele>236.0</ele><time>2026-04-05T07:21:13.59Z</time></trkpt><trkpt lat="43.9815479" lon="12.4338987"><ele>235.66666666666669</ele><time>2026-04-05T07:21:14.591Z</time></trkpt><trkpt lat="43.9815736" lon="12.4336032"><ele>235.33333333333331</ele><time>2026-04-05T07:21:15.59Z</time></trkpt><trkpt lat="43.9815962" lon="12.4333251"><ele>235.0</ele><time>2026-04-05T07:21:16.59Z</time></trkpt><trkpt lat="43.9816211" lon="12.4330618"><ele>235.33333333333331</ele><time>2026-04-05T07:21:17.591Z</time></trkpt><trkpt lat="43.9816436" lon="12.432814"><ele>235.66666666666669</ele><time>2026-04-05T07:21:18.591Z</time></trkpt><trkpt lat="43.9816662" lon="12.4325753"><ele>236.0</ele><time>2026-04-05T07:21:19.59Z</time></trkpt><trkpt lat="43.9816901" lon="12.4323519"><ele>233.66666666666669</ele><time>2026-04-05T07:21:20.591Z</time></trkpt><trkpt lat="43.9817092" lon="12.432146"><ele>231.33333333333331</ele><time>2026-04-05T07:21:21.59Z</time></trkpt><trkpt lat="43.9817217" lon="12.4319317"><ele>229.0</ele><time>2026-04-05T07:21:22.591Z</time></trkpt><trkpt lat="43.981725" lon="12.431695"><ele>229.0</ele><time>2026-04-05T07:21:23.59Z</time></trkpt><trkpt lat="43.981725" lon="12.431475"><ele>229.0</ele><time>2026-04-05T07:21:24.591Z</time></trkpt><trkpt lat="43.9817083" lon="12.4312717"><ele>229.0</ele><time>2026-04-05T07:21:25.59Z</time></trkpt><trkpt lat="43.9816633" lon="12.4310717"><ele>233.66666666666666</ele><time>2026-04-05T07:21:26.591Z</time></trkpt><trkpt lat="43.9815867" lon="12.43088"><ele>238.33333333333331</ele><time>2026-04-05T07:21:27.59Z</time></trkpt><trkpt lat="43.9814783" lon="12.4306917"><ele>243.0</ele><time>2026-04-05T07:21:28.591Z</time></trkpt><trkpt lat="43.9813417" lon="12.43051"><ele>243.0</ele><time>2026-04-05T07:21:29.591Z</time></trkpt><trkpt lat="43.9812167" lon="12.4303283"><ele>243.0</ele><time>2026-04-05T07:21:30.591Z</time></trkpt><trkpt lat="43.9810967" lon="12.4301567"><ele>243.0</ele><time>2026-04-05T07:21:31.59Z</time></trkpt><trkpt lat="43.9809767" lon="12.4300017"><ele>243.0</ele><time>2026-04-05T07:21:32.591Z</time></trkpt><trkpt lat="43.9808633" lon="12.4298567"><ele>243.0</ele><time>2026-04-05T07:21:33.591Z</time></trkpt><trkpt lat="43.9807433" lon="12.429725"><ele>243.0</ele><time>2026-04-05T07:21:34.591Z</time></trkpt><trkpt lat="43.9806083" lon="12.4296383"><ele>249.33333333333331</ele><time>2026-04-05T07:21:35.591Z</time></trkpt><trkpt lat="43.980455" lon="12.4295883"><ele>255.66666666666666</ele><time>2026-04-05T07:21:36.591Z</time></trkpt><trkpt lat="43.9802767" lon="12.4295717"><ele>262.0</ele><time>2026-04-05T07:21:37.591Z</time></trkpt><trkpt lat="43.9800867" lon="12.4295917"><ele>263.3333333333333</ele><time>2026-04-05T07:21:38.591Z</time></trkpt><trkpt lat="43.9799" lon="12.4296417"><ele>264.6666666666667</ele><time>2026-04-05T07:21:39.59Z</time></trkpt><trkpt lat="43.9797333" lon="12.4296833"><ele>266.0</ele><time>2026-04-05T07:21:40.591Z</time></trkpt><trkpt lat="43.9795883" lon="12.4297233"><ele>264.25</ele><time>2026-04-05T07:21:41.591Z</time></trkpt><trkpt lat="43.9794583" lon="12.42978"><ele>262.5</ele><time>2026-04-05T07:21:42.591Z</time></trkpt><trkpt lat="43.9793317" lon="12.4298167"><ele>260.75</ele><time>2026-04-05T07:21:43.592Z</time></trkpt><trkpt lat="43.97921" lon="12.4298233"><ele>259.0</ele><time>2026-04-05T07:21:44.591Z</time></trkpt><trkpt lat="43.9791" lon="12.4297867"><ele>259.0</ele><time>2026-04-05T07:21:45.592Z</time></trkpt><trkpt lat="43.9789983" lon="12.4296983"><ele>259.0</ele><time>2026-04-05T07:21:46.591Z</time></trkpt><trkpt lat="43.9789083" lon="12.42956"><ele>259.0</ele><time>2026-04-05T07:21:47.592Z</time></trkpt><trkpt lat="43.9788133" lon="12.4293933"><ele>259.0</ele><time>2026-04-05T07:21:48.591Z</time></trkpt><trkpt lat="43.9787183" lon="12.4291933"><ele>263.0</ele><time>2026-04-05T07:21:49.592Z</time></trkpt><trkpt lat="43.978635" lon="12.42898"><ele>267.0</ele><time>2026-04-05T07:21:50.592Z</time></trkpt><trkpt lat="43.9785667" lon="12.4287883"><ele>271.0</ele><time>2026-04-05T07:21:51.591Z</time></trkpt><trkpt lat="43.9784983" lon="12.4286167"><ele>270.6</ele><time>2026-04-05T07:21:52.592Z</time></trkpt><trkpt lat="43.9784417" lon="12.42848"><ele>270.20000000000005</ele><time>2026-04-05T07:21:53.592Z</time></trkpt><trkpt lat="43.9784033" lon="12.42837"><ele>269.79999999999995</ele><time>2026-04-05T07:21:54.592Z</time></trkpt><trkpt lat="43.9783833" lon="12.4282783"><ele>269.4</ele><time>2026-04-05T07:21:55.592Z</time></trkpt><trkpt lat="43.9783667" lon="12.42814"><ele>269.0</ele><time>2026-04-05T07:21:57.591Z</time></trkpt><trkpt lat="43.9782783" lon="12.4279917"><ele>273.0</ele><time>2026-04-05T07:21:59.592Z</time></trkpt><trkpt lat="43.9781683" lon="12.4279217"><ele>277.0</ele><time>2026-04-05T07:22:00.592Z</time></trkpt><trkpt lat="43.978025" lon="12.4278583"><ele>281.0</ele><time>2026-04-05T07:22:01.592Z</time></trkpt><trkpt lat="43.9778767" lon="12.4278083"><ele>285.0</ele><time>2026-04-05T07:22:02.592Z</time></trkpt><trkpt lat="43.9777333" lon="12.4277783"><ele>285.0</ele><time>2026-04-05T07:22:03.591Z</time></trkpt><trkpt lat="43.9775933" lon="12.4277633"><ele>285.0</ele><time>2026-04-05T07:22:04.591Z</time></trkpt><trkpt lat="43.9774617" lon="12.4277317"><ele>285.0</ele><time>2026-04-05T07:22:05.592Z</time></trkpt><trkpt lat="43.977345" lon="12.42771"><ele>285.0</ele><time>2026-04-05T07:22:06.591Z</time></trkpt><trkpt lat="43.97723" lon="12.427715"><ele>282.0</ele><time>2026-04-05T07:22:07.592Z</time></trkpt><trkpt lat="43.9771" lon="12.4277417"><ele>279.0</ele><time>2026-04-05T07:22:08.592Z</time></trkpt><trkpt lat="43.9769667" lon="12.4278083"><ele>276.0</ele><time>2026-04-05T07:22:09.592Z</time></trkpt><trkpt lat="43.9768467" lon="12.42788"><ele>273.0</ele><time>2026-04-05T07:22:10.592Z</time></trkpt><trkpt lat="43.9767267" lon="12.42794"><ele>273.25</ele><time>2026-04-05T07:22:11.592Z</time></trkpt><trkpt lat="43.9766083" lon="12.4279717"><ele>273.5</ele><time>2026-04-05T07:22:12.591Z</time></trkpt><trkpt lat="43.9764783" lon="12.4279767"><ele>273.75</ele><time>2026-04-05T07:22:13.591Z</time></trkpt><trkpt lat="43.9763533" lon="12.427955"><ele>274.0</ele><time>2026-04-05T07:22:14.592Z</time></trkpt><trkpt lat="43.9762217" lon="12.4278667"><ele>274.0</ele><time>2026-04-05T07:22:15.591Z</time></trkpt><trkpt lat="43.97609" lon="12.4277433"><ele>274.0</ele><time>2026-04-05T07:22:16.592Z</time></trkpt><trkpt lat="43.9759633" lon="12.4275983"><ele>274.0</ele><time>2026-04-05T07:22:17.592Z</time></trkpt><trkpt lat="43.975855" lon="12.4274617"><ele>270.75</ele><time>2026-04-05T07:22:18.591Z</time></trkpt><trkpt lat="43.97576" lon="12.4273367"><ele>267.5</ele><time>2026-04-05T07:22:19.592Z</time></trkpt><trkpt lat="43.975675" lon="12.4272283"><ele>264.25</ele><time>2026-04-05T07:22:20.592Z</time></trkpt><trkpt lat="43.9756133" lon="12.427095"><ele>261.0</ele><time>2026-04-05T07:22:21.592Z</time></trkpt><trkpt lat="43.9755883" lon="12.4269233"><ele>261.0</ele><time>2026-04-05T07:22:22.591Z</time></trkpt><trkpt lat="43.97558" lon="12.426715"><ele>261.0</ele><time>2026-04-05T07:22:23.591Z</time></trkpt><trkpt lat="43.975555" lon="12.4265083"><ele>261.0</ele><time>2026-04-05T07:22:24.592Z</time></trkpt><trkpt lat="43.975495" lon="12.426315"><ele>260.6666666666667</ele><time>2026-04-05T07:22:25.592Z</time></trkpt><trkpt lat="43.9754033" lon="12.4261467"><ele>260.33333333333337</ele><time>2026-04-05T07:22:26.592Z</time></trkpt><trkpt lat="43.97529" lon="12.426005"><ele>260.0</ele><time>2026-04-05T07:22:27.592Z</time></trkpt><trkpt lat="43.975175" lon="12.4258567"><ele>260.0</ele><time>2026-04-05T07:22:28.592Z</time></trkpt><trkpt lat="43.9750833" lon="12.4256817"><ele>260.0</ele><time>2026-04-05T07:22:29.592Z</time></trkpt><trkpt lat="43.9750317" lon="12.4254682"><ele>260.0</ele><time>2026-04-05T07:22:30.592Z</time></trkpt><trkpt lat="43.9750106" lon="12.4252191"><ele>252.0</ele><time>2026-04-05T07:22:31.591Z</time></trkpt><trkpt lat="43.9749929" lon="12.4249616"><ele>244.0</ele><time>2026-04-05T07:22:32.592Z</time></trkpt><trkpt lat="43.9749606" lon="12.4247191"><ele>236.0</ele><time>2026-04-05T07:22:33.592Z</time></trkpt><trkpt lat="43.9749127" lon="12.4244834"><ele>234.0</ele><time>2026-04-05T07:22:34.592Z</time></trkpt><trkpt lat="43.9748426" lon="12.4242551"><ele>232.0</ele><time>2026-04-05T07:22:35.592Z</time></trkpt><trkpt lat="43.9747641" lon="12.4240348"><ele>230.0</ele><time>2026-04-05T07:22:36.591Z</time></trkpt><trkpt lat="43.9746912" lon="12.4238311"><ele>228.5</ele><time>2026-04-05T07:22:37.591Z</time></trkpt><trkpt lat="43.97462" lon="12.4236489"><ele>227.0</ele><time>2026-04-05T07:22:38.592Z</time></trkpt><trkpt lat="43.9745596" lon="12.4234932"><ele>225.5</ele><time>2026-04-05T07:22:39.592Z</time></trkpt><trkpt lat="43.9744981" lon="12.423364"><ele>224.0</ele><time>2026-04-05T07:22:40.592Z</time></trkpt><trkpt lat="43.9744315" lon="12.4232533"><ele>224.00000000000003</ele><time>2026-04-05T07:22:41.592Z</time></trkpt><trkpt lat="43.9743639" lon="12.4231653"><ele>224.0</ele><time>2026-04-05T07:22:42.592Z</time></trkpt><trkpt lat="43.9743042" lon="12.4231164"><ele>224.0</ele><time>2026-04-05T07:22:43.592Z</time></trkpt><trkpt lat="43.9742357" lon="12.4230847"><ele>224.0</ele><time>2026-04-05T07:22:45.592Z</time></trkpt><trkpt lat="43.9741591" lon="12.4231736"><ele>224.00000000000003</ele><time>2026-04-05T07:22:48.592Z</time></trkpt><trkpt lat="43.9741409" lon="12.423271"><ele>224.0</ele><time>2026-04-05T07:22:49.592Z</time></trkpt><trkpt lat="43.9741381" lon="12.4234104"><ele>220.79999999999998</ele><time>2026-04-05T07:22:50.591Z</time></trkpt><trkpt lat="43.9741391" lon="12.4235508"><ele>217.59999999999997</ele><time>2026-04-05T07:22:51.591Z</time></trkpt><trkpt lat="43.9741173" lon="12.4236796"><ele>214.4</ele><time>2026-04-05T07:22:52.592Z</time></trkpt><trkpt lat="43.9740609" lon="12.4237809"><ele>211.2</ele><time>2026-04-05T07:22:53.592Z</time></trkpt><trkpt lat="43.9739558" lon="12.4238143"><ele>208.0</ele><time>2026-04-05T07:22:54.592Z</time></trkpt><trkpt lat="43.9738259" lon="12.42378"><ele>207.75</ele><time>2026-04-05T07:22:55.591Z</time></trkpt><trkpt lat="43.9736904" lon="12.4237054"><ele>207.5</ele><time>2026-04-05T07:22:56.592Z</time></trkpt><trkpt lat="43.9735681" lon="12.4236208"><ele>207.25</ele><time>2026-04-05T07:22:57.592Z</time></trkpt><trkpt lat="43.9734601" lon="12.4235558"><ele>207.0</ele><time>2026-04-05T07:22:58.592Z</time></trkpt><trkpt lat="43.973364" lon="12.4235253"><ele>205.39999999999998</ele><time>2026-04-05T07:22:59.592Z</time></trkpt><trkpt lat="43.9732765" lon="12.423541"><ele>203.79999999999998</ele><time>2026-04-05T07:23:00.592Z</time></trkpt><trkpt lat="43.9731966" lon="12.4236183"><ele>202.2</ele><time>2026-04-05T07:23:01.592Z</time></trkpt><trkpt lat="43.9731291" lon="12.4237484"><ele>200.6</ele><time>2026-04-05T07:23:02.591Z</time></trkpt><trkpt lat="43.9730859" lon="12.4239007"><ele>199.0</ele><time>2026-04-05T07:23:03.592Z</time></trkpt><trkpt lat="43.9730508" lon="12.4240282"><ele>198.99999999999997</ele><time>2026-04-05T07:23:04.591Z</time></trkpt><trkpt lat="43.9730039" lon="12.4241155"><ele>199.0</ele><time>2026-04-05T07:23:05.592Z</time></trkpt><trkpt lat="43.9729314" lon="12.4241469"><ele>199.0</ele><time>2026-04-05T07:23:06.592Z</time></trkpt><trkpt lat="43.9728591" lon="12.4241118"><ele>199.0</ele><time>2026-04-05T07:23:07.592Z</time></trkpt><trkpt lat="43.9727976" lon="12.4240231"><ele>198.99999999999997</ele><time>2026-04-05T07:23:08.592Z</time></trkpt><trkpt lat="43.9727733" lon="12.4238831"><ele>199.0</ele><time>2026-04-05T07:23:09.592Z</time></trkpt><trkpt lat="43.9727746" lon="12.4237093"><ele>198.75</ele><time>2026-04-05T07:23:10.592Z</time></trkpt><trkpt lat="43.9727703" lon="12.423522"><ele>198.5</ele><time>2026-04-05T07:23:11.592Z</time></trkpt><trkpt lat="43.9727361" lon="12.4233153"><ele>198.25</ele><time>2026-04-05T07:23:12.592Z</time></trkpt><trkpt lat="43.9726788" lon="12.4231049"><ele>198.0</ele><time>2026-04-05T07:23:13.592Z</time></trkpt><trkpt lat="43.9726188" lon="12.4229037"><ele>196.5</ele><time>2026-04-05T07:23:14.591Z</time></trkpt><trkpt lat="43.9725713" lon="12.4227244"><ele>195.0</ele><time>2026-04-05T07:23:15.592Z</time></trkpt><trkpt lat="43.972543" lon="12.4225697"><ele>193.5</ele><time>2026-04-05T07:23:16.592Z</time></trkpt><trkpt lat="43.9725323" lon="12.4224263"><ele>192.0</ele><time>2026-04-05T07:23:17.592Z</time></trkpt><trkpt lat="43.9725545" lon="12.4222871"><ele>191.39999999999998</ele><time>2026-04-05T07:23:18.591Z</time></trkpt><trkpt lat="43.9726092" lon="12.4221468"><ele>190.79999999999998</ele><time>2026-04-05T07:23:19.592Z</time></trkpt><trkpt lat="43.9726783" lon="12.422013"><ele>190.2</ele><time>2026-04-05T07:23:20.591Z</time></trkpt><trkpt lat="43.9727279" lon="12.4218817"><ele>189.6</ele><time>2026-04-05T07:23:21.592Z</time></trkpt><trkpt lat="43.9727419" lon="12.4217333"><ele>189.0</ele><time>2026-04-05T07:23:22.592Z</time></trkpt><trkpt lat="43.9727025" lon="12.4215838"><ele>189.0</ele><time>2026-04-05T07:23:23.592Z</time></trkpt><trkpt lat="43.9726101" lon="12.4214509"><ele>189.0</ele><time>2026-04-05T07:23:24.591Z</time></trkpt><trkpt lat="43.9724734" lon="12.4213501"><ele>189.0</ele><time>2026-04-05T07:23:25.592Z</time></trkpt><trkpt lat="43.9723239" lon="12.4212907"><ele>189.0</ele><time>2026-04-05T07:23:26.592Z</time></trkpt><trkpt lat="43.9721847" lon="12.4212534"><ele>186.6</ele><time>2026-04-05T07:23:27.592Z</time></trkpt><trkpt lat="43.9720706" lon="12.4212064"><ele>184.2</ele><time>2026-04-05T07:23:28.591Z</time></trkpt><trkpt lat="43.9719803" lon="12.4211528"><ele>181.79999999999998</ele><time>2026-04-05T07:23:29.592Z</time></trkpt><trkpt lat="43.9719236" lon="12.4210629"><ele>179.39999999999998</ele><time>2026-04-05T07:23:30.591Z</time></trkpt><trkpt lat="43.9719105" lon="12.4209411"><ele>177.0</ele><time>2026-04-05T07:23:31.591Z</time></trkpt><trkpt lat="43.9719612" lon="12.4207743"><ele>177.0</ele><time>2026-04-05T07:23:32.592Z</time></trkpt><trkpt lat="43.972055" lon="12.4205687"><ele>177.0</ele><time>2026-04-05T07:23:33.591Z</time></trkpt><trkpt lat="43.9721535" lon="12.4203402"><ele>177.0</ele><time>2026-04-05T07:23:34.592Z</time></trkpt><trkpt lat="43.9722281" lon="12.4201265"><ele>176.39999999999998</ele><time>2026-04-05T07:23:35.592Z</time></trkpt><trkpt lat="43.97228" lon="12.4199396"><ele>175.79999999999998</ele><time>2026-04-05T07:23:36.592Z</time></trkpt><trkpt lat="43.9723067" lon="12.4197917"><ele>175.2</ele><time>2026-04-05T07:23:37.592Z</time></trkpt><trkpt lat="43.972305" lon="12.419665"><ele>174.6</ele><time>2026-04-05T07:23:38.591Z</time></trkpt><trkpt lat="43.97226" lon="12.4195533"><ele>174.0</ele><time>2026-04-05T07:23:39.591Z</time></trkpt><trkpt lat="43.9721733" lon="12.4194733"><ele>173.6</ele><time>2026-04-05T07:23:40.592Z</time></trkpt><trkpt lat="43.9720483" lon="12.41944"><ele>173.2</ele><time>2026-04-05T07:23:41.592Z</time></trkpt><trkpt lat="43.9719333" lon="12.419435"><ele>172.79999999999998</ele><time>2026-04-05T07:23:42.592Z</time></trkpt><trkpt lat="43.971845" lon="12.4194117"><ele>172.39999999999998</ele><time>2026-04-05T07:23:43.592Z</time></trkpt><trkpt lat="43.9717717" lon="12.4193367"><ele>172.0</ele><time>2026-04-05T07:23:44.592Z</time></trkpt><trkpt lat="43.97172" lon="12.419205"><ele>172.0</ele><time>2026-04-05T07:23:45.591Z</time></trkpt><trkpt lat="43.9716983" lon="12.4190283"><ele>172.0</ele><time>2026-04-05T07:23:46.591Z</time></trkpt><trkpt lat="43.9717117" lon="12.4188417"><ele>172.0</ele><time>2026-04-05T07:23:47.592Z</time></trkpt><trkpt lat="43.971755" lon="12.418655"><ele>172.0</ele><time>2026-04-05T07:23:48.592Z</time></trkpt><trkpt lat="43.9718283" lon="12.41847"><ele>170.0</ele><time>2026-04-05T07:23:49.591Z</time></trkpt><trkpt lat="43.97194" lon="12.4182733"><ele>168.0</ele><time>2026-04-05T07:23:50.591Z</time></trkpt><trkpt lat="43.9720617" lon="12.4180783"><ele>166.0</ele><time>2026-04-05T07:23:51.592Z</time></trkpt><trkpt lat="43.9721883" lon="12.4179033"><ele>165.33333333333334</ele><time>2026-04-05T07:23:52.592Z</time></trkpt><trkpt lat="43.9723133" lon="12.4177417"><ele>164.66666666666666</ele><time>2026-04-05T07:23:53.592Z</time></trkpt><trkpt lat="43.972435" lon="12.4175933"><ele>164.0</ele><time>2026-04-05T07:23:54.592Z</time></trkpt><trkpt lat="43.972555" lon="12.417435"><ele>164.0</ele><time>2026-04-05T07:23:55.592Z</time></trkpt><trkpt lat="43.9726517" lon="12.417225"><ele>164.0</ele><time>2026-04-05T07:23:56.591Z</time></trkpt><trkpt lat="43.9727367" lon="12.41701"><ele>164.0</ele><time>2026-04-05T07:23:57.591Z</time></trkpt><trkpt lat="43.9727983" lon="12.416755"><ele>163.33333333333331</ele><time>2026-04-05T07:23:58.591Z</time></trkpt><trkpt lat="43.9728433" lon="12.41648"><ele>162.66666666666666</ele><time>2026-04-05T07:23:59.592Z</time></trkpt><trkpt lat="43.9728733" lon="12.41622"><ele>162.0</ele><time>2026-04-05T07:24:00.591Z</time></trkpt><trkpt lat="43.972895" lon="12.415965"><ele>161.66666666666666</ele><time>2026-04-05T07:24:01.592Z</time></trkpt><trkpt lat="43.9728983" lon="12.4156933"><ele>161.33333333333331</ele><time>2026-04-05T07:24:02.592Z</time></trkpt><trkpt lat="43.972875" lon="12.4153967"><ele>161.0</ele><time>2026-04-05T07:24:03.591Z</time></trkpt><trkpt lat="43.9728467" lon="12.4151"><ele>160.33333333333331</ele><time>2026-04-05T07:24:04.592Z</time></trkpt><trkpt lat="43.9728217" lon="12.4148283"><ele>159.66666666666666</ele><time>2026-04-05T07:24:05.591Z</time></trkpt><trkpt lat="43.9727933" lon="12.4145667"><ele>159.0</ele><time>2026-04-05T07:24:06.592Z</time></trkpt><trkpt lat="43.97277" lon="12.4143117"><ele>157.33333333333334</ele><time>2026-04-05T07:24:07.592Z</time></trkpt><trkpt lat="43.97274" lon="12.4140667"><ele>155.66666666666669</ele><time>2026-04-05T07:24:08.592Z</time></trkpt><trkpt lat="43.9727417" lon="12.41383"><ele>154.0</ele><time>2026-04-05T07:24:09.591Z</time></trkpt><trkpt lat="43.972745" lon="12.4135967"><ele>151.25</ele><time>2026-04-05T07:24:10.591Z</time></trkpt><trkpt lat="43.9727667" lon="12.41337"><ele>148.5</ele><time>2026-04-05T07:24:11.591Z</time></trkpt><trkpt lat="43.9728014" lon="12.4131674"><ele>145.75</ele><time>2026-04-05T07:24:12.591Z</time></trkpt><trkpt lat="43.9728409" lon="12.4130004"><ele>143.0</ele><time>2026-04-05T07:24:13.592Z</time></trkpt><trkpt lat="43.9728808" lon="12.4128733"><ele>141.6</ele><time>2026-04-05T07:24:14.592Z</time></trkpt><trkpt lat="43.9729177" lon="12.412772"><ele>140.20000000000002</ele><time>2026-04-05T07:24:15.592Z</time></trkpt><trkpt lat="43.9729336" lon="12.4126848"><ele>138.8</ele><time>2026-04-05T07:24:16.592Z</time></trkpt><trkpt lat="43.9728637" lon="12.4125436"><ele>137.4</ele><time>2026-04-05T07:24:18.591Z</time></trkpt><trkpt lat="43.9727582" lon="12.4125509"><ele>136.0</ele><time>2026-04-05T07:24:19.591Z</time></trkpt><trkpt lat="43.9726345" lon="12.4126127"><ele>134.0</ele><time>2026-04-05T07:24:20.591Z</time></trkpt><trkpt lat="43.972518" lon="12.4126959"><ele>132.0</ele><time>2026-04-05T07:24:21.592Z</time></trkpt><trkpt lat="43.9724265" lon="12.4127618"><ele>130.0</ele><time>2026-04-05T07:24:22.592Z</time></trkpt><trkpt lat="43.9723458" lon="12.4127756"><ele>128.0</ele><time>2026-04-05T07:24:23.592Z</time></trkpt><trkpt lat="43.9722814" lon="12.412721"><ele>126.0</ele><time>2026-04-05T07:24:24.592Z</time></trkpt><trkpt lat="43.9722415" lon="12.4126164"><ele>126.0</ele><time>2026-04-05T07:24:25.591Z</time></trkpt><trkpt lat="43.9722376" lon="12.4124939"><ele>126.0</ele><time>2026-04-05T07:24:26.592Z</time></trkpt><trkpt lat="43.9722786" lon="12.4123602"><ele>126.0</ele><time>2026-04-05T07:24:27.592Z</time></trkpt><trkpt lat="43.9723687" lon="12.4122298"><ele>126.0</ele><time>2026-04-05T07:24:28.592Z</time></trkpt><trkpt lat="43.9724726" lon="12.4121207"><ele>126.33333333333333</ele><time>2026-04-05T07:24:29.591Z</time></trkpt><trkpt lat="43.9725681" lon="12.4120392"><ele>126.66666666666666</ele><time>2026-04-05T07:24:30.592Z</time></trkpt><trkpt lat="43.9726488" lon="12.411983"><ele>127.0</ele><time>2026-04-05T07:24:31.591Z</time></trkpt><trkpt lat="43.9727145" lon="12.4119363"><ele>127.33333333333333</ele><time>2026-04-05T07:24:32.592Z</time></trkpt><trkpt lat="43.9727591" lon="12.4118663"><ele>127.66666666666666</ele><time>2026-04-05T07:24:33.592Z</time></trkpt><trkpt lat="43.9727741" lon="12.4117761"><ele>128.0</ele><time>2026-04-05T07:24:34.592Z</time></trkpt><trkpt lat="43.972746" lon="12.4116839"><ele>128.0</ele><time>2026-04-05T07:24:35.591Z</time></trkpt><trkpt lat="43.9726699" lon="12.4116298"><ele>128.0</ele><time>2026-04-05T07:24:36.592Z</time></trkpt><trkpt lat="43.9725659" lon="12.4116188"><ele>128.0</ele><time>2026-04-05T07:24:37.592Z</time></trkpt><trkpt lat="43.9724455" lon="12.4116593"><ele>128.0</ele><time>2026-04-05T07:24:38.591Z</time></trkpt><trkpt lat="43.9723043" lon="12.4117411"><ele>125.66666666666666</ele><time>2026-04-05T07:24:39.591Z</time></trkpt><trkpt lat="43.9721437" lon="12.4118424"><ele>123.33333333333334</ele><time>2026-04-05T07:24:40.591Z</time></trkpt><trkpt lat="43.9719598" lon="12.4119447"><ele>121.0</ele><time>2026-04-05T07:24:41.592Z</time></trkpt><trkpt lat="43.9717683" lon="12.4120274"><ele>119.66666666666667</ele><time>2026-04-05T07:24:42.592Z</time></trkpt><trkpt lat="43.9715623" lon="12.412103"><ele>118.33333333333334</ele><time>2026-04-05T07:24:43.591Z</time></trkpt><trkpt lat="43.9713427" lon="12.4121738"><ele>117.0</ele><time>2026-04-05T07:24:44.592Z</time></trkpt><trkpt lat="43.9711165" lon="12.4122403"><ele>117.0</ele><time>2026-04-05T07:24:45.591Z</time></trkpt><trkpt lat="43.9708799" lon="12.4122869"><ele>117.0</ele><time>2026-04-05T07:24:46.592Z</time></trkpt><trkpt lat="43.9706395" lon="12.412305"><ele>116.0</ele><time>2026-04-05T07:24:47.592Z</time></trkpt><trkpt lat="43.9703976" lon="12.4122981"><ele>115.0</ele><time>2026-04-05T07:24:48.592Z</time></trkpt><trkpt lat="43.9701581" lon="12.4122666"><ele>114.5</ele><time>2026-04-05T07:24:49.591Z</time></trkpt><trkpt lat="43.9699248" lon="12.4122168"><ele>114.0</ele><time>2026-04-05T07:24:50.592Z</time></trkpt><trkpt lat="43.9696988" lon="12.4121449"><ele>114.0</ele><time>2026-04-05T07:24:51.591Z</time></trkpt><trkpt lat="43.9694944" lon="12.4120487"><ele>114.0</ele><time>2026-04-05T07:24:52.591Z</time></trkpt><trkpt lat="43.9693031" lon="12.4119346"><ele>114.0</ele><time>2026-04-05T07:24:53.591Z</time></trkpt><trkpt lat="43.9691212" lon="12.4118039"><ele>115.33333333333334</ele><time>2026-04-05T07:24:54.591Z</time></trkpt><trkpt lat="43.9689482" lon="12.4116595"><ele>116.66666666666667</ele><time>2026-04-05T07:24:55.592Z</time></trkpt><trkpt lat="43.9687845" lon="12.41151"><ele>118.0</ele><time>2026-04-05T07:24:56.591Z</time></trkpt><trkpt lat="43.9686324" lon="12.4113484"><ele>118.0</ele><time>2026-04-05T07:24:57.592Z</time></trkpt><trkpt lat="43.9684802" lon="12.4111654"><ele>118.0</ele><time>2026-04-05T07:24:58.591Z</time></trkpt><trkpt lat="43.9683274" lon="12.4109551"><ele>118.0</ele><time>2026-04-05T07:24:59.591Z</time></trkpt><trkpt lat="43.9681797" lon="12.4107227"><ele>116.0</ele><time>2026-04-05T07:25:00.592Z</time></trkpt><trkpt lat="43.9680364" lon="12.4104653"><ele>114.0</ele><time>2026-04-05T07:25:01.592Z</time></trkpt><trkpt lat="43.9678968" lon="12.4101771"><ele>114.0</ele><time>2026-04-05T07:25:02.592Z</time></trkpt><trkpt lat="43.9677598" lon="12.4098682"><ele>114.0</ele><time>2026-04-05T07:25:03.592Z</time></trkpt><trkpt lat="43.9676169" lon="12.4095493"><ele>115.5</ele><time>2026-04-05T07:25:04.592Z</time></trkpt><trkpt lat="43.9674626" lon="12.4092201"><ele>117.0</ele><time>2026-04-05T07:25:05.592Z</time></trkpt><trkpt lat="43.9673081" lon="12.4088811"><ele>117.0</ele><time>2026-04-05T07:25:06.591Z</time></trkpt><trkpt lat="43.9671532" lon="12.4085421"><ele>117.0</ele><time>2026-04-05T07:25:07.591Z</time></trkpt><trkpt lat="43.9670054" lon="12.4082018"><ele>116.5</ele><time>2026-04-05T07:25:08.592Z</time></trkpt><trkpt lat="43.9668669" lon="12.4078656"><ele>116.0</ele><time>2026-04-05T07:25:09.592Z</time></trkpt><trkpt lat="43.9667267" lon="12.4075339"><ele>117.5</ele><time>2026-04-05T07:25:10.592Z</time></trkpt><trkpt lat="43.966585" lon="12.4072109"><ele>119.0</ele><time>2026-04-05T07:25:11.592Z</time></trkpt><trkpt lat="43.9664263" lon="12.4068922"><ele>119.0</ele><time>2026-04-05T07:25:12.591Z</time></trkpt><trkpt lat="43.9662596" lon="12.4065786"><ele>119.0</ele><time>2026-04-05T07:25:13.592Z</time></trkpt><trkpt lat="43.9660865" lon="12.4062728"><ele>118.5</ele><time>2026-04-05T07:25:14.591Z</time></trkpt><trkpt lat="43.9659075" lon="12.4059817"><ele>118.0</ele><time>2026-04-05T07:25:15.591Z</time></trkpt><trkpt lat="43.9657337" lon="12.405713"><ele>119.0</ele><time>2026-04-05T07:25:16.591Z</time></trkpt><trkpt lat="43.9655633" lon="12.4054659"><ele>120.0</ele><time>2026-04-05T07:25:17.592Z</time></trkpt><trkpt lat="43.9653966" lon="12.4052372"><ele>120.0</ele><time>2026-04-05T07:25:18.591Z</time></trkpt><trkpt lat="43.9652263" lon="12.4050083"><ele>120.0</ele><time>2026-04-05T07:25:19.592Z</time></trkpt><trkpt lat="43.96505" lon="12.4047702"><ele>120.5</ele><time>2026-04-05T07:25:20.591Z</time></trkpt><trkpt lat="43.9648619" lon="12.4045169"><ele>121.0</ele><time>2026-04-05T07:25:21.592Z</time></trkpt><trkpt lat="43.9646639" lon="12.4042453"><ele>121.0</ele><time>2026-04-05T07:25:22.591Z</time></trkpt><trkpt lat="43.9644678" lon="12.4039748"><ele>121.0</ele><time>2026-04-05T07:25:23.591Z</time></trkpt><trkpt lat="43.9642786" lon="12.4037212"><ele>125.0</ele><time>2026-04-05T07:25:24.592Z</time></trkpt><trkpt lat="43.9640962" lon="12.4034957"><ele>129.0</ele><time>2026-04-05T07:25:25.592Z</time></trkpt><trkpt lat="43.9639132" lon="12.4032953"><ele>129.0</ele><time>2026-04-05T07:25:26.591Z</time></trkpt><trkpt lat="43.9637384" lon="12.4031157"><ele>129.0</ele><time>2026-04-05T07:25:27.592Z</time></trkpt><trkpt lat="43.9635671" lon="12.4029562"><ele>129.0</ele><time>2026-04-05T07:25:28.591Z</time></trkpt><trkpt lat="43.9634014" lon="12.4028138"><ele>129.0</ele><time>2026-04-05T07:25:29.592Z</time></trkpt><trkpt lat="43.9632384" lon="12.40269"><ele>129.0</ele><time>2026-04-05T07:25:30.592Z</time></trkpt><trkpt lat="43.9630773" lon="12.402583"><ele>129.0</ele><time>2026-04-05T07:25:31.591Z</time></trkpt><trkpt lat="43.9629133" lon="12.4024896"><ele>129.0</ele><time>2026-04-05T07:25:32.592Z</time></trkpt><trkpt lat="43.9627479" lon="12.4023923"><ele>129.0</ele><time>2026-04-05T07:25:33.592Z</time></trkpt><trkpt lat="43.962577" lon="12.4022941"><ele>129.0</ele><time>2026-04-05T07:25:34.591Z</time></trkpt><trkpt lat="43.9623993" lon="12.4021973"><ele>129.0</ele><time>2026-04-05T07:25:35.591Z</time></trkpt><trkpt lat="43.9622179" lon="12.4021002"><ele>129.0</ele><time>2026-04-05T07:25:36.592Z</time></trkpt><trkpt lat="43.9620479" lon="12.4020016"><ele>129.0</ele><time>2026-04-05T07:25:37.592Z</time></trkpt><trkpt lat="43.96189" lon="12.4019048"><ele>129.0</ele><time>2026-04-05T07:25:38.592Z</time></trkpt><trkpt lat="43.9617552" lon="12.4018093"><ele>129.0</ele><time>2026-04-05T07:25:39.591Z</time></trkpt><trkpt lat="43.9616462" lon="12.4017188"><ele>129.0</ele><time>2026-04-05T07:25:40.591Z</time></trkpt><trkpt lat="43.9615621" lon="12.4016372"><ele>129.0</ele><time>2026-04-05T07:25:41.592Z</time></trkpt><trkpt lat="43.9614916" lon="12.4015759"><ele>129.33333333333334</ele><time>2026-04-05T07:25:42.592Z</time></trkpt><trkpt lat="43.9614286" lon="12.4015378"><ele>129.66666666666666</ele><time>2026-04-05T07:25:43.591Z</time></trkpt><trkpt lat="43.9613637" lon="12.4015382"><ele>130.0</ele><time>2026-04-05T07:25:44.591Z</time></trkpt><trkpt lat="43.9613057" lon="12.4016047"><ele>130.33333333333331</ele><time>2026-04-05T07:25:45.591Z</time></trkpt><trkpt lat="43.9612448" lon="12.4017144"><ele>130.66666666666666</ele><time>2026-04-05T07:25:46.591Z</time></trkpt><trkpt lat="43.961176" lon="12.4018233"><ele>131.0</ele><time>2026-04-05T07:25:47.592Z</time></trkpt><trkpt lat="43.961067" lon="12.4019081"><ele>131.0</ele><time>2026-04-05T07:25:48.592Z</time></trkpt><trkpt lat="43.9609263" lon="12.401972"><ele>131.0</ele><time>2026-04-05T07:25:49.591Z</time></trkpt><trkpt lat="43.9607611" lon="12.4020323"><ele>131.0</ele><time>2026-04-05T07:25:50.591Z</time></trkpt><trkpt lat="43.9605982" lon="12.402096"><ele>131.33333333333331</ele><time>2026-04-05T07:25:51.592Z</time></trkpt><trkpt lat="43.9604388" lon="12.4021497"><ele>131.66666666666666</ele><time>2026-04-05T07:25:52.591Z</time></trkpt><trkpt lat="43.9602856" lon="12.4021852"><ele>132.0</ele><time>2026-04-05T07:25:53.592Z</time></trkpt><trkpt lat="43.9601331" lon="12.4021907"><ele>131.5</ele><time>2026-04-05T07:25:54.591Z</time></trkpt><trkpt lat="43.9599799" lon="12.4021722"><ele>131.0</ele><time>2026-04-05T07:25:55.592Z</time></trkpt><trkpt lat="43.9598313" lon="12.4021411"><ele>130.5</ele><time>2026-04-05T07:25:56.592Z</time></trkpt><trkpt lat="43.9596945" lon="12.4020986"><ele>130.0</ele><time>2026-04-05T07:25:57.591Z</time></trkpt><trkpt lat="43.9595721" lon="12.4020378"><ele>130.0</ele><time>2026-04-05T07:25:58.592Z</time></trkpt><trkpt lat="43.9594741" lon="12.4019797"><ele>130.0</ele><time>2026-04-05T07:25:59.592Z</time></trkpt><trkpt lat="43.9593933" lon="12.401952"><ele>130.0</ele><time>2026-04-05T07:26:00.591Z</time></trkpt><trkpt lat="43.959319" lon="12.4019598"><ele>130.0</ele><time>2026-04-05T07:26:01.592Z</time></trkpt><trkpt lat="43.9592531" lon="12.4020309"><ele>130.0</ele><time>2026-04-05T07:26:02.592Z</time></trkpt><trkpt lat="43.9591931" lon="12.4021738"><ele>131.0</ele><time>2026-04-05T07:26:03.591Z</time></trkpt><trkpt lat="43.9591318" lon="12.4023719"><ele>132.0</ele><time>2026-04-05T07:26:04.592Z</time></trkpt><trkpt lat="43.9590655" lon="12.4026103"><ele>133.0</ele><time>2026-04-05T07:26:05.591Z</time></trkpt><trkpt lat="43.9589907" lon="12.4028634"><ele>135.0</ele><time>2026-04-05T07:26:06.592Z</time></trkpt><trkpt lat="43.9589096" lon="12.4031243"><ele>137.0</ele><time>2026-04-05T07:26:07.592Z</time></trkpt><trkpt lat="43.9588214" lon="12.4033748"><ele>139.0</ele><time>2026-04-05T07:26:08.591Z</time></trkpt><trkpt lat="43.9587229" lon="12.4036073"><ele>141.0</ele><time>2026-04-05T07:26:09.592Z</time></trkpt><trkpt lat="43.9586047" lon="12.4038345"><ele>143.0</ele><time>2026-04-05T07:26:10.591Z</time></trkpt><trkpt lat="43.9584696" lon="12.4040509"><ele>145.0</ele><time>2026-04-05T07:26:11.592Z</time></trkpt><trkpt lat="43.9583181" lon="12.4042479"><ele>142.0</ele><time>2026-04-05T07:26:12.592Z</time></trkpt><trkpt lat="43.9581528" lon="12.4044263"><ele>139.0</ele><time>2026-04-05T07:26:13.591Z</time></trkpt><trkpt lat="43.9579749" lon="12.4045752"><ele>136.0</ele><time>2026-04-05T07:26:14.592Z</time></trkpt><trkpt lat="43.957796" lon="12.4046865"><ele>136.0</ele><time>2026-04-05T07:26:15.592Z</time></trkpt><trkpt lat="43.9576107" lon="12.4047733"><ele>136.0</ele><time>2026-04-05T07:26:16.592Z</time></trkpt><trkpt lat="43.957413" lon="12.4048326"><ele>136.0</ele><time>2026-04-05T07:26:17.591Z</time></trkpt><trkpt lat="43.9572015" lon="12.4048788"><ele>135.0</ele><time>2026-04-05T07:26:18.592Z</time></trkpt><trkpt lat="43.9569823" lon="12.4049165"><ele>134.0</ele><time>2026-04-05T07:26:19.592Z</time></trkpt><trkpt lat="43.9567601" lon="12.4049441"><ele>133.0</ele><time>2026-04-05T07:26:20.591Z</time></trkpt><trkpt lat="43.9565448" lon="12.4049746"><ele>133.0</ele><time>2026-04-05T07:26:21.592Z</time></trkpt><trkpt lat="43.9563382" lon="12.4050114"><ele>133.0</ele><time>2026-04-05T07:26:22.592Z</time></trkpt><trkpt lat="43.9561353" lon="12.4050475"><ele>133.0</ele><time>2026-04-05T07:26:23.592Z</time></trkpt><trkpt lat="43.9559363" lon="12.405077"><ele>133.66666666666669</ele><time>2026-04-05T07:26:24.592Z</time></trkpt><trkpt lat="43.9557485" lon="12.4051062"><ele>134.33333333333334</ele><time>2026-04-05T07:26:25.592Z</time></trkpt><trkpt lat="43.9555684" lon="12.4051321"><ele>135.0</ele><time>2026-04-05T07:26:26.592Z</time></trkpt><trkpt lat="43.9553954" lon="12.4051593"><ele>135.0</ele><time>2026-04-05T07:26:27.591Z</time></trkpt><trkpt lat="43.9552291" lon="12.4051858"><ele>135.0</ele><time>2026-04-05T07:26:28.591Z</time></trkpt><trkpt lat="43.9550713" lon="12.405211"><ele>135.0</ele><time>2026-04-05T07:26:29.592Z</time></trkpt><trkpt lat="43.9549145" lon="12.4052334"><ele>136.0</ele><time>2026-04-05T07:26:30.592Z</time></trkpt><trkpt lat="43.9547654" lon="12.4052503"><ele>137.0</ele><time>2026-04-05T07:26:31.592Z</time></trkpt><trkpt lat="43.9546237" lon="12.4052738"><ele>138.0</ele><time>2026-04-05T07:26:32.591Z</time></trkpt><trkpt lat="43.9544982" lon="12.4052943"><ele>139.0</ele><time>2026-04-05T07:26:33.592Z</time></trkpt><trkpt lat="43.9543804" lon="12.4053135"><ele>139.0</ele><time>2026-04-05T07:26:34.592Z</time></trkpt><trkpt lat="43.9542646" lon="12.4053298"><ele>139.0</ele><time>2026-04-05T07:26:35.592Z</time></trkpt><trkpt lat="43.9541565" lon="12.4053554"><ele>139.0</ele><time>2026-04-05T07:26:36.591Z</time></trkpt><trkpt lat="43.9540467" lon="12.4053886"><ele>139.0</ele><time>2026-04-05T07:26:37.591Z</time></trkpt><trkpt lat="43.9539333" lon="12.4054197"><ele>139.25</ele><time>2026-04-05T07:26:38.592Z</time></trkpt><trkpt lat="43.9538163" lon="12.4054451"><ele>139.5</ele><time>2026-04-05T07:26:39.591Z</time></trkpt><trkpt lat="43.9537001" lon="12.4054719"><ele>139.75</ele><time>2026-04-05T07:26:40.592Z</time></trkpt><trkpt lat="43.9535859" lon="12.4055032"><ele>140.0</ele><time>2026-04-05T07:26:41.591Z</time></trkpt><trkpt lat="43.9534722" lon="12.4055342"><ele>140.8</ele><time>2026-04-05T07:26:42.592Z</time></trkpt><trkpt lat="43.9533623" lon="12.4055681"><ele>141.6</ele><time>2026-04-05T07:26:43.592Z</time></trkpt><trkpt lat="43.9532571" lon="12.4055994"><ele>142.4</ele><time>2026-04-05T07:26:44.592Z</time></trkpt><trkpt lat="43.9531462" lon="12.4056311"><ele>143.2</ele><time>2026-04-05T07:26:45.591Z</time></trkpt><trkpt lat="43.9530337" lon="12.4056637"><ele>144.0</ele><time>2026-04-05T07:26:46.591Z</time></trkpt><trkpt lat="43.9529192" lon="12.4056905"><ele>144.0</ele><time>2026-04-05T07:26:47.591Z</time></trkpt><trkpt lat="43.9528083" lon="12.4057071"><ele>144.0</ele><time>2026-04-05T07:26:48.592Z</time></trkpt><trkpt lat="43.9526918" lon="12.40572"><ele>144.0</ele><time>2026-04-05T07:26:49.591Z</time></trkpt><trkpt lat="43.9525789" lon="12.4057386"><ele>144.0</ele><time>2026-04-05T07:26:50.592Z</time></trkpt><trkpt lat="43.9524745" lon="12.4057622"><ele>144.0</ele><time>2026-04-05T07:26:51.592Z</time></trkpt><trkpt lat="43.9523835" lon="12.4057838"><ele>144.00000000000003</ele><time>2026-04-05T07:26:52.592Z</time></trkpt><trkpt lat="43.9523131" lon="12.4058052"><ele>144.0</ele><time>2026-04-05T07:26:53.592Z</time></trkpt><trkpt lat="43.9522511" lon="12.405833"><ele>144.0</ele><time>2026-04-05T07:26:54.592Z</time></trkpt><trkpt lat="43.9521962" lon="12.4058917"><ele>144.0</ele><time>2026-04-05T07:26:56.592Z</time></trkpt><trkpt lat="43.9521939" lon="12.4060127"><ele>144.0</ele><time>2026-04-05T07:26:59.592Z</time></trkpt><trkpt lat="43.9522826" lon="12.4060443"><ele>144.00000000000003</ele><time>2026-04-05T07:27:02.592Z</time></trkpt><trkpt lat="43.9523431" lon="12.4060178"><ele>144.0</ele><time>2026-04-05T07:27:05.592Z</time></trkpt><trkpt lat="43.9524517" lon="12.4059683"><ele>144.0</ele><time>2026-04-05T07:30:45.589Z</time></trkpt><trkpt lat="43.9525999" lon="12.4057649"><ele>144.0</ele><time>2026-04-05T07:35:29.589Z</time></trkpt><trkpt lat="43.9527477" lon="12.4056925"><ele>144.0</ele><time>2026-04-05T07:35:30.59Z</time></trkpt><trkpt lat="43.9528847" lon="12.4056601"><ele>144.0</ele><time>2026-04-05T07:35:31.59Z</time></trkpt><trkpt lat="43.9530149" lon="12.4056298"><ele>144.0</ele><time>2026-04-05T07:35:32.59Z</time></trkpt><trkpt lat="43.9531379" lon="12.405602"><ele>144.0</ele><time>2026-04-05T07:35:33.59Z</time></trkpt><trkpt lat="43.9532608" lon="12.4055757"><ele>144.0</ele><time>2026-04-05T07:35:34.59Z</time></trkpt><trkpt lat="43.9533886" lon="12.4055496"><ele>143.25</ele><time>2026-04-05T07:35:35.59Z</time></trkpt><trkpt lat="43.9535122" lon="12.4055248"><ele>142.5</ele><time>2026-04-05T07:35:36.59Z</time></trkpt><trkpt lat="43.953637" lon="12.4054999"><ele>141.75</ele><time>2026-04-05T07:35:37.59Z</time></trkpt><trkpt lat="43.9537677" lon="12.4054777"><ele>141.0</ele><time>2026-04-05T07:35:38.59Z</time></trkpt><trkpt lat="43.9538966" lon="12.4054522"><ele>140.75</ele><time>2026-04-05T07:35:39.589Z</time></trkpt><trkpt lat="43.9540291" lon="12.4054318"><ele>140.5</ele><time>2026-04-05T07:35:40.59Z</time></trkpt><trkpt lat="43.9541583" lon="12.405404"><ele>140.25</ele><time>2026-04-05T07:35:41.589Z</time></trkpt><trkpt lat="43.9542819" lon="12.4053793"><ele>140.0</ele><time>2026-04-05T07:35:42.59Z</time></trkpt><trkpt lat="43.95441" lon="12.4053533"><ele>139.75</ele><time>2026-04-05T07:35:43.59Z</time></trkpt><trkpt lat="43.9545433" lon="12.4053233"><ele>139.5</ele><time>2026-04-05T07:35:44.59Z</time></trkpt><trkpt lat="43.9546733" lon="12.4053017"><ele>139.25</ele><time>2026-04-05T07:35:45.59Z</time></trkpt><trkpt lat="43.9548183" lon="12.40527"><ele>139.0</ele><time>2026-04-05T07:35:46.59Z</time></trkpt><trkpt lat="43.95498" lon="12.4052367"><ele>137.66666666666669</ele><time>2026-04-05T07:35:47.59Z</time></trkpt><trkpt lat="43.9551483" lon="12.405205"><ele>136.33333333333334</ele><time>2026-04-05T07:35:48.59Z</time></trkpt><trkpt lat="43.9553167" lon="12.4051833"><ele>135.0</ele><time>2026-04-05T07:35:49.59Z</time></trkpt><trkpt lat="43.955465" lon="12.4051767"><ele>135.0</ele><time>2026-04-05T07:35:50.59Z</time></trkpt><trkpt lat="43.955625" lon="12.4051517"><ele>135.0</ele><time>2026-04-05T07:35:51.59Z</time></trkpt><trkpt lat="43.95579" lon="12.4051317"><ele>135.0</ele><time>2026-04-05T07:35:52.59Z</time></trkpt><trkpt lat="43.9559517" lon="12.4051067"><ele>134.33333333333334</ele><time>2026-04-05T07:35:53.589Z</time></trkpt><trkpt lat="43.9560983" lon="12.4050833"><ele>133.66666666666669</ele><time>2026-04-05T07:35:54.589Z</time></trkpt><trkpt lat="43.956245" lon="12.4050583"><ele>133.0</ele><time>2026-04-05T07:35:55.59Z</time></trkpt><trkpt lat="43.9564017" lon="12.405025"><ele>133.0</ele><time>2026-04-05T07:35:56.59Z</time></trkpt><trkpt lat="43.9565867" lon="12.4049833"><ele>133.0</ele><time>2026-04-05T07:35:57.59Z</time></trkpt><trkpt lat="43.9567933" lon="12.404945"><ele>133.0</ele><time>2026-04-05T07:35:58.59Z</time></trkpt><trkpt lat="43.9570117" lon="12.4049233"><ele>132.66666666666669</ele><time>2026-04-05T07:35:59.59Z</time></trkpt><trkpt lat="43.9572233" lon="12.4049017"><ele>132.33333333333334</ele><time>2026-04-05T07:36:00.589Z</time></trkpt><trkpt lat="43.95742" lon="12.4048733"><ele>132.0</ele><time>2026-04-05T07:36:01.59Z</time></trkpt><trkpt lat="43.957625" lon="12.4048117"><ele>132.0</ele><time>2026-04-05T07:36:02.589Z</time></trkpt><trkpt lat="43.9578367" lon="12.404705"><ele>132.0</ele><time>2026-04-05T07:36:03.59Z</time></trkpt><trkpt lat="43.9580467" lon="12.404555"><ele>132.0</ele><time>2026-04-05T07:36:04.59Z</time></trkpt><trkpt lat="43.9582533" lon="12.4043617"><ele>132.0</ele><time>2026-04-05T07:36:05.59Z</time></trkpt><trkpt lat="43.9584383" lon="12.4041417"><ele>135.5</ele><time>2026-04-05T07:36:06.589Z</time></trkpt><trkpt lat="43.9585967" lon="12.4038983"><ele>139.0</ele><time>2026-04-05T07:36:07.589Z</time></trkpt><trkpt lat="43.9587283" lon="12.4036533"><ele>139.0</ele><time>2026-04-05T07:36:08.589Z</time></trkpt><trkpt lat="43.958835" lon="12.4034083"><ele>139.0</ele><time>2026-04-05T07:36:09.59Z</time></trkpt><trkpt lat="43.9589267" lon="12.4031667"><ele>139.0</ele><time>2026-04-05T07:36:10.59Z</time></trkpt><trkpt lat="43.959005" lon="12.4029483"><ele>138.75</ele><time>2026-04-05T07:36:11.589Z</time></trkpt><trkpt lat="43.95907" lon="12.4027417"><ele>138.5</ele><time>2026-04-05T07:36:12.589Z</time></trkpt><trkpt lat="43.95913" lon="12.4025533"><ele>138.25</ele><time>2026-04-05T07:36:13.59Z</time></trkpt><trkpt lat="43.9591867" lon="12.4023883"><ele>138.0</ele><time>2026-04-05T07:36:14.59Z</time></trkpt><trkpt lat="43.9592533" lon="12.4022533"><ele>136.0</ele><time>2026-04-05T07:36:15.59Z</time></trkpt><trkpt lat="43.95933" lon="12.4021533"><ele>134.0</ele><time>2026-04-05T07:36:16.59Z</time></trkpt><trkpt lat="43.9594233" lon="12.4020833"><ele>132.0</ele><time>2026-04-05T07:36:17.59Z</time></trkpt><trkpt lat="43.9595338" lon="12.402068"><ele>130.0</ele><time>2026-04-05T07:36:18.589Z</time></trkpt><trkpt lat="43.9596694" lon="12.4021004"><ele>130.0</ele><time>2026-04-05T07:36:19.589Z</time></trkpt><trkpt lat="43.9598397" lon="12.4021591"><ele>130.0</ele><time>2026-04-05T07:36:20.59Z</time></trkpt><trkpt lat="43.9600364" lon="12.4022003"><ele>130.0</ele><time>2026-04-05T07:36:21.589Z</time></trkpt><trkpt lat="43.9602301" lon="12.4022101"><ele>130.66666666666669</ele><time>2026-04-05T07:36:22.589Z</time></trkpt><trkpt lat="43.960412" lon="12.4021879"><ele>131.33333333333334</ele><time>2026-04-05T07:36:23.59Z</time></trkpt><trkpt lat="43.9605824" lon="12.4021403"><ele>132.0</ele><time>2026-04-05T07:36:24.589Z</time></trkpt><trkpt lat="43.9607346" lon="12.4020788"><ele>131.75</ele><time>2026-04-05T07:36:25.59Z</time></trkpt><trkpt lat="43.9608745" lon="12.4020176"><ele>131.5</ele><time>2026-04-05T07:36:26.59Z</time></trkpt><trkpt lat="43.9610073" lon="12.4019611"><ele>131.25</ele><time>2026-04-05T07:36:27.589Z</time></trkpt><trkpt lat="43.9611244" lon="12.4019159"><ele>131.0</ele><time>2026-04-05T07:36:28.59Z</time></trkpt><trkpt lat="43.961224" lon="12.4018867"><ele>131.0</ele><time>2026-04-05T07:36:29.59Z</time></trkpt><trkpt lat="43.9612968" lon="12.4018713"><ele>131.0</ele><time>2026-04-05T07:36:30.59Z</time></trkpt><trkpt lat="43.9613928" lon="12.4018499"><ele>131.0</ele><time>2026-04-05T07:36:32.589Z</time></trkpt><trkpt lat="43.9614869" lon="12.4017644"><ele>131.0</ele><time>2026-04-05T07:36:34.59Z</time></trkpt><trkpt lat="43.9615143" lon="12.4015987"><ele>131.0</ele><time>2026-04-05T07:36:36.59Z</time></trkpt><trkpt lat="43.9614796" lon="12.4015115"><ele>131.0</ele><time>2026-04-05T07:36:37.589Z</time></trkpt><trkpt lat="43.9613975" lon="12.4014481"><ele>131.0</ele><time>2026-04-05T07:36:38.59Z</time></trkpt><trkpt lat="43.9612799" lon="12.4013802"><ele>131.0</ele><time>2026-04-05T07:36:39.589Z</time></trkpt><trkpt lat="43.961144" lon="12.4012783"><ele>131.0</ele><time>2026-04-05T07:36:40.59Z</time></trkpt><trkpt lat="43.9610081" lon="12.4011323"><ele>130.33333333333331</ele><time>2026-04-05T07:36:41.59Z</time></trkpt><trkpt lat="43.9608709" lon="12.4009507"><ele>129.66666666666666</ele><time>2026-04-05T07:36:42.59Z</time></trkpt><trkpt lat="43.9607259" lon="12.40074"><ele>129.0</ele><time>2026-04-05T07:36:43.59Z</time></trkpt><trkpt lat="43.9605831" lon="12.4005115"><ele>127.0</ele><time>2026-04-05T07:36:44.589Z</time></trkpt><trkpt lat="43.9604411" lon="12.4002645"><ele>125.0</ele><time>2026-04-05T07:36:45.589Z</time></trkpt><trkpt lat="43.9603074" lon="12.4000172"><ele>125.0</ele><time>2026-04-05T07:36:46.59Z</time></trkpt><trkpt lat="43.9601815" lon="12.3997803"><ele>125.0</ele><time>2026-04-05T07:36:47.59Z</time></trkpt><trkpt lat="43.9600641" lon="12.3995492"><ele>125.0</ele><time>2026-04-05T07:36:48.589Z</time></trkpt><trkpt lat="43.9599517" lon="12.3993225"><ele>125.0</ele><time>2026-04-05T07:36:49.59Z</time></trkpt><trkpt lat="43.9598411" lon="12.3991145"><ele>125.0</ele><time>2026-04-05T07:36:50.59Z</time></trkpt><trkpt lat="43.9597278" lon="12.3989075"><ele>125.0</ele><time>2026-04-05T07:36:51.59Z</time></trkpt><trkpt lat="43.9596089" lon="12.3986901"><ele>127.33333333333333</ele><time>2026-04-05T07:36:52.59Z</time></trkpt><trkpt lat="43.9594893" lon="12.3984648"><ele>129.66666666666666</ele><time>2026-04-05T07:36:53.589Z</time></trkpt><trkpt lat="43.959377" lon="12.39824"><ele>132.0</ele><time>2026-04-05T07:36:54.59Z</time></trkpt><trkpt lat="43.9592682" lon="12.3980152"><ele>133.66666666666666</ele><time>2026-04-05T07:36:55.59Z</time></trkpt><trkpt lat="43.9591711" lon="12.397786"><ele>135.33333333333331</ele><time>2026-04-05T07:36:56.59Z</time></trkpt><trkpt lat="43.9590755" lon="12.3975591"><ele>137.0</ele><time>2026-04-05T07:36:57.59Z</time></trkpt><trkpt lat="43.9589739" lon="12.3973275"><ele>134.66666666666666</ele><time>2026-04-05T07:36:58.59Z</time></trkpt><trkpt lat="43.9588739" lon="12.3970956"><ele>132.33333333333334</ele><time>2026-04-05T07:36:59.59Z</time></trkpt><trkpt lat="43.9587806" lon="12.396875"><ele>130.0</ele><time>2026-04-05T07:37:00.589Z</time></trkpt><trkpt lat="43.9586975" lon="12.3966613"><ele>130.0</ele><time>2026-04-05T07:37:01.59Z</time></trkpt><trkpt lat="43.9586217" lon="12.3964426"><ele>130.0</ele><time>2026-04-05T07:37:02.59Z</time></trkpt><trkpt lat="43.9585429" lon="12.3962141"><ele>130.0</ele><time>2026-04-05T07:37:03.589Z</time></trkpt><trkpt lat="43.9584531" lon="12.3959728"><ele>130.66666666666669</ele><time>2026-04-05T07:37:04.589Z</time></trkpt><trkpt lat="43.9583594" lon="12.3957117"><ele>131.33333333333334</ele><time>2026-04-05T07:37:05.59Z</time></trkpt><trkpt lat="43.9582566" lon="12.3954337"><ele>132.0</ele><time>2026-04-05T07:37:06.59Z</time></trkpt><trkpt lat="43.9581492" lon="12.3951271"><ele>132.0</ele><time>2026-04-05T07:37:07.59Z</time></trkpt><trkpt lat="43.9580301" lon="12.3947847"><ele>132.0</ele><time>2026-04-05T07:37:08.589Z</time></trkpt><trkpt lat="43.9578991" lon="12.3944098"><ele>130.0</ele><time>2026-04-05T07:37:09.59Z</time></trkpt><trkpt lat="43.9577649" lon="12.3940126"><ele>128.0</ele><time>2026-04-05T07:37:10.59Z</time></trkpt><trkpt lat="43.9576319" lon="12.3936113"><ele>129.5</ele><time>2026-04-05T07:37:11.59Z</time></trkpt><trkpt lat="43.9575046" lon="12.393223"><ele>131.0</ele><time>2026-04-05T07:37:12.59Z</time></trkpt><trkpt lat="43.957377" lon="12.3928522"><ele>131.0</ele><time>2026-04-05T07:37:13.59Z</time></trkpt><trkpt lat="43.9572603" lon="12.3924903"><ele>131.0</ele><time>2026-04-05T07:37:14.59Z</time></trkpt><trkpt lat="43.9571579" lon="12.3921219"><ele>130.5</ele><time>2026-04-05T07:37:15.59Z</time></trkpt><trkpt lat="43.9570751" lon="12.3917478"><ele>130.0</ele><time>2026-04-05T07:37:16.589Z</time></trkpt><trkpt lat="43.9570165" lon="12.3913621"><ele>130.0</ele><time>2026-04-05T07:37:17.59Z</time></trkpt><trkpt lat="43.956986" lon="12.3909562"><ele>130.0</ele><time>2026-04-05T07:37:18.59Z</time></trkpt><trkpt lat="43.9569863" lon="12.3905388"><ele>130.5</ele><time>2026-04-05T07:37:19.589Z</time></trkpt><trkpt lat="43.9570078" lon="12.3901146"><ele>131.0</ele><time>2026-04-05T07:37:20.59Z</time></trkpt><trkpt lat="43.9570535" lon="12.3896937"><ele>130.5</ele><time>2026-04-05T07:37:21.59Z</time></trkpt><trkpt lat="43.9571223" lon="12.3892713"><ele>130.0</ele><time>2026-04-05T07:37:22.59Z</time></trkpt><trkpt lat="43.9572126" lon="12.388865"><ele>132.0</ele><time>2026-04-05T07:37:23.59Z</time></trkpt><trkpt lat="43.957307" lon="12.3884896"><ele>134.0</ele><time>2026-04-05T07:37:24.59Z</time></trkpt><trkpt lat="43.9573993" lon="12.3881326"><ele>136.0</ele><time>2026-04-05T07:37:25.59Z</time></trkpt><trkpt lat="43.9574921" lon="12.3877957"><ele>138.0</ele><time>2026-04-05T07:37:26.589Z</time></trkpt><trkpt lat="43.9575728" lon="12.3874695"><ele>136.0</ele><time>2026-04-05T07:37:27.589Z</time></trkpt><trkpt lat="43.9576466" lon="12.3871518"><ele>134.0</ele><time>2026-04-05T07:37:28.589Z</time></trkpt><trkpt lat="43.9577236" lon="12.3868436"><ele>134.0</ele><time>2026-04-05T07:37:29.59Z</time></trkpt><trkpt lat="43.957801" lon="12.3865353"><ele>134.0</ele><time>2026-04-05T07:37:30.589Z</time></trkpt><trkpt lat="43.9578648" lon="12.3862259"><ele>134.5</ele><time>2026-04-05T07:37:31.59Z</time></trkpt><trkpt lat="43.9578927" lon="12.385899"><ele>135.0</ele><time>2026-04-05T07:37:32.59Z</time></trkpt><trkpt lat="43.9578901" lon="12.3855686"><ele>133.5</ele><time>2026-04-05T07:37:33.589Z</time></trkpt><trkpt lat="43.9578658" lon="12.385248"><ele>132.0</ele><time>2026-04-05T07:37:34.59Z</time></trkpt><trkpt lat="43.9578235" lon="12.3849433"><ele>132.66666666666666</ele><time>2026-04-05T07:37:35.59Z</time></trkpt><trkpt lat="43.9577623" lon="12.3846499"><ele>133.33333333333331</ele><time>2026-04-05T07:37:36.59Z</time></trkpt><trkpt lat="43.9576834" lon="12.3843725"><ele>134.0</ele><time>2026-04-05T07:37:37.59Z</time></trkpt><trkpt lat="43.9575959" lon="12.3841006"><ele>138.33333333333331</ele><time>2026-04-05T07:37:38.59Z</time></trkpt><trkpt lat="43.9574905" lon="12.3838429"><ele>142.66666666666666</ele><time>2026-04-05T07:37:39.59Z</time></trkpt><trkpt lat="43.9573786" lon="12.3835824"><ele>147.0</ele><time>2026-04-05T07:37:40.59Z</time></trkpt><trkpt lat="43.9572624" lon="12.3833153"><ele>147.0</ele><time>2026-04-05T07:37:41.59Z</time></trkpt><trkpt lat="43.9571494" lon="12.38305"><ele>147.0</ele><time>2026-04-05T07:37:42.59Z</time></trkpt><trkpt lat="43.9570397" lon="12.3827867"><ele>147.0</ele><time>2026-04-05T07:37:43.59Z</time></trkpt><trkpt lat="43.9569343" lon="12.3825288"><ele>148.66666666666666</ele><time>2026-04-05T07:37:44.59Z</time></trkpt><trkpt lat="43.9568263" lon="12.3822818"><ele>150.33333333333331</ele><time>2026-04-05T07:37:45.59Z</time></trkpt><trkpt lat="43.9567167" lon="12.3820378"><ele>152.0</ele><time>2026-04-05T07:37:46.589Z</time></trkpt><trkpt lat="43.9566045" lon="12.3817753"><ele>152.0</ele><time>2026-04-05T07:37:47.589Z</time></trkpt><trkpt lat="43.9564853" lon="12.3814825"><ele>152.0</ele><time>2026-04-05T07:37:48.59Z</time></trkpt><trkpt lat="43.9563649" lon="12.3811711"><ele>149.5</ele><time>2026-04-05T07:37:49.59Z</time></trkpt><trkpt lat="43.9562351" lon="12.38085"><ele>147.0</ele><time>2026-04-05T07:37:50.59Z</time></trkpt><trkpt lat="43.9561045" lon="12.3805355"><ele>143.5</ele><time>2026-04-05T07:37:51.589Z</time></trkpt><trkpt lat="43.9559803" lon="12.3802301"><ele>140.0</ele><time>2026-04-05T07:37:52.59Z</time></trkpt><trkpt lat="43.9558622" lon="12.3799368"><ele>146.5</ele><time>2026-04-05T07:37:53.59Z</time></trkpt><trkpt lat="43.9557412" lon="12.3796494"><ele>153.0</ele><time>2026-04-05T07:37:54.59Z</time></trkpt><trkpt lat="43.9556216" lon="12.3793622"><ele>153.0</ele><time>2026-04-05T07:37:55.59Z</time></trkpt><trkpt lat="43.9555049" lon="12.3790757"><ele>153.0</ele><time>2026-04-05T07:37:56.59Z</time></trkpt><trkpt lat="43.9553911" lon="12.3787912"><ele>152.0</ele><time>2026-04-05T07:37:57.59Z</time></trkpt><trkpt lat="43.9552789" lon="12.3785126"><ele>151.0</ele><time>2026-04-05T07:37:58.59Z</time></trkpt><trkpt lat="43.9551689" lon="12.3782442"><ele>149.66666666666669</ele><time>2026-04-05T07:37:59.59Z</time></trkpt><trkpt lat="43.9550616" lon="12.3779753"><ele>148.33333333333334</ele><time>2026-04-05T07:38:00.589Z</time></trkpt><trkpt lat="43.9549541" lon="12.3777076"><ele>147.0</ele><time>2026-04-05T07:38:01.59Z</time></trkpt><trkpt lat="43.9548479" lon="12.3774394"><ele>150.33333333333334</ele><time>2026-04-05T07:38:02.59Z</time></trkpt><trkpt lat="43.9547444" lon="12.3771752"><ele>153.66666666666669</ele><time>2026-04-05T07:38:03.59Z</time></trkpt><trkpt lat="43.954643" lon="12.3769139"><ele>157.0</ele><time>2026-04-05T07:38:04.59Z</time></trkpt><trkpt lat="43.9545482" lon="12.3766526"><ele>157.0</ele><time>2026-04-05T07:38:05.589Z</time></trkpt><trkpt lat="43.9544581" lon="12.3763963"><ele>157.0</ele><time>2026-04-05T07:38:06.59Z</time></trkpt><trkpt lat="43.954371" lon="12.3761429"><ele>157.0</ele><time>2026-04-05T07:38:07.59Z</time></trkpt><trkpt lat="43.954288" lon="12.3758823"><ele>159.0</ele><time>2026-04-05T07:38:08.59Z</time></trkpt><trkpt lat="43.9542043" lon="12.3756168"><ele>161.0</ele><time>2026-04-05T07:38:09.589Z</time></trkpt><trkpt lat="43.9541228" lon="12.3753445"><ele>163.0</ele><time>2026-04-05T07:38:10.59Z</time></trkpt><trkpt lat="43.9540514" lon="12.3750785"><ele>163.0</ele><time>2026-04-05T07:38:11.59Z</time></trkpt><trkpt lat="43.9539799" lon="12.374823"><ele>163.0</ele><time>2026-04-05T07:38:12.59Z</time></trkpt><trkpt lat="43.9539111" lon="12.3745751"><ele>163.0</ele><time>2026-04-05T07:38:13.59Z</time></trkpt><trkpt lat="43.953842" lon="12.3743419"><ele>162.66666666666669</ele><time>2026-04-05T07:38:14.59Z</time></trkpt><trkpt lat="43.9537725" lon="12.3741162"><ele>162.33333333333334</ele><time>2026-04-05T07:38:15.589Z</time></trkpt><trkpt lat="43.9537077" lon="12.3739059"><ele>162.0</ele><time>2026-04-05T07:38:16.589Z</time></trkpt><trkpt lat="43.9536501" lon="12.373706"><ele>161.75</ele><time>2026-04-05T07:38:17.59Z</time></trkpt><trkpt lat="43.9535941" lon="12.3735161"><ele>161.5</ele><time>2026-04-05T07:38:18.59Z</time></trkpt><trkpt lat="43.9535378" lon="12.3733303"><ele>161.25</ele><time>2026-04-05T07:38:19.59Z</time></trkpt><trkpt lat="43.9534745" lon="12.3731374"><ele>161.0</ele><time>2026-04-05T07:38:20.59Z</time></trkpt><trkpt lat="43.9534117" lon="12.3729201"><ele>162.0</ele><time>2026-04-05T07:38:21.59Z</time></trkpt><trkpt lat="43.953344" lon="12.372679"><ele>163.0</ele><time>2026-04-05T07:38:22.59Z</time></trkpt><trkpt lat="43.9532701" lon="12.3724265"><ele>164.0</ele><time>2026-04-05T07:38:23.59Z</time></trkpt><trkpt lat="43.9531948" lon="12.3721609"><ele>164.0</ele><time>2026-04-05T07:38:24.59Z</time></trkpt><trkpt lat="43.9531192" lon="12.3718894"><ele>164.0</ele><time>2026-04-05T07:38:25.59Z</time></trkpt><trkpt lat="43.953038" lon="12.3716192"><ele>164.0</ele><time>2026-04-05T07:38:26.589Z</time></trkpt><trkpt lat="43.9529517" lon="12.3713451"><ele>164.0</ele><time>2026-04-05T07:38:27.59Z</time></trkpt><trkpt lat="43.9528718" lon="12.3710699"><ele>164.0</ele><time>2026-04-05T07:38:28.59Z</time></trkpt><trkpt lat="43.9527922" lon="12.370805"><ele>164.0</ele><time>2026-04-05T07:38:29.59Z</time></trkpt><trkpt lat="43.9527152" lon="12.3705455"><ele>163.33333333333331</ele><time>2026-04-05T07:38:30.59Z</time></trkpt><trkpt lat="43.9526391" lon="12.3702959"><ele>162.66666666666666</ele><time>2026-04-05T07:38:31.59Z</time></trkpt><trkpt lat="43.9525617" lon="12.3700457"><ele>162.0</ele><time>2026-04-05T07:38:32.589Z</time></trkpt><trkpt lat="43.9524816" lon="12.3697898"><ele>163.66666666666666</ele><time>2026-04-05T07:38:33.589Z</time></trkpt><trkpt lat="43.952395" lon="12.3695436"><ele>165.33333333333331</ele><time>2026-04-05T07:38:34.59Z</time></trkpt><trkpt lat="43.9522994" lon="12.3693049"><ele>167.0</ele><time>2026-04-05T07:38:35.59Z</time></trkpt><trkpt lat="43.9521999" lon="12.3690788"><ele>167.0</ele><time>2026-04-05T07:38:36.59Z</time></trkpt><trkpt lat="43.9520937" lon="12.3688639"><ele>167.0</ele><time>2026-04-05T07:38:37.59Z</time></trkpt><trkpt lat="43.9519783" lon="12.368659"><ele>167.0</ele><time>2026-04-05T07:38:38.59Z</time></trkpt><trkpt lat="43.9518442" lon="12.3684459"><ele>167.5</ele><time>2026-04-05T07:38:39.59Z</time></trkpt><trkpt lat="43.9516825" lon="12.3682159"><ele>168.0</ele><time>2026-04-05T07:38:40.589Z</time></trkpt><trkpt lat="43.9514974" lon="12.3679863"><ele>164.0</ele><time>2026-04-05T07:38:41.589Z</time></trkpt><trkpt lat="43.9512994" lon="12.3677479"><ele>160.0</ele><time>2026-04-05T07:38:42.59Z</time></trkpt><trkpt lat="43.951089" lon="12.3675084"><ele>160.0</ele><time>2026-04-05T07:38:43.59Z</time></trkpt><trkpt lat="43.9508845" lon="12.367276"><ele>160.0</ele><time>2026-04-05T07:38:44.59Z</time></trkpt><trkpt lat="43.9506897" lon="12.3670617"><ele>158.5</ele><time>2026-04-05T07:38:45.59Z</time></trkpt><trkpt lat="43.9505076" lon="12.366857"><ele>157.0</ele><time>2026-04-05T07:38:46.589Z</time></trkpt><trkpt lat="43.9503336" lon="12.3666579"><ele>157.0</ele><time>2026-04-05T07:38:47.59Z</time></trkpt><trkpt lat="43.9501653" lon="12.3664619"><ele>157.0</ele><time>2026-04-05T07:38:48.589Z</time></trkpt><trkpt lat="43.9500008" lon="12.3662647"><ele>157.0</ele><time>2026-04-05T07:38:49.59Z</time></trkpt><trkpt lat="43.9498355" lon="12.3660684"><ele>160.33333333333334</ele><time>2026-04-05T07:38:50.589Z</time></trkpt><trkpt lat="43.9496683" lon="12.365872"><ele>163.66666666666666</ele><time>2026-04-05T07:38:51.59Z</time></trkpt><trkpt lat="43.9495064" lon="12.3656773"><ele>167.0</ele><time>2026-04-05T07:38:52.589Z</time></trkpt><trkpt lat="43.9493565" lon="12.3654797"><ele>167.0</ele><time>2026-04-05T07:38:53.589Z</time></trkpt><trkpt lat="43.9492159" lon="12.3652688"><ele>167.0</ele><time>2026-04-05T07:38:54.59Z</time></trkpt><trkpt lat="43.9490789" lon="12.3650454"><ele>167.0</ele><time>2026-04-05T07:38:55.59Z</time></trkpt><trkpt lat="43.9489483" lon="12.3647971"><ele>164.0</ele><time>2026-04-05T07:38:56.59Z</time></trkpt><trkpt lat="43.9488269" lon="12.3645252"><ele>161.0</ele><time>2026-04-05T07:38:57.59Z</time></trkpt><trkpt lat="43.9487135" lon="12.3642321"><ele>161.0</ele><time>2026-04-05T07:38:58.59Z</time></trkpt><trkpt lat="43.9486029" lon="12.3639237"><ele>161.0</ele><time>2026-04-05T07:38:59.59Z</time></trkpt><trkpt lat="43.948489" lon="12.363617"><ele>164.0</ele><time>2026-04-05T07:39:00.59Z</time></trkpt><trkpt lat="43.948375" lon="12.3633181"><ele>167.0</ele><time>2026-04-05T07:39:01.59Z</time></trkpt><trkpt lat="43.9482569" lon="12.363034"><ele>165.0</ele><time>2026-04-05T07:39:02.59Z</time></trkpt><trkpt lat="43.9481166" lon="12.3627708"><ele>163.0</ele><time>2026-04-05T07:39:03.59Z</time></trkpt><trkpt lat="43.9479578" lon="12.3625299"><ele>163.0</ele><time>2026-04-05T07:39:04.589Z</time></trkpt><trkpt lat="43.9477859" lon="12.3623079"><ele>163.0</ele><time>2026-04-05T07:39:05.59Z</time></trkpt><trkpt lat="43.947606" lon="12.3620944"><ele>163.0</ele><time>2026-04-05T07:39:06.589Z</time></trkpt><trkpt lat="43.9474241" lon="12.3618851"><ele>163.0</ele><time>2026-04-05T07:39:07.59Z</time></trkpt><trkpt lat="43.9472312" lon="12.3616836"><ele>163.0</ele><time>2026-04-05T07:39:08.589Z</time></trkpt><trkpt lat="43.9470325" lon="12.3614837"><ele>163.0</ele><time>2026-04-05T07:39:09.59Z</time></trkpt><trkpt lat="43.9468234" lon="12.3612951"><ele>162.0</ele><time>2026-04-05T07:39:10.589Z</time></trkpt><trkpt lat="43.9466091" lon="12.3611115"><ele>161.0</ele><time>2026-04-05T07:39:11.589Z</time></trkpt><trkpt lat="43.9463919" lon="12.3609411"><ele>161.0</ele><time>2026-04-05T07:39:12.59Z</time></trkpt><trkpt lat="43.9461829" lon="12.3607864"><ele>161.0</ele><time>2026-04-05T07:39:13.589Z</time></trkpt><trkpt lat="43.9459754" lon="12.360629"><ele>160.5</ele><time>2026-04-05T07:39:14.59Z</time></trkpt><trkpt lat="43.9457743" lon="12.3604678"><ele>160.0</ele><time>2026-04-05T07:39:15.59Z</time></trkpt><trkpt lat="43.9455785" lon="12.3603007"><ele>160.0</ele><time>2026-04-05T07:39:16.59Z</time></trkpt><trkpt lat="43.9453985" lon="12.360106"><ele>160.0</ele><time>2026-04-05T07:39:17.59Z</time></trkpt><trkpt lat="43.9452305" lon="12.3598765"><ele>160.0</ele><time>2026-04-05T07:39:18.59Z</time></trkpt><trkpt lat="43.9450721" lon="12.3596215"><ele>160.0</ele><time>2026-04-05T07:39:19.589Z</time></trkpt><trkpt lat="43.9449102" lon="12.3593582"><ele>160.0</ele><time>2026-04-05T07:39:20.59Z</time></trkpt><trkpt lat="43.9447508" lon="12.3590994"><ele>160.0</ele><time>2026-04-05T07:39:21.59Z</time></trkpt><trkpt lat="43.9445978" lon="12.3588469"><ele>159.0</ele><time>2026-04-05T07:39:22.59Z</time></trkpt><trkpt lat="43.9444445" lon="12.3586037"><ele>158.0</ele><time>2026-04-05T07:39:23.589Z</time></trkpt><trkpt lat="43.9442914" lon="12.3583554"><ele>159.0</ele><time>2026-04-05T07:39:24.59Z</time></trkpt><trkpt lat="43.9441445" lon="12.3581013"><ele>160.0</ele><time>2026-04-05T07:39:25.589Z</time></trkpt><trkpt lat="43.9439932" lon="12.35785"><ele>160.0</ele><time>2026-04-05T07:39:26.59Z</time></trkpt><trkpt lat="43.9438426" lon="12.3575945"><ele>160.0</ele><time>2026-04-05T07:39:27.59Z</time></trkpt><trkpt lat="43.9436899" lon="12.3573419"><ele>160.5</ele><time>2026-04-05T07:39:28.59Z</time></trkpt><trkpt lat="43.943531" lon="12.3570905"><ele>161.0</ele><time>2026-04-05T07:39:29.59Z</time></trkpt><trkpt lat="43.9433637" lon="12.3568446"><ele>161.5</ele><time>2026-04-05T07:39:30.59Z</time></trkpt><trkpt lat="43.9431769" lon="12.3566121"><ele>162.0</ele><time>2026-04-05T07:39:31.59Z</time></trkpt><trkpt lat="43.9429692" lon="12.356395"><ele>161.5</ele><time>2026-04-05T07:39:32.589Z</time></trkpt><trkpt lat="43.9427502" lon="12.3561848"><ele>161.0</ele><time>2026-04-05T07:39:33.59Z</time></trkpt><trkpt lat="43.9425251" lon="12.3559824"><ele>160.5</ele><time>2026-04-05T07:39:34.59Z</time></trkpt><trkpt lat="43.9422945" lon="12.3557859"><ele>160.0</ele><time>2026-04-05T07:39:35.589Z</time></trkpt><trkpt lat="43.9420669" lon="12.355592"><ele>160.5</ele><time>2026-04-05T07:39:36.59Z</time></trkpt><trkpt lat="43.9418376" lon="12.3553985"><ele>161.0</ele><time>2026-04-05T07:39:37.589Z</time></trkpt><trkpt lat="43.9416118" lon="12.3551953"><ele>162.0</ele><time>2026-04-05T07:39:38.59Z</time></trkpt><trkpt lat="43.941383" lon="12.3549827"><ele>163.0</ele><time>2026-04-05T07:39:39.59Z</time></trkpt><trkpt lat="43.9411536" lon="12.3547626"><ele>163.0</ele><time>2026-04-05T07:39:40.589Z</time></trkpt><trkpt lat="43.9409278" lon="12.3545388"><ele>163.0</ele><time>2026-04-05T07:39:41.59Z</time></trkpt><trkpt lat="43.9407103" lon="12.3543294"><ele>163.0</ele><time>2026-04-05T07:39:42.589Z</time></trkpt><trkpt lat="43.9405041" lon="12.3541373"><ele>163.0</ele><time>2026-04-05T07:39:43.59Z</time></trkpt><trkpt lat="43.9403071" lon="12.3539636"><ele>162.66666666666669</ele><time>2026-04-05T07:39:44.589Z</time></trkpt><trkpt lat="43.9401193" lon="12.3537919"><ele>162.33333333333334</ele><time>2026-04-05T07:39:45.59Z</time></trkpt><trkpt lat="43.9399397" lon="12.3536227"><ele>162.0</ele><time>2026-04-05T07:39:46.59Z</time></trkpt><trkpt lat="43.9397588" lon="12.3534493"><ele>162.5</ele><time>2026-04-05T07:39:47.59Z</time></trkpt><trkpt lat="43.9395706" lon="12.3532438"><ele>163.0</ele><time>2026-04-05T07:39:48.59Z</time></trkpt><trkpt lat="43.9393744" lon="12.3530073"><ele>167.0</ele><time>2026-04-05T07:39:49.59Z</time></trkpt><trkpt lat="43.9391808" lon="12.3527469"><ele>171.0</ele><time>2026-04-05T07:39:50.589Z</time></trkpt><trkpt lat="43.9390022" lon="12.3524961"><ele>171.0</ele><time>2026-04-05T07:39:51.589Z</time></trkpt><trkpt lat="43.9388461" lon="12.3522552"><ele>171.0</ele><time>2026-04-05T07:39:52.59Z</time></trkpt><trkpt lat="43.938701" lon="12.3520327"><ele>171.0</ele><time>2026-04-05T07:39:53.59Z</time></trkpt><trkpt lat="43.9385652" lon="12.3518296"><ele>169.66666666666666</ele><time>2026-04-05T07:39:54.59Z</time></trkpt><trkpt lat="43.9384401" lon="12.3516474"><ele>168.33333333333331</ele><time>2026-04-05T07:39:55.589Z</time></trkpt><trkpt lat="43.9383352" lon="12.3514628"><ele>167.0</ele><time>2026-04-05T07:39:56.589Z</time></trkpt><trkpt lat="43.9382492" lon="12.3512548"><ele>170.0</ele><time>2026-04-05T07:39:57.589Z</time></trkpt><trkpt lat="43.9381894" lon="12.3510226"><ele>173.0</ele><time>2026-04-05T07:39:58.59Z</time></trkpt><trkpt lat="43.938173" lon="12.3507596"><ele>176.0</ele><time>2026-04-05T07:39:59.59Z</time></trkpt><trkpt lat="43.9381923" lon="12.350469"><ele>177.5</ele><time>2026-04-05T07:40:00.589Z</time></trkpt><trkpt lat="43.9382322" lon="12.3501468"><ele>179.0</ele><time>2026-04-05T07:40:01.59Z</time></trkpt><trkpt lat="43.9382698" lon="12.3498248"><ele>180.33333333333331</ele><time>2026-04-05T07:40:02.589Z</time></trkpt><trkpt lat="43.9383001" lon="12.349533"><ele>181.66666666666666</ele><time>2026-04-05T07:40:03.589Z</time></trkpt><trkpt lat="43.9383303" lon="12.3492589"><ele>183.0</ele><time>2026-04-05T07:40:04.589Z</time></trkpt><trkpt lat="43.9383424" lon="12.3489944"><ele>182.66666666666666</ele><time>2026-04-05T07:40:05.59Z</time></trkpt><trkpt lat="43.9383253" lon="12.3487301"><ele>182.33333333333331</ele><time>2026-04-05T07:40:06.59Z</time></trkpt><trkpt lat="43.9382646" lon="12.3484719"><ele>182.0</ele><time>2026-04-05T07:40:07.589Z</time></trkpt><trkpt lat="43.938172" lon="12.3482324"><ele>179.33333333333331</ele><time>2026-04-05T07:40:08.59Z</time></trkpt><trkpt lat="43.9380418" lon="12.3480102"><ele>176.66666666666666</ele><time>2026-04-05T07:40:09.59Z</time></trkpt><trkpt lat="43.9378714" lon="12.3478111"><ele>174.0</ele><time>2026-04-05T07:40:10.59Z</time></trkpt><trkpt lat="43.9376753" lon="12.3476259"><ele>179.0</ele><time>2026-04-05T07:40:11.589Z</time></trkpt><trkpt lat="43.9374685" lon="12.3474355"><ele>184.0</ele><time>2026-04-05T07:40:12.59Z</time></trkpt><trkpt lat="43.9372617" lon="12.3472488"><ele>179.0</ele><time>2026-04-05T07:40:13.589Z</time></trkpt><trkpt lat="43.9370606" lon="12.3470737"><ele>174.0</ele><time>2026-04-05T07:40:14.59Z</time></trkpt><trkpt lat="43.936853" lon="12.3469233"><ele>178.5</ele><time>2026-04-05T07:40:15.59Z</time></trkpt><trkpt lat="43.9366308" lon="12.3468022"><ele>183.0</ele><time>2026-04-05T07:40:16.59Z</time></trkpt><trkpt lat="43.9363999" lon="12.3466965"><ele>183.0</ele><time>2026-04-05T07:40:17.589Z</time></trkpt><trkpt lat="43.9361748" lon="12.3466022"><ele>183.0</ele><time>2026-04-05T07:40:18.59Z</time></trkpt><trkpt lat="43.9359663" lon="12.3465046"><ele>180.5</ele><time>2026-04-05T07:40:19.59Z</time></trkpt><trkpt lat="43.9357742" lon="12.346393"><ele>178.0</ele><time>2026-04-05T07:40:20.589Z</time></trkpt><trkpt lat="43.9354978" lon="12.3463257"><ele>178.0</ele><time>2026-04-05T07:40:21.677Z</time></trkpt><trkpt lat="43.9354308" lon="12.3462126"><ele>178.0</ele><time>2026-04-05T07:40:22.617Z</time></trkpt><trkpt lat="43.9353094" lon="12.3460761"><ele>178.0</ele><time>2026-04-05T07:40:24.088Z</time></trkpt><trkpt lat="43.9351461" lon="12.3458988"><ele>180.0</ele><time>2026-04-05T07:40:25.088Z</time></trkpt><trkpt lat="43.9349565" lon="12.3455794"><ele>182.0</ele><time>2026-04-05T07:40:26.588Z</time></trkpt><trkpt lat="43.9348532" lon="12.3453639"><ele>182.0</ele><time>2026-04-05T07:40:27.587Z</time></trkpt><trkpt lat="43.9347572" lon="12.3451611"><ele>182.0</ele><time>2026-04-05T07:40:28.588Z</time></trkpt><trkpt lat="43.9346713" lon="12.3449699"><ele>182.0</ele><time>2026-04-05T07:40:29.588Z</time></trkpt><trkpt lat="43.9345985" lon="12.344778"><ele>181.0</ele><time>2026-04-05T07:40:30.587Z</time></trkpt><trkpt lat="43.9345415" lon="12.3445724"><ele>180.0</ele><time>2026-04-05T07:40:31.588Z</time></trkpt><trkpt lat="43.9345117" lon="12.3443561"><ele>179.0</ele><time>2026-04-05T07:40:32.588Z</time></trkpt><trkpt lat="43.9345208" lon="12.3441321"><ele>179.0</ele><time>2026-04-05T07:40:33.588Z</time></trkpt><trkpt lat="43.9345534" lon="12.3439063"><ele>179.0</ele><time>2026-04-05T07:40:34.588Z</time></trkpt><trkpt lat="43.9345963" lon="12.3436851"><ele>179.0</ele><time>2026-04-05T07:40:35.588Z</time></trkpt><trkpt lat="43.9346549" lon="12.3434867"><ele>179.0</ele><time>2026-04-05T07:40:36.588Z</time></trkpt><trkpt lat="43.9347332" lon="12.3433276"><ele>179.0</ele><time>2026-04-05T07:40:37.587Z</time></trkpt><trkpt lat="43.9348544" lon="12.3432078"><ele>179.0</ele><time>2026-04-05T07:40:38.588Z</time></trkpt><trkpt lat="43.9350127" lon="12.3431087"><ele>180.0</ele><time>2026-04-05T07:40:39.588Z</time></trkpt><trkpt lat="43.9351803" lon="12.3430185"><ele>181.0</ele><time>2026-04-05T07:40:40.587Z</time></trkpt><trkpt lat="43.9353346" lon="12.3429306"><ele>182.0</ele><time>2026-04-05T07:40:41.588Z</time></trkpt><trkpt lat="43.9354751" lon="12.3428414"><ele>182.0</ele><time>2026-04-05T07:40:42.588Z</time></trkpt><trkpt lat="43.9356128" lon="12.3427606"><ele>182.0</ele><time>2026-04-05T07:40:43.587Z</time></trkpt><trkpt lat="43.9357604" lon="12.3426612"><ele>182.0</ele><time>2026-04-05T07:40:44.588Z</time></trkpt><trkpt lat="43.9358977" lon="12.3425415"><ele>186.0</ele><time>2026-04-05T07:40:45.588Z</time></trkpt><trkpt lat="43.9360237" lon="12.3423972"><ele>190.0</ele><time>2026-04-05T07:40:46.587Z</time></trkpt><trkpt lat="43.9361199" lon="12.3422198"><ele>194.0</ele><time>2026-04-05T07:40:47.588Z</time></trkpt><trkpt lat="43.9361821" lon="12.3420009"><ele>194.0</ele><time>2026-04-05T07:40:48.587Z</time></trkpt><trkpt lat="43.9362095" lon="12.3417583"><ele>194.0</ele><time>2026-04-05T07:40:49.587Z</time></trkpt><trkpt lat="43.9362007" lon="12.3415102"><ele>194.0</ele><time>2026-04-05T07:40:50.588Z</time></trkpt><trkpt lat="43.9361533" lon="12.3412495"><ele>194.66666666666669</ele><time>2026-04-05T07:40:51.588Z</time></trkpt><trkpt lat="43.936085" lon="12.3409815"><ele>195.33333333333331</ele><time>2026-04-05T07:40:52.588Z</time></trkpt><trkpt lat="43.936014" lon="12.340698"><ele>196.0</ele><time>2026-04-05T07:40:53.588Z</time></trkpt><trkpt lat="43.9359474" lon="12.3404236"><ele>193.33333333333331</ele><time>2026-04-05T07:40:54.587Z</time></trkpt><trkpt lat="43.9358897" lon="12.3401586"><ele>190.66666666666666</ele><time>2026-04-05T07:40:55.588Z</time></trkpt><trkpt lat="43.9358394" lon="12.3399114"><ele>188.0</ele><time>2026-04-05T07:40:56.588Z</time></trkpt><trkpt lat="43.9357941" lon="12.3396672"><ele>187.33333333333331</ele><time>2026-04-05T07:40:57.588Z</time></trkpt><trkpt lat="43.9357689" lon="12.3394101"><ele>186.66666666666666</ele><time>2026-04-05T07:40:58.587Z</time></trkpt><trkpt lat="43.935761" lon="12.3391449"><ele>186.0</ele><time>2026-04-05T07:40:59.588Z</time></trkpt><trkpt lat="43.9357749" lon="12.3388609"><ele>185.66666666666666</ele><time>2026-04-05T07:41:00.588Z</time></trkpt><trkpt lat="43.9357977" lon="12.3385725"><ele>185.33333333333331</ele><time>2026-04-05T07:41:01.587Z</time></trkpt><trkpt lat="43.9358142" lon="12.3382889"><ele>185.0</ele><time>2026-04-05T07:41:02.587Z</time></trkpt><trkpt lat="43.9358082" lon="12.3380057"><ele>186.33333333333331</ele><time>2026-04-05T07:41:03.588Z</time></trkpt><trkpt lat="43.9357709" lon="12.3377195"><ele>187.66666666666666</ele><time>2026-04-05T07:41:04.587Z</time></trkpt><trkpt lat="43.9356948" lon="12.337433"><ele>189.0</ele><time>2026-04-05T07:41:05.588Z</time></trkpt><trkpt lat="43.9355743" lon="12.3371608"><ele>192.5</ele><time>2026-04-05T07:41:06.588Z</time></trkpt><trkpt lat="43.9354185" lon="12.3368979"><ele>196.0</ele><time>2026-04-05T07:41:07.588Z</time></trkpt><trkpt lat="43.9352403" lon="12.3366385"><ele>191.0</ele><time>2026-04-05T07:41:08.587Z</time></trkpt><trkpt lat="43.9350471" lon="12.3363703"><ele>186.0</ele><time>2026-04-05T07:41:09.588Z</time></trkpt><trkpt lat="43.9348415" lon="12.336085"><ele>186.0</ele><time>2026-04-05T07:41:10.587Z</time></trkpt><trkpt lat="43.9346334" lon="12.3357923"><ele>186.0</ele><time>2026-04-05T07:41:11.588Z</time></trkpt><trkpt lat="43.9344263" lon="12.3354951"><ele>186.5</ele><time>2026-04-05T07:41:12.588Z</time></trkpt><trkpt lat="43.9342325" lon="12.3352107"><ele>187.0</ele><time>2026-04-05T07:41:13.588Z</time></trkpt><trkpt lat="43.9340462" lon="12.3349366"><ele>184.5</ele><time>2026-04-05T07:41:14.588Z</time></trkpt><trkpt lat="43.9338675" lon="12.3346725"><ele>182.0</ele><time>2026-04-05T07:41:15.588Z</time></trkpt><trkpt lat="43.9336996" lon="12.334414"><ele>182.0</ele><time>2026-04-05T07:41:16.588Z</time></trkpt><trkpt lat="43.9335347" lon="12.3341618"><ele>182.0</ele><time>2026-04-05T07:41:17.588Z</time></trkpt><trkpt lat="43.9333681" lon="12.3339181"><ele>184.0</ele><time>2026-04-05T07:41:18.587Z</time></trkpt><trkpt lat="43.9331989" lon="12.3336775"><ele>186.0</ele><time>2026-04-05T07:41:19.588Z</time></trkpt><trkpt lat="43.9330289" lon="12.3334328"><ele>186.0</ele><time>2026-04-05T07:41:20.588Z</time></trkpt><trkpt lat="43.9328576" lon="12.3331914"><ele>186.0</ele><time>2026-04-05T07:41:21.588Z</time></trkpt><trkpt lat="43.9326898" lon="12.3329705"><ele>185.0</ele><time>2026-04-05T07:41:22.588Z</time></trkpt><trkpt lat="43.93253" lon="12.3327645"><ele>184.0</ele><time>2026-04-05T07:41:23.587Z</time></trkpt><trkpt lat="43.9323765" lon="12.332559"><ele>183.0</ele><time>2026-04-05T07:41:24.588Z</time></trkpt><trkpt lat="43.9322297" lon="12.3323508"><ele>183.0</ele><time>2026-04-05T07:41:25.588Z</time></trkpt><trkpt lat="43.93209" lon="12.3321472"><ele>183.0</ele><time>2026-04-05T07:41:26.588Z</time></trkpt><trkpt lat="43.931961" lon="12.331948"><ele>183.0</ele><time>2026-04-05T07:41:27.587Z</time></trkpt><trkpt lat="43.9318495" lon="12.331729"><ele>183.0</ele><time>2026-04-05T07:41:28.588Z</time></trkpt><trkpt lat="43.9317572" lon="12.3314692"><ele>183.0</ele><time>2026-04-05T07:41:29.588Z</time></trkpt><trkpt lat="43.9316879" lon="12.331175"><ele>183.0</ele><time>2026-04-05T07:41:30.588Z</time></trkpt><trkpt lat="43.9316313" lon="12.3308551"><ele>187.5</ele><time>2026-04-05T07:41:31.587Z</time></trkpt><trkpt lat="43.9315796" lon="12.3305136"><ele>192.0</ele><time>2026-04-05T07:41:32.588Z</time></trkpt><trkpt lat="43.9315236" lon="12.3301562"><ele>192.0</ele><time>2026-04-05T07:41:33.588Z</time></trkpt><trkpt lat="43.9314633" lon="12.3297834"><ele>192.0</ele><time>2026-04-05T07:41:34.589Z</time></trkpt><trkpt lat="43.9314049" lon="12.3294084"><ele>193.0</ele><time>2026-04-05T07:41:35.589Z</time></trkpt><trkpt lat="43.9313467" lon="12.3290617"><ele>194.0</ele><time>2026-04-05T07:41:36.589Z</time></trkpt><trkpt lat="43.93129" lon="12.328745"><ele>194.33333333333334</ele><time>2026-04-05T07:41:37.588Z</time></trkpt><trkpt lat="43.9312367" lon="12.3284533"><ele>194.66666666666669</ele><time>2026-04-05T07:41:38.589Z</time></trkpt><trkpt lat="43.93118" lon="12.3281667"><ele>195.0</ele><time>2026-04-05T07:41:39.589Z</time></trkpt><trkpt lat="43.93113" lon="12.3278817"><ele>195.33333333333331</ele><time>2026-04-05T07:41:40.589Z</time></trkpt><trkpt lat="43.9310867" lon="12.327605"><ele>195.66666666666666</ele><time>2026-04-05T07:41:41.588Z</time></trkpt><trkpt lat="43.931045" lon="12.3273317"><ele>196.0</ele><time>2026-04-05T07:41:42.589Z</time></trkpt><trkpt lat="43.9309983" lon="12.3270717"><ele>196.0</ele><time>2026-04-05T07:41:43.589Z</time></trkpt><trkpt lat="43.930945" lon="12.3268317"><ele>196.0</ele><time>2026-04-05T07:41:44.589Z</time></trkpt><trkpt lat="43.9308783" lon="12.326605"><ele>196.0</ele><time>2026-04-05T07:41:45.589Z</time></trkpt><trkpt lat="43.9307917" lon="12.3263833"><ele>197.0</ele><time>2026-04-05T07:41:46.589Z</time></trkpt><trkpt lat="43.9306933" lon="12.3261517"><ele>198.0</ele><time>2026-04-05T07:41:47.588Z</time></trkpt><trkpt lat="43.9305683" lon="12.3259167"><ele>199.0</ele><time>2026-04-05T07:41:48.589Z</time></trkpt><trkpt lat="43.9304367" lon="12.3256783"><ele>198.66666666666666</ele><time>2026-04-05T07:41:49.589Z</time></trkpt><trkpt lat="43.9303117" lon="12.32544"><ele>198.33333333333331</ele><time>2026-04-05T07:41:50.589Z</time></trkpt><trkpt lat="43.93019" lon="12.32521"><ele>198.0</ele><time>2026-04-05T07:41:51.589Z</time></trkpt><trkpt lat="43.9300517" lon="12.3249917"><ele>198.0</ele><time>2026-04-05T07:41:52.589Z</time></trkpt><trkpt lat="43.9299067" lon="12.324775"><ele>198.0</ele><time>2026-04-05T07:41:53.588Z</time></trkpt><trkpt lat="43.9297533" lon="12.3245717"><ele>198.0</ele><time>2026-04-05T07:41:54.589Z</time></trkpt><trkpt lat="43.9296033" lon="12.3243817"><ele>199.0</ele><time>2026-04-05T07:41:55.589Z</time></trkpt><trkpt lat="43.9294533" lon="12.3242"><ele>200.0</ele><time>2026-04-05T07:41:56.589Z</time></trkpt><trkpt lat="43.9293117" lon="12.3240317"><ele>201.0</ele><time>2026-04-05T07:41:57.589Z</time></trkpt><trkpt lat="43.9291833" lon="12.3238767"><ele>201.5</ele><time>2026-04-05T07:41:58.588Z</time></trkpt><trkpt lat="43.92906" lon="12.3237417"><ele>202.0</ele><time>2026-04-05T07:41:59.589Z</time></trkpt><trkpt lat="43.9289517" lon="12.323615"><ele>202.5</ele><time>2026-04-05T07:42:00.589Z</time></trkpt><trkpt lat="43.928865" lon="12.3235"><ele>203.0</ele><time>2026-04-05T07:42:01.589Z</time></trkpt><trkpt lat="43.928795" lon="12.323395"><ele>203.0</ele><time>2026-04-05T07:42:02.588Z</time></trkpt><trkpt lat="43.92874" lon="12.3232683"><ele>203.0</ele><time>2026-04-05T07:42:03.589Z</time></trkpt><trkpt lat="43.9286733" lon="12.3231517"><ele>203.0</ele><time>2026-04-05T07:42:04.588Z</time></trkpt><trkpt lat="43.9285883" lon="12.3230517"><ele>203.0</ele><time>2026-04-05T07:42:05.588Z</time></trkpt><trkpt lat="43.928485" lon="12.322975"><ele>203.0</ele><time>2026-04-05T07:42:06.589Z</time></trkpt><trkpt lat="43.9283617" lon="12.3228867"><ele>202.66666666666669</ele><time>2026-04-05T07:42:07.589Z</time></trkpt><trkpt lat="43.9282383" lon="12.32276"><ele>202.33333333333331</ele><time>2026-04-05T07:42:08.589Z</time></trkpt><trkpt lat="43.92811" lon="12.322605"><ele>202.0</ele><time>2026-04-05T07:42:09.588Z</time></trkpt><trkpt lat="43.92799" lon="12.3224517"><ele>202.0</ele><time>2026-04-05T07:42:10.589Z</time></trkpt><trkpt lat="43.92788" lon="12.3223064"><ele>202.0</ele><time>2026-04-05T07:42:11.589Z</time></trkpt><trkpt lat="43.9277786" lon="12.3221684"><ele>202.0</ele><time>2026-04-05T07:42:12.589Z</time></trkpt><trkpt lat="43.9276693" lon="12.3220199"><ele>202.0</ele><time>2026-04-05T07:42:13.589Z</time></trkpt><trkpt lat="43.9275642" lon="12.3218781"><ele>203.0</ele><time>2026-04-05T07:42:14.589Z</time></trkpt><trkpt lat="43.9274619" lon="12.321742"><ele>204.0</ele><time>2026-04-05T07:42:15.589Z</time></trkpt><trkpt lat="43.927367" lon="12.3216021"><ele>205.0</ele><time>2026-04-05T07:42:16.588Z</time></trkpt><trkpt lat="43.927279" lon="12.3214567"><ele>206.0</ele><time>2026-04-05T07:42:17.589Z</time></trkpt><trkpt lat="43.9271934" lon="12.3213133"><ele>206.5</ele><time>2026-04-05T07:42:18.588Z</time></trkpt><trkpt lat="43.9271138" lon="12.3211659"><ele>207.0</ele><time>2026-04-05T07:42:19.588Z</time></trkpt><trkpt lat="43.9270306" lon="12.3210175"><ele>207.5</ele><time>2026-04-05T07:42:20.588Z</time></trkpt><trkpt lat="43.9269482" lon="12.3208655"><ele>208.0</ele><time>2026-04-05T07:42:21.589Z</time></trkpt><trkpt lat="43.9268638" lon="12.3207213"><ele>208.0</ele><time>2026-04-05T07:42:22.588Z</time></trkpt><trkpt lat="43.9267902" lon="12.320587"><ele>208.0</ele><time>2026-04-05T07:42:23.589Z</time></trkpt><trkpt lat="43.9267172" lon="12.3204601"><ele>208.0</ele><time>2026-04-05T07:42:24.589Z</time></trkpt><trkpt lat="43.926649" lon="12.320339"><ele>208.0</ele><time>2026-04-05T07:42:25.588Z</time></trkpt><trkpt lat="43.9265785" lon="12.3202231"><ele>208.75</ele><time>2026-04-05T07:42:26.589Z</time></trkpt><trkpt lat="43.9265054" lon="12.3201029"><ele>209.5</ele><time>2026-04-05T07:42:27.588Z</time></trkpt><trkpt lat="43.9264281" lon="12.3199709"><ele>210.25</ele><time>2026-04-05T07:42:28.589Z</time></trkpt><trkpt lat="43.9263479" lon="12.3198282"><ele>211.0</ele><time>2026-04-05T07:42:29.589Z</time></trkpt><trkpt lat="43.9262609" lon="12.3196803"><ele>212.25</ele><time>2026-04-05T07:42:30.589Z</time></trkpt><trkpt lat="43.9261755" lon="12.3195234"><ele>213.5</ele><time>2026-04-05T07:42:31.589Z</time></trkpt><trkpt lat="43.92609" lon="12.3193672"><ele>214.75</ele><time>2026-04-05T07:42:32.588Z</time></trkpt><trkpt lat="43.926002" lon="12.3192132"><ele>216.0</ele><time>2026-04-05T07:42:33.589Z</time></trkpt><trkpt lat="43.9259156" lon="12.3190499"><ele>214.66666666666669</ele><time>2026-04-05T07:42:34.589Z</time></trkpt><trkpt lat="43.9258208" lon="12.318881"><ele>213.33333333333334</ele><time>2026-04-05T07:42:35.589Z</time></trkpt><trkpt lat="43.9257221" lon="12.3187088"><ele>212.0</ele><time>2026-04-05T07:42:36.588Z</time></trkpt><trkpt lat="43.9256194" lon="12.3185459"><ele>212.0</ele><time>2026-04-05T07:42:37.588Z</time></trkpt><trkpt lat="43.9255214" lon="12.3183826"><ele>212.0</ele><time>2026-04-05T07:42:38.589Z</time></trkpt><trkpt lat="43.9254065" lon="12.3182432"><ele>212.0</ele><time>2026-04-05T07:42:39.588Z</time></trkpt><trkpt lat="43.9252645" lon="12.3181404"><ele>212.33333333333334</ele><time>2026-04-05T07:42:40.589Z</time></trkpt><trkpt lat="43.9251086" lon="12.3180579"><ele>212.66666666666669</ele><time>2026-04-05T07:42:41.588Z</time></trkpt><trkpt lat="43.9249503" lon="12.3179921"><ele>213.0</ele><time>2026-04-05T07:42:42.589Z</time></trkpt><trkpt lat="43.9248072" lon="12.3179243"><ele>213.5</ele><time>2026-04-05T07:42:43.589Z</time></trkpt><trkpt lat="43.9246814" lon="12.3178555"><ele>214.0</ele><time>2026-04-05T07:42:44.589Z</time></trkpt><trkpt lat="43.9245659" lon="12.317785"><ele>214.5</ele><time>2026-04-05T07:42:45.589Z</time></trkpt><trkpt lat="43.9244517" lon="12.3177047"><ele>215.0</ele><time>2026-04-05T07:42:46.588Z</time></trkpt><trkpt lat="43.9243406" lon="12.3176118"><ele>215.0</ele><time>2026-04-05T07:42:47.589Z</time></trkpt><trkpt lat="43.9242353" lon="12.3174991"><ele>215.0</ele><time>2026-04-05T07:42:48.589Z</time></trkpt><trkpt lat="43.92413" lon="12.3173741"><ele>215.0</ele><time>2026-04-05T07:42:49.588Z</time></trkpt><trkpt lat="43.9240283" lon="12.3172438"><ele>215.0</ele><time>2026-04-05T07:42:50.589Z</time></trkpt><trkpt lat="43.9239284" lon="12.3171102"><ele>214.5</ele><time>2026-04-05T07:42:51.589Z</time></trkpt><trkpt lat="43.9238296" lon="12.3169714"><ele>214.0</ele><time>2026-04-05T07:42:52.589Z</time></trkpt><trkpt lat="43.9237288" lon="12.3168286"><ele>213.5</ele><time>2026-04-05T07:42:53.588Z</time></trkpt><trkpt lat="43.9236288" lon="12.3166972"><ele>213.0</ele><time>2026-04-05T07:42:54.589Z</time></trkpt><trkpt lat="43.9235376" lon="12.3165739"><ele>213.0</ele><time>2026-04-05T07:42:55.589Z</time></trkpt><trkpt lat="43.9234507" lon="12.3164527"><ele>213.0</ele><time>2026-04-05T07:42:56.589Z</time></trkpt><trkpt lat="43.9233623" lon="12.3163331"><ele>213.0</ele><time>2026-04-05T07:42:57.589Z</time></trkpt><trkpt lat="43.9232796" lon="12.3162037"><ele>213.0</ele><time>2026-04-05T07:42:58.588Z</time></trkpt><trkpt lat="43.9232028" lon="12.3160582"><ele>214.0</ele><time>2026-04-05T07:42:59.589Z</time></trkpt><trkpt lat="43.923141" lon="12.3158965"><ele>215.0</ele><time>2026-04-05T07:43:00.589Z</time></trkpt><trkpt lat="43.9230927" lon="12.3157254"><ele>216.0</ele><time>2026-04-05T07:43:01.589Z</time></trkpt><trkpt lat="43.9230482" lon="12.3155419"><ele>217.0</ele><time>2026-04-05T07:43:02.588Z</time></trkpt><trkpt lat="43.9229966" lon="12.3153531"><ele>217.0</ele><time>2026-04-05T07:43:03.588Z</time></trkpt><trkpt lat="43.922946" lon="12.3151645"><ele>217.0</ele><time>2026-04-05T07:43:04.589Z</time></trkpt><trkpt lat="43.9228756" lon="12.3149973"><ele>217.0</ele><time>2026-04-05T07:43:05.589Z</time></trkpt><trkpt lat="43.922794" lon="12.3148438"><ele>217.0</ele><time>2026-04-05T07:43:06.589Z</time></trkpt><trkpt lat="43.9227077" lon="12.3146846"><ele>217.66666666666666</ele><time>2026-04-05T07:43:07.589Z</time></trkpt><trkpt lat="43.9226064" lon="12.3145173"><ele>218.33333333333331</ele><time>2026-04-05T07:43:08.589Z</time></trkpt><trkpt lat="43.922499" lon="12.3143528"><ele>219.0</ele><time>2026-04-05T07:43:09.589Z</time></trkpt><trkpt lat="43.9223911" lon="12.3141827"><ele>217.0</ele><time>2026-04-05T07:43:10.589Z</time></trkpt><trkpt lat="43.9222863" lon="12.3140148"><ele>215.0</ele><time>2026-04-05T07:43:11.589Z</time></trkpt><trkpt lat="43.9221895" lon="12.3138495"><ele>213.0</ele><time>2026-04-05T07:43:12.589Z</time></trkpt><trkpt lat="43.9220928" lon="12.3136917"><ele>213.0</ele><time>2026-04-05T07:43:13.588Z</time></trkpt><trkpt lat="43.9219939" lon="12.3135362"><ele>213.0</ele><time>2026-04-05T07:43:14.589Z</time></trkpt><trkpt lat="43.9218894" lon="12.3133774"><ele>213.0</ele><time>2026-04-05T07:43:15.588Z</time></trkpt><trkpt lat="43.9217771" lon="12.3132246"><ele>211.33333333333331</ele><time>2026-04-05T07:43:16.589Z</time></trkpt><trkpt lat="43.9216604" lon="12.3130822"><ele>209.66666666666666</ele><time>2026-04-05T07:43:17.588Z</time></trkpt><trkpt lat="43.9215304" lon="12.3129589"><ele>208.0</ele><time>2026-04-05T07:43:18.589Z</time></trkpt><trkpt lat="43.9214001" lon="12.3128327"><ele>208.0</ele><time>2026-04-05T07:43:19.589Z</time></trkpt><trkpt lat="43.9212741" lon="12.3127164"><ele>208.0</ele><time>2026-04-05T07:43:20.588Z</time></trkpt><trkpt lat="43.9211498" lon="12.3125987"><ele>208.0</ele><time>2026-04-05T07:43:21.588Z</time></trkpt><trkpt lat="43.9210306" lon="12.312486"><ele>208.0</ele><time>2026-04-05T07:43:22.589Z</time></trkpt><trkpt lat="43.9209127" lon="12.3123774"><ele>208.0</ele><time>2026-04-05T07:43:23.589Z</time></trkpt><trkpt lat="43.9207933" lon="12.3122686"><ele>208.0</ele><time>2026-04-05T07:43:24.588Z</time></trkpt><trkpt lat="43.9206672" lon="12.3121552"><ele>208.0</ele><time>2026-04-05T07:43:25.589Z</time></trkpt><trkpt lat="43.9205431" lon="12.3120372"><ele>208.0</ele><time>2026-04-05T07:43:26.589Z</time></trkpt><trkpt lat="43.9204278" lon="12.3119145"><ele>209.0</ele><time>2026-04-05T07:43:27.589Z</time></trkpt><trkpt lat="43.9203145" lon="12.3117999"><ele>210.0</ele><time>2026-04-05T07:43:28.588Z</time></trkpt><trkpt lat="43.920207" lon="12.3116931"><ele>211.0</ele><time>2026-04-05T07:43:29.589Z</time></trkpt><trkpt lat="43.9201092" lon="12.3115754"><ele>212.0</ele><time>2026-04-05T07:43:30.588Z</time></trkpt><trkpt lat="43.920024" lon="12.3114221"><ele>214.0</ele><time>2026-04-05T07:43:31.589Z</time></trkpt><trkpt lat="43.9199443" lon="12.3112424"><ele>216.0</ele><time>2026-04-05T07:43:32.588Z</time></trkpt><trkpt lat="43.9198694" lon="12.3110536"><ele>218.0</ele><time>2026-04-05T07:43:33.589Z</time></trkpt><trkpt lat="43.9197951" lon="12.3108662"><ele>218.0</ele><time>2026-04-05T07:43:34.589Z</time></trkpt><trkpt lat="43.9197175" lon="12.3106893"><ele>218.0</ele><time>2026-04-05T07:43:35.589Z</time></trkpt><trkpt lat="43.9196397" lon="12.3105183"><ele>218.0</ele><time>2026-04-05T07:43:36.588Z</time></trkpt><trkpt lat="43.9195479" lon="12.3103522"><ele>218.0</ele><time>2026-04-05T07:43:37.589Z</time></trkpt><trkpt lat="43.9194412" lon="12.3101902"><ele>219.0</ele><time>2026-04-05T07:43:38.589Z</time></trkpt><trkpt lat="43.9193228" lon="12.3100327"><ele>220.0</ele><time>2026-04-05T07:43:39.589Z</time></trkpt><trkpt lat="43.9192056" lon="12.3098706"><ele>221.0</ele><time>2026-04-05T07:43:40.589Z</time></trkpt><trkpt lat="43.9190891" lon="12.3097113"><ele>222.0</ele><time>2026-04-05T07:43:41.589Z</time></trkpt><trkpt lat="43.9189717" lon="12.3095477"><ele>223.0</ele><time>2026-04-05T07:43:42.589Z</time></trkpt><trkpt lat="43.9188462" lon="12.3093876"><ele>224.0</ele><time>2026-04-05T07:43:43.588Z</time></trkpt><trkpt lat="43.9187167" lon="12.3092056"><ele>224.0</ele><time>2026-04-05T07:43:44.589Z</time></trkpt><trkpt lat="43.9185851" lon="12.3090151"><ele>224.0</ele><time>2026-04-05T07:43:45.589Z</time></trkpt><trkpt lat="43.9184506" lon="12.3088167"><ele>224.0</ele><time>2026-04-05T07:43:46.589Z</time></trkpt><trkpt lat="43.9183126" lon="12.3086183"><ele>224.66666666666669</ele><time>2026-04-05T07:43:47.588Z</time></trkpt><trkpt lat="43.9181721" lon="12.3084246"><ele>225.33333333333331</ele><time>2026-04-05T07:43:48.589Z</time></trkpt><trkpt lat="43.9180293" lon="12.3082298"><ele>226.0</ele><time>2026-04-05T07:43:49.589Z</time></trkpt><trkpt lat="43.9178896" lon="12.308029"><ele>226.33333333333331</ele><time>2026-04-05T07:43:50.588Z</time></trkpt><trkpt lat="43.9177505" lon="12.3078328"><ele>226.66666666666669</ele><time>2026-04-05T07:43:51.588Z</time></trkpt><trkpt lat="43.9176152" lon="12.3076391"><ele>227.0</ele><time>2026-04-05T07:43:52.589Z</time></trkpt><trkpt lat="43.9174789" lon="12.3074427"><ele>227.0</ele><time>2026-04-05T07:43:53.589Z</time></trkpt><trkpt lat="43.9173404" lon="12.3072508"><ele>227.0</ele><time>2026-04-05T07:43:54.588Z</time></trkpt><trkpt lat="43.9172047" lon="12.3070617"><ele>227.0</ele><time>2026-04-05T07:43:55.589Z</time></trkpt><trkpt lat="43.9170696" lon="12.3068744"><ele>228.0</ele><time>2026-04-05T07:43:56.588Z</time></trkpt><trkpt lat="43.9169373" lon="12.3066916"><ele>229.0</ele><time>2026-04-05T07:43:57.588Z</time></trkpt><trkpt lat="43.9168085" lon="12.3065177"><ele>230.0</ele><time>2026-04-05T07:43:58.588Z</time></trkpt><trkpt lat="43.9166754" lon="12.3063589"><ele>231.33333333333334</ele><time>2026-04-05T07:43:59.589Z</time></trkpt><trkpt lat="43.9165192" lon="12.3062193"><ele>232.66666666666669</ele><time>2026-04-05T07:44:00.589Z</time></trkpt><trkpt lat="43.9163378" lon="12.3061139"><ele>234.0</ele><time>2026-04-05T07:44:01.589Z</time></trkpt><trkpt lat="43.9161453" lon="12.3060366"><ele>234.0</ele><time>2026-04-05T07:44:02.588Z</time></trkpt><trkpt lat="43.9159476" lon="12.3059751"><ele>234.0</ele><time>2026-04-05T07:44:03.588Z</time></trkpt><trkpt lat="43.9157548" lon="12.3059156"><ele>234.0</ele><time>2026-04-05T07:44:04.589Z</time></trkpt><trkpt lat="43.9155641" lon="12.3058436"><ele>233.33333333333331</ele><time>2026-04-05T07:44:05.589Z</time></trkpt><trkpt lat="43.9153761" lon="12.3057574"><ele>232.66666666666666</ele><time>2026-04-05T07:44:06.588Z</time></trkpt><trkpt lat="43.9151835" lon="12.3056586"><ele>232.0</ele><time>2026-04-05T07:44:07.588Z</time></trkpt><trkpt lat="43.9149847" lon="12.3055586"><ele>232.0</ele><time>2026-04-05T07:44:08.589Z</time></trkpt><trkpt lat="43.9147832" lon="12.3054586"><ele>232.0</ele><time>2026-04-05T07:44:09.589Z</time></trkpt><trkpt lat="43.914584" lon="12.3053594"><ele>232.0</ele><time>2026-04-05T07:44:10.589Z</time></trkpt><trkpt lat="43.9143897" lon="12.3052602"><ele>231.66666666666666</ele><time>2026-04-05T07:44:11.589Z</time></trkpt><trkpt lat="43.914199" lon="12.3051538"><ele>231.33333333333331</ele><time>2026-04-05T07:44:12.589Z</time></trkpt><trkpt lat="43.9140077" lon="12.3050493"><ele>231.0</ele><time>2026-04-05T07:44:13.589Z</time></trkpt><trkpt lat="43.9138226" lon="12.3049488"><ele>231.0</ele><time>2026-04-05T07:44:14.589Z</time></trkpt><trkpt lat="43.9136361" lon="12.3048547"><ele>231.0</ele><time>2026-04-05T07:44:15.589Z</time></trkpt><trkpt lat="43.9134591" lon="12.3047654"><ele>231.0</ele><time>2026-04-05T07:44:16.589Z</time></trkpt><trkpt lat="43.9132883" lon="12.3046844"><ele>230.0</ele><time>2026-04-05T07:44:17.589Z</time></trkpt><trkpt lat="43.9131279" lon="12.3045997"><ele>229.0</ele><time>2026-04-05T07:44:18.589Z</time></trkpt><trkpt lat="43.9129701" lon="12.304518"><ele>228.0</ele><time>2026-04-05T07:44:19.589Z</time></trkpt><trkpt lat="43.9128038" lon="12.3044405"><ele>228.0</ele><time>2026-04-05T07:44:20.589Z</time></trkpt><trkpt lat="43.9126315" lon="12.30437"><ele>228.0</ele><time>2026-04-05T07:44:21.588Z</time></trkpt><trkpt lat="43.9124492" lon="12.3042996"><ele>228.0</ele><time>2026-04-05T07:44:22.588Z</time></trkpt><trkpt lat="43.9122582" lon="12.3042348"><ele>229.0</ele><time>2026-04-05T07:44:23.589Z</time></trkpt><trkpt lat="43.9120603" lon="12.3041908"><ele>230.0</ele><time>2026-04-05T07:44:24.588Z</time></trkpt><trkpt lat="43.9118633" lon="12.3041634"><ele>231.0</ele><time>2026-04-05T07:44:25.589Z</time></trkpt><trkpt lat="43.9116829" lon="12.3041468"><ele>231.0</ele><time>2026-04-05T07:44:26.589Z</time></trkpt><trkpt lat="43.9115116" lon="12.3041308"><ele>231.0</ele><time>2026-04-05T07:44:27.589Z</time></trkpt><trkpt lat="43.9113447" lon="12.3041159"><ele>231.0</ele><time>2026-04-05T07:44:28.588Z</time></trkpt><trkpt lat="43.9111859" lon="12.3040931"><ele>231.0</ele><time>2026-04-05T07:44:29.589Z</time></trkpt><trkpt lat="43.9110409" lon="12.304053"><ele>231.0</ele><time>2026-04-05T07:44:30.588Z</time></trkpt><trkpt lat="43.9109049" lon="12.3039896"><ele>231.0</ele><time>2026-04-05T07:44:31.588Z</time></trkpt><trkpt lat="43.9107667" lon="12.3038905"><ele>231.0</ele><time>2026-04-05T07:44:32.589Z</time></trkpt><trkpt lat="43.9106222" lon="12.3037556"><ele>234.33333333333331</ele><time>2026-04-05T07:44:33.589Z</time></trkpt><trkpt lat="43.910481" lon="12.3035956"><ele>237.66666666666666</ele><time>2026-04-05T07:44:34.588Z</time></trkpt><trkpt lat="43.910355" lon="12.3034404"><ele>241.0</ele><time>2026-04-05T07:44:35.589Z</time></trkpt><trkpt lat="43.9102437" lon="12.3032954"><ele>241.0</ele><time>2026-04-05T07:44:36.588Z</time></trkpt><trkpt lat="43.9101487" lon="12.3031634"><ele>241.0</ele><time>2026-04-05T07:44:37.589Z</time></trkpt><trkpt lat="43.910074" lon="12.3030361"><ele>241.0</ele><time>2026-04-05T07:44:38.589Z</time></trkpt><trkpt lat="43.9100372" lon="12.3028961"><ele>241.0</ele><time>2026-04-05T07:44:39.589Z</time></trkpt><trkpt lat="43.9100437" lon="12.3027413"><ele>242.33333333333331</ele><time>2026-04-05T07:44:40.588Z</time></trkpt><trkpt lat="43.9100922" lon="12.3025748"><ele>243.66666666666669</ele><time>2026-04-05T07:44:41.589Z</time></trkpt><trkpt lat="43.9101736" lon="12.3023946"><ele>245.0</ele><time>2026-04-05T07:44:42.589Z</time></trkpt><trkpt lat="43.9102503" lon="12.3021799"><ele>246.33333333333334</ele><time>2026-04-05T07:44:43.589Z</time></trkpt><trkpt lat="43.9102976" lon="12.3019214"><ele>247.66666666666669</ele><time>2026-04-05T07:44:44.588Z</time></trkpt><trkpt lat="43.9103399" lon="12.3016388"><ele>249.0</ele><time>2026-04-05T07:44:45.589Z</time></trkpt><trkpt lat="43.910389" lon="12.3013353"><ele>249.0</ele><time>2026-04-05T07:44:46.589Z</time></trkpt><trkpt lat="43.9104494" lon="12.3010168"><ele>249.0</ele><time>2026-04-05T07:44:47.589Z</time></trkpt><trkpt lat="43.9105049" lon="12.3006929"><ele>248.0</ele><time>2026-04-05T07:44:48.589Z</time></trkpt><trkpt lat="43.9105413" lon="12.3003757"><ele>247.0</ele><time>2026-04-05T07:44:49.589Z</time></trkpt><trkpt lat="43.9105721" lon="12.3000803"><ele>246.0</ele><time>2026-04-05T07:44:50.589Z</time></trkpt><trkpt lat="43.9105918" lon="12.2997949"><ele>246.0</ele><time>2026-04-05T07:44:51.589Z</time></trkpt><trkpt lat="43.9105928" lon="12.2995115"><ele>246.0</ele><time>2026-04-05T07:44:52.589Z</time></trkpt><trkpt lat="43.9105819" lon="12.2992469"><ele>246.0</ele><time>2026-04-05T07:44:53.589Z</time></trkpt><trkpt lat="43.9105708" lon="12.2990066"><ele>247.0</ele><time>2026-04-05T07:44:54.589Z</time></trkpt><trkpt lat="43.9105533" lon="12.2985567"><ele>248.0</ele><time>2026-04-05T07:44:56.65Z</time></trkpt><trkpt lat="43.91036" lon="12.29847"><ele>248.0</ele><time>2026-04-05T07:44:57.65Z</time></trkpt><trkpt lat="43.9102033" lon="12.2982717"><ele>248.0</ele><time>2026-04-05T07:44:58.65Z</time></trkpt><trkpt lat="43.9100483" lon="12.29815"><ele>248.0</ele><time>2026-04-05T07:44:59.65Z</time></trkpt><trkpt lat="43.9098817" lon="12.2980483"><ele>247.0</ele><time>2026-04-05T07:45:00.65Z</time></trkpt><trkpt lat="43.9096117" lon="12.2978283"><ele>246.0</ele><time>2026-04-05T07:45:02.597Z</time></trkpt><trkpt lat="43.9094783" lon="12.2976567"><ele>246.0</ele><time>2026-04-05T07:45:03.591Z</time></trkpt><trkpt lat="43.9093717" lon="12.2974767"><ele>246.0</ele><time>2026-04-05T07:45:04.59Z</time></trkpt><trkpt lat="43.9092567" lon="12.2971917"><ele>246.0</ele><time>2026-04-05T07:45:06.089Z</time></trkpt><trkpt lat="43.9091617" lon="12.2969767"><ele>244.66666666666669</ele><time>2026-04-05T07:45:07.088Z</time></trkpt><trkpt lat="43.9090983" lon="12.2967733"><ele>243.33333333333334</ele><time>2026-04-05T07:45:08.088Z</time></trkpt><trkpt lat="43.909035" lon="12.2964667"><ele>242.0</ele><time>2026-04-05T07:45:09.588Z</time></trkpt><trkpt lat="43.9090117" lon="12.2963383"><ele>242.0</ele><time>2026-04-05T07:45:10.588Z</time></trkpt><trkpt lat="43.9089833" lon="12.2962267"><ele>242.0</ele><time>2026-04-05T07:45:11.588Z</time></trkpt><trkpt lat="43.9089433" lon="12.29611"><ele>242.0</ele><time>2026-04-05T07:45:12.588Z</time></trkpt><trkpt lat="43.9088933" lon="12.29598"><ele>242.0</ele><time>2026-04-05T07:45:13.589Z</time></trkpt><trkpt lat="43.9088367" lon="12.29583"><ele>242.0</ele><time>2026-04-05T07:45:14.589Z</time></trkpt><trkpt lat="43.9087733" lon="12.2956617"><ele>242.5</ele><time>2026-04-05T07:45:15.589Z</time></trkpt><trkpt lat="43.9087133" lon="12.295475"><ele>243.0</ele><time>2026-04-05T07:45:16.589Z</time></trkpt><trkpt lat="43.90865" lon="12.29529"><ele>243.5</ele><time>2026-04-05T07:45:17.589Z</time></trkpt><trkpt lat="43.908595" lon="12.29511"><ele>244.0</ele><time>2026-04-05T07:45:18.589Z</time></trkpt><trkpt lat="43.9085367" lon="12.29494"><ele>244.0</ele><time>2026-04-05T07:45:19.588Z</time></trkpt><trkpt lat="43.9084833" lon="12.2947717"><ele>244.0</ele><time>2026-04-05T07:45:20.588Z</time></trkpt><trkpt lat="43.9084317" lon="12.2946067"><ele>244.0</ele><time>2026-04-05T07:45:21.589Z</time></trkpt><trkpt lat="43.9083717" lon="12.294445"><ele>244.0</ele><time>2026-04-05T07:45:22.588Z</time></trkpt><trkpt lat="43.9082933" lon="12.2943017"><ele>242.75</ele><time>2026-04-05T07:45:23.588Z</time></trkpt><trkpt lat="43.9081883" lon="12.294185"><ele>241.5</ele><time>2026-04-05T07:45:24.589Z</time></trkpt><trkpt lat="43.9080617" lon="12.2940983"><ele>240.25</ele><time>2026-04-05T07:45:25.588Z</time></trkpt><trkpt lat="43.907905" lon="12.2940533"><ele>239.0</ele><time>2026-04-05T07:45:26.589Z</time></trkpt><trkpt lat="43.9077483" lon="12.2940083"><ele>239.0</ele><time>2026-04-05T07:45:27.589Z</time></trkpt><trkpt lat="43.9075967" lon="12.2939683"><ele>239.0</ele><time>2026-04-05T07:45:28.589Z</time></trkpt><trkpt lat="43.9074467" lon="12.2939317"><ele>239.0</ele><time>2026-04-05T07:45:29.588Z</time></trkpt><trkpt lat="43.9072969" lon="12.2939017"><ele>238.66666666666669</ele><time>2026-04-05T07:45:30.589Z</time></trkpt><trkpt lat="43.9071422" lon="12.2938683"><ele>238.33333333333331</ele><time>2026-04-05T07:45:31.588Z</time></trkpt><trkpt lat="43.9069893" lon="12.293834"><ele>238.0</ele><time>2026-04-05T07:45:32.589Z</time></trkpt><trkpt lat="43.9068318" lon="12.2938004"><ele>239.0</ele><time>2026-04-05T07:45:33.588Z</time></trkpt><trkpt lat="43.9066731" lon="12.2937695"><ele>240.0</ele><time>2026-04-05T07:45:34.589Z</time></trkpt><trkpt lat="43.906518" lon="12.2937365"><ele>241.0</ele><time>2026-04-05T07:45:35.588Z</time></trkpt><trkpt lat="43.9063779" lon="12.2937027"><ele>241.0</ele><time>2026-04-05T07:45:36.588Z</time></trkpt><trkpt lat="43.9062372" lon="12.2936705"><ele>241.0</ele><time>2026-04-05T07:45:37.589Z</time></trkpt><trkpt lat="43.906089" lon="12.2936439"><ele>241.0</ele><time>2026-04-05T07:45:38.589Z</time></trkpt><trkpt lat="43.9059344" lon="12.2936232"><ele>241.0</ele><time>2026-04-05T07:45:39.588Z</time></trkpt><trkpt lat="43.9057744" lon="12.2936034"><ele>241.33333333333331</ele><time>2026-04-05T07:45:40.589Z</time></trkpt><trkpt lat="43.9056077" lon="12.2935762"><ele>241.66666666666669</ele><time>2026-04-05T07:45:41.589Z</time></trkpt><trkpt lat="43.9054489" lon="12.2935346"><ele>242.0</ele><time>2026-04-05T07:45:42.589Z</time></trkpt><trkpt lat="43.9052932" lon="12.2934837"><ele>242.0</ele><time>2026-04-05T07:45:43.589Z</time></trkpt><trkpt lat="43.9051411" lon="12.2934267"><ele>242.0</ele><time>2026-04-05T07:45:44.589Z</time></trkpt><trkpt lat="43.9049888" lon="12.2933769"><ele>242.0</ele><time>2026-04-05T07:45:45.589Z</time></trkpt><trkpt lat="43.9048399" lon="12.2933324"><ele>241.33333333333334</ele><time>2026-04-05T07:45:46.588Z</time></trkpt><trkpt lat="43.9046933" lon="12.2932928"><ele>240.66666666666669</ele><time>2026-04-05T07:45:47.588Z</time></trkpt><trkpt lat="43.9045364" lon="12.2932843"><ele>240.0</ele><time>2026-04-05T07:45:48.588Z</time></trkpt><trkpt lat="43.904375" lon="12.293314"><ele>243.0</ele><time>2026-04-05T07:45:49.589Z</time></trkpt><trkpt lat="43.904217" lon="12.293404"><ele>246.0</ele><time>2026-04-05T07:45:50.589Z</time></trkpt><trkpt lat="43.9040661" lon="12.293529"><ele>249.0</ele><time>2026-04-05T07:45:51.589Z</time></trkpt><trkpt lat="43.903937" lon="12.2936728"><ele>249.0</ele><time>2026-04-05T07:45:52.588Z</time></trkpt><trkpt lat="43.9038212" lon="12.2938213"><ele>249.0</ele><time>2026-04-05T07:45:53.588Z</time></trkpt><trkpt lat="43.9037099" lon="12.2939678"><ele>249.0</ele><time>2026-04-05T07:45:54.59Z</time></trkpt><trkpt lat="43.9036005" lon="12.2941212"><ele>247.75</ele><time>2026-04-05T07:45:55.59Z</time></trkpt><trkpt lat="43.9035029" lon="12.2942803"><ele>246.5</ele><time>2026-04-05T07:45:56.59Z</time></trkpt><trkpt lat="43.9034197" lon="12.2944463"><ele>245.25</ele><time>2026-04-05T07:45:57.589Z</time></trkpt><trkpt lat="43.9033466" lon="12.2946056"><ele>244.0</ele><time>2026-04-05T07:45:58.59Z</time></trkpt><trkpt lat="43.9032715" lon="12.2947547"><ele>242.5</ele><time>2026-04-05T07:45:59.589Z</time></trkpt><trkpt lat="43.9031822" lon="12.2948907"><ele>241.0</ele><time>2026-04-05T07:46:00.59Z</time></trkpt><trkpt lat="43.9030753" lon="12.2949997"><ele>239.5</ele><time>2026-04-05T07:46:01.589Z</time></trkpt><trkpt lat="43.9029492" lon="12.2950639"><ele>238.0</ele><time>2026-04-05T07:46:02.589Z</time></trkpt><trkpt lat="43.9028072" lon="12.2950945"><ele>238.0</ele><time>2026-04-05T07:46:03.59Z</time></trkpt><trkpt lat="43.9026518" lon="12.2950975"><ele>238.0</ele><time>2026-04-05T07:46:04.589Z</time></trkpt><trkpt lat="43.9024892" lon="12.2950738"><ele>238.0</ele><time>2026-04-05T07:46:05.589Z</time></trkpt><trkpt lat="43.9023265" lon="12.2950256"><ele>238.66666666666666</ele><time>2026-04-05T07:46:06.59Z</time></trkpt><trkpt lat="43.9021802" lon="12.294974"><ele>239.33333333333331</ele><time>2026-04-05T07:46:07.59Z</time></trkpt><trkpt lat="43.9020347" lon="12.2949268"><ele>240.0</ele><time>2026-04-05T07:46:08.589Z</time></trkpt><trkpt lat="43.9018801" lon="12.2948779"><ele>239.33333333333331</ele><time>2026-04-05T07:46:09.59Z</time></trkpt><trkpt lat="43.901725" lon="12.2948224"><ele>238.66666666666666</ele><time>2026-04-05T07:46:10.59Z</time></trkpt><trkpt lat="43.9015713" lon="12.2947425"><ele>238.0</ele><time>2026-04-05T07:46:11.59Z</time></trkpt><trkpt lat="43.9014263" lon="12.2946364"><ele>241.0</ele><time>2026-04-05T07:46:12.59Z</time></trkpt><trkpt lat="43.9012994" lon="12.2945172"><ele>244.0</ele><time>2026-04-05T07:46:13.59Z</time></trkpt><trkpt lat="43.9011827" lon="12.2943944"><ele>247.0</ele><time>2026-04-05T07:46:14.589Z</time></trkpt><trkpt lat="43.901067" lon="12.2942596"><ele>247.0</ele><time>2026-04-05T07:46:15.589Z</time></trkpt><trkpt lat="43.9009492" lon="12.2941279"><ele>247.0</ele><time>2026-04-05T07:46:16.59Z</time></trkpt><trkpt lat="43.9008337" lon="12.2940057"><ele>247.0</ele><time>2026-04-05T07:46:17.59Z</time></trkpt><trkpt lat="43.900724" lon="12.2938931"><ele>247.0</ele><time>2026-04-05T07:46:18.59Z</time></trkpt><trkpt lat="43.9006177" lon="12.2937824"><ele>248.25</ele><time>2026-04-05T07:46:19.589Z</time></trkpt><trkpt lat="43.9005091" lon="12.2936649"><ele>249.5</ele><time>2026-04-05T07:46:20.59Z</time></trkpt><trkpt lat="43.9004111" lon="12.2935278"><ele>250.75</ele><time>2026-04-05T07:46:21.59Z</time></trkpt><trkpt lat="43.9003311" lon="12.2933746"><ele>252.0</ele><time>2026-04-05T07:46:22.589Z</time></trkpt><trkpt lat="43.9002759" lon="12.2932065"><ele>253.0</ele><time>2026-04-05T07:46:23.59Z</time></trkpt><trkpt lat="43.9002445" lon="12.2930131"><ele>254.0</ele><time>2026-04-05T07:46:24.589Z</time></trkpt><trkpt lat="43.9002314" lon="12.2928073"><ele>255.0</ele><time>2026-04-05T07:46:25.59Z</time></trkpt><trkpt lat="43.9002307" lon="12.2926077"><ele>256.0</ele><time>2026-04-05T07:46:26.59Z</time></trkpt><trkpt lat="43.9002312" lon="12.2924209"><ele>257.0</ele><time>2026-04-05T07:46:27.59Z</time></trkpt><trkpt lat="43.9002222" lon="12.2922435"><ele>258.0</ele><time>2026-04-05T07:46:28.59Z</time></trkpt><trkpt lat="43.9002075" lon="12.2920755"><ele>259.0</ele><time>2026-04-05T07:46:29.589Z</time></trkpt><trkpt lat="43.9001921" lon="12.2919111"><ele>260.0</ele><time>2026-04-05T07:46:30.59Z</time></trkpt><trkpt lat="43.9001839" lon="12.2917421"><ele>260.0</ele><time>2026-04-05T07:46:31.589Z</time></trkpt><trkpt lat="43.9001795" lon="12.2915611"><ele>260.0</ele><time>2026-04-05T07:46:32.589Z</time></trkpt><trkpt lat="43.9001637" lon="12.2913775"><ele>260.0</ele><time>2026-04-05T07:46:33.589Z</time></trkpt><trkpt lat="43.9001193" lon="12.291197"><ele>260.0</ele><time>2026-04-05T07:46:34.59Z</time></trkpt><trkpt lat="43.9000556" lon="12.2910353"><ele>259.75</ele><time>2026-04-05T07:46:35.589Z</time></trkpt><trkpt lat="43.8999862" lon="12.2908959"><ele>259.5</ele><time>2026-04-05T07:46:36.59Z</time></trkpt><trkpt lat="43.899915" lon="12.290768"><ele>259.25</ele><time>2026-04-05T07:46:37.59Z</time></trkpt><trkpt lat="43.8998301" lon="12.2906293"><ele>259.0</ele><time>2026-04-05T07:46:38.59Z</time></trkpt><trkpt lat="43.8997327" lon="12.290467"><ele>260.66666666666663</ele><time>2026-04-05T07:46:39.59Z</time></trkpt><trkpt lat="43.8996292" lon="12.2902821"><ele>262.3333333333333</ele><time>2026-04-05T07:46:40.589Z</time></trkpt><trkpt lat="43.8995259" lon="12.2900971"><ele>264.0</ele><time>2026-04-05T07:46:41.59Z</time></trkpt><trkpt lat="43.8994297" lon="12.2899263"><ele>264.0</ele><time>2026-04-05T07:46:42.59Z</time></trkpt><trkpt lat="43.8993348" lon="12.2897593"><ele>264.0</ele><time>2026-04-05T07:46:43.59Z</time></trkpt><trkpt lat="43.8992447" lon="12.2895992"><ele>264.0</ele><time>2026-04-05T07:46:44.59Z</time></trkpt><trkpt lat="43.899151" lon="12.2894444"><ele>264.0</ele><time>2026-04-05T07:46:45.589Z</time></trkpt><trkpt lat="43.8990422" lon="12.2893011"><ele>263.75</ele><time>2026-04-05T07:46:46.59Z</time></trkpt><trkpt lat="43.8989232" lon="12.2891769"><ele>263.5</ele><time>2026-04-05T07:46:47.59Z</time></trkpt><trkpt lat="43.8987969" lon="12.289067"><ele>263.25</ele><time>2026-04-05T07:46:48.59Z</time></trkpt><trkpt lat="43.8986678" lon="12.2889785"><ele>263.0</ele><time>2026-04-05T07:46:49.589Z</time></trkpt><trkpt lat="43.8985459" lon="12.2889092"><ele>265.2</ele><time>2026-04-05T07:46:50.59Z</time></trkpt><trkpt lat="43.898427" lon="12.2888631"><ele>267.4</ele><time>2026-04-05T07:46:51.59Z</time></trkpt><trkpt lat="43.8983122" lon="12.2888475"><ele>269.59999999999997</ele><time>2026-04-05T07:46:52.59Z</time></trkpt><trkpt lat="43.8982084" lon="12.288846"><ele>271.8</ele><time>2026-04-05T07:46:53.59Z</time></trkpt><trkpt lat="43.8981128" lon="12.2888497"><ele>274.0</ele><time>2026-04-05T07:46:54.59Z</time></trkpt><trkpt lat="43.8980261" lon="12.2888545"><ele>274.0</ele><time>2026-04-05T07:46:55.589Z</time></trkpt><trkpt lat="43.8979455" lon="12.2888676"><ele>274.0</ele><time>2026-04-05T07:46:56.59Z</time></trkpt><trkpt lat="43.8978726" lon="12.2888865"><ele>274.0</ele><time>2026-04-05T07:46:57.59Z</time></trkpt><trkpt lat="43.8977955" lon="12.28892"><ele>274.0</ele><time>2026-04-05T07:46:58.589Z</time></trkpt><trkpt lat="43.8977286" lon="12.288971"><ele>274.0</ele><time>2026-04-05T07:46:59.59Z</time></trkpt><trkpt lat="43.8976589" lon="12.2890173"><ele>274.0</ele><time>2026-04-05T07:47:00.59Z</time></trkpt><trkpt lat="43.8975835" lon="12.289029"><ele>274.8</ele><time>2026-04-05T07:47:01.59Z</time></trkpt><trkpt lat="43.8975002" lon="12.2890083"><ele>275.59999999999997</ele><time>2026-04-05T07:47:02.59Z</time></trkpt><trkpt lat="43.8974139" lon="12.2889506"><ele>276.4</ele><time>2026-04-05T07:47:03.59Z</time></trkpt><trkpt lat="43.8973139" lon="12.2888577"><ele>277.2</ele><time>2026-04-05T07:47:04.59Z</time></trkpt><trkpt lat="43.8971912" lon="12.2887516"><ele>278.0</ele><time>2026-04-05T07:47:05.59Z</time></trkpt><trkpt lat="43.8970509" lon="12.2886263"><ele>278.0</ele><time>2026-04-05T07:47:06.59Z</time></trkpt><trkpt lat="43.8969089" lon="12.2884898"><ele>278.0</ele><time>2026-04-05T07:47:07.59Z</time></trkpt><trkpt lat="43.8967695" lon="12.2883417"><ele>278.0</ele><time>2026-04-05T07:47:08.589Z</time></trkpt><trkpt lat="43.8966347" lon="12.2882107"><ele>277.0</ele><time>2026-04-05T07:47:09.59Z</time></trkpt><trkpt lat="43.8964969" lon="12.2880939"><ele>276.0</ele><time>2026-04-05T07:47:10.59Z</time></trkpt><trkpt lat="43.8963644" lon="12.2879768"><ele>275.0</ele><time>2026-04-05T07:47:11.589Z</time></trkpt><trkpt lat="43.8962402" lon="12.2878623"><ele>276.5</ele><time>2026-04-05T07:47:12.59Z</time></trkpt><trkpt lat="43.8961241" lon="12.2877627"><ele>278.0</ele><time>2026-04-05T07:47:13.59Z</time></trkpt><trkpt lat="43.8960171" lon="12.2876691"><ele>279.5</ele><time>2026-04-05T07:47:14.59Z</time></trkpt><trkpt lat="43.895909" lon="12.287597"><ele>281.0</ele><time>2026-04-05T07:47:15.589Z</time></trkpt><trkpt lat="43.8958012" lon="12.2875401"><ele>281.25</ele><time>2026-04-05T07:47:16.59Z</time></trkpt><trkpt lat="43.8956738" lon="12.2875561"><ele>281.5</ele><time>2026-04-05T07:47:17.59Z</time></trkpt><trkpt lat="43.895546" lon="12.2876468"><ele>281.75</ele><time>2026-04-05T07:47:18.59Z</time></trkpt><trkpt lat="43.8954252" lon="12.2877705"><ele>282.0</ele><time>2026-04-05T07:47:19.59Z</time></trkpt><trkpt lat="43.8953096" lon="12.2878913"><ele>282.0</ele><time>2026-04-05T07:47:20.589Z</time></trkpt><trkpt lat="43.8952156" lon="12.2880133"><ele>282.0</ele><time>2026-04-05T07:47:21.589Z</time></trkpt><trkpt lat="43.8951367" lon="12.2881437"><ele>282.0</ele><time>2026-04-05T07:47:22.59Z</time></trkpt><trkpt lat="43.8950855" lon="12.2882893"><ele>282.0</ele><time>2026-04-05T07:47:23.59Z</time></trkpt><trkpt lat="43.8950485" lon="12.2884171"><ele>283.2</ele><time>2026-04-05T07:47:24.59Z</time></trkpt><trkpt lat="43.8950167" lon="12.2885264"><ele>284.4</ele><time>2026-04-05T07:47:25.59Z</time></trkpt><trkpt lat="43.894993" lon="12.2886115"><ele>285.6</ele><time>2026-04-05T07:47:26.589Z</time></trkpt><trkpt lat="43.8949427" lon="12.2886846"><ele>286.8</ele><time>2026-04-05T07:47:28.589Z</time></trkpt><trkpt lat="43.8948767" lon="12.2886343"><ele>288.0</ele><time>2026-04-05T07:47:30.715Z</time></trkpt><trkpt lat="43.8948434" lon="12.2882926"><ele>288.0</ele><time>2026-04-05T07:47:32.59Z</time></trkpt><trkpt lat="43.8948252" lon="12.2880934"><ele>288.0</ele><time>2026-04-05T07:47:33.59Z</time></trkpt><trkpt lat="43.8948157" lon="12.2879009"><ele>288.0</ele><time>2026-04-05T07:47:34.589Z</time></trkpt><trkpt lat="43.8948139" lon="12.2877266"><ele>288.0</ele><time>2026-04-05T07:47:35.59Z</time></trkpt><trkpt lat="43.8947836" lon="12.2875672"><ele>289.0</ele><time>2026-04-05T07:47:36.59Z</time></trkpt><trkpt lat="43.8947225" lon="12.2874378"><ele>290.0</ele><time>2026-04-05T07:47:37.59Z</time></trkpt><trkpt lat="43.8946306" lon="12.287345"><ele>291.0</ele><time>2026-04-05T07:47:38.59Z</time></trkpt><trkpt lat="43.894523" lon="12.2873117"><ele>292.0</ele><time>2026-04-05T07:47:39.589Z</time></trkpt><trkpt lat="43.894416" lon="12.2873466"><ele>293.0</ele><time>2026-04-05T07:47:40.589Z</time></trkpt><trkpt lat="43.8943085" lon="12.2874482"><ele>298.6666666666667</ele><time>2026-04-05T07:47:41.59Z</time></trkpt><trkpt lat="43.8942231" lon="12.2876035"><ele>304.3333333333333</ele><time>2026-04-05T07:47:42.59Z</time></trkpt><trkpt lat="43.8941752" lon="12.2878122"><ele>310.0</ele><time>2026-04-05T07:47:43.59Z</time></trkpt><trkpt lat="43.8941417" lon="12.2880305"><ele>306.75</ele><time>2026-04-05T07:47:44.59Z</time></trkpt><trkpt lat="43.8940956" lon="12.2882074"><ele>303.5</ele><time>2026-04-05T07:47:45.59Z</time></trkpt><trkpt lat="43.8940363" lon="12.2883339"><ele>300.25</ele><time>2026-04-05T07:47:46.589Z</time></trkpt><trkpt lat="43.8939381" lon="12.2884059"><ele>297.0</ele><time>2026-04-05T07:47:47.59Z</time></trkpt><trkpt lat="43.8938284" lon="12.288412"><ele>297.0</ele><time>2026-04-05T07:47:48.59Z</time></trkpt><trkpt lat="43.89373" lon="12.2883473"><ele>297.0</ele><time>2026-04-05T07:47:49.589Z</time></trkpt><trkpt lat="43.8936523" lon="12.2882376"><ele>297.0</ele><time>2026-04-05T07:47:50.589Z</time></trkpt><trkpt lat="43.8936033" lon="12.2880724"><ele>297.0</ele><time>2026-04-05T07:47:51.589Z</time></trkpt><trkpt lat="43.8935736" lon="12.2878859"><ele>300.25</ele><time>2026-04-05T07:47:52.59Z</time></trkpt><trkpt lat="43.8935363" lon="12.2877052"><ele>303.5</ele><time>2026-04-05T07:47:53.59Z</time></trkpt><trkpt lat="43.8934708" lon="12.2875605"><ele>306.75</ele><time>2026-04-05T07:47:54.59Z</time></trkpt><trkpt lat="43.8933756" lon="12.2874608"><ele>310.0</ele><time>2026-04-05T07:47:55.59Z</time></trkpt><trkpt lat="43.89325" lon="12.2874242"><ele>310.25</ele><time>2026-04-05T07:47:56.59Z</time></trkpt><trkpt lat="43.8931035" lon="12.2874709"><ele>310.5</ele><time>2026-04-05T07:47:57.59Z</time></trkpt><trkpt lat="43.892963" lon="12.2875666"><ele>310.75</ele><time>2026-04-05T07:47:58.59Z</time></trkpt><trkpt lat="43.892835" lon="12.2876381"><ele>311.0</ele><time>2026-04-05T07:47:59.589Z</time></trkpt><trkpt lat="43.8927075" lon="12.2876521"><ele>311.75</ele><time>2026-04-05T07:48:00.59Z</time></trkpt><trkpt lat="43.8925826" lon="12.2875948"><ele>312.5</ele><time>2026-04-05T07:48:01.59Z</time></trkpt><trkpt lat="43.8924633" lon="12.287474"><ele>313.25</ele><time>2026-04-05T07:48:02.59Z</time></trkpt><trkpt lat="43.8923463" lon="12.2873236"><ele>314.0</ele><time>2026-04-05T07:48:03.59Z</time></trkpt><trkpt lat="43.892236" lon="12.2871628"><ele>318.0</ele><time>2026-04-05T07:48:04.59Z</time></trkpt><trkpt lat="43.8921374" lon="12.2870001"><ele>322.0</ele><time>2026-04-05T07:48:05.59Z</time></trkpt><trkpt lat="43.8920538" lon="12.2868075"><ele>326.0</ele><time>2026-04-05T07:48:06.59Z</time></trkpt><trkpt lat="43.8919868" lon="12.2865651"><ele>328.33333333333337</ele><time>2026-04-05T07:48:07.589Z</time></trkpt><trkpt lat="43.891931" lon="12.2862933"><ele>330.6666666666667</ele><time>2026-04-05T07:48:08.59Z</time></trkpt><trkpt lat="43.8918915" lon="12.2860262"><ele>333.0</ele><time>2026-04-05T07:48:09.589Z</time></trkpt><trkpt lat="43.891859" lon="12.285796"><ele>333.0</ele><time>2026-04-05T07:48:10.589Z</time></trkpt><trkpt lat="43.8918272" lon="12.28561"><ele>333.0</ele><time>2026-04-05T07:48:11.59Z</time></trkpt><trkpt lat="43.8918129" lon="12.2854484"><ele>333.0</ele><time>2026-04-05T07:48:12.59Z</time></trkpt><trkpt lat="43.891833" lon="12.2853031"><ele>333.0</ele><time>2026-04-05T07:48:13.59Z</time></trkpt><trkpt lat="43.891888" lon="12.2851906"><ele>334.25</ele><time>2026-04-05T07:48:14.59Z</time></trkpt><trkpt lat="43.8919798" lon="12.285125"><ele>335.5</ele><time>2026-04-05T07:48:15.59Z</time></trkpt><trkpt lat="43.8921033" lon="12.285121"><ele>336.75</ele><time>2026-04-05T07:48:16.59Z</time></trkpt><trkpt lat="43.8922345" lon="12.2851857"><ele>338.0</ele><time>2026-04-05T07:48:17.589Z</time></trkpt><trkpt lat="43.8923604" lon="12.2852986"><ele>338.0</ele><time>2026-04-05T07:48:18.59Z</time></trkpt><trkpt lat="43.8924859" lon="12.2854505"><ele>338.0</ele><time>2026-04-05T07:48:19.59Z</time></trkpt><trkpt lat="43.8926144" lon="12.2855708"><ele>338.0</ele><time>2026-04-05T07:48:20.59Z</time></trkpt><trkpt lat="43.8927454" lon="12.2856418"><ele>337.25</ele><time>2026-04-05T07:48:21.589Z</time></trkpt><trkpt lat="43.8928767" lon="12.285657"><ele>336.5</ele><time>2026-04-05T07:48:22.59Z</time></trkpt><trkpt lat="43.8930044" lon="12.2856096"><ele>335.75</ele><time>2026-04-05T07:48:23.59Z</time></trkpt><trkpt lat="43.893127" lon="12.2855036"><ele>335.0</ele><time>2026-04-05T07:48:24.589Z</time></trkpt><trkpt lat="43.8932384" lon="12.2853529"><ele>337.6666666666667</ele><time>2026-04-05T07:48:25.59Z</time></trkpt><trkpt lat="43.8933491" lon="12.285154"><ele>340.3333333333333</ele><time>2026-04-05T07:48:26.59Z</time></trkpt><trkpt lat="43.8934696" lon="12.2849046"><ele>343.0</ele><time>2026-04-05T07:48:27.589Z</time></trkpt><trkpt lat="43.8935984" lon="12.2846406"><ele>345.3333333333333</ele><time>2026-04-05T07:48:28.59Z</time></trkpt><trkpt lat="43.8937283" lon="12.2843837"><ele>347.6666666666667</ele><time>2026-04-05T07:48:29.59Z</time></trkpt><trkpt lat="43.893839" lon="12.2841523"><ele>350.0</ele><time>2026-04-05T07:48:30.59Z</time></trkpt><trkpt lat="43.8939515" lon="12.2839441"><ele>352.6666666666667</ele><time>2026-04-05T07:48:31.59Z</time></trkpt><trkpt lat="43.8940614" lon="12.2837417"><ele>355.3333333333333</ele><time>2026-04-05T07:48:32.59Z</time></trkpt><trkpt lat="43.8941594" lon="12.2835198"><ele>358.0</ele><time>2026-04-05T07:48:33.59Z</time></trkpt><trkpt lat="43.8942466" lon="12.2832699"><ele>355.5</ele><time>2026-04-05T07:48:34.59Z</time></trkpt><trkpt lat="43.8943138" lon="12.282981"><ele>353.0</ele><time>2026-04-05T07:48:35.589Z</time></trkpt><trkpt lat="43.894375" lon="12.2826578"><ele>353.0</ele><time>2026-04-05T07:48:36.59Z</time></trkpt><trkpt lat="43.8944267" lon="12.2823183"><ele>353.0</ele><time>2026-04-05T07:48:37.59Z</time></trkpt><trkpt lat="43.8944821" lon="12.281971"><ele>356.0</ele><time>2026-04-05T07:48:38.59Z</time></trkpt><trkpt lat="43.8945397" lon="12.2816326"><ele>359.0</ele><time>2026-04-05T07:48:39.59Z</time></trkpt><trkpt lat="43.8945982" lon="12.2813129"><ele>359.33333333333337</ele><time>2026-04-05T07:48:40.59Z</time></trkpt><trkpt lat="43.8946523" lon="12.2810119"><ele>359.6666666666667</ele><time>2026-04-05T07:48:41.589Z</time></trkpt><trkpt lat="43.894702" lon="12.2807102"><ele>360.0</ele><time>2026-04-05T07:48:42.589Z</time></trkpt><trkpt lat="43.894752" lon="12.2804116"><ele>361.6666666666667</ele><time>2026-04-05T07:48:43.59Z</time></trkpt><trkpt lat="43.8948011" lon="12.2801323"><ele>363.33333333333337</ele><time>2026-04-05T07:48:44.59Z</time></trkpt><trkpt lat="43.8948388" lon="12.2798746"><ele>365.0</ele><time>2026-04-05T07:48:45.589Z</time></trkpt><trkpt lat="43.8948525" lon="12.2796189"><ele>367.0</ele><time>2026-04-05T07:48:46.589Z</time></trkpt><trkpt lat="43.8948434" lon="12.2793636"><ele>369.0</ele><time>2026-04-05T07:48:47.589Z</time></trkpt><trkpt lat="43.8948276" lon="12.2791215"><ele>371.0</ele><time>2026-04-05T07:48:48.59Z</time></trkpt><trkpt lat="43.8948164" lon="12.2789066"><ele>372.25</ele><time>2026-04-05T07:48:49.59Z</time></trkpt><trkpt lat="43.8948183" lon="12.2787187"><ele>373.5</ele><time>2026-04-05T07:48:50.59Z</time></trkpt><trkpt lat="43.8948402" lon="12.2785471"><ele>374.75</ele><time>2026-04-05T07:48:51.589Z</time></trkpt><trkpt lat="43.894897" lon="12.2783992"><ele>376.0</ele><time>2026-04-05T07:48:52.59Z</time></trkpt><trkpt lat="43.8949944" lon="12.2782944"><ele>378.0</ele><time>2026-04-05T07:48:53.59Z</time></trkpt><trkpt lat="43.8951215" lon="12.2782488"><ele>380.0</ele><time>2026-04-05T07:48:54.59Z</time></trkpt><trkpt lat="43.8952649" lon="12.2782697"><ele>382.0</ele><time>2026-04-05T07:48:55.59Z</time></trkpt><trkpt lat="43.8954242" lon="12.278351"><ele>384.0</ele><time>2026-04-05T07:48:56.59Z</time></trkpt><trkpt lat="43.8956025" lon="12.2784759"><ele>384.0</ele><time>2026-04-05T07:48:57.59Z</time></trkpt><trkpt lat="43.8957778" lon="12.2785971"><ele>384.0</ele><time>2026-04-05T07:48:58.59Z</time></trkpt><trkpt lat="43.8959407" lon="12.2786921"><ele>384.0</ele><time>2026-04-05T07:48:59.589Z</time></trkpt><trkpt lat="43.8961012" lon="12.2787528"><ele>385.33333333333337</ele><time>2026-04-05T07:49:00.59Z</time></trkpt><trkpt lat="43.8962577" lon="12.2787615"><ele>386.6666666666667</ele><time>2026-04-05T07:49:01.59Z</time></trkpt><trkpt lat="43.8964131" lon="12.2787274"><ele>388.0</ele><time>2026-04-05T07:49:02.589Z</time></trkpt><trkpt lat="43.8965572" lon="12.2786283"><ele>388.0</ele><time>2026-04-05T07:49:03.59Z</time></trkpt><trkpt lat="43.8966828" lon="12.2785096"><ele>388.0</ele><time>2026-04-05T07:49:04.589Z</time></trkpt><trkpt lat="43.8968107" lon="12.2784052"><ele>388.0</ele><time>2026-04-05T07:49:05.59Z</time></trkpt><trkpt lat="43.8969454" lon="12.2783514"><ele>388.0</ele><time>2026-04-05T07:49:06.59Z</time></trkpt><trkpt lat="43.8970903" lon="12.2783675"><ele>391.0</ele><time>2026-04-05T07:49:07.589Z</time></trkpt><trkpt lat="43.897243" lon="12.2784551"><ele>394.0</ele><time>2026-04-05T07:49:08.59Z</time></trkpt><trkpt lat="43.897373" lon="12.2786011"><ele>397.0</ele><time>2026-04-05T07:49:09.589Z</time></trkpt><trkpt lat="43.8974754" lon="12.278792"><ele>396.75</ele><time>2026-04-05T07:49:10.59Z</time></trkpt><trkpt lat="43.8975597" lon="12.2789823"><ele>396.5</ele><time>2026-04-05T07:49:11.59Z</time></trkpt><trkpt lat="43.89764" lon="12.2791481"><ele>396.25</ele><time>2026-04-05T07:49:12.59Z</time></trkpt><trkpt lat="43.8977329" lon="12.2792743"><ele>396.0</ele><time>2026-04-05T07:49:13.589Z</time></trkpt><trkpt lat="43.8978532" lon="12.2793639"><ele>396.0</ele><time>2026-04-05T07:49:14.59Z</time></trkpt><trkpt lat="43.8979922" lon="12.2794234"><ele>396.0</ele><time>2026-04-05T07:49:15.589Z</time></trkpt><trkpt lat="43.8981287" lon="12.2794739"><ele>396.0</ele><time>2026-04-05T07:49:16.59Z</time></trkpt><trkpt lat="43.8982542" lon="12.2795092"><ele>396.0</ele><time>2026-04-05T07:49:17.59Z</time></trkpt><trkpt lat="43.8983683" lon="12.2795145"><ele>397.20000000000005</ele><time>2026-04-05T07:49:18.59Z</time></trkpt><trkpt lat="43.8984591" lon="12.2794756"><ele>398.40000000000003</ele><time>2026-04-05T07:49:19.589Z</time></trkpt><trkpt lat="43.898537" lon="12.279398"><ele>399.6</ele><time>2026-04-05T07:49:20.59Z</time></trkpt><trkpt lat="43.8985933" lon="12.2792873"><ele>400.8</ele><time>2026-04-05T07:49:21.59Z</time></trkpt><trkpt lat="43.8986173" lon="12.2791512"><ele>402.0</ele><time>2026-04-05T07:49:22.59Z</time></trkpt><trkpt lat="43.8986006" lon="12.2790006"><ele>405.40000000000003</ele><time>2026-04-05T07:49:23.59Z</time></trkpt><trkpt lat="43.8985492" lon="12.2788727"><ele>408.8</ele><time>2026-04-05T07:49:24.589Z</time></trkpt><trkpt lat="43.8984681" lon="12.2787853"><ele>412.2</ele><time>2026-04-05T07:49:25.59Z</time></trkpt><trkpt lat="43.89838" lon="12.2787425"><ele>415.6</ele><time>2026-04-05T07:49:26.59Z</time></trkpt><trkpt lat="43.8982914" lon="12.2787352"><ele>419.0</ele><time>2026-04-05T07:49:27.59Z</time></trkpt><trkpt lat="43.8982047" lon="12.2787401"><ele>419.0</ele><time>2026-04-05T07:49:28.589Z</time></trkpt><trkpt lat="43.8981216" lon="12.2787284"><ele>419.0</ele><time>2026-04-05T07:49:29.589Z</time></trkpt><trkpt lat="43.8980424" lon="12.278683"><ele>419.0</ele><time>2026-04-05T07:49:30.589Z</time></trkpt><trkpt lat="43.8979783" lon="12.2786029"><ele>419.0</ele><time>2026-04-05T07:49:31.59Z</time></trkpt><trkpt lat="43.8979286" lon="12.278475"><ele>419.0</ele><time>2026-04-05T07:49:32.59Z</time></trkpt><trkpt lat="43.8978921" lon="12.2783068"><ele>419.0</ele><time>2026-04-05T07:49:33.59Z</time></trkpt><trkpt lat="43.897866" lon="12.2781045"><ele>419.0</ele><time>2026-04-05T07:49:34.589Z</time></trkpt><trkpt lat="43.8978204" lon="12.2778733"><ele>419.0</ele><time>2026-04-05T07:49:35.59Z</time></trkpt><trkpt lat="43.8977553" lon="12.2776278"><ele>421.66666666666663</ele><time>2026-04-05T07:49:36.59Z</time></trkpt><trkpt lat="43.8976843" lon="12.2773602"><ele>424.33333333333337</ele><time>2026-04-05T07:49:37.59Z</time></trkpt><trkpt lat="43.8976052" lon="12.2770991"><ele>427.0</ele><time>2026-04-05T07:49:38.589Z</time></trkpt><trkpt lat="43.897506" lon="12.2768593"><ele>427.0</ele><time>2026-04-05T07:49:39.589Z</time></trkpt><trkpt lat="43.8973855" lon="12.276632"><ele>427.0</ele><time>2026-04-05T07:49:40.589Z</time></trkpt><trkpt lat="43.8972502" lon="12.2764266"><ele>427.0</ele><time>2026-04-05T07:49:41.59Z</time></trkpt><trkpt lat="43.8971174" lon="12.2762548"><ele>430.25</ele><time>2026-04-05T07:49:42.59Z</time></trkpt><trkpt lat="43.8969981" lon="12.2761199"><ele>433.5</ele><time>2026-04-05T07:49:43.589Z</time></trkpt><trkpt lat="43.8968988" lon="12.2760041"><ele>436.75</ele><time>2026-04-05T07:49:44.59Z</time></trkpt><trkpt lat="43.8968288" lon="12.2758679"><ele>440.0</ele><time>2026-04-05T07:49:45.589Z</time></trkpt><trkpt lat="43.8968023" lon="12.2756928"><ele>445.3333333333333</ele><time>2026-04-05T07:49:46.589Z</time></trkpt><trkpt lat="43.8968218" lon="12.2754981"><ele>450.66666666666663</ele><time>2026-04-05T07:49:47.59Z</time></trkpt><trkpt lat="43.8968814" lon="12.2752959"><ele>456.0</ele><time>2026-04-05T07:49:48.589Z</time></trkpt><trkpt lat="43.8969619" lon="12.275079"><ele>456.0</ele><time>2026-04-05T07:49:49.589Z</time></trkpt><trkpt lat="43.8970247" lon="12.2748229"><ele>456.0</ele><time>2026-04-05T07:49:50.59Z</time></trkpt><trkpt lat="43.8970521" lon="12.274532"><ele>456.0</ele><time>2026-04-05T07:49:51.589Z</time></trkpt><trkpt lat="43.8970503" lon="12.2742297"><ele>459.33333333333337</ele><time>2026-04-05T07:49:52.59Z</time></trkpt><trkpt lat="43.8970438" lon="12.2739404"><ele>462.6666666666667</ele><time>2026-04-05T07:49:53.59Z</time></trkpt><trkpt lat="43.8970326" lon="12.2736758"><ele>466.0</ele><time>2026-04-05T07:49:54.59Z</time></trkpt><trkpt lat="43.8970055" lon="12.2734059"><ele>467.33333333333337</ele><time>2026-04-05T07:49:55.59Z</time></trkpt><trkpt lat="43.8969525" lon="12.2731596"><ele>468.66666666666663</ele><time>2026-04-05T07:49:56.589Z</time></trkpt><trkpt lat="43.8968763" lon="12.2729352"><ele>470.0</ele><time>2026-04-05T07:49:57.59Z</time></trkpt><trkpt lat="43.8968032" lon="12.2727389"><ele>465.0</ele><time>2026-04-05T07:49:58.59Z</time></trkpt><trkpt lat="43.8967452" lon="12.2725473"><ele>460.0</ele><time>2026-04-05T07:49:59.589Z</time></trkpt><trkpt lat="43.8967079" lon="12.2723334"><ele>455.0</ele><time>2026-04-05T07:50:00.589Z</time></trkpt><trkpt lat="43.8967086" lon="12.272091"><ele>455.0</ele><time>2026-04-05T07:50:01.59Z</time></trkpt><trkpt lat="43.8967299" lon="12.2718151"><ele>455.0</ele><time>2026-04-05T07:50:02.59Z</time></trkpt><trkpt lat="43.8967554" lon="12.2715107"><ele>455.0</ele><time>2026-04-05T07:50:03.59Z</time></trkpt><trkpt lat="43.8967936" lon="12.27118"><ele>465.5</ele><time>2026-04-05T07:50:04.59Z</time></trkpt><trkpt lat="43.8968303" lon="12.2708337"><ele>476.0</ele><time>2026-04-05T07:50:05.59Z</time></trkpt><trkpt lat="43.8968685" lon="12.2704884"><ele>479.5</ele><time>2026-04-05T07:50:06.59Z</time></trkpt><trkpt lat="43.8969061" lon="12.2701588"><ele>483.0</ele><time>2026-04-05T07:50:07.59Z</time></trkpt><trkpt lat="43.896937" lon="12.2698491"><ele>486.66666666666663</ele><time>2026-04-05T07:50:08.59Z</time></trkpt><trkpt lat="43.896953" lon="12.2695514"><ele>490.3333333333333</ele><time>2026-04-05T07:50:09.589Z</time></trkpt><trkpt lat="43.8969425" lon="12.2692508"><ele>494.0</ele><time>2026-04-05T07:50:10.59Z</time></trkpt><trkpt lat="43.8969042" lon="12.268936"><ele>498.0</ele><time>2026-04-05T07:50:11.59Z</time></trkpt><trkpt lat="43.8968547" lon="12.2686099"><ele>502.0</ele><time>2026-04-05T07:50:12.589Z</time></trkpt><trkpt lat="43.8968002" lon="12.2682737"><ele>492.5</ele><time>2026-04-05T07:50:13.59Z</time></trkpt><trkpt lat="43.8967458" lon="12.2679255"><ele>483.0</ele><time>2026-04-05T07:50:14.589Z</time></trkpt><trkpt lat="43.8966942" lon="12.2675806"><ele>486.0</ele><time>2026-04-05T07:50:15.589Z</time></trkpt><trkpt lat="43.8966492" lon="12.2672686"><ele>489.0</ele><time>2026-04-05T07:50:16.59Z</time></trkpt><trkpt lat="43.8966068" lon="12.2669773"><ele>492.0</ele><time>2026-04-05T07:50:17.59Z</time></trkpt><trkpt lat="43.8965654" lon="12.2666996"><ele>493.66666666666663</ele><time>2026-04-05T07:50:18.59Z</time></trkpt><trkpt lat="43.8965232" lon="12.2664331"><ele>495.3333333333333</ele><time>2026-04-05T07:50:19.589Z</time></trkpt><trkpt lat="43.8964952" lon="12.2661842"><ele>497.0</ele><time>2026-04-05T07:50:20.59Z</time></trkpt><trkpt lat="43.8964801" lon="12.2659526"><ele>497.0</ele><time>2026-04-05T07:50:21.589Z</time></trkpt><trkpt lat="43.8964834" lon="12.265727"><ele>497.0</ele><time>2026-04-05T07:50:22.59Z</time></trkpt><trkpt lat="43.8965143" lon="12.2654826"><ele>497.0</ele><time>2026-04-05T07:50:23.59Z</time></trkpt><trkpt lat="43.8965603" lon="12.2652386"><ele>496.3333333333333</ele><time>2026-04-05T07:50:24.59Z</time></trkpt><trkpt lat="43.8966322" lon="12.2649941"><ele>495.66666666666663</ele><time>2026-04-05T07:50:25.589Z</time></trkpt><trkpt lat="43.8966906" lon="12.2647561"><ele>495.0</ele><time>2026-04-05T07:50:26.59Z</time></trkpt><trkpt lat="43.8967246" lon="12.2645384"><ele>499.5</ele><time>2026-04-05T07:50:27.59Z</time></trkpt><trkpt lat="43.896761" lon="12.2643486"><ele>504.0</ele><time>2026-04-05T07:50:28.59Z</time></trkpt><trkpt lat="43.8968034" lon="12.264176"><ele>508.5</ele><time>2026-04-05T07:50:29.59Z</time></trkpt><trkpt lat="43.8968857" lon="12.2640295"><ele>513.0</ele><time>2026-04-05T07:50:30.59Z</time></trkpt><trkpt lat="43.8969968" lon="12.2639078"><ele>513.0</ele><time>2026-04-05T07:50:31.59Z</time></trkpt><trkpt lat="43.8971057" lon="12.2637715"><ele>513.0</ele><time>2026-04-05T07:50:32.59Z</time></trkpt><trkpt lat="43.8971852" lon="12.2635774"><ele>513.0</ele><time>2026-04-05T07:50:33.59Z</time></trkpt><trkpt lat="43.8972313" lon="12.263343"><ele>513.0</ele><time>2026-04-05T07:50:34.59Z</time></trkpt><trkpt lat="43.8972624" lon="12.2630942"><ele>513.0</ele><time>2026-04-05T07:50:35.589Z</time></trkpt><trkpt lat="43.8972973" lon="12.2628493"><ele>513.0</ele><time>2026-04-05T07:50:36.59Z</time></trkpt><trkpt lat="43.8973452" lon="12.262613"><ele>513.0</ele><time>2026-04-05T07:50:37.589Z</time></trkpt><trkpt lat="43.8974003" lon="12.2623781"><ele>513.0</ele><time>2026-04-05T07:50:38.59Z</time></trkpt><trkpt lat="43.897473" lon="12.2621448"><ele>513.0</ele><time>2026-04-05T07:50:39.59Z</time></trkpt><trkpt lat="43.8975578" lon="12.2619223"><ele>517.3333333333334</ele><time>2026-04-05T07:50:40.59Z</time></trkpt><trkpt lat="43.8976509" lon="12.2617138"><ele>521.6666666666667</ele><time>2026-04-05T07:50:41.589Z</time></trkpt><trkpt lat="43.8977549" lon="12.2615151"><ele>526.0</ele><time>2026-04-05T07:50:42.589Z</time></trkpt><trkpt lat="43.8978722" lon="12.2613381"><ele>526.0</ele><time>2026-04-05T07:50:43.59Z</time></trkpt><trkpt lat="43.8979931" lon="12.2611793"><ele>526.0</ele><time>2026-04-05T07:50:44.589Z</time></trkpt><trkpt lat="43.8981111" lon="12.2610313"><ele>526.0</ele><time>2026-04-05T07:50:45.589Z</time></trkpt><trkpt lat="43.8982277" lon="12.2608879"><ele>526.0</ele><time>2026-04-05T07:50:46.59Z</time></trkpt><trkpt lat="43.8983331" lon="12.2607388"><ele>526.0</ele><time>2026-04-05T07:50:47.59Z</time></trkpt><trkpt lat="43.8984295" lon="12.2605764"><ele>526.0</ele><time>2026-04-05T07:50:48.59Z</time></trkpt><trkpt lat="43.8985034" lon="12.2603847"><ele>530.3333333333334</ele><time>2026-04-05T07:50:49.59Z</time></trkpt><trkpt lat="43.8985441" lon="12.2601715"><ele>534.6666666666666</ele><time>2026-04-05T07:50:50.589Z</time></trkpt><trkpt lat="43.8985711" lon="12.2599317"><ele>539.0</ele><time>2026-04-05T07:50:51.59Z</time></trkpt><trkpt lat="43.8985982" lon="12.2596958"><ele>540.0</ele><time>2026-04-05T07:50:52.589Z</time></trkpt><trkpt lat="43.8986269" lon="12.2594654"><ele>541.0</ele><time>2026-04-05T07:50:53.59Z</time></trkpt><trkpt lat="43.8986575" lon="12.2592383"><ele>542.0</ele><time>2026-04-05T07:50:54.59Z</time></trkpt><trkpt lat="43.8986873" lon="12.2590129"><ele>542.0</ele><time>2026-04-05T07:50:55.59Z</time></trkpt><trkpt lat="43.8987103" lon="12.258789"><ele>542.0</ele><time>2026-04-05T07:50:56.589Z</time></trkpt><trkpt lat="43.8987368" lon="12.258575"><ele>542.0</ele><time>2026-04-05T07:50:57.59Z</time></trkpt><trkpt lat="43.8987648" lon="12.2583771"><ele>542.0</ele><time>2026-04-05T07:50:58.59Z</time></trkpt><trkpt lat="43.8987851" lon="12.2581776"><ele>542.0</ele><time>2026-04-05T07:50:59.59Z</time></trkpt><trkpt lat="43.8987866" lon="12.2579631"><ele>542.0</ele><time>2026-04-05T07:51:00.59Z</time></trkpt><trkpt lat="43.8987549" lon="12.2577276"><ele>542.6666666666666</ele><time>2026-04-05T07:51:01.589Z</time></trkpt><trkpt lat="43.8987111" lon="12.2574755"><ele>543.3333333333334</ele><time>2026-04-05T07:51:02.59Z</time></trkpt><trkpt lat="43.8986522" lon="12.2572185"><ele>544.0</ele><time>2026-04-05T07:51:03.59Z</time></trkpt><trkpt lat="43.8985917" lon="12.2569476"><ele>545.0</ele><time>2026-04-05T07:51:04.59Z</time></trkpt><trkpt lat="43.8985318" lon="12.2566788"><ele>546.0</ele><time>2026-04-05T07:51:05.59Z</time></trkpt><trkpt lat="43.8984796" lon="12.2564307"><ele>547.0</ele><time>2026-04-05T07:51:06.589Z</time></trkpt><trkpt lat="43.8984298" lon="12.2562164"><ele>545.25</ele><time>2026-04-05T07:51:07.589Z</time></trkpt><trkpt lat="43.8983851" lon="12.2560297"><ele>543.5</ele><time>2026-04-05T07:51:08.59Z</time></trkpt><trkpt lat="43.8983371" lon="12.2558703"><ele>541.75</ele><time>2026-04-05T07:51:09.59Z</time></trkpt><trkpt lat="43.8982635" lon="12.2557352"><ele>540.0</ele><time>2026-04-05T07:51:10.59Z</time></trkpt><trkpt lat="43.8981575" lon="12.2556402"><ele>540.0</ele><time>2026-04-05T07:51:11.59Z</time></trkpt><trkpt lat="43.8980285" lon="12.2556112"><ele>540.0</ele><time>2026-04-05T07:51:12.589Z</time></trkpt><trkpt lat="43.897893" lon="12.2556573"><ele>540.0</ele><time>2026-04-05T07:51:13.589Z</time></trkpt><trkpt lat="43.8977628" lon="12.2557391"><ele>540.0</ele><time>2026-04-05T07:51:14.589Z</time></trkpt><trkpt lat="43.8976398" lon="12.2557889"><ele>540.4</ele><time>2026-04-05T07:51:15.59Z</time></trkpt><trkpt lat="43.8975268" lon="12.2557654"><ele>540.8</ele><time>2026-04-05T07:51:16.59Z</time></trkpt><trkpt lat="43.8974364" lon="12.255678"><ele>541.2</ele><time>2026-04-05T07:51:17.59Z</time></trkpt><trkpt lat="43.8973848" lon="12.255555"><ele>541.6</ele><time>2026-04-05T07:51:18.59Z</time></trkpt><trkpt lat="43.8973849" lon="12.2554072"><ele>542.0</ele><time>2026-04-05T07:51:19.59Z</time></trkpt><trkpt lat="43.8974409" lon="12.2552595"><ele>543.5</ele><time>2026-04-05T07:51:20.59Z</time></trkpt><trkpt lat="43.8975411" lon="12.2551506"><ele>545.0</ele><time>2026-04-05T07:51:21.589Z</time></trkpt><trkpt lat="43.8976739" lon="12.2550992"><ele>546.5</ele><time>2026-04-05T07:51:22.589Z</time></trkpt><trkpt lat="43.8978308" lon="12.2551103"><ele>548.0</ele><time>2026-04-05T07:51:23.589Z</time></trkpt><trkpt lat="43.8980075" lon="12.2551493"><ele>548.6666666666666</ele><time>2026-04-05T07:51:24.59Z</time></trkpt><trkpt lat="43.898198" lon="12.2551775"><ele>549.3333333333334</ele><time>2026-04-05T07:51:25.589Z</time></trkpt><trkpt lat="43.8984002" lon="12.2551639"><ele>550.0</ele><time>2026-04-05T07:51:26.59Z</time></trkpt><trkpt lat="43.8985977" lon="12.2550958"><ele>550.5</ele><time>2026-04-05T07:51:27.589Z</time></trkpt><trkpt lat="43.8987966" lon="12.2549746"><ele>551.0</ele><time>2026-04-05T07:51:28.59Z</time></trkpt><trkpt lat="43.8990069" lon="12.2547978"><ele>555.0</ele><time>2026-04-05T07:51:29.59Z</time></trkpt><trkpt lat="43.899214" lon="12.2545932"><ele>559.0</ele><time>2026-04-05T07:51:30.59Z</time></trkpt><trkpt lat="43.8994085" lon="12.2544076"><ele>561.0</ele><time>2026-04-05T07:51:31.59Z</time></trkpt><trkpt lat="43.8995908" lon="12.2542574"><ele>563.0</ele><time>2026-04-05T07:51:32.59Z</time></trkpt><trkpt lat="43.899759" lon="12.2541203"><ele>565.0</ele><time>2026-04-05T07:51:33.589Z</time></trkpt><trkpt lat="43.899912" lon="12.2539886"><ele>568.3333333333334</ele><time>2026-04-05T07:51:34.59Z</time></trkpt><trkpt lat="43.9000562" lon="12.2538705"><ele>571.6666666666666</ele><time>2026-04-05T07:51:35.59Z</time></trkpt><trkpt lat="43.9002042" lon="12.2537822"><ele>575.0</ele><time>2026-04-05T07:51:36.59Z</time></trkpt><trkpt lat="43.9003636" lon="12.253742"><ele>576.0</ele><time>2026-04-05T07:51:37.589Z</time></trkpt><trkpt lat="43.9005191" lon="12.2537552"><ele>577.0</ele><time>2026-04-05T07:51:38.589Z</time></trkpt><trkpt lat="43.9006559" lon="12.2537817"><ele>578.0</ele><time>2026-04-05T07:51:39.59Z</time></trkpt><trkpt lat="43.9007848" lon="12.2537741"><ele>579.0</ele><time>2026-04-05T07:51:40.59Z</time></trkpt><trkpt lat="43.9008942" lon="12.2537001"><ele>580.0</ele><time>2026-04-05T07:51:41.589Z</time></trkpt><trkpt lat="43.9009706" lon="12.2535724"><ele>581.0</ele><time>2026-04-05T07:51:42.589Z</time></trkpt><trkpt lat="43.9009986" lon="12.2533955"><ele>582.0</ele><time>2026-04-05T07:51:43.589Z</time></trkpt><trkpt lat="43.9009711" lon="12.2531877"><ele>583.0</ele><time>2026-04-05T07:51:44.59Z</time></trkpt><trkpt lat="43.9009142" lon="12.2529958"><ele>583.0</ele><time>2026-04-05T07:51:45.59Z</time></trkpt><trkpt lat="43.9008507" lon="12.2528373"><ele>583.0</ele><time>2026-04-05T07:51:46.59Z</time></trkpt><trkpt lat="43.9007751" lon="12.2527101"><ele>583.0</ele><time>2026-04-05T07:51:47.589Z</time></trkpt><trkpt lat="43.9006679" lon="12.2526296"><ele>583.0</ele><time>2026-04-05T07:51:48.589Z</time></trkpt><trkpt lat="43.9005256" lon="12.252606"><ele>583.0</ele><time>2026-04-05T07:51:49.59Z</time></trkpt><trkpt lat="43.9003601" lon="12.2526271"><ele>583.0</ele><time>2026-04-05T07:51:50.589Z</time></trkpt><trkpt lat="43.9001928" lon="12.2526235"><ele>583.0</ele><time>2026-04-05T07:51:51.59Z</time></trkpt><trkpt lat="43.9000195" lon="12.252566"><ele>582.0</ele><time>2026-04-05T07:51:52.59Z</time></trkpt><trkpt lat="43.8998408" lon="12.2524643"><ele>581.0</ele><time>2026-04-05T07:51:53.59Z</time></trkpt><trkpt lat="43.8996466" lon="12.2523538"><ele>580.0</ele><time>2026-04-05T07:51:54.589Z</time></trkpt><trkpt lat="43.8994662" lon="12.2522646"><ele>582.5</ele><time>2026-04-05T07:51:55.589Z</time></trkpt><trkpt lat="43.8993045" lon="12.2521996"><ele>585.0</ele><time>2026-04-05T07:51:56.59Z</time></trkpt><trkpt lat="43.8991614" lon="12.2521493"><ele>587.5</ele><time>2026-04-05T07:51:57.589Z</time></trkpt><trkpt lat="43.8990394" lon="12.2521075"><ele>590.0</ele><time>2026-04-05T07:51:58.59Z</time></trkpt><trkpt lat="43.8989398" lon="12.2520413"><ele>591.0</ele><time>2026-04-05T07:51:59.59Z</time></trkpt><trkpt lat="43.8988682" lon="12.2519361"><ele>592.0</ele><time>2026-04-05T07:52:00.59Z</time></trkpt><trkpt lat="43.8988397" lon="12.2517999"><ele>593.0</ele><time>2026-04-05T07:52:01.59Z</time></trkpt><trkpt lat="43.8988537" lon="12.2516681"><ele>594.0</ele><time>2026-04-05T07:52:02.59Z</time></trkpt><trkpt lat="43.8989138" lon="12.251539"><ele>595.0</ele><time>2026-04-05T07:52:03.59Z</time></trkpt><trkpt lat="43.8990211" lon="12.25141"><ele>596.3333333333334</ele><time>2026-04-05T07:52:04.59Z</time></trkpt><trkpt lat="43.8991692" lon="12.2512733"><ele>597.6666666666666</ele><time>2026-04-05T07:52:05.59Z</time></trkpt><trkpt lat="43.8993428" lon="12.2511262"><ele>599.0</ele><time>2026-04-05T07:52:06.59Z</time></trkpt><trkpt lat="43.8995347" lon="12.2509615"><ele>599.0</ele><time>2026-04-05T07:52:07.59Z</time></trkpt><trkpt lat="43.8997227" lon="12.2507906"><ele>599.0</ele><time>2026-04-05T07:52:08.59Z</time></trkpt><trkpt lat="43.8998936" lon="12.2506377"><ele>599.0</ele><time>2026-04-05T07:52:09.589Z</time></trkpt><trkpt lat="43.9000408" lon="12.2505008"><ele>601.5</ele><time>2026-04-05T07:52:10.59Z</time></trkpt><trkpt lat="43.9001676" lon="12.250376"><ele>604.0</ele><time>2026-04-05T07:52:11.589Z</time></trkpt><trkpt lat="43.9002659" lon="12.2502519"><ele>606.5</ele><time>2026-04-05T07:52:12.59Z</time></trkpt><trkpt lat="43.9003365" lon="12.2501067"><ele>609.0</ele><time>2026-04-05T07:52:13.59Z</time></trkpt><trkpt lat="43.9003746" lon="12.2499364"><ele>612.0</ele><time>2026-04-05T07:52:14.59Z</time></trkpt><trkpt lat="43.90035" lon="12.2497483"><ele>615.0</ele><time>2026-04-05T07:52:15.59Z</time></trkpt><trkpt lat="43.9002883" lon="12.2495783"><ele>618.0</ele><time>2026-04-05T07:52:16.59Z</time></trkpt><trkpt lat="43.9001833" lon="12.24945"><ele>621.0</ele><time>2026-04-05T07:52:17.59Z</time></trkpt><trkpt lat="43.90005" lon="12.2493767"><ele>622.0</ele><time>2026-04-05T07:52:18.59Z</time></trkpt><trkpt lat="43.8998883" lon="12.2493783"><ele>623.0</ele><time>2026-04-05T07:52:19.589Z</time></trkpt><trkpt lat="43.8997083" lon="12.2494183"><ele>624.0</ele><time>2026-04-05T07:52:20.59Z</time></trkpt><trkpt lat="43.8995017" lon="12.2495"><ele>624.0</ele><time>2026-04-05T07:52:21.589Z</time></trkpt><trkpt lat="43.89927" lon="12.2495933"><ele>624.0</ele><time>2026-04-05T07:52:22.59Z</time></trkpt><trkpt lat="43.89904" lon="12.2496833"><ele>621.6666666666666</ele><time>2026-04-05T07:52:23.589Z</time></trkpt><trkpt lat="43.8988417" lon="12.2497483"><ele>619.3333333333333</ele><time>2026-04-05T07:52:24.59Z</time></trkpt><trkpt lat="43.898675" lon="12.24981"><ele>617.0</ele><time>2026-04-05T07:52:25.59Z</time></trkpt><trkpt lat="43.8985417" lon="12.2498583"><ele>617.0</ele><time>2026-04-05T07:52:26.589Z</time></trkpt><trkpt lat="43.8984317" lon="12.2498617"><ele>617.0</ele><time>2026-04-05T07:52:27.59Z</time></trkpt><trkpt lat="43.8983333" lon="12.2498117"><ele>617.0</ele><time>2026-04-05T07:52:28.59Z</time></trkpt><trkpt lat="43.898255" lon="12.2497083"><ele>617.0</ele><time>2026-04-05T07:52:29.59Z</time></trkpt><trkpt lat="43.8982133" lon="12.249575"><ele>617.0</ele><time>2026-04-05T07:52:30.589Z</time></trkpt><trkpt lat="43.898225" lon="12.249425"><ele>620.75</ele><time>2026-04-05T07:52:31.59Z</time></trkpt><trkpt lat="43.8982783" lon="12.2492883"><ele>624.5</ele><time>2026-04-05T07:52:32.59Z</time></trkpt><trkpt lat="43.8983733" lon="12.249195"><ele>628.25</ele><time>2026-04-05T07:52:33.589Z</time></trkpt><trkpt lat="43.898505" lon="12.2491483"><ele>632.0</ele><time>2026-04-05T07:52:34.59Z</time></trkpt><trkpt lat="43.898665" lon="12.2491617"><ele>632.0</ele><time>2026-04-05T07:52:35.59Z</time></trkpt><trkpt lat="43.8988083" lon="12.2491683"><ele>632.0</ele><time>2026-04-05T07:52:36.59Z</time></trkpt><trkpt lat="43.8989333" lon="12.2491617"><ele>632.0</ele><time>2026-04-05T07:52:37.589Z</time></trkpt><trkpt lat="43.8990317" lon="12.2491"><ele>632.0</ele><time>2026-04-05T07:52:38.59Z</time></trkpt><trkpt lat="43.8991117" lon="12.2489917"><ele>634.0</ele><time>2026-04-05T07:52:39.589Z</time></trkpt><trkpt lat="43.8991517" lon="12.24884"><ele>636.0</ele><time>2026-04-05T07:52:40.589Z</time></trkpt><trkpt lat="43.8991367" lon="12.2486733"><ele>638.0</ele><time>2026-04-05T07:52:41.59Z</time></trkpt><trkpt lat="43.8990767" lon="12.2485267"><ele>640.0</ele><time>2026-04-05T07:52:42.59Z</time></trkpt><trkpt lat="43.8989733" lon="12.2484383"><ele>640.0</ele><time>2026-04-05T07:52:43.59Z</time></trkpt><trkpt lat="43.8988567" lon="12.24841"><ele>640.0</ele><time>2026-04-05T07:52:44.59Z</time></trkpt><trkpt lat="43.8987433" lon="12.2484683"><ele>640.0</ele><time>2026-04-05T07:52:45.59Z</time></trkpt><trkpt lat="43.8986517" lon="12.2485833"><ele>640.0</ele><time>2026-04-05T07:52:46.59Z</time></trkpt><trkpt lat="43.898575" lon="12.2487067"><ele>640.0</ele><time>2026-04-05T07:52:47.59Z</time></trkpt><trkpt lat="43.8984783" lon="12.248775"><ele>640.0</ele><time>2026-04-05T07:52:48.589Z</time></trkpt><trkpt lat="43.8983633" lon="12.2487867"><ele>640.0</ele><time>2026-04-05T07:52:49.589Z</time></trkpt><trkpt lat="43.898256" lon="12.2487483"><ele>640.0</ele><time>2026-04-05T07:52:50.589Z</time></trkpt><trkpt lat="43.898174" lon="12.2486486"><ele>640.0</ele><time>2026-04-05T07:52:51.589Z</time></trkpt><trkpt lat="43.8981383" lon="12.2485058"><ele>642.0</ele><time>2026-04-05T07:52:52.59Z</time></trkpt><trkpt lat="43.8981441" lon="12.2483504"><ele>644.0</ele><time>2026-04-05T07:52:53.59Z</time></trkpt><trkpt lat="43.898193" lon="12.2482107"><ele>646.0</ele><time>2026-04-05T07:52:54.589Z</time></trkpt><trkpt lat="43.8982992" lon="12.2481208"><ele>648.0</ele><time>2026-04-05T07:52:55.59Z</time></trkpt><trkpt lat="43.8984291" lon="12.248091"><ele>649.25</ele><time>2026-04-05T07:52:56.589Z</time></trkpt><trkpt lat="43.898556" lon="12.2481015"><ele>650.5</ele><time>2026-04-05T07:52:57.59Z</time></trkpt><trkpt lat="43.898673" lon="12.2481008"><ele>651.75</ele><time>2026-04-05T07:52:58.589Z</time></trkpt><trkpt lat="43.898776" lon="12.2480385"><ele>653.0</ele><time>2026-04-05T07:52:59.59Z</time></trkpt><trkpt lat="43.8988545" lon="12.2479227"><ele>653.0</ele><time>2026-04-05T07:53:00.589Z</time></trkpt><trkpt lat="43.8988899" lon="12.2477779"><ele>653.0</ele><time>2026-04-05T07:53:01.589Z</time></trkpt><trkpt lat="43.8988745" lon="12.2476243"><ele>653.0</ele><time>2026-04-05T07:53:02.59Z</time></trkpt><trkpt lat="43.8988094" lon="12.2474886"><ele>653.0</ele><time>2026-04-05T07:53:03.59Z</time></trkpt><trkpt lat="43.8987051" lon="12.2474008"><ele>653.0</ele><time>2026-04-05T07:53:04.589Z</time></trkpt><trkpt lat="43.8985815" lon="12.2473712"><ele>653.0</ele><time>2026-04-05T07:53:05.59Z</time></trkpt><trkpt lat="43.8984658" lon="12.2473841"><ele>653.0</ele><time>2026-04-05T07:53:06.589Z</time></trkpt><trkpt lat="43.8983598" lon="12.2473891"><ele>653.0</ele><time>2026-04-05T07:53:07.589Z</time></trkpt><trkpt lat="43.8982628" lon="12.2473448"><ele>653.75</ele><time>2026-04-05T07:53:08.589Z</time></trkpt><trkpt lat="43.8981693" lon="12.2472624"><ele>654.5</ele><time>2026-04-05T07:53:09.59Z</time></trkpt><trkpt lat="43.8980814" lon="12.2471653"><ele>655.25</ele><time>2026-04-05T07:53:10.59Z</time></trkpt><trkpt lat="43.8979909" lon="12.2470684"><ele>656.0</ele><time>2026-04-05T07:53:11.59Z</time></trkpt><trkpt lat="43.8978733" lon="12.2469728"><ele>656.0</ele><time>2026-04-05T07:53:12.59Z</time></trkpt><trkpt lat="43.8977238" lon="12.2468948"><ele>656.0</ele><time>2026-04-05T07:53:13.589Z</time></trkpt><trkpt lat="43.8975466" lon="12.2468256"><ele>656.0</ele><time>2026-04-05T07:53:14.59Z</time></trkpt><trkpt lat="43.8973523" lon="12.2467543"><ele>655.6666666666666</ele><time>2026-04-05T07:53:15.59Z</time></trkpt><trkpt lat="43.8971534" lon="12.2466716"><ele>655.3333333333334</ele><time>2026-04-05T07:53:16.589Z</time></trkpt><trkpt lat="43.8969406" lon="12.2465844"><ele>655.0</ele><time>2026-04-05T07:53:17.59Z</time></trkpt><trkpt lat="43.8967273" lon="12.2464895"><ele>657.5</ele><time>2026-04-05T07:53:18.59Z</time></trkpt><trkpt lat="43.8965117" lon="12.2463874"><ele>660.0</ele><time>2026-04-05T07:53:19.589Z</time></trkpt><trkpt lat="43.8963048" lon="12.2462647"><ele>660.0</ele><time>2026-04-05T07:53:20.589Z</time></trkpt><trkpt lat="43.8961113" lon="12.2461293"><ele>660.0</ele><time>2026-04-05T07:53:21.59Z</time></trkpt><trkpt lat="43.8959287" lon="12.2460001"><ele>660.0</ele><time>2026-04-05T07:53:22.59Z</time></trkpt><trkpt lat="43.8957377" lon="12.245886"><ele>661.3333333333334</ele><time>2026-04-05T07:53:23.589Z</time></trkpt><trkpt lat="43.895539" lon="12.245786"><ele>662.6666666666667</ele><time>2026-04-05T07:53:24.59Z</time></trkpt><trkpt lat="43.8953359" lon="12.245691"><ele>664.0</ele><time>2026-04-05T07:53:25.589Z</time></trkpt><trkpt lat="43.8951262" lon="12.2455991"><ele>673.5</ele><time>2026-04-05T07:53:26.589Z</time></trkpt><trkpt lat="43.8949085" lon="12.2455073"><ele>683.0</ele><time>2026-04-05T07:53:27.589Z</time></trkpt><trkpt lat="43.8946894" lon="12.2454241"><ele>683.0</ele><time>2026-04-05T07:53:28.589Z</time></trkpt><trkpt lat="43.8944735" lon="12.2453523"><ele>683.0</ele><time>2026-04-05T07:53:29.59Z</time></trkpt><trkpt lat="43.8942675" lon="12.2452956"><ele>683.0</ele><time>2026-04-05T07:53:30.59Z</time></trkpt><trkpt lat="43.8940547" lon="12.2452923"><ele>685.0</ele><time>2026-04-05T07:53:31.589Z</time></trkpt><trkpt lat="43.8938398" lon="12.2453157"><ele>687.0</ele><time>2026-04-05T07:53:32.589Z</time></trkpt><trkpt lat="43.8936406" lon="12.2453502"><ele>689.0</ele><time>2026-04-05T07:53:33.589Z</time></trkpt><trkpt lat="43.8934559" lon="12.2453778"><ele>691.0</ele><time>2026-04-05T07:53:34.589Z</time></trkpt><trkpt lat="43.8932794" lon="12.2454042"><ele>693.0</ele><time>2026-04-05T07:53:35.59Z</time></trkpt><trkpt lat="43.893104" lon="12.2454154"><ele>695.0</ele><time>2026-04-05T07:53:36.59Z</time></trkpt><trkpt lat="43.8929322" lon="12.2453967"><ele>695.0</ele><time>2026-04-05T07:53:37.59Z</time></trkpt><trkpt lat="43.892774" lon="12.2453519"><ele>695.0</ele><time>2026-04-05T07:53:38.59Z</time></trkpt><trkpt lat="43.8926213" lon="12.2453184"><ele>695.0</ele><time>2026-04-05T07:53:39.589Z</time></trkpt><trkpt lat="43.8924686" lon="12.2453236"><ele>697.3333333333333</ele><time>2026-04-05T07:53:40.59Z</time></trkpt><trkpt lat="43.892318" lon="12.2453844"><ele>699.6666666666666</ele><time>2026-04-05T07:53:41.59Z</time></trkpt><trkpt lat="43.8921585" lon="12.2454705"><ele>702.0</ele><time>2026-04-05T07:53:42.59Z</time></trkpt><trkpt lat="43.8919881" lon="12.2455263"><ele>702.0</ele><time>2026-04-05T07:53:43.59Z</time></trkpt><trkpt lat="43.8918249" lon="12.2455575"><ele>702.0</ele><time>2026-04-05T07:53:44.59Z</time></trkpt><trkpt lat="43.891675" lon="12.2455719"><ele>702.0</ele><time>2026-04-05T07:53:45.59Z</time></trkpt><trkpt lat="43.8915323" lon="12.2455504"><ele>704.6666666666666</ele><time>2026-04-05T07:53:46.59Z</time></trkpt><trkpt lat="43.891394" lon="12.2454874"><ele>707.3333333333333</ele><time>2026-04-05T07:53:47.59Z</time></trkpt><trkpt lat="43.8912583" lon="12.2453759"><ele>710.0</ele><time>2026-04-05T07:53:48.59Z</time></trkpt><trkpt lat="43.8911192" lon="12.2452698"><ele>710.0</ele><time>2026-04-05T07:53:49.589Z</time></trkpt><trkpt lat="43.8909736" lon="12.2451959"><ele>710.0</ele><time>2026-04-05T07:53:50.589Z</time></trkpt><trkpt lat="43.890831" lon="12.2451805"><ele>710.0</ele><time>2026-04-05T07:53:51.589Z</time></trkpt><trkpt lat="43.8906927" lon="12.2452336"><ele>710.0</ele><time>2026-04-05T07:53:52.59Z</time></trkpt><trkpt lat="43.8905604" lon="12.2453528"><ele>711.0</ele><time>2026-04-05T07:53:53.589Z</time></trkpt><trkpt lat="43.8904322" lon="12.2455322"><ele>712.0</ele><time>2026-04-05T07:53:54.589Z</time></trkpt><trkpt lat="43.8903008" lon="12.2457373"><ele>713.0</ele><time>2026-04-05T07:53:55.589Z</time></trkpt><trkpt lat="43.890156" lon="12.2459194"><ele>713.6666666666666</ele><time>2026-04-05T07:53:56.59Z</time></trkpt><trkpt lat="43.8899833" lon="12.2460771"><ele>714.3333333333334</ele><time>2026-04-05T07:53:57.59Z</time></trkpt><trkpt lat="43.8897853" lon="12.246223"><ele>715.0</ele><time>2026-04-05T07:53:58.59Z</time></trkpt><trkpt lat="43.8895703" lon="12.2463605"><ele>716.6666666666667</ele><time>2026-04-05T07:53:59.589Z</time></trkpt><trkpt lat="43.8893658" lon="12.2464781"><ele>718.3333333333334</ele><time>2026-04-05T07:54:00.59Z</time></trkpt><trkpt lat="43.8891681" lon="12.2465866"><ele>720.0</ele><time>2026-04-05T07:54:01.591Z</time></trkpt><trkpt lat="43.8889687" lon="12.2466773"><ele>720.0</ele><time>2026-04-05T07:54:02.59Z</time></trkpt><trkpt lat="43.8887575" lon="12.2467451"><ele>720.0</ele><time>2026-04-05T07:54:03.591Z</time></trkpt><trkpt lat="43.8885413" lon="12.2468043"><ele>720.0</ele><time>2026-04-05T07:54:04.591Z</time></trkpt><trkpt lat="43.8883364" lon="12.2468406"><ele>723.6666666666666</ele><time>2026-04-05T07:54:05.591Z</time></trkpt><trkpt lat="43.8881424" lon="12.2468655"><ele>727.3333333333333</ele><time>2026-04-05T07:54:06.591Z</time></trkpt><trkpt lat="43.8879519" lon="12.2468796"><ele>731.0</ele><time>2026-04-05T07:54:07.59Z</time></trkpt><trkpt lat="43.8877582" lon="12.2469416"><ele>728.5</ele><time>2026-04-05T07:54:08.591Z</time></trkpt><trkpt lat="43.8875492" lon="12.2470416"><ele>726.0</ele><time>2026-04-05T07:54:09.59Z</time></trkpt><trkpt lat="43.8873275" lon="12.2471677"><ele>723.0</ele><time>2026-04-05T07:54:10.59Z</time></trkpt><trkpt lat="43.887105" lon="12.247296"><ele>720.0</ele><time>2026-04-05T07:54:11.591Z</time></trkpt><trkpt lat="43.8868836" lon="12.2474156"><ele>721.6666666666666</ele><time>2026-04-05T07:54:12.591Z</time></trkpt><trkpt lat="43.8866628" lon="12.2475119"><ele>723.3333333333333</ele><time>2026-04-05T07:54:13.59Z</time></trkpt><trkpt lat="43.8864516" lon="12.2475747"><ele>725.0</ele><time>2026-04-05T07:54:14.59Z</time></trkpt><trkpt lat="43.886252" lon="12.2476165"><ele>725.0</ele><time>2026-04-05T07:54:15.591Z</time></trkpt><trkpt lat="43.886072" lon="12.2476506"><ele>725.0</ele><time>2026-04-05T07:54:16.59Z</time></trkpt><trkpt lat="43.8859117" lon="12.2476974"><ele>725.0</ele><time>2026-04-05T07:54:17.591Z</time></trkpt><trkpt lat="43.8857675" lon="12.2477951"><ele>728.0</ele><time>2026-04-05T07:54:18.59Z</time></trkpt><trkpt lat="43.8856413" lon="12.2479443"><ele>731.0</ele><time>2026-04-05T07:54:19.59Z</time></trkpt><trkpt lat="43.8855298" lon="12.2480994"><ele>734.0</ele><time>2026-04-05T07:54:20.591Z</time></trkpt><trkpt lat="43.8854136" lon="12.2482192"><ele>734.5</ele><time>2026-04-05T07:54:21.59Z</time></trkpt><trkpt lat="43.885285" lon="12.2482905"><ele>735.0</ele><time>2026-04-05T07:54:22.59Z</time></trkpt><trkpt lat="43.8851507" lon="12.2483086"><ele>735.5</ele><time>2026-04-05T07:54:23.59Z</time></trkpt><trkpt lat="43.8850228" lon="12.2482721"><ele>736.0</ele><time>2026-04-05T07:54:24.591Z</time></trkpt><trkpt lat="43.884903" lon="12.2481746"><ele>739.3333333333334</ele><time>2026-04-05T07:54:25.591Z</time></trkpt><trkpt lat="43.884783" lon="12.2480186"><ele>742.6666666666666</ele><time>2026-04-05T07:54:26.59Z</time></trkpt><trkpt lat="43.8846629" lon="12.2478218"><ele>746.0</ele><time>2026-04-05T07:54:27.591Z</time></trkpt><trkpt lat="43.8845539" lon="12.2476399"><ele>746.0</ele><time>2026-04-05T07:54:28.591Z</time></trkpt><trkpt lat="43.8844585" lon="12.2474888"><ele>746.0</ele><time>2026-04-05T07:54:29.591Z</time></trkpt><trkpt lat="43.8843649" lon="12.2473731"><ele>746.0</ele><time>2026-04-05T07:54:30.59Z</time></trkpt><trkpt lat="43.8842605" lon="12.2472939"><ele>746.0</ele><time>2026-04-05T07:54:31.591Z</time></trkpt><trkpt lat="43.8841442" lon="12.2472747"><ele>748.0</ele><time>2026-04-05T07:54:32.591Z</time></trkpt><trkpt lat="43.884017" lon="12.2473218"><ele>750.0</ele><time>2026-04-05T07:54:33.59Z</time></trkpt><trkpt lat="43.8838919" lon="12.2474212"><ele>752.0</ele><time>2026-04-05T07:54:34.591Z</time></trkpt><trkpt lat="43.8837698" lon="12.2475472"><ele>754.0</ele><time>2026-04-05T07:54:35.591Z</time></trkpt><trkpt lat="43.8836555" lon="12.247662"><ele>754.0</ele><time>2026-04-05T07:54:36.591Z</time></trkpt><trkpt lat="43.8835387" lon="12.2477548"><ele>754.0</ele><time>2026-04-05T07:54:37.59Z</time></trkpt><trkpt lat="43.8834273" lon="12.2478258"><ele>754.0</ele><time>2026-04-05T07:54:38.591Z</time></trkpt><trkpt lat="43.8833297" lon="12.2478843"><ele>754.0</ele><time>2026-04-05T07:54:39.591Z</time></trkpt><trkpt lat="43.8832429" lon="12.247928"><ele>757.0</ele><time>2026-04-05T07:54:40.591Z</time></trkpt><trkpt lat="43.8831541" lon="12.2479314"><ele>760.0</ele><time>2026-04-05T07:54:41.59Z</time></trkpt><trkpt lat="43.8830555" lon="12.247876"><ele>763.0</ele><time>2026-04-05T07:54:42.591Z</time></trkpt><trkpt lat="43.8829542" lon="12.2477547"><ele>766.0</ele><time>2026-04-05T07:54:43.591Z</time></trkpt><trkpt lat="43.8828563" lon="12.2475742"><ele>766.0</ele><time>2026-04-05T07:54:44.591Z</time></trkpt><trkpt lat="43.8827601" lon="12.2473582"><ele>766.0</ele><time>2026-04-05T07:54:45.59Z</time></trkpt><trkpt lat="43.8826634" lon="12.2471421"><ele>766.0</ele><time>2026-04-05T07:54:46.591Z</time></trkpt><trkpt lat="43.8825729" lon="12.2469544"><ele>764.3333333333334</ele><time>2026-04-05T07:54:47.591Z</time></trkpt><trkpt lat="43.8824791" lon="12.2467841"><ele>762.6666666666666</ele><time>2026-04-05T07:54:48.59Z</time></trkpt><trkpt lat="43.8823589" lon="12.2466529"><ele>761.0</ele><time>2026-04-05T07:54:49.59Z</time></trkpt><trkpt lat="43.8822028" lon="12.2465771"><ele>761.0</ele><time>2026-04-05T07:54:50.591Z</time></trkpt><trkpt lat="43.8820193" lon="12.2465327"><ele>761.0</ele><time>2026-04-05T07:54:51.591Z</time></trkpt><trkpt lat="43.8818232" lon="12.2465267"><ele>761.0</ele><time>2026-04-05T07:54:52.591Z</time></trkpt><trkpt lat="43.8816326" lon="12.2465088"><ele>760.3333333333333</ele><time>2026-04-05T07:54:53.591Z</time></trkpt><trkpt lat="43.8814565" lon="12.2464653"><ele>759.6666666666666</ele><time>2026-04-05T07:54:54.591Z</time></trkpt><trkpt lat="43.8812771" lon="12.246387"><ele>759.0</ele><time>2026-04-05T07:54:55.591Z</time></trkpt><trkpt lat="43.8810961" lon="12.2462691"><ele>756.0</ele><time>2026-04-05T07:54:56.591Z</time></trkpt><trkpt lat="43.8809051" lon="12.2461164"><ele>753.0</ele><time>2026-04-05T07:54:57.591Z</time></trkpt><trkpt lat="43.8807036" lon="12.2459385"><ele>753.0</ele><time>2026-04-05T07:54:58.59Z</time></trkpt><trkpt lat="43.8804965" lon="12.2457516"><ele>753.0</ele><time>2026-04-05T07:54:59.591Z</time></trkpt><trkpt lat="43.8802926" lon="12.2455757"><ele>752.5</ele><time>2026-04-05T07:55:00.59Z</time></trkpt><trkpt lat="43.8800929" lon="12.2454081"><ele>752.0</ele><time>2026-04-05T07:55:01.591Z</time></trkpt><trkpt lat="43.8799027" lon="12.2452409"><ele>752.0</ele><time>2026-04-05T07:55:02.591Z</time></trkpt><trkpt lat="43.8797162" lon="12.2450694"><ele>752.0</ele><time>2026-04-05T07:55:03.591Z</time></trkpt><trkpt lat="43.8795283" lon="12.2449083"><ele>752.0</ele><time>2026-04-05T07:55:04.591Z</time></trkpt><trkpt lat="43.87934" lon="12.2447383"><ele>751.0</ele><time>2026-04-05T07:55:05.591Z</time></trkpt><trkpt lat="43.8791567" lon="12.24458"><ele>750.0</ele><time>2026-04-05T07:55:06.59Z</time></trkpt><trkpt lat="43.878985" lon="12.2444283"><ele>749.0</ele><time>2026-04-05T07:55:07.591Z</time></trkpt><trkpt lat="43.8788167" lon="12.2442933"><ele>749.0</ele><time>2026-04-05T07:55:08.59Z</time></trkpt><trkpt lat="43.8786683" lon="12.2441517"><ele>749.0</ele><time>2026-04-05T07:55:09.591Z</time></trkpt><trkpt lat="43.8783767" lon="12.2440867"><ele>746.5</ele><time>2026-04-05T07:55:11.182Z</time></trkpt><trkpt lat="43.8782583" lon="12.2438133"><ele>744.0</ele><time>2026-04-05T07:55:12.568Z</time></trkpt><trkpt lat="43.87802" lon="12.243855"><ele>744.0</ele><time>2026-04-05T07:55:13.589Z</time></trkpt><trkpt lat="43.8778133" lon="12.2438433"><ele>744.0</ele><time>2026-04-05T07:55:14.589Z</time></trkpt><trkpt lat="43.8776033" lon="12.24387"><ele>744.0</ele><time>2026-04-05T07:55:15.589Z</time></trkpt><trkpt lat="43.8773883" lon="12.24388"><ele>745.0</ele><time>2026-04-05T07:55:16.589Z</time></trkpt><trkpt lat="43.877175" lon="12.243855"><ele>746.0</ele><time>2026-04-05T07:55:17.589Z</time></trkpt><trkpt lat="43.87696" lon="12.2438067"><ele>747.0</ele><time>2026-04-05T07:55:18.588Z</time></trkpt><trkpt lat="43.87676" lon="12.2437267"><ele>747.0</ele><time>2026-04-05T07:55:19.588Z</time></trkpt><trkpt lat="43.8765667" lon="12.2436033"><ele>747.0</ele><time>2026-04-05T07:55:20.589Z</time></trkpt><trkpt lat="43.87637" lon="12.2434283"><ele>747.0</ele><time>2026-04-05T07:55:21.589Z</time></trkpt><trkpt lat="43.876175" lon="12.243235"><ele>748.0</ele><time>2026-04-05T07:55:22.588Z</time></trkpt><trkpt lat="43.876005" lon="12.2430333"><ele>749.0</ele><time>2026-04-05T07:55:23.589Z</time></trkpt><trkpt lat="43.8758583" lon="12.2428167"><ele>750.0</ele><time>2026-04-05T07:55:24.589Z</time></trkpt><trkpt lat="43.87573" lon="12.2425617"><ele>750.0</ele><time>2026-04-05T07:55:25.589Z</time></trkpt><trkpt lat="43.87562" lon="12.2422833"><ele>750.0</ele><time>2026-04-05T07:55:26.589Z</time></trkpt><trkpt lat="43.8755217" lon="12.2419883"><ele>750.0</ele><time>2026-04-05T07:55:27.589Z</time></trkpt><trkpt lat="43.8754333" lon="12.24168"><ele>750.0</ele><time>2026-04-05T07:55:28.588Z</time></trkpt><trkpt lat="43.875345" lon="12.2413667"><ele>749.5</ele><time>2026-04-05T07:55:29.589Z</time></trkpt><trkpt lat="43.875265" lon="12.2410617"><ele>749.0</ele><time>2026-04-05T07:55:30.589Z</time></trkpt><trkpt lat="43.87519" lon="12.2407683"><ele>747.6666666666666</ele><time>2026-04-05T07:55:31.589Z</time></trkpt><trkpt lat="43.8751167" lon="12.2404917"><ele>746.3333333333334</ele><time>2026-04-05T07:55:32.589Z</time></trkpt><trkpt lat="43.8750333" lon="12.2402183"><ele>745.0</ele><time>2026-04-05T07:55:33.588Z</time></trkpt><trkpt lat="43.87492" lon="12.2399617"><ele>750.0</ele><time>2026-04-05T07:55:34.589Z</time></trkpt><trkpt lat="43.874795" lon="12.2397233"><ele>755.0</ele><time>2026-04-05T07:55:35.589Z</time></trkpt><trkpt lat="43.8746733" lon="12.2394967"><ele>760.0</ele><time>2026-04-05T07:55:36.588Z</time></trkpt><trkpt lat="43.87455" lon="12.23927"><ele>760.0</ele><time>2026-04-05T07:55:37.588Z</time></trkpt><trkpt lat="43.8744167" lon="12.2390567"><ele>760.0</ele><time>2026-04-05T07:55:38.589Z</time></trkpt><trkpt lat="43.8742717" lon="12.23885"><ele>760.0</ele><time>2026-04-05T07:55:39.589Z</time></trkpt><trkpt lat="43.8740983" lon="12.2386517"><ele>764.0</ele><time>2026-04-05T07:55:40.588Z</time></trkpt><trkpt lat="43.873905" lon="12.2384683"><ele>768.0</ele><time>2026-04-05T07:55:41.589Z</time></trkpt><trkpt lat="43.873725" lon="12.238295"><ele>770.3333333333333</ele><time>2026-04-05T07:55:42.589Z</time></trkpt><trkpt lat="43.8735583" lon="12.2381333"><ele>772.6666666666666</ele><time>2026-04-05T07:55:43.589Z</time></trkpt><trkpt lat="43.8733983" lon="12.2379633"><ele>775.0</ele><time>2026-04-05T07:55:44.589Z</time></trkpt><trkpt lat="43.8732417" lon="12.2377883"><ele>775.0</ele><time>2026-04-05T07:55:45.588Z</time></trkpt><trkpt lat="43.87309" lon="12.23759"><ele>775.0</ele><time>2026-04-05T07:55:46.589Z</time></trkpt><trkpt lat="43.87296" lon="12.237395"><ele>775.0</ele><time>2026-04-05T07:55:47.589Z</time></trkpt><trkpt lat="43.8728367" lon="12.23722"><ele>771.3333333333333</ele><time>2026-04-05T07:55:48.588Z</time></trkpt><trkpt lat="43.8727083" lon="12.237055"><ele>767.6666666666666</ele><time>2026-04-05T07:55:49.589Z</time></trkpt><trkpt lat="43.87257" lon="12.2369067"><ele>764.0</ele><time>2026-04-05T07:55:50.588Z</time></trkpt><trkpt lat="43.8724283" lon="12.2367717"><ele>769.5</ele><time>2026-04-05T07:55:51.589Z</time></trkpt><trkpt lat="43.872295" lon="12.2366517"><ele>775.0</ele><time>2026-04-05T07:55:52.588Z</time></trkpt><trkpt lat="43.8721783" lon="12.2365433"><ele>780.5</ele><time>2026-04-05T07:55:53.589Z</time></trkpt><trkpt lat="43.8720817" lon="12.2364467"><ele>786.0</ele><time>2026-04-05T07:55:54.589Z</time></trkpt><trkpt lat="43.8720067" lon="12.2363333"><ele>785.75</ele><time>2026-04-05T07:55:55.589Z</time></trkpt><trkpt lat="43.8719617" lon="12.2361733"><ele>785.5</ele><time>2026-04-05T07:55:56.589Z</time></trkpt><trkpt lat="43.8719533" lon="12.23599"><ele>785.25</ele><time>2026-04-05T07:55:57.589Z</time></trkpt><trkpt lat="43.8719433" lon="12.235795"><ele>785.0</ele><time>2026-04-05T07:55:58.589Z</time></trkpt><trkpt lat="43.8718967" lon="12.2356"><ele>785.0</ele><time>2026-04-05T07:55:59.589Z</time></trkpt><trkpt lat="43.8718367" lon="12.2353783"><ele>785.0</ele><time>2026-04-05T07:56:00.588Z</time></trkpt><trkpt lat="43.8717467" lon="12.23514"><ele>785.0</ele><time>2026-04-05T07:56:01.589Z</time></trkpt><trkpt lat="43.8716567" lon="12.2349017"><ele>790.3333333333334</ele><time>2026-04-05T07:56:02.588Z</time></trkpt><trkpt lat="43.87157" lon="12.234655"><ele>795.6666666666667</ele><time>2026-04-05T07:56:03.589Z</time></trkpt><trkpt lat="43.871495" lon="12.2344333"><ele>801.0</ele><time>2026-04-05T07:56:04.588Z</time></trkpt><trkpt lat="43.8714467" lon="12.234215"><ele>801.0</ele><time>2026-04-05T07:56:05.588Z</time></trkpt><trkpt lat="43.8714133" lon="12.234"><ele>801.0</ele><time>2026-04-05T07:56:06.589Z</time></trkpt><trkpt lat="43.8713767" lon="12.2337817"><ele>801.0</ele><time>2026-04-05T07:56:07.589Z</time></trkpt><trkpt lat="43.8713167" lon="12.2335717"><ele>800.3333333333333</ele><time>2026-04-05T07:56:08.588Z</time></trkpt><trkpt lat="43.8712267" lon="12.23336"><ele>799.6666666666666</ele><time>2026-04-05T07:56:09.589Z</time></trkpt><trkpt lat="43.8711317" lon="12.2331617"><ele>799.0</ele><time>2026-04-05T07:56:10.589Z</time></trkpt><trkpt lat="43.8710433" lon="12.232975"><ele>797.6666666666666</ele><time>2026-04-05T07:56:11.588Z</time></trkpt><trkpt lat="43.8709567" lon="12.232795"><ele>796.3333333333333</ele><time>2026-04-05T07:56:12.589Z</time></trkpt><trkpt lat="43.870875" lon="12.23261"><ele>795.0</ele><time>2026-04-05T07:56:13.588Z</time></trkpt><trkpt lat="43.8707933" lon="12.2324067"><ele>796.3333333333333</ele><time>2026-04-05T07:56:14.588Z</time></trkpt><trkpt lat="43.8706867" lon="12.232195"><ele>797.6666666666666</ele><time>2026-04-05T07:56:15.589Z</time></trkpt><trkpt lat="43.87058" lon="12.2319717"><ele>799.0</ele><time>2026-04-05T07:56:16.588Z</time></trkpt><trkpt lat="43.87048" lon="12.2317567"><ele>799.0</ele><time>2026-04-05T07:56:17.589Z</time></trkpt><trkpt lat="43.8703833" lon="12.231545"><ele>799.0</ele><time>2026-04-05T07:56:18.589Z</time></trkpt><trkpt lat="43.8702867" lon="12.2313283"><ele>799.0</ele><time>2026-04-05T07:56:19.589Z</time></trkpt><trkpt lat="43.8702033" lon="12.2310967"><ele>798.6666666666666</ele><time>2026-04-05T07:56:20.589Z</time></trkpt><trkpt lat="43.87014" lon="12.2308433"><ele>798.3333333333333</ele><time>2026-04-05T07:56:21.589Z</time></trkpt><trkpt lat="43.8700783" lon="12.2305633"><ele>798.0</ele><time>2026-04-05T07:56:22.588Z</time></trkpt><trkpt lat="43.8700333" lon="12.2302617"><ele>798.0</ele><time>2026-04-05T07:56:23.59Z</time></trkpt><trkpt lat="43.8699833" lon="12.2299583"><ele>798.0</ele><time>2026-04-05T07:56:24.59Z</time></trkpt><trkpt lat="43.8699317" lon="12.22965"><ele>796.0</ele><time>2026-04-05T07:56:25.59Z</time></trkpt><trkpt lat="43.869885" lon="12.2293483"><ele>794.0</ele><time>2026-04-05T07:56:26.589Z</time></trkpt><trkpt lat="43.86984" lon="12.22905"><ele>792.0</ele><time>2026-04-05T07:56:27.589Z</time></trkpt><trkpt lat="43.8698" lon="12.22875"><ele>789.0</ele><time>2026-04-05T07:56:28.589Z</time></trkpt><trkpt lat="43.8697517" lon="12.2284567"><ele>786.0</ele><time>2026-04-05T07:56:29.589Z</time></trkpt><trkpt lat="43.86971" lon="12.2281617"><ele>783.0</ele><time>2026-04-05T07:56:30.589Z</time></trkpt><trkpt lat="43.8696633" lon="12.22788"><ele>780.6666666666667</ele><time>2026-04-05T07:56:31.589Z</time></trkpt><trkpt lat="43.8696217" lon="12.2276017"><ele>778.3333333333334</ele><time>2026-04-05T07:56:32.589Z</time></trkpt><trkpt lat="43.869585" lon="12.2273417"><ele>776.0</ele><time>2026-04-05T07:56:33.59Z</time></trkpt><trkpt lat="43.86954" lon="12.2270883"><ele>775.0</ele><time>2026-04-05T07:56:34.59Z</time></trkpt><trkpt lat="43.8694917" lon="12.2268283"><ele>774.0</ele><time>2026-04-05T07:56:35.589Z</time></trkpt><trkpt lat="43.8694283" lon="12.2265633"><ele>773.0</ele><time>2026-04-05T07:56:36.59Z</time></trkpt><trkpt lat="43.869345" lon="12.2262883"><ele>773.3333333333334</ele><time>2026-04-05T07:56:37.59Z</time></trkpt><trkpt lat="43.8692467" lon="12.2260267"><ele>773.6666666666667</ele><time>2026-04-05T07:56:38.59Z</time></trkpt><trkpt lat="43.869145" lon="12.22578"><ele>774.0</ele><time>2026-04-05T07:56:39.589Z</time></trkpt><trkpt lat="43.86905" lon="12.2255567"><ele>774.0</ele><time>2026-04-05T07:56:40.59Z</time></trkpt><trkpt lat="43.8689733" lon="12.2253567"><ele>774.0</ele><time>2026-04-05T07:56:41.59Z</time></trkpt><trkpt lat="43.8688967" lon="12.2251683"><ele>774.0</ele><time>2026-04-05T07:56:42.589Z</time></trkpt><trkpt lat="43.8688233" lon="12.225005"><ele>774.0</ele><time>2026-04-05T07:56:43.589Z</time></trkpt><trkpt lat="43.868725" lon="12.22486"><ele>774.0</ele><time>2026-04-05T07:56:44.59Z</time></trkpt><trkpt lat="43.8685917" lon="12.22474"><ele>774.0</ele><time>2026-04-05T07:56:45.59Z</time></trkpt><trkpt lat="43.8684283" lon="12.22465"><ele>771.6666666666666</ele><time>2026-04-05T07:56:46.59Z</time></trkpt><trkpt lat="43.8682433" lon="12.2245883"><ele>769.3333333333333</ele><time>2026-04-05T07:56:47.589Z</time></trkpt><trkpt lat="43.86806" lon="12.2245317"><ele>767.0</ele><time>2026-04-05T07:56:48.59Z</time></trkpt><trkpt lat="43.8678983" lon="12.2244967"><ele>767.0</ele><time>2026-04-05T07:56:49.589Z</time></trkpt><trkpt lat="43.8677733" lon="12.2244617"><ele>767.0</ele><time>2026-04-05T07:56:50.59Z</time></trkpt><trkpt lat="43.8676633" lon="12.2244383"><ele>767.0</ele><time>2026-04-05T07:56:51.589Z</time></trkpt><trkpt lat="43.8675717" lon="12.2244117"><ele>767.0</ele><time>2026-04-05T07:56:52.59Z</time></trkpt><trkpt lat="43.8674967" lon="12.2243533"><ele>767.0</ele><time>2026-04-05T07:56:53.589Z</time></trkpt><trkpt lat="43.867455" lon="12.22425"><ele>767.0</ele><time>2026-04-05T07:56:54.59Z</time></trkpt><trkpt lat="43.8674567" lon="12.22413"><ele>767.0</ele><time>2026-04-05T07:56:55.589Z</time></trkpt><trkpt lat="43.867515" lon="12.224025"><ele>767.0</ele><time>2026-04-05T07:56:56.59Z</time></trkpt><trkpt lat="43.8675983" lon="12.2239583"><ele>767.0</ele><time>2026-04-05T07:56:57.589Z</time></trkpt><trkpt lat="43.8677017" lon="12.2239417"><ele>767.0</ele><time>2026-04-05T07:56:58.59Z</time></trkpt><trkpt lat="43.8678167" lon="12.2239267"><ele>764.4000000000001</ele><time>2026-04-05T07:56:59.59Z</time></trkpt><trkpt lat="43.86791" lon="12.2238733"><ele>761.8000000000001</ele><time>2026-04-05T07:57:00.59Z</time></trkpt><trkpt lat="43.867975" lon="12.22376"><ele>759.2</ele><time>2026-04-05T07:57:01.59Z</time></trkpt><trkpt lat="43.867985" lon="12.2236133"><ele>756.6</ele><time>2026-04-05T07:57:02.59Z</time></trkpt><trkpt lat="43.86794" lon="12.22347"><ele>754.0</ele><time>2026-04-05T07:57:03.589Z</time></trkpt><trkpt lat="43.8678533" lon="12.2233467"><ele>754.0</ele><time>2026-04-05T07:57:04.59Z</time></trkpt><trkpt lat="43.867725" lon="12.2232717"><ele>754.0</ele><time>2026-04-05T07:57:05.59Z</time></trkpt><trkpt lat="43.8675717" lon="12.2232233"><ele>754.0</ele><time>2026-04-05T07:57:06.59Z</time></trkpt><trkpt lat="43.867395" lon="12.223185"><ele>749.6666666666667</ele><time>2026-04-05T07:57:07.59Z</time></trkpt><trkpt lat="43.86723" lon="12.2231267"><ele>745.3333333333334</ele><time>2026-04-05T07:57:08.589Z</time></trkpt><trkpt lat="43.8670783" lon="12.2230767"><ele>741.0</ele><time>2026-04-05T07:57:09.59Z</time></trkpt><trkpt lat="43.86695" lon="12.2230333"><ele>741.0</ele><time>2026-04-05T07:57:10.59Z</time></trkpt><trkpt lat="43.866835" lon="12.2229883"><ele>741.0</ele><time>2026-04-05T07:57:11.589Z</time></trkpt><trkpt lat="43.8667433" lon="12.2229233"><ele>741.0</ele><time>2026-04-05T07:57:12.59Z</time></trkpt><trkpt lat="43.866685" lon="12.2228317"><ele>741.0</ele><time>2026-04-05T07:57:13.59Z</time></trkpt><trkpt lat="43.8666867" lon="12.2227033"><ele>741.0</ele><time>2026-04-05T07:57:14.59Z</time></trkpt><trkpt lat="43.8667217" lon="12.2225767"><ele>741.0</ele><time>2026-04-05T07:57:15.589Z</time></trkpt><trkpt lat="43.866815" lon="12.22247"><ele>741.0</ele><time>2026-04-05T07:57:16.59Z</time></trkpt><trkpt lat="43.8669383" lon="12.2224067"><ele>741.0</ele><time>2026-04-05T07:57:17.59Z</time></trkpt><trkpt lat="43.867075" lon="12.2223833"><ele>741.0</ele><time>2026-04-05T07:57:18.589Z</time></trkpt><trkpt lat="43.8672083" lon="12.2223317"><ele>738.75</ele><time>2026-04-05T07:57:19.59Z</time></trkpt><trkpt lat="43.8673283" lon="12.2222317"><ele>736.5</ele><time>2026-04-05T07:57:20.59Z</time></trkpt><trkpt lat="43.8674183" lon="12.2220917"><ele>734.25</ele><time>2026-04-05T07:57:21.59Z</time></trkpt><trkpt lat="43.8674733" lon="12.2219233"><ele>732.0</ele><time>2026-04-05T07:57:22.589Z</time></trkpt><trkpt lat="43.867495" lon="12.2217383"><ele>732.0</ele><time>2026-04-05T07:57:23.589Z</time></trkpt><trkpt lat="43.8674767" lon="12.22156"><ele>732.0</ele><time>2026-04-05T07:57:24.59Z</time></trkpt><trkpt lat="43.86743" lon="12.2213983"><ele>732.0</ele><time>2026-04-05T07:57:25.59Z</time></trkpt><trkpt lat="43.867345" lon="12.2212533"><ele>732.0</ele><time>2026-04-05T07:57:26.589Z</time></trkpt><trkpt lat="43.8672233" lon="12.2211367"><ele>728.6666666666666</ele><time>2026-04-05T07:57:27.59Z</time></trkpt><trkpt lat="43.867075" lon="12.2210667"><ele>725.3333333333333</ele><time>2026-04-05T07:57:28.59Z</time></trkpt><trkpt lat="43.866885" lon="12.2210317"><ele>722.0</ele><time>2026-04-05T07:57:29.589Z</time></trkpt><trkpt lat="43.8666867" lon="12.22102"><ele>722.0</ele><time>2026-04-05T07:57:30.59Z</time></trkpt><trkpt lat="43.8664933" lon="12.2210067"><ele>722.0</ele><time>2026-04-05T07:57:31.589Z</time></trkpt><trkpt lat="43.86632" lon="12.221"><ele>722.0</ele><time>2026-04-05T07:57:32.59Z</time></trkpt><trkpt lat="43.8661517" lon="12.2209833"><ele>722.0</ele><time>2026-04-05T07:57:33.59Z</time></trkpt><trkpt lat="43.86599" lon="12.2209233"><ele>722.0</ele><time>2026-04-05T07:57:34.59Z</time></trkpt><trkpt lat="43.8658483" lon="12.220835"><ele>722.0</ele><time>2026-04-05T07:57:35.59Z</time></trkpt><trkpt lat="43.8657267" lon="12.2207533"><ele>722.75</ele><time>2026-04-05T07:57:36.59Z</time></trkpt><trkpt lat="43.8656217" lon="12.2207"><ele>723.5</ele><time>2026-04-05T07:57:37.589Z</time></trkpt><trkpt lat="43.8655033" lon="12.2206983"><ele>724.25</ele><time>2026-04-05T07:57:38.59Z</time></trkpt><trkpt lat="43.8653867" lon="12.2207483"><ele>725.0</ele><time>2026-04-05T07:57:39.59Z</time></trkpt><trkpt lat="43.865275" lon="12.2208133"><ele>725.0</ele><time>2026-04-05T07:57:40.59Z</time></trkpt><trkpt lat="43.8651483" lon="12.2208317"><ele>725.0</ele><time>2026-04-05T07:57:41.589Z</time></trkpt><trkpt lat="43.865005" lon="12.22079"><ele>725.0</ele><time>2026-04-05T07:57:42.59Z</time></trkpt><trkpt lat="43.8648467" lon="12.220685"><ele>725.0</ele><time>2026-04-05T07:57:43.59Z</time></trkpt><trkpt lat="43.8646933" lon="12.2205667"><ele>720.75</ele><time>2026-04-05T07:57:44.59Z</time></trkpt><trkpt lat="43.8645583" lon="12.22046"><ele>716.5</ele><time>2026-04-05T07:57:45.589Z</time></trkpt><trkpt lat="43.8644333" lon="12.220375"><ele>712.25</ele><time>2026-04-05T07:57:46.59Z</time></trkpt><trkpt lat="43.8643283" lon="12.220295"><ele>708.0</ele><time>2026-04-05T07:57:47.59Z</time></trkpt><trkpt lat="43.8642467" lon="12.2202167"><ele>708.0</ele><time>2026-04-05T07:57:48.589Z</time></trkpt><trkpt lat="43.8641933" lon="12.2201083"><ele>708.0</ele><time>2026-04-05T07:57:49.59Z</time></trkpt><trkpt lat="43.8641933" lon="12.2199683"><ele>708.0</ele><time>2026-04-05T07:57:50.59Z</time></trkpt><trkpt lat="43.8642383" lon="12.2198333"><ele>708.0</ele><time>2026-04-05T07:57:51.589Z</time></trkpt><trkpt lat="43.86434" lon="12.2197133"><ele>708.0</ele><time>2026-04-05T07:57:52.59Z</time></trkpt><trkpt lat="43.8644567" lon="12.2196167"><ele>704.5</ele><time>2026-04-05T07:57:53.589Z</time></trkpt><trkpt lat="43.8645633" lon="12.21952"><ele>701.0</ele><time>2026-04-05T07:57:54.589Z</time></trkpt><trkpt lat="43.864635" lon="12.2193983"><ele>697.5</ele><time>2026-04-05T07:57:55.59Z</time></trkpt><trkpt lat="43.864665" lon="12.2192317"><ele>694.0</ele><time>2026-04-05T07:57:56.59Z</time></trkpt><trkpt lat="43.8646417" lon="12.2190367"><ele>691.3333333333334</ele><time>2026-04-05T07:57:57.589Z</time></trkpt><trkpt lat="43.8645883" lon="12.218835"><ele>688.6666666666666</ele><time>2026-04-05T07:57:58.59Z</time></trkpt><trkpt lat="43.8645367" lon="12.2186133"><ele>686.0</ele><time>2026-04-05T07:57:59.589Z</time></trkpt><trkpt lat="43.8645183" lon="12.2183567"><ele>683.3333333333333</ele><time>2026-04-05T07:58:00.59Z</time></trkpt><trkpt lat="43.8645383" lon="12.2181017"><ele>680.6666666666666</ele><time>2026-04-05T07:58:01.589Z</time></trkpt><trkpt lat="43.8645717" lon="12.21786"><ele>678.0</ele><time>2026-04-05T07:58:02.589Z</time></trkpt><trkpt lat="43.8646017" lon="12.2176367"><ele>678.0</ele><time>2026-04-05T07:58:03.59Z</time></trkpt><trkpt lat="43.8646267" lon="12.2174483"><ele>678.0</ele><time>2026-04-05T07:58:04.589Z</time></trkpt><trkpt lat="43.8646383" lon="12.2172733"><ele>678.0</ele><time>2026-04-05T07:58:05.59Z</time></trkpt><trkpt lat="43.8646233" lon="12.2170883"><ele>678.0</ele><time>2026-04-05T07:58:06.59Z</time></trkpt><trkpt lat="43.8645783" lon="12.2169167"><ele>676.5</ele><time>2026-04-05T07:58:07.59Z</time></trkpt><trkpt lat="43.8645233" lon="12.21676"><ele>675.0</ele><time>2026-04-05T07:58:08.59Z</time></trkpt><trkpt lat="43.86446" lon="12.21662"><ele>673.5</ele><time>2026-04-05T07:58:09.59Z</time></trkpt><trkpt lat="43.86438" lon="12.2165083"><ele>672.0</ele><time>2026-04-05T07:58:10.59Z</time></trkpt><trkpt lat="43.8642833" lon="12.216435"><ele>669.3333333333334</ele><time>2026-04-05T07:58:11.59Z</time></trkpt><trkpt lat="43.8641467" lon="12.2163983"><ele>666.6666666666667</ele><time>2026-04-05T07:58:12.59Z</time></trkpt><trkpt lat="43.8639833" lon="12.2164017"><ele>664.0</ele><time>2026-04-05T07:58:13.59Z</time></trkpt><trkpt lat="43.8637967" lon="12.21645"><ele>665.0</ele><time>2026-04-05T07:58:14.59Z</time></trkpt><trkpt lat="43.8636167" lon="12.2165267"><ele>666.0</ele><time>2026-04-05T07:58:15.589Z</time></trkpt><trkpt lat="43.86346" lon="12.2165817"><ele>667.0</ele><time>2026-04-05T07:58:16.59Z</time></trkpt><trkpt lat="43.8633333" lon="12.216635"><ele>667.0</ele><time>2026-04-05T07:58:17.59Z</time></trkpt><trkpt lat="43.86323" lon="12.216675"><ele>667.0</ele><time>2026-04-05T07:58:18.59Z</time></trkpt><trkpt lat="43.8631417" lon="12.2167067"><ele>667.0</ele><time>2026-04-05T07:58:19.589Z</time></trkpt><trkpt lat="43.863075" lon="12.2167217"><ele>667.0</ele><time>2026-04-05T07:58:20.59Z</time></trkpt><trkpt lat="43.8629617" lon="12.21667"><ele>667.0</ele><time>2026-04-05T07:58:22.59Z</time></trkpt><trkpt lat="43.8629567" lon="12.2165583"><ele>664.25</ele><time>2026-04-05T07:58:23.59Z</time></trkpt><trkpt lat="43.8629817" lon="12.21643"><ele>661.5</ele><time>2026-04-05T07:58:24.59Z</time></trkpt><trkpt lat="43.86303" lon="12.2162717"><ele>658.75</ele><time>2026-04-05T07:58:25.59Z</time></trkpt><trkpt lat="43.8630617" lon="12.2160917"><ele>656.0</ele><time>2026-04-05T07:58:26.589Z</time></trkpt><trkpt lat="43.8630783" lon="12.2159117"><ele>656.0</ele><time>2026-04-05T07:58:27.59Z</time></trkpt><trkpt lat="43.863105" lon="12.2157383"><ele>656.0</ele><time>2026-04-05T07:58:28.59Z</time></trkpt><trkpt lat="43.863175" lon="12.2155667"><ele>656.0</ele><time>2026-04-05T07:58:29.59Z</time></trkpt><trkpt lat="43.8632833" lon="12.21541"><ele>656.0</ele><time>2026-04-05T07:58:30.589Z</time></trkpt><trkpt lat="43.8633817" lon="12.21525"><ele>654.6666666666666</ele><time>2026-04-05T07:58:31.589Z</time></trkpt><trkpt lat="43.86347" lon="12.2150683"><ele>653.3333333333334</ele><time>2026-04-05T07:58:32.59Z</time></trkpt><trkpt lat="43.8635367" lon="12.2148517"><ele>652.0</ele><time>2026-04-05T07:58:33.589Z</time></trkpt><trkpt lat="43.863575" lon="12.2146183"><ele>648.6666666666667</ele><time>2026-04-05T07:58:34.589Z</time></trkpt><trkpt lat="43.8636017" lon="12.2143917"><ele>645.3333333333334</ele><time>2026-04-05T07:58:35.59Z</time></trkpt><trkpt lat="43.8636083" lon="12.21418"><ele>642.0</ele><time>2026-04-05T07:58:36.589Z</time></trkpt><trkpt lat="43.8635917" lon="12.2139683"><ele>639.6</ele><time>2026-04-05T07:58:37.589Z</time></trkpt><trkpt lat="43.8635667" lon="12.21379"><ele>637.2</ele><time>2026-04-05T07:58:38.589Z</time></trkpt><trkpt lat="43.8635467" lon="12.213645"><ele>634.8</ele><time>2026-04-05T07:58:39.59Z</time></trkpt><trkpt lat="43.86354" lon="12.21352"><ele>632.4</ele><time>2026-04-05T07:58:40.589Z</time></trkpt><trkpt lat="43.8635667" lon="12.213395"><ele>630.0</ele><time>2026-04-05T07:58:41.59Z</time></trkpt><trkpt lat="43.8636433" lon="12.21328"><ele>630.0</ele><time>2026-04-05T07:58:42.59Z</time></trkpt><trkpt lat="43.8637667" lon="12.213165"><ele>630.0</ele><time>2026-04-05T07:58:43.589Z</time></trkpt><trkpt lat="43.8639033" lon="12.213085"><ele>630.0</ele><time>2026-04-05T07:58:44.589Z</time></trkpt><trkpt lat="43.864015" lon="12.213015"><ele>630.0</ele><time>2026-04-05T07:58:45.59Z</time></trkpt><trkpt lat="43.8641" lon="12.21296"><ele>628.3333333333334</ele><time>2026-04-05T07:58:46.59Z</time></trkpt><trkpt lat="43.8641583" lon="12.2128933"><ele>626.6666666666666</ele><time>2026-04-05T07:58:47.589Z</time></trkpt><trkpt lat="43.8641883" lon="12.212805"><ele>625.0</ele><time>2026-04-05T07:58:48.59Z</time></trkpt><trkpt lat="43.8641583" lon="12.2127083"><ele>623.3333333333333</ele><time>2026-04-05T07:58:49.59Z</time></trkpt><trkpt lat="43.86409" lon="12.2126367"><ele>621.6666666666666</ele><time>2026-04-05T07:58:50.589Z</time></trkpt><trkpt lat="43.8639817" lon="12.2126267"><ele>620.0</ele><time>2026-04-05T07:58:51.59Z</time></trkpt><trkpt lat="43.863855" lon="12.2126717"><ele>620.0</ele><time>2026-04-05T07:58:52.589Z</time></trkpt><trkpt lat="43.863735" lon="12.2127333"><ele>620.0</ele><time>2026-04-05T07:58:53.59Z</time></trkpt><trkpt lat="43.8636367" lon="12.2127783"><ele>620.0</ele><time>2026-04-05T07:58:54.59Z</time></trkpt><trkpt lat="43.8635583" lon="12.2128033"><ele>620.0</ele><time>2026-04-05T07:58:55.59Z</time></trkpt><trkpt lat="43.8634517" lon="12.2127267"><ele>620.0</ele><time>2026-04-05T07:58:57.589Z</time></trkpt><trkpt lat="43.8634433" lon="12.2126267"><ele>620.0</ele><time>2026-04-05T07:58:58.59Z</time></trkpt><trkpt lat="43.86347" lon="12.2125"><ele>620.0</ele><time>2026-04-05T07:58:59.59Z</time></trkpt><trkpt lat="43.8635283" lon="12.2123533"><ele>620.0</ele><time>2026-04-05T07:59:00.59Z</time></trkpt><trkpt lat="43.863605" lon="12.212165"><ele>620.0</ele><time>2026-04-05T07:59:01.59Z</time></trkpt><trkpt lat="43.8636767" lon="12.2119567"><ele>616.3333333333333</ele><time>2026-04-05T07:59:02.59Z</time></trkpt><trkpt lat="43.863745" lon="12.211755"><ele>612.6666666666666</ele><time>2026-04-05T07:59:03.589Z</time></trkpt><trkpt lat="43.8638083" lon="12.21157"><ele>609.0</ele><time>2026-04-05T07:59:04.59Z</time></trkpt><trkpt lat="43.863865" lon="12.2113883"><ele>608.25</ele><time>2026-04-05T07:59:05.59Z</time></trkpt><trkpt lat="43.8638917" lon="12.2112167"><ele>607.5</ele><time>2026-04-05T07:59:06.589Z</time></trkpt><trkpt lat="43.8638883" lon="12.211055"><ele>606.75</ele><time>2026-04-05T07:59:07.59Z</time></trkpt><trkpt lat="43.8638717" lon="12.2108983"><ele>606.0</ele><time>2026-04-05T07:59:08.59Z</time></trkpt><trkpt lat="43.8638533" lon="12.21076"><ele>605.0</ele><time>2026-04-05T07:59:09.59Z</time></trkpt><trkpt lat="43.8638383" lon="12.2106183"><ele>604.0</ele><time>2026-04-05T07:59:10.59Z</time></trkpt><trkpt lat="43.8638167" lon="12.2104717"><ele>603.0</ele><time>2026-04-05T07:59:11.59Z</time></trkpt><trkpt lat="43.8637917" lon="12.210325"><ele>602.0</ele><time>2026-04-05T07:59:12.59Z</time></trkpt><trkpt lat="43.8637617" lon="12.2101717"><ele>601.0</ele><time>2026-04-05T07:59:13.59Z</time></trkpt><trkpt lat="43.86374" lon="12.2100067"><ele>601.0</ele><time>2026-04-05T07:59:14.59Z</time></trkpt><trkpt lat="43.86372" lon="12.2098367"><ele>601.0</ele><time>2026-04-05T07:59:15.589Z</time></trkpt><trkpt lat="43.863695" lon="12.20967"><ele>601.0</ele><time>2026-04-05T07:59:16.589Z</time></trkpt><trkpt lat="43.86367" lon="12.2095067"><ele>601.0</ele><time>2026-04-05T07:59:17.59Z</time></trkpt><trkpt lat="43.8636467" lon="12.209345"><ele>598.75</ele><time>2026-04-05T07:59:18.589Z</time></trkpt><trkpt lat="43.8636083" lon="12.2091933"><ele>596.5</ele><time>2026-04-05T07:59:19.59Z</time></trkpt><trkpt lat="43.8635433" lon="12.20906"><ele>594.25</ele><time>2026-04-05T07:59:20.589Z</time></trkpt><trkpt lat="43.863455" lon="12.2089317"><ele>592.0</ele><time>2026-04-05T07:59:21.589Z</time></trkpt><trkpt lat="43.8633533" lon="12.208815"><ele>589.5</ele><time>2026-04-05T07:59:22.59Z</time></trkpt><trkpt lat="43.86325" lon="12.208715"><ele>587.0</ele><time>2026-04-05T07:59:23.589Z</time></trkpt><trkpt lat="43.8631383" lon="12.20863"><ele>584.5</ele><time>2026-04-05T07:59:24.59Z</time></trkpt><trkpt lat="43.86304" lon="12.2085467"><ele>582.0</ele><time>2026-04-05T07:59:25.59Z</time></trkpt><trkpt lat="43.862955" lon="12.2084617"><ele>582.0</ele><time>2026-04-05T07:59:26.59Z</time></trkpt><trkpt lat="43.8628633" lon="12.208395"><ele>582.0</ele><time>2026-04-05T07:59:27.589Z</time></trkpt><trkpt lat="43.862755" lon="12.2083567"><ele>582.0</ele><time>2026-04-05T07:59:28.59Z</time></trkpt><trkpt lat="43.862635" lon="12.2083367"><ele>582.0</ele><time>2026-04-05T07:59:29.589Z</time></trkpt><trkpt lat="43.86251" lon="12.2083317"><ele>583.0</ele><time>2026-04-05T07:59:30.589Z</time></trkpt><trkpt lat="43.86238" lon="12.20834"><ele>584.0</ele><time>2026-04-05T07:59:31.59Z</time></trkpt><trkpt lat="43.8622467" lon="12.2083367"><ele>585.0</ele><time>2026-04-05T07:59:32.59Z</time></trkpt><trkpt lat="43.8621067" lon="12.2083333"><ele>586.0</ele><time>2026-04-05T07:59:33.589Z</time></trkpt><trkpt lat="43.8619583" lon="12.2083283"><ele>586.0</ele><time>2026-04-05T07:59:34.59Z</time></trkpt><trkpt lat="43.8618017" lon="12.2083083"><ele>586.0</ele><time>2026-04-05T07:59:35.59Z</time></trkpt><trkpt lat="43.8616483" lon="12.2082983"><ele>586.0</ele><time>2026-04-05T07:59:36.59Z</time></trkpt><trkpt lat="43.861485" lon="12.2082917"><ele>589.3333333333334</ele><time>2026-04-05T07:59:37.59Z</time></trkpt><trkpt lat="43.861325" lon="12.2082783"><ele>592.6666666666666</ele><time>2026-04-05T07:59:38.59Z</time></trkpt><trkpt lat="43.8611617" lon="12.2082383"><ele>596.0</ele><time>2026-04-05T07:59:39.59Z</time></trkpt><trkpt lat="43.861015" lon="12.2081833"><ele>595.8</ele><time>2026-04-05T07:59:40.589Z</time></trkpt><trkpt lat="43.86089" lon="12.208125"><ele>595.6</ele><time>2026-04-05T07:59:41.589Z</time></trkpt><trkpt lat="43.86079" lon="12.20806"><ele>595.4</ele><time>2026-04-05T07:59:42.589Z</time></trkpt><trkpt lat="43.8607" lon="12.2079983"><ele>595.2</ele><time>2026-04-05T07:59:43.59Z</time></trkpt><trkpt lat="43.8606017" lon="12.20798"><ele>595.0</ele><time>2026-04-05T07:59:44.59Z</time></trkpt><trkpt lat="43.86049" lon="12.2080033"><ele>595.0</ele><time>2026-04-05T07:59:45.59Z</time></trkpt><trkpt lat="43.860375" lon="12.2080683"><ele>595.0</ele><time>2026-04-05T07:59:46.589Z</time></trkpt><trkpt lat="43.8602983" lon="12.2081733"><ele>595.0</ele><time>2026-04-05T07:59:47.59Z</time></trkpt><trkpt lat="43.86024" lon="12.20829"><ele>595.0</ele><time>2026-04-05T07:59:48.59Z</time></trkpt><trkpt lat="43.8602167" lon="12.20844"><ele>595.0</ele><time>2026-04-05T07:59:49.59Z</time></trkpt><trkpt lat="43.8602167" lon="12.2086333"><ele>600.3333333333334</ele><time>2026-04-05T07:59:50.59Z</time></trkpt><trkpt lat="43.8602567" lon="12.208855"><ele>605.6666666666666</ele><time>2026-04-05T07:59:51.59Z</time></trkpt><trkpt lat="43.860305" lon="12.20907"><ele>611.0</ele><time>2026-04-05T07:59:52.59Z</time></trkpt><trkpt lat="43.860335" lon="12.2092733"><ele>610.75</ele><time>2026-04-05T07:59:53.59Z</time></trkpt><trkpt lat="43.860335" lon="12.2094617"><ele>610.5</ele><time>2026-04-05T07:59:54.59Z</time></trkpt><trkpt lat="43.8603267" lon="12.2096267"><ele>610.25</ele><time>2026-04-05T07:59:55.59Z</time></trkpt><trkpt lat="43.8602967" lon="12.2097617"><ele>610.0</ele><time>2026-04-05T07:59:56.59Z</time></trkpt><trkpt lat="43.860235" lon="12.2098883"><ele>610.0</ele><time>2026-04-05T07:59:57.59Z</time></trkpt><trkpt lat="43.8601433" lon="12.2099983"><ele>610.0</ele><time>2026-04-05T07:59:58.59Z</time></trkpt><trkpt lat="43.8600383" lon="12.2100933"><ele>610.0</ele><time>2026-04-05T07:59:59.59Z</time></trkpt><trkpt lat="43.8599183" lon="12.2101383"><ele>610.0</ele><time>2026-04-05T08:00:00.59Z</time></trkpt><trkpt lat="43.8598083" lon="12.2101333"><ele>611.6</ele><time>2026-04-05T08:00:01.589Z</time></trkpt><trkpt lat="43.85972" lon="12.2100583"><ele>613.2</ele><time>2026-04-05T08:00:02.59Z</time></trkpt><trkpt lat="43.85965" lon="12.20994"><ele>614.8</ele><time>2026-04-05T08:00:03.589Z</time></trkpt><trkpt lat="43.85959" lon="12.2098433"><ele>616.4</ele><time>2026-04-05T08:00:04.59Z</time></trkpt><trkpt lat="43.8595133" lon="12.2097833"><ele>618.0</ele><time>2026-04-05T08:00:05.589Z</time></trkpt><trkpt lat="43.8594217" lon="12.2097667"><ele>618.0</ele><time>2026-04-05T08:00:06.589Z</time></trkpt><trkpt lat="43.8593317" lon="12.209805"><ele>618.0</ele><time>2026-04-05T08:00:07.59Z</time></trkpt><trkpt lat="43.8592567" lon="12.209875"><ele>618.0</ele><time>2026-04-05T08:00:08.59Z</time></trkpt><trkpt lat="43.8591917" lon="12.2099817"><ele>618.0</ele><time>2026-04-05T08:00:09.59Z</time></trkpt><trkpt lat="43.85915" lon="12.2101117"><ele>618.0</ele><time>2026-04-05T08:00:10.59Z</time></trkpt><trkpt lat="43.859125" lon="12.210255"><ele>621.6</ele><time>2026-04-05T08:00:11.59Z</time></trkpt><trkpt lat="43.8590717" lon="12.2103633"><ele>625.1999999999999</ele><time>2026-04-05T08:00:12.59Z</time></trkpt><trkpt lat="43.859" lon="12.210405"><ele>628.8</ele><time>2026-04-05T08:00:13.59Z</time></trkpt><trkpt lat="43.8589" lon="12.21038"><ele>632.4</ele><time>2026-04-05T08:00:14.589Z</time></trkpt><trkpt lat="43.8587783" lon="12.2102917"><ele>636.0</ele><time>2026-04-05T08:00:15.59Z</time></trkpt><trkpt lat="43.85865" lon="12.2101633"><ele>636.0</ele><time>2026-04-05T08:00:16.59Z</time></trkpt><trkpt lat="43.8585433" lon="12.2100417"><ele>636.0</ele><time>2026-04-05T08:00:17.59Z</time></trkpt><trkpt lat="43.858465" lon="12.20992"><ele>636.0</ele><time>2026-04-05T08:00:18.59Z</time></trkpt><trkpt lat="43.8584033" lon="12.2098167"><ele>636.0</ele><time>2026-04-05T08:00:19.59Z</time></trkpt><trkpt lat="43.8583367" lon="12.2097433"><ele>636.0</ele><time>2026-04-05T08:00:20.59Z</time></trkpt><trkpt lat="43.8582567" lon="12.20973"><ele>637.3333333333334</ele><time>2026-04-05T08:00:21.589Z</time></trkpt><trkpt lat="43.8581867" lon="12.2097817"><ele>638.6666666666666</ele><time>2026-04-05T08:00:22.59Z</time></trkpt><trkpt lat="43.8581417" lon="12.2098817"><ele>640.0</ele><time>2026-04-05T08:00:23.59Z</time></trkpt><trkpt lat="43.8581367" lon="12.2100117"><ele>641.3333333333333</ele><time>2026-04-05T08:00:24.59Z</time></trkpt><trkpt lat="43.8581383" lon="12.21014"><ele>642.6666666666666</ele><time>2026-04-05T08:00:25.59Z</time></trkpt><trkpt lat="43.8581083" lon="12.21025"><ele>644.0</ele><time>2026-04-05T08:00:26.589Z</time></trkpt><trkpt lat="43.85804" lon="12.2103367"><ele>646.0</ele><time>2026-04-05T08:00:27.59Z</time></trkpt><trkpt lat="43.85794" lon="12.210405"><ele>648.0</ele><time>2026-04-05T08:00:28.589Z</time></trkpt><trkpt lat="43.8578233" lon="12.2104633"><ele>650.0</ele><time>2026-04-05T08:00:29.589Z</time></trkpt><trkpt lat="43.8577017" lon="12.2105083"><ele>652.0</ele><time>2026-04-05T08:00:30.589Z</time></trkpt><trkpt lat="43.8575617" lon="12.2105317"><ele>656.0</ele><time>2026-04-05T08:00:31.59Z</time></trkpt><trkpt lat="43.8574067" lon="12.2105"><ele>660.0</ele><time>2026-04-05T08:00:32.59Z</time></trkpt><trkpt lat="43.8572533" lon="12.2104217"><ele>664.0</ele><time>2026-04-05T08:00:33.59Z</time></trkpt><trkpt lat="43.85712" lon="12.21033"><ele>664.0</ele><time>2026-04-05T08:00:34.59Z</time></trkpt><trkpt lat="43.8570133" lon="12.210265"><ele>664.0</ele><time>2026-04-05T08:00:35.59Z</time></trkpt><trkpt lat="43.856925" lon="12.2102367"><ele>664.0</ele><time>2026-04-05T08:00:36.59Z</time></trkpt><trkpt lat="43.856845" lon="12.2102517"><ele>664.0</ele><time>2026-04-05T08:00:37.59Z</time></trkpt><trkpt lat="43.8567867" lon="12.21033"><ele>664.0</ele><time>2026-04-05T08:00:38.589Z</time></trkpt><trkpt lat="43.8567517" lon="12.2104633"><ele>666.2</ele><time>2026-04-05T08:00:39.59Z</time></trkpt><trkpt lat="43.8567567" lon="12.21062"><ele>668.4000000000001</ele><time>2026-04-05T08:00:40.59Z</time></trkpt><trkpt lat="43.8567533" lon="12.21076"><ele>670.6</ele><time>2026-04-05T08:00:41.589Z</time></trkpt><trkpt lat="43.8567217" lon="12.210865"><ele>672.8</ele><time>2026-04-05T08:00:42.59Z</time></trkpt><trkpt lat="43.8566517" lon="12.2109433"><ele>675.0</ele><time>2026-04-05T08:00:43.59Z</time></trkpt><trkpt lat="43.8565467" lon="12.2110017"><ele>677.6</ele><time>2026-04-05T08:00:44.59Z</time></trkpt><trkpt lat="43.8564583" lon="12.2110483"><ele>680.2</ele><time>2026-04-05T08:00:45.589Z</time></trkpt><trkpt lat="43.8564033" lon="12.211105"><ele>682.8</ele><time>2026-04-05T08:00:46.59Z</time></trkpt><trkpt lat="43.8563933" lon="12.21126"><ele>685.4</ele><time>2026-04-05T08:00:48.59Z</time></trkpt><trkpt lat="43.856465" lon="12.2113367"><ele>688.0</ele><time>2026-04-05T08:00:49.59Z</time></trkpt><trkpt lat="43.8565583" lon="12.2114017"><ele>688.0</ele><time>2026-04-05T08:00:50.59Z</time></trkpt><trkpt lat="43.85665" lon="12.2114533"><ele>688.0</ele><time>2026-04-05T08:00:51.59Z</time></trkpt><trkpt lat="43.8567267" lon="12.2115233"><ele>688.0</ele><time>2026-04-05T08:00:52.589Z</time></trkpt><trkpt lat="43.856765" lon="12.21164"><ele>688.0</ele><time>2026-04-05T08:00:53.59Z</time></trkpt><trkpt lat="43.8567717" lon="12.2117833"><ele>688.0</ele><time>2026-04-05T08:00:54.59Z</time></trkpt><trkpt lat="43.8567383" lon="12.21198"><ele>692.3333333333334</ele><time>2026-04-05T08:00:55.589Z</time></trkpt><trkpt lat="43.8566733" lon="12.2121733"><ele>696.6666666666666</ele><time>2026-04-05T08:00:56.59Z</time></trkpt><trkpt lat="43.856595" lon="12.2123483"><ele>701.0</ele><time>2026-04-05T08:00:57.59Z</time></trkpt><trkpt lat="43.856485" lon="12.2124983"><ele>702.5</ele><time>2026-04-05T08:00:58.589Z</time></trkpt><trkpt lat="43.8563583" lon="12.2126367"><ele>704.0</ele><time>2026-04-05T08:00:59.59Z</time></trkpt><trkpt lat="43.8562317" lon="12.21276"><ele>705.5</ele><time>2026-04-05T08:01:00.589Z</time></trkpt><trkpt lat="43.8561383" lon="12.2128533"><ele>707.0</ele><time>2026-04-05T08:01:01.589Z</time></trkpt><trkpt lat="43.856055" lon="12.2129"><ele>707.0</ele><time>2026-04-05T08:01:02.589Z</time></trkpt><trkpt lat="43.8559733" lon="12.212895"><ele>707.0</ele><time>2026-04-05T08:01:03.59Z</time></trkpt><trkpt lat="43.8559033" lon="12.2128267"><ele>707.0</ele><time>2026-04-05T08:01:04.59Z</time></trkpt><trkpt lat="43.8558517" lon="12.2127217"><ele>707.0</ele><time>2026-04-05T08:01:05.589Z</time></trkpt><trkpt lat="43.8558067" lon="12.2126267"><ele>707.0</ele><time>2026-04-05T08:01:06.59Z</time></trkpt><trkpt lat="43.85575" lon="12.2125667"><ele>707.0</ele><time>2026-04-05T08:01:07.589Z</time></trkpt><trkpt lat="43.8556767" lon="12.2125483"><ele>709.8</ele><time>2026-04-05T08:01:08.59Z</time></trkpt><trkpt lat="43.8555867" lon="12.2126"><ele>712.6</ele><time>2026-04-05T08:01:09.59Z</time></trkpt><trkpt lat="43.8555167" lon="12.212695"><ele>715.4</ele><time>2026-04-05T08:01:10.589Z</time></trkpt><trkpt lat="43.8554733" lon="12.2128217"><ele>718.1999999999999</ele><time>2026-04-05T08:01:11.59Z</time></trkpt><trkpt lat="43.8554733" lon="12.2129883"><ele>721.0</ele><time>2026-04-05T08:01:12.59Z</time></trkpt><trkpt lat="43.8555083" lon="12.213195"><ele>722.0</ele><time>2026-04-05T08:01:13.589Z</time></trkpt><trkpt lat="43.8555517" lon="12.2134067"><ele>723.0</ele><time>2026-04-05T08:01:14.59Z</time></trkpt><trkpt lat="43.8555733" lon="12.213615"><ele>724.0</ele><time>2026-04-05T08:01:15.59Z</time></trkpt><trkpt lat="43.855545" lon="12.213825"><ele>723.75</ele><time>2026-04-05T08:01:16.59Z</time></trkpt><trkpt lat="43.8555067" lon="12.2139983"><ele>723.5</ele><time>2026-04-05T08:01:17.59Z</time></trkpt><trkpt lat="43.855475" lon="12.2141833"><ele>723.25</ele><time>2026-04-05T08:01:18.59Z</time></trkpt><trkpt lat="43.855465" lon="12.2143567"><ele>723.0</ele><time>2026-04-05T08:01:19.59Z</time></trkpt><trkpt lat="43.8554833" lon="12.2145267"><ele>723.0</ele><time>2026-04-05T08:01:20.59Z</time></trkpt><trkpt lat="43.8555333" lon="12.2147017"><ele>723.0</ele><time>2026-04-05T08:01:21.59Z</time></trkpt><trkpt lat="43.8555817" lon="12.2148533"><ele>723.0</ele><time>2026-04-05T08:01:22.59Z</time></trkpt><trkpt lat="43.8556067" lon="12.215005"><ele>723.0</ele><time>2026-04-05T08:01:23.59Z</time></trkpt><trkpt lat="43.8555867" lon="12.215155"><ele>724.75</ele><time>2026-04-05T08:01:24.589Z</time></trkpt><trkpt lat="43.8555283" lon="12.21529"><ele>726.5</ele><time>2026-04-05T08:01:25.59Z</time></trkpt><trkpt lat="43.8554433" lon="12.2154317"><ele>728.25</ele><time>2026-04-05T08:01:26.589Z</time></trkpt><trkpt lat="43.85537" lon="12.2155733"><ele>730.0</ele><time>2026-04-05T08:01:27.59Z</time></trkpt><trkpt lat="43.8553383" lon="12.2157133"><ele>732.0</ele><time>2026-04-05T08:01:28.59Z</time></trkpt><trkpt lat="43.85535" lon="12.215865"><ele>734.0</ele><time>2026-04-05T08:01:29.59Z</time></trkpt><trkpt lat="43.855415" lon="12.216015"><ele>736.0</ele><time>2026-04-05T08:01:30.589Z</time></trkpt><trkpt lat="43.8554767" lon="12.2161383"><ele>738.0</ele><time>2026-04-05T08:01:31.59Z</time></trkpt><trkpt lat="43.8555" lon="12.216245"><ele>740.0</ele><time>2026-04-05T08:01:32.59Z</time></trkpt><trkpt lat="43.8554833" lon="12.2163483"><ele>740.0</ele><time>2026-04-05T08:01:33.589Z</time></trkpt><trkpt lat="43.8554117" lon="12.216435"><ele>740.0</ele><time>2026-04-05T08:01:34.589Z</time></trkpt><trkpt lat="43.8553" lon="12.2164883"><ele>740.0</ele><time>2026-04-05T08:01:35.59Z</time></trkpt><trkpt lat="43.8551583" lon="12.2164933"><ele>740.0</ele><time>2026-04-05T08:01:36.59Z</time></trkpt><trkpt lat="43.8550017" lon="12.216455"><ele>739.3333333333333</ele><time>2026-04-05T08:01:37.59Z</time></trkpt><trkpt lat="43.8548333" lon="12.2163933"><ele>738.6666666666666</ele><time>2026-04-05T08:01:38.589Z</time></trkpt><trkpt lat="43.85464" lon="12.2163233"><ele>738.0</ele><time>2026-04-05T08:01:39.589Z</time></trkpt><trkpt lat="43.8544417" lon="12.21626"><ele>740.6666666666666</ele><time>2026-04-05T08:01:40.59Z</time></trkpt><trkpt lat="43.8542633" lon="12.2161967"><ele>743.3333333333333</ele><time>2026-04-05T08:01:41.589Z</time></trkpt><trkpt lat="43.8540917" lon="12.2161383"><ele>746.0</ele><time>2026-04-05T08:01:42.59Z</time></trkpt><trkpt lat="43.8539167" lon="12.2160817"><ele>746.0</ele><time>2026-04-05T08:01:43.589Z</time></trkpt><trkpt lat="43.8537467" lon="12.2159983"><ele>746.0</ele><time>2026-04-05T08:01:44.59Z</time></trkpt><trkpt lat="43.8535767" lon="12.215875"><ele>746.0</ele><time>2026-04-05T08:01:45.59Z</time></trkpt><trkpt lat="43.85342" lon="12.2157083"><ele>747.3333333333333</ele><time>2026-04-05T08:01:46.59Z</time></trkpt><trkpt lat="43.85329" lon="12.2155367"><ele>748.6666666666666</ele><time>2026-04-05T08:01:47.589Z</time></trkpt><trkpt lat="43.8531717" lon="12.215385"><ele>750.0</ele><time>2026-04-05T08:01:48.589Z</time></trkpt><trkpt lat="43.8530633" lon="12.2152533"><ele>750.0</ele><time>2026-04-05T08:01:49.59Z</time></trkpt><trkpt lat="43.852955" lon="12.2151517"><ele>750.0</ele><time>2026-04-05T08:01:50.59Z</time></trkpt><trkpt lat="43.8528383" lon="12.215095"><ele>750.0</ele><time>2026-04-05T08:01:51.59Z</time></trkpt><trkpt lat="43.852715" lon="12.2150867"><ele>750.0</ele><time>2026-04-05T08:01:52.589Z</time></trkpt><trkpt lat="43.8525717" lon="12.215115"><ele>750.0</ele><time>2026-04-05T08:01:53.59Z</time></trkpt><trkpt lat="43.8524367" lon="12.2151517"><ele>750.0</ele><time>2026-04-05T08:01:54.59Z</time></trkpt><trkpt lat="43.85232" lon="12.2151667"><ele>750.0</ele><time>2026-04-05T08:01:55.59Z</time></trkpt><trkpt lat="43.852225" lon="12.21513"><ele>750.0</ele><time>2026-04-05T08:01:56.59Z</time></trkpt><trkpt lat="43.8521417" lon="12.215035"><ele>750.0</ele><time>2026-04-05T08:01:57.59Z</time></trkpt><trkpt lat="43.85207" lon="12.2148833"><ele>750.0</ele><time>2026-04-05T08:01:58.589Z</time></trkpt><trkpt lat="43.8520117" lon="12.2147217"><ele>750.0</ele><time>2026-04-05T08:01:59.59Z</time></trkpt><trkpt lat="43.85195" lon="12.2145717"><ele>750.0</ele><time>2026-04-05T08:02:00.589Z</time></trkpt><trkpt lat="43.851865" lon="12.2144367"><ele>748.25</ele><time>2026-04-05T08:02:01.589Z</time></trkpt><trkpt lat="43.8517517" lon="12.2143467"><ele>746.5</ele><time>2026-04-05T08:02:02.59Z</time></trkpt><trkpt lat="43.8515983" lon="12.21428"><ele>744.75</ele><time>2026-04-05T08:02:03.59Z</time></trkpt><trkpt lat="43.851445" lon="12.2142283"><ele>743.0</ele><time>2026-04-05T08:02:04.59Z</time></trkpt><trkpt lat="43.8513083" lon="12.214165"><ele>743.0</ele><time>2026-04-05T08:02:05.59Z</time></trkpt><trkpt lat="43.8511817" lon="12.214085"><ele>743.0</ele><time>2026-04-05T08:02:06.589Z</time></trkpt><trkpt lat="43.851085" lon="12.2139667"><ele>743.0</ele><time>2026-04-05T08:02:07.59Z</time></trkpt><trkpt lat="43.851" lon="12.213795"><ele>743.0</ele><time>2026-04-05T08:02:08.589Z</time></trkpt><trkpt lat="43.8509383" lon="12.2135667"><ele>739.6666666666666</ele><time>2026-04-05T08:02:09.59Z</time></trkpt><trkpt lat="43.850895" lon="12.2133117"><ele>736.3333333333334</ele><time>2026-04-05T08:02:10.59Z</time></trkpt><trkpt lat="43.8508667" lon="12.2130683"><ele>733.0</ele><time>2026-04-05T08:02:11.59Z</time></trkpt><trkpt lat="43.8508383" lon="12.2128317"><ele>732.0</ele><time>2026-04-05T08:02:12.589Z</time></trkpt><trkpt lat="43.8508017" lon="12.2126117"><ele>731.0</ele><time>2026-04-05T08:02:13.589Z</time></trkpt><trkpt lat="43.8507633" lon="12.212405"><ele>730.0</ele><time>2026-04-05T08:02:14.59Z</time></trkpt><trkpt lat="43.8507283" lon="12.2122183"><ele>727.5</ele><time>2026-04-05T08:02:15.589Z</time></trkpt><trkpt lat="43.8506883" lon="12.2120483"><ele>725.0</ele><time>2026-04-05T08:02:16.59Z</time></trkpt><trkpt lat="43.850615" lon="12.2118933"><ele>722.5</ele><time>2026-04-05T08:02:17.59Z</time></trkpt><trkpt lat="43.8505067" lon="12.211755"><ele>720.0</ele><time>2026-04-05T08:02:18.59Z</time></trkpt><trkpt lat="43.8503867" lon="12.2116383"><ele>720.0</ele><time>2026-04-05T08:02:19.59Z</time></trkpt><trkpt lat="43.8502833" lon="12.211515"><ele>720.0</ele><time>2026-04-05T08:02:20.59Z</time></trkpt><trkpt lat="43.8502083" lon="12.2113633"><ele>720.0</ele><time>2026-04-05T08:02:21.59Z</time></trkpt><trkpt lat="43.8501683" lon="12.2111867"><ele>720.0</ele><time>2026-04-05T08:02:22.589Z</time></trkpt><trkpt lat="43.8501883" lon="12.2110117"><ele>717.2</ele><time>2026-04-05T08:02:23.59Z</time></trkpt><trkpt lat="43.8502417" lon="12.2108533"><ele>714.4</ele><time>2026-04-05T08:02:24.59Z</time></trkpt><trkpt lat="43.8502817" lon="12.210715"><ele>711.5999999999999</ele><time>2026-04-05T08:02:25.589Z</time></trkpt><trkpt lat="43.8502767" lon="12.210575"><ele>708.8</ele><time>2026-04-05T08:02:26.59Z</time></trkpt><trkpt lat="43.8502333" lon="12.2104383"><ele>706.0</ele><time>2026-04-05T08:02:27.59Z</time></trkpt><trkpt lat="43.850135" lon="12.2103367"><ele>703.6666666666667</ele><time>2026-04-05T08:02:28.59Z</time></trkpt><trkpt lat="43.8500067" lon="12.2102717"><ele>701.3333333333334</ele><time>2026-04-05T08:02:29.59Z</time></trkpt><trkpt lat="43.8498383" lon="12.210245"><ele>699.0</ele><time>2026-04-05T08:02:30.59Z</time></trkpt><trkpt lat="43.8496467" lon="12.2102433"><ele>699.0</ele><time>2026-04-05T08:02:31.589Z</time></trkpt><trkpt lat="43.8494583" lon="12.210215"><ele>699.0</ele><time>2026-04-05T08:02:32.589Z</time></trkpt><trkpt lat="43.8492883" lon="12.2101867"><ele>699.0</ele><time>2026-04-05T08:02:33.59Z</time></trkpt><trkpt lat="43.8491317" lon="12.2101533"><ele>698.5</ele><time>2026-04-05T08:02:34.589Z</time></trkpt><trkpt lat="43.8489767" lon="12.2101117"><ele>698.0</ele><time>2026-04-05T08:02:35.59Z</time></trkpt><trkpt lat="43.8488533" lon="12.2100667"><ele>697.5</ele><time>2026-04-05T08:02:36.59Z</time></trkpt><trkpt lat="43.8487433" lon="12.2100467"><ele>697.0</ele><time>2026-04-05T08:02:37.59Z</time></trkpt><trkpt lat="43.8486433" lon="12.21005"><ele>697.0</ele><time>2026-04-05T08:02:38.59Z</time></trkpt><trkpt lat="43.8485583" lon="12.21012"><ele>697.0</ele><time>2026-04-05T08:02:39.59Z</time></trkpt><trkpt lat="43.848475" lon="12.2102283"><ele>697.0</ele><time>2026-04-05T08:02:40.59Z</time></trkpt><trkpt lat="43.8484183" lon="12.2104133"><ele>697.0</ele><time>2026-04-05T08:02:41.59Z</time></trkpt><trkpt lat="43.848355" lon="12.2106483"><ele>697.3333333333334</ele><time>2026-04-05T08:02:42.589Z</time></trkpt><trkpt lat="43.848285" lon="12.2109033"><ele>697.6666666666666</ele><time>2026-04-05T08:02:43.59Z</time></trkpt><trkpt lat="43.84821" lon="12.2111367"><ele>698.0</ele><time>2026-04-05T08:02:44.59Z</time></trkpt><trkpt lat="43.8481283" lon="12.2113567"><ele>700.3333333333333</ele><time>2026-04-05T08:02:45.589Z</time></trkpt><trkpt lat="43.84805" lon="12.211555"><ele>702.6666666666666</ele><time>2026-04-05T08:02:46.589Z</time></trkpt><trkpt lat="43.8479767" lon="12.2117417"><ele>705.0</ele><time>2026-04-05T08:02:47.59Z</time></trkpt><trkpt lat="43.84789" lon="12.2119067"><ele>705.0</ele><time>2026-04-05T08:02:48.59Z</time></trkpt><trkpt lat="43.84778" lon="12.212045"><ele>705.0</ele><time>2026-04-05T08:02:49.59Z</time></trkpt><trkpt lat="43.8476517" lon="12.2121583"><ele>705.0</ele><time>2026-04-05T08:02:50.59Z</time></trkpt><trkpt lat="43.8475117" lon="12.2122483"><ele>699.0</ele><time>2026-04-05T08:02:51.59Z</time></trkpt><trkpt lat="43.847355" lon="12.2122983"><ele>693.0</ele><time>2026-04-05T08:02:52.589Z</time></trkpt><trkpt lat="43.8471783" lon="12.2123267"><ele>687.0</ele><time>2026-04-05T08:02:53.59Z</time></trkpt><trkpt lat="43.846985" lon="12.2123517"><ele>681.6666666666666</ele><time>2026-04-05T08:02:54.59Z</time></trkpt><trkpt lat="43.8467883" lon="12.212405"><ele>676.3333333333333</ele><time>2026-04-05T08:02:55.59Z</time></trkpt><trkpt lat="43.8465967" lon="12.212455"><ele>671.0</ele><time>2026-04-05T08:02:56.589Z</time></trkpt><trkpt lat="43.84641" lon="12.21248"><ele>671.0</ele><time>2026-04-05T08:02:57.59Z</time></trkpt><trkpt lat="43.8462267" lon="12.212485"><ele>671.0</ele><time>2026-04-05T08:02:58.59Z</time></trkpt><trkpt lat="43.8460467" lon="12.212495"><ele>671.0</ele><time>2026-04-05T08:02:59.59Z</time></trkpt><trkpt lat="43.8458733" lon="12.21253"><ele>667.5</ele><time>2026-04-05T08:03:00.59Z</time></trkpt><trkpt lat="43.8457233" lon="12.2125717"><ele>664.0</ele><time>2026-04-05T08:03:01.59Z</time></trkpt><trkpt lat="43.845585" lon="12.212595"><ele>660.5</ele><time>2026-04-05T08:03:02.59Z</time></trkpt><trkpt lat="43.84545" lon="12.2125717"><ele>657.0</ele><time>2026-04-05T08:03:03.589Z</time></trkpt><trkpt lat="43.8453117" lon="12.2124983"><ele>657.0</ele><time>2026-04-05T08:03:04.59Z</time></trkpt><trkpt lat="43.84518" lon="12.2124317"><ele>657.0</ele><time>2026-04-05T08:03:05.59Z</time></trkpt><trkpt lat="43.8450483" lon="12.2123917"><ele>657.0</ele><time>2026-04-05T08:03:06.589Z</time></trkpt><trkpt lat="43.8449" lon="12.212405"><ele>657.0</ele><time>2026-04-05T08:03:07.59Z</time></trkpt><trkpt lat="43.8447333" lon="12.2124667"><ele>655.0</ele><time>2026-04-05T08:03:08.59Z</time></trkpt><trkpt lat="43.8445583" lon="12.2125333"><ele>653.0</ele><time>2026-04-05T08:03:09.59Z</time></trkpt><trkpt lat="43.8443817" lon="12.2125767"><ele>651.0</ele><time>2026-04-05T08:03:10.59Z</time></trkpt><trkpt lat="43.844205" lon="12.212595"><ele>648.3333333333334</ele><time>2026-04-05T08:03:11.59Z</time></trkpt><trkpt lat="43.8440233" lon="12.2126317"><ele>645.6666666666667</ele><time>2026-04-05T08:03:12.59Z</time></trkpt><trkpt lat="43.8438433" lon="12.2126817"><ele>643.0</ele><time>2026-04-05T08:03:13.589Z</time></trkpt><trkpt lat="43.8436683" lon="12.21273"><ele>643.0</ele><time>2026-04-05T08:03:14.591Z</time></trkpt><trkpt lat="43.8435033" lon="12.2127617"><ele>643.0</ele><time>2026-04-05T08:03:15.591Z</time></trkpt><trkpt lat="43.8433567" lon="12.2127733"><ele>643.0</ele><time>2026-04-05T08:03:16.591Z</time></trkpt><trkpt lat="43.8432267" lon="12.2127833"><ele>643.0</ele><time>2026-04-05T08:03:17.591Z</time></trkpt><trkpt lat="43.8431183" lon="12.2128167"><ele>641.6</ele><time>2026-04-05T08:03:18.591Z</time></trkpt><trkpt lat="43.84303" lon="12.2128667"><ele>640.1999999999999</ele><time>2026-04-05T08:03:19.591Z</time></trkpt><trkpt lat="43.8429717" lon="12.2129467"><ele>638.8</ele><time>2026-04-05T08:03:20.591Z</time></trkpt><trkpt lat="43.8429383" lon="12.2130583"><ele>637.4</ele><time>2026-04-05T08:03:21.59Z</time></trkpt><trkpt lat="43.8429583" lon="12.213205"><ele>636.0</ele><time>2026-04-05T08:03:22.591Z</time></trkpt><trkpt lat="43.8430083" lon="12.213375"><ele>636.0</ele><time>2026-04-05T08:03:23.591Z</time></trkpt><trkpt lat="43.8430567" lon="12.2135183"><ele>636.0</ele><time>2026-04-05T08:03:24.591Z</time></trkpt><trkpt lat="43.8430833" lon="12.21362"><ele>636.0</ele><time>2026-04-05T08:03:25.591Z</time></trkpt><trkpt lat="43.8430633" lon="12.2137667"><ele>636.0</ele><time>2026-04-05T08:03:27.591Z</time></trkpt><trkpt lat="43.84295" lon="12.2137267"><ele>636.0</ele><time>2026-04-05T08:03:29.591Z</time></trkpt><trkpt lat="43.8428767" lon="12.2136317"><ele>636.0</ele><time>2026-04-05T08:03:30.591Z</time></trkpt><trkpt lat="43.84279" lon="12.2134967"><ele>636.0</ele><time>2026-04-05T08:03:31.591Z</time></trkpt><trkpt lat="43.8427" lon="12.2133633"><ele>636.0</ele><time>2026-04-05T08:03:32.59Z</time></trkpt><trkpt lat="43.842625" lon="12.2132617"><ele>636.0</ele><time>2026-04-05T08:03:33.591Z</time></trkpt><trkpt lat="43.8425567" lon="12.2132033"><ele>636.0</ele><time>2026-04-05T08:03:34.591Z</time></trkpt><trkpt lat="43.84249" lon="12.2131983"><ele>633.6</ele><time>2026-04-05T08:03:35.59Z</time></trkpt><trkpt lat="43.8424267" lon="12.2132467"><ele>631.2</ele><time>2026-04-05T08:03:36.591Z</time></trkpt><trkpt lat="43.8423867" lon="12.2133233"><ele>628.8</ele><time>2026-04-05T08:03:37.59Z</time></trkpt><trkpt lat="43.842395" lon="12.21344"><ele>626.4</ele><time>2026-04-05T08:03:38.591Z</time></trkpt><trkpt lat="43.842435" lon="12.213585"><ele>624.0</ele><time>2026-04-05T08:03:39.591Z</time></trkpt><trkpt lat="43.8425017" lon="12.2137617"><ele>624.0</ele><time>2026-04-05T08:03:40.591Z</time></trkpt><trkpt lat="43.8425733" lon="12.213955"><ele>624.0</ele><time>2026-04-05T08:03:41.59Z</time></trkpt><trkpt lat="43.84264" lon="12.2141367"><ele>624.0</ele><time>2026-04-05T08:03:42.591Z</time></trkpt><trkpt lat="43.8426983" lon="12.21429"><ele>624.0</ele><time>2026-04-05T08:03:43.591Z</time></trkpt><trkpt lat="43.8427533" lon="12.2144133"><ele>624.4</ele><time>2026-04-05T08:03:44.591Z</time></trkpt><trkpt lat="43.8427883" lon="12.214505"><ele>624.8</ele><time>2026-04-05T08:03:45.59Z</time></trkpt><trkpt lat="43.8427733" lon="12.21465"><ele>625.2</ele><time>2026-04-05T08:03:47.591Z</time></trkpt><trkpt lat="43.8426567" lon="12.21464"><ele>625.6</ele><time>2026-04-05T08:03:49.59Z</time></trkpt><trkpt lat="43.84259" lon="12.2145417"><ele>626.0</ele><time>2026-04-05T08:03:50.59Z</time></trkpt><trkpt lat="43.842525" lon="12.2143983"><ele>625.5</ele><time>2026-04-05T08:03:51.591Z</time></trkpt><trkpt lat="43.8424517" lon="12.2142567"><ele>625.0</ele><time>2026-04-05T08:03:52.591Z</time></trkpt><trkpt lat="43.8423817" lon="12.21414"><ele>624.5</ele><time>2026-04-05T08:03:53.591Z</time></trkpt><trkpt lat="43.8422867" lon="12.2140483"><ele>624.0</ele><time>2026-04-05T08:03:54.591Z</time></trkpt><trkpt lat="43.84217" lon="12.21398"><ele>624.0</ele><time>2026-04-05T08:03:55.591Z</time></trkpt><trkpt lat="43.8420383" lon="12.2139233"><ele>624.0</ele><time>2026-04-05T08:03:56.59Z</time></trkpt><trkpt lat="43.841905" lon="12.2138267"><ele>624.0</ele><time>2026-04-05T08:03:57.59Z</time></trkpt><trkpt lat="43.841775" lon="12.2136917"><ele>620.0</ele><time>2026-04-05T08:03:58.59Z</time></trkpt><trkpt lat="43.8416583" lon="12.2135517"><ele>616.0</ele><time>2026-04-05T08:03:59.59Z</time></trkpt><trkpt lat="43.8415433" lon="12.2134283"><ele>612.0</ele><time>2026-04-05T08:04:00.591Z</time></trkpt><trkpt lat="43.8414467" lon="12.2133283"><ele>608.0</ele><time>2026-04-05T08:04:01.59Z</time></trkpt><trkpt lat="43.8413617" lon="12.2132433"><ele>608.0</ele><time>2026-04-05T08:04:02.591Z</time></trkpt><trkpt lat="43.8412817" lon="12.2131933"><ele>608.0</ele><time>2026-04-05T08:04:03.591Z</time></trkpt><trkpt lat="43.8412033" lon="12.21318"><ele>608.0</ele><time>2026-04-05T08:04:04.59Z</time></trkpt><trkpt lat="43.8411183" lon="12.21321"><ele>608.0</ele><time>2026-04-05T08:04:05.591Z</time></trkpt><trkpt lat="43.8410533" lon="12.21328"><ele>608.0</ele><time>2026-04-05T08:04:06.591Z</time></trkpt><trkpt lat="43.8410083" lon="12.2133833"><ele>608.0</ele><time>2026-04-05T08:04:07.59Z</time></trkpt><trkpt lat="43.84101" lon="12.2135267"><ele>608.0</ele><time>2026-04-05T08:04:08.59Z</time></trkpt><trkpt lat="43.8410417" lon="12.2137017"><ele>608.0</ele><time>2026-04-05T08:04:09.591Z</time></trkpt><trkpt lat="43.84111" lon="12.213895"><ele>608.0</ele><time>2026-04-05T08:04:10.591Z</time></trkpt><trkpt lat="43.8411933" lon="12.2141"><ele>606.25</ele><time>2026-04-05T08:04:11.591Z</time></trkpt><trkpt lat="43.84126" lon="12.214295"><ele>604.5</ele><time>2026-04-05T08:04:12.591Z</time></trkpt><trkpt lat="43.84132" lon="12.2144633"><ele>602.75</ele><time>2026-04-05T08:04:13.591Z</time></trkpt><trkpt lat="43.8413633" lon="12.2145983"><ele>601.0</ele><time>2026-04-05T08:04:14.591Z</time></trkpt><trkpt lat="43.8413967" lon="12.214705"><ele>601.0</ele><time>2026-04-05T08:04:15.59Z</time></trkpt><trkpt lat="43.841415" lon="12.2148067"><ele>601.0</ele><time>2026-04-05T08:04:16.591Z</time></trkpt><trkpt lat="43.8414067" lon="12.21491"><ele>601.0</ele><time>2026-04-05T08:04:17.591Z</time></trkpt><trkpt lat="43.841365" lon="12.215"><ele>601.0</ele><time>2026-04-05T08:04:18.59Z</time></trkpt><trkpt lat="43.8412833" lon="12.215035"><ele>601.0</ele><time>2026-04-05T08:04:19.591Z</time></trkpt><trkpt lat="43.8411733" lon="12.2150283"><ele>601.0</ele><time>2026-04-05T08:04:20.591Z</time></trkpt><trkpt lat="43.8410533" lon="12.2149617"><ele>598.5</ele><time>2026-04-05T08:04:21.59Z</time></trkpt><trkpt lat="43.8409333" lon="12.214855"><ele>596.0</ele><time>2026-04-05T08:04:22.59Z</time></trkpt><trkpt lat="43.8408217" lon="12.21474"><ele>593.5</ele><time>2026-04-05T08:04:23.591Z</time></trkpt><trkpt lat="43.84071" lon="12.21464"><ele>591.0</ele><time>2026-04-05T08:04:24.591Z</time></trkpt><trkpt lat="43.8405733" lon="12.2145883"><ele>591.0</ele><time>2026-04-05T08:04:25.591Z</time></trkpt><trkpt lat="43.8404167" lon="12.214565"><ele>591.0</ele><time>2026-04-05T08:04:26.59Z</time></trkpt><trkpt lat="43.84026" lon="12.2145533"><ele>591.0</ele><time>2026-04-05T08:04:27.59Z</time></trkpt><trkpt lat="43.8401083" lon="12.21451"><ele>587.6666666666666</ele><time>2026-04-05T08:04:28.591Z</time></trkpt><trkpt lat="43.83994" lon="12.21442"><ele>584.3333333333333</ele><time>2026-04-05T08:04:29.591Z</time></trkpt><trkpt lat="43.8397767" lon="12.2143183"><ele>581.0</ele><time>2026-04-05T08:04:30.59Z</time></trkpt><trkpt lat="43.8396417" lon="12.2142267"><ele>581.0</ele><time>2026-04-05T08:04:31.591Z</time></trkpt><trkpt lat="43.839535" lon="12.2141483"><ele>581.0</ele><time>2026-04-05T08:04:32.591Z</time></trkpt><trkpt lat="43.8394583" lon="12.21409"><ele>581.0</ele><time>2026-04-05T08:04:33.591Z</time></trkpt><trkpt lat="43.83939" lon="12.21406"><ele>581.0</ele><time>2026-04-05T08:04:34.59Z</time></trkpt><trkpt lat="43.8393283" lon="12.2140817"><ele>581.0</ele><time>2026-04-05T08:04:35.591Z</time></trkpt><trkpt lat="43.8393033" lon="12.214185"><ele>581.0</ele><time>2026-04-05T08:04:36.591Z</time></trkpt><trkpt lat="43.8393067" lon="12.2143217"><ele>581.0</ele><time>2026-04-05T08:04:37.591Z</time></trkpt><trkpt lat="43.8393367" lon="12.2145067"><ele>581.0</ele><time>2026-04-05T08:04:38.591Z</time></trkpt><trkpt lat="43.8393733" lon="12.21471"><ele>581.0</ele><time>2026-04-05T08:04:39.591Z</time></trkpt><trkpt lat="43.839405" lon="12.2148917"><ele>581.0</ele><time>2026-04-05T08:04:40.591Z</time></trkpt><trkpt lat="43.8394367" lon="12.2150533"><ele>578.25</ele><time>2026-04-05T08:04:41.591Z</time></trkpt><trkpt lat="43.8394867" lon="12.2152067"><ele>575.5</ele><time>2026-04-05T08:04:42.59Z</time></trkpt><trkpt lat="43.8395667" lon="12.215335"><ele>572.75</ele><time>2026-04-05T08:04:43.591Z</time></trkpt><trkpt lat="43.839645" lon="12.215455"><ele>570.0</ele><time>2026-04-05T08:04:44.591Z</time></trkpt><trkpt lat="43.8396983" lon="12.2155883"><ele>568.8</ele><time>2026-04-05T08:04:45.59Z</time></trkpt><trkpt lat="43.8397217" lon="12.2157483"><ele>567.6</ele><time>2026-04-05T08:04:46.591Z</time></trkpt><trkpt lat="43.8397183" lon="12.2159083"><ele>566.4</ele><time>2026-04-05T08:04:47.591Z</time></trkpt><trkpt lat="43.8396967" lon="12.2160517"><ele>565.2</ele><time>2026-04-05T08:04:48.59Z</time></trkpt><trkpt lat="43.8396583" lon="12.21619"><ele>564.0</ele><time>2026-04-05T08:04:49.591Z</time></trkpt><trkpt lat="43.8395883" lon="12.2163"><ele>564.0</ele><time>2026-04-05T08:04:50.591Z</time></trkpt><trkpt lat="43.8394867" lon="12.21637"><ele>564.0</ele><time>2026-04-05T08:04:51.59Z</time></trkpt><trkpt lat="43.8393567" lon="12.2164217"><ele>564.0</ele><time>2026-04-05T08:04:52.591Z</time></trkpt><trkpt lat="43.839205" lon="12.21646"><ele>564.0</ele><time>2026-04-05T08:04:53.591Z</time></trkpt><trkpt lat="43.83904" lon="12.2164667"><ele>561.6666666666666</ele><time>2026-04-05T08:04:54.59Z</time></trkpt><trkpt lat="43.8388567" lon="12.2164383"><ele>559.3333333333333</ele><time>2026-04-05T08:04:55.59Z</time></trkpt><trkpt lat="43.83866" lon="12.21639"><ele>557.0</ele><time>2026-04-05T08:04:56.591Z</time></trkpt><trkpt lat="43.838445" lon="12.2163167"><ele>554.6666666666666</ele><time>2026-04-05T08:04:57.59Z</time></trkpt><trkpt lat="43.8382233" lon="12.216235"><ele>552.3333333333334</ele><time>2026-04-05T08:04:58.591Z</time></trkpt><trkpt lat="43.8380133" lon="12.2161633"><ele>550.0</ele><time>2026-04-05T08:04:59.591Z</time></trkpt><trkpt lat="43.8378167" lon="12.2160917"><ele>548.0</ele><time>2026-04-05T08:05:00.59Z</time></trkpt><trkpt lat="43.83763" lon="12.216015"><ele>546.0</ele><time>2026-04-05T08:05:01.59Z</time></trkpt><trkpt lat="43.8374517" lon="12.2159533"><ele>544.0</ele><time>2026-04-05T08:05:02.59Z</time></trkpt><trkpt lat="43.8372733" lon="12.2159067"><ele>544.0</ele><time>2026-04-05T08:05:03.59Z</time></trkpt><trkpt lat="43.8370883" lon="12.21589"><ele>544.0</ele><time>2026-04-05T08:05:04.591Z</time></trkpt><trkpt lat="43.8368967" lon="12.2158983"><ele>544.0</ele><time>2026-04-05T08:05:05.591Z</time></trkpt><trkpt lat="43.8366967" lon="12.21593"><ele>541.0</ele><time>2026-04-05T08:05:06.591Z</time></trkpt><trkpt lat="43.8364983" lon="12.2159833"><ele>538.0</ele><time>2026-04-05T08:05:07.59Z</time></trkpt><trkpt lat="43.8363017" lon="12.2160367"><ele>535.0</ele><time>2026-04-05T08:05:08.591Z</time></trkpt><trkpt lat="43.8361117" lon="12.2160933"><ele>533.0</ele><time>2026-04-05T08:05:09.591Z</time></trkpt><trkpt lat="43.8359267" lon="12.2161467"><ele>531.0</ele><time>2026-04-05T08:05:10.591Z</time></trkpt><trkpt lat="43.835745" lon="12.2161933"><ele>529.0</ele><time>2026-04-05T08:05:11.59Z</time></trkpt><trkpt lat="43.8355633" lon="12.21623"><ele>529.0</ele><time>2026-04-05T08:05:12.59Z</time></trkpt><trkpt lat="43.83537" lon="12.2162567"><ele>529.0</ele><time>2026-04-05T08:05:13.59Z</time></trkpt><trkpt lat="43.8351667" lon="12.2162467"><ele>529.0</ele><time>2026-04-05T08:05:14.591Z</time></trkpt><trkpt lat="43.8349567" lon="12.2162233"><ele>527.0</ele><time>2026-04-05T08:05:15.59Z</time></trkpt><trkpt lat="43.8347367" lon="12.2162"><ele>525.0</ele><time>2026-04-05T08:05:16.591Z</time></trkpt><trkpt lat="43.83451" lon="12.2161767"><ele>523.0</ele><time>2026-04-05T08:05:17.591Z</time></trkpt><trkpt lat="43.83426" lon="12.2161517"><ele>520.0</ele><time>2026-04-05T08:05:18.59Z</time></trkpt><trkpt lat="43.8340017" lon="12.2161183"><ele>517.0</ele><time>2026-04-05T08:05:19.59Z</time></trkpt><trkpt lat="43.833755" lon="12.2160867"><ele>517.0</ele><time>2026-04-05T08:05:20.59Z</time></trkpt><trkpt lat="43.83352" lon="12.216055"><ele>517.0</ele><time>2026-04-05T08:05:21.591Z</time></trkpt><trkpt lat="43.8332967" lon="12.216025"><ele>514.3333333333334</ele><time>2026-04-05T08:05:22.59Z</time></trkpt><trkpt lat="43.83309" lon="12.215995"><ele>511.66666666666663</ele><time>2026-04-05T08:05:23.591Z</time></trkpt><trkpt lat="43.8329083" lon="12.2159733"><ele>509.0</ele><time>2026-04-05T08:05:24.59Z</time></trkpt><trkpt lat="43.8327517" lon="12.2159567"><ele>507.75</ele><time>2026-04-05T08:05:25.59Z</time></trkpt><trkpt lat="43.8326217" lon="12.21596"><ele>506.5</ele><time>2026-04-05T08:05:26.59Z</time></trkpt><trkpt lat="43.8324883" lon="12.2160017"><ele>505.25</ele><time>2026-04-05T08:05:27.59Z</time></trkpt><trkpt lat="43.832345" lon="12.2160983"><ele>504.0</ele><time>2026-04-05T08:05:28.59Z</time></trkpt><trkpt lat="43.83219" lon="12.2162317"><ele>504.0</ele><time>2026-04-05T08:05:29.59Z</time></trkpt><trkpt lat="43.8320083" lon="12.216355"><ele>504.0</ele><time>2026-04-05T08:05:30.591Z</time></trkpt><trkpt lat="43.8318233" lon="12.2164467"><ele>504.0</ele><time>2026-04-05T08:05:31.59Z</time></trkpt><trkpt lat="43.8316533" lon="12.2165333"><ele>503.5</ele><time>2026-04-05T08:05:32.591Z</time></trkpt><trkpt lat="43.8314917" lon="12.2166017"><ele>503.0</ele><time>2026-04-05T08:05:33.59Z</time></trkpt><trkpt lat="43.831355" lon="12.2166717"><ele>502.5</ele><time>2026-04-05T08:05:34.591Z</time></trkpt><trkpt lat="43.8312383" lon="12.2167567"><ele>502.0</ele><time>2026-04-05T08:05:35.591Z</time></trkpt><trkpt lat="43.8311183" lon="12.2168833"><ele>502.0</ele><time>2026-04-05T08:05:36.591Z</time></trkpt><trkpt lat="43.8309983" lon="12.2170483"><ele>502.0</ele><time>2026-04-05T08:05:37.591Z</time></trkpt><trkpt lat="43.8308767" lon="12.2172433"><ele>502.0</ele><time>2026-04-05T08:05:38.591Z</time></trkpt><trkpt lat="43.830745" lon="12.2174633"><ele>500.33333333333337</ele><time>2026-04-05T08:05:39.591Z</time></trkpt><trkpt lat="43.8306083" lon="12.2176867"><ele>498.66666666666663</ele><time>2026-04-05T08:05:40.59Z</time></trkpt><trkpt lat="43.8304717" lon="12.217905"><ele>497.0</ele><time>2026-04-05T08:05:41.591Z</time></trkpt><trkpt lat="43.8303483" lon="12.2181117"><ele>496.5</ele><time>2026-04-05T08:05:42.591Z</time></trkpt><trkpt lat="43.8302417" lon="12.218295"><ele>496.0</ele><time>2026-04-05T08:05:43.591Z</time></trkpt><trkpt lat="43.83016" lon="12.2184517"><ele>495.5</ele><time>2026-04-05T08:05:44.591Z</time></trkpt><trkpt lat="43.8301117" lon="12.218605"><ele>495.0</ele><time>2026-04-05T08:05:45.591Z</time></trkpt><trkpt lat="43.830075" lon="12.21876"><ele>493.8</ele><time>2026-04-05T08:05:46.59Z</time></trkpt><trkpt lat="43.83006" lon="12.21891"><ele>492.6</ele><time>2026-04-05T08:05:47.591Z</time></trkpt><trkpt lat="43.8300717" lon="12.2190533"><ele>491.4</ele><time>2026-04-05T08:05:48.591Z</time></trkpt><trkpt lat="43.8301133" lon="12.219195"><ele>490.2</ele><time>2026-04-05T08:05:49.591Z</time></trkpt><trkpt lat="43.8301983" lon="12.2193167"><ele>489.0</ele><time>2026-04-05T08:05:50.591Z</time></trkpt><trkpt lat="43.8303217" lon="12.2194317"><ele>488.66666666666663</ele><time>2026-04-05T08:05:51.59Z</time></trkpt><trkpt lat="43.8304833" lon="12.2195467"><ele>488.3333333333333</ele><time>2026-04-05T08:05:52.591Z</time></trkpt><trkpt lat="43.83064" lon="12.21966"><ele>488.0</ele><time>2026-04-05T08:05:53.59Z</time></trkpt><trkpt lat="43.830785" lon="12.2197717"><ele>488.0</ele><time>2026-04-05T08:05:54.59Z</time></trkpt><trkpt lat="43.8309" lon="12.2198783"><ele>488.0</ele><time>2026-04-05T08:05:55.591Z</time></trkpt><trkpt lat="43.830995" lon="12.2199967"><ele>488.0</ele><time>2026-04-05T08:05:56.591Z</time></trkpt><trkpt lat="43.831075" lon="12.2201267"><ele>488.0</ele><time>2026-04-05T08:05:57.591Z</time></trkpt><trkpt lat="43.8311217" lon="12.2202717"><ele>488.0</ele><time>2026-04-05T08:05:58.59Z</time></trkpt><trkpt lat="43.8311367" lon="12.2204167"><ele>487.99999999999994</ele><time>2026-04-05T08:05:59.59Z</time></trkpt><trkpt lat="43.8311167" lon="12.22055"><ele>487.99999999999994</ele><time>2026-04-05T08:06:00.59Z</time></trkpt><trkpt lat="43.831055" lon="12.220675"><ele>488.0</ele><time>2026-04-05T08:06:01.591Z</time></trkpt><trkpt lat="43.8309517" lon="12.220765"><ele>488.0</ele><time>2026-04-05T08:06:02.591Z</time></trkpt><trkpt lat="43.83081" lon="12.220845"><ele>484.66666666666663</ele><time>2026-04-05T08:06:03.59Z</time></trkpt><trkpt lat="43.830635" lon="12.2209283"><ele>481.33333333333337</ele><time>2026-04-05T08:06:04.591Z</time></trkpt><trkpt lat="43.8304533" lon="12.2210167"><ele>478.0</ele><time>2026-04-05T08:06:05.591Z</time></trkpt><trkpt lat="43.8302867" lon="12.2210933"><ele>477.33333333333337</ele><time>2026-04-05T08:06:06.591Z</time></trkpt><trkpt lat="43.8301283" lon="12.2211767"><ele>476.66666666666663</ele><time>2026-04-05T08:06:07.591Z</time></trkpt><trkpt lat="43.829985" lon="12.2212767"><ele>476.0</ele><time>2026-04-05T08:06:08.591Z</time></trkpt><trkpt lat="43.8298433" lon="12.221415"><ele>475.0</ele><time>2026-04-05T08:06:09.591Z</time></trkpt><trkpt lat="43.8297117" lon="12.2216017"><ele>474.0</ele><time>2026-04-05T08:06:10.591Z</time></trkpt><trkpt lat="43.829595" lon="12.2217867"><ele>473.0</ele><time>2026-04-05T08:06:11.591Z</time></trkpt><trkpt lat="43.829485" lon="12.22195"><ele>473.0</ele><time>2026-04-05T08:06:12.591Z</time></trkpt><trkpt lat="43.82937" lon="12.2220917"><ele>473.0</ele><time>2026-04-05T08:06:13.591Z</time></trkpt><trkpt lat="43.829245" lon="12.2222"><ele>473.0</ele><time>2026-04-05T08:06:14.591Z</time></trkpt><trkpt lat="43.8290983" lon="12.222265"><ele>472.3333333333333</ele><time>2026-04-05T08:06:15.59Z</time></trkpt><trkpt lat="43.82895" lon="12.222285"><ele>471.66666666666663</ele><time>2026-04-05T08:06:16.591Z</time></trkpt><trkpt lat="43.8288" lon="12.222255"><ele>471.0</ele><time>2026-04-05T08:06:17.591Z</time></trkpt><trkpt lat="43.8286583" lon="12.2221833"><ele>471.0</ele><time>2026-04-05T08:06:18.591Z</time></trkpt><trkpt lat="43.8285267" lon="12.222105"><ele>471.0</ele><time>2026-04-05T08:06:19.591Z</time></trkpt><trkpt lat="43.828415" lon="12.2220367"><ele>471.0</ele><time>2026-04-05T08:06:20.591Z</time></trkpt><trkpt lat="43.8283133" lon="12.2219983"><ele>471.0</ele><time>2026-04-05T08:06:21.591Z</time></trkpt><trkpt lat="43.8282233" lon="12.2220233"><ele>469.5</ele><time>2026-04-05T08:06:22.59Z</time></trkpt><trkpt lat="43.828135" lon="12.2221133"><ele>468.0</ele><time>2026-04-05T08:06:23.591Z</time></trkpt><trkpt lat="43.828035" lon="12.2222567"><ele>466.5</ele><time>2026-04-05T08:06:24.59Z</time></trkpt><trkpt lat="43.827915" lon="12.2224417"><ele>465.0</ele><time>2026-04-05T08:06:25.591Z</time></trkpt><trkpt lat="43.8277883" lon="12.2226367"><ele>465.0</ele><time>2026-04-05T08:06:26.59Z</time></trkpt><trkpt lat="43.8276483" lon="12.2228267"><ele>465.0</ele><time>2026-04-05T08:06:27.59Z</time></trkpt><trkpt lat="43.82752" lon="12.223005"><ele>465.0</ele><time>2026-04-05T08:06:28.591Z</time></trkpt><trkpt lat="43.8273967" lon="12.2231817"><ele>462.66666666666663</ele><time>2026-04-05T08:06:29.591Z</time></trkpt><trkpt lat="43.8272867" lon="12.2233583"><ele>460.3333333333333</ele><time>2026-04-05T08:06:30.591Z</time></trkpt><trkpt lat="43.8271767" lon="12.2235217"><ele>458.0</ele><time>2026-04-05T08:06:31.591Z</time></trkpt><trkpt lat="43.8270817" lon="12.2236733"><ele>458.0</ele><time>2026-04-05T08:06:32.591Z</time></trkpt><trkpt lat="43.8269967" lon="12.2238217"><ele>458.0</ele><time>2026-04-05T08:06:33.591Z</time></trkpt><trkpt lat="43.8269167" lon="12.22396"><ele>458.0</ele><time>2026-04-05T08:06:34.59Z</time></trkpt><trkpt lat="43.8268717" lon="12.2241083"><ele>458.0</ele><time>2026-04-05T08:06:35.591Z</time></trkpt><trkpt lat="43.82686" lon="12.2242517"><ele>456.25</ele><time>2026-04-05T08:06:36.59Z</time></trkpt><trkpt lat="43.8268867" lon="12.2244233"><ele>454.5</ele><time>2026-04-05T08:06:37.59Z</time></trkpt><trkpt lat="43.826935" lon="12.2245967"><ele>452.75</ele><time>2026-04-05T08:06:38.591Z</time></trkpt><trkpt lat="43.8269767" lon="12.2247617"><ele>451.0</ele><time>2026-04-05T08:06:39.591Z</time></trkpt><trkpt lat="43.826985" lon="12.2249183"><ele>450.0</ele><time>2026-04-05T08:06:40.591Z</time></trkpt><trkpt lat="43.82695" lon="12.2250833"><ele>449.0</ele><time>2026-04-05T08:06:41.591Z</time></trkpt><trkpt lat="43.826865" lon="12.2252533"><ele>448.0</ele><time>2026-04-05T08:06:42.59Z</time></trkpt><trkpt lat="43.8267517" lon="12.2254367"><ele>447.0</ele><time>2026-04-05T08:06:43.591Z</time></trkpt><trkpt lat="43.8266417" lon="12.225615"><ele>445.5</ele><time>2026-04-05T08:06:44.591Z</time></trkpt><trkpt lat="43.8265433" lon="12.2257817"><ele>444.0</ele><time>2026-04-05T08:06:45.591Z</time></trkpt><trkpt lat="43.8264583" lon="12.2259383"><ele>442.5</ele><time>2026-04-05T08:06:46.591Z</time></trkpt><trkpt lat="43.8264033" lon="12.2260983"><ele>441.0</ele><time>2026-04-05T08:06:47.59Z</time></trkpt><trkpt lat="43.8263583" lon="12.2263"><ele>439.66666666666663</ele><time>2026-04-05T08:06:48.591Z</time></trkpt><trkpt lat="43.8263267" lon="12.226555"><ele>438.3333333333333</ele><time>2026-04-05T08:06:49.59Z</time></trkpt><trkpt lat="43.8262817" lon="12.2268183"><ele>437.0</ele><time>2026-04-05T08:06:50.591Z</time></trkpt><trkpt lat="43.8262133" lon="12.22709"><ele>435.66666666666663</ele><time>2026-04-05T08:06:51.59Z</time></trkpt><trkpt lat="43.8261383" lon="12.2273467"><ele>434.33333333333337</ele><time>2026-04-05T08:06:52.591Z</time></trkpt><trkpt lat="43.8260567" lon="12.2275817"><ele>433.0</ele><time>2026-04-05T08:06:53.591Z</time></trkpt><trkpt lat="43.82596" lon="12.2278117"><ele>431.0</ele><time>2026-04-05T08:06:54.591Z</time></trkpt><trkpt lat="43.8258533" lon="12.228045"><ele>429.0</ele><time>2026-04-05T08:06:55.59Z</time></trkpt><trkpt lat="43.8257383" lon="12.2282617"><ele>427.0</ele><time>2026-04-05T08:06:56.591Z</time></trkpt><trkpt lat="43.8256383" lon="12.2284683"><ele>427.0</ele><time>2026-04-05T08:06:57.59Z</time></trkpt><trkpt lat="43.8255533" lon="12.2286483"><ele>427.0</ele><time>2026-04-05T08:06:58.591Z</time></trkpt><trkpt lat="43.825485" lon="12.228795"><ele>427.0</ele><time>2026-04-05T08:06:59.591Z</time></trkpt><trkpt lat="43.8254217" lon="12.2289067"><ele>427.0</ele><time>2026-04-05T08:07:00.591Z</time></trkpt><trkpt lat="43.8253467" lon="12.2289833"><ele>426.0</ele><time>2026-04-05T08:07:01.59Z</time></trkpt><trkpt lat="43.8252717" lon="12.229015"><ele>425.00000000000006</ele><time>2026-04-05T08:07:02.59Z</time></trkpt><trkpt lat="43.8251917" lon="12.2289867"><ele>424.0</ele><time>2026-04-05T08:07:03.591Z</time></trkpt><trkpt lat="43.8251217" lon="12.228905"><ele>423.0</ele><time>2026-04-05T08:07:04.59Z</time></trkpt><trkpt lat="43.825065" lon="12.228775"><ele>422.0</ele><time>2026-04-05T08:07:05.591Z</time></trkpt><trkpt lat="43.8250233" lon="12.2286117"><ele>421.0</ele><time>2026-04-05T08:07:06.59Z</time></trkpt><trkpt lat="43.8250117" lon="12.2284483"><ele>420.0</ele><time>2026-04-05T08:07:07.59Z</time></trkpt><trkpt lat="43.82502" lon="12.2282817"><ele>419.0</ele><time>2026-04-05T08:07:08.591Z</time></trkpt><trkpt lat="43.8250367" lon="12.2281317"><ele>418.0</ele><time>2026-04-05T08:07:09.591Z</time></trkpt><trkpt lat="43.8250583" lon="12.228"><ele>417.0</ele><time>2026-04-05T08:07:10.591Z</time></trkpt><trkpt lat="43.8250583" lon="12.22789"><ele>416.6</ele><time>2026-04-05T08:07:11.591Z</time></trkpt><trkpt lat="43.82503" lon="12.2277983"><ele>416.20000000000005</ele><time>2026-04-05T08:07:12.59Z</time></trkpt><trkpt lat="43.824975" lon="12.2277317"><ele>415.8</ele><time>2026-04-05T08:07:13.591Z</time></trkpt><trkpt lat="43.8248767" lon="12.227715"><ele>415.4</ele><time>2026-04-05T08:07:14.591Z</time></trkpt><trkpt lat="43.8247633" lon="12.22776"><ele>415.0</ele><time>2026-04-05T08:07:15.59Z</time></trkpt><trkpt lat="43.8246533" lon="12.22785"><ele>415.0</ele><time>2026-04-05T08:07:16.59Z</time></trkpt><trkpt lat="43.8245583" lon="12.22797"><ele>415.0</ele><time>2026-04-05T08:07:17.591Z</time></trkpt><trkpt lat="43.82447" lon="12.228125"><ele>415.0</ele><time>2026-04-05T08:07:18.591Z</time></trkpt><trkpt lat="43.8244" lon="12.2283283"><ele>415.0</ele><time>2026-04-05T08:07:19.591Z</time></trkpt><trkpt lat="43.8243317" lon="12.2285867"><ele>411.6666666666667</ele><time>2026-04-05T08:07:20.591Z</time></trkpt><trkpt lat="43.824265" lon="12.2288533"><ele>408.33333333333337</ele><time>2026-04-05T08:07:21.591Z</time></trkpt><trkpt lat="43.82419" lon="12.2291033"><ele>405.0</ele><time>2026-04-05T08:07:22.59Z</time></trkpt><trkpt lat="43.824105" lon="12.2293367"><ele>405.0</ele><time>2026-04-05T08:07:23.591Z</time></trkpt><trkpt lat="43.8240067" lon="12.22953"><ele>405.0</ele><time>2026-04-05T08:07:24.59Z</time></trkpt><trkpt lat="43.8239033" lon="12.2296683"><ele>405.0</ele><time>2026-04-05T08:07:25.59Z</time></trkpt><trkpt lat="43.82379" lon="12.2297867"><ele>403.5</ele><time>2026-04-05T08:07:26.591Z</time></trkpt><trkpt lat="43.8236733" lon="12.22988"><ele>402.0</ele><time>2026-04-05T08:07:27.59Z</time></trkpt><trkpt lat="43.82355" lon="12.229945"><ele>400.5</ele><time>2026-04-05T08:07:28.591Z</time></trkpt><trkpt lat="43.8234233" lon="12.2299767"><ele>399.0</ele><time>2026-04-05T08:07:29.591Z</time></trkpt><trkpt lat="43.8233117" lon="12.2299817"><ele>399.0</ele><time>2026-04-05T08:07:30.591Z</time></trkpt><trkpt lat="43.823215" lon="12.2299517"><ele>399.0</ele><time>2026-04-05T08:07:31.591Z</time></trkpt><trkpt lat="43.8231317" lon="12.2298867"><ele>399.0</ele><time>2026-04-05T08:07:32.59Z</time></trkpt><trkpt lat="43.8230633" lon="12.229785"><ele>399.0</ele><time>2026-04-05T08:07:33.591Z</time></trkpt><trkpt lat="43.8230083" lon="12.22965"><ele>399.0</ele><time>2026-04-05T08:07:34.591Z</time></trkpt><trkpt lat="43.822985" lon="12.229475"><ele>398.33333333333337</ele><time>2026-04-05T08:07:35.591Z</time></trkpt><trkpt lat="43.82298" lon="12.229255"><ele>397.6666666666667</ele><time>2026-04-05T08:07:36.591Z</time></trkpt><trkpt lat="43.823005" lon="12.229"><ele>397.0</ele><time>2026-04-05T08:07:37.59Z</time></trkpt><trkpt lat="43.8230233" lon="12.2287567"><ele>397.0</ele><time>2026-04-05T08:07:38.59Z</time></trkpt><trkpt lat="43.8230333" lon="12.2285483"><ele>397.0</ele><time>2026-04-05T08:07:39.591Z</time></trkpt><trkpt lat="43.8230367" lon="12.2283717"><ele>397.0</ele><time>2026-04-05T08:07:40.59Z</time></trkpt><trkpt lat="43.8230217" lon="12.22822"><ele>397.0</ele><time>2026-04-05T08:07:41.591Z</time></trkpt><trkpt lat="43.8229783" lon="12.2281017"><ele>397.0</ele><time>2026-04-05T08:07:42.591Z</time></trkpt><trkpt lat="43.822895" lon="12.228025"><ele>397.0</ele><time>2026-04-05T08:07:43.59Z</time></trkpt><trkpt lat="43.8227733" lon="12.2279933"><ele>397.0</ele><time>2026-04-05T08:07:44.59Z</time></trkpt><trkpt lat="43.82261" lon="12.227995"><ele>397.0</ele><time>2026-04-05T08:07:45.59Z</time></trkpt><trkpt lat="43.8224533" lon="12.2280017"><ele>393.33333333333337</ele><time>2026-04-05T08:07:46.591Z</time></trkpt><trkpt lat="43.82231" lon="12.22798"><ele>389.66666666666663</ele><time>2026-04-05T08:07:47.59Z</time></trkpt><trkpt lat="43.8221767" lon="12.2279067"><ele>386.0</ele><time>2026-04-05T08:07:48.591Z</time></trkpt><trkpt lat="43.82204" lon="12.2277683"><ele>386.0</ele><time>2026-04-05T08:07:49.591Z</time></trkpt><trkpt lat="43.8219167" lon="12.2275933"><ele>386.0</ele><time>2026-04-05T08:07:50.591Z</time></trkpt><trkpt lat="43.821805" lon="12.2274133"><ele>386.0</ele><time>2026-04-05T08:07:51.591Z</time></trkpt><trkpt lat="43.8216933" lon="12.22728"><ele>384.75</ele><time>2026-04-05T08:07:52.591Z</time></trkpt><trkpt lat="43.8215917" lon="12.2271817"><ele>383.5</ele><time>2026-04-05T08:07:53.591Z</time></trkpt><trkpt lat="43.8214933" lon="12.2271033"><ele>382.25</ele><time>2026-04-05T08:07:54.591Z</time></trkpt><trkpt lat="43.8213833" lon="12.227065"><ele>381.0</ele><time>2026-04-05T08:07:55.59Z</time></trkpt><trkpt lat="43.82125" lon="12.2270683"><ele>381.0</ele><time>2026-04-05T08:07:56.591Z</time></trkpt><trkpt lat="43.82113" lon="12.2270833"><ele>381.0</ele><time>2026-04-05T08:07:57.59Z</time></trkpt><trkpt lat="43.8210233" lon="12.22711"><ele>381.0</ele><time>2026-04-05T08:07:58.59Z</time></trkpt><trkpt lat="43.82093" lon="12.22715"><ele>381.0</ele><time>2026-04-05T08:07:59.591Z</time></trkpt><trkpt lat="43.8208517" lon="12.2272317"><ele>381.0</ele><time>2026-04-05T08:08:00.59Z</time></trkpt><trkpt lat="43.820805" lon="12.2273567"><ele>378.75</ele><time>2026-04-05T08:08:01.591Z</time></trkpt><trkpt lat="43.82079" lon="12.2275167"><ele>376.5</ele><time>2026-04-05T08:08:02.59Z</time></trkpt><trkpt lat="43.8208017" lon="12.2277133"><ele>374.25</ele><time>2026-04-05T08:08:03.591Z</time></trkpt><trkpt lat="43.8208067" lon="12.2279317"><ele>372.0</ele><time>2026-04-05T08:08:04.591Z</time></trkpt><trkpt lat="43.820785" lon="12.2281317"><ele>371.25</ele><time>2026-04-05T08:08:05.591Z</time></trkpt><trkpt lat="43.82074" lon="12.2282967"><ele>370.5</ele><time>2026-04-05T08:08:06.591Z</time></trkpt><trkpt lat="43.8206483" lon="12.2284083"><ele>369.75</ele><time>2026-04-05T08:08:07.591Z</time></trkpt><trkpt lat="43.8205317" lon="12.2284617"><ele>369.0</ele><time>2026-04-05T08:08:08.591Z</time></trkpt><trkpt lat="43.8203917" lon="12.22849"><ele>369.0</ele><time>2026-04-05T08:08:09.59Z</time></trkpt><trkpt lat="43.8202567" lon="12.22852"><ele>369.0</ele><time>2026-04-05T08:08:10.59Z</time></trkpt><trkpt lat="43.8201183" lon="12.2285933"><ele>369.0</ele><time>2026-04-05T08:08:11.591Z</time></trkpt><trkpt lat="43.8199917" lon="12.2287117"><ele>369.0</ele><time>2026-04-05T08:08:12.591Z</time></trkpt><trkpt lat="43.8198783" lon="12.2288233"><ele>366.5</ele><time>2026-04-05T08:08:13.591Z</time></trkpt><trkpt lat="43.8197717" lon="12.228945"><ele>364.0</ele><time>2026-04-05T08:08:14.591Z</time></trkpt><trkpt lat="43.8197067" lon="12.2290867"><ele>361.5</ele><time>2026-04-05T08:08:15.591Z</time></trkpt><trkpt lat="43.8196833" lon="12.2292617"><ele>359.0</ele><time>2026-04-05T08:08:16.591Z</time></trkpt><trkpt lat="43.8196783" lon="12.2294383"><ele>358.6</ele><time>2026-04-05T08:08:17.591Z</time></trkpt><trkpt lat="43.81967" lon="12.2295783"><ele>358.2</ele><time>2026-04-05T08:08:18.59Z</time></trkpt><trkpt lat="43.8196417" lon="12.2296833"><ele>357.8</ele><time>2026-04-05T08:08:19.591Z</time></trkpt><trkpt lat="43.8196" lon="12.2297867"><ele>357.40000000000003</ele><time>2026-04-05T08:08:21.591Z</time></trkpt><trkpt lat="43.81963" lon="12.2299367"><ele>357.0</ele><time>2026-04-05T08:08:23.591Z</time></trkpt><trkpt lat="43.8197" lon="12.2300567"><ele>356.3333333333333</ele><time>2026-04-05T08:08:24.591Z</time></trkpt><trkpt lat="43.819805" lon="12.2302117"><ele>355.66666666666663</ele><time>2026-04-05T08:08:25.591Z</time></trkpt><trkpt lat="43.819945" lon="12.2304"><ele>355.0</ele><time>2026-04-05T08:08:26.59Z</time></trkpt><trkpt lat="43.820095" lon="12.230605"><ele>356.5</ele><time>2026-04-05T08:08:27.591Z</time></trkpt><trkpt lat="43.820265" lon="12.2308417"><ele>358.0</ele><time>2026-04-05T08:08:28.591Z</time></trkpt><trkpt lat="43.8204433" lon="12.2310917"><ele>358.0</ele><time>2026-04-05T08:08:29.591Z</time></trkpt><trkpt lat="43.8206217" lon="12.2313333"><ele>358.0</ele><time>2026-04-05T08:08:30.591Z</time></trkpt><trkpt lat="43.820785" lon="12.2315633"><ele>356.3333333333333</ele><time>2026-04-05T08:08:31.59Z</time></trkpt><trkpt lat="43.8209317" lon="12.231775"><ele>354.6666666666667</ele><time>2026-04-05T08:08:32.591Z</time></trkpt><trkpt lat="43.821055" lon="12.2319583"><ele>353.0</ele><time>2026-04-05T08:08:33.591Z</time></trkpt><trkpt lat="43.8211583" lon="12.2321267"><ele>354.25</ele><time>2026-04-05T08:08:34.591Z</time></trkpt><trkpt lat="43.8212333" lon="12.2322767"><ele>355.5</ele><time>2026-04-05T08:08:35.591Z</time></trkpt><trkpt lat="43.821285" lon="12.23244"><ele>356.75</ele><time>2026-04-05T08:08:36.591Z</time></trkpt><trkpt lat="43.8213033" lon="12.2326133"><ele>358.0</ele><time>2026-04-05T08:08:37.59Z</time></trkpt><trkpt lat="43.821285" lon="12.2327917"><ele>358.0</ele><time>2026-04-05T08:08:38.591Z</time></trkpt><trkpt lat="43.8212467" lon="12.2329567"><ele>358.0</ele><time>2026-04-05T08:08:39.59Z</time></trkpt><trkpt lat="43.8211817" lon="12.2331367"><ele>358.0</ele><time>2026-04-05T08:08:40.591Z</time></trkpt><trkpt lat="43.821095" lon="12.2333533"><ele>358.0</ele><time>2026-04-05T08:08:41.591Z</time></trkpt><trkpt lat="43.8209767" lon="12.2336133"><ele>353.0</ele><time>2026-04-05T08:08:42.591Z</time></trkpt><trkpt lat="43.82084" lon="12.2339133"><ele>348.0</ele><time>2026-04-05T08:08:43.591Z</time></trkpt><trkpt lat="43.8206933" lon="12.23422"><ele>346.5</ele><time>2026-04-05T08:08:44.59Z</time></trkpt><trkpt lat="43.8205317" lon="12.2345933"><ele>345.0</ele><time>2026-04-05T08:08:45.591Z</time></trkpt><trkpt lat="43.82037" lon="12.2349517"><ele>344.5</ele><time>2026-04-05T08:08:46.591Z</time></trkpt><trkpt lat="43.8202233" lon="12.235265"><ele>344.0</ele><time>2026-04-05T08:08:47.59Z</time></trkpt><trkpt lat="43.820095" lon="12.2355667"><ele>345.5</ele><time>2026-04-05T08:08:48.591Z</time></trkpt><trkpt lat="43.8199717" lon="12.235845"><ele>347.0</ele><time>2026-04-05T08:08:49.59Z</time></trkpt><trkpt lat="43.8198533" lon="12.2361033"><ele>347.0</ele><time>2026-04-05T08:08:50.591Z</time></trkpt><trkpt lat="43.8197467" lon="12.2363433"><ele>347.0</ele><time>2026-04-05T08:08:51.591Z</time></trkpt><trkpt lat="43.819645" lon="12.2365717"><ele>347.0</ele><time>2026-04-05T08:08:52.59Z</time></trkpt><trkpt lat="43.8195517" lon="12.2367667"><ele>347.40000000000003</ele><time>2026-04-05T08:08:53.591Z</time></trkpt><trkpt lat="43.8194767" lon="12.23694"><ele>347.8</ele><time>2026-04-05T08:08:54.59Z</time></trkpt><trkpt lat="43.8194167" lon="12.2370883"><ele>348.2</ele><time>2026-04-05T08:08:55.591Z</time></trkpt><trkpt lat="43.8193667" lon="12.2372033"><ele>348.6</ele><time>2026-04-05T08:08:56.59Z</time></trkpt><trkpt lat="43.819325" lon="12.2372967"><ele>349.0</ele><time>2026-04-05T08:08:57.591Z</time></trkpt><trkpt lat="43.819285" lon="12.2374133"><ele>348.75</ele><time>2026-04-05T08:08:59.591Z</time></trkpt><trkpt lat="43.8193129" lon="12.2375631"><ele>348.5</ele><time>2026-04-05T08:15:29.592Z</time></trkpt><trkpt lat="43.8193294" lon="12.2377098"><ele>348.25</ele><time>2026-04-05T08:15:30.592Z</time></trkpt><trkpt lat="43.8193266" lon="12.2378695"><ele>348.0</ele><time>2026-04-05T08:15:31.592Z</time></trkpt><trkpt lat="43.8193097" lon="12.2380337"><ele>348.5</ele><time>2026-04-05T08:15:32.592Z</time></trkpt><trkpt lat="43.8192802" lon="12.2382195"><ele>349.0</ele><time>2026-04-05T08:15:33.591Z</time></trkpt><trkpt lat="43.8192507" lon="12.2384138"><ele>349.5</ele><time>2026-04-05T08:15:34.592Z</time></trkpt><trkpt lat="43.8192247" lon="12.2386189"><ele>350.0</ele><time>2026-04-05T08:15:35.592Z</time></trkpt><trkpt lat="43.8192047" lon="12.2388369"><ele>349.33333333333337</ele><time>2026-04-05T08:15:36.591Z</time></trkpt><trkpt lat="43.8191827" lon="12.2390728"><ele>348.6666666666667</ele><time>2026-04-05T08:15:37.592Z</time></trkpt><trkpt lat="43.819158" lon="12.2393251"><ele>348.0</ele><time>2026-04-05T08:15:38.592Z</time></trkpt><trkpt lat="43.819126" lon="12.2395903"><ele>348.3333333333333</ele><time>2026-04-05T08:15:39.591Z</time></trkpt><trkpt lat="43.8190948" lon="12.2398694"><ele>348.66666666666663</ele><time>2026-04-05T08:15:40.592Z</time></trkpt><trkpt lat="43.8190645" lon="12.2401399"><ele>349.0</ele><time>2026-04-05T08:15:41.592Z</time></trkpt><trkpt lat="43.8190396" lon="12.2403908"><ele>349.0</ele><time>2026-04-05T08:15:42.592Z</time></trkpt><trkpt lat="43.8190123" lon="12.240629"><ele>349.0</ele><time>2026-04-05T08:15:43.591Z</time></trkpt><trkpt lat="43.8189871" lon="12.2408599"><ele>349.0</ele><time>2026-04-05T08:15:44.592Z</time></trkpt><trkpt lat="43.8189792" lon="12.241089"><ele>349.3333333333333</ele><time>2026-04-05T08:15:45.591Z</time></trkpt><trkpt lat="43.8189955" lon="12.2413177"><ele>349.6666666666667</ele><time>2026-04-05T08:15:46.592Z</time></trkpt><trkpt lat="43.8190585" lon="12.2415432"><ele>350.0</ele><time>2026-04-05T08:15:47.592Z</time></trkpt><trkpt lat="43.8191492" lon="12.2417601"><ele>350.33333333333337</ele><time>2026-04-05T08:15:48.592Z</time></trkpt><trkpt lat="43.8192455" lon="12.2419573"><ele>350.6666666666667</ele><time>2026-04-05T08:15:49.591Z</time></trkpt><trkpt lat="43.8193308" lon="12.2421351"><ele>351.0</ele><time>2026-04-05T08:15:50.592Z</time></trkpt><trkpt lat="43.8193949" lon="12.2423105"><ele>352.0</ele><time>2026-04-05T08:15:51.592Z</time></trkpt><trkpt lat="43.8194261" lon="12.2425"><ele>353.0</ele><time>2026-04-05T08:15:52.592Z</time></trkpt><trkpt lat="43.8194243" lon="12.2427066"><ele>354.0</ele><time>2026-04-05T08:15:53.591Z</time></trkpt><trkpt lat="43.8193921" lon="12.2429367"><ele>354.3333333333333</ele><time>2026-04-05T08:15:54.592Z</time></trkpt><trkpt lat="43.8193432" lon="12.2431722"><ele>354.66666666666663</ele><time>2026-04-05T08:15:55.591Z</time></trkpt><trkpt lat="43.8192899" lon="12.2434014"><ele>355.0</ele><time>2026-04-05T08:15:56.591Z</time></trkpt><trkpt lat="43.8192411" lon="12.2436182"><ele>355.0</ele><time>2026-04-05T08:15:57.592Z</time></trkpt><trkpt lat="43.8191992" lon="12.2438209"><ele>355.0</ele><time>2026-04-05T08:15:58.591Z</time></trkpt><trkpt lat="43.8191532" lon="12.2440268"><ele>355.0</ele><time>2026-04-05T08:15:59.592Z</time></trkpt><trkpt lat="43.8191127" lon="12.2442351"><ele>356.66666666666663</ele><time>2026-04-05T08:16:00.591Z</time></trkpt><trkpt lat="43.8190641" lon="12.244452"><ele>358.3333333333333</ele><time>2026-04-05T08:16:01.592Z</time></trkpt><trkpt lat="43.8190182" lon="12.2446628"><ele>360.0</ele><time>2026-04-05T08:16:02.591Z</time></trkpt><trkpt lat="43.8189775" lon="12.2448408"><ele>360.8</ele><time>2026-04-05T08:16:03.592Z</time></trkpt><trkpt lat="43.818943" lon="12.2449965"><ele>361.6</ele><time>2026-04-05T08:16:04.592Z</time></trkpt><trkpt lat="43.8189051" lon="12.2451372"><ele>362.4</ele><time>2026-04-05T08:16:05.591Z</time></trkpt><trkpt lat="43.8188568" lon="12.2452457"><ele>363.2</ele><time>2026-04-05T08:16:06.592Z</time></trkpt><trkpt lat="43.8188127" lon="12.2453276"><ele>364.0</ele><time>2026-04-05T08:16:07.592Z</time></trkpt><trkpt lat="43.8187619" lon="12.2454239"><ele>364.0</ele><time>2026-04-05T08:16:09.591Z</time></trkpt><trkpt lat="43.8187735" lon="12.2455297"><ele>364.0</ele><time>2026-04-05T08:16:11.592Z</time></trkpt><trkpt lat="43.8188099" lon="12.2456256"><ele>364.0</ele><time>2026-04-05T08:16:12.592Z</time></trkpt><trkpt lat="43.818869" lon="12.2457616"><ele>364.0</ele><time>2026-04-05T08:16:13.592Z</time></trkpt><trkpt lat="43.8189587" lon="12.2459331"><ele>364.0</ele><time>2026-04-05T08:16:14.591Z</time></trkpt><trkpt lat="43.8190648" lon="12.2461264"><ele>364.66666666666663</ele><time>2026-04-05T08:16:15.592Z</time></trkpt><trkpt lat="43.8191737" lon="12.2463413"><ele>365.3333333333333</ele><time>2026-04-05T08:16:16.592Z</time></trkpt><trkpt lat="43.819285" lon="12.2465551"><ele>366.0</ele><time>2026-04-05T08:16:17.592Z</time></trkpt><trkpt lat="43.8193914" lon="12.2467541"><ele>365.6666666666667</ele><time>2026-04-05T08:16:18.591Z</time></trkpt><trkpt lat="43.8194846" lon="12.2469414"><ele>365.33333333333337</ele><time>2026-04-05T08:16:19.592Z</time></trkpt><trkpt lat="43.8195783" lon="12.2471266"><ele>365.0</ele><time>2026-04-05T08:16:20.591Z</time></trkpt><trkpt lat="43.819675" lon="12.2473117"><ele>365.0</ele><time>2026-04-05T08:16:21.592Z</time></trkpt><trkpt lat="43.8197683" lon="12.2474833"><ele>365.0</ele><time>2026-04-05T08:16:22.592Z</time></trkpt><trkpt lat="43.819845" lon="12.2476383"><ele>365.0</ele><time>2026-04-05T08:16:23.592Z</time></trkpt><trkpt lat="43.8199167" lon="12.2477683"><ele>365.0</ele><time>2026-04-05T08:16:24.591Z</time></trkpt><trkpt lat="43.8199817" lon="12.2478733"><ele>365.0</ele><time>2026-04-05T08:16:25.591Z</time></trkpt><trkpt lat="43.8200333" lon="12.2479583"><ele>365.0</ele><time>2026-04-05T08:16:26.592Z</time></trkpt><trkpt lat="43.8200517" lon="12.24812"><ele>365.0</ele><time>2026-04-05T08:16:28.592Z</time></trkpt><trkpt lat="43.8200217" lon="12.2482183"><ele>365.0</ele><time>2026-04-05T08:16:29.592Z</time></trkpt><trkpt lat="43.8199417" lon="12.2483183"><ele>365.0</ele><time>2026-04-05T08:16:30.592Z</time></trkpt><trkpt lat="43.8198317" lon="12.2484567"><ele>367.6666666666667</ele><time>2026-04-05T08:16:31.592Z</time></trkpt><trkpt lat="43.8197033" lon="12.2486383"><ele>370.3333333333333</ele><time>2026-04-05T08:16:32.592Z</time></trkpt><trkpt lat="43.8195983" lon="12.248845"><ele>373.0</ele><time>2026-04-05T08:16:33.592Z</time></trkpt><trkpt lat="43.81951" lon="12.249025"><ele>375.0</ele><time>2026-04-05T08:16:34.592Z</time></trkpt><trkpt lat="43.819445" lon="12.249195"><ele>377.0</ele><time>2026-04-05T08:16:35.592Z</time></trkpt><trkpt lat="43.8193833" lon="12.2493933"><ele>379.0</ele><time>2026-04-05T08:16:36.592Z</time></trkpt><trkpt lat="43.8193167" lon="12.249635"><ele>381.66666666666663</ele><time>2026-04-05T08:16:37.592Z</time></trkpt><trkpt lat="43.819235" lon="12.2499133"><ele>384.3333333333333</ele><time>2026-04-05T08:16:38.592Z</time></trkpt><trkpt lat="43.819135" lon="12.2501817"><ele>387.0</ele><time>2026-04-05T08:16:39.592Z</time></trkpt><trkpt lat="43.8190183" lon="12.250435"><ele>389.33333333333337</ele><time>2026-04-05T08:16:40.591Z</time></trkpt><trkpt lat="43.818895" lon="12.25067"><ele>391.6666666666667</ele><time>2026-04-05T08:16:41.591Z</time></trkpt><trkpt lat="43.8187633" lon="12.2509033"><ele>394.0</ele><time>2026-04-05T08:16:42.591Z</time></trkpt><trkpt lat="43.8186467" lon="12.2511217"><ele>394.0</ele><time>2026-04-05T08:16:43.592Z</time></trkpt><trkpt lat="43.81854" lon="12.2513217"><ele>394.0</ele><time>2026-04-05T08:16:44.592Z</time></trkpt><trkpt lat="43.8184417" lon="12.251515"><ele>394.0</ele><time>2026-04-05T08:16:45.592Z</time></trkpt><trkpt lat="43.8183417" lon="12.2516983"><ele>394.25</ele><time>2026-04-05T08:16:46.591Z</time></trkpt><trkpt lat="43.818255" lon="12.25186"><ele>394.5</ele><time>2026-04-05T08:16:47.592Z</time></trkpt><trkpt lat="43.8181833" lon="12.2519967"><ele>394.75</ele><time>2026-04-05T08:16:48.592Z</time></trkpt><trkpt lat="43.8181483" lon="12.252115"><ele>395.0</ele><time>2026-04-05T08:16:49.591Z</time></trkpt><trkpt lat="43.818145" lon="12.25224"><ele>397.5</ele><time>2026-04-05T08:16:50.591Z</time></trkpt><trkpt lat="43.818175" lon="12.25237"><ele>400.0</ele><time>2026-04-05T08:16:51.591Z</time></trkpt><trkpt lat="43.81827" lon="12.2524683"><ele>402.5</ele><time>2026-04-05T08:16:52.57Z</time></trkpt><trkpt lat="43.8182083" lon="12.2525033"><ele>405.0</ele><time>2026-04-05T08:16:53.75Z</time></trkpt><trkpt lat="43.8184463" lon="12.2524679"><ele>404.66666666666663</ele><time>2026-04-05T08:16:55.089Z</time></trkpt><trkpt lat="43.8185317" lon="12.2524195"><ele>404.3333333333333</ele><time>2026-04-05T08:16:56.09Z</time></trkpt><trkpt lat="43.818651" lon="12.2523509"><ele>404.0</ele><time>2026-04-05T08:16:57.09Z</time></trkpt><trkpt lat="43.818848" lon="12.2521801"><ele>404.0</ele><time>2026-04-05T08:16:58.59Z</time></trkpt><trkpt lat="43.8190076" lon="12.2520783"><ele>404.0</ele><time>2026-04-05T08:16:59.589Z</time></trkpt><trkpt lat="43.8191645" lon="12.252049"><ele>404.0</ele><time>2026-04-05T08:17:00.59Z</time></trkpt><trkpt lat="43.8193231" lon="12.2520537"><ele>406.3333333333333</ele><time>2026-04-05T08:17:01.59Z</time></trkpt><trkpt lat="43.8194911" lon="12.2520528"><ele>408.66666666666663</ele><time>2026-04-05T08:17:02.59Z</time></trkpt><trkpt lat="43.8196658" lon="12.2520106"><ele>411.0</ele><time>2026-04-05T08:17:03.59Z</time></trkpt><trkpt lat="43.8198363" lon="12.25192"><ele>411.0</ele><time>2026-04-05T08:17:04.59Z</time></trkpt><trkpt lat="43.8199954" lon="12.2517682"><ele>411.0</ele><time>2026-04-05T08:17:05.589Z</time></trkpt><trkpt lat="43.8201477" lon="12.2515677"><ele>411.0</ele><time>2026-04-05T08:17:06.59Z</time></trkpt><trkpt lat="43.8202818" lon="12.2513671"><ele>410.0</ele><time>2026-04-05T08:17:07.59Z</time></trkpt><trkpt lat="43.8204031" lon="12.2511904"><ele>409.0</ele><time>2026-04-05T08:17:08.589Z</time></trkpt><trkpt lat="43.8205072" lon="12.2510479"><ele>408.0</ele><time>2026-04-05T08:17:09.589Z</time></trkpt><trkpt lat="43.8205856" lon="12.2509491"><ele>407.0</ele><time>2026-04-05T08:17:10.59Z</time></trkpt><trkpt lat="43.820652" lon="12.2508962"><ele>406.99999999999994</ele><time>2026-04-05T08:17:11.59Z</time></trkpt><trkpt lat="43.8207212" lon="12.2509078"><ele>407.0</ele><time>2026-04-05T08:17:12.589Z</time></trkpt><trkpt lat="43.8207865" lon="12.2509728"><ele>407.0</ele><time>2026-04-05T08:17:13.589Z</time></trkpt><trkpt lat="43.8208297" lon="12.2510565"><ele>407.0</ele><time>2026-04-05T08:17:14.59Z</time></trkpt><trkpt lat="43.8208346" lon="12.2511744"><ele>406.99999999999994</ele><time>2026-04-05T08:17:15.589Z</time></trkpt><trkpt lat="43.8207928" lon="12.2513309"><ele>407.0</ele><time>2026-04-05T08:17:16.59Z</time></trkpt><trkpt lat="43.8207163" lon="12.2515225"><ele>426.0</ele><time>2026-04-05T08:17:17.59Z</time></trkpt><trkpt lat="43.8204202" lon="12.2522973"><ele>426.0</ele><time>2026-04-05T08:17:20.589Z</time></trkpt><trkpt lat="43.8203361" lon="12.2525775"><ele>426.0</ele><time>2026-04-05T08:17:21.59Z</time></trkpt><trkpt lat="43.8202554" lon="12.2528436"><ele>426.0</ele><time>2026-04-05T08:17:22.59Z</time></trkpt><trkpt lat="43.8201825" lon="12.2530841"><ele>427.0</ele><time>2026-04-05T08:17:23.59Z</time></trkpt><trkpt lat="43.8201099" lon="12.2532928"><ele>428.0</ele><time>2026-04-05T08:17:24.59Z</time></trkpt><trkpt lat="43.8200233" lon="12.2534589"><ele>429.0</ele><time>2026-04-05T08:17:25.59Z</time></trkpt><trkpt lat="43.8198992" lon="12.2535795"><ele>429.0</ele><time>2026-04-05T08:17:26.589Z</time></trkpt><trkpt lat="43.819758" lon="12.2536727"><ele>429.0</ele><time>2026-04-05T08:17:27.59Z</time></trkpt><trkpt lat="43.8196355" lon="12.2537573"><ele>429.0</ele><time>2026-04-05T08:17:28.59Z</time></trkpt><trkpt lat="43.8195294" lon="12.2538656"><ele>429.0</ele><time>2026-04-05T08:17:29.589Z</time></trkpt><trkpt lat="43.8194467" lon="12.2540063"><ele>432.0</ele><time>2026-04-05T08:17:30.59Z</time></trkpt><trkpt lat="43.8193974" lon="12.2541927"><ele>435.0</ele><time>2026-04-05T08:17:31.59Z</time></trkpt><trkpt lat="43.8193906" lon="12.2544287"><ele>438.0</ele><time>2026-04-05T08:17:32.59Z</time></trkpt><trkpt lat="43.8193999" lon="12.2546904"><ele>439.0</ele><time>2026-04-05T08:17:33.59Z</time></trkpt><trkpt lat="43.8194036" lon="12.2549344"><ele>440.0</ele><time>2026-04-05T08:17:34.589Z</time></trkpt><trkpt lat="43.8193717" lon="12.2551675"><ele>441.0</ele><time>2026-04-05T08:17:35.589Z</time></trkpt><trkpt lat="43.8192855" lon="12.2553851"><ele>441.0</ele><time>2026-04-05T08:17:36.59Z</time></trkpt><trkpt lat="43.8191662" lon="12.255588"><ele>441.0</ele><time>2026-04-05T08:17:37.589Z</time></trkpt><trkpt lat="43.8190392" lon="12.2557499"><ele>441.0</ele><time>2026-04-05T08:17:38.589Z</time></trkpt><trkpt lat="43.8188901" lon="12.2558744"><ele>445.0</ele><time>2026-04-05T08:17:39.59Z</time></trkpt><trkpt lat="43.818721" lon="12.2559537"><ele>449.0</ele><time>2026-04-05T08:17:40.59Z</time></trkpt><trkpt lat="43.818543" lon="12.2560216"><ele>453.0</ele><time>2026-04-05T08:17:41.59Z</time></trkpt><trkpt lat="43.8183532" lon="12.2560795"><ele>453.0</ele><time>2026-04-05T08:17:42.589Z</time></trkpt><trkpt lat="43.8181677" lon="12.2561017"><ele>453.0</ele><time>2026-04-05T08:17:43.59Z</time></trkpt><trkpt lat="43.8179911" lon="12.2560659"><ele>453.0</ele><time>2026-04-05T08:17:44.59Z</time></trkpt><trkpt lat="43.8178311" lon="12.2560175"><ele>453.0</ele><time>2026-04-05T08:17:45.59Z</time></trkpt><trkpt lat="43.8176918" lon="12.2559984"><ele>453.0</ele><time>2026-04-05T08:17:46.59Z</time></trkpt><trkpt lat="43.8175751" lon="12.256031"><ele>453.0</ele><time>2026-04-05T08:17:47.59Z</time></trkpt><trkpt lat="43.8174694" lon="12.2561478"><ele>453.0</ele><time>2026-04-05T08:17:48.589Z</time></trkpt><trkpt lat="43.8173657" lon="12.2563353"><ele>457.0</ele><time>2026-04-05T08:17:49.59Z</time></trkpt><trkpt lat="43.8172716" lon="12.2565693"><ele>461.0</ele><time>2026-04-05T08:17:50.59Z</time></trkpt><trkpt lat="43.8171919" lon="12.2568178"><ele>465.0</ele><time>2026-04-05T08:17:51.59Z</time></trkpt><trkpt lat="43.8171385" lon="12.2570614"><ele>468.33333333333337</ele><time>2026-04-05T08:17:52.59Z</time></trkpt><trkpt lat="43.8170934" lon="12.2572943"><ele>471.6666666666667</ele><time>2026-04-05T08:17:53.59Z</time></trkpt><trkpt lat="43.8170263" lon="12.2575246"><ele>475.0</ele><time>2026-04-05T08:17:54.59Z</time></trkpt><trkpt lat="43.8169388" lon="12.2577447"><ele>475.0</ele><time>2026-04-05T08:17:55.589Z</time></trkpt><trkpt lat="43.8168423" lon="12.2579517"><ele>475.0</ele><time>2026-04-05T08:17:56.59Z</time></trkpt><trkpt lat="43.816724" lon="12.2581398"><ele>475.0</ele><time>2026-04-05T08:17:57.59Z</time></trkpt><trkpt lat="43.8165858" lon="12.2582858"><ele>475.0</ele><time>2026-04-05T08:17:58.589Z</time></trkpt><trkpt lat="43.8164429" lon="12.2583957"><ele>475.0</ele><time>2026-04-05T08:17:59.59Z</time></trkpt><trkpt lat="43.8163088" lon="12.2584709"><ele>475.0</ele><time>2026-04-05T08:18:00.589Z</time></trkpt><trkpt lat="43.8161735" lon="12.25851"><ele>475.0</ele><time>2026-04-05T08:18:01.59Z</time></trkpt><trkpt lat="43.8160308" lon="12.2585046"><ele>475.6666666666667</ele><time>2026-04-05T08:18:02.589Z</time></trkpt><trkpt lat="43.8158743" lon="12.2584619"><ele>476.33333333333337</ele><time>2026-04-05T08:18:03.589Z</time></trkpt><trkpt lat="43.8156978" lon="12.258402"><ele>477.0</ele><time>2026-04-05T08:18:04.589Z</time></trkpt><trkpt lat="43.8155172" lon="12.2583382"><ele>477.0</ele><time>2026-04-05T08:18:05.59Z</time></trkpt><trkpt lat="43.8153328" lon="12.2582984"><ele>477.0</ele><time>2026-04-05T08:18:06.589Z</time></trkpt><trkpt lat="43.8151549" lon="12.2582887"><ele>477.0</ele><time>2026-04-05T08:18:07.59Z</time></trkpt><trkpt lat="43.8149984" lon="12.2582917"><ele>477.6</ele><time>2026-04-05T08:18:08.59Z</time></trkpt><trkpt lat="43.8148671" lon="12.2582949"><ele>478.20000000000005</ele><time>2026-04-05T08:18:09.59Z</time></trkpt><trkpt lat="43.8147621" lon="12.2583049"><ele>478.8</ele><time>2026-04-05T08:18:10.589Z</time></trkpt><trkpt lat="43.8146844" lon="12.2583567"><ele>479.4</ele><time>2026-04-05T08:18:11.589Z</time></trkpt><trkpt lat="43.8146341" lon="12.2584578"><ele>480.0</ele><time>2026-04-05T08:18:12.589Z</time></trkpt><trkpt lat="43.8146287" lon="12.258584"><ele>480.0</ele><time>2026-04-05T08:18:13.59Z</time></trkpt><trkpt lat="43.8146702" lon="12.2587071"><ele>480.0</ele><time>2026-04-05T08:18:14.59Z</time></trkpt><trkpt lat="43.814773" lon="12.2588107"><ele>480.0</ele><time>2026-04-05T08:18:15.589Z</time></trkpt><trkpt lat="43.8149171" lon="12.2588954"><ele>480.0</ele><time>2026-04-05T08:18:16.589Z</time></trkpt><trkpt lat="43.8150512" lon="12.258989"><ele>481.75</ele><time>2026-04-05T08:18:17.59Z</time></trkpt><trkpt lat="43.8151525" lon="12.2591154"><ele>483.5</ele><time>2026-04-05T08:18:18.589Z</time></trkpt><trkpt lat="43.8152093" lon="12.25928"><ele>485.25</ele><time>2026-04-05T08:18:19.589Z</time></trkpt><trkpt lat="43.815213" lon="12.2594649"><ele>487.0</ele><time>2026-04-05T08:18:20.59Z</time></trkpt><trkpt lat="43.8151697" lon="12.2596512"><ele>491.33333333333337</ele><time>2026-04-05T08:18:21.589Z</time></trkpt><trkpt lat="43.8150876" lon="12.259824"><ele>495.66666666666663</ele><time>2026-04-05T08:18:22.59Z</time></trkpt><trkpt lat="43.8149667" lon="12.2599853"><ele>500.0</ele><time>2026-04-05T08:18:23.59Z</time></trkpt><trkpt lat="43.8148253" lon="12.2601328"><ele>500.0</ele><time>2026-04-05T08:18:24.59Z</time></trkpt><trkpt lat="43.8146853" lon="12.2602966"><ele>500.0</ele><time>2026-04-05T08:18:25.59Z</time></trkpt><trkpt lat="43.8145496" lon="12.2604879"><ele>500.0</ele><time>2026-04-05T08:18:26.59Z</time></trkpt><trkpt lat="43.8144265" lon="12.2607034"><ele>501.66666666666663</ele><time>2026-04-05T08:18:27.59Z</time></trkpt><trkpt lat="43.8143225" lon="12.2609216"><ele>503.33333333333337</ele><time>2026-04-05T08:18:28.59Z</time></trkpt><trkpt lat="43.8142323" lon="12.2611229"><ele>505.0</ele><time>2026-04-05T08:18:29.589Z</time></trkpt><trkpt lat="43.8141551" lon="12.2613028"><ele>506.2</ele><time>2026-04-05T08:18:30.59Z</time></trkpt><trkpt lat="43.8140879" lon="12.2614545"><ele>507.4</ele><time>2026-04-05T08:18:31.59Z</time></trkpt><trkpt lat="43.8140421" lon="12.2615865"><ele>508.6</ele><time>2026-04-05T08:18:32.589Z</time></trkpt><trkpt lat="43.8140284" lon="12.2617109"><ele>509.8</ele><time>2026-04-05T08:18:33.59Z</time></trkpt><trkpt lat="43.8140598" lon="12.2618292"><ele>511.0</ele><time>2026-04-05T08:18:34.59Z</time></trkpt><trkpt lat="43.8141277" lon="12.2619223"><ele>511.0</ele><time>2026-04-05T08:18:35.59Z</time></trkpt><trkpt lat="43.814232" lon="12.261973"><ele>511.0</ele><time>2026-04-05T08:18:36.59Z</time></trkpt><trkpt lat="43.8143847" lon="12.2619367"><ele>511.0</ele><time>2026-04-05T08:18:37.59Z</time></trkpt><trkpt lat="43.8145562" lon="12.2618691"><ele>511.0</ele><time>2026-04-05T08:18:38.59Z</time></trkpt><trkpt lat="43.8147327" lon="12.2617968"><ele>516.0</ele><time>2026-04-05T08:18:39.59Z</time></trkpt><trkpt lat="43.8149094" lon="12.2617103"><ele>521.0</ele><time>2026-04-05T08:18:40.59Z</time></trkpt><trkpt lat="43.8150662" lon="12.2616155"><ele>526.0</ele><time>2026-04-05T08:18:41.589Z</time></trkpt><trkpt lat="43.8152" lon="12.2615165"><ele>524.4</ele><time>2026-04-05T08:18:42.589Z</time></trkpt><trkpt lat="43.8153076" lon="12.2614182"><ele>522.8</ele><time>2026-04-05T08:18:43.59Z</time></trkpt><trkpt lat="43.815392" lon="12.2613367"><ele>521.1999999999999</ele><time>2026-04-05T08:18:44.589Z</time></trkpt><trkpt lat="43.8154583" lon="12.2612709"><ele>519.6</ele><time>2026-04-05T08:18:45.59Z</time></trkpt><trkpt lat="43.8155464" lon="12.2611939"><ele>518.0</ele><time>2026-04-05T08:18:47.59Z</time></trkpt><trkpt lat="43.8155978" lon="12.2612562"><ele>518.0</ele><time>2026-04-05T08:18:50.59Z</time></trkpt><trkpt lat="43.8155524" lon="12.2613648"><ele>518.0</ele><time>2026-04-05T08:18:52.59Z</time></trkpt><trkpt lat="43.8154961" lon="12.261435"><ele>518.0</ele><time>2026-04-05T08:18:53.59Z</time></trkpt><trkpt lat="43.8153934" lon="12.2615276"><ele>518.0</ele><time>2026-04-05T08:18:54.589Z</time></trkpt><trkpt lat="43.815267" lon="12.2616576"><ele>518.0</ele><time>2026-04-05T08:18:55.589Z</time></trkpt><trkpt lat="43.8151351" lon="12.2618034"><ele>520.0</ele><time>2026-04-05T08:18:56.59Z</time></trkpt><trkpt lat="43.8150219" lon="12.2619476"><ele>522.0</ele><time>2026-04-05T08:18:57.59Z</time></trkpt><trkpt lat="43.8149283" lon="12.2620743"><ele>524.0</ele><time>2026-04-05T08:18:58.59Z</time></trkpt><trkpt lat="43.8148553" lon="12.2622004"><ele>526.0</ele><time>2026-04-05T08:18:59.59Z</time></trkpt><trkpt lat="43.8147978" lon="12.2623282"><ele>530.0</ele><time>2026-04-05T08:19:00.59Z</time></trkpt><trkpt lat="43.8147581" lon="12.2624748"><ele>534.0</ele><time>2026-04-05T08:19:01.59Z</time></trkpt><trkpt lat="43.8147431" lon="12.2626529"><ele>538.0</ele><time>2026-04-05T08:19:02.589Z</time></trkpt><trkpt lat="43.8147424" lon="12.2628514"><ele>542.0</ele><time>2026-04-05T08:19:03.59Z</time></trkpt><trkpt lat="43.8147498" lon="12.2630633"><ele>542.6666666666666</ele><time>2026-04-05T08:19:04.59Z</time></trkpt><trkpt lat="43.8147542" lon="12.2633009"><ele>543.3333333333334</ele><time>2026-04-05T08:19:05.59Z</time></trkpt><trkpt lat="43.8147562" lon="12.2635586"><ele>544.0</ele><time>2026-04-05T08:19:06.59Z</time></trkpt><trkpt lat="43.8147668" lon="12.2638274"><ele>541.0</ele><time>2026-04-05T08:19:07.589Z</time></trkpt><trkpt lat="43.8147707" lon="12.2640859"><ele>538.0</ele><time>2026-04-05T08:19:08.59Z</time></trkpt><trkpt lat="43.8147706" lon="12.2643269"><ele>535.0</ele><time>2026-04-05T08:19:09.59Z</time></trkpt><trkpt lat="43.8147647" lon="12.2645561"><ele>535.0</ele><time>2026-04-05T08:19:10.59Z</time></trkpt><trkpt lat="43.8147687" lon="12.2647735"><ele>535.0</ele><time>2026-04-05T08:19:11.59Z</time></trkpt><trkpt lat="43.8147969" lon="12.2649744"><ele>535.0</ele><time>2026-04-05T08:19:12.59Z</time></trkpt><trkpt lat="43.8148461" lon="12.2651615"><ele>535.0</ele><time>2026-04-05T08:19:13.59Z</time></trkpt><trkpt lat="43.8148871" lon="12.2653414"><ele>532.0</ele><time>2026-04-05T08:19:14.589Z</time></trkpt><trkpt lat="43.8148983" lon="12.2655291"><ele>529.0</ele><time>2026-04-05T08:19:15.59Z</time></trkpt><trkpt lat="43.8148755" lon="12.2657348"><ele>526.0</ele><time>2026-04-05T08:19:16.589Z</time></trkpt><trkpt lat="43.8148237" lon="12.2659502"><ele>526.0</ele><time>2026-04-05T08:19:17.59Z</time></trkpt><trkpt lat="43.8147634" lon="12.2661824"><ele>526.0</ele><time>2026-04-05T08:19:18.589Z</time></trkpt><trkpt lat="43.8146976" lon="12.2664261"><ele>526.0</ele><time>2026-04-05T08:19:19.59Z</time></trkpt><trkpt lat="43.8146294" lon="12.2666677"><ele>527.6666666666667</ele><time>2026-04-05T08:19:20.59Z</time></trkpt><trkpt lat="43.8145573" lon="12.266895"><ele>529.3333333333334</ele><time>2026-04-05T08:19:21.589Z</time></trkpt><trkpt lat="43.8144813" lon="12.2671165"><ele>531.0</ele><time>2026-04-05T08:19:22.59Z</time></trkpt><trkpt lat="43.8143973" lon="12.2673353"><ele>525.6666666666666</ele><time>2026-04-05T08:19:23.59Z</time></trkpt><trkpt lat="43.8143069" lon="12.2675469"><ele>520.3333333333333</ele><time>2026-04-05T08:19:24.59Z</time></trkpt><trkpt lat="43.8142054" lon="12.267745"><ele>515.0</ele><time>2026-04-05T08:19:25.59Z</time></trkpt><trkpt lat="43.814099" lon="12.2679381"><ele>515.3333333333333</ele><time>2026-04-05T08:19:26.589Z</time></trkpt><trkpt lat="43.813991" lon="12.2681383"><ele>515.6666666666666</ele><time>2026-04-05T08:19:27.59Z</time></trkpt><trkpt lat="43.8138872" lon="12.2683427"><ele>516.0</ele><time>2026-04-05T08:19:28.59Z</time></trkpt><trkpt lat="43.8137861" lon="12.2685371"><ele>516.0</ele><time>2026-04-05T08:19:29.589Z</time></trkpt><trkpt lat="43.8136873" lon="12.2687179"><ele>516.0</ele><time>2026-04-05T08:19:30.589Z</time></trkpt><trkpt lat="43.8135795" lon="12.2688789"><ele>516.0</ele><time>2026-04-05T08:19:31.59Z</time></trkpt><trkpt lat="43.8134546" lon="12.2690187"><ele>513.3333333333334</ele><time>2026-04-05T08:19:32.59Z</time></trkpt><trkpt lat="43.8133023" lon="12.2691159"><ele>510.6666666666667</ele><time>2026-04-05T08:19:33.589Z</time></trkpt><trkpt lat="43.8131239" lon="12.2691695"><ele>508.0</ele><time>2026-04-05T08:19:34.59Z</time></trkpt><trkpt lat="43.8129297" lon="12.2692044"><ele>508.0</ele><time>2026-04-05T08:19:35.59Z</time></trkpt><trkpt lat="43.8127178" lon="12.2692268"><ele>508.0</ele><time>2026-04-05T08:19:36.589Z</time></trkpt><trkpt lat="43.8124926" lon="12.2692112"><ele>508.0</ele><time>2026-04-05T08:19:37.59Z</time></trkpt><trkpt lat="43.8122691" lon="12.2691653"><ele>505.33333333333337</ele><time>2026-04-05T08:19:38.59Z</time></trkpt><trkpt lat="43.812051" lon="12.2691189"><ele>502.66666666666663</ele><time>2026-04-05T08:19:39.59Z</time></trkpt><trkpt lat="43.8118288" lon="12.2690848"><ele>500.0</ele><time>2026-04-05T08:19:40.59Z</time></trkpt><trkpt lat="43.8116023" lon="12.2690588"><ele>498.0</ele><time>2026-04-05T08:19:41.589Z</time></trkpt><trkpt lat="43.8113701" lon="12.2690506"><ele>496.0</ele><time>2026-04-05T08:19:42.59Z</time></trkpt><trkpt lat="43.8111347" lon="12.2690632"><ele>494.0</ele><time>2026-04-05T08:19:43.59Z</time></trkpt><trkpt lat="43.8109082" lon="12.2690842"><ele>492.0</ele><time>2026-04-05T08:19:44.59Z</time></trkpt><trkpt lat="43.8106839" lon="12.2690989"><ele>492.0</ele><time>2026-04-05T08:19:45.59Z</time></trkpt><trkpt lat="43.8104498" lon="12.2691198"><ele>492.0</ele><time>2026-04-05T08:19:46.589Z</time></trkpt><trkpt lat="43.8102181" lon="12.269135"><ele>490.5</ele><time>2026-04-05T08:19:47.59Z</time></trkpt><trkpt lat="43.8099908" lon="12.2691552"><ele>489.0</ele><time>2026-04-05T08:19:48.589Z</time></trkpt><trkpt lat="43.8097666" lon="12.2691774"><ele>489.0</ele><time>2026-04-05T08:19:49.59Z</time></trkpt><trkpt lat="43.8095477" lon="12.2691962"><ele>489.0</ele><time>2026-04-05T08:19:50.589Z</time></trkpt><trkpt lat="43.8093357" lon="12.2692131"><ele>489.0</ele><time>2026-04-05T08:19:51.589Z</time></trkpt><trkpt lat="43.8091238" lon="12.2692408"><ele>488.33333333333337</ele><time>2026-04-05T08:19:52.59Z</time></trkpt><trkpt lat="43.8089125" lon="12.2693082"><ele>487.6666666666667</ele><time>2026-04-05T08:19:53.59Z</time></trkpt><trkpt lat="43.8087064" lon="12.2694256"><ele>487.0</ele><time>2026-04-05T08:19:54.59Z</time></trkpt><trkpt lat="43.8085129" lon="12.2695989"><ele>489.0</ele><time>2026-04-05T08:19:55.59Z</time></trkpt><trkpt lat="43.8083155" lon="12.269801"><ele>491.0</ele><time>2026-04-05T08:19:56.589Z</time></trkpt><trkpt lat="43.8081214" lon="12.2699965"><ele>491.0</ele><time>2026-04-05T08:19:57.589Z</time></trkpt><trkpt lat="43.8079377" lon="12.2701756"><ele>491.0</ele><time>2026-04-05T08:19:58.59Z</time></trkpt><trkpt lat="43.8077671" lon="12.2703461"><ele>491.0</ele><time>2026-04-05T08:19:59.589Z</time></trkpt><trkpt lat="43.8076125" lon="12.2705025"><ele>493.0</ele><time>2026-04-05T08:20:00.59Z</time></trkpt><trkpt lat="43.8074726" lon="12.2706471"><ele>495.0</ele><time>2026-04-05T08:20:01.59Z</time></trkpt><trkpt lat="43.8073485" lon="12.2707722"><ele>497.0</ele><time>2026-04-05T08:20:02.59Z</time></trkpt><trkpt lat="43.807229" lon="12.2708871"><ele>497.0</ele><time>2026-04-05T08:20:03.589Z</time></trkpt><trkpt lat="43.8071098" lon="12.270977"><ele>497.0</ele><time>2026-04-05T08:20:04.59Z</time></trkpt><trkpt lat="43.8069769" lon="12.2710216"><ele>497.0</ele><time>2026-04-05T08:20:05.59Z</time></trkpt><trkpt lat="43.8068392" lon="12.2710036"><ele>497.0</ele><time>2026-04-05T08:20:06.589Z</time></trkpt><trkpt lat="43.806709" lon="12.2709252"><ele>499.0</ele><time>2026-04-05T08:20:07.589Z</time></trkpt><trkpt lat="43.8065993" lon="12.2707864"><ele>501.0</ele><time>2026-04-05T08:20:08.59Z</time></trkpt><trkpt lat="43.8065056" lon="12.2706156"><ele>503.0</ele><time>2026-04-05T08:20:09.589Z</time></trkpt><trkpt lat="43.8063976" lon="12.2704541"><ele>503.3333333333333</ele><time>2026-04-05T08:20:10.59Z</time></trkpt><trkpt lat="43.8062492" lon="12.2703133"><ele>503.66666666666663</ele><time>2026-04-05T08:20:11.59Z</time></trkpt><trkpt lat="43.8060769" lon="12.2701746"><ele>504.0</ele><time>2026-04-05T08:20:12.59Z</time></trkpt><trkpt lat="43.8059029" lon="12.2700425"><ele>506.66666666666663</ele><time>2026-04-05T08:20:13.59Z</time></trkpt><trkpt lat="43.8057426" lon="12.2699161"><ele>509.3333333333333</ele><time>2026-04-05T08:20:14.59Z</time></trkpt><trkpt lat="43.8056025" lon="12.2698122"><ele>512.0</ele><time>2026-04-05T08:20:15.59Z</time></trkpt><trkpt lat="43.8054801" lon="12.2697391"><ele>512.0</ele><time>2026-04-05T08:20:16.59Z</time></trkpt><trkpt lat="43.8053508" lon="12.2697077"><ele>512.0</ele><time>2026-04-05T08:20:17.59Z</time></trkpt><trkpt lat="43.805206" lon="12.2697372"><ele>512.0</ele><time>2026-04-05T08:20:18.589Z</time></trkpt><trkpt lat="43.8050535" lon="12.2698008"><ele>512.0</ele><time>2026-04-05T08:20:19.59Z</time></trkpt><trkpt lat="43.8049175" lon="12.2698688"><ele>514.25</ele><time>2026-04-05T08:20:20.59Z</time></trkpt><trkpt lat="43.8047955" lon="12.2699199"><ele>516.5</ele><time>2026-04-05T08:20:21.59Z</time></trkpt><trkpt lat="43.8046765" lon="12.2699327"><ele>518.75</ele><time>2026-04-05T08:20:22.59Z</time></trkpt><trkpt lat="43.8045712" lon="12.2698862"><ele>521.0</ele><time>2026-04-05T08:20:23.589Z</time></trkpt><trkpt lat="43.8044949" lon="12.2697838"><ele>520.5</ele><time>2026-04-05T08:20:24.59Z</time></trkpt><trkpt lat="43.8044606" lon="12.2696391"><ele>520.0</ele><time>2026-04-05T08:20:25.59Z</time></trkpt><trkpt lat="43.8044742" lon="12.2694688"><ele>519.5</ele><time>2026-04-05T08:20:26.589Z</time></trkpt><trkpt lat="43.8044991" lon="12.2692817"><ele>519.0</ele><time>2026-04-05T08:20:27.59Z</time></trkpt><trkpt lat="43.8044998" lon="12.2690799"><ele>519.25</ele><time>2026-04-05T08:20:28.589Z</time></trkpt><trkpt lat="43.8044693" lon="12.2688787"><ele>519.5</ele><time>2026-04-05T08:20:29.59Z</time></trkpt><trkpt lat="43.8044214" lon="12.2686959"><ele>519.75</ele><time>2026-04-05T08:20:30.589Z</time></trkpt><trkpt lat="43.8043612" lon="12.2685333"><ele>520.0</ele><time>2026-04-05T08:20:31.59Z</time></trkpt><trkpt lat="43.804279" lon="12.2683879"><ele>521.0</ele><time>2026-04-05T08:20:32.59Z</time></trkpt><trkpt lat="43.8041581" lon="12.2682578"><ele>522.0</ele><time>2026-04-05T08:20:33.59Z</time></trkpt><trkpt lat="43.8040002" lon="12.2681307"><ele>523.0</ele><time>2026-04-05T08:20:34.589Z</time></trkpt><trkpt lat="43.8038366" lon="12.2680101"><ele>523.0</ele><time>2026-04-05T08:20:35.59Z</time></trkpt><trkpt lat="43.8036885" lon="12.2678888"><ele>523.0</ele><time>2026-04-05T08:20:36.59Z</time></trkpt><trkpt lat="43.8035572" lon="12.2677633"><ele>523.0</ele><time>2026-04-05T08:20:37.59Z</time></trkpt><trkpt lat="43.8034491" lon="12.2676244"><ele>525.25</ele><time>2026-04-05T08:20:38.589Z</time></trkpt><trkpt lat="43.803371" lon="12.2674656"><ele>527.5</ele><time>2026-04-05T08:20:39.589Z</time></trkpt><trkpt lat="43.803327" lon="12.2672767"><ele>529.75</ele><time>2026-04-05T08:20:40.59Z</time></trkpt><trkpt lat="43.8033068" lon="12.2670652"><ele>532.0</ele><time>2026-04-05T08:20:41.59Z</time></trkpt><trkpt lat="43.8032942" lon="12.2668482"><ele>532.0</ele><time>2026-04-05T08:20:42.589Z</time></trkpt><trkpt lat="43.8032833" lon="12.2666464"><ele>532.0</ele><time>2026-04-05T08:20:43.59Z</time></trkpt><trkpt lat="43.8032715" lon="12.2664632"><ele>532.0</ele><time>2026-04-05T08:20:44.59Z</time></trkpt><trkpt lat="43.803246" lon="12.2662875"><ele>532.0</ele><time>2026-04-05T08:20:45.59Z</time></trkpt><trkpt lat="43.8031938" lon="12.2661001"><ele>530.75</ele><time>2026-04-05T08:20:46.589Z</time></trkpt><trkpt lat="43.8031311" lon="12.2659128"><ele>529.5</ele><time>2026-04-05T08:20:47.59Z</time></trkpt><trkpt lat="43.8030644" lon="12.2657463"><ele>528.25</ele><time>2026-04-05T08:20:48.591Z</time></trkpt><trkpt lat="43.8029995" lon="12.2656061"><ele>527.0</ele><time>2026-04-05T08:20:49.591Z</time></trkpt><trkpt lat="43.8029252" lon="12.2654913"><ele>526.75</ele><time>2026-04-05T08:20:50.591Z</time></trkpt><trkpt lat="43.802829" lon="12.2654083"><ele>526.5</ele><time>2026-04-05T08:20:51.59Z</time></trkpt><trkpt lat="43.8027106" lon="12.2653715"><ele>526.25</ele><time>2026-04-05T08:20:52.591Z</time></trkpt><trkpt lat="43.8025703" lon="12.2653943"><ele>526.0</ele><time>2026-04-05T08:20:53.591Z</time></trkpt><trkpt lat="43.8024182" lon="12.2654674"><ele>526.0</ele><time>2026-04-05T08:20:54.591Z</time></trkpt><trkpt lat="43.802254" lon="12.2655726"><ele>526.0</ele><time>2026-04-05T08:20:55.591Z</time></trkpt><trkpt lat="43.8021006" lon="12.2656771"><ele>526.0</ele><time>2026-04-05T08:20:56.591Z</time></trkpt><trkpt lat="43.8019685" lon="12.2657681"><ele>527.75</ele><time>2026-04-05T08:20:57.591Z</time></trkpt><trkpt lat="43.8018384" lon="12.2658211"><ele>529.5</ele><time>2026-04-05T08:20:58.591Z</time></trkpt><trkpt lat="43.8016989" lon="12.2658225"><ele>531.25</ele><time>2026-04-05T08:20:59.591Z</time></trkpt><trkpt lat="43.8015542" lon="12.2657592"><ele>533.0</ele><time>2026-04-05T08:21:00.59Z</time></trkpt><trkpt lat="43.8014059" lon="12.2656238"><ele>533.3333333333333</ele><time>2026-04-05T08:21:01.59Z</time></trkpt><trkpt lat="43.8012506" lon="12.2654549"><ele>533.6666666666666</ele><time>2026-04-05T08:21:02.591Z</time></trkpt><trkpt lat="43.8011016" lon="12.2653031"><ele>534.0</ele><time>2026-04-05T08:21:03.591Z</time></trkpt><trkpt lat="43.8009766" lon="12.2651653"><ele>536.5</ele><time>2026-04-05T08:21:04.59Z</time></trkpt><trkpt lat="43.8008858" lon="12.2650152"><ele>539.0</ele><time>2026-04-05T08:21:05.591Z</time></trkpt><trkpt lat="43.8008289" lon="12.2648456"><ele>541.5</ele><time>2026-04-05T08:21:06.591Z</time></trkpt><trkpt lat="43.8008213" lon="12.2646623"><ele>544.0</ele><time>2026-04-05T08:21:07.591Z</time></trkpt><trkpt lat="43.8008437" lon="12.2644858"><ele>544.3333333333334</ele><time>2026-04-05T08:21:08.591Z</time></trkpt><trkpt lat="43.8008358" lon="12.264305"><ele>544.6666666666666</ele><time>2026-04-05T08:21:09.591Z</time></trkpt><trkpt lat="43.8007801" lon="12.2640938"><ele>545.0</ele><time>2026-04-05T08:21:10.591Z</time></trkpt><trkpt lat="43.8006758" lon="12.2638727"><ele>545.0</ele><time>2026-04-05T08:21:11.59Z</time></trkpt><trkpt lat="43.8005559" lon="12.2636624"><ele>545.0</ele><time>2026-04-05T08:21:12.59Z</time></trkpt><trkpt lat="43.8004484" lon="12.2634579"><ele>545.0</ele><time>2026-04-05T08:21:13.591Z</time></trkpt><trkpt lat="43.8003679" lon="12.2632355"><ele>544.0</ele><time>2026-04-05T08:21:14.591Z</time></trkpt><trkpt lat="43.8003094" lon="12.2629957"><ele>543.0</ele><time>2026-04-05T08:21:15.591Z</time></trkpt><trkpt lat="43.800269" lon="12.2627357"><ele>542.0</ele><time>2026-04-05T08:21:16.59Z</time></trkpt><trkpt lat="43.8002286" lon="12.2624718"><ele>540.6666666666666</ele><time>2026-04-05T08:21:17.591Z</time></trkpt><trkpt lat="43.8001691" lon="12.262208"><ele>539.3333333333334</ele><time>2026-04-05T08:21:18.591Z</time></trkpt><trkpt lat="43.8000863" lon="12.2619412"><ele>538.0</ele><time>2026-04-05T08:21:19.591Z</time></trkpt><trkpt lat="43.7999933" lon="12.2616849"><ele>543.6666666666667</ele><time>2026-04-05T08:21:20.591Z</time></trkpt><trkpt lat="43.7999012" lon="12.2614456"><ele>549.3333333333334</ele><time>2026-04-05T08:21:21.591Z</time></trkpt><trkpt lat="43.799816" lon="12.2612272"><ele>555.0</ele><time>2026-04-05T08:21:22.59Z</time></trkpt><trkpt lat="43.7997401" lon="12.2610333"><ele>555.0</ele><time>2026-04-05T08:21:23.591Z</time></trkpt><trkpt lat="43.7996872" lon="12.2608516"><ele>555.0</ele><time>2026-04-05T08:21:24.591Z</time></trkpt><trkpt lat="43.799675" lon="12.2606642"><ele>555.0</ele><time>2026-04-05T08:21:25.591Z</time></trkpt><trkpt lat="43.7997093" lon="12.2604607"><ele>555.0</ele><time>2026-04-05T08:21:26.591Z</time></trkpt><trkpt lat="43.7997816" lon="12.2602387"><ele>557.3333333333334</ele><time>2026-04-05T08:21:27.59Z</time></trkpt><trkpt lat="43.7998695" lon="12.2599982"><ele>559.6666666666667</ele><time>2026-04-05T08:21:28.59Z</time></trkpt><trkpt lat="43.7999621" lon="12.2597445"><ele>562.0</ele><time>2026-04-05T08:21:29.591Z</time></trkpt><trkpt lat="43.8000545" lon="12.2594739"><ele>563.6666666666667</ele><time>2026-04-05T08:21:30.59Z</time></trkpt><trkpt lat="43.8001419" lon="12.2592072"><ele>565.3333333333334</ele><time>2026-04-05T08:21:31.591Z</time></trkpt><trkpt lat="43.8002206" lon="12.2589596"><ele>567.0</ele><time>2026-04-05T08:21:32.591Z</time></trkpt><trkpt lat="43.8002993" lon="12.2587161"><ele>567.0</ele><time>2026-04-05T08:21:33.59Z</time></trkpt><trkpt lat="43.8003736" lon="12.2584863"><ele>567.0</ele><time>2026-04-05T08:21:34.59Z</time></trkpt><trkpt lat="43.8004605" lon="12.2582865"><ele>567.0</ele><time>2026-04-05T08:21:35.59Z</time></trkpt><trkpt lat="43.8005592" lon="12.2581232"><ele>569.25</ele><time>2026-04-05T08:21:36.591Z</time></trkpt><trkpt lat="43.8006539" lon="12.2579884"><ele>571.5</ele><time>2026-04-05T08:21:37.59Z</time></trkpt><trkpt lat="43.8007289" lon="12.2578544"><ele>573.75</ele><time>2026-04-05T08:21:38.591Z</time></trkpt><trkpt lat="43.8007707" lon="12.2576932"><ele>576.0</ele><time>2026-04-05T08:21:39.591Z</time></trkpt><trkpt lat="43.8007721" lon="12.2574874"><ele>575.0</ele><time>2026-04-05T08:21:40.591Z</time></trkpt><trkpt lat="43.8007425" lon="12.257236"><ele>574.0</ele><time>2026-04-05T08:21:41.59Z</time></trkpt><trkpt lat="43.8007077" lon="12.2569905"><ele>573.0</ele><time>2026-04-05T08:21:42.591Z</time></trkpt><trkpt lat="43.8006792" lon="12.2567742"><ele>573.0</ele><time>2026-04-05T08:21:43.591Z</time></trkpt><trkpt lat="43.8006358" lon="12.2565928"><ele>573.0</ele><time>2026-04-05T08:21:44.591Z</time></trkpt><trkpt lat="43.8005572" lon="12.2564413"><ele>573.0</ele><time>2026-04-05T08:21:45.591Z</time></trkpt><trkpt lat="43.8004507" lon="12.2563237"><ele>573.0</ele><time>2026-04-05T08:21:46.591Z</time></trkpt><trkpt lat="43.8003162" lon="12.2562455"><ele>574.6666666666666</ele><time>2026-04-05T08:21:47.59Z</time></trkpt><trkpt lat="43.8001546" lon="12.2561962"><ele>576.3333333333333</ele><time>2026-04-05T08:21:48.591Z</time></trkpt><trkpt lat="43.7999666" lon="12.2561671"><ele>578.0</ele><time>2026-04-05T08:21:49.591Z</time></trkpt><trkpt lat="43.7997806" lon="12.2561154"><ele>578.0</ele><time>2026-04-05T08:21:50.591Z</time></trkpt><trkpt lat="43.7995833" lon="12.2560296"><ele>578.0</ele><time>2026-04-05T08:21:51.591Z</time></trkpt><trkpt lat="43.7993796" lon="12.2559074"><ele>578.0</ele><time>2026-04-05T08:21:52.591Z</time></trkpt><trkpt lat="43.7991874" lon="12.2557747"><ele>578.6666666666666</ele><time>2026-04-05T08:21:53.591Z</time></trkpt><trkpt lat="43.7990219" lon="12.2556465"><ele>579.3333333333334</ele><time>2026-04-05T08:21:54.591Z</time></trkpt><trkpt lat="43.7988733" lon="12.2555345"><ele>580.0</ele><time>2026-04-05T08:21:55.59Z</time></trkpt><trkpt lat="43.7987415" lon="12.2554332"><ele>580.0</ele><time>2026-04-05T08:21:56.591Z</time></trkpt><trkpt lat="43.7986149" lon="12.2553317"><ele>580.0</ele><time>2026-04-05T08:21:57.59Z</time></trkpt><trkpt lat="43.7984986" lon="12.2552091"><ele>580.0</ele><time>2026-04-05T08:21:58.59Z</time></trkpt><trkpt lat="43.7984047" lon="12.255058"><ele>580.0</ele><time>2026-04-05T08:21:59.591Z</time></trkpt><trkpt lat="43.7983352" lon="12.2548676"><ele>583.25</ele><time>2026-04-05T08:22:00.59Z</time></trkpt><trkpt lat="43.7982896" lon="12.2546747"><ele>586.5</ele><time>2026-04-05T08:22:01.59Z</time></trkpt><trkpt lat="43.7982508" lon="12.2545043"><ele>589.75</ele><time>2026-04-05T08:22:02.59Z</time></trkpt><trkpt lat="43.7981935" lon="12.2543554"><ele>593.0</ele><time>2026-04-05T08:22:03.59Z</time></trkpt><trkpt lat="43.7981078" lon="12.2542339"><ele>593.0</ele><time>2026-04-05T08:22:04.59Z</time></trkpt><trkpt lat="43.7979881" lon="12.2541611"><ele>593.0</ele><time>2026-04-05T08:22:05.591Z</time></trkpt><trkpt lat="43.7978339" lon="12.2541288"><ele>593.0</ele><time>2026-04-05T08:22:06.591Z</time></trkpt><trkpt lat="43.7976627" lon="12.254118"><ele>596.3333333333333</ele><time>2026-04-05T08:22:07.591Z</time></trkpt><trkpt lat="43.7974815" lon="12.2541093"><ele>599.6666666666666</ele><time>2026-04-05T08:22:08.59Z</time></trkpt><trkpt lat="43.7972915" lon="12.2541078"><ele>603.0</ele><time>2026-04-05T08:22:09.59Z</time></trkpt><trkpt lat="43.797098" lon="12.254103"><ele>603.0</ele><time>2026-04-05T08:22:10.59Z</time></trkpt><trkpt lat="43.7969125" lon="12.2540855"><ele>603.0</ele><time>2026-04-05T08:22:11.59Z</time></trkpt><trkpt lat="43.7967257" lon="12.2540589"><ele>603.0</ele><time>2026-04-05T08:22:12.59Z</time></trkpt><trkpt lat="43.796545" lon="12.2540246"><ele>602.75</ele><time>2026-04-05T08:22:13.591Z</time></trkpt><trkpt lat="43.7963842" lon="12.253994"><ele>602.5</ele><time>2026-04-05T08:22:14.59Z</time></trkpt><trkpt lat="43.7962533" lon="12.2539638"><ele>602.25</ele><time>2026-04-05T08:22:15.591Z</time></trkpt><trkpt lat="43.7961478" lon="12.2539198"><ele>602.0</ele><time>2026-04-05T08:22:16.59Z</time></trkpt><trkpt lat="43.7960639" lon="12.2538263"><ele>605.75</ele><time>2026-04-05T08:22:17.59Z</time></trkpt><trkpt lat="43.7959984" lon="12.2536839"><ele>609.5</ele><time>2026-04-05T08:22:18.59Z</time></trkpt><trkpt lat="43.7959569" lon="12.2534885"><ele>613.25</ele><time>2026-04-05T08:22:19.591Z</time></trkpt><trkpt lat="43.7959295" lon="12.2532596"><ele>617.0</ele><time>2026-04-05T08:22:20.591Z</time></trkpt><trkpt lat="43.7959033" lon="12.2530103"><ele>618.3333333333333</ele><time>2026-04-05T08:22:21.591Z</time></trkpt><trkpt lat="43.7958844" lon="12.252751"><ele>619.6666666666666</ele><time>2026-04-05T08:22:22.59Z</time></trkpt><trkpt lat="43.7958773" lon="12.2524827"><ele>621.0</ele><time>2026-04-05T08:22:23.591Z</time></trkpt><trkpt lat="43.7958707" lon="12.2522065"><ele>622.0</ele><time>2026-04-05T08:22:24.591Z</time></trkpt><trkpt lat="43.7958472" lon="12.2519292"><ele>623.0</ele><time>2026-04-05T08:22:25.591Z</time></trkpt><trkpt lat="43.7958068" lon="12.2516574"><ele>624.0</ele><time>2026-04-05T08:22:26.59Z</time></trkpt><trkpt lat="43.7957655" lon="12.2513828"><ele>624.3333333333334</ele><time>2026-04-05T08:22:27.591Z</time></trkpt><trkpt lat="43.7957467" lon="12.2510875"><ele>624.6666666666667</ele><time>2026-04-05T08:22:28.591Z</time></trkpt><trkpt lat="43.7957554" lon="12.2507772"><ele>625.0</ele><time>2026-04-05T08:22:29.591Z</time></trkpt><trkpt lat="43.7957773" lon="12.2504483"><ele>630.0</ele><time>2026-04-05T08:22:30.591Z</time></trkpt><trkpt lat="43.7957967" lon="12.250125"><ele>635.0</ele><time>2026-04-05T08:22:31.59Z</time></trkpt><trkpt lat="43.7958082" lon="12.2498256"><ele>637.0</ele><time>2026-04-05T08:22:32.591Z</time></trkpt><trkpt lat="43.795815" lon="12.2495517"><ele>639.0</ele><time>2026-04-05T08:22:33.591Z</time></trkpt><trkpt lat="43.79584" lon="12.2492717"><ele>641.0</ele><time>2026-04-05T08:22:34.591Z</time></trkpt><trkpt lat="43.7958683" lon="12.248995"><ele>644.6666666666666</ele><time>2026-04-05T08:22:35.591Z</time></trkpt><trkpt lat="43.7959067" lon="12.24875"><ele>648.3333333333334</ele><time>2026-04-05T08:22:36.59Z</time></trkpt><trkpt lat="43.7959383" lon="12.2485333"><ele>652.0</ele><time>2026-04-05T08:22:37.59Z</time></trkpt><trkpt lat="43.7959683" lon="12.2483467"><ele>655.0</ele><time>2026-04-05T08:22:38.591Z</time></trkpt><trkpt lat="43.7960333" lon="12.2481883"><ele>658.0</ele><time>2026-04-05T08:22:39.591Z</time></trkpt><trkpt lat="43.796135" lon="12.2480583"><ele>661.0</ele><time>2026-04-05T08:22:40.59Z</time></trkpt><trkpt lat="43.7962917" lon="12.24794"><ele>664.0</ele><time>2026-04-05T08:22:41.591Z</time></trkpt><trkpt lat="43.796475" lon="12.2478133"><ele>664.0</ele><time>2026-04-05T08:22:42.591Z</time></trkpt><trkpt lat="43.7966717" lon="12.24768"><ele>664.0</ele><time>2026-04-05T08:22:43.591Z</time></trkpt><trkpt lat="43.7968533" lon="12.2475617"><ele>664.0</ele><time>2026-04-05T08:22:44.59Z</time></trkpt><trkpt lat="43.797015" lon="12.24747"><ele>662.25</ele><time>2026-04-05T08:22:45.59Z</time></trkpt><trkpt lat="43.7971583" lon="12.2474"><ele>660.5</ele><time>2026-04-05T08:22:46.591Z</time></trkpt><trkpt lat="43.7972667" lon="12.2473217"><ele>658.75</ele><time>2026-04-05T08:22:47.591Z</time></trkpt><trkpt lat="43.7973533" lon="12.2472267"><ele>657.0</ele><time>2026-04-05T08:22:48.591Z</time></trkpt><trkpt lat="43.7974083" lon="12.2470967"><ele>657.0</ele><time>2026-04-05T08:22:49.591Z</time></trkpt><trkpt lat="43.7974267" lon="12.2469383"><ele>657.0</ele><time>2026-04-05T08:22:50.591Z</time></trkpt><trkpt lat="43.7974117" lon="12.2467717"><ele>657.0</ele><time>2026-04-05T08:22:51.59Z</time></trkpt><trkpt lat="43.7973517" lon="12.2465983"><ele>657.0</ele><time>2026-04-05T08:22:52.591Z</time></trkpt><trkpt lat="43.7972583" lon="12.2464383"><ele>654.5</ele><time>2026-04-05T08:22:53.591Z</time></trkpt><trkpt lat="43.7971567" lon="12.2463183"><ele>652.0</ele><time>2026-04-05T08:22:54.59Z</time></trkpt><trkpt lat="43.79705" lon="12.2462383"><ele>649.5</ele><time>2026-04-05T08:22:55.591Z</time></trkpt><trkpt lat="43.7969617" lon="12.246145"><ele>647.0</ele><time>2026-04-05T08:22:56.591Z</time></trkpt><trkpt lat="43.7969117" lon="12.246025"><ele>647.0</ele><time>2026-04-05T08:22:57.591Z</time></trkpt><trkpt lat="43.796875" lon="12.24588"><ele>647.0</ele><time>2026-04-05T08:22:58.591Z</time></trkpt><trkpt lat="43.7968767" lon="12.2457"><ele>647.0</ele><time>2026-04-05T08:22:59.591Z</time></trkpt><trkpt lat="43.7968967" lon="12.2455233"><ele>647.0</ele><time>2026-04-05T08:23:00.591Z</time></trkpt><trkpt lat="43.79693" lon="12.245365"><ele>645.75</ele><time>2026-04-05T08:23:01.59Z</time></trkpt><trkpt lat="43.7969533" lon="12.24522"><ele>644.5</ele><time>2026-04-05T08:23:02.59Z</time></trkpt><trkpt lat="43.7969367" lon="12.2450733"><ele>643.25</ele><time>2026-04-05T08:23:03.591Z</time></trkpt><trkpt lat="43.796875" lon="12.2449433"><ele>642.0</ele><time>2026-04-05T08:23:04.591Z</time></trkpt><trkpt lat="43.796775" lon="12.2448383"><ele>645.3333333333334</ele><time>2026-04-05T08:23:05.591Z</time></trkpt><trkpt lat="43.7966517" lon="12.24477"><ele>648.6666666666667</ele><time>2026-04-05T08:23:06.591Z</time></trkpt><trkpt lat="43.7963367" lon="12.244775"><ele>652.0</ele><time>2026-04-05T08:23:08.435Z</time></trkpt><trkpt lat="43.7962142" lon="12.2447734"><ele>652.0</ele><time>2026-04-05T08:23:09.591Z</time></trkpt><trkpt lat="43.7960552" lon="12.2446379"><ele>652.0</ele><time>2026-04-05T08:23:10.591Z</time></trkpt><trkpt lat="43.7957913" lon="12.2444344"><ele>663.5</ele><time>2026-04-05T08:23:12.091Z</time></trkpt><trkpt lat="43.7954877" lon="12.2442614"><ele>675.0</ele><time>2026-04-05T08:23:13.591Z</time></trkpt><trkpt lat="43.7952755" lon="12.2441636"><ele>675.6666666666666</ele><time>2026-04-05T08:23:14.591Z</time></trkpt><trkpt lat="43.79508" lon="12.2440743"><ele>676.3333333333333</ele><time>2026-04-05T08:23:15.591Z</time></trkpt><trkpt lat="43.7949075" lon="12.2440022"><ele>677.0</ele><time>2026-04-05T08:23:16.592Z</time></trkpt><trkpt lat="43.7945802" lon="12.2439435"><ele>677.0</ele><time>2026-04-05T08:23:18.43Z</time></trkpt><trkpt lat="43.7944629" lon="12.243835"><ele>677.0</ele><time>2026-04-05T08:23:19.592Z</time></trkpt><trkpt lat="43.7943752" lon="12.2436913"><ele>677.0</ele><time>2026-04-05T08:23:20.592Z</time></trkpt><trkpt lat="43.7943121" lon="12.2434232"><ele>676.6666666666666</ele><time>2026-04-05T08:23:22.091Z</time></trkpt><trkpt lat="43.7943238" lon="12.2430926"><ele>676.3333333333334</ele><time>2026-04-05T08:23:23.591Z</time></trkpt><trkpt lat="43.7943487" lon="12.2428776"><ele>676.0</ele><time>2026-04-05T08:23:24.592Z</time></trkpt><trkpt lat="43.7943511" lon="12.2426908"><ele>682.25</ele><time>2026-04-05T08:23:25.591Z</time></trkpt><trkpt lat="43.7943122" lon="12.2425258"><ele>688.5</ele><time>2026-04-05T08:23:26.591Z</time></trkpt><trkpt lat="43.7942178" lon="12.2423618"><ele>694.75</ele><time>2026-04-05T08:23:27.592Z</time></trkpt><trkpt lat="43.7940912" lon="12.2422035"><ele>701.0</ele><time>2026-04-05T08:23:28.591Z</time></trkpt><trkpt lat="43.7939483" lon="12.2420544"><ele>701.0</ele><time>2026-04-05T08:23:29.592Z</time></trkpt><trkpt lat="43.7938217" lon="12.241901"><ele>701.0</ele><time>2026-04-05T08:23:30.592Z</time></trkpt><trkpt lat="43.7937045" lon="12.2417228"><ele>701.0</ele><time>2026-04-05T08:23:31.591Z</time></trkpt><trkpt lat="43.7936243" lon="12.2415044"><ele>702.6666666666666</ele><time>2026-04-05T08:23:32.592Z</time></trkpt><trkpt lat="43.7935811" lon="12.2412729"><ele>704.3333333333334</ele><time>2026-04-05T08:23:33.592Z</time></trkpt><trkpt lat="43.7935594" lon="12.241064"><ele>706.0</ele><time>2026-04-05T08:23:34.592Z</time></trkpt><trkpt lat="43.7935743" lon="12.240871"><ele>706.0</ele><time>2026-04-05T08:23:35.591Z</time></trkpt><trkpt lat="43.7936287" lon="12.2407154"><ele>706.0</ele><time>2026-04-05T08:23:36.592Z</time></trkpt><trkpt lat="43.7936843" lon="12.2405952"><ele>706.0</ele><time>2026-04-05T08:23:37.592Z</time></trkpt><trkpt lat="43.7937178" lon="12.2404826"><ele>706.0</ele><time>2026-04-05T08:23:38.592Z</time></trkpt><trkpt lat="43.7937282" lon="12.2403657"><ele>706.0</ele><time>2026-04-05T08:23:39.592Z</time></trkpt><trkpt lat="43.7936881" lon="12.2402883"><ele>710.0</ele><time>2026-04-05T08:23:40.591Z</time></trkpt><trkpt lat="43.7935969" lon="12.2402699"><ele>714.0</ele><time>2026-04-05T08:23:41.591Z</time></trkpt><trkpt lat="43.7934717" lon="12.2403163"><ele>718.0</ele><time>2026-04-05T08:23:42.592Z</time></trkpt><trkpt lat="43.7933187" lon="12.240406"><ele>722.0</ele><time>2026-04-05T08:23:43.592Z</time></trkpt><trkpt lat="43.793152" lon="12.2405068"><ele>722.25</ele><time>2026-04-05T08:23:44.591Z</time></trkpt><trkpt lat="43.7930028" lon="12.2406031"><ele>722.5</ele><time>2026-04-05T08:23:45.591Z</time></trkpt><trkpt lat="43.7928834" lon="12.2406985"><ele>722.75</ele><time>2026-04-05T08:23:46.592Z</time></trkpt><trkpt lat="43.7927819" lon="12.2408265"><ele>723.0</ele><time>2026-04-05T08:23:47.592Z</time></trkpt><trkpt lat="43.7926956" lon="12.2410072"><ele>721.3333333333334</ele><time>2026-04-05T08:23:48.592Z</time></trkpt><trkpt lat="43.7926599" lon="12.241247"><ele>719.6666666666667</ele><time>2026-04-05T08:23:49.592Z</time></trkpt><trkpt lat="43.7926672" lon="12.2415186"><ele>718.0</ele><time>2026-04-05T08:23:50.592Z</time></trkpt><trkpt lat="43.7927031" lon="12.2417832"><ele>718.0</ele><time>2026-04-05T08:23:51.592Z</time></trkpt><trkpt lat="43.7927609" lon="12.2420088"><ele>718.0</ele><time>2026-04-05T08:23:52.592Z</time></trkpt><trkpt lat="43.7928361" lon="12.2421939"><ele>718.0</ele><time>2026-04-05T08:23:53.591Z</time></trkpt><trkpt lat="43.792936" lon="12.2423336"><ele>720.75</ele><time>2026-04-05T08:23:54.591Z</time></trkpt><trkpt lat="43.7930632" lon="12.2424212"><ele>723.5</ele><time>2026-04-05T08:23:55.591Z</time></trkpt><trkpt lat="43.7931869" lon="12.2424783"><ele>726.25</ele><time>2026-04-05T08:23:56.592Z</time></trkpt><trkpt lat="43.793306" lon="12.2425178"><ele>729.0</ele><time>2026-04-05T08:23:57.592Z</time></trkpt><trkpt lat="43.7933772" lon="12.242587"><ele>729.0</ele><time>2026-04-05T08:23:58.591Z</time></trkpt><trkpt lat="43.7934078" lon="12.2426888"><ele>729.0</ele><time>2026-04-05T08:23:59.591Z</time></trkpt><trkpt lat="43.7933963" lon="12.2428046"><ele>729.0</ele><time>2026-04-05T08:24:00.592Z</time></trkpt><trkpt lat="43.7933421" lon="12.2429253"><ele>729.0</ele><time>2026-04-05T08:24:01.592Z</time></trkpt><trkpt lat="43.7932556" lon="12.2430544"><ele>729.0</ele><time>2026-04-05T08:24:02.591Z</time></trkpt><trkpt lat="43.7931761" lon="12.2432158"><ele>730.25</ele><time>2026-04-05T08:24:03.592Z</time></trkpt><trkpt lat="43.7931363" lon="12.2434068"><ele>731.5</ele><time>2026-04-05T08:24:04.592Z</time></trkpt><trkpt lat="43.7931496" lon="12.2436035"><ele>732.75</ele><time>2026-04-05T08:24:05.592Z</time></trkpt><trkpt lat="43.7932058" lon="12.2437703"><ele>734.0</ele><time>2026-04-05T08:24:06.592Z</time></trkpt><trkpt lat="43.7932683" lon="12.2438999"><ele>735.5</ele><time>2026-04-05T08:24:07.591Z</time></trkpt><trkpt lat="43.7933157" lon="12.2440167"><ele>737.0</ele><time>2026-04-05T08:24:08.592Z</time></trkpt><trkpt lat="43.7933311" lon="12.244148"><ele>738.5</ele><time>2026-04-05T08:24:09.591Z</time></trkpt><trkpt lat="43.7933004" lon="12.2443049"><ele>740.0</ele><time>2026-04-05T08:24:10.592Z</time></trkpt><trkpt lat="43.7932222" lon="12.2444795"><ele>740.0</ele><time>2026-04-05T08:24:11.592Z</time></trkpt><trkpt lat="43.7931021" lon="12.2446627"><ele>740.0</ele><time>2026-04-05T08:24:12.592Z</time></trkpt><trkpt lat="43.7929694" lon="12.244864"><ele>740.0</ele><time>2026-04-05T08:24:13.591Z</time></trkpt><trkpt lat="43.7928397" lon="12.2450742"><ele>740.6666666666666</ele><time>2026-04-05T08:24:14.591Z</time></trkpt><trkpt lat="43.7927236" lon="12.2452618"><ele>741.3333333333334</ele><time>2026-04-05T08:24:15.592Z</time></trkpt><trkpt lat="43.7926252" lon="12.245426"><ele>742.0</ele><time>2026-04-05T08:24:16.592Z</time></trkpt><trkpt lat="43.7925442" lon="12.2455668"><ele>744.8</ele><time>2026-04-05T08:24:17.591Z</time></trkpt><trkpt lat="43.7924763" lon="12.245683"><ele>747.6</ele><time>2026-04-05T08:24:18.592Z</time></trkpt><trkpt lat="43.7924079" lon="12.2457715"><ele>750.4</ele><time>2026-04-05T08:24:19.592Z</time></trkpt><trkpt lat="43.7923284" lon="12.2458269"><ele>753.1999999999999</ele><time>2026-04-05T08:24:20.592Z</time></trkpt><trkpt lat="43.7922421" lon="12.2458308"><ele>756.0</ele><time>2026-04-05T08:24:21.592Z</time></trkpt><trkpt lat="43.7921529" lon="12.2457849"><ele>756.0</ele><time>2026-04-05T08:24:22.591Z</time></trkpt><trkpt lat="43.7920742" lon="12.2456934"><ele>756.0</ele><time>2026-04-05T08:24:23.591Z</time></trkpt><trkpt lat="43.7920465" lon="12.2455345"><ele>756.0</ele><time>2026-04-05T08:24:24.592Z</time></trkpt><trkpt lat="43.7920629" lon="12.2453416"><ele>756.0</ele><time>2026-04-05T08:24:25.592Z</time></trkpt><trkpt lat="43.7921238" lon="12.2451525"><ele>757.75</ele><time>2026-04-05T08:24:26.592Z</time></trkpt><trkpt lat="43.792224" lon="12.2449757"><ele>759.5</ele><time>2026-04-05T08:24:27.592Z</time></trkpt><trkpt lat="43.792334" lon="12.244827"><ele>761.25</ele><time>2026-04-05T08:24:28.591Z</time></trkpt><trkpt lat="43.7924265" lon="12.2447011"><ele>763.0</ele><time>2026-04-05T08:24:29.592Z</time></trkpt><trkpt lat="43.7924979" lon="12.2445942"><ele>763.6666666666667</ele><time>2026-04-05T08:24:30.591Z</time></trkpt><trkpt lat="43.7925381" lon="12.2444824"><ele>764.3333333333334</ele><time>2026-04-05T08:24:31.592Z</time></trkpt><trkpt lat="43.7925482" lon="12.2443659"><ele>765.0</ele><time>2026-04-05T08:24:32.592Z</time></trkpt><trkpt lat="43.7925244" lon="12.2442533"><ele>765.6666666666666</ele><time>2026-04-05T08:24:33.592Z</time></trkpt><trkpt lat="43.7924584" lon="12.2441747"><ele>766.3333333333333</ele><time>2026-04-05T08:24:34.592Z</time></trkpt><trkpt lat="43.7923697" lon="12.2441412"><ele>767.0</ele><time>2026-04-05T08:24:35.592Z</time></trkpt><trkpt lat="43.7922657" lon="12.2441849"><ele>767.0</ele><time>2026-04-05T08:24:36.591Z</time></trkpt><trkpt lat="43.7921651" lon="12.2442907"><ele>767.0</ele><time>2026-04-05T08:24:37.591Z</time></trkpt><trkpt lat="43.7920621" lon="12.2444554"><ele>767.0</ele><time>2026-04-05T08:24:38.592Z</time></trkpt><trkpt lat="43.7919553" lon="12.2446542"><ele>765.6666666666666</ele><time>2026-04-05T08:24:39.591Z</time></trkpt><trkpt lat="43.7918484" lon="12.2448781"><ele>764.3333333333334</ele><time>2026-04-05T08:24:40.591Z</time></trkpt><trkpt lat="43.7917439" lon="12.2451111"><ele>763.0</ele><time>2026-04-05T08:24:41.592Z</time></trkpt><trkpt lat="43.7916448" lon="12.2453389"><ele>766.3333333333334</ele><time>2026-04-05T08:24:42.592Z</time></trkpt><trkpt lat="43.7915556" lon="12.2455536"><ele>769.6666666666667</ele><time>2026-04-05T08:24:43.591Z</time></trkpt><trkpt lat="43.7914677" lon="12.2457478"><ele>773.0</ele><time>2026-04-05T08:24:44.591Z</time></trkpt><trkpt lat="43.791378" lon="12.2459264"><ele>773.0</ele><time>2026-04-05T08:24:45.592Z</time></trkpt><trkpt lat="43.7912762" lon="12.2461006"><ele>773.0</ele><time>2026-04-05T08:24:46.591Z</time></trkpt><trkpt lat="43.7911381" lon="12.2462513"><ele>773.0</ele><time>2026-04-05T08:24:47.592Z</time></trkpt><trkpt lat="43.790975" lon="12.2464003"><ele>777.5</ele><time>2026-04-05T08:24:48.592Z</time></trkpt><trkpt lat="43.790795" lon="12.2465733"><ele>782.0</ele><time>2026-04-05T08:24:49.591Z</time></trkpt><trkpt lat="43.7906133" lon="12.2467733"><ele>782.0</ele><time>2026-04-05T08:24:50.592Z</time></trkpt><trkpt lat="43.7904417" lon="12.24698"><ele>782.0</ele><time>2026-04-05T08:24:51.592Z</time></trkpt><trkpt lat="43.7902917" lon="12.247165"><ele>782.0</ele><time>2026-04-05T08:24:52.592Z</time></trkpt><trkpt lat="43.790155" lon="12.247335"><ele>785.3333333333334</ele><time>2026-04-05T08:24:53.592Z</time></trkpt><trkpt lat="43.7900383" lon="12.247485"><ele>788.6666666666667</ele><time>2026-04-05T08:24:54.592Z</time></trkpt><trkpt lat="43.7899183" lon="12.247625"><ele>792.0</ele><time>2026-04-05T08:24:55.592Z</time></trkpt><trkpt lat="43.7897733" lon="12.2477117"><ele>792.0</ele><time>2026-04-05T08:24:56.592Z</time></trkpt><trkpt lat="43.789615" lon="12.2477433"><ele>792.0</ele><time>2026-04-05T08:24:57.591Z</time></trkpt><trkpt lat="43.7894483" lon="12.2477217"><ele>792.0</ele><time>2026-04-05T08:24:58.591Z</time></trkpt><trkpt lat="43.78927" lon="12.2476733"><ele>795.0</ele><time>2026-04-05T08:24:59.592Z</time></trkpt><trkpt lat="43.78909" lon="12.2476017"><ele>798.0</ele><time>2026-04-05T08:25:00.592Z</time></trkpt><trkpt lat="43.7889233" lon="12.24753"><ele>801.0</ele><time>2026-04-05T08:25:01.592Z</time></trkpt><trkpt lat="43.7887567" lon="12.2474467"><ele>801.0</ele><time>2026-04-05T08:25:02.592Z</time></trkpt><trkpt lat="43.7885867" lon="12.2473333"><ele>801.0</ele><time>2026-04-05T08:25:03.591Z</time></trkpt><trkpt lat="43.7884183" lon="12.2471933"><ele>801.0</ele><time>2026-04-05T08:25:04.591Z</time></trkpt><trkpt lat="43.7882467" lon="12.2470383"><ele>804.6666666666667</ele><time>2026-04-05T08:25:05.591Z</time></trkpt><trkpt lat="43.78809" lon="12.2468917"><ele>808.3333333333334</ele><time>2026-04-05T08:25:06.592Z</time></trkpt><trkpt lat="43.7879483" lon="12.2467617"><ele>812.0</ele><time>2026-04-05T08:25:07.592Z</time></trkpt><trkpt lat="43.7878133" lon="12.2466417"><ele>813.3333333333334</ele><time>2026-04-05T08:25:08.591Z</time></trkpt><trkpt lat="43.7876767" lon="12.24655"><ele>814.6666666666667</ele><time>2026-04-05T08:25:09.591Z</time></trkpt><trkpt lat="43.7875133" lon="12.24649"><ele>816.0</ele><time>2026-04-05T08:25:10.592Z</time></trkpt><trkpt lat="43.787335" lon="12.2464683"><ele>816.0</ele><time>2026-04-05T08:25:11.592Z</time></trkpt><trkpt lat="43.7871517" lon="12.24648"><ele>816.0</ele><time>2026-04-05T08:25:12.592Z</time></trkpt><trkpt lat="43.7869833" lon="12.246485"><ele>816.0</ele><time>2026-04-05T08:25:13.592Z</time></trkpt><trkpt lat="43.7868133" lon="12.24645"><ele>822.3333333333333</ele><time>2026-04-05T08:25:14.591Z</time></trkpt><trkpt lat="43.7866433" lon="12.246375"><ele>828.6666666666666</ele><time>2026-04-05T08:25:15.591Z</time></trkpt><trkpt lat="43.78647" lon="12.2462683"><ele>835.0</ele><time>2026-04-05T08:25:16.592Z</time></trkpt><trkpt lat="43.78631" lon="12.2461517"><ele>835.0</ele><time>2026-04-05T08:25:17.592Z</time></trkpt><trkpt lat="43.7861617" lon="12.2460417"><ele>835.0</ele><time>2026-04-05T08:25:18.592Z</time></trkpt><trkpt lat="43.786025" lon="12.2459483"><ele>835.0</ele><time>2026-04-05T08:25:19.592Z</time></trkpt><trkpt lat="43.7858967" lon="12.24587"><ele>833.25</ele><time>2026-04-05T08:25:20.592Z</time></trkpt><trkpt lat="43.78577" lon="12.2458167"><ele>831.5</ele><time>2026-04-05T08:25:21.592Z</time></trkpt><trkpt lat="43.78563" lon="12.2458133"><ele>829.75</ele><time>2026-04-05T08:25:22.591Z</time></trkpt><trkpt lat="43.7854817" lon="12.2458567"><ele>828.0</ele><time>2026-04-05T08:25:23.591Z</time></trkpt><trkpt lat="43.7853133" lon="12.2459383"><ele>830.0</ele><time>2026-04-05T08:25:24.592Z</time></trkpt><trkpt lat="43.78514" lon="12.2460617"><ele>832.0</ele><time>2026-04-05T08:25:25.592Z</time></trkpt><trkpt lat="43.7849533" lon="12.2461967"><ele>834.0</ele><time>2026-04-05T08:25:26.592Z</time></trkpt><trkpt lat="43.784765" lon="12.24632"><ele>834.0</ele><time>2026-04-05T08:25:27.591Z</time></trkpt><trkpt lat="43.78459" lon="12.2464283"><ele>834.0</ele><time>2026-04-05T08:25:28.591Z</time></trkpt><trkpt lat="43.7844233" lon="12.2465233"><ele>834.0</ele><time>2026-04-05T08:25:29.592Z</time></trkpt><trkpt lat="43.7842667" lon="12.2466517"><ele>833.6666666666667</ele><time>2026-04-05T08:25:30.592Z</time></trkpt><trkpt lat="43.784115" lon="12.2468"><ele>833.3333333333334</ele><time>2026-04-05T08:25:31.592Z</time></trkpt><trkpt lat="43.7839767" lon="12.2469883"><ele>833.0</ele><time>2026-04-05T08:25:32.592Z</time></trkpt><trkpt lat="43.7838283" lon="12.24721"><ele>831.6666666666667</ele><time>2026-04-05T08:25:33.591Z</time></trkpt><trkpt lat="43.7836767" lon="12.2474333"><ele>830.3333333333333</ele><time>2026-04-05T08:25:34.591Z</time></trkpt><trkpt lat="43.7835267" lon="12.2476617"><ele>829.0</ele><time>2026-04-05T08:25:35.591Z</time></trkpt><trkpt lat="43.78337" lon="12.2478867"><ele>829.0</ele><time>2026-04-05T08:25:36.591Z</time></trkpt><trkpt lat="43.7832283" lon="12.2481083"><ele>829.0</ele><time>2026-04-05T08:25:37.592Z</time></trkpt><trkpt lat="43.7830933" lon="12.2483233"><ele>829.0</ele><time>2026-04-05T08:25:38.592Z</time></trkpt><trkpt lat="43.78296" lon="12.2485317"><ele>830.0</ele><time>2026-04-05T08:25:39.591Z</time></trkpt><trkpt lat="43.7828267" lon="12.248745"><ele>831.0</ele><time>2026-04-05T08:25:40.592Z</time></trkpt><trkpt lat="43.7826933" lon="12.248955"><ele>832.0</ele><time>2026-04-05T08:25:41.592Z</time></trkpt><trkpt lat="43.7825617" lon="12.2491517"><ele>832.6666666666666</ele><time>2026-04-05T08:25:42.592Z</time></trkpt><trkpt lat="43.7824317" lon="12.2493267"><ele>833.3333333333333</ele><time>2026-04-05T08:25:43.592Z</time></trkpt><trkpt lat="43.7823117" lon="12.2494733"><ele>834.0</ele><time>2026-04-05T08:25:44.592Z</time></trkpt><trkpt lat="43.7821917" lon="12.2496133"><ele>834.0</ele><time>2026-04-05T08:25:45.592Z</time></trkpt><trkpt lat="43.7820883" lon="12.249765"><ele>834.0</ele><time>2026-04-05T08:25:46.592Z</time></trkpt><trkpt lat="43.7820083" lon="12.2499467"><ele>834.0</ele><time>2026-04-05T08:25:47.592Z</time></trkpt><trkpt lat="43.78195" lon="12.2501717"><ele>834.0</ele><time>2026-04-05T08:25:48.592Z</time></trkpt><trkpt lat="43.7819033" lon="12.2504283"><ele>834.0</ele><time>2026-04-05T08:25:49.592Z</time></trkpt><trkpt lat="43.7818483" lon="12.2506967"><ele>834.0</ele><time>2026-04-05T08:25:50.592Z</time></trkpt><trkpt lat="43.7817783" lon="12.2509467"><ele>834.0</ele><time>2026-04-05T08:25:51.592Z</time></trkpt><trkpt lat="43.781695" lon="12.2511817"><ele>834.0</ele><time>2026-04-05T08:25:52.591Z</time></trkpt><trkpt lat="43.7816133" lon="12.2514233"><ele>834.0</ele><time>2026-04-05T08:25:53.592Z</time></trkpt><trkpt lat="43.7815533" lon="12.251665"><ele>835.3333333333333</ele><time>2026-04-05T08:25:54.591Z</time></trkpt><trkpt lat="43.781505" lon="12.2518783"><ele>836.6666666666666</ele><time>2026-04-05T08:25:55.592Z</time></trkpt><trkpt lat="43.7814767" lon="12.2521067"><ele>838.0</ele><time>2026-04-05T08:25:56.592Z</time></trkpt><trkpt lat="43.7814883" lon="12.2523517"><ele>838.0</ele><time>2026-04-05T08:25:57.592Z</time></trkpt><trkpt lat="43.7815089" lon="12.2525947"><ele>838.0</ele><time>2026-04-05T08:25:58.592Z</time></trkpt><trkpt lat="43.7815191" lon="12.2528235"><ele>838.0</ele><time>2026-04-05T08:25:59.592Z</time></trkpt><trkpt lat="43.7814987" lon="12.2530463"><ele>838.6666666666666</ele><time>2026-04-05T08:26:00.592Z</time></trkpt><trkpt lat="43.7814418" lon="12.2532582"><ele>839.3333333333333</ele><time>2026-04-05T08:26:01.592Z</time></trkpt><trkpt lat="43.7813407" lon="12.2534691"><ele>840.0</ele><time>2026-04-05T08:26:02.592Z</time></trkpt><trkpt lat="43.7812105" lon="12.2536843"><ele>840.0</ele><time>2026-04-05T08:26:03.591Z</time></trkpt><trkpt lat="43.7810739" lon="12.2539213"><ele>840.0</ele><time>2026-04-05T08:26:04.591Z</time></trkpt><trkpt lat="43.7809427" lon="12.2541536"><ele>840.0</ele><time>2026-04-05T08:26:05.591Z</time></trkpt><trkpt lat="43.7808172" lon="12.2543789"><ele>838.0</ele><time>2026-04-05T08:26:06.592Z</time></trkpt><trkpt lat="43.7806938" lon="12.2546147"><ele>836.0</ele><time>2026-04-05T08:26:07.592Z</time></trkpt><trkpt lat="43.7805804" lon="12.2548637"><ele>834.0</ele><time>2026-04-05T08:26:08.591Z</time></trkpt><trkpt lat="43.7804743" lon="12.255102"><ele>834.0</ele><time>2026-04-05T08:26:09.591Z</time></trkpt><trkpt lat="43.7803602" lon="12.255324"><ele>834.0</ele><time>2026-04-05T08:26:10.591Z</time></trkpt><trkpt lat="43.7802298" lon="12.2555356"><ele>834.0</ele><time>2026-04-05T08:26:11.592Z</time></trkpt><trkpt lat="43.7800867" lon="12.2557369"><ele>831.0</ele><time>2026-04-05T08:26:12.592Z</time></trkpt><trkpt lat="43.7799395" lon="12.25591"><ele>828.0</ele><time>2026-04-05T08:26:13.592Z</time></trkpt><trkpt lat="43.7798001" lon="12.2560719"><ele>825.0</ele><time>2026-04-05T08:26:14.592Z</time></trkpt><trkpt lat="43.7796679" lon="12.2562356"><ele>825.0</ele><time>2026-04-05T08:26:15.592Z</time></trkpt><trkpt lat="43.7795422" lon="12.256401"><ele>825.0</ele><time>2026-04-05T08:26:16.592Z</time></trkpt><trkpt lat="43.7794018" lon="12.2565645"><ele>825.0</ele><time>2026-04-05T08:26:17.592Z</time></trkpt><trkpt lat="43.7792356" lon="12.2567218"><ele>824.3333333333333</ele><time>2026-04-05T08:26:18.592Z</time></trkpt><trkpt lat="43.7790512" lon="12.2568669"><ele>823.6666666666666</ele><time>2026-04-05T08:26:19.592Z</time></trkpt><trkpt lat="43.7788618" lon="12.257009"><ele>823.0</ele><time>2026-04-05T08:26:20.592Z</time></trkpt><trkpt lat="43.7786725" lon="12.2571545"><ele>820.6666666666666</ele><time>2026-04-05T08:26:21.592Z</time></trkpt><trkpt lat="43.7784878" lon="12.2572929"><ele>818.3333333333333</ele><time>2026-04-05T08:26:22.592Z</time></trkpt><trkpt lat="43.7782984" lon="12.2574365"><ele>816.0</ele><time>2026-04-05T08:26:23.592Z</time></trkpt><trkpt lat="43.7781107" lon="12.2575952"><ele>816.0</ele><time>2026-04-05T08:26:24.591Z</time></trkpt><trkpt lat="43.7779352" lon="12.2577268"><ele>816.0</ele><time>2026-04-05T08:26:25.592Z</time></trkpt><trkpt lat="43.7777707" lon="12.2578528"><ele>816.0</ele><time>2026-04-05T08:26:26.591Z</time></trkpt><trkpt lat="43.777609" lon="12.2579727"><ele>816.0</ele><time>2026-04-05T08:26:27.592Z</time></trkpt><trkpt lat="43.7774557" lon="12.2581011"><ele>816.0</ele><time>2026-04-05T08:26:28.591Z</time></trkpt><trkpt lat="43.7773198" lon="12.2582389"><ele>816.0</ele><time>2026-04-05T08:26:29.592Z</time></trkpt><trkpt lat="43.7772094" lon="12.2584043"><ele>816.0</ele><time>2026-04-05T08:26:30.592Z</time></trkpt><trkpt lat="43.7771259" lon="12.2586044"><ele>816.0</ele><time>2026-04-05T08:26:31.592Z</time></trkpt><trkpt lat="43.7770667" lon="12.2588384"><ele>816.0</ele><time>2026-04-05T08:26:32.591Z</time></trkpt><trkpt lat="43.7770185" lon="12.2590804"><ele>814.0</ele><time>2026-04-05T08:26:33.591Z</time></trkpt><trkpt lat="43.7769703" lon="12.2593022"><ele>812.0</ele><time>2026-04-05T08:26:34.591Z</time></trkpt><trkpt lat="43.7769108" lon="12.2594894"><ele>810.0</ele><time>2026-04-05T08:26:35.592Z</time></trkpt><trkpt lat="43.7768216" lon="12.2596318"><ele>810.0</ele><time>2026-04-05T08:26:36.591Z</time></trkpt><trkpt lat="43.7766997" lon="12.2597219"><ele>810.0</ele><time>2026-04-05T08:26:37.591Z</time></trkpt><trkpt lat="43.7765447" lon="12.2597709"><ele>810.0</ele><time>2026-04-05T08:26:38.592Z</time></trkpt><trkpt lat="43.7763764" lon="12.2598141"><ele>812.0</ele><time>2026-04-05T08:26:39.592Z</time></trkpt><trkpt lat="43.7761983" lon="12.2598624"><ele>814.0</ele><time>2026-04-05T08:26:40.591Z</time></trkpt><trkpt lat="43.7760206" lon="12.2599112"><ele>816.0</ele><time>2026-04-05T08:26:41.591Z</time></trkpt><trkpt lat="43.7758531" lon="12.2599557"><ele>816.0</ele><time>2026-04-05T08:26:42.592Z</time></trkpt><trkpt lat="43.7756901" lon="12.2599852"><ele>816.0</ele><time>2026-04-05T08:26:43.592Z</time></trkpt><trkpt lat="43.7755299" lon="12.259976"><ele>816.0</ele><time>2026-04-05T08:26:44.592Z</time></trkpt><trkpt lat="43.7753579" lon="12.259933"><ele>816.6666666666667</ele><time>2026-04-05T08:26:45.592Z</time></trkpt><trkpt lat="43.7751789" lon="12.2598643"><ele>817.3333333333334</ele><time>2026-04-05T08:26:46.592Z</time></trkpt><trkpt lat="43.7749965" lon="12.2597889"><ele>818.0</ele><time>2026-04-05T08:26:47.592Z</time></trkpt><trkpt lat="43.774808" lon="12.2597097"><ele>816.0</ele><time>2026-04-05T08:26:48.592Z</time></trkpt><trkpt lat="43.7746286" lon="12.259636"><ele>814.0</ele><time>2026-04-05T08:26:49.592Z</time></trkpt><trkpt lat="43.7744427" lon="12.2595705"><ele>812.0</ele><time>2026-04-05T08:26:50.592Z</time></trkpt><trkpt lat="43.7742497" lon="12.2594964"><ele>812.0</ele><time>2026-04-05T08:26:51.592Z</time></trkpt><trkpt lat="43.7740478" lon="12.2594168"><ele>812.0</ele><time>2026-04-05T08:26:52.591Z</time></trkpt><trkpt lat="43.7738413" lon="12.2593261"><ele>812.0</ele><time>2026-04-05T08:26:53.591Z</time></trkpt><trkpt lat="43.7736491" lon="12.2592383"><ele>813.3333333333334</ele><time>2026-04-05T08:26:54.592Z</time></trkpt><trkpt lat="43.7734678" lon="12.2591587"><ele>814.6666666666667</ele><time>2026-04-05T08:26:55.592Z</time></trkpt><trkpt lat="43.773292" lon="12.2590825"><ele>816.0</ele><time>2026-04-05T08:26:56.591Z</time></trkpt><trkpt lat="43.7731271" lon="12.2590045"><ele>814.3333333333333</ele><time>2026-04-05T08:26:57.591Z</time></trkpt><trkpt lat="43.7729727" lon="12.258915"><ele>812.6666666666666</ele><time>2026-04-05T08:26:58.591Z</time></trkpt><trkpt lat="43.7728265" lon="12.258816"><ele>811.0</ele><time>2026-04-05T08:26:59.592Z</time></trkpt><trkpt lat="43.7726898" lon="12.2587014"><ele>814.3333333333333</ele><time>2026-04-05T08:27:00.591Z</time></trkpt><trkpt lat="43.7725647" lon="12.2585615"><ele>817.6666666666667</ele><time>2026-04-05T08:27:01.592Z</time></trkpt><trkpt lat="43.7724523" lon="12.2584012"><ele>821.0</ele><time>2026-04-05T08:27:02.592Z</time></trkpt><trkpt lat="43.7723483" lon="12.2582524"><ele>821.0</ele><time>2026-04-05T08:27:03.592Z</time></trkpt><trkpt lat="43.7722294" lon="12.2581198"><ele>821.0</ele><time>2026-04-05T08:27:04.592Z</time></trkpt><trkpt lat="43.7720878" lon="12.2579948"><ele>821.0</ele><time>2026-04-05T08:27:05.591Z</time></trkpt><trkpt lat="43.771932" lon="12.2578802"><ele>820.6666666666667</ele><time>2026-04-05T08:27:06.592Z</time></trkpt><trkpt lat="43.7717794" lon="12.25779"><ele>820.3333333333333</ele><time>2026-04-05T08:27:07.592Z</time></trkpt><trkpt lat="43.7716394" lon="12.2577201"><ele>820.0</ele><time>2026-04-05T08:27:08.591Z</time></trkpt><trkpt lat="43.7714925" lon="12.2576813"><ele>820.0</ele><time>2026-04-05T08:27:09.592Z</time></trkpt><trkpt lat="43.7713431" lon="12.2576751"><ele>820.0</ele><time>2026-04-05T08:27:10.592Z</time></trkpt><trkpt lat="43.7711807" lon="12.2576712"><ele>820.0</ele><time>2026-04-05T08:27:11.592Z</time></trkpt><trkpt lat="43.7710061" lon="12.257625"><ele>822.6666666666666</ele><time>2026-04-05T08:27:12.592Z</time></trkpt><trkpt lat="43.7708388" lon="12.2575324"><ele>825.3333333333333</ele><time>2026-04-05T08:27:13.592Z</time></trkpt><trkpt lat="43.7706938" lon="12.2574176"><ele>828.0</ele><time>2026-04-05T08:27:14.593Z</time></trkpt><trkpt lat="43.7705655" lon="12.2573027"><ele>824.0</ele><time>2026-04-05T08:27:15.593Z</time></trkpt><trkpt lat="43.7704531" lon="12.2571553"><ele>820.0</ele><time>2026-04-05T08:27:16.593Z</time></trkpt><trkpt lat="43.7703485" lon="12.2569716"><ele>816.0</ele><time>2026-04-05T08:27:17.592Z</time></trkpt><trkpt lat="43.7702569" lon="12.2567628"><ele>816.0</ele><time>2026-04-05T08:27:18.592Z</time></trkpt><trkpt lat="43.7701922" lon="12.2565287"><ele>816.0</ele><time>2026-04-05T08:27:19.593Z</time></trkpt><trkpt lat="43.7701537" lon="12.2562792"><ele>816.0</ele><time>2026-04-05T08:27:20.593Z</time></trkpt><trkpt lat="43.7701453" lon="12.256026"><ele>818.0</ele><time>2026-04-05T08:27:21.592Z</time></trkpt><trkpt lat="43.7701322" lon="12.2557979"><ele>820.0</ele><time>2026-04-05T08:27:22.592Z</time></trkpt><trkpt lat="43.770099" lon="12.2555875"><ele>822.0</ele><time>2026-04-05T08:27:23.593Z</time></trkpt><trkpt lat="43.7700334" lon="12.2553818"><ele>822.0</ele><time>2026-04-05T08:27:24.592Z</time></trkpt><trkpt lat="43.7699447" lon="12.2551605"><ele>822.0</ele><time>2026-04-05T08:27:25.593Z</time></trkpt><trkpt lat="43.7698458" lon="12.2549531"><ele>822.0</ele><time>2026-04-05T08:27:26.593Z</time></trkpt><trkpt lat="43.7697485" lon="12.2547639"><ele>820.5</ele><time>2026-04-05T08:27:27.593Z</time></trkpt><trkpt lat="43.7696543" lon="12.2546026"><ele>819.0</ele><time>2026-04-05T08:27:28.593Z</time></trkpt><trkpt lat="43.7695572" lon="12.2544567"><ele>817.5</ele><time>2026-04-05T08:27:29.593Z</time></trkpt><trkpt lat="43.7694484" lon="12.2543394"><ele>816.0</ele><time>2026-04-05T08:27:30.592Z</time></trkpt><trkpt lat="43.7693072" lon="12.2542613"><ele>816.0</ele><time>2026-04-05T08:27:31.592Z</time></trkpt><trkpt lat="43.7691437" lon="12.2542251"><ele>816.0</ele><time>2026-04-05T08:27:32.592Z</time></trkpt><trkpt lat="43.7689544" lon="12.2542277"><ele>816.0</ele><time>2026-04-05T08:27:33.593Z</time></trkpt><trkpt lat="43.768757" lon="12.2542675"><ele>816.0</ele><time>2026-04-05T08:27:34.593Z</time></trkpt><trkpt lat="43.7685655" lon="12.2543176"><ele>816.0</ele><time>2026-04-05T08:27:35.593Z</time></trkpt><trkpt lat="43.768383" lon="12.2543468"><ele>816.0</ele><time>2026-04-05T08:27:36.593Z</time></trkpt><trkpt lat="43.7681989" lon="12.2543421"><ele>815.3333333333333</ele><time>2026-04-05T08:27:37.593Z</time></trkpt><trkpt lat="43.7680159" lon="12.2543213"><ele>814.6666666666666</ele><time>2026-04-05T08:27:38.593Z</time></trkpt><trkpt lat="43.7678356" lon="12.2542926"><ele>814.0</ele><time>2026-04-05T08:27:39.592Z</time></trkpt><trkpt lat="43.7676444" lon="12.254281"><ele>813.5</ele><time>2026-04-05T08:27:40.592Z</time></trkpt><trkpt lat="43.7674718" lon="12.2543013"><ele>813.0</ele><time>2026-04-05T08:27:41.593Z</time></trkpt><trkpt lat="43.7673296" lon="12.2543404"><ele>812.5</ele><time>2026-04-05T08:27:42.592Z</time></trkpt><trkpt lat="43.7672128" lon="12.2543563"><ele>812.0</ele><time>2026-04-05T08:27:43.593Z</time></trkpt><trkpt lat="43.7671136" lon="12.2543341"><ele>812.0</ele><time>2026-04-05T08:27:44.592Z</time></trkpt><trkpt lat="43.7670321" lon="12.2542735"><ele>812.0</ele><time>2026-04-05T08:27:45.593Z</time></trkpt><trkpt lat="43.7669736" lon="12.2541744"><ele>812.0</ele><time>2026-04-05T08:27:46.593Z</time></trkpt><trkpt lat="43.7669464" lon="12.2540279"><ele>812.0</ele><time>2026-04-05T08:27:47.593Z</time></trkpt><trkpt lat="43.7669557" lon="12.2538214"><ele>812.0</ele><time>2026-04-05T08:27:48.592Z</time></trkpt><trkpt lat="43.7669779" lon="12.2535823"><ele>809.0</ele><time>2026-04-05T08:27:49.592Z</time></trkpt><trkpt lat="43.7669834" lon="12.2533375"><ele>806.0</ele><time>2026-04-05T08:27:50.593Z</time></trkpt><trkpt lat="43.7669673" lon="12.2530891"><ele>803.0</ele><time>2026-04-05T08:27:51.592Z</time></trkpt><trkpt lat="43.7669311" lon="12.252846"><ele>801.6666666666667</ele><time>2026-04-05T08:27:52.593Z</time></trkpt><trkpt lat="43.7668775" lon="12.2526121"><ele>800.3333333333333</ele><time>2026-04-05T08:27:53.592Z</time></trkpt><trkpt lat="43.7668239" lon="12.2523807"><ele>799.0</ele><time>2026-04-05T08:27:54.592Z</time></trkpt><trkpt lat="43.7667903" lon="12.2521449"><ele>802.6666666666666</ele><time>2026-04-05T08:27:55.592Z</time></trkpt><trkpt lat="43.7667719" lon="12.251914"><ele>806.3333333333333</ele><time>2026-04-05T08:27:56.592Z</time></trkpt><trkpt lat="43.7667637" lon="12.251698"><ele>810.0</ele><time>2026-04-05T08:27:57.593Z</time></trkpt><trkpt lat="43.7667515" lon="12.2514919"><ele>809.0</ele><time>2026-04-05T08:27:58.592Z</time></trkpt><trkpt lat="43.7667207" lon="12.2512933"><ele>808.0</ele><time>2026-04-05T08:27:59.593Z</time></trkpt><trkpt lat="43.7666669" lon="12.2510796"><ele>807.0</ele><time>2026-04-05T08:28:00.592Z</time></trkpt><trkpt lat="43.7665826" lon="12.2508524"><ele>807.0</ele><time>2026-04-05T08:28:01.593Z</time></trkpt><trkpt lat="43.7664774" lon="12.2506405"><ele>807.0</ele><time>2026-04-05T08:28:02.592Z</time></trkpt><trkpt lat="43.7663714" lon="12.2504379"><ele>807.0</ele><time>2026-04-05T08:28:03.592Z</time></trkpt><trkpt lat="43.7662802" lon="12.2502432"><ele>806.75</ele><time>2026-04-05T08:28:04.593Z</time></trkpt><trkpt lat="43.7662056" lon="12.2500593"><ele>806.5</ele><time>2026-04-05T08:28:05.593Z</time></trkpt><trkpt lat="43.7661584" lon="12.2498838"><ele>806.25</ele><time>2026-04-05T08:28:06.593Z</time></trkpt><trkpt lat="43.7661498" lon="12.2497068"><ele>806.0</ele><time>2026-04-05T08:28:07.592Z</time></trkpt><trkpt lat="43.766188" lon="12.2495271"><ele>806.6666666666667</ele><time>2026-04-05T08:28:08.593Z</time></trkpt><trkpt lat="43.7662846" lon="12.2493617"><ele>807.3333333333333</ele><time>2026-04-05T08:28:09.593Z</time></trkpt><trkpt lat="43.7664274" lon="12.2492123"><ele>808.0</ele><time>2026-04-05T08:28:10.593Z</time></trkpt><trkpt lat="43.7665891" lon="12.2490488"><ele>808.0</ele><time>2026-04-05T08:28:11.592Z</time></trkpt><trkpt lat="43.7667598" lon="12.2488753"><ele>808.0</ele><time>2026-04-05T08:28:12.592Z</time></trkpt><trkpt lat="43.7669338" lon="12.2486985"><ele>808.0</ele><time>2026-04-05T08:28:13.593Z</time></trkpt><trkpt lat="43.7670921" lon="12.248542"><ele>808.0</ele><time>2026-04-05T08:28:14.593Z</time></trkpt><trkpt lat="43.7672335" lon="12.2483957"><ele>808.0</ele><time>2026-04-05T08:28:15.593Z</time></trkpt><trkpt lat="43.7673492" lon="12.2482481"><ele>808.0</ele><time>2026-04-05T08:28:16.592Z</time></trkpt><trkpt lat="43.7674385" lon="12.2480614"><ele>810.3333333333333</ele><time>2026-04-05T08:28:17.592Z</time></trkpt><trkpt lat="43.7675097" lon="12.2478292"><ele>812.6666666666667</ele><time>2026-04-05T08:28:18.593Z</time></trkpt><trkpt lat="43.7675677" lon="12.2475701"><ele>815.0</ele><time>2026-04-05T08:28:19.592Z</time></trkpt><trkpt lat="43.7676315" lon="12.2473024"><ele>811.3333333333334</ele><time>2026-04-05T08:28:20.592Z</time></trkpt><trkpt lat="43.7677003" lon="12.2470532"><ele>807.6666666666667</ele><time>2026-04-05T08:28:21.593Z</time></trkpt><trkpt lat="43.7677697" lon="12.2468353"><ele>804.0</ele><time>2026-04-05T08:28:22.593Z</time></trkpt><trkpt lat="43.7678287" lon="12.2466371"><ele>806.25</ele><time>2026-04-05T08:28:23.593Z</time></trkpt><trkpt lat="43.7678705" lon="12.2464534"><ele>808.5</ele><time>2026-04-05T08:28:24.593Z</time></trkpt><trkpt lat="43.7678935" lon="12.2462751"><ele>810.75</ele><time>2026-04-05T08:28:25.593Z</time></trkpt><trkpt lat="43.767889" lon="12.2460869"><ele>813.0</ele><time>2026-04-05T08:28:26.593Z</time></trkpt><trkpt lat="43.7678693" lon="12.2458767"><ele>813.0</ele><time>2026-04-05T08:28:27.593Z</time></trkpt><trkpt lat="43.7678438" lon="12.2456485"><ele>813.0</ele><time>2026-04-05T08:28:28.593Z</time></trkpt><trkpt lat="43.7678108" lon="12.245418"><ele>813.0</ele><time>2026-04-05T08:28:29.593Z</time></trkpt><trkpt lat="43.7677727" lon="12.2451826"><ele>812.0</ele><time>2026-04-05T08:28:30.593Z</time></trkpt><trkpt lat="43.7677413" lon="12.2449411"><ele>811.0</ele><time>2026-04-05T08:28:31.593Z</time></trkpt><trkpt lat="43.7677193" lon="12.2447104"><ele>810.0</ele><time>2026-04-05T08:28:32.593Z</time></trkpt><trkpt lat="43.7676965" lon="12.2444937"><ele>810.0</ele><time>2026-04-05T08:28:33.593Z</time></trkpt><trkpt lat="43.7676691" lon="12.2442885"><ele>810.0</ele><time>2026-04-05T08:28:34.592Z</time></trkpt><trkpt lat="43.7676201" lon="12.2441011"><ele>810.0</ele><time>2026-04-05T08:28:35.593Z</time></trkpt><trkpt lat="43.7675361" lon="12.2439229"><ele>810.0</ele><time>2026-04-05T08:28:36.592Z</time></trkpt><trkpt lat="43.7674122" lon="12.2437613"><ele>810.0</ele><time>2026-04-05T08:28:37.593Z</time></trkpt><trkpt lat="43.7672547" lon="12.2436045"><ele>810.0</ele><time>2026-04-05T08:28:38.592Z</time></trkpt><trkpt lat="43.7670847" lon="12.2434517"><ele>810.0</ele><time>2026-04-05T08:28:39.592Z</time></trkpt><trkpt lat="43.7669122" lon="12.2432945"><ele>809.6666666666667</ele><time>2026-04-05T08:28:40.593Z</time></trkpt><trkpt lat="43.7667431" lon="12.2431357"><ele>809.3333333333334</ele><time>2026-04-05T08:28:41.593Z</time></trkpt><trkpt lat="43.7665812" lon="12.2429824"><ele>809.0</ele><time>2026-04-05T08:28:42.593Z</time></trkpt><trkpt lat="43.7664228" lon="12.2428385"><ele>809.0</ele><time>2026-04-05T08:28:43.592Z</time></trkpt><trkpt lat="43.7662753" lon="12.2427015"><ele>809.0</ele><time>2026-04-05T08:28:44.592Z</time></trkpt><trkpt lat="43.7661465" lon="12.2425477"><ele>809.0</ele><time>2026-04-05T08:28:45.593Z</time></trkpt><trkpt lat="43.7660505" lon="12.2423683"><ele>814.3333333333334</ele><time>2026-04-05T08:28:46.593Z</time></trkpt><trkpt lat="43.7659818" lon="12.2421614"><ele>819.6666666666667</ele><time>2026-04-05T08:28:47.592Z</time></trkpt><trkpt lat="43.7659398" lon="12.2419215"><ele>825.0</ele><time>2026-04-05T08:28:48.592Z</time></trkpt><trkpt lat="43.7659143" lon="12.2416646"><ele>823.3333333333333</ele><time>2026-04-05T08:28:49.593Z</time></trkpt><trkpt lat="43.7659018" lon="12.2414042"><ele>821.6666666666666</ele><time>2026-04-05T08:28:50.593Z</time></trkpt><trkpt lat="43.7658929" lon="12.2411699"><ele>820.0</ele><time>2026-04-05T08:28:51.593Z</time></trkpt><trkpt lat="43.7658737" lon="12.2409642"><ele>820.0</ele><time>2026-04-05T08:28:52.593Z</time></trkpt><trkpt lat="43.7658372" lon="12.2407809"><ele>820.0</ele><time>2026-04-05T08:28:53.593Z</time></trkpt><trkpt lat="43.765777" lon="12.2405971"><ele>820.0</ele><time>2026-04-05T08:28:54.593Z</time></trkpt><trkpt lat="43.7656927" lon="12.2404297"><ele>820.0</ele><time>2026-04-05T08:28:55.593Z</time></trkpt><trkpt lat="43.7656036" lon="12.2402788"><ele>817.75</ele><time>2026-04-05T08:28:56.593Z</time></trkpt><trkpt lat="43.7655321" lon="12.2401433"><ele>815.5</ele><time>2026-04-05T08:28:57.592Z</time></trkpt><trkpt lat="43.7654924" lon="12.2399975"><ele>813.25</ele><time>2026-04-05T08:28:58.593Z</time></trkpt><trkpt lat="43.7654886" lon="12.2398313"><ele>811.0</ele><time>2026-04-05T08:28:59.592Z</time></trkpt><trkpt lat="43.765507" lon="12.2396492"><ele>809.0</ele><time>2026-04-05T08:29:00.593Z</time></trkpt><trkpt lat="43.7655147" lon="12.2394796"><ele>807.0</ele><time>2026-04-05T08:29:01.593Z</time></trkpt><trkpt lat="43.7654875" lon="12.2393174"><ele>805.0</ele><time>2026-04-05T08:29:02.592Z</time></trkpt><trkpt lat="43.7654231" lon="12.2391742"><ele>803.0</ele><time>2026-04-05T08:29:03.592Z</time></trkpt><trkpt lat="43.7653262" lon="12.2390779"><ele>806.0</ele><time>2026-04-05T08:29:04.592Z</time></trkpt><trkpt lat="43.7651921" lon="12.2390176"><ele>809.0</ele><time>2026-04-05T08:29:05.593Z</time></trkpt><trkpt lat="43.7650414" lon="12.2389838"><ele>812.0</ele><time>2026-04-05T08:29:06.593Z</time></trkpt><trkpt lat="43.7648979" lon="12.2389421"><ele>815.0</ele><time>2026-04-05T08:29:07.593Z</time></trkpt><trkpt lat="43.7647704" lon="12.2388677"><ele>815.0</ele><time>2026-04-05T08:29:08.592Z</time></trkpt><trkpt lat="43.764664" lon="12.2387465"><ele>815.0</ele><time>2026-04-05T08:29:09.593Z</time></trkpt><trkpt lat="43.7645877" lon="12.2385764"><ele>815.0</ele><time>2026-04-05T08:29:10.593Z</time></trkpt><trkpt lat="43.7645412" lon="12.2383628"><ele>815.0</ele><time>2026-04-05T08:29:11.593Z</time></trkpt><trkpt lat="43.764518" lon="12.2381454"><ele>812.6666666666667</ele><time>2026-04-05T08:29:12.593Z</time></trkpt><trkpt lat="43.7644839" lon="12.2379475"><ele>810.3333333333333</ele><time>2026-04-05T08:29:13.593Z</time></trkpt><trkpt lat="43.7644229" lon="12.2377666"><ele>808.0</ele><time>2026-04-05T08:29:14.592Z</time></trkpt><trkpt lat="43.7643288" lon="12.2375867"><ele>811.0</ele><time>2026-04-05T08:29:15.593Z</time></trkpt><trkpt lat="43.7642206" lon="12.2374097"><ele>814.0</ele><time>2026-04-05T08:29:16.593Z</time></trkpt><trkpt lat="43.7641113" lon="12.2372511"><ele>817.0</ele><time>2026-04-05T08:29:17.593Z</time></trkpt><trkpt lat="43.7640123" lon="12.2371091"><ele>817.0</ele><time>2026-04-05T08:29:18.593Z</time></trkpt><trkpt lat="43.7639324" lon="12.2369879"><ele>817.0</ele><time>2026-04-05T08:29:19.593Z</time></trkpt><trkpt lat="43.7638724" lon="12.2368924"><ele>817.0</ele><time>2026-04-05T08:29:20.593Z</time></trkpt><trkpt lat="43.7638181" lon="12.2368162"><ele>817.0</ele><time>2026-04-05T08:29:21.593Z</time></trkpt><trkpt lat="43.7637366" lon="12.2367099"><ele>817.0</ele><time>2026-04-05T08:29:23.593Z</time></trkpt><trkpt lat="43.7637255" lon="12.2365841"><ele>817.0</ele><time>2026-04-05T08:29:25.593Z</time></trkpt><trkpt lat="43.7637698" lon="12.2364847"><ele>817.0</ele><time>2026-04-05T08:29:26.593Z</time></trkpt><trkpt lat="43.7638468" lon="12.2363533"><ele>817.0</ele><time>2026-04-05T08:29:27.592Z</time></trkpt><trkpt lat="43.7639347" lon="12.2362052"><ele>817.0</ele><time>2026-04-05T08:29:28.593Z</time></trkpt><trkpt lat="43.7640171" lon="12.2360732"><ele>816.0</ele><time>2026-04-05T08:29:29.592Z</time></trkpt><trkpt lat="43.7640938" lon="12.2359561"><ele>815.0</ele><time>2026-04-05T08:29:30.593Z</time></trkpt><trkpt lat="43.7641697" lon="12.2358686"><ele>814.0</ele><time>2026-04-05T08:29:31.592Z</time></trkpt><trkpt lat="43.7642476" lon="12.2358165"><ele>813.0</ele><time>2026-04-05T08:29:32.593Z</time></trkpt><trkpt lat="43.7643334" lon="12.2358334"><ele>812.0</ele><time>2026-04-05T08:29:33.593Z</time></trkpt><trkpt lat="43.7644227" lon="12.2359228"><ele>810.5</ele><time>2026-04-05T08:29:34.593Z</time></trkpt><trkpt lat="43.7645121" lon="12.2360644"><ele>809.0</ele><time>2026-04-05T08:29:35.593Z</time></trkpt><trkpt lat="43.7645962" lon="12.2362366"><ele>807.5</ele><time>2026-04-05T08:29:36.593Z</time></trkpt><trkpt lat="43.7646692" lon="12.2364096"><ele>806.0</ele><time>2026-04-05T08:29:37.593Z</time></trkpt><trkpt lat="43.7647199" lon="12.2365826"><ele>805.5999999999999</ele><time>2026-04-05T08:29:38.593Z</time></trkpt><trkpt lat="43.7647446" lon="12.2367446"><ele>805.2</ele><time>2026-04-05T08:29:39.593Z</time></trkpt><trkpt lat="43.7647616" lon="12.23687"><ele>804.8</ele><time>2026-04-05T08:29:40.592Z</time></trkpt><trkpt lat="43.764785" lon="12.2369674"><ele>804.4000000000001</ele><time>2026-04-05T08:29:41.593Z</time></trkpt><trkpt lat="43.7648278" lon="12.237041"><ele>804.0</ele><time>2026-04-05T08:29:42.593Z</time></trkpt><trkpt lat="43.764938" lon="12.2370244"><ele>804.0</ele><time>2026-04-05T08:29:44.593Z</time></trkpt><trkpt lat="43.7650001" lon="12.2369216"><ele>804.0</ele><time>2026-04-05T08:29:45.593Z</time></trkpt><trkpt lat="43.7650607" lon="12.236833"><ele>804.0</ele><time>2026-04-05T08:29:46.593Z</time></trkpt><trkpt lat="43.7651323" lon="12.2368036"><ele>804.0</ele><time>2026-04-05T08:29:47.592Z</time></trkpt><trkpt lat="43.7652213" lon="12.2368441"><ele>804.0</ele><time>2026-04-05T08:29:48.593Z</time></trkpt><trkpt lat="43.7653126" lon="12.2369336"><ele>799.75</ele><time>2026-04-05T08:29:49.593Z</time></trkpt><trkpt lat="43.7654192" lon="12.2370481"><ele>795.5</ele><time>2026-04-05T08:29:50.593Z</time></trkpt><trkpt lat="43.7655356" lon="12.2371451"><ele>791.25</ele><time>2026-04-05T08:29:51.593Z</time></trkpt><trkpt lat="43.7656635" lon="12.237199"><ele>787.0</ele><time>2026-04-05T08:29:52.592Z</time></trkpt><trkpt lat="43.7657976" lon="12.2372018"><ele>787.0</ele><time>2026-04-05T08:29:53.593Z</time></trkpt><trkpt lat="43.7659344" lon="12.2371715"><ele>787.0</ele><time>2026-04-05T08:29:54.592Z</time></trkpt><trkpt lat="43.7660743" lon="12.2371178"><ele>787.0</ele><time>2026-04-05T08:29:55.592Z</time></trkpt><trkpt lat="43.7662131" lon="12.237084"><ele>787.0</ele><time>2026-04-05T08:29:56.592Z</time></trkpt><trkpt lat="43.7663546" lon="12.2370505"><ele>782.6666666666666</ele><time>2026-04-05T08:29:57.593Z</time></trkpt><trkpt lat="43.7665006" lon="12.2369955"><ele>778.3333333333333</ele><time>2026-04-05T08:29:58.592Z</time></trkpt><trkpt lat="43.7666479" lon="12.2369029"><ele>774.0</ele><time>2026-04-05T08:29:59.592Z</time></trkpt><trkpt lat="43.766787" lon="12.2367921"><ele>771.0</ele><time>2026-04-05T08:30:00.593Z</time></trkpt><trkpt lat="43.7669076" lon="12.2366756"><ele>768.0</ele><time>2026-04-05T08:30:01.592Z</time></trkpt><trkpt lat="43.7670173" lon="12.2365753"><ele>765.0</ele><time>2026-04-05T08:30:02.592Z</time></trkpt><trkpt lat="43.7671159" lon="12.2365018"><ele>762.0</ele><time>2026-04-05T08:30:03.593Z</time></trkpt><trkpt lat="43.7672162" lon="12.2364662"><ele>762.0</ele><time>2026-04-05T08:30:04.593Z</time></trkpt><trkpt lat="43.7673246" lon="12.2364746"><ele>762.0</ele><time>2026-04-05T08:30:05.592Z</time></trkpt><trkpt lat="43.767439" lon="12.2365186"><ele>762.0</ele><time>2026-04-05T08:30:06.593Z</time></trkpt><trkpt lat="43.7675456" lon="12.2365724"><ele>762.0</ele><time>2026-04-05T08:30:07.592Z</time></trkpt><trkpt lat="43.7676302" lon="12.2366234"><ele>762.0</ele><time>2026-04-05T08:30:08.593Z</time></trkpt><trkpt lat="43.7676968" lon="12.2366983"><ele>762.0</ele><time>2026-04-05T08:30:09.592Z</time></trkpt><trkpt lat="43.7677297" lon="12.2368048"><ele>762.0</ele><time>2026-04-05T08:30:10.593Z</time></trkpt><trkpt lat="43.7677194" lon="12.2369317"><ele>762.0</ele><time>2026-04-05T08:30:11.593Z</time></trkpt><trkpt lat="43.767661" lon="12.2370607"><ele>762.0</ele><time>2026-04-05T08:30:12.593Z</time></trkpt><trkpt lat="43.7675376" lon="12.2371818"><ele>762.0</ele><time>2026-04-05T08:30:13.592Z</time></trkpt><trkpt lat="43.7673956" lon="12.2373108"><ele>758.25</ele><time>2026-04-05T08:30:14.592Z</time></trkpt><trkpt lat="43.76727" lon="12.2374419"><ele>754.5</ele><time>2026-04-05T08:30:15.593Z</time></trkpt><trkpt lat="43.7671618" lon="12.2375614"><ele>750.75</ele><time>2026-04-05T08:30:16.593Z</time></trkpt><trkpt lat="43.7670852" lon="12.2376713"><ele>747.0</ele><time>2026-04-05T08:30:17.593Z</time></trkpt><trkpt lat="43.7670512" lon="12.2377941"><ele>747.0</ele><time>2026-04-05T08:30:18.592Z</time></trkpt><trkpt lat="43.7670601" lon="12.2379467"><ele>747.0</ele><time>2026-04-05T08:30:19.593Z</time></trkpt><trkpt lat="43.7671202" lon="12.2381102"><ele>747.0</ele><time>2026-04-05T08:30:20.593Z</time></trkpt><trkpt lat="43.7672273" lon="12.2382779"><ele>747.0</ele><time>2026-04-05T08:30:21.593Z</time></trkpt><trkpt lat="43.7673682" lon="12.2384419"><ele>743.0</ele><time>2026-04-05T08:30:22.593Z</time></trkpt><trkpt lat="43.7675247" lon="12.2385903"><ele>739.0</ele><time>2026-04-05T08:30:23.593Z</time></trkpt><trkpt lat="43.767699" lon="12.2387153"><ele>735.0</ele><time>2026-04-05T08:30:24.592Z</time></trkpt><trkpt lat="43.7678834" lon="12.2388285"><ele>732.0</ele><time>2026-04-05T08:30:25.593Z</time></trkpt><trkpt lat="43.7680712" lon="12.238925"><ele>729.0</ele><time>2026-04-05T08:30:26.593Z</time></trkpt><trkpt lat="43.7682477" lon="12.239019"><ele>726.0</ele><time>2026-04-05T08:30:27.592Z</time></trkpt><trkpt lat="43.7684179" lon="12.2390995"><ele>720.6666666666666</ele><time>2026-04-05T08:30:28.593Z</time></trkpt><trkpt lat="43.7685939" lon="12.2391661"><ele>715.3333333333333</ele><time>2026-04-05T08:30:29.592Z</time></trkpt><trkpt lat="43.7687637" lon="12.2392223"><ele>710.0</ele><time>2026-04-05T08:30:30.593Z</time></trkpt><trkpt lat="43.768918" lon="12.2392676"><ele>710.0</ele><time>2026-04-05T08:30:31.593Z</time></trkpt><trkpt lat="43.7690563" lon="12.2393085"><ele>710.0</ele><time>2026-04-05T08:30:32.593Z</time></trkpt><trkpt lat="43.7691887" lon="12.2393643"><ele>710.0</ele><time>2026-04-05T08:30:33.593Z</time></trkpt><trkpt lat="43.769319" lon="12.2394414"><ele>710.0</ele><time>2026-04-05T08:30:34.592Z</time></trkpt><trkpt lat="43.7694457" lon="12.2395299"><ele>707.75</ele><time>2026-04-05T08:30:35.593Z</time></trkpt><trkpt lat="43.7695625" lon="12.2396153"><ele>705.5</ele><time>2026-04-05T08:30:36.592Z</time></trkpt><trkpt lat="43.769675" lon="12.2396909"><ele>703.25</ele><time>2026-04-05T08:30:37.593Z</time></trkpt><trkpt lat="43.7697766" lon="12.2397713"><ele>701.0</ele><time>2026-04-05T08:30:38.593Z</time></trkpt><trkpt lat="43.769864" lon="12.2398674"><ele>701.0</ele><time>2026-04-05T08:30:39.592Z</time></trkpt><trkpt lat="43.7699245" lon="12.2399688"><ele>701.0</ele><time>2026-04-05T08:30:40.593Z</time></trkpt><trkpt lat="43.7699713" lon="12.2400537"><ele>701.0</ele><time>2026-04-05T08:30:41.593Z</time></trkpt><trkpt lat="43.7700222" lon="12.2401115"><ele>701.0</ele><time>2026-04-05T08:30:42.593Z</time></trkpt><trkpt lat="43.7700839" lon="12.2401326"><ele>701.0</ele><time>2026-04-05T08:30:43.593Z</time></trkpt><trkpt lat="43.770148" lon="12.2401002"><ele>701.0</ele><time>2026-04-05T08:30:44.592Z</time></trkpt><trkpt lat="43.7701906" lon="12.239975"><ele>698.5999999999999</ele><time>2026-04-05T08:30:45.593Z</time></trkpt><trkpt lat="43.7701994" lon="12.2398277"><ele>696.2</ele><time>2026-04-05T08:30:46.592Z</time></trkpt><trkpt lat="43.7701814" lon="12.2396795"><ele>693.8</ele><time>2026-04-05T08:30:47.592Z</time></trkpt><trkpt lat="43.7701707" lon="12.2395322"><ele>691.4000000000001</ele><time>2026-04-05T08:30:48.593Z</time></trkpt><trkpt lat="43.7701885" lon="12.239396"><ele>689.0</ele><time>2026-04-05T08:30:49.593Z</time></trkpt><trkpt lat="43.7702374" lon="12.23929"><ele>686.0</ele><time>2026-04-05T08:30:50.593Z</time></trkpt><trkpt lat="43.7702989" lon="12.239214"><ele>683.0</ele><time>2026-04-05T08:30:51.593Z</time></trkpt><trkpt lat="43.7703761" lon="12.2392001"><ele>680.0</ele><time>2026-04-05T08:30:52.593Z</time></trkpt><trkpt lat="43.7704482" lon="12.239228"><ele>677.0</ele><time>2026-04-05T08:30:53.592Z</time></trkpt><trkpt lat="43.7705121" lon="12.2392962"><ele>674.0</ele><time>2026-04-05T08:30:54.593Z</time></trkpt><trkpt lat="43.7705712" lon="12.2394457"><ele>671.0</ele><time>2026-04-05T08:30:55.593Z</time></trkpt><trkpt lat="43.7706386" lon="12.2396223"><ele>671.0</ele><time>2026-04-05T08:30:56.593Z</time></trkpt><trkpt lat="43.7707222" lon="12.239795"><ele>671.0</ele><time>2026-04-05T08:30:57.592Z</time></trkpt><trkpt lat="43.7708396" lon="12.2399613"><ele>671.0</ele><time>2026-04-05T08:30:58.593Z</time></trkpt><trkpt lat="43.7709886" lon="12.2401161"><ele>667.3333333333333</ele><time>2026-04-05T08:30:59.593Z</time></trkpt><trkpt lat="43.7711407" lon="12.240265"><ele>663.6666666666666</ele><time>2026-04-05T08:31:00.593Z</time></trkpt><trkpt lat="43.7712811" lon="12.2404152"><ele>660.0</ele><time>2026-04-05T08:31:01.593Z</time></trkpt><trkpt lat="43.7714048" lon="12.2405515"><ele>661.4</ele><time>2026-04-05T08:31:02.592Z</time></trkpt><trkpt lat="43.7714995" lon="12.2406662"><ele>662.8</ele><time>2026-04-05T08:31:03.593Z</time></trkpt><trkpt lat="43.7715795" lon="12.2407386"><ele>664.2</ele><time>2026-04-05T08:31:04.593Z</time></trkpt><trkpt lat="43.7716642" lon="12.2407774"><ele>665.6</ele><time>2026-04-05T08:31:05.593Z</time></trkpt><trkpt lat="43.7717586" lon="12.2407695"><ele>667.0</ele><time>2026-04-05T08:31:06.593Z</time></trkpt><trkpt lat="43.7718402" lon="12.2406999"><ele>664.0</ele><time>2026-04-05T08:31:07.593Z</time></trkpt><trkpt lat="43.7719005" lon="12.240565"><ele>661.0</ele><time>2026-04-05T08:31:08.592Z</time></trkpt><trkpt lat="43.7719627" lon="12.2403843"><ele>658.0</ele><time>2026-04-05T08:31:09.592Z</time></trkpt><trkpt lat="43.7720467" lon="12.2401959"><ele>655.0</ele><time>2026-04-05T08:31:10.593Z</time></trkpt><trkpt lat="43.7721484" lon="12.2400386"><ele>655.0</ele><time>2026-04-05T08:31:11.592Z</time></trkpt><trkpt lat="43.7722444" lon="12.2399176"><ele>655.0</ele><time>2026-04-05T08:31:12.593Z</time></trkpt><trkpt lat="43.7723356" lon="12.2398383"><ele>655.0</ele><time>2026-04-05T08:31:13.593Z</time></trkpt><trkpt lat="43.772438" lon="12.2398074"><ele>655.0</ele><time>2026-04-05T08:31:14.592Z</time></trkpt><trkpt lat="43.7725543" lon="12.2397988"><ele>652.75</ele><time>2026-04-05T08:31:15.593Z</time></trkpt><trkpt lat="43.7726744" lon="12.2397668"><ele>650.5</ele><time>2026-04-05T08:31:16.593Z</time></trkpt><trkpt lat="43.772778" lon="12.2396858"><ele>648.25</ele><time>2026-04-05T08:31:17.592Z</time></trkpt><trkpt lat="43.7728584" lon="12.2395698"><ele>646.0</ele><time>2026-04-05T08:31:18.593Z</time></trkpt><trkpt lat="43.7729417" lon="12.239464"><ele>644.5</ele><time>2026-04-05T08:31:19.593Z</time></trkpt><trkpt lat="43.7730469" lon="12.2393951"><ele>643.0</ele><time>2026-04-05T08:31:20.593Z</time></trkpt><trkpt lat="43.7731821" lon="12.2393849"><ele>641.5</ele><time>2026-04-05T08:31:21.593Z</time></trkpt><trkpt lat="43.7733282" lon="12.2393982"><ele>640.0</ele><time>2026-04-05T08:31:22.592Z</time></trkpt><trkpt lat="43.7734813" lon="12.2393952"><ele>642.0</ele><time>2026-04-05T08:31:23.592Z</time></trkpt><trkpt lat="43.7736216" lon="12.2393753"><ele>644.0</ele><time>2026-04-05T08:31:24.593Z</time></trkpt><trkpt lat="43.7737522" lon="12.2393452"><ele>646.0</ele><time>2026-04-05T08:31:25.592Z</time></trkpt><trkpt lat="43.7738665" lon="12.2392803"><ele>648.0</ele><time>2026-04-05T08:31:26.592Z</time></trkpt><trkpt lat="43.7739676" lon="12.2391543"><ele>646.0</ele><time>2026-04-05T08:31:27.592Z</time></trkpt><trkpt lat="43.7740458" lon="12.2389512"><ele>644.0</ele><time>2026-04-05T08:31:28.593Z</time></trkpt><trkpt lat="43.7741221" lon="12.238729"><ele>642.0</ele><time>2026-04-05T08:31:29.592Z</time></trkpt><trkpt lat="43.7741915" lon="12.2385251"><ele>642.0</ele><time>2026-04-05T08:31:30.593Z</time></trkpt><trkpt lat="43.7742479" lon="12.2383385"><ele>642.0</ele><time>2026-04-05T08:31:31.593Z</time></trkpt><trkpt lat="43.7742873" lon="12.238159"><ele>642.0</ele><time>2026-04-05T08:31:32.593Z</time></trkpt><trkpt lat="43.774321" lon="12.2379721"><ele>642.0</ele><time>2026-04-05T08:31:33.593Z</time></trkpt><trkpt lat="43.774347" lon="12.2377864"><ele>642.0</ele><time>2026-04-05T08:31:34.593Z</time></trkpt><trkpt lat="43.77437" lon="12.2376126"><ele>642.0</ele><time>2026-04-05T08:31:35.593Z</time></trkpt><trkpt lat="43.7743809" lon="12.2374497"><ele>642.0</ele><time>2026-04-05T08:31:36.593Z</time></trkpt><trkpt lat="43.7743618" lon="12.2372812"><ele>642.0</ele><time>2026-04-05T08:31:37.593Z</time></trkpt><trkpt lat="43.774318" lon="12.2371148"><ele>640.6</ele><time>2026-04-05T08:31:38.593Z</time></trkpt><trkpt lat="43.7742787" lon="12.2369643"><ele>639.2</ele><time>2026-04-05T08:31:39.593Z</time></trkpt><trkpt lat="43.7742509" lon="12.2368229"><ele>637.8</ele><time>2026-04-05T08:31:40.592Z</time></trkpt><trkpt lat="43.7742512" lon="12.2366894"><ele>636.4</ele><time>2026-04-05T08:31:41.592Z</time></trkpt><trkpt lat="43.7742781" lon="12.2365555"><ele>635.0</ele><time>2026-04-05T08:31:42.593Z</time></trkpt><trkpt lat="43.7743255" lon="12.2364342"><ele>635.6</ele><time>2026-04-05T08:31:43.593Z</time></trkpt><trkpt lat="43.7743959" lon="12.2363325"><ele>636.2</ele><time>2026-04-05T08:31:44.593Z</time></trkpt><trkpt lat="43.7744857" lon="12.2362506"><ele>636.8</ele><time>2026-04-05T08:31:45.592Z</time></trkpt><trkpt lat="43.7745844" lon="12.2361943"><ele>637.4</ele><time>2026-04-05T08:31:46.593Z</time></trkpt><trkpt lat="43.7746819" lon="12.2361705"><ele>638.0</ele><time>2026-04-05T08:31:47.593Z</time></trkpt><trkpt lat="43.7747803" lon="12.2361642"><ele>638.0</ele><time>2026-04-05T08:31:48.593Z</time></trkpt><trkpt lat="43.7748768" lon="12.236138"><ele>638.0</ele><time>2026-04-05T08:31:49.592Z</time></trkpt><trkpt lat="43.7749608" lon="12.2360919"><ele>638.0</ele><time>2026-04-05T08:31:50.593Z</time></trkpt><trkpt lat="43.7750413" lon="12.2360165"><ele>638.0</ele><time>2026-04-05T08:31:51.593Z</time></trkpt><trkpt lat="43.7751072" lon="12.2359199"><ele>638.0</ele><time>2026-04-05T08:31:52.593Z</time></trkpt><trkpt lat="43.7751665" lon="12.2357983"><ele>640.5</ele><time>2026-04-05T08:31:53.593Z</time></trkpt><trkpt lat="43.7752154" lon="12.2356578"><ele>643.0</ele><time>2026-04-05T08:31:54.593Z</time></trkpt><trkpt lat="43.7752525" lon="12.2355073"><ele>645.5</ele><time>2026-04-05T08:31:55.592Z</time></trkpt><trkpt lat="43.775274" lon="12.2353412"><ele>648.0</ele><time>2026-04-05T08:31:56.593Z</time></trkpt><trkpt lat="43.7752934" lon="12.2351854"><ele>648.0</ele><time>2026-04-05T08:31:57.593Z</time></trkpt><trkpt lat="43.7753242" lon="12.2350465"><ele>648.0</ele><time>2026-04-05T08:31:58.592Z</time></trkpt><trkpt lat="43.775372" lon="12.2348919"><ele>648.0</ele><time>2026-04-05T08:31:59.593Z</time></trkpt><trkpt lat="43.7754228" lon="12.2347157"><ele>648.0</ele><time>2026-04-05T08:32:00.593Z</time></trkpt><trkpt lat="43.7754457" lon="12.2345395"><ele>646.6666666666666</ele><time>2026-04-05T08:32:01.593Z</time></trkpt><trkpt lat="43.7754297" lon="12.2343659"><ele>645.3333333333333</ele><time>2026-04-05T08:32:02.592Z</time></trkpt><trkpt lat="43.7754613" lon="12.2342536"><ele>644.0</ele><time>2026-04-05T08:32:03.685Z</time></trkpt><trkpt lat="43.7751917" lon="12.2340219"><ele>639.25</ele><time>2026-04-05T08:32:05.066Z</time></trkpt><trkpt lat="43.7751546" lon="12.2338138"><ele>634.5</ele><time>2026-04-05T08:32:06.09Z</time></trkpt><trkpt lat="43.7751295" lon="12.2336315"><ele>629.75</ele><time>2026-04-05T08:32:07.089Z</time></trkpt><trkpt lat="43.7751324" lon="12.2334454"><ele>625.0</ele><time>2026-04-05T08:32:08.089Z</time></trkpt><trkpt lat="43.7751776" lon="12.2331679"><ele>628.3333333333334</ele><time>2026-04-05T08:32:09.59Z</time></trkpt><trkpt lat="43.7752326" lon="12.2329868"><ele>631.6666666666666</ele><time>2026-04-05T08:32:10.59Z</time></trkpt><trkpt lat="43.7752988" lon="12.2327978"><ele>635.0</ele><time>2026-04-05T08:32:11.59Z</time></trkpt><trkpt lat="43.775373" lon="12.2325892"><ele>635.0</ele><time>2026-04-05T08:32:12.59Z</time></trkpt><trkpt lat="43.7754498" lon="12.2323618"><ele>635.0</ele><time>2026-04-05T08:32:13.59Z</time></trkpt><trkpt lat="43.7755006" lon="12.2321195"><ele>635.0</ele><time>2026-04-05T08:32:14.59Z</time></trkpt><trkpt lat="43.7755232" lon="12.2318724"><ele>634.0</ele><time>2026-04-05T08:32:15.589Z</time></trkpt><trkpt lat="43.7755295" lon="12.2316357"><ele>633.0</ele><time>2026-04-05T08:32:16.59Z</time></trkpt><trkpt lat="43.7755365" lon="12.231423"><ele>632.0</ele><time>2026-04-05T08:32:17.589Z</time></trkpt><trkpt lat="43.7755422" lon="12.2312351"><ele>630.0</ele><time>2026-04-05T08:32:18.589Z</time></trkpt><trkpt lat="43.7755389" lon="12.2310599"><ele>628.0</ele><time>2026-04-05T08:32:19.589Z</time></trkpt><trkpt lat="43.7755289" lon="12.2309039"><ele>626.0</ele><time>2026-04-05T08:32:20.59Z</time></trkpt><trkpt lat="43.7755237" lon="12.2307559"><ele>624.0</ele><time>2026-04-05T08:32:21.59Z</time></trkpt><trkpt lat="43.7755288" lon="12.230607"><ele>621.6</ele><time>2026-04-05T08:32:22.59Z</time></trkpt><trkpt lat="43.7755438" lon="12.2304515"><ele>619.2</ele><time>2026-04-05T08:32:23.59Z</time></trkpt><trkpt lat="43.7755693" lon="12.230299"><ele>616.8000000000001</ele><time>2026-04-05T08:32:24.59Z</time></trkpt><trkpt lat="43.7756071" lon="12.2301657"><ele>614.4</ele><time>2026-04-05T08:32:25.59Z</time></trkpt><trkpt lat="43.7756629" lon="12.2300393"><ele>612.0</ele><time>2026-04-05T08:32:26.59Z</time></trkpt><trkpt lat="43.7757435" lon="12.2299095"><ele>610.0</ele><time>2026-04-05T08:32:27.59Z</time></trkpt><trkpt lat="43.775833" lon="12.2297918"><ele>608.0</ele><time>2026-04-05T08:32:28.59Z</time></trkpt><trkpt lat="43.7759138" lon="12.2296967"><ele>606.0</ele><time>2026-04-05T08:32:29.589Z</time></trkpt><trkpt lat="43.775977" lon="12.2296039"><ele>604.0</ele><time>2026-04-05T08:32:30.589Z</time></trkpt><trkpt lat="43.7760098" lon="12.2294918"><ele>602.0</ele><time>2026-04-05T08:32:31.59Z</time></trkpt><trkpt lat="43.7759961" lon="12.2293666"><ele>602.0</ele><time>2026-04-05T08:32:32.59Z</time></trkpt><trkpt lat="43.775923" lon="12.2292364"><ele>602.0</ele><time>2026-04-05T08:32:33.59Z</time></trkpt><trkpt lat="43.7758249" lon="12.2291127"><ele>602.0</ele><time>2026-04-05T08:32:34.589Z</time></trkpt><trkpt lat="43.775742" lon="12.2290033"><ele>602.0</ele><time>2026-04-05T08:32:35.59Z</time></trkpt><trkpt lat="43.7756368" lon="12.2289266"><ele>600.5</ele><time>2026-04-05T08:32:36.59Z</time></trkpt><trkpt lat="43.7755092" lon="12.2288628"><ele>599.0</ele><time>2026-04-05T08:32:37.589Z</time></trkpt><trkpt lat="43.7753821" lon="12.2288006"><ele>597.5</ele><time>2026-04-05T08:32:38.59Z</time></trkpt><trkpt lat="43.7752712" lon="12.2287313"><ele>596.0</ele><time>2026-04-05T08:32:39.59Z</time></trkpt><trkpt lat="43.7751653" lon="12.2286751"><ele>593.2</ele><time>2026-04-05T08:32:40.59Z</time></trkpt><trkpt lat="43.7750681" lon="12.2286476"><ele>590.4000000000001</ele><time>2026-04-05T08:32:41.59Z</time></trkpt><trkpt lat="43.7749682" lon="12.2286525"><ele>587.6</ele><time>2026-04-05T08:32:42.59Z</time></trkpt><trkpt lat="43.7748696" lon="12.2286923"><ele>584.8000000000001</ele><time>2026-04-05T08:32:43.589Z</time></trkpt><trkpt lat="43.7747783" lon="12.2287471"><ele>582.0</ele><time>2026-04-05T08:32:44.59Z</time></trkpt><trkpt lat="43.7747058" lon="12.2288173"><ele>582.0</ele><time>2026-04-05T08:32:45.589Z</time></trkpt><trkpt lat="43.7746357" lon="12.2288505"><ele>582.0</ele><time>2026-04-05T08:32:46.589Z</time></trkpt><trkpt lat="43.7745684" lon="12.2288712"><ele>582.0</ele><time>2026-04-05T08:32:47.59Z</time></trkpt><trkpt lat="43.7745084" lon="12.2288397"><ele>582.0</ele><time>2026-04-05T08:32:48.589Z</time></trkpt><trkpt lat="43.7744594" lon="12.2287513"><ele>582.0</ele><time>2026-04-05T08:32:49.59Z</time></trkpt><trkpt lat="43.7744333" lon="12.2286098"><ele>582.0</ele><time>2026-04-05T08:32:50.59Z</time></trkpt><trkpt lat="43.7744355" lon="12.2284435"><ele>582.0</ele><time>2026-04-05T08:32:51.59Z</time></trkpt><trkpt lat="43.7744619" lon="12.2282786"><ele>582.0</ele><time>2026-04-05T08:32:52.59Z</time></trkpt><trkpt lat="43.7745171" lon="12.2281184"><ele>582.0</ele><time>2026-04-05T08:32:53.59Z</time></trkpt><trkpt lat="43.7746041" lon="12.2279742"><ele>582.0</ele><time>2026-04-05T08:32:54.589Z</time></trkpt><trkpt lat="43.7747157" lon="12.2278558"><ele>579.5</ele><time>2026-04-05T08:32:55.589Z</time></trkpt><trkpt lat="43.7748175" lon="12.2277346"><ele>577.0</ele><time>2026-04-05T08:32:56.59Z</time></trkpt><trkpt lat="43.7749013" lon="12.2275857"><ele>574.5</ele><time>2026-04-05T08:32:57.59Z</time></trkpt><trkpt lat="43.7749681" lon="12.2273926"><ele>572.0</ele><time>2026-04-05T08:32:58.59Z</time></trkpt><trkpt lat="43.775034" lon="12.2271778"><ele>569.6666666666666</ele><time>2026-04-05T08:32:59.59Z</time></trkpt><trkpt lat="43.7751172" lon="12.2269624"><ele>567.3333333333334</ele><time>2026-04-05T08:33:00.589Z</time></trkpt><trkpt lat="43.7752158" lon="12.2267704"><ele>565.0</ele><time>2026-04-05T08:33:01.59Z</time></trkpt><trkpt lat="43.7753194" lon="12.2266047"><ele>568.0</ele><time>2026-04-05T08:33:02.59Z</time></trkpt><trkpt lat="43.775414" lon="12.226434"><ele>571.0</ele><time>2026-04-05T08:33:03.589Z</time></trkpt><trkpt lat="43.7754903" lon="12.2262569"><ele>574.0</ele><time>2026-04-05T08:33:04.589Z</time></trkpt><trkpt lat="43.7755496" lon="12.2260831"><ele>577.0</ele><time>2026-04-05T08:33:05.59Z</time></trkpt><trkpt lat="43.7755965" lon="12.2259166"><ele>577.0</ele><time>2026-04-05T08:33:06.589Z</time></trkpt><trkpt lat="43.7756426" lon="12.2257635"><ele>577.0</ele><time>2026-04-05T08:33:07.59Z</time></trkpt><trkpt lat="43.7756904" lon="12.2256163"><ele>577.0</ele><time>2026-04-05T08:33:08.59Z</time></trkpt><trkpt lat="43.7757308" lon="12.2254563"><ele>577.0</ele><time>2026-04-05T08:33:09.59Z</time></trkpt><trkpt lat="43.7757466" lon="12.225287"><ele>575.8000000000001</ele><time>2026-04-05T08:33:10.59Z</time></trkpt><trkpt lat="43.7757559" lon="12.2251264"><ele>574.6</ele><time>2026-04-05T08:33:11.59Z</time></trkpt><trkpt lat="43.7757705" lon="12.2249751"><ele>573.4000000000001</ele><time>2026-04-05T08:33:12.59Z</time></trkpt><trkpt lat="43.7757921" lon="12.2248352"><ele>572.2</ele><time>2026-04-05T08:33:13.59Z</time></trkpt><trkpt lat="43.7758371" lon="12.2246979"><ele>571.0</ele><time>2026-04-05T08:33:14.59Z</time></trkpt><trkpt lat="43.775911" lon="12.2245621"><ele>571.3333333333334</ele><time>2026-04-05T08:33:15.59Z</time></trkpt><trkpt lat="43.7760082" lon="12.2244074"><ele>571.6666666666666</ele><time>2026-04-05T08:33:16.589Z</time></trkpt><trkpt lat="43.7761093" lon="12.2242276"><ele>572.0</ele><time>2026-04-05T08:33:17.589Z</time></trkpt><trkpt lat="43.7762003" lon="12.2240366"><ele>568.75</ele><time>2026-04-05T08:33:18.59Z</time></trkpt><trkpt lat="43.7762867" lon="12.2238554"><ele>565.5</ele><time>2026-04-05T08:33:19.59Z</time></trkpt><trkpt lat="43.776371" lon="12.223697"><ele>562.25</ele><time>2026-04-05T08:33:20.59Z</time></trkpt><trkpt lat="43.7764592" lon="12.2235592"><ele>559.0</ele><time>2026-04-05T08:33:21.59Z</time></trkpt><trkpt lat="43.7765619" lon="12.2234356"><ele>559.0</ele><time>2026-04-05T08:33:22.589Z</time></trkpt><trkpt lat="43.7766736" lon="12.223322"><ele>559.0</ele><time>2026-04-05T08:33:23.589Z</time></trkpt><trkpt lat="43.7767997" lon="12.2232286"><ele>559.0</ele><time>2026-04-05T08:33:24.59Z</time></trkpt><trkpt lat="43.7769463" lon="12.223162"><ele>559.0</ele><time>2026-04-05T08:33:25.59Z</time></trkpt><trkpt lat="43.7770869" lon="12.2231001"><ele>557.0</ele><time>2026-04-05T08:33:26.59Z</time></trkpt><trkpt lat="43.7772141" lon="12.2229908"><ele>555.0</ele><time>2026-04-05T08:33:27.59Z</time></trkpt><trkpt lat="43.7773282" lon="12.2228395"><ele>553.0</ele><time>2026-04-05T08:33:28.59Z</time></trkpt><trkpt lat="43.77742" lon="12.2226683"><ele>553.0</ele><time>2026-04-05T08:33:29.59Z</time></trkpt><trkpt lat="43.777486" lon="12.2224869"><ele>553.0</ele><time>2026-04-05T08:33:30.59Z</time></trkpt><trkpt lat="43.7775294" lon="12.2222897"><ele>553.0</ele><time>2026-04-05T08:33:31.589Z</time></trkpt><trkpt lat="43.7775617" lon="12.2220772"><ele>554.3333333333334</ele><time>2026-04-05T08:33:32.59Z</time></trkpt><trkpt lat="43.7776068" lon="12.221868"><ele>555.6666666666666</ele><time>2026-04-05T08:33:33.59Z</time></trkpt><trkpt lat="43.7776743" lon="12.2216771"><ele>557.0</ele><time>2026-04-05T08:33:34.589Z</time></trkpt><trkpt lat="43.7777534" lon="12.221508"><ele>554.25</ele><time>2026-04-05T08:33:35.59Z</time></trkpt><trkpt lat="43.7778414" lon="12.2213635"><ele>551.5</ele><time>2026-04-05T08:33:36.59Z</time></trkpt><trkpt lat="43.7779348" lon="12.2212446"><ele>548.75</ele><time>2026-04-05T08:33:37.589Z</time></trkpt><trkpt lat="43.7780316" lon="12.2211383"><ele>546.0</ele><time>2026-04-05T08:33:38.59Z</time></trkpt><trkpt lat="43.7781248" lon="12.2210523"><ele>546.0</ele><time>2026-04-05T08:33:39.59Z</time></trkpt><trkpt lat="43.778202" lon="12.2209721"><ele>546.0</ele><time>2026-04-05T08:33:40.59Z</time></trkpt><trkpt lat="43.7782669" lon="12.2208971"><ele>546.0</ele><time>2026-04-05T08:33:41.589Z</time></trkpt><trkpt lat="43.7783204" lon="12.2208061"><ele>546.0</ele><time>2026-04-05T08:33:42.589Z</time></trkpt><trkpt lat="43.7783635" lon="12.2207006"><ele>546.0</ele><time>2026-04-05T08:33:43.589Z</time></trkpt><trkpt lat="43.778394" lon="12.2205625"><ele>544.0</ele><time>2026-04-05T08:33:44.59Z</time></trkpt><trkpt lat="43.7784017" lon="12.2204"><ele>542.0</ele><time>2026-04-05T08:33:45.59Z</time></trkpt><trkpt lat="43.778415" lon="12.2202583"><ele>540.0</ele><time>2026-04-05T08:33:46.59Z</time></trkpt><trkpt lat="43.778435" lon="12.2201267"><ele>538.0</ele><time>2026-04-05T08:33:47.59Z</time></trkpt><trkpt lat="43.778485" lon="12.2200033"><ele>536.0</ele><time>2026-04-05T08:33:48.59Z</time></trkpt><trkpt lat="43.778555" lon="12.2198917"><ele>534.0</ele><time>2026-04-05T08:33:49.59Z</time></trkpt><trkpt lat="43.7786583" lon="12.2198033"><ele>532.0</ele><time>2026-04-05T08:33:50.59Z</time></trkpt><trkpt lat="43.7787667" lon="12.2197217"><ele>530.0</ele><time>2026-04-05T08:33:51.59Z</time></trkpt><trkpt lat="43.778875" lon="12.2196317"><ele>528.0</ele><time>2026-04-05T08:33:52.589Z</time></trkpt><trkpt lat="43.7789783" lon="12.2195467"><ele>528.0</ele><time>2026-04-05T08:33:53.589Z</time></trkpt><trkpt lat="43.7790733" lon="12.2194533"><ele>528.0</ele><time>2026-04-05T08:33:54.59Z</time></trkpt><trkpt lat="43.7791517" lon="12.2193483"><ele>528.0</ele><time>2026-04-05T08:33:55.59Z</time></trkpt><trkpt lat="43.7792083" lon="12.2192217"><ele>528.0</ele><time>2026-04-05T08:33:56.59Z</time></trkpt><trkpt lat="43.7792317" lon="12.2190783"><ele>528.0</ele><time>2026-04-05T08:33:57.59Z</time></trkpt><trkpt lat="43.7792233" lon="12.218925"><ele>525.25</ele><time>2026-04-05T08:33:58.59Z</time></trkpt><trkpt lat="43.77917" lon="12.21877"><ele>522.5</ele><time>2026-04-05T08:33:59.59Z</time></trkpt><trkpt lat="43.7791117" lon="12.2186117"><ele>519.75</ele><time>2026-04-05T08:34:00.589Z</time></trkpt><trkpt lat="43.7790733" lon="12.2184417"><ele>517.0</ele><time>2026-04-05T08:34:01.59Z</time></trkpt><trkpt lat="43.7790533" lon="12.2182733"><ele>515.4</ele><time>2026-04-05T08:34:02.59Z</time></trkpt><trkpt lat="43.779035" lon="12.218115"><ele>513.8000000000001</ele><time>2026-04-05T08:34:03.59Z</time></trkpt><trkpt lat="43.77903" lon="12.2179583"><ele>512.2</ele><time>2026-04-05T08:34:04.59Z</time></trkpt><trkpt lat="43.7790617" lon="12.2178167"><ele>510.6</ele><time>2026-04-05T08:34:05.59Z</time></trkpt><trkpt lat="43.7791267" lon="12.2176933"><ele>509.0</ele><time>2026-04-05T08:34:06.589Z</time></trkpt><trkpt lat="43.7792317" lon="12.2175767"><ele>510.5</ele><time>2026-04-05T08:34:07.589Z</time></trkpt><trkpt lat="43.7793583" lon="12.2174933"><ele>512.0</ele><time>2026-04-05T08:34:08.59Z</time></trkpt><trkpt lat="43.7794883" lon="12.2174417"><ele>513.5</ele><time>2026-04-05T08:34:09.59Z</time></trkpt><trkpt lat="43.779605" lon="12.2174017"><ele>515.0</ele><time>2026-04-05T08:34:10.59Z</time></trkpt><trkpt lat="43.7797133" lon="12.217325"><ele>513.25</ele><time>2026-04-05T08:34:11.59Z</time></trkpt><trkpt lat="43.7797983" lon="12.2171967"><ele>511.5</ele><time>2026-04-05T08:34:12.59Z</time></trkpt><trkpt lat="43.7798933" lon="12.2170283"><ele>509.75</ele><time>2026-04-05T08:34:13.589Z</time></trkpt><trkpt lat="43.7799883" lon="12.21684"><ele>508.0</ele><time>2026-04-05T08:34:14.59Z</time></trkpt><trkpt lat="43.7800917" lon="12.2166717"><ele>508.0</ele><time>2026-04-05T08:34:15.59Z</time></trkpt><trkpt lat="43.7801683" lon="12.2164917"><ele>508.0</ele><time>2026-04-05T08:34:16.59Z</time></trkpt><trkpt lat="43.78024" lon="12.2163117"><ele>508.0</ele><time>2026-04-05T08:34:17.589Z</time></trkpt><trkpt lat="43.7803017" lon="12.2161317"><ele>508.0</ele><time>2026-04-05T08:34:18.589Z</time></trkpt><trkpt lat="43.7803767" lon="12.2159817"><ele>509.0</ele><time>2026-04-05T08:34:19.59Z</time></trkpt><trkpt lat="43.7804617" lon="12.21585"><ele>510.0</ele><time>2026-04-05T08:34:20.589Z</time></trkpt><trkpt lat="43.7805317" lon="12.2157033"><ele>511.0</ele><time>2026-04-05T08:34:21.59Z</time></trkpt><trkpt lat="43.7805867" lon="12.215515"><ele>512.0</ele><time>2026-04-05T08:34:22.589Z</time></trkpt><trkpt lat="43.7806217" lon="12.21532"><ele>508.75</ele><time>2026-04-05T08:34:23.589Z</time></trkpt><trkpt lat="43.78066" lon="12.21514"><ele>505.5</ele><time>2026-04-05T08:34:24.59Z</time></trkpt><trkpt lat="43.7807117" lon="12.2149583"><ele>502.25</ele><time>2026-04-05T08:34:25.59Z</time></trkpt><trkpt lat="43.7807967" lon="12.21477"><ele>499.0</ele><time>2026-04-05T08:34:26.589Z</time></trkpt><trkpt lat="43.7809033" lon="12.21458"><ele>497.75</ele><time>2026-04-05T08:34:27.589Z</time></trkpt><trkpt lat="43.7810117" lon="12.2144133"><ele>496.5</ele><time>2026-04-05T08:34:28.589Z</time></trkpt><trkpt lat="43.781115" lon="12.2142583"><ele>495.25</ele><time>2026-04-05T08:34:29.589Z</time></trkpt><trkpt lat="43.78121" lon="12.2141383"><ele>494.0</ele><time>2026-04-05T08:34:30.59Z</time></trkpt><trkpt lat="43.7813117" lon="12.2140583"><ele>494.0</ele><time>2026-04-05T08:34:31.59Z</time></trkpt><trkpt lat="43.7814233" lon="12.2140083"><ele>494.0</ele><time>2026-04-05T08:34:32.59Z</time></trkpt><trkpt lat="43.7815367" lon="12.2139733"><ele>494.0</ele><time>2026-04-05T08:34:33.59Z</time></trkpt><trkpt lat="43.781655" lon="12.2139317"><ele>494.0</ele><time>2026-04-05T08:34:34.59Z</time></trkpt><trkpt lat="43.781775" lon="12.213855"><ele>490.2</ele><time>2026-04-05T08:34:35.59Z</time></trkpt><trkpt lat="43.78188" lon="12.2137367"><ele>486.4</ele><time>2026-04-05T08:34:36.59Z</time></trkpt><trkpt lat="43.78195" lon="12.2136167"><ele>482.6</ele><time>2026-04-05T08:34:37.59Z</time></trkpt><trkpt lat="43.782" lon="12.2135083"><ele>478.8</ele><time>2026-04-05T08:34:38.59Z</time></trkpt><trkpt lat="43.7820233" lon="12.2133883"><ele>475.0</ele><time>2026-04-05T08:34:39.589Z</time></trkpt><trkpt lat="43.7820233" lon="12.213275"><ele>475.0</ele><time>2026-04-05T08:34:40.59Z</time></trkpt><trkpt lat="43.7819517" lon="12.21316"><ele>475.0</ele><time>2026-04-05T08:34:41.59Z</time></trkpt><trkpt lat="43.7818383" lon="12.21306"><ele>475.0</ele><time>2026-04-05T08:34:42.59Z</time></trkpt><trkpt lat="43.7817067" lon="12.21299"><ele>475.0</ele><time>2026-04-05T08:34:43.589Z</time></trkpt><trkpt lat="43.7815733" lon="12.21294"><ele>472.5</ele><time>2026-04-05T08:34:44.59Z</time></trkpt><trkpt lat="43.78144" lon="12.21291"><ele>470.0</ele><time>2026-04-05T08:34:45.59Z</time></trkpt><trkpt lat="43.7812917" lon="12.2129067"><ele>467.5</ele><time>2026-04-05T08:34:46.59Z</time></trkpt><trkpt lat="43.7811533" lon="12.2129333"><ele>465.0</ele><time>2026-04-05T08:34:47.59Z</time></trkpt><trkpt lat="43.781025" lon="12.2129683"><ele>464.6</ele><time>2026-04-05T08:34:48.589Z</time></trkpt><trkpt lat="43.78091" lon="12.2129733"><ele>464.2</ele><time>2026-04-05T08:34:49.59Z</time></trkpt><trkpt lat="43.7808067" lon="12.2129333"><ele>463.79999999999995</ele><time>2026-04-05T08:34:50.589Z</time></trkpt><trkpt lat="43.780715" lon="12.2128383"><ele>463.4</ele><time>2026-04-05T08:34:51.59Z</time></trkpt><trkpt lat="43.780655" lon="12.2127183"><ele>463.0</ele><time>2026-04-05T08:34:52.59Z</time></trkpt><trkpt lat="43.780645" lon="12.21255"><ele>463.0</ele><time>2026-04-05T08:34:53.59Z</time></trkpt><trkpt lat="43.7806733" lon="12.2123567"><ele>463.0</ele><time>2026-04-05T08:34:54.59Z</time></trkpt><trkpt lat="43.78071" lon="12.2121717"><ele>463.0</ele><time>2026-04-05T08:34:55.59Z</time></trkpt><trkpt lat="43.7807583" lon="12.212"><ele>463.0</ele><time>2026-04-05T08:34:56.59Z</time></trkpt><trkpt lat="43.7808317" lon="12.21185"><ele>460.25</ele><time>2026-04-05T08:34:57.589Z</time></trkpt><trkpt lat="43.7809217" lon="12.21173"><ele>457.5</ele><time>2026-04-05T08:34:58.59Z</time></trkpt><trkpt lat="43.7810233" lon="12.2116367"><ele>454.75</ele><time>2026-04-05T08:34:59.59Z</time></trkpt><trkpt lat="43.7811367" lon="12.2115583"><ele>452.0</ele><time>2026-04-05T08:35:00.59Z</time></trkpt><trkpt lat="43.781285" lon="12.211495"><ele>446.25</ele><time>2026-04-05T08:35:01.59Z</time></trkpt><trkpt lat="43.7814317" lon="12.2114633"><ele>440.5</ele><time>2026-04-05T08:35:02.59Z</time></trkpt><trkpt lat="43.7815667" lon="12.2114633"><ele>434.75</ele><time>2026-04-05T08:35:03.59Z</time></trkpt><trkpt lat="43.7816933" lon="12.2114683"><ele>429.0</ele><time>2026-04-05T08:35:04.589Z</time></trkpt><trkpt lat="43.7818" lon="12.2114567"><ele>428.79999999999995</ele><time>2026-04-05T08:35:05.59Z</time></trkpt><trkpt lat="43.78189" lon="12.2114067"><ele>428.59999999999997</ele><time>2026-04-05T08:35:06.589Z</time></trkpt><trkpt lat="43.78198" lon="12.2113267"><ele>428.4</ele><time>2026-04-05T08:35:07.59Z</time></trkpt><trkpt lat="43.7820667" lon="12.211255"><ele>428.2</ele><time>2026-04-05T08:35:08.59Z</time></trkpt><trkpt lat="43.7821633" lon="12.2112117"><ele>428.0</ele><time>2026-04-05T08:35:09.59Z</time></trkpt><trkpt lat="43.782285" lon="12.2111917"><ele>428.0</ele><time>2026-04-05T08:35:10.59Z</time></trkpt><trkpt lat="43.782415" lon="12.211185"><ele>428.0</ele><time>2026-04-05T08:35:11.59Z</time></trkpt><trkpt lat="43.7825633" lon="12.2111533"><ele>428.0</ele><time>2026-04-05T08:35:12.59Z</time></trkpt><trkpt lat="43.782705" lon="12.21111"><ele>428.0</ele><time>2026-04-05T08:35:13.59Z</time></trkpt><trkpt lat="43.7828383" lon="12.2110783"><ele>427.25</ele><time>2026-04-05T08:35:14.59Z</time></trkpt><trkpt lat="43.7829617" lon="12.211055"><ele>426.5</ele><time>2026-04-05T08:35:15.59Z</time></trkpt><trkpt lat="43.7830833" lon="12.2110317"><ele>425.75</ele><time>2026-04-05T08:35:16.59Z</time></trkpt><trkpt lat="43.7831983" lon="12.2110067"><ele>425.0</ele><time>2026-04-05T08:35:17.591Z</time></trkpt><trkpt lat="43.7832917" lon="12.2109867"><ele>425.0</ele><time>2026-04-05T08:35:18.591Z</time></trkpt><trkpt lat="43.783365" lon="12.2109717"><ele>425.0</ele><time>2026-04-05T08:35:19.59Z</time></trkpt><trkpt lat="43.7834583" lon="12.2109517"><ele>425.0</ele><time>2026-04-05T08:35:21.59Z</time></trkpt><trkpt lat="43.783463" lon="12.2108204"><ele>425.0</ele><time>2026-04-05T08:35:32.595Z</time></trkpt><trkpt lat="43.7832913" lon="12.2107228"><ele>425.0</ele><time>2026-04-05T08:35:35.591Z</time></trkpt><trkpt lat="43.7830816" lon="12.2106355"><ele>420.66666666666663</ele><time>2026-04-05T08:35:36.59Z</time></trkpt><trkpt lat="43.7828917" lon="12.2105627"><ele>416.33333333333337</ele><time>2026-04-05T08:35:37.591Z</time></trkpt><trkpt lat="43.7827321" lon="12.2105161"><ele>412.0</ele><time>2026-04-05T08:35:38.591Z</time></trkpt><trkpt lat="43.7825854" lon="12.2104952"><ele>412.0</ele><time>2026-04-05T08:35:39.591Z</time></trkpt><trkpt lat="43.7824471" lon="12.2104773"><ele>412.0</ele><time>2026-04-05T08:35:40.591Z</time></trkpt><trkpt lat="43.7823053" lon="12.2104523"><ele>412.0</ele><time>2026-04-05T08:35:41.59Z</time></trkpt><trkpt lat="43.7821657" lon="12.2104345"><ele>412.0</ele><time>2026-04-05T08:35:42.59Z</time></trkpt><trkpt lat="43.7820326" lon="12.21042"><ele>412.0</ele><time>2026-04-05T08:35:43.59Z</time></trkpt><trkpt lat="43.7819115" lon="12.2103863"><ele>412.0</ele><time>2026-04-05T08:35:44.591Z</time></trkpt><trkpt lat="43.781805" lon="12.2103136"><ele>412.0</ele><time>2026-04-05T08:35:45.591Z</time></trkpt><trkpt lat="43.781725" lon="12.2101824"><ele>412.0</ele><time>2026-04-05T08:35:46.591Z</time></trkpt><trkpt lat="43.781674" lon="12.2100016"><ele>412.0</ele><time>2026-04-05T08:35:47.591Z</time></trkpt><trkpt lat="43.7816548" lon="12.2097997"><ele>412.0</ele><time>2026-04-05T08:35:48.591Z</time></trkpt><trkpt lat="43.7816354" lon="12.2095955"><ele>412.0</ele><time>2026-04-05T08:35:49.591Z</time></trkpt><trkpt lat="43.7816155" lon="12.2094057"><ele>412.0</ele><time>2026-04-05T08:35:50.591Z</time></trkpt><trkpt lat="43.7815947" lon="12.2092471"><ele>412.00000000000006</ele><time>2026-04-05T08:35:51.591Z</time></trkpt><trkpt lat="43.7815827" lon="12.2091122"><ele>412.0</ele><time>2026-04-05T08:35:52.591Z</time></trkpt><trkpt lat="43.7815912" lon="12.2089977"><ele>412.0</ele><time>2026-04-05T08:35:53.591Z</time></trkpt><trkpt lat="43.7816083" lon="12.2089059"><ele>412.0</ele><time>2026-04-05T08:35:54.59Z</time></trkpt><trkpt lat="43.7816235" lon="12.2088212"><ele>412.00000000000006</ele><time>2026-04-05T08:35:55.591Z</time></trkpt><trkpt lat="43.7817145" lon="12.2087624"><ele>412.0</ele><time>2026-04-05T08:35:57.177Z</time></trkpt><trkpt lat="43.7816756" lon="12.2086878"><ele>412.1666666666667</ele><time>2026-04-05T08:35:58.518Z</time></trkpt><trkpt lat="43.7816369" lon="12.2086176"><ele>412.33333333333337</ele><time>2026-04-05T08:36:08.649Z</time></trkpt><trkpt lat="43.7815867" lon="12.20856"><ele>412.5</ele><time>2026-04-05T08:41:04.59Z</time></trkpt><trkpt lat="43.78154" lon="12.2084533"><ele>412.66666666666663</ele><time>2026-04-05T08:41:06.59Z</time></trkpt><trkpt lat="43.7814767" lon="12.208365"><ele>412.8333333333333</ele><time>2026-04-05T08:41:08.589Z</time></trkpt><trkpt lat="43.7814317" lon="12.2083033"><ele>413.0</ele><time>2026-04-05T08:41:09.589Z</time></trkpt><trkpt lat="43.7813667" lon="12.2082133"><ele>411.0</ele><time>2026-04-05T08:41:10.59Z</time></trkpt><trkpt lat="43.7812983" lon="12.2080883"><ele>409.0</ele><time>2026-04-05T08:41:11.59Z</time></trkpt><trkpt lat="43.781215" lon="12.2079467"><ele>407.0</ele><time>2026-04-05T08:41:12.59Z</time></trkpt><trkpt lat="43.7811283" lon="12.2078017"><ele>405.0</ele><time>2026-04-05T08:41:13.589Z</time></trkpt><trkpt lat="43.7810383" lon="12.207645"><ele>409.0</ele><time>2026-04-05T08:41:14.59Z</time></trkpt><trkpt lat="43.7809267" lon="12.20748"><ele>413.0</ele><time>2026-04-05T08:41:15.589Z</time></trkpt><trkpt lat="43.7808167" lon="12.207305"><ele>417.0</ele><time>2026-04-05T08:41:16.59Z</time></trkpt><trkpt lat="43.7807183" lon="12.207125"><ele>417.0</ele><time>2026-04-05T08:41:17.589Z</time></trkpt><trkpt lat="43.7806117" lon="12.2069533"><ele>417.0</ele><time>2026-04-05T08:41:18.589Z</time></trkpt><trkpt lat="43.780515" lon="12.2067783"><ele>417.0</ele><time>2026-04-05T08:41:19.59Z</time></trkpt><trkpt lat="43.7804367" lon="12.2066033"><ele>415.5</ele><time>2026-04-05T08:41:20.59Z</time></trkpt><trkpt lat="43.78037" lon="12.20644"><ele>414.0</ele><time>2026-04-05T08:41:21.59Z</time></trkpt><trkpt lat="43.7802967" lon="12.2062633"><ele>412.5</ele><time>2026-04-05T08:41:22.589Z</time></trkpt><trkpt lat="43.7802283" lon="12.2060683"><ele>411.0</ele><time>2026-04-05T08:41:23.589Z</time></trkpt><trkpt lat="43.7801767" lon="12.2058567"><ele>412.75</ele><time>2026-04-05T08:41:24.59Z</time></trkpt><trkpt lat="43.78013" lon="12.2056733"><ele>414.5</ele><time>2026-04-05T08:41:25.59Z</time></trkpt><trkpt lat="43.7800833" lon="12.2055017"><ele>416.25</ele><time>2026-04-05T08:41:26.59Z</time></trkpt><trkpt lat="43.7800067" lon="12.20535"><ele>418.0</ele><time>2026-04-05T08:41:27.59Z</time></trkpt><trkpt lat="43.7798983" lon="12.2052317"><ele>418.0</ele><time>2026-04-05T08:41:28.589Z</time></trkpt><trkpt lat="43.7797633" lon="12.2051267"><ele>418.0</ele><time>2026-04-05T08:41:29.59Z</time></trkpt><trkpt lat="43.7796083" lon="12.2050417"><ele>418.0</ele><time>2026-04-05T08:41:30.589Z</time></trkpt><trkpt lat="43.779475" lon="12.20496"><ele>422.33333333333337</ele><time>2026-04-05T08:41:31.589Z</time></trkpt><trkpt lat="43.7793383" lon="12.2049167"><ele>426.66666666666663</ele><time>2026-04-05T08:41:32.59Z</time></trkpt><trkpt lat="43.7791767" lon="12.2049333"><ele>431.0</ele><time>2026-04-05T08:41:33.59Z</time></trkpt><trkpt lat="43.7790083" lon="12.2049833"><ele>431.0</ele><time>2026-04-05T08:41:34.589Z</time></trkpt><trkpt lat="43.7788433" lon="12.2050383"><ele>431.0</ele><time>2026-04-05T08:41:35.589Z</time></trkpt><trkpt lat="43.7786883" lon="12.20506"><ele>431.0</ele><time>2026-04-05T08:41:36.59Z</time></trkpt><trkpt lat="43.778545" lon="12.20505"><ele>432.3333333333333</ele><time>2026-04-05T08:41:37.589Z</time></trkpt><trkpt lat="43.7784" lon="12.2050067"><ele>433.66666666666663</ele><time>2026-04-05T08:41:38.589Z</time></trkpt><trkpt lat="43.7782567" lon="12.20493"><ele>435.0</ele><time>2026-04-05T08:41:39.59Z</time></trkpt><trkpt lat="43.7781133" lon="12.2048433"><ele>430.0</ele><time>2026-04-05T08:41:40.589Z</time></trkpt><trkpt lat="43.7779733" lon="12.204745"><ele>425.0</ele><time>2026-04-05T08:41:41.59Z</time></trkpt><trkpt lat="43.7778433" lon="12.2046417"><ele>420.0</ele><time>2026-04-05T08:41:42.59Z</time></trkpt><trkpt lat="43.7777167" lon="12.20455"><ele>422.5</ele><time>2026-04-05T08:41:43.59Z</time></trkpt><trkpt lat="43.7776017" lon="12.2044433"><ele>425.0</ele><time>2026-04-05T08:41:44.589Z</time></trkpt><trkpt lat="43.7774983" lon="12.2043667"><ele>427.5</ele><time>2026-04-05T08:41:45.589Z</time></trkpt><trkpt lat="43.7773983" lon="12.204295"><ele>430.0</ele><time>2026-04-05T08:41:46.59Z</time></trkpt><trkpt lat="43.7773033" lon="12.2042167"><ele>430.0</ele><time>2026-04-05T08:41:47.59Z</time></trkpt><trkpt lat="43.777205" lon="12.2041517"><ele>430.0</ele><time>2026-04-05T08:41:48.589Z</time></trkpt><trkpt lat="43.777095" lon="12.2040683"><ele>430.0</ele><time>2026-04-05T08:41:49.589Z</time></trkpt><trkpt lat="43.7769733" lon="12.2039667"><ele>430.0</ele><time>2026-04-05T08:41:50.59Z</time></trkpt><trkpt lat="43.776835" lon="12.2038583"><ele>429.0</ele><time>2026-04-05T08:41:51.59Z</time></trkpt><trkpt lat="43.7766817" lon="12.2037483"><ele>428.0</ele><time>2026-04-05T08:41:52.589Z</time></trkpt><trkpt lat="43.7765133" lon="12.2036067"><ele>427.0</ele><time>2026-04-05T08:41:53.59Z</time></trkpt><trkpt lat="43.7763386" lon="12.2034729"><ele>427.0</ele><time>2026-04-05T08:41:54.59Z</time></trkpt><trkpt lat="43.7761662" lon="12.2033396"><ele>427.0</ele><time>2026-04-05T08:41:55.589Z</time></trkpt><trkpt lat="43.7759973" lon="12.2032138"><ele>427.0</ele><time>2026-04-05T08:41:56.589Z</time></trkpt><trkpt lat="43.7758237" lon="12.2030843"><ele>425.6666666666667</ele><time>2026-04-05T08:41:57.59Z</time></trkpt><trkpt lat="43.7756598" lon="12.2029628"><ele>424.33333333333337</ele><time>2026-04-05T08:41:58.59Z</time></trkpt><trkpt lat="43.7755039" lon="12.2028387"><ele>423.0</ele><time>2026-04-05T08:41:59.589Z</time></trkpt><trkpt lat="43.7753545" lon="12.2027014"><ele>423.0</ele><time>2026-04-05T08:42:00.59Z</time></trkpt><trkpt lat="43.775212" lon="12.2025425"><ele>423.0</ele><time>2026-04-05T08:42:01.59Z</time></trkpt><trkpt lat="43.7750926" lon="12.2023829"><ele>423.0</ele><time>2026-04-05T08:42:02.59Z</time></trkpt><trkpt lat="43.7749642" lon="12.2022304"><ele>424.66666666666663</ele><time>2026-04-05T08:42:03.59Z</time></trkpt><trkpt lat="43.7748093" lon="12.202119"><ele>426.3333333333333</ele><time>2026-04-05T08:42:04.59Z</time></trkpt><trkpt lat="43.7746199" lon="12.2020476"><ele>428.0</ele><time>2026-04-05T08:42:05.59Z</time></trkpt><trkpt lat="43.7744228" lon="12.2020064"><ele>428.66666666666663</ele><time>2026-04-05T08:42:06.59Z</time></trkpt><trkpt lat="43.7742374" lon="12.2019644"><ele>429.33333333333337</ele><time>2026-04-05T08:42:07.59Z</time></trkpt><trkpt lat="43.7740615" lon="12.2018783"><ele>430.0</ele><time>2026-04-05T08:42:08.59Z</time></trkpt><trkpt lat="43.7738834" lon="12.2017542"><ele>430.0</ele><time>2026-04-05T08:42:09.59Z</time></trkpt><trkpt lat="43.7736989" lon="12.2016175"><ele>430.0</ele><time>2026-04-05T08:42:10.59Z</time></trkpt><trkpt lat="43.773512" lon="12.2015019"><ele>430.0</ele><time>2026-04-05T08:42:11.59Z</time></trkpt><trkpt lat="43.7733221" lon="12.2014237"><ele>427.33333333333337</ele><time>2026-04-05T08:42:12.589Z</time></trkpt><trkpt lat="43.7731395" lon="12.2013733"><ele>424.66666666666663</ele><time>2026-04-05T08:42:13.59Z</time></trkpt><trkpt lat="43.7729564" lon="12.2013304"><ele>422.0</ele><time>2026-04-05T08:42:14.589Z</time></trkpt><trkpt lat="43.7727723" lon="12.2012995"><ele>423.3333333333333</ele><time>2026-04-05T08:42:15.59Z</time></trkpt><trkpt lat="43.7725867" lon="12.2013051"><ele>424.66666666666663</ele><time>2026-04-05T08:42:16.59Z</time></trkpt><trkpt lat="43.7723975" lon="12.2013451"><ele>426.0</ele><time>2026-04-05T08:42:17.59Z</time></trkpt><trkpt lat="43.7722175" lon="12.2013843"><ele>426.0</ele><time>2026-04-05T08:42:18.589Z</time></trkpt><trkpt lat="43.7720429" lon="12.2013927"><ele>426.0</ele><time>2026-04-05T08:42:19.59Z</time></trkpt><trkpt lat="43.7718577" lon="12.2013541"><ele>426.0</ele><time>2026-04-05T08:42:20.589Z</time></trkpt><trkpt lat="43.7716726" lon="12.2012683"><ele>426.0</ele><time>2026-04-05T08:42:21.59Z</time></trkpt><trkpt lat="43.7714973" lon="12.2011508"><ele>426.0</ele><time>2026-04-05T08:42:22.589Z</time></trkpt><trkpt lat="43.7713234" lon="12.2010128"><ele>426.0</ele><time>2026-04-05T08:42:23.59Z</time></trkpt><trkpt lat="43.7711644" lon="12.2008738"><ele>424.33333333333337</ele><time>2026-04-05T08:42:24.589Z</time></trkpt><trkpt lat="43.7710128" lon="12.2007529"><ele>422.6666666666667</ele><time>2026-04-05T08:42:25.589Z</time></trkpt><trkpt lat="43.7708575" lon="12.2006539"><ele>421.0</ele><time>2026-04-05T08:42:26.59Z</time></trkpt><trkpt lat="43.7706901" lon="12.2006082"><ele>421.0</ele><time>2026-04-05T08:42:27.589Z</time></trkpt><trkpt lat="43.7705051" lon="12.2006"><ele>421.0</ele><time>2026-04-05T08:42:28.59Z</time></trkpt><trkpt lat="43.7703068" lon="12.2006089"><ele>421.0</ele><time>2026-04-05T08:42:29.59Z</time></trkpt><trkpt lat="43.7701088" lon="12.2006356"><ele>426.33333333333337</ele><time>2026-04-05T08:42:30.59Z</time></trkpt><trkpt lat="43.7699264" lon="12.2006663"><ele>431.66666666666663</ele><time>2026-04-05T08:42:31.589Z</time></trkpt><trkpt lat="43.7697534" lon="12.2006988"><ele>437.0</ele><time>2026-04-05T08:42:32.589Z</time></trkpt><trkpt lat="43.7695935" lon="12.2007179"><ele>437.0</ele><time>2026-04-05T08:42:33.59Z</time></trkpt><trkpt lat="43.7694397" lon="12.200698"><ele>437.0</ele><time>2026-04-05T08:42:34.59Z</time></trkpt><trkpt lat="43.7692817" lon="12.2006279"><ele>437.0</ele><time>2026-04-05T08:42:35.59Z</time></trkpt><trkpt lat="43.769113" lon="12.2005141"><ele>433.66666666666663</ele><time>2026-04-05T08:42:36.589Z</time></trkpt><trkpt lat="43.7689488" lon="12.2003844"><ele>430.33333333333337</ele><time>2026-04-05T08:42:37.59Z</time></trkpt><trkpt lat="43.7687819" lon="12.2002686"><ele>427.0</ele><time>2026-04-05T08:42:38.589Z</time></trkpt><trkpt lat="43.7686039" lon="12.2001686"><ele>429.33333333333337</ele><time>2026-04-05T08:42:39.59Z</time></trkpt><trkpt lat="43.7684164" lon="12.2001125"><ele>431.66666666666663</ele><time>2026-04-05T08:42:40.59Z</time></trkpt><trkpt lat="43.768243" lon="12.2000848"><ele>434.0</ele><time>2026-04-05T08:42:41.589Z</time></trkpt><trkpt lat="43.7680719" lon="12.2000797"><ele>434.0</ele><time>2026-04-05T08:42:42.589Z</time></trkpt><trkpt lat="43.7679045" lon="12.200114"><ele>434.0</ele><time>2026-04-05T08:42:43.59Z</time></trkpt><trkpt lat="43.7677414" lon="12.2001845"><ele>434.0</ele><time>2026-04-05T08:42:44.59Z</time></trkpt><trkpt lat="43.7675847" lon="12.2002746"><ele>433.3333333333333</ele><time>2026-04-05T08:42:45.589Z</time></trkpt><trkpt lat="43.7674327" lon="12.2003561"><ele>432.66666666666663</ele><time>2026-04-05T08:42:46.59Z</time></trkpt><trkpt lat="43.7672873" lon="12.200419"><ele>432.0</ele><time>2026-04-05T08:42:47.589Z</time></trkpt><trkpt lat="43.7671466" lon="12.2004527"><ele>432.0</ele><time>2026-04-05T08:42:48.59Z</time></trkpt><trkpt lat="43.7670136" lon="12.2004654"><ele>432.0</ele><time>2026-04-05T08:42:49.59Z</time></trkpt><trkpt lat="43.7668804" lon="12.2004602"><ele>432.0</ele><time>2026-04-05T08:42:50.59Z</time></trkpt><trkpt lat="43.7667482" lon="12.2004416"><ele>432.0</ele><time>2026-04-05T08:42:51.59Z</time></trkpt><trkpt lat="43.7666189" lon="12.2004236"><ele>431.75</ele><time>2026-04-05T08:42:52.589Z</time></trkpt><trkpt lat="43.7664971" lon="12.2003987"><ele>431.5</ele><time>2026-04-05T08:42:53.59Z</time></trkpt><trkpt lat="43.7663805" lon="12.2003555"><ele>431.25</ele><time>2026-04-05T08:42:54.589Z</time></trkpt><trkpt lat="43.7662687" lon="12.2002922"><ele>431.0</ele><time>2026-04-05T08:42:55.59Z</time></trkpt><trkpt lat="43.7661608" lon="12.2001873"><ele>431.0</ele><time>2026-04-05T08:42:56.59Z</time></trkpt><trkpt lat="43.7660645" lon="12.2000272"><ele>431.0</ele><time>2026-04-05T08:42:57.589Z</time></trkpt><trkpt lat="43.7659659" lon="12.1998248"><ele>431.0</ele><time>2026-04-05T08:42:58.59Z</time></trkpt><trkpt lat="43.7658693" lon="12.1996195"><ele>431.3333333333333</ele><time>2026-04-05T08:42:59.59Z</time></trkpt><trkpt lat="43.7657785" lon="12.1994272"><ele>431.66666666666663</ele><time>2026-04-05T08:43:00.589Z</time></trkpt><trkpt lat="43.7656906" lon="12.1992469"><ele>432.0</ele><time>2026-04-05T08:43:01.59Z</time></trkpt><trkpt lat="43.7656064" lon="12.1990838"><ele>431.0</ele><time>2026-04-05T08:43:02.589Z</time></trkpt><trkpt lat="43.7655015" lon="12.1989547"><ele>430.0</ele><time>2026-04-05T08:43:03.59Z</time></trkpt><trkpt lat="43.7653784" lon="12.1988503"><ele>429.0</ele><time>2026-04-05T08:43:04.59Z</time></trkpt><trkpt lat="43.7652237" lon="12.1987673"><ele>431.66666666666663</ele><time>2026-04-05T08:43:05.59Z</time></trkpt><trkpt lat="43.7650636" lon="12.1987056"><ele>434.3333333333333</ele><time>2026-04-05T08:43:06.59Z</time></trkpt><trkpt lat="43.7649172" lon="12.1986479"><ele>437.0</ele><time>2026-04-05T08:43:07.59Z</time></trkpt><trkpt lat="43.7647877" lon="12.1985905"><ele>437.0</ele><time>2026-04-05T08:43:08.589Z</time></trkpt><trkpt lat="43.764669" lon="12.1985355"><ele>437.0</ele><time>2026-04-05T08:43:09.59Z</time></trkpt><trkpt lat="43.764555" lon="12.1984871"><ele>437.0</ele><time>2026-04-05T08:43:10.59Z</time></trkpt><trkpt lat="43.7644496" lon="12.1984444"><ele>437.0</ele><time>2026-04-05T08:43:11.59Z</time></trkpt><trkpt lat="43.7643431" lon="12.1984099"><ele>438.75</ele><time>2026-04-05T08:43:12.59Z</time></trkpt><trkpt lat="43.7642292" lon="12.1983891"><ele>440.5</ele><time>2026-04-05T08:43:13.589Z</time></trkpt><trkpt lat="43.7641009" lon="12.1983872"><ele>442.25</ele><time>2026-04-05T08:43:14.59Z</time></trkpt><trkpt lat="43.763961" lon="12.1984132"><ele>444.0</ele><time>2026-04-05T08:43:15.59Z</time></trkpt><trkpt lat="43.7638204" lon="12.1984904"><ele>444.0</ele><time>2026-04-05T08:43:16.589Z</time></trkpt><trkpt lat="43.7636797" lon="12.1986092"><ele>444.0</ele><time>2026-04-05T08:43:17.59Z</time></trkpt><trkpt lat="43.7635411" lon="12.1987776"><ele>444.0</ele><time>2026-04-05T08:43:18.589Z</time></trkpt><trkpt lat="43.7634037" lon="12.1989548"><ele>445.33333333333337</ele><time>2026-04-05T08:43:19.59Z</time></trkpt><trkpt lat="43.7632754" lon="12.1991173"><ele>446.6666666666667</ele><time>2026-04-05T08:43:20.589Z</time></trkpt><trkpt lat="43.7631482" lon="12.1992562"><ele>448.0</ele><time>2026-04-05T08:43:21.589Z</time></trkpt><trkpt lat="43.7630142" lon="12.1993683"><ele>448.0</ele><time>2026-04-05T08:43:22.59Z</time></trkpt><trkpt lat="43.7628735" lon="12.1994559"><ele>448.0</ele><time>2026-04-05T08:43:23.59Z</time></trkpt><trkpt lat="43.7627171" lon="12.1995152"><ele>448.0</ele><time>2026-04-05T08:43:24.589Z</time></trkpt><trkpt lat="43.7625473" lon="12.1995512"><ele>447.33333333333337</ele><time>2026-04-05T08:43:25.59Z</time></trkpt><trkpt lat="43.7623654" lon="12.1995601"><ele>446.66666666666663</ele><time>2026-04-05T08:43:26.59Z</time></trkpt><trkpt lat="43.7621818" lon="12.1995391"><ele>446.0</ele><time>2026-04-05T08:43:27.59Z</time></trkpt><trkpt lat="43.7620138" lon="12.1995046"><ele>445.0</ele><time>2026-04-05T08:43:28.59Z</time></trkpt><trkpt lat="43.7618505" lon="12.1994822"><ele>444.0</ele><time>2026-04-05T08:43:29.59Z</time></trkpt><trkpt lat="43.7616925" lon="12.1994847"><ele>443.0</ele><time>2026-04-05T08:43:30.589Z</time></trkpt><trkpt lat="43.7615329" lon="12.1995283"><ele>443.0</ele><time>2026-04-05T08:43:31.59Z</time></trkpt><trkpt lat="43.7613736" lon="12.1996193"><ele>443.0</ele><time>2026-04-05T08:43:32.59Z</time></trkpt><trkpt lat="43.7612293" lon="12.1997557"><ele>443.0</ele><time>2026-04-05T08:43:33.59Z</time></trkpt><trkpt lat="43.7611067" lon="12.1999119"><ele>448.0</ele><time>2026-04-05T08:43:34.59Z</time></trkpt><trkpt lat="43.7609876" lon="12.2000522"><ele>453.0</ele><time>2026-04-05T08:43:35.589Z</time></trkpt><trkpt lat="43.7608446" lon="12.2001357"><ele>458.0</ele><time>2026-04-05T08:43:36.59Z</time></trkpt><trkpt lat="43.7606784" lon="12.2001554"><ele>458.0</ele><time>2026-04-05T08:43:37.59Z</time></trkpt><trkpt lat="43.7605023" lon="12.200129"><ele>458.0</ele><time>2026-04-05T08:43:38.59Z</time></trkpt><trkpt lat="43.7603166" lon="12.2000926"><ele>458.0</ele><time>2026-04-05T08:43:39.59Z</time></trkpt><trkpt lat="43.7601231" lon="12.2000573"><ele>460.0</ele><time>2026-04-05T08:43:40.59Z</time></trkpt><trkpt lat="43.7599344" lon="12.2000252"><ele>462.0</ele><time>2026-04-05T08:43:41.59Z</time></trkpt><trkpt lat="43.759754" lon="12.1999895"><ele>464.0</ele><time>2026-04-05T08:43:42.59Z</time></trkpt><trkpt lat="43.7595826" lon="12.1999256"><ele>464.0</ele><time>2026-04-05T08:43:43.59Z</time></trkpt><trkpt lat="43.7594154" lon="12.1998378"><ele>464.0</ele><time>2026-04-05T08:43:44.59Z</time></trkpt><trkpt lat="43.7592588" lon="12.1997324"><ele>464.0</ele><time>2026-04-05T08:43:45.589Z</time></trkpt><trkpt lat="43.7591196" lon="12.1996173"><ele>463.66666666666663</ele><time>2026-04-05T08:43:46.59Z</time></trkpt><trkpt lat="43.7590031" lon="12.19947"><ele>463.33333333333337</ele><time>2026-04-05T08:43:47.589Z</time></trkpt><trkpt lat="43.7588882" lon="12.1992887"><ele>463.0</ele><time>2026-04-05T08:43:48.59Z</time></trkpt><trkpt lat="43.7587714" lon="12.1990794"><ele>458.6666666666667</ele><time>2026-04-05T08:43:49.59Z</time></trkpt><trkpt lat="43.7586509" lon="12.1988497"><ele>454.33333333333337</ele><time>2026-04-05T08:43:50.589Z</time></trkpt><trkpt lat="43.7585203" lon="12.1986111"><ele>450.0</ele><time>2026-04-05T08:43:51.59Z</time></trkpt><trkpt lat="43.7583942" lon="12.1983716"><ele>457.33333333333337</ele><time>2026-04-05T08:43:52.59Z</time></trkpt><trkpt lat="43.7582754" lon="12.1981463"><ele>464.6666666666667</ele><time>2026-04-05T08:43:53.589Z</time></trkpt><trkpt lat="43.7581694" lon="12.1979371"><ele>472.0</ele><time>2026-04-05T08:43:54.589Z</time></trkpt><trkpt lat="43.7580653" lon="12.1977434"><ele>472.0</ele><time>2026-04-05T08:43:55.59Z</time></trkpt><trkpt lat="43.7579646" lon="12.1975662"><ele>472.0</ele><time>2026-04-05T08:43:56.589Z</time></trkpt><trkpt lat="43.7578561" lon="12.1974102"><ele>472.0</ele><time>2026-04-05T08:43:57.59Z</time></trkpt><trkpt lat="43.7577224" lon="12.1972865"><ele>475.0</ele><time>2026-04-05T08:43:58.59Z</time></trkpt><trkpt lat="43.7575823" lon="12.197201"><ele>478.0</ele><time>2026-04-05T08:43:59.59Z</time></trkpt><trkpt lat="43.7574446" lon="12.197132"><ele>481.0</ele><time>2026-04-05T08:44:00.589Z</time></trkpt><trkpt lat="43.7573138" lon="12.1970302"><ele>481.0</ele><time>2026-04-05T08:44:01.59Z</time></trkpt><trkpt lat="43.7571987" lon="12.196891"><ele>481.0</ele><time>2026-04-05T08:44:02.59Z</time></trkpt><trkpt lat="43.7571032" lon="12.1967019"><ele>481.0</ele><time>2026-04-05T08:44:03.589Z</time></trkpt><trkpt lat="43.7570344" lon="12.1964629"><ele>478.33333333333337</ele><time>2026-04-05T08:44:04.589Z</time></trkpt><trkpt lat="43.7569767" lon="12.1962146"><ele>475.66666666666663</ele><time>2026-04-05T08:44:05.59Z</time></trkpt><trkpt lat="43.7569131" lon="12.1959917"><ele>473.0</ele><time>2026-04-05T08:44:06.59Z</time></trkpt><trkpt lat="43.7568409" lon="12.1958119"><ele>470.75</ele><time>2026-04-05T08:44:07.59Z</time></trkpt><trkpt lat="43.7567553" lon="12.1956742"><ele>468.5</ele><time>2026-04-05T08:44:08.59Z</time></trkpt><trkpt lat="43.7566463" lon="12.1955708"><ele>466.25</ele><time>2026-04-05T08:44:09.59Z</time></trkpt><trkpt lat="43.7565068" lon="12.1955244"><ele>464.0</ele><time>2026-04-05T08:44:10.59Z</time></trkpt><trkpt lat="43.7563434" lon="12.1955515"><ele>464.0</ele><time>2026-04-05T08:44:11.589Z</time></trkpt><trkpt lat="43.7561783" lon="12.1956468"><ele>464.0</ele><time>2026-04-05T08:44:12.589Z</time></trkpt><trkpt lat="43.7560179" lon="12.1957963"><ele>464.0</ele><time>2026-04-05T08:44:13.59Z</time></trkpt><trkpt lat="43.7558585" lon="12.1960176"><ele>472.5</ele><time>2026-04-05T08:44:14.589Z</time></trkpt><trkpt lat="43.7556921" lon="12.1962713"><ele>481.0</ele><time>2026-04-05T08:44:15.589Z</time></trkpt><trkpt lat="43.7555274" lon="12.1965185"><ele>483.33333333333337</ele><time>2026-04-05T08:44:16.589Z</time></trkpt><trkpt lat="43.7553737" lon="12.1967392"><ele>485.66666666666663</ele><time>2026-04-05T08:44:17.59Z</time></trkpt><trkpt lat="43.7552289" lon="12.1969353"><ele>488.0</ele><time>2026-04-05T08:44:18.59Z</time></trkpt><trkpt lat="43.755087" lon="12.1971006"><ele>488.0</ele><time>2026-04-05T08:44:19.59Z</time></trkpt><trkpt lat="43.7549457" lon="12.1972259"><ele>488.0</ele><time>2026-04-05T08:44:20.589Z</time></trkpt><trkpt lat="43.7547979" lon="12.1973134"><ele>488.0</ele><time>2026-04-05T08:44:21.59Z</time></trkpt><trkpt lat="43.7546466" lon="12.1973455"><ele>488.0</ele><time>2026-04-05T08:44:22.589Z</time></trkpt><trkpt lat="43.7544888" lon="12.1973116"><ele>488.0</ele><time>2026-04-05T08:44:23.589Z</time></trkpt><trkpt lat="43.7543175" lon="12.1972403"><ele>488.0</ele><time>2026-04-05T08:44:24.59Z</time></trkpt><trkpt lat="43.7541366" lon="12.1971454"><ele>485.0</ele><time>2026-04-05T08:44:25.59Z</time></trkpt><trkpt lat="43.7539545" lon="12.1970653"><ele>482.0</ele><time>2026-04-05T08:44:26.59Z</time></trkpt><trkpt lat="43.7537686" lon="12.1970315"><ele>479.0</ele><time>2026-04-05T08:44:27.59Z</time></trkpt><trkpt lat="43.7535789" lon="12.1970535"><ele>477.66666666666663</ele><time>2026-04-05T08:44:28.59Z</time></trkpt><trkpt lat="43.7533892" lon="12.1971368"><ele>476.33333333333337</ele><time>2026-04-05T08:44:29.59Z</time></trkpt><trkpt lat="43.7532149" lon="12.1972809"><ele>475.0</ele><time>2026-04-05T08:44:30.589Z</time></trkpt><trkpt lat="43.7530668" lon="12.1974545"><ele>480.33333333333337</ele><time>2026-04-05T08:44:31.589Z</time></trkpt><trkpt lat="43.7529377" lon="12.1976292"><ele>485.66666666666663</ele><time>2026-04-05T08:44:32.59Z</time></trkpt><trkpt lat="43.75281" lon="12.1977766"><ele>491.0</ele><time>2026-04-05T08:44:33.589Z</time></trkpt><trkpt lat="43.7526672" lon="12.1978803"><ele>491.0</ele><time>2026-04-05T08:44:34.589Z</time></trkpt><trkpt lat="43.7525035" lon="12.1979365"><ele>491.0</ele><time>2026-04-05T08:44:35.59Z</time></trkpt><trkpt lat="43.7523164" lon="12.1979433"><ele>491.0</ele><time>2026-04-05T08:44:36.589Z</time></trkpt><trkpt lat="43.752122" lon="12.1979073"><ele>491.0</ele><time>2026-04-05T08:44:37.59Z</time></trkpt><trkpt lat="43.7519228" lon="12.1978622"><ele>491.0</ele><time>2026-04-05T08:44:38.59Z</time></trkpt><trkpt lat="43.7517293" lon="12.1978473"><ele>491.0</ele><time>2026-04-05T08:44:39.59Z</time></trkpt><trkpt lat="43.7515366" lon="12.1978879"><ele>489.66666666666663</ele><time>2026-04-05T08:44:40.59Z</time></trkpt><trkpt lat="43.7513589" lon="12.1979942"><ele>488.33333333333337</ele><time>2026-04-05T08:44:41.59Z</time></trkpt><trkpt lat="43.7511906" lon="12.1981505"><ele>487.0</ele><time>2026-04-05T08:44:42.589Z</time></trkpt><trkpt lat="43.7510423" lon="12.1983399"><ele>487.0</ele><time>2026-04-05T08:44:43.589Z</time></trkpt><trkpt lat="43.7509168" lon="12.1985268"><ele>487.0</ele><time>2026-04-05T08:44:44.589Z</time></trkpt><trkpt lat="43.7508087" lon="12.1986998"><ele>487.0</ele><time>2026-04-05T08:44:45.59Z</time></trkpt><trkpt lat="43.7506995" lon="12.1988404"><ele>487.0</ele><time>2026-04-05T08:44:46.589Z</time></trkpt><trkpt lat="43.7505622" lon="12.1989333"><ele>487.0</ele><time>2026-04-05T08:44:47.59Z</time></trkpt><trkpt lat="43.7503999" lon="12.1990054"><ele>487.0</ele><time>2026-04-05T08:44:48.59Z</time></trkpt><trkpt lat="43.7502221" lon="12.1990766"><ele>490.6666666666667</ele><time>2026-04-05T08:44:49.589Z</time></trkpt><trkpt lat="43.7500331" lon="12.1991407"><ele>494.33333333333337</ele><time>2026-04-05T08:44:50.59Z</time></trkpt><trkpt lat="43.7498333" lon="12.1991873"><ele>498.0</ele><time>2026-04-05T08:44:51.59Z</time></trkpt><trkpt lat="43.749629" lon="12.1992106"><ele>498.0</ele><time>2026-04-05T08:44:52.589Z</time></trkpt><trkpt lat="43.7494365" lon="12.1992309"><ele>498.0</ele><time>2026-04-05T08:44:53.59Z</time></trkpt><trkpt lat="43.7492526" lon="12.1992438"><ele>498.0</ele><time>2026-04-05T08:44:54.589Z</time></trkpt><trkpt lat="43.7490698" lon="12.199239"><ele>499.33333333333337</ele><time>2026-04-05T08:44:55.59Z</time></trkpt><trkpt lat="43.7488853" lon="12.1992035"><ele>500.6666666666667</ele><time>2026-04-05T08:44:56.59Z</time></trkpt><trkpt lat="43.7487042" lon="12.1991407"><ele>502.0</ele><time>2026-04-05T08:44:57.589Z</time></trkpt><trkpt lat="43.7485323" lon="12.1990393"><ele>497.33333333333337</ele><time>2026-04-05T08:44:58.59Z</time></trkpt><trkpt lat="43.7483657" lon="12.1988904"><ele>492.66666666666663</ele><time>2026-04-05T08:44:59.59Z</time></trkpt><trkpt lat="43.7482234" lon="12.1986963"><ele>488.0</ele><time>2026-04-05T08:45:00.59Z</time></trkpt><trkpt lat="43.7481052" lon="12.1984959"><ele>488.0</ele><time>2026-04-05T08:45:01.59Z</time></trkpt><trkpt lat="43.7479989" lon="12.198311"><ele>488.0</ele><time>2026-04-05T08:45:02.59Z</time></trkpt><trkpt lat="43.7478823" lon="12.198158"><ele>488.0</ele><time>2026-04-05T08:45:03.59Z</time></trkpt><trkpt lat="43.7477376" lon="12.1980316"><ele>484.66666666666663</ele><time>2026-04-05T08:45:04.59Z</time></trkpt><trkpt lat="43.7475708" lon="12.1979386"><ele>481.33333333333337</ele><time>2026-04-05T08:45:05.59Z</time></trkpt><trkpt lat="43.7474008" lon="12.1978747"><ele>478.0</ele><time>2026-04-05T08:45:06.59Z</time></trkpt><trkpt lat="43.7472445" lon="12.1978284"><ele>478.0</ele><time>2026-04-05T08:45:07.59Z</time></trkpt><trkpt lat="43.7470944" lon="12.1978016"><ele>478.0</ele><time>2026-04-05T08:45:08.59Z</time></trkpt><trkpt lat="43.7469397" lon="12.1978092"><ele>478.0</ele><time>2026-04-05T08:45:09.59Z</time></trkpt><trkpt lat="43.7467734" lon="12.1978696"><ele>478.0</ele><time>2026-04-05T08:45:10.59Z</time></trkpt><trkpt lat="43.7465958" lon="12.1979808"><ele>478.0</ele><time>2026-04-05T08:45:11.59Z</time></trkpt><trkpt lat="43.7464082" lon="12.1981126"><ele>478.0</ele><time>2026-04-05T08:45:12.59Z</time></trkpt><trkpt lat="43.7462211" lon="12.19824"><ele>479.6666666666667</ele><time>2026-04-05T08:45:13.59Z</time></trkpt><trkpt lat="43.7460459" lon="12.1983603"><ele>481.33333333333337</ele><time>2026-04-05T08:45:14.589Z</time></trkpt><trkpt lat="43.7458777" lon="12.1984984"><ele>483.0</ele><time>2026-04-05T08:45:15.59Z</time></trkpt><trkpt lat="43.745714" lon="12.1986751"><ele>483.0</ele><time>2026-04-05T08:45:16.59Z</time></trkpt><trkpt lat="43.7455497" lon="12.1988762"><ele>483.0</ele><time>2026-04-05T08:45:17.59Z</time></trkpt><trkpt lat="43.7453877" lon="12.1990879"><ele>483.0</ele><time>2026-04-05T08:45:18.59Z</time></trkpt><trkpt lat="43.7452368" lon="12.1992978"><ele>482.33333333333337</ele><time>2026-04-05T08:45:19.589Z</time></trkpt><trkpt lat="43.7450918" lon="12.1995059"><ele>481.6666666666667</ele><time>2026-04-05T08:45:20.59Z</time></trkpt><trkpt lat="43.7449482" lon="12.1997253"><ele>481.0</ele><time>2026-04-05T08:45:21.59Z</time></trkpt><trkpt lat="43.7448109" lon="12.1999551"><ele>485.33333333333337</ele><time>2026-04-05T08:45:22.59Z</time></trkpt><trkpt lat="43.7446897" lon="12.200188"><ele>489.66666666666663</ele><time>2026-04-05T08:45:23.59Z</time></trkpt><trkpt lat="43.7445895" lon="12.2004288"><ele>494.0</ele><time>2026-04-05T08:45:24.589Z</time></trkpt><trkpt lat="43.7445107" lon="12.2006686"><ele>489.66666666666663</ele><time>2026-04-05T08:45:25.59Z</time></trkpt><trkpt lat="43.7444372" lon="12.2008876"><ele>485.33333333333337</ele><time>2026-04-05T08:45:26.589Z</time></trkpt><trkpt lat="43.7443489" lon="12.2010836"><ele>481.0</ele><time>2026-04-05T08:45:27.59Z</time></trkpt><trkpt lat="43.7442474" lon="12.2012623"><ele>481.0</ele><time>2026-04-05T08:45:28.59Z</time></trkpt><trkpt lat="43.7441268" lon="12.2014388"><ele>481.0</ele><time>2026-04-05T08:45:29.589Z</time></trkpt><trkpt lat="43.7440053" lon="12.2016085"><ele>481.0</ele><time>2026-04-05T08:45:30.59Z</time></trkpt><trkpt lat="43.7438903" lon="12.2017616"><ele>482.0</ele><time>2026-04-05T08:45:31.59Z</time></trkpt><trkpt lat="43.7437784" lon="12.2018992"><ele>483.0</ele><time>2026-04-05T08:45:32.589Z</time></trkpt><trkpt lat="43.7436519" lon="12.2020032"><ele>484.0</ele><time>2026-04-05T08:45:33.59Z</time></trkpt><trkpt lat="43.7435029" lon="12.2020601"><ele>484.0</ele><time>2026-04-05T08:45:34.59Z</time></trkpt><trkpt lat="43.7433265" lon="12.2020801"><ele>484.0</ele><time>2026-04-05T08:45:35.59Z</time></trkpt><trkpt lat="43.7431421" lon="12.2020752"><ele>484.0</ele><time>2026-04-05T08:45:36.589Z</time></trkpt><trkpt lat="43.7429611" lon="12.202059"><ele>484.0</ele><time>2026-04-05T08:45:37.59Z</time></trkpt><trkpt lat="43.7427905" lon="12.2020238"><ele>484.0</ele><time>2026-04-05T08:45:38.59Z</time></trkpt><trkpt lat="43.7426377" lon="12.2019715"><ele>484.0</ele><time>2026-04-05T08:45:39.59Z</time></trkpt><trkpt lat="43.7425006" lon="12.2018957"><ele>485.0</ele><time>2026-04-05T08:45:40.59Z</time></trkpt><trkpt lat="43.7423742" lon="12.2018281"><ele>486.0</ele><time>2026-04-05T08:45:41.589Z</time></trkpt><trkpt lat="43.7422548" lon="12.2018102"><ele>487.0</ele><time>2026-04-05T08:45:42.589Z</time></trkpt><trkpt lat="43.7421413" lon="12.2018541"><ele>488.0</ele><time>2026-04-05T08:45:43.59Z</time></trkpt><trkpt lat="43.7420563" lon="12.2019775"><ele>488.0</ele><time>2026-04-05T08:45:44.59Z</time></trkpt><trkpt lat="43.7420073" lon="12.2021716"><ele>488.0</ele><time>2026-04-05T08:45:45.59Z</time></trkpt><trkpt lat="43.7419682" lon="12.2023836"><ele>488.0</ele><time>2026-04-05T08:45:46.589Z</time></trkpt><trkpt lat="43.7419281" lon="12.2025637"><ele>488.0</ele><time>2026-04-05T08:45:47.589Z</time></trkpt><trkpt lat="43.7418865" lon="12.2027084"><ele>490.4</ele><time>2026-04-05T08:45:48.59Z</time></trkpt><trkpt lat="43.7418331" lon="12.2028059"><ele>492.79999999999995</ele><time>2026-04-05T08:45:49.589Z</time></trkpt><trkpt lat="43.7417449" lon="12.2028386"><ele>495.2</ele><time>2026-04-05T08:45:50.59Z</time></trkpt><trkpt lat="43.7416302" lon="12.2028081"><ele>497.6</ele><time>2026-04-05T08:45:51.59Z</time></trkpt><trkpt lat="43.7415035" lon="12.2027194"><ele>500.0</ele><time>2026-04-05T08:45:52.59Z</time></trkpt><trkpt lat="43.741388" lon="12.2025839"><ele>500.0</ele><time>2026-04-05T08:45:53.589Z</time></trkpt><trkpt lat="43.7412992" lon="12.2024022"><ele>500.0</ele><time>2026-04-05T08:45:54.589Z</time></trkpt><trkpt lat="43.7412439" lon="12.2021785"><ele>500.0</ele><time>2026-04-05T08:45:55.589Z</time></trkpt><trkpt lat="43.7412192" lon="12.2019496"><ele>497.25</ele><time>2026-04-05T08:45:56.59Z</time></trkpt><trkpt lat="43.7411924" lon="12.2017455"><ele>494.5</ele><time>2026-04-05T08:45:57.59Z</time></trkpt><trkpt lat="43.7411454" lon="12.2015788"><ele>491.75</ele><time>2026-04-05T08:45:58.59Z</time></trkpt><trkpt lat="43.74106" lon="12.2014704"><ele>489.0</ele><time>2026-04-05T08:45:59.589Z</time></trkpt><trkpt lat="43.7409144" lon="12.2014498"><ele>485.33333333333337</ele><time>2026-04-05T08:46:00.59Z</time></trkpt><trkpt lat="43.7407239" lon="12.2014757"><ele>481.6666666666667</ele><time>2026-04-05T08:46:01.59Z</time></trkpt><trkpt lat="43.7405078" lon="12.2015146"><ele>478.0</ele><time>2026-04-05T08:46:02.589Z</time></trkpt><trkpt lat="43.7402716" lon="12.2015597"><ele>497.5</ele><time>2026-04-05T08:46:03.59Z</time></trkpt><trkpt lat="43.7400294" lon="12.2016044"><ele>517.0</ele><time>2026-04-05T08:46:04.59Z</time></trkpt><trkpt lat="43.7397907" lon="12.2016602"><ele>517.0</ele><time>2026-04-05T08:46:05.59Z</time></trkpt><trkpt lat="43.7395705" lon="12.2017077"><ele>517.0</ele><time>2026-04-05T08:46:06.59Z</time></trkpt><trkpt lat="43.7393769" lon="12.2017451"><ele>517.0</ele><time>2026-04-05T08:46:07.59Z</time></trkpt><trkpt lat="43.7392114" lon="12.2017747"><ele>519.5</ele><time>2026-04-05T08:46:08.59Z</time></trkpt><trkpt lat="43.7390736" lon="12.2017946"><ele>522.0</ele><time>2026-04-05T08:46:09.589Z</time></trkpt><trkpt lat="43.7389525" lon="12.2017796"><ele>524.5</ele><time>2026-04-05T08:46:10.589Z</time></trkpt><trkpt lat="43.7388461" lon="12.2017172"><ele>527.0</ele><time>2026-04-05T08:46:11.59Z</time></trkpt><trkpt lat="43.7387693" lon="12.2015993"><ele>520.5</ele><time>2026-04-05T08:46:12.59Z</time></trkpt><trkpt lat="43.738728" lon="12.20142"><ele>514.0</ele><time>2026-04-05T08:46:13.59Z</time></trkpt><trkpt lat="43.7387067" lon="12.2012082"><ele>507.5</ele><time>2026-04-05T08:46:14.589Z</time></trkpt><trkpt lat="43.7386806" lon="12.2010021"><ele>501.0</ele><time>2026-04-05T08:46:15.589Z</time></trkpt><trkpt lat="43.7386214" lon="12.2008165"><ele>498.25</ele><time>2026-04-05T08:46:16.59Z</time></trkpt><trkpt lat="43.7385305" lon="12.2006657"><ele>495.5</ele><time>2026-04-05T08:46:17.59Z</time></trkpt><trkpt lat="43.7384141" lon="12.2005494"><ele>492.75</ele><time>2026-04-05T08:46:18.59Z</time></trkpt><trkpt lat="43.7382858" lon="12.2004813"><ele>490.0</ele><time>2026-04-05T08:46:19.59Z</time></trkpt><trkpt lat="43.7381593" lon="12.2004771"><ele>490.0</ele><time>2026-04-05T08:46:20.59Z</time></trkpt><trkpt lat="43.7380402" lon="12.2005265"><ele>490.0</ele><time>2026-04-05T08:46:21.589Z</time></trkpt><trkpt lat="43.7379112" lon="12.2006343"><ele>490.0</ele><time>2026-04-05T08:46:22.589Z</time></trkpt><trkpt lat="43.7377873" lon="12.2007896"><ele>490.0</ele><time>2026-04-05T08:46:23.59Z</time></trkpt><trkpt lat="43.7376454" lon="12.2009433"><ele>500.0</ele><time>2026-04-05T08:46:24.59Z</time></trkpt><trkpt lat="43.7374794" lon="12.2010869"><ele>510.0</ele><time>2026-04-05T08:46:25.59Z</time></trkpt><trkpt lat="43.7372988" lon="12.2012204"><ele>520.0</ele><time>2026-04-05T08:46:26.59Z</time></trkpt><trkpt lat="43.7371161" lon="12.2013444"><ele>520.0</ele><time>2026-04-05T08:46:27.59Z</time></trkpt><trkpt lat="43.7369443" lon="12.2014527"><ele>520.0</ele><time>2026-04-05T08:46:28.59Z</time></trkpt><trkpt lat="43.7367857" lon="12.2015445"><ele>520.0</ele><time>2026-04-05T08:46:29.59Z</time></trkpt><trkpt lat="43.7366376" lon="12.2016224"><ele>525.0</ele><time>2026-04-05T08:46:30.59Z</time></trkpt><trkpt lat="43.7364887" lon="12.2016774"><ele>530.0</ele><time>2026-04-05T08:46:31.59Z</time></trkpt><trkpt lat="43.7363533" lon="12.2017202"><ele>535.0</ele><time>2026-04-05T08:46:32.589Z</time></trkpt><trkpt lat="43.7362184" lon="12.2017387"><ele>540.0</ele><time>2026-04-05T08:46:33.59Z</time></trkpt><trkpt lat="43.7360945" lon="12.2017079"><ele>540.25</ele><time>2026-04-05T08:46:34.589Z</time></trkpt><trkpt lat="43.7359731" lon="12.2016072"><ele>540.5</ele><time>2026-04-05T08:46:35.589Z</time></trkpt><trkpt lat="43.7358748" lon="12.2014601"><ele>540.75</ele><time>2026-04-05T08:46:36.589Z</time></trkpt><trkpt lat="43.7358274" lon="12.2012716"><ele>541.0</ele><time>2026-04-05T08:46:37.59Z</time></trkpt><trkpt lat="43.7358215" lon="12.201051"><ele>539.3333333333334</ele><time>2026-04-05T08:46:38.59Z</time></trkpt><trkpt lat="43.7358197" lon="12.200832"><ele>537.6666666666666</ele><time>2026-04-05T08:46:39.589Z</time></trkpt><trkpt lat="43.7357803" lon="12.2006305"><ele>536.0</ele><time>2026-04-05T08:46:40.59Z</time></trkpt><trkpt lat="43.7356861" lon="12.2004498"><ele>538.0</ele><time>2026-04-05T08:46:41.589Z</time></trkpt><trkpt lat="43.7355384" lon="12.2002974"><ele>540.0</ele><time>2026-04-05T08:46:42.59Z</time></trkpt><trkpt lat="43.7353572" lon="12.2001587"><ele>542.0</ele><time>2026-04-05T08:46:43.59Z</time></trkpt><trkpt lat="43.7351762" lon="12.2000356"><ele>542.0</ele><time>2026-04-05T08:46:44.589Z</time></trkpt><trkpt lat="43.7350117" lon="12.1999113"><ele>542.0</ele><time>2026-04-05T08:46:45.59Z</time></trkpt><trkpt lat="43.734849" lon="12.1997855"><ele>542.0</ele><time>2026-04-05T08:46:46.59Z</time></trkpt><trkpt lat="43.7346849" lon="12.1996869"><ele>536.0</ele><time>2026-04-05T08:46:47.59Z</time></trkpt><trkpt lat="43.7345074" lon="12.1996074"><ele>530.0</ele><time>2026-04-05T08:46:48.59Z</time></trkpt><trkpt lat="43.734319" lon="12.1995644"><ele>524.0</ele><time>2026-04-05T08:46:49.589Z</time></trkpt><trkpt lat="43.7341358" lon="12.1995496"><ele>524.0</ele><time>2026-04-05T08:46:50.59Z</time></trkpt><trkpt lat="43.7339595" lon="12.1995409"><ele>524.0</ele><time>2026-04-05T08:46:51.59Z</time></trkpt><trkpt lat="43.73379" lon="12.1995064"><ele>524.0</ele><time>2026-04-05T08:46:52.59Z</time></trkpt><trkpt lat="43.7336197" lon="12.1994315"><ele>529.6666666666666</ele><time>2026-04-05T08:46:53.589Z</time></trkpt><trkpt lat="43.7334499" lon="12.1993189"><ele>535.3333333333334</ele><time>2026-04-05T08:46:54.589Z</time></trkpt><trkpt lat="43.7332852" lon="12.1991993"><ele>541.0</ele><time>2026-04-05T08:46:55.59Z</time></trkpt><trkpt lat="43.7331348" lon="12.1990896"><ele>541.0</ele><time>2026-04-05T08:46:56.589Z</time></trkpt><trkpt lat="43.7329902" lon="12.1990018"><ele>541.0</ele><time>2026-04-05T08:46:57.59Z</time></trkpt><trkpt lat="43.7328439" lon="12.1989567"><ele>541.0</ele><time>2026-04-05T08:46:58.59Z</time></trkpt><trkpt lat="43.7326827" lon="12.1989681"><ele>542.75</ele><time>2026-04-05T08:46:59.59Z</time></trkpt><trkpt lat="43.7325318" lon="12.1990284"><ele>544.5</ele><time>2026-04-05T08:47:00.589Z</time></trkpt><trkpt lat="43.732393" lon="12.1990922"><ele>546.25</ele><time>2026-04-05T08:47:01.59Z</time></trkpt><trkpt lat="43.7322567" lon="12.1991203"><ele>548.0</ele><time>2026-04-05T08:47:02.589Z</time></trkpt><trkpt lat="43.7321142" lon="12.1990865"><ele>545.0</ele><time>2026-04-05T08:47:03.59Z</time></trkpt><trkpt lat="43.7319838" lon="12.1989884"><ele>542.0</ele><time>2026-04-05T08:47:04.59Z</time></trkpt><trkpt lat="43.7318734" lon="12.1988423"><ele>539.0</ele><time>2026-04-05T08:47:05.59Z</time></trkpt><trkpt lat="43.7317819" lon="12.1986975"><ele>536.0</ele><time>2026-04-05T08:47:06.589Z</time></trkpt><trkpt lat="43.7316913" lon="12.1985781"><ele>536.0</ele><time>2026-04-05T08:47:07.59Z</time></trkpt><trkpt lat="43.7315761" lon="12.1985005"><ele>536.0</ele><time>2026-04-05T08:47:08.589Z</time></trkpt><trkpt lat="43.7314234" lon="12.1984789"><ele>536.0</ele><time>2026-04-05T08:47:09.59Z</time></trkpt><trkpt lat="43.7312426" lon="12.1985197"><ele>536.0</ele><time>2026-04-05T08:47:10.59Z</time></trkpt><trkpt lat="43.7310635" lon="12.1985853"><ele>536.0</ele><time>2026-04-05T08:47:11.59Z</time></trkpt><trkpt lat="43.7308927" lon="12.1986323"><ele>536.0</ele><time>2026-04-05T08:47:12.59Z</time></trkpt><trkpt lat="43.7307259" lon="12.1986323"><ele>537.3333333333333</ele><time>2026-04-05T08:47:13.59Z</time></trkpt><trkpt lat="43.7305549" lon="12.1985724"><ele>538.6666666666666</ele><time>2026-04-05T08:47:14.59Z</time></trkpt><trkpt lat="43.7303779" lon="12.1984638"><ele>540.0</ele><time>2026-04-05T08:47:15.59Z</time></trkpt><trkpt lat="43.7302058" lon="12.1983404"><ele>539.6666666666666</ele><time>2026-04-05T08:47:16.59Z</time></trkpt><trkpt lat="43.7300537" lon="12.1982315"><ele>539.3333333333333</ele><time>2026-04-05T08:47:17.59Z</time></trkpt><trkpt lat="43.7299174" lon="12.1981252"><ele>539.0</ele><time>2026-04-05T08:47:18.59Z</time></trkpt><trkpt lat="43.7297988" lon="12.1980017"><ele>539.0</ele><time>2026-04-05T08:47:19.589Z</time></trkpt><trkpt lat="43.7296974" lon="12.1978331"><ele>539.0</ele><time>2026-04-05T08:47:20.589Z</time></trkpt><trkpt lat="43.72961" lon="12.1976339"><ele>539.0</ele><time>2026-04-05T08:47:21.589Z</time></trkpt><trkpt lat="43.7295089" lon="12.1974381"><ele>541.0</ele><time>2026-04-05T08:47:22.589Z</time></trkpt><trkpt lat="43.7293717" lon="12.1972495"><ele>543.0</ele><time>2026-04-05T08:47:23.589Z</time></trkpt><trkpt lat="43.7292162" lon="12.1970825"><ele>545.0</ele><time>2026-04-05T08:47:24.589Z</time></trkpt><trkpt lat="43.7290711" lon="12.1969356"><ele>545.0</ele><time>2026-04-05T08:47:25.59Z</time></trkpt><trkpt lat="43.7289266" lon="12.1968043"><ele>545.0</ele><time>2026-04-05T08:47:26.59Z</time></trkpt><trkpt lat="43.7287755" lon="12.1966914"><ele>545.0</ele><time>2026-04-05T08:47:27.589Z</time></trkpt><trkpt lat="43.7286124" lon="12.1966046"><ele>543.0</ele><time>2026-04-05T08:47:28.59Z</time></trkpt><trkpt lat="43.7284348" lon="12.1965247"><ele>541.0</ele><time>2026-04-05T08:47:29.59Z</time></trkpt><trkpt lat="43.7282443" lon="12.1964646"><ele>539.0</ele><time>2026-04-05T08:47:30.59Z</time></trkpt><trkpt lat="43.7280527" lon="12.1963951"><ele>539.0</ele><time>2026-04-05T08:47:31.589Z</time></trkpt><trkpt lat="43.7278533" lon="12.1963083"><ele>539.0</ele><time>2026-04-05T08:47:32.589Z</time></trkpt><trkpt lat="43.7276483" lon="12.1961833"><ele>539.0</ele><time>2026-04-05T08:47:33.59Z</time></trkpt><trkpt lat="43.7274483" lon="12.19605"><ele>544.6666666666666</ele><time>2026-04-05T08:47:34.59Z</time></trkpt><trkpt lat="43.7272517" lon="12.1959317"><ele>550.3333333333334</ele><time>2026-04-05T08:47:35.59Z</time></trkpt><trkpt lat="43.7270683" lon="12.19581"><ele>556.0</ele><time>2026-04-05T08:47:36.589Z</time></trkpt><trkpt lat="43.7268833" lon="12.1956983"><ele>560.0</ele><time>2026-04-05T08:47:37.589Z</time></trkpt><trkpt lat="43.7267017" lon="12.1956017"><ele>564.0</ele><time>2026-04-05T08:47:38.589Z</time></trkpt><trkpt lat="43.7265233" lon="12.1955133"><ele>568.0</ele><time>2026-04-05T08:47:39.59Z</time></trkpt><trkpt lat="43.7263667" lon="12.1954233"><ele>568.0</ele><time>2026-04-05T08:47:40.59Z</time></trkpt><trkpt lat="43.7262217" lon="12.1953383"><ele>568.0</ele><time>2026-04-05T08:47:41.589Z</time></trkpt><trkpt lat="43.72608" lon="12.1952533"><ele>568.0</ele><time>2026-04-05T08:47:42.589Z</time></trkpt><trkpt lat="43.7259383" lon="12.1951533"><ele>568.0</ele><time>2026-04-05T08:47:43.59Z</time></trkpt><trkpt lat="43.72581" lon="12.1950267"><ele>568.0</ele><time>2026-04-05T08:47:44.589Z</time></trkpt><trkpt lat="43.7256933" lon="12.1948633"><ele>568.0</ele><time>2026-04-05T08:47:45.589Z</time></trkpt><trkpt lat="43.7255733" lon="12.1946617"><ele>565.3333333333334</ele><time>2026-04-05T08:47:46.59Z</time></trkpt><trkpt lat="43.725465" lon="12.1944667"><ele>562.6666666666666</ele><time>2026-04-05T08:47:47.589Z</time></trkpt><trkpt lat="43.7253717" lon="12.1942817"><ele>560.0</ele><time>2026-04-05T08:47:48.589Z</time></trkpt><trkpt lat="43.7252867" lon="12.1941217"><ele>552.25</ele><time>2026-04-05T08:47:49.59Z</time></trkpt><trkpt lat="43.7251983" lon="12.193995"><ele>544.5</ele><time>2026-04-05T08:47:50.59Z</time></trkpt><trkpt lat="43.72509" lon="12.1939083"><ele>536.75</ele><time>2026-04-05T08:47:51.59Z</time></trkpt><trkpt lat="43.7249883" lon="12.19389"><ele>529.0</ele><time>2026-04-05T08:47:52.589Z</time></trkpt><trkpt lat="43.7248833" lon="12.19394"><ele>537.6666666666667</ele><time>2026-04-05T08:47:53.589Z</time></trkpt><trkpt lat="43.7247767" lon="12.1940667"><ele>546.3333333333334</ele><time>2026-04-05T08:47:54.589Z</time></trkpt><trkpt lat="43.7246933" lon="12.1942717"><ele>555.0</ele><time>2026-04-05T08:47:55.59Z</time></trkpt><trkpt lat="43.7246" lon="12.1944667"><ele>555.0</ele><time>2026-04-05T08:47:56.59Z</time></trkpt><trkpt lat="43.72447" lon="12.19462"><ele>555.0</ele><time>2026-04-05T08:47:57.59Z</time></trkpt><trkpt lat="43.724305" lon="12.1947367"><ele>555.0</ele><time>2026-04-05T08:47:58.589Z</time></trkpt><trkpt lat="43.7241033" lon="12.1948317"><ele>556.0</ele><time>2026-04-05T08:47:59.589Z</time></trkpt><trkpt lat="43.723905" lon="12.1949117"><ele>557.0</ele><time>2026-04-05T08:48:00.59Z</time></trkpt><trkpt lat="43.7237083" lon="12.19496"><ele>558.0</ele><time>2026-04-05T08:48:01.589Z</time></trkpt><trkpt lat="43.7235133" lon="12.1949617"><ele>555.0</ele><time>2026-04-05T08:48:02.59Z</time></trkpt><trkpt lat="43.7233167" lon="12.19491"><ele>552.0</ele><time>2026-04-05T08:48:03.59Z</time></trkpt><trkpt lat="43.7231217" lon="12.1948467"><ele>549.0</ele><time>2026-04-05T08:48:04.59Z</time></trkpt><trkpt lat="43.7229483" lon="12.1947767"><ele>549.3333333333334</ele><time>2026-04-05T08:48:05.59Z</time></trkpt><trkpt lat="43.7227833" lon="12.194705"><ele>549.6666666666667</ele><time>2026-04-05T08:48:06.589Z</time></trkpt><trkpt lat="43.72264" lon="12.1946067"><ele>550.0</ele><time>2026-04-05T08:48:07.59Z</time></trkpt><trkpt lat="43.7225133" lon="12.1944733"><ele>550.0</ele><time>2026-04-05T08:48:08.589Z</time></trkpt><trkpt lat="43.7224083" lon="12.1943067"><ele>550.0</ele><time>2026-04-05T08:48:09.59Z</time></trkpt><trkpt lat="43.7222983" lon="12.194155"><ele>550.0</ele><time>2026-04-05T08:48:10.59Z</time></trkpt><trkpt lat="43.72216" lon="12.1940633"><ele>550.0</ele><time>2026-04-05T08:48:11.59Z</time></trkpt><trkpt lat="43.722" lon="12.1940267"><ele>550.0</ele><time>2026-04-05T08:48:12.59Z</time></trkpt><trkpt lat="43.7218167" lon="12.1940317"><ele>550.0</ele><time>2026-04-05T08:48:13.59Z</time></trkpt><trkpt lat="43.721615" lon="12.1940583"><ele>551.6666666666667</ele><time>2026-04-05T08:48:14.59Z</time></trkpt><trkpt lat="43.7214183" lon="12.19407"><ele>553.3333333333334</ele><time>2026-04-05T08:48:15.589Z</time></trkpt><trkpt lat="43.7212267" lon="12.1940867"><ele>555.0</ele><time>2026-04-05T08:48:16.59Z</time></trkpt><trkpt lat="43.721035" lon="12.194095"><ele>555.6666666666666</ele><time>2026-04-05T08:48:17.589Z</time></trkpt><trkpt lat="43.72084" lon="12.1941267"><ele>556.3333333333333</ele><time>2026-04-05T08:48:18.59Z</time></trkpt><trkpt lat="43.72065" lon="12.194175"><ele>557.0</ele><time>2026-04-05T08:48:19.589Z</time></trkpt><trkpt lat="43.7204667" lon="12.1942617"><ele>557.0</ele><time>2026-04-05T08:48:20.59Z</time></trkpt><trkpt lat="43.7202733" lon="12.1943967"><ele>557.0</ele><time>2026-04-05T08:48:21.589Z</time></trkpt><trkpt lat="43.72008" lon="12.1945317"><ele>557.0</ele><time>2026-04-05T08:48:22.59Z</time></trkpt><trkpt lat="43.719885" lon="12.1946517"><ele>557.6666666666666</ele><time>2026-04-05T08:48:23.59Z</time></trkpt><trkpt lat="43.7196967" lon="12.19476"><ele>558.3333333333334</ele><time>2026-04-05T08:48:24.59Z</time></trkpt><trkpt lat="43.719505" lon="12.1948483"><ele>559.0</ele><time>2026-04-05T08:48:25.589Z</time></trkpt><trkpt lat="43.7193167" lon="12.1949367"><ele>559.0</ele><time>2026-04-05T08:48:26.589Z</time></trkpt><trkpt lat="43.7191317" lon="12.195015"><ele>559.0</ele><time>2026-04-05T08:48:27.589Z</time></trkpt><trkpt lat="43.7189467" lon="12.1950933"><ele>559.0</ele><time>2026-04-05T08:48:28.59Z</time></trkpt><trkpt lat="43.71877" lon="12.195165"><ele>559.0</ele><time>2026-04-05T08:48:29.59Z</time></trkpt><trkpt lat="43.7186" lon="12.1952317"><ele>559.0</ele><time>2026-04-05T08:48:30.589Z</time></trkpt><trkpt lat="43.7184333" lon="12.1953017"><ele>559.0</ele><time>2026-04-05T08:48:31.59Z</time></trkpt><trkpt lat="43.718275" lon="12.1953717"><ele>557.3333333333334</ele><time>2026-04-05T08:48:32.59Z</time></trkpt><trkpt lat="43.71812" lon="12.1954383"><ele>555.6666666666666</ele><time>2026-04-05T08:48:33.59Z</time></trkpt><trkpt lat="43.7179667" lon="12.1955017"><ele>554.0</ele><time>2026-04-05T08:48:34.59Z</time></trkpt><trkpt lat="43.71781" lon="12.1955617"><ele>553.6666666666666</ele><time>2026-04-05T08:48:35.589Z</time></trkpt><trkpt lat="43.7176533" lon="12.19563"><ele>553.3333333333334</ele><time>2026-04-05T08:48:36.59Z</time></trkpt><trkpt lat="43.717485" lon="12.1956933"><ele>553.0</ele><time>2026-04-05T08:48:37.589Z</time></trkpt><trkpt lat="43.7173167" lon="12.1957583"><ele>553.0</ele><time>2026-04-05T08:48:38.59Z</time></trkpt><trkpt lat="43.7171567" lon="12.19582"><ele>553.0</ele><time>2026-04-05T08:48:39.59Z</time></trkpt><trkpt lat="43.7170083" lon="12.195885"><ele>553.0</ele><time>2026-04-05T08:48:40.589Z</time></trkpt><trkpt lat="43.7168637" lon="12.1959505"><ele>553.0</ele><time>2026-04-05T08:48:41.589Z</time></trkpt><trkpt lat="43.7167341" lon="12.1960111"><ele>553.0</ele><time>2026-04-05T08:48:42.59Z</time></trkpt><trkpt lat="43.7166127" lon="12.1960706"><ele>553.0</ele><time>2026-04-05T08:48:43.59Z</time></trkpt><trkpt lat="43.7165001" lon="12.1961287"><ele>553.0</ele><time>2026-04-05T08:48:44.59Z</time></trkpt><trkpt lat="43.716404" lon="12.1961885"><ele>553.0</ele><time>2026-04-05T08:48:45.59Z</time></trkpt><trkpt lat="43.7163319" lon="12.1962505"><ele>553.0</ele><time>2026-04-05T08:48:46.59Z</time></trkpt><trkpt lat="43.7162886" lon="12.1963248"><ele>553.0</ele><time>2026-04-05T08:48:47.59Z</time></trkpt><trkpt lat="43.7162675" lon="12.1964181"><ele>553.0</ele><time>2026-04-05T08:48:48.59Z</time></trkpt><trkpt lat="43.7162716" lon="12.1965245"><ele>553.0</ele><time>2026-04-05T08:48:49.59Z</time></trkpt><trkpt lat="43.716278" lon="12.1966355"><ele>553.0</ele><time>2026-04-05T08:48:50.59Z</time></trkpt><trkpt lat="43.7162704" lon="12.1967372"><ele>552.4</ele><time>2026-04-05T08:48:51.589Z</time></trkpt><trkpt lat="43.7162342" lon="12.1968099"><ele>551.8</ele><time>2026-04-05T08:48:52.59Z</time></trkpt><trkpt lat="43.7161712" lon="12.1968472"><ele>551.2</ele><time>2026-04-05T08:48:53.589Z</time></trkpt><trkpt lat="43.7160808" lon="12.1968577"><ele>550.6</ele><time>2026-04-05T08:48:54.59Z</time></trkpt><trkpt lat="43.7159617" lon="12.1968353"><ele>550.0</ele><time>2026-04-05T08:48:55.59Z</time></trkpt><trkpt lat="43.7158385" lon="12.1968243"><ele>550.0</ele><time>2026-04-05T08:48:56.59Z</time></trkpt><trkpt lat="43.7157211" lon="12.1968393"><ele>550.0</ele><time>2026-04-05T08:48:57.59Z</time></trkpt><trkpt lat="43.7156147" lon="12.1968813"><ele>550.0</ele><time>2026-04-05T08:48:58.59Z</time></trkpt><trkpt lat="43.7155185" lon="12.1969444"><ele>550.0</ele><time>2026-04-05T08:48:59.59Z</time></trkpt><trkpt lat="43.7154311" lon="12.1970159"><ele>550.0</ele><time>2026-04-05T08:49:00.59Z</time></trkpt><trkpt lat="43.7153412" lon="12.1970961"><ele>550.0</ele><time>2026-04-05T08:49:01.589Z</time></trkpt><trkpt lat="43.7152424" lon="12.1971845"><ele>550.0</ele><time>2026-04-05T08:49:02.59Z</time></trkpt><trkpt lat="43.7151348" lon="12.1972783"><ele>550.0</ele><time>2026-04-05T08:49:03.59Z</time></trkpt><trkpt lat="43.7150185" lon="12.1973824"><ele>550.0</ele><time>2026-04-05T08:49:04.59Z</time></trkpt><trkpt lat="43.7149029" lon="12.1974834"><ele>549.25</ele><time>2026-04-05T08:49:05.59Z</time></trkpt><trkpt lat="43.7147928" lon="12.1975819"><ele>548.5</ele><time>2026-04-05T08:49:06.59Z</time></trkpt><trkpt lat="43.7146848" lon="12.1976676"><ele>547.75</ele><time>2026-04-05T08:49:07.589Z</time></trkpt><trkpt lat="43.7145852" lon="12.1977523"><ele>547.0</ele><time>2026-04-05T08:49:08.59Z</time></trkpt><trkpt lat="43.7144901" lon="12.1978354"><ele>546.75</ele><time>2026-04-05T08:49:09.59Z</time></trkpt><trkpt lat="43.7143927" lon="12.19792"><ele>546.5</ele><time>2026-04-05T08:49:10.59Z</time></trkpt><trkpt lat="43.7142888" lon="12.1980143"><ele>546.25</ele><time>2026-04-05T08:49:11.59Z</time></trkpt><trkpt lat="43.7141798" lon="12.1981228"><ele>546.0</ele><time>2026-04-05T08:49:12.589Z</time></trkpt><trkpt lat="43.7140785" lon="12.1982305"><ele>546.0</ele><time>2026-04-05T08:49:13.59Z</time></trkpt><trkpt lat="43.7139818" lon="12.198357"><ele>546.0</ele><time>2026-04-05T08:49:14.589Z</time></trkpt><trkpt lat="43.7138939" lon="12.1985023"><ele>546.0</ele><time>2026-04-05T08:49:15.589Z</time></trkpt><trkpt lat="43.713812" lon="12.1986456"><ele>546.0</ele><time>2026-04-05T08:49:16.589Z</time></trkpt><trkpt lat="43.7137327" lon="12.1987888"><ele>546.0</ele><time>2026-04-05T08:49:17.59Z</time></trkpt><trkpt lat="43.7136515" lon="12.1989394"><ele>546.0</ele><time>2026-04-05T08:49:18.59Z</time></trkpt><trkpt lat="43.7135738" lon="12.1990853"><ele>546.0</ele><time>2026-04-05T08:49:19.589Z</time></trkpt><trkpt lat="43.7134951" lon="12.1992202"><ele>546.0</ele><time>2026-04-05T08:49:20.59Z</time></trkpt><trkpt lat="43.713417" lon="12.1993497"><ele>546.0</ele><time>2026-04-05T08:49:21.589Z</time></trkpt><trkpt lat="43.7133409" lon="12.199477"><ele>546.0</ele><time>2026-04-05T08:49:22.59Z</time></trkpt><trkpt lat="43.7132654" lon="12.1996018"><ele>546.0</ele><time>2026-04-05T08:49:23.59Z</time></trkpt><trkpt lat="43.7131979" lon="12.19972"><ele>546.0</ele><time>2026-04-05T08:49:24.589Z</time></trkpt><trkpt lat="43.7131322" lon="12.1998257"><ele>546.0</ele><time>2026-04-05T08:49:25.59Z</time></trkpt><trkpt lat="43.713066" lon="12.1999146"><ele>546.0</ele><time>2026-04-05T08:49:26.589Z</time></trkpt><trkpt lat="43.7129875" lon="12.1999759"><ele>546.0</ele><time>2026-04-05T08:49:27.59Z</time></trkpt><trkpt lat="43.7129012" lon="12.2000179"><ele>546.0</ele><time>2026-04-05T08:49:28.59Z</time></trkpt><trkpt lat="43.7128088" lon="12.2000371"><ele>546.0</ele><time>2026-04-05T08:49:29.589Z</time></trkpt><trkpt lat="43.7127168" lon="12.2000515"><ele>546.0</ele><time>2026-04-05T08:49:30.59Z</time></trkpt><trkpt lat="43.7126221" lon="12.2000782"><ele>544.25</ele><time>2026-04-05T08:49:31.59Z</time></trkpt><trkpt lat="43.7125323" lon="12.2001345"><ele>542.5</ele><time>2026-04-05T08:49:32.59Z</time></trkpt><trkpt lat="43.7124569" lon="12.200241"><ele>540.75</ele><time>2026-04-05T08:49:33.589Z</time></trkpt><trkpt lat="43.712398" lon="12.2003892"><ele>539.0</ele><time>2026-04-05T08:49:34.589Z</time></trkpt><trkpt lat="43.7123488" lon="12.2005548"><ele>540.2</ele><time>2026-04-05T08:49:35.589Z</time></trkpt><trkpt lat="43.7122952" lon="12.2007146"><ele>541.4</ele><time>2026-04-05T08:49:36.589Z</time></trkpt><trkpt lat="43.7122478" lon="12.2008561"><ele>542.6</ele><time>2026-04-05T08:49:37.589Z</time></trkpt><trkpt lat="43.712209" lon="12.20098"><ele>543.8</ele><time>2026-04-05T08:49:38.589Z</time></trkpt><trkpt lat="43.7121863" lon="12.2011082"><ele>545.0</ele><time>2026-04-05T08:49:39.59Z</time></trkpt><trkpt lat="43.7121947" lon="12.2012539"><ele>545.0</ele><time>2026-04-05T08:49:40.59Z</time></trkpt><trkpt lat="43.7122517" lon="12.201407"><ele>545.0</ele><time>2026-04-05T08:49:41.59Z</time></trkpt><trkpt lat="43.7123518" lon="12.2015364"><ele>545.0</ele><time>2026-04-05T08:49:42.59Z</time></trkpt><trkpt lat="43.7124954" lon="12.2016293"><ele>545.0</ele><time>2026-04-05T08:49:43.59Z</time></trkpt><trkpt lat="43.7126419" lon="12.2016904"><ele>546.25</ele><time>2026-04-05T08:49:44.59Z</time></trkpt><trkpt lat="43.7127657" lon="12.2017572"><ele>547.5</ele><time>2026-04-05T08:49:45.59Z</time></trkpt><trkpt lat="43.7128657" lon="12.20185"><ele>548.75</ele><time>2026-04-05T08:49:46.589Z</time></trkpt><trkpt lat="43.7129421" lon="12.2019631"><ele>550.0</ele><time>2026-04-05T08:49:47.589Z</time></trkpt><trkpt lat="43.7129932" lon="12.2021"><ele>550.0</ele><time>2026-04-05T08:49:48.59Z</time></trkpt><trkpt lat="43.7130157" lon="12.2022405"><ele>550.0</ele><time>2026-04-05T08:49:49.589Z</time></trkpt><trkpt lat="43.7129955" lon="12.2023819"><ele>550.0</ele><time>2026-04-05T08:49:50.59Z</time></trkpt><trkpt lat="43.7129407" lon="12.2024979"><ele>550.0</ele><time>2026-04-05T08:49:51.59Z</time></trkpt><trkpt lat="43.712855" lon="12.2025733"><ele>550.0</ele><time>2026-04-05T08:49:52.59Z</time></trkpt><trkpt lat="43.7127418" lon="12.2025962"><ele>549.25</ele><time>2026-04-05T08:49:53.59Z</time></trkpt><trkpt lat="43.7126078" lon="12.2025713"><ele>548.5</ele><time>2026-04-05T08:49:54.589Z</time></trkpt><trkpt lat="43.7124634" lon="12.2025207"><ele>547.75</ele><time>2026-04-05T08:49:55.59Z</time></trkpt><trkpt lat="43.7123337" lon="12.2024862"><ele>547.0</ele><time>2026-04-05T08:49:56.589Z</time></trkpt><trkpt lat="43.7122107" lon="12.2024947"><ele>547.0</ele><time>2026-04-05T08:49:57.59Z</time></trkpt><trkpt lat="43.7120893" lon="12.2025569"><ele>547.0</ele><time>2026-04-05T08:49:58.59Z</time></trkpt><trkpt lat="43.7119669" lon="12.2026863"><ele>547.0</ele><time>2026-04-05T08:49:59.589Z</time></trkpt><trkpt lat="43.7118527" lon="12.2028645"><ele>546.3333333333334</ele><time>2026-04-05T08:50:00.589Z</time></trkpt><trkpt lat="43.7117487" lon="12.203058"><ele>545.6666666666666</ele><time>2026-04-05T08:50:01.59Z</time></trkpt><trkpt lat="43.7116516" lon="12.2032337"><ele>545.0</ele><time>2026-04-05T08:50:02.59Z</time></trkpt><trkpt lat="43.7115742" lon="12.2034106"><ele>547.3333333333333</ele><time>2026-04-05T08:50:03.589Z</time></trkpt><trkpt lat="43.7115331" lon="12.203609"><ele>549.6666666666666</ele><time>2026-04-05T08:50:04.59Z</time></trkpt><trkpt lat="43.7115202" lon="12.2038425"><ele>552.0</ele><time>2026-04-05T08:50:05.59Z</time></trkpt><trkpt lat="43.7115213" lon="12.2041002"><ele>553.3333333333334</ele><time>2026-04-05T08:50:06.59Z</time></trkpt><trkpt lat="43.7115117" lon="12.20435"><ele>554.6666666666667</ele><time>2026-04-05T08:50:07.591Z</time></trkpt><trkpt lat="43.7114888" lon="12.2045829"><ele>556.0</ele><time>2026-04-05T08:50:08.59Z</time></trkpt><trkpt lat="43.7114626" lon="12.2048069"><ele>558.3333333333334</ele><time>2026-04-05T08:50:09.591Z</time></trkpt><trkpt lat="43.711443" lon="12.2050188"><ele>560.6666666666666</ele><time>2026-04-05T08:50:10.59Z</time></trkpt><trkpt lat="43.7114154" lon="12.2052181"><ele>563.0</ele><time>2026-04-05T08:50:11.591Z</time></trkpt><trkpt lat="43.7113566" lon="12.2054095"><ele>563.0</ele><time>2026-04-05T08:50:12.591Z</time></trkpt><trkpt lat="43.7112596" lon="12.2055911"><ele>563.0</ele><time>2026-04-05T08:50:13.59Z</time></trkpt><trkpt lat="43.7111433" lon="12.2057447"><ele>563.0</ele><time>2026-04-05T08:50:14.591Z</time></trkpt><trkpt lat="43.71102" lon="12.2058702"><ele>564.25</ele><time>2026-04-05T08:50:15.59Z</time></trkpt><trkpt lat="43.7108862" lon="12.205957"><ele>565.5</ele><time>2026-04-05T08:50:16.59Z</time></trkpt><trkpt lat="43.71074" lon="12.2059814"><ele>566.75</ele><time>2026-04-05T08:50:17.59Z</time></trkpt><trkpt lat="43.7105917" lon="12.2059616"><ele>568.0</ele><time>2026-04-05T08:50:18.591Z</time></trkpt><trkpt lat="43.7104618" lon="12.2059417"><ele>568.0</ele><time>2026-04-05T08:50:19.591Z</time></trkpt><trkpt lat="43.7103479" lon="12.205945"><ele>568.0</ele><time>2026-04-05T08:50:20.591Z</time></trkpt><trkpt lat="43.7102481" lon="12.2059946"><ele>568.0</ele><time>2026-04-05T08:50:21.591Z</time></trkpt><trkpt lat="43.7101593" lon="12.2061056"><ele>568.0</ele><time>2026-04-05T08:50:22.59Z</time></trkpt><trkpt lat="43.7100985" lon="12.206276"><ele>570.6666666666667</ele><time>2026-04-05T08:50:23.59Z</time></trkpt><trkpt lat="43.7100543" lon="12.2064958"><ele>573.3333333333334</ele><time>2026-04-05T08:50:24.591Z</time></trkpt><trkpt lat="43.7100025" lon="12.2067389"><ele>576.0</ele><time>2026-04-05T08:50:25.591Z</time></trkpt><trkpt lat="43.7099305" lon="12.2069712"><ele>576.0</ele><time>2026-04-05T08:50:26.59Z</time></trkpt><trkpt lat="43.7098525" lon="12.2071751"><ele>576.0</ele><time>2026-04-05T08:50:27.591Z</time></trkpt><trkpt lat="43.7097545" lon="12.2073654"><ele>576.0</ele><time>2026-04-05T08:50:28.59Z</time></trkpt><trkpt lat="43.7096395" lon="12.2075417"><ele>576.3333333333334</ele><time>2026-04-05T08:50:29.59Z</time></trkpt><trkpt lat="43.7095202" lon="12.2077205"><ele>576.6666666666667</ele><time>2026-04-05T08:50:30.591Z</time></trkpt><trkpt lat="43.7094025" lon="12.2078964"><ele>577.0</ele><time>2026-04-05T08:50:31.591Z</time></trkpt><trkpt lat="43.7092947" lon="12.2080624"><ele>578.5</ele><time>2026-04-05T08:50:32.59Z</time></trkpt><trkpt lat="43.7091936" lon="12.2082046"><ele>580.0</ele><time>2026-04-05T08:50:33.591Z</time></trkpt><trkpt lat="43.7090925" lon="12.208341"><ele>581.5</ele><time>2026-04-05T08:50:34.59Z</time></trkpt><trkpt lat="43.7090054" lon="12.2084763"><ele>583.0</ele><time>2026-04-05T08:50:35.591Z</time></trkpt><trkpt lat="43.708927" lon="12.2085976"><ele>583.0</ele><time>2026-04-05T08:50:36.59Z</time></trkpt><trkpt lat="43.7088613" lon="12.2087058"><ele>583.0</ele><time>2026-04-05T08:50:37.591Z</time></trkpt><trkpt lat="43.7088256" lon="12.208833"><ele>583.0</ele><time>2026-04-05T08:50:38.591Z</time></trkpt><trkpt lat="43.7088235" lon="12.2089788"><ele>583.0</ele><time>2026-04-05T08:50:39.59Z</time></trkpt><trkpt lat="43.7088775" lon="12.2091153"><ele>583.0</ele><time>2026-04-05T08:50:40.591Z</time></trkpt><trkpt lat="43.7089658" lon="12.2092316"><ele>585.3333333333334</ele><time>2026-04-05T08:50:41.591Z</time></trkpt><trkpt lat="43.7090962" lon="12.2093022"><ele>587.6666666666666</ele><time>2026-04-05T08:50:42.591Z</time></trkpt><trkpt lat="43.7092605" lon="12.20935"><ele>590.0</ele><time>2026-04-05T08:50:43.591Z</time></trkpt><trkpt lat="43.7094394" lon="12.2093962"><ele>591.6666666666666</ele><time>2026-04-05T08:50:44.59Z</time></trkpt><trkpt lat="43.7096258" lon="12.2094608"><ele>593.3333333333334</ele><time>2026-04-05T08:50:45.591Z</time></trkpt><trkpt lat="43.7098174" lon="12.2095306"><ele>595.0</ele><time>2026-04-05T08:50:46.59Z</time></trkpt><trkpt lat="43.7099975" lon="12.2096066"><ele>595.0</ele><time>2026-04-05T08:50:47.591Z</time></trkpt><trkpt lat="43.7101675" lon="12.2096752"><ele>595.0</ele><time>2026-04-05T08:50:48.591Z</time></trkpt><trkpt lat="43.7103312" lon="12.209722"><ele>595.0</ele><time>2026-04-05T08:50:49.591Z</time></trkpt><trkpt lat="43.7104964" lon="12.2097418"><ele>595.6666666666667</ele><time>2026-04-05T08:50:50.591Z</time></trkpt><trkpt lat="43.7106714" lon="12.2097441"><ele>596.3333333333334</ele><time>2026-04-05T08:50:51.591Z</time></trkpt><trkpt lat="43.7108489" lon="12.2097398"><ele>597.0</ele><time>2026-04-05T08:50:52.59Z</time></trkpt><trkpt lat="43.7110187" lon="12.2097369"><ele>599.75</ele><time>2026-04-05T08:50:53.591Z</time></trkpt><trkpt lat="43.7111718" lon="12.2097437"><ele>602.5</ele><time>2026-04-05T08:50:54.591Z</time></trkpt><trkpt lat="43.7113059" lon="12.2097457"><ele>605.25</ele><time>2026-04-05T08:50:55.591Z</time></trkpt><trkpt lat="43.7114326" lon="12.2097158"><ele>608.0</ele><time>2026-04-05T08:50:56.591Z</time></trkpt><trkpt lat="43.7115529" lon="12.2096365"><ele>608.0</ele><time>2026-04-05T08:50:57.59Z</time></trkpt><trkpt lat="43.7116549" lon="12.2094949"><ele>608.0</ele><time>2026-04-05T08:50:58.591Z</time></trkpt><trkpt lat="43.7117386" lon="12.2092934"><ele>608.0</ele><time>2026-04-05T08:50:59.59Z</time></trkpt><trkpt lat="43.7118128" lon="12.2090484"><ele>606.6666666666666</ele><time>2026-04-05T08:51:00.591Z</time></trkpt><trkpt lat="43.7118881" lon="12.2087962"><ele>605.3333333333334</ele><time>2026-04-05T08:51:01.59Z</time></trkpt><trkpt lat="43.7119672" lon="12.2085698"><ele>604.0</ele><time>2026-04-05T08:51:02.591Z</time></trkpt><trkpt lat="43.7120409" lon="12.2083716"><ele>603.75</ele><time>2026-04-05T08:51:03.59Z</time></trkpt><trkpt lat="43.7121129" lon="12.2082046"><ele>603.5</ele><time>2026-04-05T08:51:04.591Z</time></trkpt><trkpt lat="43.7121868" lon="12.2080852"><ele>603.25</ele><time>2026-04-05T08:51:05.591Z</time></trkpt><trkpt lat="43.7122744" lon="12.2080171"><ele>603.0</ele><time>2026-04-05T08:51:06.591Z</time></trkpt><trkpt lat="43.7123765" lon="12.2080219"><ele>603.0</ele><time>2026-04-05T08:51:07.591Z</time></trkpt><trkpt lat="43.7124872" lon="12.2081109"><ele>603.0</ele><time>2026-04-05T08:51:08.591Z</time></trkpt><trkpt lat="43.7126054" lon="12.2082749"><ele>603.0</ele><time>2026-04-05T08:51:09.59Z</time></trkpt><trkpt lat="43.7127335" lon="12.2084599"><ele>603.6666666666666</ele><time>2026-04-05T08:51:10.591Z</time></trkpt><trkpt lat="43.7128653" lon="12.2086315"><ele>604.3333333333333</ele><time>2026-04-05T08:51:11.591Z</time></trkpt><trkpt lat="43.7129948" lon="12.2088122"><ele>605.0</ele><time>2026-04-05T08:51:12.591Z</time></trkpt><trkpt lat="43.7131308" lon="12.2090039"><ele>610.3333333333333</ele><time>2026-04-05T08:51:13.591Z</time></trkpt><trkpt lat="43.7132548" lon="12.2091888"><ele>615.6666666666666</ele><time>2026-04-05T08:51:14.591Z</time></trkpt><trkpt lat="43.7133731" lon="12.2093691"><ele>621.0</ele><time>2026-04-05T08:51:15.59Z</time></trkpt><trkpt lat="43.7134819" lon="12.2095789"><ele>620.6666666666666</ele><time>2026-04-05T08:51:16.591Z</time></trkpt><trkpt lat="43.7135846" lon="12.2098263"><ele>620.3333333333333</ele><time>2026-04-05T08:51:17.591Z</time></trkpt><trkpt lat="43.7136811" lon="12.2100924"><ele>620.0</ele><time>2026-04-05T08:51:18.591Z</time></trkpt><trkpt lat="43.7137628" lon="12.2103646"><ele>620.0</ele><time>2026-04-05T08:51:19.591Z</time></trkpt><trkpt lat="43.7138346" lon="12.2106186"><ele>620.0</ele><time>2026-04-05T08:51:20.591Z</time></trkpt><trkpt lat="43.7139136" lon="12.2108564"><ele>620.0</ele><time>2026-04-05T08:51:21.591Z</time></trkpt><trkpt lat="43.7140341" lon="12.2110614"><ele>623.3333333333333</ele><time>2026-04-05T08:51:22.591Z</time></trkpt><trkpt lat="43.7141965" lon="12.211243"><ele>626.6666666666666</ele><time>2026-04-05T08:51:23.591Z</time></trkpt><trkpt lat="43.7143939" lon="12.2114235"><ele>630.0</ele><time>2026-04-05T08:51:24.59Z</time></trkpt><trkpt lat="43.7145958" lon="12.2116057"><ele>631.6666666666666</ele><time>2026-04-05T08:51:25.59Z</time></trkpt><trkpt lat="43.7147795" lon="12.2117736"><ele>633.3333333333333</ele><time>2026-04-05T08:51:26.591Z</time></trkpt><trkpt lat="43.7149435" lon="12.2119251"><ele>635.0</ele><time>2026-04-05T08:51:27.591Z</time></trkpt><trkpt lat="43.7150953" lon="12.2120563"><ele>635.0</ele><time>2026-04-05T08:51:28.591Z</time></trkpt><trkpt lat="43.715235" lon="12.212145"><ele>635.0</ele><time>2026-04-05T08:51:29.591Z</time></trkpt><trkpt lat="43.7154017" lon="12.2121867"><ele>635.0</ele><time>2026-04-05T08:51:30.59Z</time></trkpt><trkpt lat="43.7155533" lon="12.2121933"><ele>635.0</ele><time>2026-04-05T08:51:31.591Z</time></trkpt><trkpt lat="43.7156983" lon="12.2122"><ele>635.0</ele><time>2026-04-05T08:51:32.59Z</time></trkpt><trkpt lat="43.71583" lon="12.2122633"><ele>635.0</ele><time>2026-04-05T08:51:33.591Z</time></trkpt><trkpt lat="43.7159617" lon="12.212365"><ele>635.0</ele><time>2026-04-05T08:51:34.59Z</time></trkpt><trkpt lat="43.7160983" lon="12.212535"><ele>640.0</ele><time>2026-04-05T08:51:35.591Z</time></trkpt><trkpt lat="43.7162383" lon="12.212715"><ele>645.0</ele><time>2026-04-05T08:51:36.59Z</time></trkpt><trkpt lat="43.7163483" lon="12.21287"><ele>650.0</ele><time>2026-04-05T08:51:37.591Z</time></trkpt><trkpt lat="43.7164383" lon="12.2129767"><ele>650.0</ele><time>2026-04-05T08:51:38.591Z</time></trkpt><trkpt lat="43.7165433" lon="12.2130417"><ele>650.0</ele><time>2026-04-05T08:51:39.59Z</time></trkpt><trkpt lat="43.7166717" lon="12.2130433"><ele>650.0</ele><time>2026-04-05T08:51:40.591Z</time></trkpt><trkpt lat="43.7167967" lon="12.2130167"><ele>650.0</ele><time>2026-04-05T08:51:41.591Z</time></trkpt><trkpt lat="43.7169067" lon="12.2129617"><ele>651.5</ele><time>2026-04-05T08:51:42.59Z</time></trkpt><trkpt lat="43.7169967" lon="12.2128417"><ele>653.0</ele><time>2026-04-05T08:51:43.591Z</time></trkpt><trkpt lat="43.71706" lon="12.2126533"><ele>654.5</ele><time>2026-04-05T08:51:44.59Z</time></trkpt><trkpt lat="43.7170967" lon="12.21243"><ele>656.0</ele><time>2026-04-05T08:51:45.591Z</time></trkpt><trkpt lat="43.7171317" lon="12.2122133"><ele>656.0</ele><time>2026-04-05T08:51:46.59Z</time></trkpt><trkpt lat="43.7171667" lon="12.2120083"><ele>656.0</ele><time>2026-04-05T08:51:47.591Z</time></trkpt><trkpt lat="43.717205" lon="12.21185"><ele>656.0</ele><time>2026-04-05T08:51:48.591Z</time></trkpt><trkpt lat="43.7172633" lon="12.2117233"><ele>656.0</ele><time>2026-04-05T08:51:49.591Z</time></trkpt><trkpt lat="43.7173483" lon="12.2116367"><ele>656.0</ele><time>2026-04-05T08:51:50.591Z</time></trkpt><trkpt lat="43.7174483" lon="12.2115933"><ele>656.0</ele><time>2026-04-05T08:51:51.59Z</time></trkpt><trkpt lat="43.7175717" lon="12.211605"><ele>656.0</ele><time>2026-04-05T08:51:52.591Z</time></trkpt><trkpt lat="43.7177167" lon="12.21168"><ele>656.0</ele><time>2026-04-05T08:51:53.591Z</time></trkpt><trkpt lat="43.7178833" lon="12.2117683"><ele>656.6666666666666</ele><time>2026-04-05T08:51:54.591Z</time></trkpt><trkpt lat="43.7180717" lon="12.2118767"><ele>657.3333333333334</ele><time>2026-04-05T08:51:55.591Z</time></trkpt><trkpt lat="43.7182667" lon="12.21198"><ele>658.0</ele><time>2026-04-05T08:51:56.591Z</time></trkpt><trkpt lat="43.718445" lon="12.2120617"><ele>660.3333333333334</ele><time>2026-04-05T08:51:57.59Z</time></trkpt><trkpt lat="43.7186217" lon="12.212115"><ele>662.6666666666666</ele><time>2026-04-05T08:51:58.591Z</time></trkpt><trkpt lat="43.7187967" lon="12.212135"><ele>665.0</ele><time>2026-04-05T08:51:59.591Z</time></trkpt><trkpt lat="43.7189633" lon="12.212135"><ele>665.0</ele><time>2026-04-05T08:52:00.591Z</time></trkpt><trkpt lat="43.71912" lon="12.2121167"><ele>665.0</ele><time>2026-04-05T08:52:01.591Z</time></trkpt><trkpt lat="43.719265" lon="12.2120417"><ele>665.0</ele><time>2026-04-05T08:52:02.591Z</time></trkpt><trkpt lat="43.7193933" lon="12.211915"><ele>667.6666666666666</ele><time>2026-04-05T08:52:03.591Z</time></trkpt><trkpt lat="43.7195045" lon="12.2117504"><ele>670.3333333333334</ele><time>2026-04-05T08:52:04.591Z</time></trkpt><trkpt lat="43.7195875" lon="12.2115556"><ele>673.0</ele><time>2026-04-05T08:52:05.591Z</time></trkpt><trkpt lat="43.7196628" lon="12.2113798"><ele>673.0</ele><time>2026-04-05T08:52:06.591Z</time></trkpt><trkpt lat="43.7197648" lon="12.2112292"><ele>673.0</ele><time>2026-04-05T08:52:07.59Z</time></trkpt><trkpt lat="43.7198887" lon="12.2111214"><ele>673.0</ele><time>2026-04-05T08:52:08.591Z</time></trkpt><trkpt lat="43.7200244" lon="12.2110681"><ele>673.0</ele><time>2026-04-05T08:52:09.591Z</time></trkpt><trkpt lat="43.7201556" lon="12.2110718"><ele>673.0</ele><time>2026-04-05T08:52:10.59Z</time></trkpt><trkpt lat="43.7202799" lon="12.2111255"><ele>673.0</ele><time>2026-04-05T08:52:11.591Z</time></trkpt><trkpt lat="43.7203936" lon="12.2112298"><ele>673.0</ele><time>2026-04-05T08:52:12.591Z</time></trkpt><trkpt lat="43.7204907" lon="12.2113884"><ele>673.0</ele><time>2026-04-05T08:52:13.591Z</time></trkpt><trkpt lat="43.7205811" lon="12.2115993"><ele>675.3333333333334</ele><time>2026-04-05T08:52:14.591Z</time></trkpt><trkpt lat="43.7206674" lon="12.211842"><ele>677.6666666666666</ele><time>2026-04-05T08:52:15.59Z</time></trkpt><trkpt lat="43.7207595" lon="12.2120763"><ele>680.0</ele><time>2026-04-05T08:52:16.59Z</time></trkpt><trkpt lat="43.7208569" lon="12.2122759"><ele>682.6666666666666</ele><time>2026-04-05T08:52:17.59Z</time></trkpt><trkpt lat="43.7209684" lon="12.2124498"><ele>685.3333333333334</ele><time>2026-04-05T08:52:18.591Z</time></trkpt><trkpt lat="43.7211126" lon="12.2125921"><ele>688.0</ele><time>2026-04-05T08:52:19.59Z</time></trkpt><trkpt lat="43.7212883" lon="12.2127148"><ele>688.3333333333334</ele><time>2026-04-05T08:52:20.591Z</time></trkpt><trkpt lat="43.7214818" lon="12.2128469"><ele>688.6666666666666</ele><time>2026-04-05T08:52:21.591Z</time></trkpt><trkpt lat="43.7216774" lon="12.2129814"><ele>689.0</ele><time>2026-04-05T08:52:22.59Z</time></trkpt><trkpt lat="43.7218558" lon="12.213105"><ele>692.6666666666666</ele><time>2026-04-05T08:52:23.591Z</time></trkpt><trkpt lat="43.7220204" lon="12.2132246"><ele>696.3333333333334</ele><time>2026-04-05T08:52:24.591Z</time></trkpt><trkpt lat="43.7221679" lon="12.2133351"><ele>700.0</ele><time>2026-04-05T08:52:25.591Z</time></trkpt><trkpt lat="43.7223031" lon="12.2134053"><ele>700.0</ele><time>2026-04-05T08:52:26.59Z</time></trkpt><trkpt lat="43.7224293" lon="12.2134142"><ele>700.0</ele><time>2026-04-05T08:52:27.591Z</time></trkpt><trkpt lat="43.7225458" lon="12.2133631"><ele>700.0</ele><time>2026-04-05T08:52:28.591Z</time></trkpt><trkpt lat="43.7226473" lon="12.2132494"><ele>700.0</ele><time>2026-04-05T08:52:29.591Z</time></trkpt><trkpt lat="43.7227203" lon="12.2130775"><ele>705.6666666666667</ele><time>2026-04-05T08:52:30.591Z</time></trkpt><trkpt lat="43.7227727" lon="12.2128676"><ele>711.3333333333334</ele><time>2026-04-05T08:52:31.59Z</time></trkpt><trkpt lat="43.7228355" lon="12.2126514"><ele>717.0</ele><time>2026-04-05T08:52:32.591Z</time></trkpt><trkpt lat="43.7229398" lon="12.2124419"><ele>712.3333333333334</ele><time>2026-04-05T08:52:33.591Z</time></trkpt><trkpt lat="43.7230697" lon="12.2122399"><ele>707.6666666666667</ele><time>2026-04-05T08:52:34.59Z</time></trkpt><trkpt lat="43.7231936" lon="12.2120539"><ele>703.0</ele><time>2026-04-05T08:52:35.591Z</time></trkpt><trkpt lat="43.7232963" lon="12.2118959"><ele>703.0</ele><time>2026-04-05T08:52:36.591Z</time></trkpt><trkpt lat="43.7233999" lon="12.2117675"><ele>703.0</ele><time>2026-04-05T08:52:37.591Z</time></trkpt><trkpt lat="43.7235065" lon="12.211684"><ele>703.0</ele><time>2026-04-05T08:52:38.59Z</time></trkpt><trkpt lat="43.7236338" lon="12.2116618"><ele>703.0</ele><time>2026-04-05T08:52:39.59Z</time></trkpt><trkpt lat="43.723788" lon="12.2117074"><ele>705.6666666666667</ele><time>2026-04-05T08:52:40.59Z</time></trkpt><trkpt lat="43.7239617" lon="12.2118172"><ele>708.3333333333334</ele><time>2026-04-05T08:52:41.59Z</time></trkpt><trkpt lat="43.7241443" lon="12.211947"><ele>711.0</ele><time>2026-04-05T08:52:42.59Z</time></trkpt><trkpt lat="43.724333" lon="12.2120819"><ele>712.0</ele><time>2026-04-05T08:52:43.591Z</time></trkpt><trkpt lat="43.7245265" lon="12.2122319"><ele>713.0</ele><time>2026-04-05T08:52:44.591Z</time></trkpt><trkpt lat="43.7247133" lon="12.2123953"><ele>714.0</ele><time>2026-04-05T08:52:45.591Z</time></trkpt><trkpt lat="43.7248827" lon="12.2125511"><ele>716.0</ele><time>2026-04-05T08:52:46.59Z</time></trkpt><trkpt lat="43.7250365" lon="12.2126937"><ele>718.0</ele><time>2026-04-05T08:52:47.59Z</time></trkpt><trkpt lat="43.7251773" lon="12.2128237"><ele>720.0</ele><time>2026-04-05T08:52:48.59Z</time></trkpt><trkpt lat="43.7253021" lon="12.2129479"><ele>720.25</ele><time>2026-04-05T08:52:49.59Z</time></trkpt><trkpt lat="43.7254197" lon="12.2130689"><ele>720.5</ele><time>2026-04-05T08:52:50.59Z</time></trkpt><trkpt lat="43.7255258" lon="12.2131994"><ele>720.75</ele><time>2026-04-05T08:52:51.591Z</time></trkpt><trkpt lat="43.725606" lon="12.213347"><ele>721.0</ele><time>2026-04-05T08:52:52.591Z</time></trkpt><trkpt lat="43.7256515" lon="12.2135144"><ele>723.0</ele><time>2026-04-05T08:52:53.591Z</time></trkpt><trkpt lat="43.7256457" lon="12.2137044"><ele>725.0</ele><time>2026-04-05T08:52:54.591Z</time></trkpt><trkpt lat="43.7255893" lon="12.2138991"><ele>727.0</ele><time>2026-04-05T08:52:55.59Z</time></trkpt><trkpt lat="43.7254897" lon="12.2140803"><ele>728.6666666666667</ele><time>2026-04-05T08:52:56.591Z</time></trkpt><trkpt lat="43.725343" lon="12.2142314"><ele>730.3333333333334</ele><time>2026-04-05T08:52:57.591Z</time></trkpt><trkpt lat="43.7251681" lon="12.214366"><ele>732.0</ele><time>2026-04-05T08:52:58.591Z</time></trkpt><trkpt lat="43.7249971" lon="12.2144988"><ele>732.0</ele><time>2026-04-05T08:52:59.591Z</time></trkpt><trkpt lat="43.7248526" lon="12.2146228"><ele>732.0</ele><time>2026-04-05T08:53:00.591Z</time></trkpt><trkpt lat="43.724716" lon="12.2147466"><ele>732.0</ele><time>2026-04-05T08:53:01.591Z</time></trkpt><trkpt lat="43.7245944" lon="12.2149075"><ele>732.6666666666666</ele><time>2026-04-05T08:53:02.591Z</time></trkpt><trkpt lat="43.7244925" lon="12.2151145"><ele>733.3333333333333</ele><time>2026-04-05T08:53:03.59Z</time></trkpt><trkpt lat="43.72441" lon="12.215362"><ele>734.0</ele><time>2026-04-05T08:53:04.591Z</time></trkpt><trkpt lat="43.7243202" lon="12.2156145"><ele>737.6666666666666</ele><time>2026-04-05T08:53:05.59Z</time></trkpt><trkpt lat="43.7242108" lon="12.2158227"><ele>741.3333333333334</ele><time>2026-04-05T08:53:06.591Z</time></trkpt><trkpt lat="43.7240911" lon="12.2159869"><ele>745.0</ele><time>2026-04-05T08:53:07.59Z</time></trkpt><trkpt lat="43.7239696" lon="12.2161261"><ele>745.0</ele><time>2026-04-05T08:53:08.591Z</time></trkpt><trkpt lat="43.7238627" lon="12.2162711"><ele>745.0</ele><time>2026-04-05T08:53:09.591Z</time></trkpt><trkpt lat="43.7237719" lon="12.2164604"><ele>745.0</ele><time>2026-04-05T08:53:10.591Z</time></trkpt><trkpt lat="43.7237028" lon="12.2167026"><ele>748.6666666666667</ele><time>2026-04-05T08:53:11.591Z</time></trkpt><trkpt lat="43.7236539" lon="12.2169446"><ele>752.3333333333334</ele><time>2026-04-05T08:53:12.59Z</time></trkpt><trkpt lat="43.7236144" lon="12.2171671"><ele>756.0</ele><time>2026-04-05T08:53:13.591Z</time></trkpt><trkpt lat="43.7235743" lon="12.2174008"><ele>755.6666666666666</ele><time>2026-04-05T08:53:14.591Z</time></trkpt><trkpt lat="43.7235528" lon="12.2176683"><ele>755.3333333333333</ele><time>2026-04-05T08:53:15.591Z</time></trkpt><trkpt lat="43.7235394" lon="12.2179354"><ele>755.0</ele><time>2026-04-05T08:53:16.59Z</time></trkpt><trkpt lat="43.723535" lon="12.2181767"><ele>755.0</ele><time>2026-04-05T08:53:17.59Z</time></trkpt><trkpt lat="43.7235283" lon="12.218388"><ele>755.0</ele><time>2026-04-05T08:53:18.591Z</time></trkpt><trkpt lat="43.7235166" lon="12.2185849"><ele>755.0</ele><time>2026-04-05T08:53:19.591Z</time></trkpt><trkpt lat="43.723479" lon="12.2187672"><ele>755.0</ele><time>2026-04-05T08:53:20.59Z</time></trkpt><trkpt lat="43.7233865" lon="12.2189414"><ele>759.0</ele><time>2026-04-05T08:53:21.591Z</time></trkpt><trkpt lat="43.7232599" lon="12.2191049"><ele>763.0</ele><time>2026-04-05T08:53:22.59Z</time></trkpt><trkpt lat="43.7231312" lon="12.2192375"><ele>767.0</ele><time>2026-04-05T08:53:23.591Z</time></trkpt><trkpt lat="43.7229961" lon="12.2193312"><ele>767.0</ele><time>2026-04-05T08:53:24.591Z</time></trkpt><trkpt lat="43.7228467" lon="12.2193766"><ele>767.0</ele><time>2026-04-05T08:53:25.591Z</time></trkpt><trkpt lat="43.722684" lon="12.2193718"><ele>767.0</ele><time>2026-04-05T08:53:26.591Z</time></trkpt><trkpt lat="43.7225118" lon="12.2193162"><ele>767.0</ele><time>2026-04-05T08:53:27.59Z</time></trkpt><trkpt lat="43.7223451" lon="12.219202"><ele>767.0</ele><time>2026-04-05T08:53:28.591Z</time></trkpt><trkpt lat="43.7221999" lon="12.219063"><ele>767.0</ele><time>2026-04-05T08:53:29.591Z</time></trkpt><trkpt lat="43.7220726" lon="12.2189414"><ele>767.5</ele><time>2026-04-05T08:53:30.59Z</time></trkpt><trkpt lat="43.7219558" lon="12.2188751"><ele>768.0</ele><time>2026-04-05T08:53:31.591Z</time></trkpt><trkpt lat="43.721823" lon="12.218878"><ele>768.5</ele><time>2026-04-05T08:53:32.591Z</time></trkpt><trkpt lat="43.7217" lon="12.2189511"><ele>769.0</ele><time>2026-04-05T08:53:33.59Z</time></trkpt><trkpt lat="43.721587" lon="12.219091"><ele>769.3333333333333</ele><time>2026-04-05T08:53:34.591Z</time></trkpt><trkpt lat="43.7214947" lon="12.2192899"><ele>769.6666666666667</ele><time>2026-04-05T08:53:35.591Z</time></trkpt><trkpt lat="43.7214194" lon="12.2194934"><ele>770.0</ele><time>2026-04-05T08:53:36.591Z</time></trkpt><trkpt lat="43.7213713" lon="12.2196898"><ele>772.25</ele><time>2026-04-05T08:53:37.59Z</time></trkpt><trkpt lat="43.721363" lon="12.2198822"><ele>774.5</ele><time>2026-04-05T08:53:38.591Z</time></trkpt><trkpt lat="43.7214016" lon="12.2200768"><ele>776.75</ele><time>2026-04-05T08:53:39.59Z</time></trkpt><trkpt lat="43.7214571" lon="12.2202709"><ele>779.0</ele><time>2026-04-05T08:53:40.591Z</time></trkpt><trkpt lat="43.721493" lon="12.2204546"><ele>779.0</ele><time>2026-04-05T08:53:41.591Z</time></trkpt><trkpt lat="43.7214894" lon="12.2206358"><ele>779.0</ele><time>2026-04-05T08:53:42.591Z</time></trkpt><trkpt lat="43.721438" lon="12.2208088"><ele>779.0</ele><time>2026-04-05T08:53:43.591Z</time></trkpt><trkpt lat="43.7213432" lon="12.220963"><ele>779.0</ele><time>2026-04-05T08:53:44.591Z</time></trkpt><trkpt lat="43.7212117" lon="12.2210931"><ele>778.3333333333334</ele><time>2026-04-05T08:53:45.591Z</time></trkpt><trkpt lat="43.7210626" lon="12.2211974"><ele>777.6666666666667</ele><time>2026-04-05T08:53:46.591Z</time></trkpt><trkpt lat="43.7209066" lon="12.2212672"><ele>777.0</ele><time>2026-04-05T08:53:47.591Z</time></trkpt><trkpt lat="43.7207597" lon="12.2213234"><ele>777.0</ele><time>2026-04-05T08:53:48.59Z</time></trkpt><trkpt lat="43.7206178" lon="12.2214056"><ele>777.0</ele><time>2026-04-05T08:53:49.591Z</time></trkpt><trkpt lat="43.7204791" lon="12.2215379"><ele>777.0</ele><time>2026-04-05T08:53:50.591Z</time></trkpt><trkpt lat="43.7203443" lon="12.2217059"><ele>777.0</ele><time>2026-04-05T08:53:51.591Z</time></trkpt><trkpt lat="43.7202096" lon="12.2218775"><ele>777.0</ele><time>2026-04-05T08:53:52.59Z</time></trkpt><trkpt lat="43.7200845" lon="12.222034"><ele>777.0</ele><time>2026-04-05T08:53:53.59Z</time></trkpt><trkpt lat="43.7199722" lon="12.2221711"><ele>777.0</ele><time>2026-04-05T08:53:54.591Z</time></trkpt><trkpt lat="43.7198775" lon="12.2222796"><ele>777.0</ele><time>2026-04-05T08:53:55.591Z</time></trkpt><trkpt lat="43.7197997" lon="12.222369"><ele>777.0</ele><time>2026-04-05T08:53:56.591Z</time></trkpt><trkpt lat="43.7197414" lon="12.2224597"><ele>777.0</ele><time>2026-04-05T08:53:57.591Z</time></trkpt><trkpt lat="43.719723" lon="12.2225572"><ele>777.0</ele><time>2026-04-05T08:53:58.591Z</time></trkpt><trkpt lat="43.7197328" lon="12.2226659"><ele>778.6</ele><time>2026-04-05T08:53:59.591Z</time></trkpt><trkpt lat="43.7197709" lon="12.2227617"><ele>780.2</ele><time>2026-04-05T08:54:00.591Z</time></trkpt><trkpt lat="43.7198494" lon="12.2228172"><ele>781.8</ele><time>2026-04-05T08:54:01.591Z</time></trkpt><trkpt lat="43.7199559" lon="12.2228313"><ele>783.4</ele><time>2026-04-05T08:54:02.591Z</time></trkpt><trkpt lat="43.720071" lon="12.2228118"><ele>785.0</ele><time>2026-04-05T08:54:03.591Z</time></trkpt><trkpt lat="43.7202079" lon="12.2227512"><ele>787.0</ele><time>2026-04-05T08:54:04.591Z</time></trkpt><trkpt lat="43.7203507" lon="12.2226557"><ele>789.0</ele><time>2026-04-05T08:54:05.591Z</time></trkpt><trkpt lat="43.7204825" lon="12.2225644"><ele>791.0</ele><time>2026-04-05T08:54:06.59Z</time></trkpt><trkpt lat="43.7206106" lon="12.2225161"><ele>793.0</ele><time>2026-04-05T08:54:07.59Z</time></trkpt><trkpt lat="43.7207412" lon="12.2225174"><ele>793.0</ele><time>2026-04-05T08:54:08.59Z</time></trkpt><trkpt lat="43.7208861" lon="12.2225476"><ele>793.0</ele><time>2026-04-05T08:54:09.591Z</time></trkpt><trkpt lat="43.7210463" lon="12.2225884"><ele>793.0</ele><time>2026-04-05T08:54:10.591Z</time></trkpt><trkpt lat="43.7212232" lon="12.2226436"><ele>795.6666666666666</ele><time>2026-04-05T08:54:11.591Z</time></trkpt><trkpt lat="43.7214016" lon="12.2226976"><ele>798.3333333333333</ele><time>2026-04-05T08:54:12.591Z</time></trkpt><trkpt lat="43.7215683" lon="12.2227526"><ele>801.0</ele><time>2026-04-05T08:54:13.591Z</time></trkpt><trkpt lat="43.7217258" lon="12.222789"><ele>801.0</ele><time>2026-04-05T08:54:14.591Z</time></trkpt><trkpt lat="43.7218727" lon="12.2228162"><ele>801.0</ele><time>2026-04-05T08:54:15.591Z</time></trkpt><trkpt lat="43.7220058" lon="12.2228462"><ele>801.0</ele><time>2026-04-05T08:54:16.591Z</time></trkpt><trkpt lat="43.7221325" lon="12.2229006"><ele>801.0</ele><time>2026-04-05T08:54:17.591Z</time></trkpt><trkpt lat="43.7222564" lon="12.2229991"><ele>801.5</ele><time>2026-04-05T08:54:18.591Z</time></trkpt><trkpt lat="43.7223645" lon="12.2231241"><ele>802.0</ele><time>2026-04-05T08:54:19.591Z</time></trkpt><trkpt lat="43.7224545" lon="12.2232802"><ele>802.5</ele><time>2026-04-05T08:54:20.591Z</time></trkpt><trkpt lat="43.7225252" lon="12.2234746"><ele>803.0</ele><time>2026-04-05T08:54:21.591Z</time></trkpt><trkpt lat="43.7225762" lon="12.2237038"><ele>803.0</ele><time>2026-04-05T08:54:22.591Z</time></trkpt><trkpt lat="43.7226221" lon="12.2239553"><ele>803.0</ele><time>2026-04-05T08:54:23.591Z</time></trkpt><trkpt lat="43.7226666" lon="12.2242057"><ele>803.0</ele><time>2026-04-05T08:54:24.591Z</time></trkpt><trkpt lat="43.7227137" lon="12.2244425"><ele>808.0</ele><time>2026-04-05T08:54:25.591Z</time></trkpt><trkpt lat="43.7227531" lon="12.224659"><ele>813.0</ele><time>2026-04-05T08:54:26.591Z</time></trkpt><trkpt lat="43.7227946" lon="12.224857"><ele>818.0</ele><time>2026-04-05T08:54:27.591Z</time></trkpt><trkpt lat="43.7228468" lon="12.225048"><ele>818.0</ele><time>2026-04-05T08:54:28.591Z</time></trkpt><trkpt lat="43.7229248" lon="12.2252341"><ele>818.0</ele><time>2026-04-05T08:54:29.591Z</time></trkpt><trkpt lat="43.7230339" lon="12.2254049"><ele>818.0</ele><time>2026-04-05T08:54:30.591Z</time></trkpt><trkpt lat="43.7231755" lon="12.2255639"><ele>818.3333333333334</ele><time>2026-04-05T08:54:31.591Z</time></trkpt><trkpt lat="43.7233416" lon="12.2257299"><ele>818.6666666666667</ele><time>2026-04-05T08:54:32.591Z</time></trkpt><trkpt lat="43.7235139" lon="12.2259005"><ele>819.0</ele><time>2026-04-05T08:54:33.591Z</time></trkpt><trkpt lat="43.7236739" lon="12.2260811"><ele>819.0</ele><time>2026-04-05T08:54:34.591Z</time></trkpt><trkpt lat="43.7238142" lon="12.2262922"><ele>819.0</ele><time>2026-04-05T08:54:35.591Z</time></trkpt><trkpt lat="43.7239256" lon="12.2265434"><ele>819.0</ele><time>2026-04-05T08:54:36.591Z</time></trkpt><trkpt lat="43.7240231" lon="12.2268293"><ele>813.0</ele><time>2026-04-05T08:54:37.59Z</time></trkpt><trkpt lat="43.7241092" lon="12.227122"><ele>807.0</ele><time>2026-04-05T08:54:38.591Z</time></trkpt><trkpt lat="43.7241835" lon="12.227417"><ele>806.0</ele><time>2026-04-05T08:54:39.591Z</time></trkpt><trkpt lat="43.7242192" lon="12.2277135"><ele>805.0</ele><time>2026-04-05T08:54:40.591Z</time></trkpt><trkpt lat="43.7242125" lon="12.2280209"><ele>804.0</ele><time>2026-04-05T08:54:41.591Z</time></trkpt><trkpt lat="43.724186" lon="12.2283296"><ele>804.0</ele><time>2026-04-05T08:54:42.591Z</time></trkpt><trkpt lat="43.724156" lon="12.228642"><ele>804.0</ele><time>2026-04-05T08:54:43.591Z</time></trkpt><trkpt lat="43.7241228" lon="12.2289527"><ele>804.6666666666667</ele><time>2026-04-05T08:54:44.591Z</time></trkpt><trkpt lat="43.7240894" lon="12.2292521"><ele>805.3333333333334</ele><time>2026-04-05T08:54:45.591Z</time></trkpt><trkpt lat="43.7240573" lon="12.2295321"><ele>806.0</ele><time>2026-04-05T08:54:46.591Z</time></trkpt><trkpt lat="43.7240265" lon="12.2298003"><ele>805.6666666666667</ele><time>2026-04-05T08:54:47.591Z</time></trkpt><trkpt lat="43.7239768" lon="12.2300522"><ele>805.3333333333333</ele><time>2026-04-05T08:54:48.591Z</time></trkpt><trkpt lat="43.7238842" lon="12.2302972"><ele>805.0</ele><time>2026-04-05T08:54:49.591Z</time></trkpt><trkpt lat="43.7237625" lon="12.23053"><ele>807.0</ele><time>2026-04-05T08:54:50.591Z</time></trkpt><trkpt lat="43.7236299" lon="12.2307493"><ele>809.0</ele><time>2026-04-05T08:54:51.591Z</time></trkpt><trkpt lat="43.7235079" lon="12.2309469"><ele>811.0</ele><time>2026-04-05T08:54:52.591Z</time></trkpt><trkpt lat="43.7234048" lon="12.2311226"><ele>808.25</ele><time>2026-04-05T08:54:53.591Z</time></trkpt><trkpt lat="43.7233235" lon="12.2312728"><ele>805.5</ele><time>2026-04-05T08:54:54.59Z</time></trkpt><trkpt lat="43.7232789" lon="12.2314301"><ele>802.75</ele><time>2026-04-05T08:54:55.59Z</time></trkpt><trkpt lat="43.7232712" lon="12.2316186"><ele>800.0</ele><time>2026-04-05T08:54:56.591Z</time></trkpt><trkpt lat="43.7232965" lon="12.2318363"><ele>800.0</ele><time>2026-04-05T08:54:57.591Z</time></trkpt><trkpt lat="43.7233413" lon="12.2320666"><ele>800.0</ele><time>2026-04-05T08:54:58.591Z</time></trkpt><trkpt lat="43.7233873" lon="12.2322978"><ele>800.0</ele><time>2026-04-05T08:54:59.59Z</time></trkpt><trkpt lat="43.7233986" lon="12.2325406"><ele>800.3333333333334</ele><time>2026-04-05T08:55:00.59Z</time></trkpt><trkpt lat="43.7233624" lon="12.2328002"><ele>800.6666666666667</ele><time>2026-04-05T08:55:01.59Z</time></trkpt><trkpt lat="43.7232966" lon="12.2330693"><ele>801.0</ele><time>2026-04-05T08:55:02.591Z</time></trkpt><trkpt lat="43.7232167" lon="12.2333541"><ele>803.5</ele><time>2026-04-05T08:55:03.59Z</time></trkpt><trkpt lat="43.7231324" lon="12.2336636"><ele>806.0</ele><time>2026-04-05T08:55:04.591Z</time></trkpt><trkpt lat="43.7230587" lon="12.2339704"><ele>807.0</ele><time>2026-04-05T08:55:05.591Z</time></trkpt><trkpt lat="43.7229855" lon="12.2342632"><ele>808.0</ele><time>2026-04-05T08:55:06.59Z</time></trkpt><trkpt lat="43.7229228" lon="12.2345205"><ele>809.0</ele><time>2026-04-05T08:55:07.591Z</time></trkpt><trkpt lat="43.7228644" lon="12.2347416"><ele>809.5</ele><time>2026-04-05T08:55:08.591Z</time></trkpt><trkpt lat="43.722813" lon="12.2349156"><ele>810.0</ele><time>2026-04-05T08:55:09.591Z</time></trkpt><trkpt lat="43.7227463" lon="12.2350617"><ele>810.5</ele><time>2026-04-05T08:55:10.591Z</time></trkpt><trkpt lat="43.7226511" lon="12.2351725"><ele>811.0</ele><time>2026-04-05T08:55:11.59Z</time></trkpt><trkpt lat="43.7225274" lon="12.2352363"><ele>809.5</ele><time>2026-04-05T08:55:12.591Z</time></trkpt><trkpt lat="43.7223973" lon="12.2352341"><ele>808.0</ele><time>2026-04-05T08:55:13.591Z</time></trkpt><trkpt lat="43.7222773" lon="12.2351789"><ele>806.5</ele><time>2026-04-05T08:55:14.59Z</time></trkpt><trkpt lat="43.7221558" lon="12.2350718"><ele>805.0</ele><time>2026-04-05T08:55:15.591Z</time></trkpt><trkpt lat="43.7220463" lon="12.2349083"><ele>803.0</ele><time>2026-04-05T08:55:16.59Z</time></trkpt><trkpt lat="43.7219373" lon="12.2347571"><ele>801.0</ele><time>2026-04-05T08:55:17.59Z</time></trkpt><trkpt lat="43.7218179" lon="12.2346439"><ele>799.0</ele><time>2026-04-05T08:55:18.591Z</time></trkpt><trkpt lat="43.7216819" lon="12.2345966"><ele>797.0</ele><time>2026-04-05T08:55:19.591Z</time></trkpt><trkpt lat="43.7215471" lon="12.2346192"><ele>796.5</ele><time>2026-04-05T08:55:20.591Z</time></trkpt><trkpt lat="43.7214172" lon="12.2346662"><ele>796.0</ele><time>2026-04-05T08:55:21.591Z</time></trkpt><trkpt lat="43.7213031" lon="12.2346671"><ele>795.5</ele><time>2026-04-05T08:55:22.591Z</time></trkpt><trkpt lat="43.7211983" lon="12.2346193"><ele>795.0</ele><time>2026-04-05T08:55:23.591Z</time></trkpt><trkpt lat="43.7211085" lon="12.2345183"><ele>797.5</ele><time>2026-04-05T08:55:24.591Z</time></trkpt><trkpt lat="43.7210148" lon="12.2344088"><ele>800.0</ele><time>2026-04-05T08:55:25.59Z</time></trkpt><trkpt lat="43.7208953" lon="12.2343253"><ele>802.5</ele><time>2026-04-05T08:55:26.591Z</time></trkpt><trkpt lat="43.7207423" lon="12.2342607"><ele>805.0</ele><time>2026-04-05T08:55:27.59Z</time></trkpt><trkpt lat="43.7205656" lon="12.2342046"><ele>805.0</ele><time>2026-04-05T08:55:28.59Z</time></trkpt><trkpt lat="43.7203778" lon="12.2341506"><ele>805.0</ele><time>2026-04-05T08:55:29.591Z</time></trkpt><trkpt lat="43.7201959" lon="12.2341032"><ele>805.0</ele><time>2026-04-05T08:55:30.591Z</time></trkpt><trkpt lat="43.7200216" lon="12.2340567"><ele>806.6666666666666</ele><time>2026-04-05T08:55:31.59Z</time></trkpt><trkpt lat="43.7198507" lon="12.2340144"><ele>808.3333333333333</ele><time>2026-04-05T08:55:32.591Z</time></trkpt><trkpt lat="43.7196956" lon="12.2339713"><ele>810.0</ele><time>2026-04-05T08:55:33.591Z</time></trkpt><trkpt lat="43.7195535" lon="12.2339295"><ele>809.25</ele><time>2026-04-05T08:55:34.59Z</time></trkpt><trkpt lat="43.7194205" lon="12.2338911"><ele>808.5</ele><time>2026-04-05T08:55:35.591Z</time></trkpt><trkpt lat="43.7192835" lon="12.2339021"><ele>807.75</ele><time>2026-04-05T08:55:36.591Z</time></trkpt><trkpt lat="43.7191464" lon="12.233973"><ele>807.0</ele><time>2026-04-05T08:55:37.591Z</time></trkpt><trkpt lat="43.7190036" lon="12.2341062"><ele>807.0</ele><time>2026-04-05T08:55:38.59Z</time></trkpt><trkpt lat="43.7188725" lon="12.2342745"><ele>807.0</ele><time>2026-04-05T08:55:39.591Z</time></trkpt><trkpt lat="43.7187428" lon="12.2344487"><ele>807.0</ele><time>2026-04-05T08:55:40.591Z</time></trkpt><trkpt lat="43.7186257" lon="12.2346148"><ele>805.6666666666667</ele><time>2026-04-05T08:55:41.591Z</time></trkpt><trkpt lat="43.7185201" lon="12.2347936"><ele>804.3333333333334</ele><time>2026-04-05T08:55:42.59Z</time></trkpt><trkpt lat="43.7184361" lon="12.2350031"><ele>803.0</ele><time>2026-04-05T08:55:43.591Z</time></trkpt><trkpt lat="43.7183729" lon="12.2352382"><ele>803.0</ele><time>2026-04-05T08:55:44.591Z</time></trkpt><trkpt lat="43.7183161" lon="12.2354815"><ele>803.0</ele><time>2026-04-05T08:55:45.591Z</time></trkpt><trkpt lat="43.7182482" lon="12.2357059"><ele>803.0</ele><time>2026-04-05T08:55:46.59Z</time></trkpt><trkpt lat="43.718165" lon="12.2359062"><ele>802.6666666666667</ele><time>2026-04-05T08:55:47.591Z</time></trkpt><trkpt lat="43.7180498" lon="12.236091"><ele>802.3333333333333</ele><time>2026-04-05T08:55:48.59Z</time></trkpt><trkpt lat="43.7179007" lon="12.2362456"><ele>802.0</ele><time>2026-04-05T08:55:49.591Z</time></trkpt><trkpt lat="43.7177285" lon="12.2363778"><ele>805.3333333333333</ele><time>2026-04-05T08:55:50.591Z</time></trkpt><trkpt lat="43.7175427" lon="12.2364996"><ele>808.6666666666667</ele><time>2026-04-05T08:55:51.591Z</time></trkpt><trkpt lat="43.7173651" lon="12.2366184"><ele>812.0</ele><time>2026-04-05T08:55:52.59Z</time></trkpt><trkpt lat="43.7172156" lon="12.2367314"><ele>812.0</ele><time>2026-04-05T08:55:53.59Z</time></trkpt><trkpt lat="43.7171017" lon="12.2368331"><ele>812.0</ele><time>2026-04-05T08:55:54.591Z</time></trkpt><trkpt lat="43.7170211" lon="12.236937"><ele>812.0</ele><time>2026-04-05T08:55:55.591Z</time></trkpt><trkpt lat="43.7169846" lon="12.2370694"><ele>812.0</ele><time>2026-04-05T08:55:56.591Z</time></trkpt><trkpt lat="43.7169895" lon="12.2372224"><ele>815.25</ele><time>2026-04-05T08:55:57.59Z</time></trkpt><trkpt lat="43.7170368" lon="12.2373701"><ele>818.5</ele><time>2026-04-05T08:55:58.591Z</time></trkpt><trkpt lat="43.7171114" lon="12.237477"><ele>821.75</ele><time>2026-04-05T08:55:59.591Z</time></trkpt><trkpt lat="43.7172189" lon="12.2375303"><ele>825.0</ele><time>2026-04-05T08:56:00.59Z</time></trkpt><trkpt lat="43.717355" lon="12.2375199"><ele>825.0</ele><time>2026-04-05T08:56:01.591Z</time></trkpt><trkpt lat="43.7175201" lon="12.2374324"><ele>825.0</ele><time>2026-04-05T08:56:02.59Z</time></trkpt><trkpt lat="43.7176779" lon="12.2373122"><ele>825.0</ele><time>2026-04-05T08:56:03.591Z</time></trkpt><trkpt lat="43.7178117" lon="12.2372254"><ele>823.8</ele><time>2026-04-05T08:56:04.591Z</time></trkpt><trkpt lat="43.7179268" lon="12.237187"><ele>822.6</ele><time>2026-04-05T08:56:05.591Z</time></trkpt><trkpt lat="43.7180259" lon="12.2372151"><ele>821.4000000000001</ele><time>2026-04-05T08:56:06.591Z</time></trkpt><trkpt lat="43.7180855" lon="12.2373097"><ele>820.2</ele><time>2026-04-05T08:56:07.591Z</time></trkpt><trkpt lat="43.7181051" lon="12.2374504"><ele>819.0</ele><time>2026-04-05T08:56:08.591Z</time></trkpt><trkpt lat="43.7180833" lon="12.2375928"><ele>820.5</ele><time>2026-04-05T08:56:09.591Z</time></trkpt><trkpt lat="43.7180038" lon="12.2377127"><ele>822.0</ele><time>2026-04-05T08:56:10.59Z</time></trkpt><trkpt lat="43.7178802" lon="12.2377901"><ele>823.5</ele><time>2026-04-05T08:56:11.591Z</time></trkpt><trkpt lat="43.7177312" lon="12.2378164"><ele>825.0</ele><time>2026-04-05T08:56:12.591Z</time></trkpt><trkpt lat="43.7175744" lon="12.2378264"><ele>825.0</ele><time>2026-04-05T08:56:13.591Z</time></trkpt><trkpt lat="43.7174291" lon="12.2378679"><ele>825.0</ele><time>2026-04-05T08:56:14.59Z</time></trkpt><trkpt lat="43.7173054" lon="12.2379806"><ele>825.0</ele><time>2026-04-05T08:56:15.591Z</time></trkpt><trkpt lat="43.7172129" lon="12.2381593"><ele>829.3333333333333</ele><time>2026-04-05T08:56:16.591Z</time></trkpt><trkpt lat="43.7171433" lon="12.2383838"><ele>833.6666666666666</ele><time>2026-04-05T08:56:17.591Z</time></trkpt><trkpt lat="43.7170732" lon="12.2386072"><ele>838.0</ele><time>2026-04-05T08:56:18.591Z</time></trkpt><trkpt lat="43.7169794" lon="12.2387827"><ele>834.6666666666666</ele><time>2026-04-05T08:56:19.591Z</time></trkpt><trkpt lat="43.7168516" lon="12.2388855"><ele>831.3333333333333</ele><time>2026-04-05T08:56:20.59Z</time></trkpt><trkpt lat="43.7166994" lon="12.2389312"><ele>828.0</ele><time>2026-04-05T08:56:21.59Z</time></trkpt><trkpt lat="43.7165298" lon="12.2389358"><ele>828.0</ele><time>2026-04-05T08:56:22.591Z</time></trkpt><trkpt lat="43.7163545" lon="12.238932"><ele>828.0</ele><time>2026-04-05T08:56:23.591Z</time></trkpt><trkpt lat="43.7161941" lon="12.2389333"><ele>828.0</ele><time>2026-04-05T08:56:24.59Z</time></trkpt><trkpt lat="43.7160549" lon="12.2389439"><ele>830.5</ele><time>2026-04-05T08:56:25.591Z</time></trkpt><trkpt lat="43.715932" lon="12.238992"><ele>833.0</ele><time>2026-04-05T08:56:26.591Z</time></trkpt><trkpt lat="43.7158338" lon="12.23911"><ele>835.5</ele><time>2026-04-05T08:56:27.591Z</time></trkpt><trkpt lat="43.715766" lon="12.2392779"><ele>838.0</ele><time>2026-04-05T08:56:28.591Z</time></trkpt><trkpt lat="43.7157428" lon="12.239484"><ele>838.0</ele><time>2026-04-05T08:56:29.591Z</time></trkpt><trkpt lat="43.7157544" lon="12.239725"><ele>838.0</ele><time>2026-04-05T08:56:30.591Z</time></trkpt><trkpt lat="43.7157719" lon="12.2399944"><ele>838.0</ele><time>2026-04-05T08:56:31.591Z</time></trkpt><trkpt lat="43.7157903" lon="12.2402626"><ele>841.0</ele><time>2026-04-05T08:56:32.591Z</time></trkpt><trkpt lat="43.715795" lon="12.2405212"><ele>844.0</ele><time>2026-04-05T08:56:33.591Z</time></trkpt><trkpt lat="43.7157708" lon="12.2407746"><ele>847.0</ele><time>2026-04-05T08:56:34.591Z</time></trkpt><trkpt lat="43.715725" lon="12.2410378"><ele>850.6666666666666</ele><time>2026-04-05T08:56:35.591Z</time></trkpt><trkpt lat="43.7156678" lon="12.2413084"><ele>854.3333333333333</ele><time>2026-04-05T08:56:36.59Z</time></trkpt><trkpt lat="43.7156122" lon="12.2415817"><ele>858.0</ele><time>2026-04-05T08:56:37.591Z</time></trkpt><trkpt lat="43.7155644" lon="12.2418332"><ele>860.0</ele><time>2026-04-05T08:56:38.591Z</time></trkpt><trkpt lat="43.7155229" lon="12.2420616"><ele>862.0</ele><time>2026-04-05T08:56:39.59Z</time></trkpt><trkpt lat="43.7154908" lon="12.2422631"><ele>864.0</ele><time>2026-04-05T08:56:40.591Z</time></trkpt><trkpt lat="43.7154629" lon="12.2424425"><ele>865.25</ele><time>2026-04-05T08:56:41.59Z</time></trkpt><trkpt lat="43.7154569" lon="12.2426078"><ele>866.5</ele><time>2026-04-05T08:56:42.591Z</time></trkpt><trkpt lat="43.7154844" lon="12.2427643"><ele>867.75</ele><time>2026-04-05T08:56:43.591Z</time></trkpt><trkpt lat="43.7155446" lon="12.2428949"><ele>869.0</ele><time>2026-04-05T08:56:44.591Z</time></trkpt><trkpt lat="43.7156311" lon="12.2429903"><ele>869.0</ele><time>2026-04-05T08:56:45.591Z</time></trkpt><trkpt lat="43.7157445" lon="12.2430309"><ele>869.0</ele><time>2026-04-05T08:56:46.591Z</time></trkpt><trkpt lat="43.7158741" lon="12.2430148"><ele>869.0</ele><time>2026-04-05T08:56:47.591Z</time></trkpt><trkpt lat="43.7160153" lon="12.2429297"><ele>869.0</ele><time>2026-04-05T08:56:48.59Z</time></trkpt><trkpt lat="43.7161589" lon="12.24279"><ele>875.3333333333334</ele><time>2026-04-05T08:56:49.59Z</time></trkpt><trkpt lat="43.716285" lon="12.2426326"><ele>881.6666666666667</ele><time>2026-04-05T08:56:50.59Z</time></trkpt><trkpt lat="43.7163722" lon="12.2424649"><ele>888.0</ele><time>2026-04-05T08:56:51.591Z</time></trkpt><trkpt lat="43.7164219" lon="12.2422828"><ele>888.0</ele><time>2026-04-05T08:56:52.591Z</time></trkpt><trkpt lat="43.7164123" lon="12.2420929"><ele>888.0</ele><time>2026-04-05T08:56:53.59Z</time></trkpt><trkpt lat="43.7163567" lon="12.2418898"><ele>888.0</ele><time>2026-04-05T08:56:54.591Z</time></trkpt><trkpt lat="43.7162878" lon="12.2416972"><ele>888.0</ele><time>2026-04-05T08:56:55.591Z</time></trkpt><trkpt lat="43.716238" lon="12.2415206"><ele>888.0</ele><time>2026-04-05T08:56:56.591Z</time></trkpt><trkpt lat="43.7162125" lon="12.2413603"><ele>888.0</ele><time>2026-04-05T08:56:57.59Z</time></trkpt><trkpt lat="43.7162324" lon="12.2412013"><ele>888.0</ele><time>2026-04-05T08:56:58.59Z</time></trkpt><trkpt lat="43.716294" lon="12.2410569"><ele>885.75</ele><time>2026-04-05T08:56:59.59Z</time></trkpt><trkpt lat="43.7163953" lon="12.2409467"><ele>883.5</ele><time>2026-04-05T08:57:00.591Z</time></trkpt><trkpt lat="43.7165249" lon="12.2408558"><ele>881.25</ele><time>2026-04-05T08:57:01.591Z</time></trkpt><trkpt lat="43.7166747" lon="12.2407876"><ele>879.0</ele><time>2026-04-05T08:57:02.59Z</time></trkpt><trkpt lat="43.7168328" lon="12.2407273"><ele>882.3333333333333</ele><time>2026-04-05T08:57:03.59Z</time></trkpt><trkpt lat="43.7169978" lon="12.240688"><ele>885.6666666666666</ele><time>2026-04-05T08:57:04.591Z</time></trkpt><trkpt lat="43.7171772" lon="12.2406775"><ele>889.0</ele><time>2026-04-05T08:57:05.591Z</time></trkpt><trkpt lat="43.7173643" lon="12.2406972"><ele>889.0</ele><time>2026-04-05T08:57:06.59Z</time></trkpt><trkpt lat="43.7175476" lon="12.2407394"><ele>889.0</ele><time>2026-04-05T08:57:07.591Z</time></trkpt><trkpt lat="43.7177267" lon="12.24079"><ele>889.0</ele><time>2026-04-05T08:57:08.591Z</time></trkpt><trkpt lat="43.7178883" lon="12.2407883"><ele>889.0</ele><time>2026-04-05T08:57:09.591Z</time></trkpt><trkpt lat="43.718035" lon="12.2407717"><ele>889.0</ele><time>2026-04-05T08:57:10.591Z</time></trkpt><trkpt lat="43.7181583" lon="12.2407567"><ele>889.0</ele><time>2026-04-05T08:57:11.591Z</time></trkpt><trkpt lat="43.7182617" lon="12.2407733"><ele>889.0</ele><time>2026-04-05T08:57:12.591Z</time></trkpt><trkpt lat="43.71835" lon="12.2408183"><ele>889.0</ele><time>2026-04-05T08:57:13.59Z</time></trkpt><trkpt lat="43.7184167" lon="12.24091"><ele>889.0000000000001</ele><time>2026-04-05T08:57:14.59Z</time></trkpt><trkpt lat="43.7184433" lon="12.2410283"><ele>889.0000000000001</ele><time>2026-04-05T08:57:15.591Z</time></trkpt><trkpt lat="43.7184267" lon="12.2411567"><ele>889.0</ele><time>2026-04-05T08:57:16.591Z</time></trkpt><trkpt lat="43.7183383" lon="12.2412583"><ele>889.0</ele><time>2026-04-05T08:57:17.59Z</time></trkpt><trkpt lat="43.7182383" lon="12.2413083"><ele>889.0</ele><time>2026-04-05T08:57:18.591Z</time></trkpt><trkpt lat="43.7181" lon="12.2412867"><ele>889.0</ele><time>2026-04-05T08:57:19.591Z</time></trkpt><trkpt lat="43.7179333" lon="12.2412433"><ele>889.0</ele><time>2026-04-05T08:57:20.591Z</time></trkpt><trkpt lat="43.7177767" lon="12.24122"><ele>889.0</ele><time>2026-04-05T08:57:21.591Z</time></trkpt><trkpt lat="43.7176367" lon="12.2412"><ele>889.0</ele><time>2026-04-05T08:57:22.591Z</time></trkpt><trkpt lat="43.7174967" lon="12.2412233"><ele>889.0</ele><time>2026-04-05T08:57:23.591Z</time></trkpt><trkpt lat="43.7173617" lon="12.241295"><ele>889.0</ele><time>2026-04-05T08:57:24.59Z</time></trkpt><trkpt lat="43.71724" lon="12.241405"><ele>893.5</ele><time>2026-04-05T08:57:25.591Z</time></trkpt><trkpt lat="43.7171417" lon="12.2415583"><ele>898.0</ele><time>2026-04-05T08:57:26.591Z</time></trkpt><trkpt lat="43.717085" lon="12.2417467"><ele>902.5</ele><time>2026-04-05T08:57:27.591Z</time></trkpt><trkpt lat="43.7170717" lon="12.2419517"><ele>907.0</ele><time>2026-04-05T08:57:28.591Z</time></trkpt><trkpt lat="43.71711" lon="12.2421717"><ele>909.0</ele><time>2026-04-05T08:57:29.591Z</time></trkpt><trkpt lat="43.7171767" lon="12.242365"><ele>911.0</ele><time>2026-04-05T08:57:30.591Z</time></trkpt><trkpt lat="43.7172517" lon="12.2425367"><ele>913.0</ele><time>2026-04-05T08:57:31.591Z</time></trkpt><trkpt lat="43.7173033" lon="12.2427133"><ele>915.0</ele><time>2026-04-05T08:57:32.591Z</time></trkpt><trkpt lat="43.7173067" lon="12.2429017"><ele>915.0</ele><time>2026-04-05T08:57:33.591Z</time></trkpt><trkpt lat="43.7172633" lon="12.243085"><ele>915.0</ele><time>2026-04-05T08:57:34.59Z</time></trkpt><trkpt lat="43.717195" lon="12.2432467"><ele>915.0</ele><time>2026-04-05T08:57:35.591Z</time></trkpt><trkpt lat="43.71712" lon="12.2433833"><ele>915.0</ele><time>2026-04-05T08:57:36.591Z</time></trkpt><trkpt lat="43.7170633" lon="12.2435367"><ele>915.0</ele><time>2026-04-05T08:57:37.591Z</time></trkpt><trkpt lat="43.71705" lon="12.2437217"><ele>915.0</ele><time>2026-04-05T08:57:38.591Z</time></trkpt><trkpt lat="43.71708" lon="12.2439083"><ele>915.0</ele><time>2026-04-05T08:57:39.591Z</time></trkpt><trkpt lat="43.7171583" lon="12.24409"><ele>915.0</ele><time>2026-04-05T08:57:40.591Z</time></trkpt><trkpt lat="43.7172467" lon="12.2442383"><ele>915.25</ele><time>2026-04-05T08:57:41.591Z</time></trkpt><trkpt lat="43.7173333" lon="12.244375"><ele>915.5</ele><time>2026-04-05T08:57:42.591Z</time></trkpt><trkpt lat="43.7173967" lon="12.2445033"><ele>915.75</ele><time>2026-04-05T08:57:43.59Z</time></trkpt><trkpt lat="43.7174583" lon="12.2446483"><ele>916.0</ele><time>2026-04-05T08:57:44.591Z</time></trkpt><trkpt lat="43.7174917" lon="12.24481"><ele>916.75</ele><time>2026-04-05T08:57:45.591Z</time></trkpt><trkpt lat="43.717495" lon="12.24498"><ele>917.5</ele><time>2026-04-05T08:57:46.591Z</time></trkpt><trkpt lat="43.7174417" lon="12.2451633"><ele>918.25</ele><time>2026-04-05T08:57:47.591Z</time></trkpt><trkpt lat="43.717345" lon="12.2453333"><ele>919.0</ele><time>2026-04-05T08:57:48.59Z</time></trkpt><trkpt lat="43.7172367" lon="12.2454767"><ele>919.0</ele><time>2026-04-05T08:57:49.591Z</time></trkpt><trkpt lat="43.717125" lon="12.2455917"><ele>919.0</ele><time>2026-04-05T08:57:50.591Z</time></trkpt><trkpt lat="43.7170233" lon="12.2456767"><ele>919.0</ele><time>2026-04-05T08:57:51.591Z</time></trkpt><trkpt lat="43.71693" lon="12.2457433"><ele>919.0</ele><time>2026-04-05T08:57:52.59Z</time></trkpt><trkpt lat="43.7168283" lon="12.2457867"><ele>919.0</ele><time>2026-04-05T08:57:53.591Z</time></trkpt><trkpt lat="43.71673" lon="12.24582"><ele>919.0000000000001</ele><time>2026-04-05T08:57:54.591Z</time></trkpt><trkpt lat="43.7166283" lon="12.24584"><ele>919.0000000000001</ele><time>2026-04-05T08:57:55.591Z</time></trkpt><trkpt lat="43.716525" lon="12.2458533"><ele>919.0</ele><time>2026-04-05T08:57:56.59Z</time></trkpt><trkpt lat="43.71643" lon="12.245875"><ele>919.0</ele><time>2026-04-05T08:57:57.591Z</time></trkpt><trkpt lat="43.7163367" lon="12.2459033"><ele>918.9999999999999</ele><time>2026-04-05T08:57:58.59Z</time></trkpt><trkpt lat="43.7162467" lon="12.2459317"><ele>919.0</ele><time>2026-04-05T08:57:59.59Z</time></trkpt><trkpt lat="43.7161567" lon="12.24596"><ele>919.0</ele><time>2026-04-05T08:58:00.59Z</time></trkpt><trkpt lat="43.7160717" lon="12.2459867"><ele>919.0</ele><time>2026-04-05T08:58:01.591Z</time></trkpt><trkpt lat="43.71599" lon="12.246"><ele>918.9999999999999</ele><time>2026-04-05T08:58:02.591Z</time></trkpt><trkpt lat="43.715915" lon="12.246"><ele>919.0</ele><time>2026-04-05T08:58:03.59Z</time></trkpt><trkpt lat="43.7158317" lon="12.245995"><ele>918.6666666666666</ele><time>2026-04-05T08:58:04.591Z</time></trkpt><trkpt lat="43.7157467" lon="12.2459817"><ele>918.3333333333333</ele><time>2026-04-05T08:58:05.591Z</time></trkpt><trkpt lat="43.7156617" lon="12.2459567"><ele>918.0</ele><time>2026-04-05T08:58:06.591Z</time></trkpt><trkpt lat="43.7155717" lon="12.2459233"><ele>917.6666666666667</ele><time>2026-04-05T08:58:07.59Z</time></trkpt><trkpt lat="43.71548" lon="12.2458883"><ele>917.3333333333334</ele><time>2026-04-05T08:58:08.591Z</time></trkpt><trkpt lat="43.7153933" lon="12.2458633"><ele>917.0</ele><time>2026-04-05T08:58:09.591Z</time></trkpt><trkpt lat="43.715305" lon="12.2458517"><ele>917.0</ele><time>2026-04-05T08:58:10.591Z</time></trkpt><trkpt lat="43.7152117" lon="12.2458717"><ele>917.0</ele><time>2026-04-05T08:58:11.591Z</time></trkpt><trkpt lat="43.7151283" lon="12.2459133"><ele>917.0</ele><time>2026-04-05T08:58:12.591Z</time></trkpt><trkpt lat="43.7150467" lon="12.2459767"><ele>917.0</ele><time>2026-04-05T08:58:13.591Z</time></trkpt><trkpt lat="43.7149683" lon="12.2460417"><ele>917.0</ele><time>2026-04-05T08:58:14.592Z</time></trkpt><trkpt lat="43.7148817" lon="12.24611"><ele>917.0</ele><time>2026-04-05T08:58:15.592Z</time></trkpt><trkpt lat="43.714794" lon="12.2461746"><ele>917.0</ele><time>2026-04-05T08:58:16.591Z</time></trkpt><trkpt lat="43.7147055" lon="12.2462395"><ele>917.0</ele><time>2026-04-05T08:58:17.592Z</time></trkpt><trkpt lat="43.7146192" lon="12.2463007"><ele>917.0</ele><time>2026-04-05T08:58:18.592Z</time></trkpt><trkpt lat="43.7145417" lon="12.2463555"><ele>917.0</ele><time>2026-04-05T08:58:19.592Z</time></trkpt><trkpt lat="43.7144792" lon="12.2464043"><ele>917.0</ele><time>2026-04-05T08:58:20.592Z</time></trkpt><trkpt lat="43.7144232" lon="12.2464541"><ele>917.0</ele><time>2026-04-05T08:58:21.592Z</time></trkpt><trkpt lat="43.714328" lon="12.2465227"><ele>917.0</ele><time>2026-04-05T08:58:23.592Z</time></trkpt><trkpt lat="43.714276" lon="12.2465783"><ele>917.0</ele><time>2026-04-05T08:58:26.592Z</time></trkpt><trkpt lat="43.7143938" lon="12.2465253"><ele>917.0</ele><time>2026-04-05T08:58:38.591Z</time></trkpt><trkpt lat="43.7144687" lon="12.2464623"><ele>917.0</ele><time>2026-04-05T08:58:39.592Z</time></trkpt><trkpt lat="43.7145558" lon="12.2463829"><ele>917.0</ele><time>2026-04-05T08:58:40.592Z</time></trkpt><trkpt lat="43.7146582" lon="12.2463001"><ele>917.0</ele><time>2026-04-05T08:58:41.591Z</time></trkpt><trkpt lat="43.7147612" lon="12.2462232"><ele>917.0</ele><time>2026-04-05T08:58:42.592Z</time></trkpt><trkpt lat="43.7148583" lon="12.246147"><ele>917.0</ele><time>2026-04-05T08:58:43.592Z</time></trkpt><trkpt lat="43.7149561" lon="12.2460703"><ele>917.0</ele><time>2026-04-05T08:58:44.592Z</time></trkpt><trkpt lat="43.7150508" lon="12.2460027"><ele>917.0</ele><time>2026-04-05T08:58:45.592Z</time></trkpt><trkpt lat="43.7151379" lon="12.2459548"><ele>917.0</ele><time>2026-04-05T08:58:46.591Z</time></trkpt><trkpt lat="43.715226" lon="12.2459212"><ele>917.0</ele><time>2026-04-05T08:58:47.592Z</time></trkpt><trkpt lat="43.7153275" lon="12.2459023"><ele>917.0</ele><time>2026-04-05T08:58:48.592Z</time></trkpt><trkpt lat="43.715438" lon="12.2459059"><ele>917.0</ele><time>2026-04-05T08:58:49.592Z</time></trkpt><trkpt lat="43.7155535" lon="12.2459317"><ele>917.0</ele><time>2026-04-05T08:58:50.592Z</time></trkpt><trkpt lat="43.7156755" lon="12.2459652"><ele>917.0</ele><time>2026-04-05T08:58:51.591Z</time></trkpt><trkpt lat="43.7157913" lon="12.2459942"><ele>917.0</ele><time>2026-04-05T08:58:52.592Z</time></trkpt><trkpt lat="43.7159007" lon="12.2460161"><ele>917.0</ele><time>2026-04-05T08:58:53.591Z</time></trkpt><trkpt lat="43.7160138" lon="12.2460234"><ele>917.0</ele><time>2026-04-05T08:58:54.592Z</time></trkpt><trkpt lat="43.7161383" lon="12.246005"><ele>917.0</ele><time>2026-04-05T08:58:55.591Z</time></trkpt><trkpt lat="43.716265" lon="12.2459733"><ele>917.5</ele><time>2026-04-05T08:58:56.592Z</time></trkpt><trkpt lat="43.7163883" lon="12.2459367"><ele>918.0</ele><time>2026-04-05T08:58:57.592Z</time></trkpt><trkpt lat="43.7165017" lon="12.2459033"><ele>918.5</ele><time>2026-04-05T08:58:58.592Z</time></trkpt><trkpt lat="43.7166133" lon="12.2458717"><ele>919.0</ele><time>2026-04-05T08:58:59.592Z</time></trkpt><trkpt lat="43.7167317" lon="12.2458383"><ele>919.0</ele><time>2026-04-05T08:59:00.592Z</time></trkpt><trkpt lat="43.7168533" lon="12.2458067"><ele>919.0</ele><time>2026-04-05T08:59:01.592Z</time></trkpt><trkpt lat="43.7169733" lon="12.245755"><ele>919.0</ele><time>2026-04-05T08:59:02.592Z</time></trkpt><trkpt lat="43.717095" lon="12.2456867"><ele>919.0</ele><time>2026-04-05T08:59:03.592Z</time></trkpt><trkpt lat="43.71721" lon="12.2455767"><ele>919.0</ele><time>2026-04-05T08:59:04.591Z</time></trkpt><trkpt lat="43.717315" lon="12.2454467"><ele>919.0</ele><time>2026-04-05T08:59:05.592Z</time></trkpt><trkpt lat="43.7173917" lon="12.2453117"><ele>919.0</ele><time>2026-04-05T08:59:06.591Z</time></trkpt><trkpt lat="43.7174533" lon="12.2451733"><ele>919.0</ele><time>2026-04-05T08:59:07.591Z</time></trkpt><trkpt lat="43.7174933" lon="12.2450233"><ele>919.0</ele><time>2026-04-05T08:59:08.592Z</time></trkpt><trkpt lat="43.7175117" lon="12.2448533"><ele>919.0</ele><time>2026-04-05T08:59:09.592Z</time></trkpt><trkpt lat="43.7174883" lon="12.2446767"><ele>919.0</ele><time>2026-04-05T08:59:10.591Z</time></trkpt><trkpt lat="43.7174233" lon="12.24449"><ele>919.0</ele><time>2026-04-05T08:59:11.592Z</time></trkpt><trkpt lat="43.717335" lon="12.2443167"><ele>918.25</ele><time>2026-04-05T08:59:12.592Z</time></trkpt><trkpt lat="43.7172417" lon="12.2441583"><ele>917.5</ele><time>2026-04-05T08:59:13.592Z</time></trkpt><trkpt lat="43.717165" lon="12.2440167"><ele>916.75</ele><time>2026-04-05T08:59:14.591Z</time></trkpt><trkpt lat="43.7171033" lon="12.2438783"><ele>916.0</ele><time>2026-04-05T08:59:15.591Z</time></trkpt><trkpt lat="43.7170683" lon="12.2437367"><ele>915.75</ele><time>2026-04-05T08:59:16.592Z</time></trkpt><trkpt lat="43.7170683" lon="12.2435867"><ele>915.5</ele><time>2026-04-05T08:59:17.592Z</time></trkpt><trkpt lat="43.7171067" lon="12.24342"><ele>915.25</ele><time>2026-04-05T08:59:18.592Z</time></trkpt><trkpt lat="43.71717" lon="12.2432583"><ele>915.0</ele><time>2026-04-05T08:59:19.592Z</time></trkpt><trkpt lat="43.7172333" lon="12.2431133"><ele>915.0</ele><time>2026-04-05T08:59:20.592Z</time></trkpt><trkpt lat="43.71729" lon="12.2429633"><ele>915.0</ele><time>2026-04-05T08:59:21.592Z</time></trkpt><trkpt lat="43.71732" lon="12.2428133"><ele>915.0</ele><time>2026-04-05T08:59:22.592Z</time></trkpt><trkpt lat="43.717305" lon="12.24264"><ele>915.0</ele><time>2026-04-05T08:59:23.592Z</time></trkpt><trkpt lat="43.71725" lon="12.2424683"><ele>915.0</ele><time>2026-04-05T08:59:24.592Z</time></trkpt><trkpt lat="43.7171867" lon="12.24232"><ele>915.0</ele><time>2026-04-05T08:59:25.592Z</time></trkpt><trkpt lat="43.7171333" lon="12.2421767"><ele>915.0</ele><time>2026-04-05T08:59:26.592Z</time></trkpt><trkpt lat="43.717105" lon="12.2420183"><ele>915.0</ele><time>2026-04-05T08:59:27.592Z</time></trkpt><trkpt lat="43.7171017" lon="12.241845"><ele>913.0</ele><time>2026-04-05T08:59:28.592Z</time></trkpt><trkpt lat="43.7171333" lon="12.2416717"><ele>911.0</ele><time>2026-04-05T08:59:29.591Z</time></trkpt><trkpt lat="43.7171913" lon="12.2415066"><ele>909.0</ele><time>2026-04-05T08:59:30.591Z</time></trkpt><trkpt lat="43.7172805" lon="12.2413705"><ele>907.0</ele><time>2026-04-05T08:59:31.592Z</time></trkpt><trkpt lat="43.7174014" lon="12.2412724"><ele>901.0</ele><time>2026-04-05T08:59:32.592Z</time></trkpt><trkpt lat="43.7175477" lon="12.2412211"><ele>895.0</ele><time>2026-04-05T08:59:33.592Z</time></trkpt><trkpt lat="43.7177086" lon="12.2412145"><ele>889.0</ele><time>2026-04-05T08:59:34.592Z</time></trkpt><trkpt lat="43.7178748" lon="12.2412471"><ele>889.0</ele><time>2026-04-05T08:59:35.592Z</time></trkpt><trkpt lat="43.7180352" lon="12.2412891"><ele>889.0</ele><time>2026-04-05T08:59:36.591Z</time></trkpt><trkpt lat="43.7181751" lon="12.2413207"><ele>889.0</ele><time>2026-04-05T08:59:37.591Z</time></trkpt><trkpt lat="43.7182883" lon="12.2413341"><ele>889.0</ele><time>2026-04-05T08:59:38.591Z</time></trkpt><trkpt lat="43.7183814" lon="12.2413017"><ele>889.0</ele><time>2026-04-05T08:59:39.592Z</time></trkpt><trkpt lat="43.7184485" lon="12.2412051"><ele>889.0000000000001</ele><time>2026-04-05T08:59:40.592Z</time></trkpt><trkpt lat="43.7184743" lon="12.241069"><ele>889.0000000000001</ele><time>2026-04-05T08:59:41.592Z</time></trkpt><trkpt lat="43.7184498" lon="12.2409248"><ele>889.0</ele><time>2026-04-05T08:59:42.591Z</time></trkpt><trkpt lat="43.7183833" lon="12.2407939"><ele>889.0</ele><time>2026-04-05T08:59:43.592Z</time></trkpt><trkpt lat="43.7182832" lon="12.2407028"><ele>889.0</ele><time>2026-04-05T08:59:44.592Z</time></trkpt><trkpt lat="43.7181623" lon="12.2406844"><ele>889.0</ele><time>2026-04-05T08:59:45.592Z</time></trkpt><trkpt lat="43.7180214" lon="12.2407156"><ele>889.0</ele><time>2026-04-05T08:59:46.592Z</time></trkpt><trkpt lat="43.7178683" lon="12.2407591"><ele>889.0</ele><time>2026-04-05T08:59:47.592Z</time></trkpt><trkpt lat="43.7177102" lon="12.2407788"><ele>889.0</ele><time>2026-04-05T08:59:48.592Z</time></trkpt><trkpt lat="43.7175493" lon="12.2407494"><ele>889.0</ele><time>2026-04-05T08:59:49.592Z</time></trkpt><trkpt lat="43.7173947" lon="12.2406985"><ele>889.0</ele><time>2026-04-05T08:59:50.592Z</time></trkpt><trkpt lat="43.7172347" lon="12.2406614"><ele>889.0</ele><time>2026-04-05T08:59:51.591Z</time></trkpt><trkpt lat="43.7170717" lon="12.2406498"><ele>889.0</ele><time>2026-04-05T08:59:52.592Z</time></trkpt><trkpt lat="43.7168979" lon="12.2406789"><ele>889.0</ele><time>2026-04-05T08:59:53.592Z</time></trkpt><trkpt lat="43.7167204" lon="12.240746"><ele>886.5</ele><time>2026-04-05T08:59:54.592Z</time></trkpt><trkpt lat="43.7165575" lon="12.2408333"><ele>884.0</ele><time>2026-04-05T08:59:55.592Z</time></trkpt><trkpt lat="43.7164212" lon="12.2409122"><ele>881.5</ele><time>2026-04-05T08:59:56.591Z</time></trkpt><trkpt lat="43.7163115" lon="12.2409942"><ele>879.0</ele><time>2026-04-05T08:59:57.591Z</time></trkpt><trkpt lat="43.7162243" lon="12.2410998"><ele>879.0</ele><time>2026-04-05T08:59:58.591Z</time></trkpt><trkpt lat="43.7161752" lon="12.2412613"><ele>879.0</ele><time>2026-04-05T08:59:59.592Z</time></trkpt><trkpt lat="43.716175" lon="12.241466"><ele>879.0</ele><time>2026-04-05T09:00:00.592Z</time></trkpt><trkpt lat="43.7162229" lon="12.2416795"><ele>879.0</ele><time>2026-04-05T09:00:01.592Z</time></trkpt><trkpt lat="43.7162936" lon="12.2418737"><ele>881.25</ele><time>2026-04-05T09:00:02.592Z</time></trkpt><trkpt lat="43.7163584" lon="12.2420505"><ele>883.5</ele><time>2026-04-05T09:00:03.592Z</time></trkpt><trkpt lat="43.7163755" lon="12.242227"><ele>885.75</ele><time>2026-04-05T09:00:04.592Z</time></trkpt><trkpt lat="43.7163498" lon="12.2424082"><ele>888.0</ele><time>2026-04-05T09:00:05.592Z</time></trkpt><trkpt lat="43.7162743" lon="12.2425733"><ele>888.25</ele><time>2026-04-05T09:00:06.592Z</time></trkpt><trkpt lat="43.7161585" lon="12.2427167"><ele>888.5</ele><time>2026-04-05T09:00:07.592Z</time></trkpt><trkpt lat="43.7160329" lon="12.2428355"><ele>888.75</ele><time>2026-04-05T09:00:08.591Z</time></trkpt><trkpt lat="43.715917" lon="12.242925"><ele>889.0</ele><time>2026-04-05T09:00:09.592Z</time></trkpt><trkpt lat="43.7158009" lon="12.2429699"><ele>884.0</ele><time>2026-04-05T09:00:10.592Z</time></trkpt><trkpt lat="43.7156846" lon="12.2429588"><ele>879.0</ele><time>2026-04-05T09:00:11.592Z</time></trkpt><trkpt lat="43.7155786" lon="12.2428836"><ele>874.0</ele><time>2026-04-05T09:00:12.592Z</time></trkpt><trkpt lat="43.7154946" lon="12.2427461"><ele>869.0</ele><time>2026-04-05T09:00:13.592Z</time></trkpt><trkpt lat="43.7154549" lon="12.2425657"><ele>869.0</ele><time>2026-04-05T09:00:14.592Z</time></trkpt><trkpt lat="43.7154664" lon="12.2423582"><ele>869.0</ele><time>2026-04-05T09:00:15.592Z</time></trkpt><trkpt lat="43.7155092" lon="12.2421202"><ele>869.0</ele><time>2026-04-05T09:00:16.591Z</time></trkpt><trkpt lat="43.7155653" lon="12.2418622"><ele>867.3333333333334</ele><time>2026-04-05T09:00:17.591Z</time></trkpt><trkpt lat="43.7156158" lon="12.2415879"><ele>865.6666666666667</ele><time>2026-04-05T09:00:18.592Z</time></trkpt><trkpt lat="43.7156727" lon="12.2413064"><ele>864.0</ele><time>2026-04-05T09:00:19.591Z</time></trkpt><trkpt lat="43.7157268" lon="12.2410273"><ele>862.0</ele><time>2026-04-05T09:00:20.592Z</time></trkpt><trkpt lat="43.7157782" lon="12.2407544"><ele>860.0</ele><time>2026-04-05T09:00:21.591Z</time></trkpt><trkpt lat="43.7158115" lon="12.2404751"><ele>858.0</ele><time>2026-04-05T09:00:22.592Z</time></trkpt><trkpt lat="43.715814" lon="12.2401979"><ele>854.3333333333333</ele><time>2026-04-05T09:00:23.592Z</time></trkpt><trkpt lat="43.7157996" lon="12.239939"><ele>850.6666666666666</ele><time>2026-04-05T09:00:24.592Z</time></trkpt><trkpt lat="43.7157832" lon="12.2397124"><ele>847.0</ele><time>2026-04-05T09:00:25.591Z</time></trkpt><trkpt lat="43.7157721" lon="12.2395137"><ele>844.75</ele><time>2026-04-05T09:00:26.591Z</time></trkpt><trkpt lat="43.7157768" lon="12.2393393"><ele>842.5</ele><time>2026-04-05T09:00:27.591Z</time></trkpt><trkpt lat="43.7158131" lon="12.2391807"><ele>840.25</ele><time>2026-04-05T09:00:28.591Z</time></trkpt><trkpt lat="43.7158951" lon="12.2390454"><ele>838.0</ele><time>2026-04-05T09:00:29.591Z</time></trkpt><trkpt lat="43.716013" lon="12.2389533"><ele>834.6666666666666</ele><time>2026-04-05T09:00:30.592Z</time></trkpt><trkpt lat="43.7161726" lon="12.2389106"><ele>831.3333333333333</ele><time>2026-04-05T09:00:31.591Z</time></trkpt><trkpt lat="43.7163599" lon="12.2389094"><ele>828.0</ele><time>2026-04-05T09:00:32.592Z</time></trkpt><trkpt lat="43.7165468" lon="12.2389157"><ele>828.0</ele><time>2026-04-05T09:00:33.592Z</time></trkpt><trkpt lat="43.716713" lon="12.2389135"><ele>828.0</ele><time>2026-04-05T09:00:34.592Z</time></trkpt><trkpt lat="43.7168664" lon="12.2388861"><ele>828.0</ele><time>2026-04-05T09:00:35.591Z</time></trkpt><trkpt lat="43.7169981" lon="12.2388131"><ele>831.3333333333333</ele><time>2026-04-05T09:00:36.591Z</time></trkpt><trkpt lat="43.7171126" lon="12.2386812"><ele>834.6666666666666</ele><time>2026-04-05T09:00:37.592Z</time></trkpt><trkpt lat="43.7171937" lon="12.2384877"><ele>838.0</ele><time>2026-04-05T09:00:38.591Z</time></trkpt><trkpt lat="43.7172486" lon="12.2382692"><ele>833.6666666666666</ele><time>2026-04-05T09:00:39.592Z</time></trkpt><trkpt lat="43.7173104" lon="12.2380707"><ele>829.3333333333333</ele><time>2026-04-05T09:00:40.591Z</time></trkpt><trkpt lat="43.7174117" lon="12.237919"><ele>825.0</ele><time>2026-04-05T09:00:41.591Z</time></trkpt><trkpt lat="43.7175512" lon="12.2378199"><ele>825.0</ele><time>2026-04-05T09:00:42.592Z</time></trkpt><trkpt lat="43.7177025" lon="12.2377818"><ele>825.0</ele><time>2026-04-05T09:00:43.592Z</time></trkpt><trkpt lat="43.7178432" lon="12.2377864"><ele>825.0</ele><time>2026-04-05T09:00:44.592Z</time></trkpt><trkpt lat="43.717965" lon="12.2377726"><ele>825.0</ele><time>2026-04-05T09:00:45.591Z</time></trkpt><trkpt lat="43.7180632" lon="12.2377109"><ele>823.8</ele><time>2026-04-05T09:00:46.592Z</time></trkpt><trkpt lat="43.7181187" lon="12.2375945"><ele>822.6</ele><time>2026-04-05T09:00:47.592Z</time></trkpt><trkpt lat="43.7181267" lon="12.2374533"><ele>821.4000000000001</ele><time>2026-04-05T09:00:48.592Z</time></trkpt><trkpt lat="43.7180885" lon="12.2373057"><ele>820.2</ele><time>2026-04-05T09:00:49.592Z</time></trkpt><trkpt lat="43.7180113" lon="12.2371844"><ele>819.0</ele><time>2026-04-05T09:00:50.591Z</time></trkpt><trkpt lat="43.7179046" lon="12.2371175"><ele>819.0</ele><time>2026-04-05T09:00:51.592Z</time></trkpt><trkpt lat="43.7177753" lon="12.2371268"><ele>819.0</ele><time>2026-04-05T09:00:52.592Z</time></trkpt><trkpt lat="43.7176297" lon="12.2372067"><ele>819.0</ele><time>2026-04-05T09:00:53.592Z</time></trkpt><trkpt lat="43.7174712" lon="12.2373198"><ele>820.5</ele><time>2026-04-05T09:00:54.592Z</time></trkpt><trkpt lat="43.7173262" lon="12.2374093"><ele>822.0</ele><time>2026-04-05T09:00:55.592Z</time></trkpt><trkpt lat="43.7172064" lon="12.2374413"><ele>823.5</ele><time>2026-04-05T09:00:56.591Z</time></trkpt><trkpt lat="43.7171022" lon="12.237402"><ele>825.0</ele><time>2026-04-05T09:00:57.591Z</time></trkpt><trkpt lat="43.7170277" lon="12.2372983"><ele>821.75</ele><time>2026-04-05T09:00:58.592Z</time></trkpt><trkpt lat="43.7169973" lon="12.2371559"><ele>818.5</ele><time>2026-04-05T09:00:59.592Z</time></trkpt><trkpt lat="43.717015" lon="12.2370054"><ele>815.25</ele><time>2026-04-05T09:01:00.592Z</time></trkpt><trkpt lat="43.7170881" lon="12.2368557"><ele>812.0</ele><time>2026-04-05T09:01:01.591Z</time></trkpt><trkpt lat="43.7172151" lon="12.2367312"><ele>812.0</ele><time>2026-04-05T09:01:02.592Z</time></trkpt><trkpt lat="43.7173851" lon="12.2366182"><ele>812.0</ele><time>2026-04-05T09:01:03.592Z</time></trkpt><trkpt lat="43.7175684" lon="12.2364949"><ele>812.0</ele><time>2026-04-05T09:01:04.592Z</time></trkpt><trkpt lat="43.7177378" lon="12.2363767"><ele>811.6666666666667</ele><time>2026-04-05T09:01:05.591Z</time></trkpt><trkpt lat="43.717897" lon="12.2362554"><ele>811.3333333333333</ele><time>2026-04-05T09:01:06.591Z</time></trkpt><trkpt lat="43.7180404" lon="12.2361234"><ele>811.0</ele><time>2026-04-05T09:01:07.592Z</time></trkpt><trkpt lat="43.7181688" lon="12.2359599"><ele>811.0</ele><time>2026-04-05T09:01:08.591Z</time></trkpt><trkpt lat="43.7182629" lon="12.2357473"><ele>811.0</ele><time>2026-04-05T09:01:09.592Z</time></trkpt><trkpt lat="43.7183354" lon="12.2355076"><ele>811.0</ele><time>2026-04-05T09:01:10.591Z</time></trkpt><trkpt lat="43.7183944" lon="12.2352698"><ele>809.6666666666666</ele><time>2026-04-05T09:01:11.591Z</time></trkpt><trkpt lat="43.7184527" lon="12.235042"><ele>808.3333333333333</ele><time>2026-04-05T09:01:12.592Z</time></trkpt><trkpt lat="43.7185339" lon="12.2348264"><ele>807.0</ele><time>2026-04-05T09:01:13.592Z</time></trkpt><trkpt lat="43.7186411" lon="12.2346274"><ele>807.0</ele><time>2026-04-05T09:01:14.592Z</time></trkpt><trkpt lat="43.7187771" lon="12.2344413"><ele>807.0</ele><time>2026-04-05T09:01:15.591Z</time></trkpt><trkpt lat="43.7189205" lon="12.2342672"><ele>807.0</ele><time>2026-04-05T09:01:16.592Z</time></trkpt><trkpt lat="43.7190572" lon="12.2341174"><ele>807.0</ele><time>2026-04-05T09:01:17.591Z</time></trkpt><trkpt lat="43.7191896" lon="12.2339997"><ele>807.0</ele><time>2026-04-05T09:01:18.592Z</time></trkpt><trkpt lat="43.7193258" lon="12.2339308"><ele>807.0</ele><time>2026-04-05T09:01:19.592Z</time></trkpt><trkpt lat="43.7194698" lon="12.2339172"><ele>807.0</ele><time>2026-04-05T09:01:20.591Z</time></trkpt><trkpt lat="43.7196283" lon="12.233949"><ele>808.0</ele><time>2026-04-05T09:01:21.591Z</time></trkpt><trkpt lat="43.7197937" lon="12.2340016"><ele>809.0</ele><time>2026-04-05T09:01:22.592Z</time></trkpt><trkpt lat="43.7199772" lon="12.2340642"><ele>810.0</ele><time>2026-04-05T09:01:23.592Z</time></trkpt><trkpt lat="43.7201625" lon="12.2341258"><ele>808.3333333333333</ele><time>2026-04-05T09:01:24.592Z</time></trkpt><trkpt lat="43.7203405" lon="12.2341745"><ele>806.6666666666666</ele><time>2026-04-05T09:01:25.592Z</time></trkpt><trkpt lat="43.7205109" lon="12.2342228"><ele>805.0</ele><time>2026-04-05T09:01:26.592Z</time></trkpt><trkpt lat="43.7206732" lon="12.2342729"><ele>805.0</ele><time>2026-04-05T09:01:27.592Z</time></trkpt><trkpt lat="43.7208264" lon="12.2343185"><ele>805.0</ele><time>2026-04-05T09:01:28.592Z</time></trkpt><trkpt lat="43.7209704" lon="12.2343694"><ele>805.0</ele><time>2026-04-05T09:01:29.592Z</time></trkpt><trkpt lat="43.7210912" lon="12.2344353"><ele>805.0</ele><time>2026-04-05T09:01:30.592Z</time></trkpt><trkpt lat="43.7211924" lon="12.2345349"><ele>802.5</ele><time>2026-04-05T09:01:31.591Z</time></trkpt><trkpt lat="43.7212886" lon="12.2346293"><ele>800.0</ele><time>2026-04-05T09:01:32.592Z</time></trkpt><trkpt lat="43.721399" lon="12.2346871"><ele>797.5</ele><time>2026-04-05T09:01:33.592Z</time></trkpt><trkpt lat="43.7215205" lon="12.2346878"><ele>795.0</ele><time>2026-04-05T09:01:34.592Z</time></trkpt><trkpt lat="43.7216404" lon="12.2346566"><ele>795.0</ele><time>2026-04-05T09:01:35.591Z</time></trkpt><trkpt lat="43.7217628" lon="12.2346373"><ele>795.0</ele><time>2026-04-05T09:01:36.592Z</time></trkpt><trkpt lat="43.7218917" lon="12.2346816"><ele>795.0</ele><time>2026-04-05T09:01:37.591Z</time></trkpt><trkpt lat="43.7220189" lon="12.2348052"><ele>795.0</ele><time>2026-04-05T09:01:38.591Z</time></trkpt><trkpt lat="43.7221391" lon="12.2349635"><ele>797.5</ele><time>2026-04-05T09:01:39.591Z</time></trkpt><trkpt lat="43.7222443" lon="12.2351158"><ele>800.0</ele><time>2026-04-05T09:01:40.592Z</time></trkpt><trkpt lat="43.7223489" lon="12.2352239"><ele>802.5</ele><time>2026-04-05T09:01:41.592Z</time></trkpt><trkpt lat="43.7224574" lon="12.2352737"><ele>805.0</ele><time>2026-04-05T09:01:42.591Z</time></trkpt><trkpt lat="43.7225759" lon="12.2352639"><ele>805.0</ele><time>2026-04-05T09:01:43.592Z</time></trkpt><trkpt lat="43.7227026" lon="12.2351789"><ele>805.0</ele><time>2026-04-05T09:01:44.592Z</time></trkpt><trkpt lat="43.7228114" lon="12.235015"><ele>805.0</ele><time>2026-04-05T09:01:45.592Z</time></trkpt><trkpt lat="43.7228883" lon="12.2347839"><ele>805.3333333333333</ele><time>2026-04-05T09:01:46.591Z</time></trkpt><trkpt lat="43.7229422" lon="12.2345179"><ele>805.6666666666667</ele><time>2026-04-05T09:01:47.592Z</time></trkpt><trkpt lat="43.722996" lon="12.23424"><ele>806.0</ele><time>2026-04-05T09:01:48.592Z</time></trkpt><trkpt lat="43.7230571" lon="12.233964"><ele>806.0</ele><time>2026-04-05T09:01:49.592Z</time></trkpt><trkpt lat="43.7231225" lon="12.2336835"><ele>806.0</ele><time>2026-04-05T09:01:50.592Z</time></trkpt><trkpt lat="43.7231914" lon="12.2334164"><ele>806.0</ele><time>2026-04-05T09:01:51.591Z</time></trkpt><trkpt lat="43.7232619" lon="12.2331587"><ele>804.3333333333334</ele><time>2026-04-05T09:01:52.592Z</time></trkpt><trkpt lat="43.7233211" lon="12.2329183"><ele>802.6666666666667</ele><time>2026-04-05T09:01:53.591Z</time></trkpt><trkpt lat="43.7233773" lon="12.2326785"><ele>801.0</ele><time>2026-04-05T09:01:54.591Z</time></trkpt><trkpt lat="43.7234065" lon="12.2324489"><ele>800.6666666666667</ele><time>2026-04-05T09:01:55.592Z</time></trkpt><trkpt lat="43.7233961" lon="12.232222"><ele>800.3333333333334</ele><time>2026-04-05T09:01:56.592Z</time></trkpt><trkpt lat="43.7233512" lon="12.2319908"><ele>800.0</ele><time>2026-04-05T09:01:57.591Z</time></trkpt><trkpt lat="43.7233052" lon="12.2317755"><ele>800.0</ele><time>2026-04-05T09:01:58.591Z</time></trkpt><trkpt lat="43.7232876" lon="12.2315708"><ele>800.0</ele><time>2026-04-05T09:01:59.592Z</time></trkpt><trkpt lat="43.7233102" lon="12.2313732"><ele>800.0</ele><time>2026-04-05T09:02:00.592Z</time></trkpt><trkpt lat="43.7233749" lon="12.2311756"><ele>798.6666666666667</ele><time>2026-04-05T09:02:01.592Z</time></trkpt><trkpt lat="43.7234749" lon="12.2309806"><ele>797.3333333333333</ele><time>2026-04-05T09:02:02.592Z</time></trkpt><trkpt lat="43.723598" lon="12.2307803"><ele>796.0</ele><time>2026-04-05T09:02:03.592Z</time></trkpt><trkpt lat="43.7237215" lon="12.230578"><ele>799.0</ele><time>2026-04-05T09:02:04.591Z</time></trkpt><trkpt lat="43.7238321" lon="12.2303936"><ele>802.0</ele><time>2026-04-05T09:02:05.592Z</time></trkpt><trkpt lat="43.7239287" lon="12.2302"><ele>805.0</ele><time>2026-04-05T09:02:06.591Z</time></trkpt><trkpt lat="43.724008" lon="12.2299827"><ele>805.3333333333333</ele><time>2026-04-05T09:02:07.591Z</time></trkpt><trkpt lat="43.7240587" lon="12.2297339"><ele>805.6666666666667</ele><time>2026-04-05T09:02:08.592Z</time></trkpt><trkpt lat="43.7240905" lon="12.2294536"><ele>806.0</ele><time>2026-04-05T09:02:09.592Z</time></trkpt><trkpt lat="43.7241103" lon="12.229157"><ele>805.3333333333334</ele><time>2026-04-05T09:02:10.592Z</time></trkpt><trkpt lat="43.7241266" lon="12.22885"><ele>804.6666666666667</ele><time>2026-04-05T09:02:11.592Z</time></trkpt><trkpt lat="43.724151" lon="12.2285609"><ele>804.0</ele><time>2026-04-05T09:02:12.591Z</time></trkpt><trkpt lat="43.7241798" lon="12.2282977"><ele>803.3333333333333</ele><time>2026-04-05T09:02:13.591Z</time></trkpt><trkpt lat="43.7242038" lon="12.2280481"><ele>802.6666666666666</ele><time>2026-04-05T09:02:14.592Z</time></trkpt><trkpt lat="43.7242169" lon="12.2278061"><ele>802.0</ele><time>2026-04-05T09:02:15.592Z</time></trkpt><trkpt lat="43.7242145" lon="12.2275666"><ele>802.0</ele><time>2026-04-05T09:02:16.592Z</time></trkpt><trkpt lat="43.7241823" lon="12.2273184"><ele>802.0</ele><time>2026-04-05T09:02:17.592Z</time></trkpt><trkpt lat="43.7241034" lon="12.2270578"><ele>802.0</ele><time>2026-04-05T09:02:18.591Z</time></trkpt><trkpt lat="43.7240112" lon="12.2267876"><ele>803.6666666666666</ele><time>2026-04-05T09:02:19.592Z</time></trkpt><trkpt lat="43.7239212" lon="12.226531"><ele>805.3333333333333</ele><time>2026-04-05T09:02:20.591Z</time></trkpt><trkpt lat="43.7238228" lon="12.2262947"><ele>807.0</ele><time>2026-04-05T09:02:21.592Z</time></trkpt><trkpt lat="43.7236946" lon="12.2260772"><ele>805.6666666666667</ele><time>2026-04-05T09:02:22.591Z</time></trkpt><trkpt lat="43.7235402" lon="12.225881"><ele>804.3333333333334</ele><time>2026-04-05T09:02:23.592Z</time></trkpt><trkpt lat="43.7233794" lon="12.2257192"><ele>803.0</ele><time>2026-04-05T09:02:24.592Z</time></trkpt><trkpt lat="43.7232303" lon="12.2255725"><ele>806.75</ele><time>2026-04-05T09:02:25.591Z</time></trkpt><trkpt lat="43.7231013" lon="12.2254355"><ele>810.5</ele><time>2026-04-05T09:02:26.591Z</time></trkpt><trkpt lat="43.7229926" lon="12.2253077"><ele>814.25</ele><time>2026-04-05T09:02:27.592Z</time></trkpt><trkpt lat="43.7229054" lon="12.2251581"><ele>818.0</ele><time>2026-04-05T09:02:28.591Z</time></trkpt><trkpt lat="43.7228359" lon="12.2249698"><ele>820.0</ele><time>2026-04-05T09:02:29.592Z</time></trkpt><trkpt lat="43.722778" lon="12.2247451"><ele>822.0</ele><time>2026-04-05T09:02:30.592Z</time></trkpt><trkpt lat="43.7227323" lon="12.2245088"><ele>824.0</ele><time>2026-04-05T09:02:31.591Z</time></trkpt><trkpt lat="43.7226889" lon="12.2242855"><ele>817.0</ele><time>2026-04-05T09:02:32.592Z</time></trkpt><trkpt lat="43.7226435" lon="12.2240627"><ele>810.0</ele><time>2026-04-05T09:02:33.592Z</time></trkpt><trkpt lat="43.7225995" lon="12.2238393"><ele>803.0</ele><time>2026-04-05T09:02:34.592Z</time></trkpt><trkpt lat="43.7225585" lon="12.2236327"><ele>803.0</ele><time>2026-04-05T09:02:35.592Z</time></trkpt><trkpt lat="43.7225174" lon="12.2234409"><ele>803.0</ele><time>2026-04-05T09:02:36.591Z</time></trkpt><trkpt lat="43.7224632" lon="12.2232605"><ele>803.0</ele><time>2026-04-05T09:02:37.592Z</time></trkpt><trkpt lat="43.722381" lon="12.2230928"><ele>803.0</ele><time>2026-04-05T09:02:38.591Z</time></trkpt><trkpt lat="43.7222613" lon="12.2229608"><ele>803.6666666666667</ele><time>2026-04-05T09:02:39.592Z</time></trkpt><trkpt lat="43.7221187" lon="12.2228596"><ele>804.3333333333333</ele><time>2026-04-05T09:02:40.592Z</time></trkpt><trkpt lat="43.7219651" lon="12.2227805"><ele>805.0</ele><time>2026-04-05T09:02:41.592Z</time></trkpt><trkpt lat="43.7218039" lon="12.2227391"><ele>803.6666666666666</ele><time>2026-04-05T09:02:42.592Z</time></trkpt><trkpt lat="43.7216364" lon="12.2227175"><ele>802.3333333333333</ele><time>2026-04-05T09:02:43.592Z</time></trkpt><trkpt lat="43.7214635" lon="12.2226833"><ele>801.0</ele><time>2026-04-05T09:02:44.591Z</time></trkpt><trkpt lat="43.7212824" lon="12.2226427"><ele>801.0</ele><time>2026-04-05T09:02:45.592Z</time></trkpt><trkpt lat="43.7211129" lon="12.2226002"><ele>801.0</ele><time>2026-04-05T09:02:46.592Z</time></trkpt><trkpt lat="43.7209598" lon="12.2225624"><ele>801.0</ele><time>2026-04-05T09:02:47.591Z</time></trkpt><trkpt lat="43.7208186" lon="12.2225244"><ele>799.0</ele><time>2026-04-05T09:02:48.592Z</time></trkpt><trkpt lat="43.7206907" lon="12.2224841"><ele>797.0</ele><time>2026-04-05T09:02:49.592Z</time></trkpt><trkpt lat="43.7205644" lon="12.2224792"><ele>795.0</ele><time>2026-04-05T09:02:50.592Z</time></trkpt><trkpt lat="43.7204378" lon="12.2225217"><ele>793.0</ele><time>2026-04-05T09:02:51.591Z</time></trkpt><trkpt lat="43.7203093" lon="12.2226049"><ele>791.4</ele><time>2026-04-05T09:02:52.592Z</time></trkpt><trkpt lat="43.7201958" lon="12.2226868"><ele>789.8</ele><time>2026-04-05T09:02:53.592Z</time></trkpt><trkpt lat="43.7200872" lon="12.2227507"><ele>788.2</ele><time>2026-04-05T09:02:54.591Z</time></trkpt><trkpt lat="43.7199873" lon="12.2227821"><ele>786.6</ele><time>2026-04-05T09:02:55.592Z</time></trkpt><trkpt lat="43.7198963" lon="12.222773"><ele>785.0</ele><time>2026-04-05T09:02:56.592Z</time></trkpt><trkpt lat="43.7198223" lon="12.2227229"><ele>785.0</ele><time>2026-04-05T09:02:57.591Z</time></trkpt><trkpt lat="43.7197704" lon="12.2226422"><ele>785.0</ele><time>2026-04-05T09:02:58.592Z</time></trkpt><trkpt lat="43.7197447" lon="12.2225431"><ele>785.0</ele><time>2026-04-05T09:02:59.592Z</time></trkpt><trkpt lat="43.7197634" lon="12.2224296"><ele>785.0</ele><time>2026-04-05T09:03:00.592Z</time></trkpt><trkpt lat="43.7198957" lon="12.2222979"><ele>785.0</ele><time>2026-04-05T09:03:02.276Z</time></trkpt><trkpt lat="43.7199856" lon="12.2221767"><ele>785.6666666666667</ele><time>2026-04-05T09:03:03.453Z</time></trkpt><trkpt lat="43.7201615" lon="12.2220224"><ele>786.3333333333333</ele><time>2026-04-05T09:03:04.591Z</time></trkpt><trkpt lat="43.7202818" lon="12.2218488"><ele>787.0</ele><time>2026-04-05T09:03:05.591Z</time></trkpt><trkpt lat="43.720412" lon="12.2216848"><ele>787.0</ele><time>2026-04-05T09:03:06.591Z</time></trkpt><trkpt lat="43.7205436" lon="12.2215273"><ele>787.0</ele><time>2026-04-05T09:03:07.59Z</time></trkpt><trkpt lat="43.7206798" lon="12.2214057"><ele>787.0</ele><time>2026-04-05T09:03:08.59Z</time></trkpt><trkpt lat="43.720815" lon="12.2212967"><ele>787.25</ele><time>2026-04-05T09:03:09.59Z</time></trkpt><trkpt lat="43.7209588" lon="12.2212222"><ele>787.5</ele><time>2026-04-05T09:03:10.59Z</time></trkpt><trkpt lat="43.7210971" lon="12.2211547"><ele>787.75</ele><time>2026-04-05T09:03:11.591Z</time></trkpt><trkpt lat="43.7212254" lon="12.2210775"><ele>788.0</ele><time>2026-04-05T09:03:12.59Z</time></trkpt><trkpt lat="43.7213373" lon="12.2209821"><ele>788.0</ele><time>2026-04-05T09:03:13.591Z</time></trkpt><trkpt lat="43.7214337" lon="12.2208606"><ele>788.0</ele><time>2026-04-05T09:03:14.59Z</time></trkpt><trkpt lat="43.7215004" lon="12.220721"><ele>788.0</ele><time>2026-04-05T09:03:15.591Z</time></trkpt><trkpt lat="43.7215317" lon="12.2205599"><ele>788.0</ele><time>2026-04-05T09:03:16.591Z</time></trkpt><trkpt lat="43.7215317" lon="12.2203811"><ele>785.75</ele><time>2026-04-05T09:03:17.59Z</time></trkpt><trkpt lat="43.7215049" lon="12.2202022"><ele>783.5</ele><time>2026-04-05T09:03:18.591Z</time></trkpt><trkpt lat="43.721459" lon="12.2200456"><ele>781.25</ele><time>2026-04-05T09:03:19.591Z</time></trkpt><trkpt lat="43.7214159" lon="12.2199003"><ele>779.0</ele><time>2026-04-05T09:03:20.59Z</time></trkpt><trkpt lat="43.7214019" lon="12.2197473"><ele>776.75</ele><time>2026-04-05T09:03:21.59Z</time></trkpt><trkpt lat="43.7214295" lon="12.2195887"><ele>774.5</ele><time>2026-04-05T09:03:22.59Z</time></trkpt><trkpt lat="43.7214882" lon="12.219428"><ele>772.25</ele><time>2026-04-05T09:03:23.59Z</time></trkpt><trkpt lat="43.7215535" lon="12.2192761"><ele>770.0</ele><time>2026-04-05T09:03:24.59Z</time></trkpt><trkpt lat="43.7216209" lon="12.2191424"><ele>770.0</ele><time>2026-04-05T09:03:25.591Z</time></trkpt><trkpt lat="43.7216931" lon="12.2190275"><ele>770.0</ele><time>2026-04-05T09:03:26.591Z</time></trkpt><trkpt lat="43.7217786" lon="12.2189407"><ele>770.0</ele><time>2026-04-05T09:03:27.591Z</time></trkpt><trkpt lat="43.7218781" lon="12.2188978"><ele>770.0</ele><time>2026-04-05T09:03:28.591Z</time></trkpt><trkpt lat="43.7219883" lon="12.2189047"><ele>770.0</ele><time>2026-04-05T09:03:29.591Z</time></trkpt><trkpt lat="43.7220998" lon="12.2189678"><ele>769.25</ele><time>2026-04-05T09:03:30.59Z</time></trkpt><trkpt lat="43.7222119" lon="12.2190673"><ele>768.5</ele><time>2026-04-05T09:03:31.591Z</time></trkpt><trkpt lat="43.7223269" lon="12.219177"><ele>767.75</ele><time>2026-04-05T09:03:32.59Z</time></trkpt><trkpt lat="43.7224493" lon="12.2192727"><ele>767.0</ele><time>2026-04-05T09:03:33.591Z</time></trkpt><trkpt lat="43.7225734" lon="12.2193335"><ele>767.0</ele><time>2026-04-05T09:03:34.591Z</time></trkpt><trkpt lat="43.7226974" lon="12.21937"><ele>767.0</ele><time>2026-04-05T09:03:35.591Z</time></trkpt><trkpt lat="43.7228213" lon="12.2193913"><ele>767.0</ele><time>2026-04-05T09:03:36.591Z</time></trkpt><trkpt lat="43.722945" lon="12.2193848"><ele>767.0</ele><time>2026-04-05T09:03:37.591Z</time></trkpt><trkpt lat="43.7230679" lon="12.2193302"><ele>767.0</ele><time>2026-04-05T09:03:38.59Z</time></trkpt><trkpt lat="43.7231838" lon="12.2192329"><ele>767.0</ele><time>2026-04-05T09:03:39.591Z</time></trkpt><trkpt lat="43.723289" lon="12.2191106"><ele>767.0</ele><time>2026-04-05T09:03:40.59Z</time></trkpt><trkpt lat="43.7233816" lon="12.2189809"><ele>767.0</ele><time>2026-04-05T09:03:41.591Z</time></trkpt><trkpt lat="43.7234646" lon="12.2188425"><ele>764.0</ele><time>2026-04-05T09:03:42.591Z</time></trkpt><trkpt lat="43.7235243" lon="12.2186789"><ele>761.0</ele><time>2026-04-05T09:03:43.59Z</time></trkpt><trkpt lat="43.7235533" lon="12.2184854"><ele>758.0</ele><time>2026-04-05T09:03:44.59Z</time></trkpt><trkpt lat="43.7235563" lon="12.2182717"><ele>755.0</ele><time>2026-04-05T09:03:45.591Z</time></trkpt><trkpt lat="43.7235586" lon="12.2180676"><ele>757.5</ele><time>2026-04-05T09:03:46.59Z</time></trkpt><trkpt lat="43.7235652" lon="12.2178764"><ele>760.0</ele><time>2026-04-05T09:03:47.59Z</time></trkpt><trkpt lat="43.7235701" lon="12.217703"><ele>762.5</ele><time>2026-04-05T09:03:48.591Z</time></trkpt><trkpt lat="43.7235788" lon="12.217528"><ele>765.0</ele><time>2026-04-05T09:03:49.591Z</time></trkpt><trkpt lat="43.723598" lon="12.2173409"><ele>762.0</ele><time>2026-04-05T09:03:50.591Z</time></trkpt><trkpt lat="43.7236327" lon="12.2171452"><ele>759.0</ele><time>2026-04-05T09:03:51.591Z</time></trkpt><trkpt lat="43.7236809" lon="12.2169357"><ele>756.0</ele><time>2026-04-05T09:03:52.59Z</time></trkpt><trkpt lat="43.7237376" lon="12.2167237"><ele>756.0</ele><time>2026-04-05T09:03:53.59Z</time></trkpt><trkpt lat="43.7237919" lon="12.2165178"><ele>756.0</ele><time>2026-04-05T09:03:54.59Z</time></trkpt><trkpt lat="43.7238581" lon="12.2163346"><ele>756.0</ele><time>2026-04-05T09:03:55.591Z</time></trkpt><trkpt lat="43.7239467" lon="12.216167"><ele>752.3333333333334</ele><time>2026-04-05T09:03:56.591Z</time></trkpt><trkpt lat="43.7240637" lon="12.216016"><ele>748.6666666666667</ele><time>2026-04-05T09:03:57.591Z</time></trkpt><trkpt lat="43.7241838" lon="12.2158624"><ele>745.0</ele><time>2026-04-05T09:03:58.59Z</time></trkpt><trkpt lat="43.7242895" lon="12.2157067"><ele>745.0</ele><time>2026-04-05T09:03:59.59Z</time></trkpt><trkpt lat="43.724385" lon="12.2155417"><ele>745.0</ele><time>2026-04-05T09:04:00.591Z</time></trkpt><trkpt lat="43.7244517" lon="12.21536"><ele>745.0</ele><time>2026-04-05T09:04:01.59Z</time></trkpt><trkpt lat="43.7245183" lon="12.2151683"><ele>745.0</ele><time>2026-04-05T09:04:02.591Z</time></trkpt><trkpt lat="43.7245967" lon="12.2149883"><ele>745.0</ele><time>2026-04-05T09:04:03.591Z</time></trkpt><trkpt lat="43.7246883" lon="12.2148283"><ele>745.0</ele><time>2026-04-05T09:04:04.591Z</time></trkpt><trkpt lat="43.7248067" lon="12.21469"><ele>740.6666666666667</ele><time>2026-04-05T09:04:05.591Z</time></trkpt><trkpt lat="43.72495" lon="12.2145617"><ele>736.3333333333334</ele><time>2026-04-05T09:04:06.591Z</time></trkpt><trkpt lat="43.7250917" lon="12.21445"><ele>732.0</ele><time>2026-04-05T09:04:07.591Z</time></trkpt><trkpt lat="43.7252167" lon="12.2143467"><ele>730.75</ele><time>2026-04-05T09:04:08.591Z</time></trkpt><trkpt lat="43.7253367" lon="12.214245"><ele>729.5</ele><time>2026-04-05T09:04:09.59Z</time></trkpt><trkpt lat="43.725445" lon="12.2141483"><ele>728.25</ele><time>2026-04-05T09:04:10.591Z</time></trkpt><trkpt lat="43.7255367" lon="12.214035"><ele>727.0</ele><time>2026-04-05T09:04:11.591Z</time></trkpt><trkpt lat="43.725615" lon="12.2139017"><ele>727.0</ele><time>2026-04-05T09:04:12.591Z</time></trkpt><trkpt lat="43.7256583" lon="12.2137467"><ele>727.0</ele><time>2026-04-05T09:04:13.591Z</time></trkpt><trkpt lat="43.72566" lon="12.2135767"><ele>727.0</ele><time>2026-04-05T09:04:14.59Z</time></trkpt><trkpt lat="43.7256333" lon="12.2134083"><ele>727.0</ele><time>2026-04-05T09:04:15.59Z</time></trkpt><trkpt lat="43.7255783" lon="12.2132567"><ele>725.0</ele><time>2026-04-05T09:04:16.591Z</time></trkpt><trkpt lat="43.72547" lon="12.2131133"><ele>723.0</ele><time>2026-04-05T09:04:17.59Z</time></trkpt><trkpt lat="43.7253367" lon="12.2129617"><ele>721.0</ele><time>2026-04-05T09:04:18.591Z</time></trkpt><trkpt lat="43.7251767" lon="12.212805"><ele>720.5</ele><time>2026-04-05T09:04:19.591Z</time></trkpt><trkpt lat="43.7249983" lon="12.2126267"><ele>720.0</ele><time>2026-04-05T09:04:20.59Z</time></trkpt><trkpt lat="43.7248" lon="12.2124483"><ele>718.0</ele><time>2026-04-05T09:04:21.591Z</time></trkpt><trkpt lat="43.724605" lon="12.21228"><ele>716.0</ele><time>2026-04-05T09:04:22.59Z</time></trkpt><trkpt lat="43.7244183" lon="12.21213"><ele>714.0</ele><time>2026-04-05T09:04:23.591Z</time></trkpt><trkpt lat="43.72424" lon="12.2119967"><ele>713.0</ele><time>2026-04-05T09:04:24.591Z</time></trkpt><trkpt lat="43.7240767" lon="12.2118733"><ele>712.0</ele><time>2026-04-05T09:04:25.591Z</time></trkpt><trkpt lat="43.7239333" lon="12.21177"><ele>711.0</ele><time>2026-04-05T09:04:26.591Z</time></trkpt><trkpt lat="43.7238017" lon="12.21169"><ele>711.0</ele><time>2026-04-05T09:04:27.591Z</time></trkpt><trkpt lat="43.7236667" lon="12.2116467"><ele>711.0</ele><time>2026-04-05T09:04:28.591Z</time></trkpt><trkpt lat="43.7235367" lon="12.21166"><ele>711.0</ele><time>2026-04-05T09:04:29.591Z</time></trkpt><trkpt lat="43.7234" lon="12.2117383"><ele>711.0</ele><time>2026-04-05T09:04:30.591Z</time></trkpt><trkpt lat="43.72326" lon="12.2119083"><ele>713.0</ele><time>2026-04-05T09:04:31.591Z</time></trkpt><trkpt lat="43.7231233" lon="12.2121117"><ele>715.0</ele><time>2026-04-05T09:04:32.591Z</time></trkpt><trkpt lat="43.7230017" lon="12.2123117"><ele>717.0</ele><time>2026-04-05T09:04:33.591Z</time></trkpt><trkpt lat="43.7228833" lon="12.212495"><ele>717.0</ele><time>2026-04-05T09:04:34.591Z</time></trkpt><trkpt lat="43.7227883" lon="12.2126767"><ele>717.0</ele><time>2026-04-05T09:04:35.59Z</time></trkpt><trkpt lat="43.72272" lon="12.2128733"><ele>717.0</ele><time>2026-04-05T09:04:36.591Z</time></trkpt><trkpt lat="43.7226733" lon="12.2130583"><ele>712.75</ele><time>2026-04-05T09:04:37.591Z</time></trkpt><trkpt lat="43.7226167" lon="12.2132167"><ele>708.5</ele><time>2026-04-05T09:04:38.591Z</time></trkpt><trkpt lat="43.7225267" lon="12.2133283"><ele>704.25</ele><time>2026-04-05T09:04:39.59Z</time></trkpt><trkpt lat="43.722415" lon="12.2133817"><ele>700.0</ele><time>2026-04-05T09:04:40.591Z</time></trkpt><trkpt lat="43.7222917" lon="12.2133767"><ele>700.0</ele><time>2026-04-05T09:04:41.59Z</time></trkpt><trkpt lat="43.722135" lon="12.213305"><ele>700.0</ele><time>2026-04-05T09:04:42.59Z</time></trkpt><trkpt lat="43.7219617" lon="12.21318"><ele>700.0</ele><time>2026-04-05T09:04:43.59Z</time></trkpt><trkpt lat="43.72177" lon="12.2130317"><ele>696.3333333333334</ele><time>2026-04-05T09:04:44.591Z</time></trkpt><trkpt lat="43.7215783" lon="12.2128917"><ele>692.6666666666666</ele><time>2026-04-05T09:04:45.591Z</time></trkpt><trkpt lat="43.7214" lon="12.2127567"><ele>689.0</ele><time>2026-04-05T09:04:46.59Z</time></trkpt><trkpt lat="43.7212267" lon="12.2126317"><ele>689.0</ele><time>2026-04-05T09:04:47.59Z</time></trkpt><trkpt lat="43.7210717" lon="12.2125033"><ele>689.0</ele><time>2026-04-05T09:04:48.591Z</time></trkpt><trkpt lat="43.7209283" lon="12.21236"><ele>689.0</ele><time>2026-04-05T09:04:49.591Z</time></trkpt><trkpt lat="43.7208033" lon="12.2121767"><ele>686.0</ele><time>2026-04-05T09:04:50.59Z</time></trkpt><trkpt lat="43.7207017" lon="12.2119517"><ele>683.0</ele><time>2026-04-05T09:04:51.59Z</time></trkpt><trkpt lat="43.72061" lon="12.21173"><ele>680.0</ele><time>2026-04-05T09:04:52.59Z</time></trkpt><trkpt lat="43.720525" lon="12.2115167"><ele>678.25</ele><time>2026-04-05T09:04:53.591Z</time></trkpt><trkpt lat="43.72045" lon="12.2113417"><ele>676.5</ele><time>2026-04-05T09:04:54.591Z</time></trkpt><trkpt lat="43.7203817" lon="12.2112033"><ele>674.75</ele><time>2026-04-05T09:04:55.59Z</time></trkpt><trkpt lat="43.7203" lon="12.21111"><ele>673.0</ele><time>2026-04-05T09:04:56.591Z</time></trkpt><trkpt lat="43.7201817" lon="12.2110617"><ele>673.0</ele><time>2026-04-05T09:04:57.591Z</time></trkpt><trkpt lat="43.7200367" lon="12.2110683"><ele>673.0</ele><time>2026-04-05T09:04:58.591Z</time></trkpt><trkpt lat="43.7198867" lon="12.21113"><ele>673.0</ele><time>2026-04-05T09:04:59.59Z</time></trkpt><trkpt lat="43.719755" lon="12.2112217"><ele>673.0</ele><time>2026-04-05T09:05:00.591Z</time></trkpt><trkpt lat="43.7196417" lon="12.2113867"><ele>674.6666666666667</ele><time>2026-04-05T09:05:01.591Z</time></trkpt><trkpt lat="43.7195567" lon="12.211575"><ele>676.3333333333334</ele><time>2026-04-05T09:05:02.591Z</time></trkpt><trkpt lat="43.719475" lon="12.21177"><ele>678.0</ele><time>2026-04-05T09:05:03.591Z</time></trkpt><trkpt lat="43.7193683" lon="12.2119233"><ele>673.6666666666666</ele><time>2026-04-05T09:05:04.591Z</time></trkpt><trkpt lat="43.7192383" lon="12.2120317"><ele>669.3333333333333</ele><time>2026-04-05T09:05:05.591Z</time></trkpt><trkpt lat="43.7190933" lon="12.212095"><ele>665.0</ele><time>2026-04-05T09:05:06.59Z</time></trkpt><trkpt lat="43.7189217" lon="12.21211"><ele>665.0</ele><time>2026-04-05T09:05:07.591Z</time></trkpt><trkpt lat="43.7187567" lon="12.2120917"><ele>665.0</ele><time>2026-04-05T09:05:08.591Z</time></trkpt><trkpt lat="43.71859" lon="12.212065"><ele>665.0</ele><time>2026-04-05T09:05:09.59Z</time></trkpt><trkpt lat="43.71842" lon="12.212015"><ele>662.6666666666666</ele><time>2026-04-05T09:05:10.591Z</time></trkpt><trkpt lat="43.7182417" lon="12.2119317"><ele>660.3333333333334</ele><time>2026-04-05T09:05:11.591Z</time></trkpt><trkpt lat="43.7180767" lon="12.2118383"><ele>658.0</ele><time>2026-04-05T09:05:12.591Z</time></trkpt><trkpt lat="43.7179133" lon="12.21175"><ele>658.0</ele><time>2026-04-05T09:05:13.591Z</time></trkpt><trkpt lat="43.7177633" lon="12.2116767"><ele>658.0</ele><time>2026-04-05T09:05:14.591Z</time></trkpt><trkpt lat="43.71763" lon="12.2116067"><ele>658.0</ele><time>2026-04-05T09:05:15.591Z</time></trkpt><trkpt lat="43.717515" lon="12.211565"><ele>658.0</ele><time>2026-04-05T09:05:16.591Z</time></trkpt><trkpt lat="43.7173983" lon="12.2115617"><ele>657.5</ele><time>2026-04-05T09:05:17.591Z</time></trkpt><trkpt lat="43.7172917" lon="12.2116283"><ele>657.0</ele><time>2026-04-05T09:05:18.59Z</time></trkpt><trkpt lat="43.7172017" lon="12.2117483"><ele>656.5</ele><time>2026-04-05T09:05:19.591Z</time></trkpt><trkpt lat="43.71715" lon="12.2119283"><ele>656.0</ele><time>2026-04-05T09:05:20.591Z</time></trkpt><trkpt lat="43.7171267" lon="12.2121217"><ele>656.0</ele><time>2026-04-05T09:05:21.591Z</time></trkpt><trkpt lat="43.7171033" lon="12.2123067"><ele>656.0</ele><time>2026-04-05T09:05:22.591Z</time></trkpt><trkpt lat="43.717075" lon="12.212475"><ele>656.0</ele><time>2026-04-05T09:05:23.591Z</time></trkpt><trkpt lat="43.7170467" lon="12.2126317"><ele>656.0</ele><time>2026-04-05T09:05:24.591Z</time></trkpt><trkpt lat="43.7170083" lon="12.2127733"><ele>654.8</ele><time>2026-04-05T09:05:25.59Z</time></trkpt><trkpt lat="43.7169567" lon="12.212895"><ele>653.5999999999999</ele><time>2026-04-05T09:05:26.59Z</time></trkpt><trkpt lat="43.7168633" lon="12.2129783"><ele>652.4</ele><time>2026-04-05T09:05:27.591Z</time></trkpt><trkpt lat="43.7167617" lon="12.2130167"><ele>651.2</ele><time>2026-04-05T09:05:28.59Z</time></trkpt><trkpt lat="43.71665" lon="12.2130233"><ele>650.0</ele><time>2026-04-05T09:05:29.59Z</time></trkpt><trkpt lat="43.7165317" lon="12.2129883"><ele>650.0</ele><time>2026-04-05T09:05:30.59Z</time></trkpt><trkpt lat="43.71642" lon="12.212905"><ele>650.0</ele><time>2026-04-05T09:05:31.591Z</time></trkpt><trkpt lat="43.71632" lon="12.2127833"><ele>650.0</ele><time>2026-04-05T09:05:32.591Z</time></trkpt><trkpt lat="43.7162267" lon="12.2126567"><ele>650.0</ele><time>2026-04-05T09:05:33.591Z</time></trkpt><trkpt lat="43.7161283" lon="12.21253"><ele>649.75</ele><time>2026-04-05T09:05:34.591Z</time></trkpt><trkpt lat="43.71604" lon="12.212415"><ele>649.5</ele><time>2026-04-05T09:05:35.59Z</time></trkpt><trkpt lat="43.7159417" lon="12.2122983"><ele>649.25</ele><time>2026-04-05T09:05:36.591Z</time></trkpt><trkpt lat="43.7158333" lon="12.21221"><ele>649.0</ele><time>2026-04-05T09:05:37.591Z</time></trkpt><trkpt lat="43.715705" lon="12.2121667"><ele>645.5</ele><time>2026-04-05T09:05:38.591Z</time></trkpt><trkpt lat="43.7155767" lon="12.2121583"><ele>642.0</ele><time>2026-04-05T09:05:39.591Z</time></trkpt><trkpt lat="43.71545" lon="12.2121617"><ele>638.5</ele><time>2026-04-05T09:05:40.591Z</time></trkpt><trkpt lat="43.7153217" lon="12.212135"><ele>635.0</ele><time>2026-04-05T09:05:41.591Z</time></trkpt><trkpt lat="43.7151883" lon="12.2120767"><ele>635.0</ele><time>2026-04-05T09:05:42.591Z</time></trkpt><trkpt lat="43.7150517" lon="12.2119967"><ele>635.0</ele><time>2026-04-05T09:05:43.591Z</time></trkpt><trkpt lat="43.7148967" lon="12.211875"><ele>635.0</ele><time>2026-04-05T09:05:44.591Z</time></trkpt><trkpt lat="43.71472" lon="12.2117183"><ele>635.0</ele><time>2026-04-05T09:05:45.591Z</time></trkpt><trkpt lat="43.71454" lon="12.2115433"><ele>635.0</ele><time>2026-04-05T09:05:46.591Z</time></trkpt><trkpt lat="43.7143783" lon="12.2113717"><ele>635.0</ele><time>2026-04-05T09:05:47.59Z</time></trkpt><trkpt lat="43.71423" lon="12.2112167"><ele>633.3333333333333</ele><time>2026-04-05T09:05:48.59Z</time></trkpt><trkpt lat="43.71409" lon="12.2110533"><ele>631.6666666666666</ele><time>2026-04-05T09:05:49.591Z</time></trkpt><trkpt lat="43.713965" lon="12.2108867"><ele>630.0</ele><time>2026-04-05T09:05:50.59Z</time></trkpt><trkpt lat="43.7138617" lon="12.210695"><ele>626.6666666666666</ele><time>2026-04-05T09:05:51.591Z</time></trkpt><trkpt lat="43.7137733" lon="12.2104633"><ele>623.3333333333333</ele><time>2026-04-05T09:05:52.591Z</time></trkpt><trkpt lat="43.7136967" lon="12.210215"><ele>620.0</ele><time>2026-04-05T09:05:53.591Z</time></trkpt><trkpt lat="43.7136333" lon="12.2099783"><ele>620.3333333333333</ele><time>2026-04-05T09:05:54.591Z</time></trkpt><trkpt lat="43.7135683" lon="12.2097633"><ele>620.6666666666666</ele><time>2026-04-05T09:05:55.59Z</time></trkpt><trkpt lat="43.7134933" lon="12.2095633"><ele>621.0</ele><time>2026-04-05T09:05:56.591Z</time></trkpt><trkpt lat="43.7133833" lon="12.209355"><ele>621.0</ele><time>2026-04-05T09:05:57.591Z</time></trkpt><trkpt lat="43.71323" lon="12.2091417"><ele>621.0</ele><time>2026-04-05T09:05:58.591Z</time></trkpt><trkpt lat="43.7130633" lon="12.208915"><ele>619.0</ele><time>2026-04-05T09:05:59.591Z</time></trkpt><trkpt lat="43.7129067" lon="12.2087"><ele>617.0</ele><time>2026-04-05T09:06:00.591Z</time></trkpt><trkpt lat="43.7127633" lon="12.2085"><ele>615.0</ele><time>2026-04-05T09:06:01.591Z</time></trkpt><trkpt lat="43.7126367" lon="12.20832"><ele>615.0</ele><time>2026-04-05T09:06:02.591Z</time></trkpt><trkpt lat="43.7125283" lon="12.20818"><ele>615.0</ele><time>2026-04-05T09:06:03.59Z</time></trkpt><trkpt lat="43.7124367" lon="12.2080717"><ele>615.0</ele><time>2026-04-05T09:06:04.591Z</time></trkpt><trkpt lat="43.712335" lon="12.2080233"><ele>615.0</ele><time>2026-04-05T09:06:05.591Z</time></trkpt><trkpt lat="43.712225" lon="12.2080433"><ele>615.0</ele><time>2026-04-05T09:06:06.591Z</time></trkpt><trkpt lat="43.712125" lon="12.2081333"><ele>615.0</ele><time>2026-04-05T09:06:07.591Z</time></trkpt><trkpt lat="43.7120317" lon="12.2083"><ele>615.0</ele><time>2026-04-05T09:06:08.59Z</time></trkpt><trkpt lat="43.7119583" lon="12.2085417"><ele>612.6666666666666</ele><time>2026-04-05T09:06:09.59Z</time></trkpt><trkpt lat="43.71189" lon="12.2087817"><ele>610.3333333333333</ele><time>2026-04-05T09:06:10.591Z</time></trkpt><trkpt lat="43.7118133" lon="12.2089933"><ele>608.0</ele><time>2026-04-05T09:06:11.591Z</time></trkpt><trkpt lat="43.711745" lon="12.20919"><ele>608.0</ele><time>2026-04-05T09:06:12.591Z</time></trkpt><trkpt lat="43.7116717" lon="12.20938"><ele>608.0</ele><time>2026-04-05T09:06:13.59Z</time></trkpt><trkpt lat="43.7116017" lon="12.20954"><ele>608.0</ele><time>2026-04-05T09:06:14.591Z</time></trkpt><trkpt lat="43.7115017" lon="12.2096667"><ele>608.0</ele><time>2026-04-05T09:06:15.591Z</time></trkpt><trkpt lat="43.7113567" lon="12.2097417"><ele>608.0</ele><time>2026-04-05T09:06:16.591Z</time></trkpt><trkpt lat="43.711185" lon="12.2097517"><ele>608.0</ele><time>2026-04-05T09:06:17.591Z</time></trkpt><trkpt lat="43.7110067" lon="12.2097283"><ele>608.0</ele><time>2026-04-05T09:06:18.591Z</time></trkpt><trkpt lat="43.71084" lon="12.209715"><ele>604.3333333333333</ele><time>2026-04-05T09:06:19.59Z</time></trkpt><trkpt lat="43.7106817" lon="12.2097183"><ele>600.6666666666666</ele><time>2026-04-05T09:06:20.591Z</time></trkpt><trkpt lat="43.7105317" lon="12.209735"><ele>597.0</ele><time>2026-04-05T09:06:21.591Z</time></trkpt><trkpt lat="43.71037" lon="12.20972"><ele>596.3333333333334</ele><time>2026-04-05T09:06:22.591Z</time></trkpt><trkpt lat="43.7101967" lon="12.20967"><ele>595.6666666666667</ele><time>2026-04-05T09:06:23.59Z</time></trkpt><trkpt lat="43.7100117" lon="12.2095967"><ele>595.0</ele><time>2026-04-05T09:06:24.591Z</time></trkpt><trkpt lat="43.7098233" lon="12.2095067"><ele>595.0</ele><time>2026-04-05T09:06:25.591Z</time></trkpt><trkpt lat="43.7096317" lon="12.2094333"><ele>595.0</ele><time>2026-04-05T09:06:26.59Z</time></trkpt><trkpt lat="43.7094533" lon="12.20937"><ele>595.0</ele><time>2026-04-05T09:06:27.591Z</time></trkpt><trkpt lat="43.7092933" lon="12.2093083"><ele>593.75</ele><time>2026-04-05T09:06:28.591Z</time></trkpt><trkpt lat="43.7091633" lon="12.2092583"><ele>592.5</ele><time>2026-04-05T09:06:29.59Z</time></trkpt><trkpt lat="43.709055" lon="12.2092067"><ele>591.25</ele><time>2026-04-05T09:06:30.59Z</time></trkpt><trkpt lat="43.7089617" lon="12.20914"><ele>590.0</ele><time>2026-04-05T09:06:31.591Z</time></trkpt><trkpt lat="43.70889" lon="12.2090367"><ele>588.25</ele><time>2026-04-05T09:06:32.591Z</time></trkpt><trkpt lat="43.70886" lon="12.2088983"><ele>586.5</ele><time>2026-04-05T09:06:33.59Z</time></trkpt><trkpt lat="43.7088733" lon="12.208755"><ele>584.75</ele><time>2026-04-05T09:06:34.59Z</time></trkpt><trkpt lat="43.7089267" lon="12.2086183"><ele>583.0</ele><time>2026-04-05T09:06:35.59Z</time></trkpt><trkpt lat="43.7090167" lon="12.2084783"><ele>583.0</ele><time>2026-04-05T09:06:36.591Z</time></trkpt><trkpt lat="43.7091317" lon="12.2083283"><ele>583.0</ele><time>2026-04-05T09:06:37.591Z</time></trkpt><trkpt lat="43.70926" lon="12.208165"><ele>583.0</ele><time>2026-04-05T09:06:38.591Z</time></trkpt><trkpt lat="43.709375" lon="12.2080017"><ele>582.6666666666667</ele><time>2026-04-05T09:06:39.591Z</time></trkpt><trkpt lat="43.709485" lon="12.207835"><ele>582.3333333333334</ele><time>2026-04-05T09:06:40.591Z</time></trkpt><trkpt lat="43.709585" lon="12.2076633"><ele>582.0</ele><time>2026-04-05T09:06:41.591Z</time></trkpt><trkpt lat="43.7096867" lon="12.2075083"><ele>582.0</ele><time>2026-04-05T09:06:42.591Z</time></trkpt><trkpt lat="43.70978" lon="12.2073633"><ele>582.0</ele><time>2026-04-05T09:06:43.591Z</time></trkpt><trkpt lat="43.70987" lon="12.2071917"><ele>582.0</ele><time>2026-04-05T09:06:44.591Z</time></trkpt><trkpt lat="43.7099583" lon="12.20698"><ele>580.0</ele><time>2026-04-05T09:06:45.59Z</time></trkpt><trkpt lat="43.710025" lon="12.206745"><ele>578.0</ele><time>2026-04-05T09:06:46.591Z</time></trkpt><trkpt lat="43.7100867" lon="12.2065233"><ele>576.0</ele><time>2026-04-05T09:06:47.591Z</time></trkpt><trkpt lat="43.7101433" lon="12.2063417"><ele>574.4</ele><time>2026-04-05T09:06:48.59Z</time></trkpt><trkpt lat="43.7102033" lon="12.20619"><ele>572.8</ele><time>2026-04-05T09:06:49.591Z</time></trkpt><trkpt lat="43.7102567" lon="12.2060783"><ele>571.1999999999999</ele><time>2026-04-05T09:06:50.59Z</time></trkpt><trkpt lat="43.7103217" lon="12.2059917"><ele>569.6</ele><time>2026-04-05T09:06:51.59Z</time></trkpt><trkpt lat="43.7104217" lon="12.20596"><ele>568.0</ele><time>2026-04-05T09:06:52.591Z</time></trkpt><trkpt lat="43.7105483" lon="12.205965"><ele>568.0</ele><time>2026-04-05T09:06:53.591Z</time></trkpt><trkpt lat="43.710675" lon="12.2059767"><ele>568.0</ele><time>2026-04-05T09:06:54.591Z</time></trkpt><trkpt lat="43.71081" lon="12.2059667"><ele>568.0</ele><time>2026-04-05T09:06:55.59Z</time></trkpt><trkpt lat="43.710955" lon="12.2059067"><ele>568.0</ele><time>2026-04-05T09:06:56.592Z</time></trkpt><trkpt lat="43.7110967" lon="12.2057783"><ele>566.3333333333334</ele><time>2026-04-05T09:06:57.591Z</time></trkpt><trkpt lat="43.7112183" lon="12.205635"><ele>564.6666666666666</ele><time>2026-04-05T09:06:58.592Z</time></trkpt><trkpt lat="43.711325" lon="12.205485"><ele>563.0</ele><time>2026-04-05T09:06:59.592Z</time></trkpt><trkpt lat="43.7114067" lon="12.2053217"><ele>563.0</ele><time>2026-04-05T09:07:00.592Z</time></trkpt><trkpt lat="43.7114617" lon="12.2051133"><ele>563.0</ele><time>2026-04-05T09:07:01.591Z</time></trkpt><trkpt lat="43.7114833" lon="12.2048783"><ele>563.0</ele><time>2026-04-05T09:07:02.592Z</time></trkpt><trkpt lat="43.7115" lon="12.2046267"><ele>560.6666666666666</ele><time>2026-04-05T09:07:03.592Z</time></trkpt><trkpt lat="43.7115133" lon="12.2043817"><ele>558.3333333333334</ele><time>2026-04-05T09:07:04.592Z</time></trkpt><trkpt lat="43.7115317" lon="12.204145"><ele>556.0</ele><time>2026-04-05T09:07:05.592Z</time></trkpt><trkpt lat="43.7115467" lon="12.2039333"><ele>555.0</ele><time>2026-04-05T09:07:06.592Z</time></trkpt><trkpt lat="43.711555" lon="12.2037433"><ele>554.0</ele><time>2026-04-05T09:07:07.591Z</time></trkpt><trkpt lat="43.7115683" lon="12.20357"><ele>553.0</ele><time>2026-04-05T09:07:08.591Z</time></trkpt><trkpt lat="43.7116117" lon="12.203425"><ele>552.0</ele><time>2026-04-05T09:07:09.592Z</time></trkpt><trkpt lat="43.71169" lon="12.2032667"><ele>550.3333333333334</ele><time>2026-04-05T09:07:10.591Z</time></trkpt><trkpt lat="43.7117783" lon="12.20309"><ele>548.6666666666667</ele><time>2026-04-05T09:07:11.591Z</time></trkpt><trkpt lat="43.7118717" lon="12.202915"><ele>547.0</ele><time>2026-04-05T09:07:12.592Z</time></trkpt><trkpt lat="43.71197" lon="12.2027483"><ele>547.0</ele><time>2026-04-05T09:07:13.591Z</time></trkpt><trkpt lat="43.7120783" lon="12.2026167"><ele>547.0</ele><time>2026-04-05T09:07:14.592Z</time></trkpt><trkpt lat="43.7122067" lon="12.2025383"><ele>547.0</ele><time>2026-04-05T09:07:15.591Z</time></trkpt><trkpt lat="43.7123517" lon="12.202515"><ele>547.0</ele><time>2026-04-05T09:07:16.592Z</time></trkpt><trkpt lat="43.7124867" lon="12.2025433"><ele>547.0</ele><time>2026-04-05T09:07:17.592Z</time></trkpt><trkpt lat="43.7126217" lon="12.202585"><ele>547.0</ele><time>2026-04-05T09:07:18.591Z</time></trkpt><trkpt lat="43.71274" lon="12.2026167"><ele>547.0</ele><time>2026-04-05T09:07:19.591Z</time></trkpt><trkpt lat="43.7128467" lon="12.2025883"><ele>547.0</ele><time>2026-04-05T09:07:20.591Z</time></trkpt><trkpt lat="43.7129417" lon="12.2025117"><ele>547.75</ele><time>2026-04-05T09:07:21.591Z</time></trkpt><trkpt lat="43.713005" lon="12.202375"><ele>548.5</ele><time>2026-04-05T09:07:22.592Z</time></trkpt><trkpt lat="43.7130267" lon="12.20221"><ele>549.25</ele><time>2026-04-05T09:07:23.592Z</time></trkpt><trkpt lat="43.71299" lon="12.2020183"><ele>550.0</ele><time>2026-04-05T09:07:24.592Z</time></trkpt><trkpt lat="43.7128967" lon="12.20184"><ele>550.0</ele><time>2026-04-05T09:07:25.592Z</time></trkpt><trkpt lat="43.71277" lon="12.2016917"><ele>550.0</ele><time>2026-04-05T09:07:26.592Z</time></trkpt><trkpt lat="43.7126117" lon="12.2016"><ele>550.0</ele><time>2026-04-05T09:07:27.592Z</time></trkpt><trkpt lat="43.71247" lon="12.2015233"><ele>548.75</ele><time>2026-04-05T09:07:28.592Z</time></trkpt><trkpt lat="43.7123483" lon="12.2014333"><ele>547.5</ele><time>2026-04-05T09:07:29.592Z</time></trkpt><trkpt lat="43.712265" lon="12.2013117"><ele>546.25</ele><time>2026-04-05T09:07:30.592Z</time></trkpt><trkpt lat="43.7122167" lon="12.2011733"><ele>545.0</ele><time>2026-04-05T09:07:31.592Z</time></trkpt><trkpt lat="43.7122217" lon="12.2010283"><ele>545.0</ele><time>2026-04-05T09:07:32.592Z</time></trkpt><trkpt lat="43.712265" lon="12.200885"><ele>545.0</ele><time>2026-04-05T09:07:33.592Z</time></trkpt><trkpt lat="43.712325" lon="12.2007217"><ele>545.0</ele><time>2026-04-05T09:07:34.592Z</time></trkpt><trkpt lat="43.7123867" lon="12.2005683"><ele>545.0</ele><time>2026-04-05T09:07:35.591Z</time></trkpt><trkpt lat="43.7124367" lon="12.2004283"><ele>545.2</ele><time>2026-04-05T09:07:36.592Z</time></trkpt><trkpt lat="43.7124883" lon="12.2002983"><ele>545.4</ele><time>2026-04-05T09:07:37.591Z</time></trkpt><trkpt lat="43.7125517" lon="12.20019"><ele>545.6</ele><time>2026-04-05T09:07:38.592Z</time></trkpt><trkpt lat="43.712625" lon="12.2001083"><ele>545.8</ele><time>2026-04-05T09:07:39.592Z</time></trkpt><trkpt lat="43.7127033" lon="12.2000517"><ele>546.0</ele><time>2026-04-05T09:07:40.591Z</time></trkpt><trkpt lat="43.7128017" lon="12.2000233"><ele>546.0</ele><time>2026-04-05T09:07:41.592Z</time></trkpt><trkpt lat="43.712905" lon="12.1999967"><ele>546.0</ele><time>2026-04-05T09:07:42.592Z</time></trkpt><trkpt lat="43.7130117" lon="12.1999383"><ele>546.0</ele><time>2026-04-05T09:07:43.592Z</time></trkpt><trkpt lat="43.7131117" lon="12.1998667"><ele>546.0</ele><time>2026-04-05T09:07:44.592Z</time></trkpt><trkpt lat="43.7132133" lon="12.1997517"><ele>545.0</ele><time>2026-04-05T09:07:45.591Z</time></trkpt><trkpt lat="43.7133067" lon="12.199605"><ele>544.0</ele><time>2026-04-05T09:07:46.592Z</time></trkpt><trkpt lat="43.7134033" lon="12.199455"><ele>543.0</ele><time>2026-04-05T09:07:47.592Z</time></trkpt><trkpt lat="43.7135033" lon="12.1992933"><ele>542.0</ele><time>2026-04-05T09:07:48.592Z</time></trkpt><trkpt lat="43.7135933" lon="12.1991267"><ele>543.0</ele><time>2026-04-05T09:07:49.592Z</time></trkpt><trkpt lat="43.7136867" lon="12.1989733"><ele>544.0</ele><time>2026-04-05T09:07:50.591Z</time></trkpt><trkpt lat="43.713775" lon="12.19882"><ele>545.0</ele><time>2026-04-05T09:07:51.592Z</time></trkpt><trkpt lat="43.7138567" lon="12.1986717"><ele>546.0</ele><time>2026-04-05T09:07:52.591Z</time></trkpt><trkpt lat="43.713935" lon="12.198535"><ele>546.0</ele><time>2026-04-05T09:07:53.591Z</time></trkpt><trkpt lat="43.7140217" lon="12.198405"><ele>546.0</ele><time>2026-04-05T09:07:54.592Z</time></trkpt><trkpt lat="43.7141133" lon="12.1982717"><ele>546.0</ele><time>2026-04-05T09:07:55.592Z</time></trkpt><trkpt lat="43.7142217" lon="12.1981467"><ele>546.0</ele><time>2026-04-05T09:07:56.592Z</time></trkpt><trkpt lat="43.7143333" lon="12.19803"><ele>546.3333333333334</ele><time>2026-04-05T09:07:57.592Z</time></trkpt><trkpt lat="43.7144583" lon="12.1979"><ele>546.6666666666667</ele><time>2026-04-05T09:07:58.592Z</time></trkpt><trkpt lat="43.714595" lon="12.1977833"><ele>547.0</ele><time>2026-04-05T09:07:59.592Z</time></trkpt><trkpt lat="43.7147333" lon="12.19767"><ele>547.0</ele><time>2026-04-05T09:08:00.592Z</time></trkpt><trkpt lat="43.714865" lon="12.1975567"><ele>547.0</ele><time>2026-04-05T09:08:01.591Z</time></trkpt><trkpt lat="43.7149933" lon="12.1974417"><ele>547.0</ele><time>2026-04-05T09:08:02.592Z</time></trkpt><trkpt lat="43.71513" lon="12.1973317"><ele>548.0</ele><time>2026-04-05T09:08:03.592Z</time></trkpt><trkpt lat="43.7152633" lon="12.1972083"><ele>549.0</ele><time>2026-04-05T09:08:04.592Z</time></trkpt><trkpt lat="43.7154" lon="12.1970867"><ele>550.0</ele><time>2026-04-05T09:08:05.592Z</time></trkpt><trkpt lat="43.7155483" lon="12.196965"><ele>550.0</ele><time>2026-04-05T09:08:06.592Z</time></trkpt><trkpt lat="43.7156933" lon="12.1968783"><ele>550.0</ele><time>2026-04-05T09:08:07.592Z</time></trkpt><trkpt lat="43.7158383" lon="12.196815"><ele>550.0</ele><time>2026-04-05T09:08:08.592Z</time></trkpt><trkpt lat="43.71598" lon="12.196795"><ele>552.4</ele><time>2026-04-05T09:08:09.592Z</time></trkpt><trkpt lat="43.716105" lon="12.1968017"><ele>554.8</ele><time>2026-04-05T09:08:10.592Z</time></trkpt><trkpt lat="43.7162133" lon="12.19679"><ele>557.2</ele><time>2026-04-05T09:08:11.591Z</time></trkpt><trkpt lat="43.7162967" lon="12.196745"><ele>559.6</ele><time>2026-04-05T09:08:12.591Z</time></trkpt><trkpt lat="43.7163517" lon="12.19664"><ele>562.0</ele><time>2026-04-05T09:08:13.591Z</time></trkpt><trkpt lat="43.7163833" lon="12.196505"><ele>560.2</ele><time>2026-04-05T09:08:14.592Z</time></trkpt><trkpt lat="43.71641" lon="12.196385"><ele>558.4000000000001</ele><time>2026-04-05T09:08:15.592Z</time></trkpt><trkpt lat="43.716445" lon="12.1962883"><ele>556.5999999999999</ele><time>2026-04-05T09:08:16.592Z</time></trkpt><trkpt lat="43.716495" lon="12.19621"><ele>554.8</ele><time>2026-04-05T09:08:17.592Z</time></trkpt><trkpt lat="43.7165733" lon="12.1961333"><ele>553.0</ele><time>2026-04-05T09:08:18.592Z</time></trkpt><trkpt lat="43.7166833" lon="12.1960617"><ele>553.0</ele><time>2026-04-05T09:08:19.591Z</time></trkpt><trkpt lat="43.7168217" lon="12.1959967"><ele>553.0</ele><time>2026-04-05T09:08:20.592Z</time></trkpt><trkpt lat="43.71697" lon="12.1959333"><ele>553.0</ele><time>2026-04-05T09:08:21.591Z</time></trkpt><trkpt lat="43.717115" lon="12.1958817"><ele>553.0</ele><time>2026-04-05T09:08:22.592Z</time></trkpt><trkpt lat="43.71726" lon="12.1958167"><ele>553.0</ele><time>2026-04-05T09:08:23.592Z</time></trkpt><trkpt lat="43.7174333" lon="12.1957417"><ele>553.0</ele><time>2026-04-05T09:08:24.592Z</time></trkpt><trkpt lat="43.7176317" lon="12.1956517"><ele>553.5</ele><time>2026-04-05T09:08:25.591Z</time></trkpt><trkpt lat="43.71785" lon="12.195555"><ele>554.0</ele><time>2026-04-05T09:08:26.592Z</time></trkpt><trkpt lat="43.71809" lon="12.195445"><ele>554.0</ele><time>2026-04-05T09:08:27.592Z</time></trkpt><trkpt lat="43.7183533" lon="12.19534"><ele>554.0</ele><time>2026-04-05T09:08:28.592Z</time></trkpt><trkpt lat="43.7186117" lon="12.19524"><ele>556.5</ele><time>2026-04-05T09:08:29.592Z</time></trkpt><trkpt lat="43.7188467" lon="12.19515"><ele>559.0</ele><time>2026-04-05T09:08:30.592Z</time></trkpt><trkpt lat="43.7190717" lon="12.1950617"><ele>559.0</ele><time>2026-04-05T09:08:31.592Z</time></trkpt><trkpt lat="43.71928" lon="12.1949783"><ele>559.0</ele><time>2026-04-05T09:08:32.591Z</time></trkpt><trkpt lat="43.7194767" lon="12.1949017"><ele>559.0</ele><time>2026-04-05T09:08:33.592Z</time></trkpt><trkpt lat="43.719675" lon="12.19481"><ele>558.3333333333334</ele><time>2026-04-05T09:08:34.592Z</time></trkpt><trkpt lat="43.7198783" lon="12.1947033"><ele>557.6666666666666</ele><time>2026-04-05T09:08:35.591Z</time></trkpt><trkpt lat="43.7200667" lon="12.194585"><ele>557.0</ele><time>2026-04-05T09:08:36.592Z</time></trkpt><trkpt lat="43.7202483" lon="12.1944667"><ele>557.0</ele><time>2026-04-05T09:08:37.592Z</time></trkpt><trkpt lat="43.7204167" lon="12.1943583"><ele>557.0</ele><time>2026-04-05T09:08:38.591Z</time></trkpt><trkpt lat="43.7205833" lon="12.1942617"><ele>557.0</ele><time>2026-04-05T09:08:39.592Z</time></trkpt><trkpt lat="43.7207367" lon="12.19419"><ele>557.0</ele><time>2026-04-05T09:08:40.592Z</time></trkpt><trkpt lat="43.7208783" lon="12.19414"><ele>557.0</ele><time>2026-04-05T09:08:41.592Z</time></trkpt><trkpt lat="43.7210183" lon="12.1941167"><ele>557.0</ele><time>2026-04-05T09:08:42.592Z</time></trkpt><trkpt lat="43.7211633" lon="12.1941083"><ele>557.0</ele><time>2026-04-05T09:08:43.591Z</time></trkpt><trkpt lat="43.7213033" lon="12.1940933"><ele>556.3333333333333</ele><time>2026-04-05T09:08:44.591Z</time></trkpt><trkpt lat="43.72146" lon="12.1940733"><ele>555.6666666666666</ele><time>2026-04-05T09:08:45.592Z</time></trkpt><trkpt lat="43.7216133" lon="12.1940617"><ele>555.0</ele><time>2026-04-05T09:08:46.591Z</time></trkpt><trkpt lat="43.7217667" lon="12.194055"><ele>553.75</ele><time>2026-04-05T09:08:47.591Z</time></trkpt><trkpt lat="43.72191" lon="12.1940533"><ele>552.5</ele><time>2026-04-05T09:08:48.592Z</time></trkpt><trkpt lat="43.7220367" lon="12.1940583"><ele>551.25</ele><time>2026-04-05T09:08:49.591Z</time></trkpt><trkpt lat="43.7221583" lon="12.194095"><ele>550.0</ele><time>2026-04-05T09:08:50.591Z</time></trkpt><trkpt lat="43.7222767" lon="12.19417"><ele>550.0</ele><time>2026-04-05T09:08:51.592Z</time></trkpt><trkpt lat="43.7223817" lon="12.19429"><ele>550.0</ele><time>2026-04-05T09:08:52.592Z</time></trkpt><trkpt lat="43.7224717" lon="12.1944217"><ele>550.0</ele><time>2026-04-05T09:08:53.592Z</time></trkpt><trkpt lat="43.7225483" lon="12.19455"><ele>550.0</ele><time>2026-04-05T09:08:54.592Z</time></trkpt><trkpt lat="43.7226417" lon="12.1946533"><ele>549.6666666666667</ele><time>2026-04-05T09:08:55.592Z</time></trkpt><trkpt lat="43.7227733" lon="12.1947283"><ele>549.3333333333334</ele><time>2026-04-05T09:08:56.592Z</time></trkpt><trkpt lat="43.722945" lon="12.1947917"><ele>549.0</ele><time>2026-04-05T09:08:57.591Z</time></trkpt><trkpt lat="43.7231367" lon="12.1948633"><ele>549.0</ele><time>2026-04-05T09:08:58.592Z</time></trkpt><trkpt lat="43.723335" lon="12.1949433"><ele>549.0</ele><time>2026-04-05T09:08:59.591Z</time></trkpt><trkpt lat="43.7235383" lon="12.19498"><ele>549.0</ele><time>2026-04-05T09:09:00.592Z</time></trkpt><trkpt lat="43.7237483" lon="12.194965"><ele>552.0</ele><time>2026-04-05T09:09:01.591Z</time></trkpt><trkpt lat="43.7239667" lon="12.1949033"><ele>555.0</ele><time>2026-04-05T09:09:02.591Z</time></trkpt><trkpt lat="43.7241717" lon="12.1948283"><ele>558.0</ele><time>2026-04-05T09:09:03.592Z</time></trkpt><trkpt lat="43.7243517" lon="12.1947383"><ele>557.0</ele><time>2026-04-05T09:09:04.592Z</time></trkpt><trkpt lat="43.72451" lon="12.19463"><ele>556.0</ele><time>2026-04-05T09:09:05.592Z</time></trkpt><trkpt lat="43.7246383" lon="12.1944783"><ele>555.0</ele><time>2026-04-05T09:09:06.592Z</time></trkpt><trkpt lat="43.72474" lon="12.1943067"><ele>555.0</ele><time>2026-04-05T09:09:07.592Z</time></trkpt><trkpt lat="43.72481" lon="12.19414"><ele>555.0</ele><time>2026-04-05T09:09:08.592Z</time></trkpt><trkpt lat="43.72488" lon="12.194005"><ele>555.0</ele><time>2026-04-05T09:09:09.591Z</time></trkpt><trkpt lat="43.7249767" lon="12.19393"><ele>555.0</ele><time>2026-04-05T09:09:10.592Z</time></trkpt><trkpt lat="43.725085" lon="12.1939283"><ele>555.0</ele><time>2026-04-05T09:09:11.591Z</time></trkpt><trkpt lat="43.7252" lon="12.1940183"><ele>555.0</ele><time>2026-04-05T09:09:12.592Z</time></trkpt><trkpt lat="43.7253167" lon="12.194195"><ele>555.0</ele><time>2026-04-05T09:09:13.591Z</time></trkpt><trkpt lat="43.725435" lon="12.1944233"><ele>556.6666666666666</ele><time>2026-04-05T09:09:14.592Z</time></trkpt><trkpt lat="43.7255467" lon="12.194675"><ele>558.3333333333333</ele><time>2026-04-05T09:09:15.591Z</time></trkpt><trkpt lat="43.72569" lon="12.19491"><ele>560.0</ele><time>2026-04-05T09:09:16.592Z</time></trkpt><trkpt lat="43.725855" lon="12.1951217"><ele>564.0</ele><time>2026-04-05T09:09:17.592Z</time></trkpt><trkpt lat="43.7260417" lon="12.1952917"><ele>568.0</ele><time>2026-04-05T09:09:18.592Z</time></trkpt><trkpt lat="43.726265" lon="12.1954283"><ele>568.0</ele><time>2026-04-05T09:09:19.592Z</time></trkpt><trkpt lat="43.726495" lon="12.1955567"><ele>568.0</ele><time>2026-04-05T09:09:20.592Z</time></trkpt><trkpt lat="43.7267217" lon="12.195675"><ele>562.0</ele><time>2026-04-05T09:09:21.592Z</time></trkpt><trkpt lat="43.7269567" lon="12.1958083"><ele>556.0</ele><time>2026-04-05T09:09:22.592Z</time></trkpt><trkpt lat="43.7271933" lon="12.1959467"><ele>556.0</ele><time>2026-04-05T09:09:23.591Z</time></trkpt><trkpt lat="43.7274117" lon="12.1960967"><ele>556.0</ele><time>2026-04-05T09:09:24.592Z</time></trkpt><trkpt lat="43.7276167" lon="12.1962317"><ele>557.3333333333334</ele><time>2026-04-05T09:09:25.592Z</time></trkpt><trkpt lat="43.7278183" lon="12.196345"><ele>558.6666666666666</ele><time>2026-04-05T09:09:26.591Z</time></trkpt><trkpt lat="43.7280167" lon="12.196455"><ele>560.0</ele><time>2026-04-05T09:09:27.591Z</time></trkpt><trkpt lat="43.7282233" lon="12.1965367"><ele>560.0</ele><time>2026-04-05T09:09:28.591Z</time></trkpt><trkpt lat="43.728415" lon="12.19659"><ele>560.0</ele><time>2026-04-05T09:09:29.592Z</time></trkpt><trkpt lat="43.728595" lon="12.1966467"><ele>560.0</ele><time>2026-04-05T09:09:30.591Z</time></trkpt><trkpt lat="43.7287617" lon="12.1967267"><ele>555.0</ele><time>2026-04-05T09:09:31.592Z</time></trkpt><trkpt lat="43.7289217" lon="12.1968383"><ele>550.0</ele><time>2026-04-05T09:09:32.592Z</time></trkpt><trkpt lat="43.7290867" lon="12.1969783"><ele>545.0</ele><time>2026-04-05T09:09:33.592Z</time></trkpt><trkpt lat="43.729235" lon="12.1971333"><ele>545.0</ele><time>2026-04-05T09:09:34.592Z</time></trkpt><trkpt lat="43.72938" lon="12.197295"><ele>545.0</ele><time>2026-04-05T09:09:35.592Z</time></trkpt><trkpt lat="43.729515" lon="12.1974783"><ele>545.0</ele><time>2026-04-05T09:09:36.591Z</time></trkpt><trkpt lat="43.729625" lon="12.1976633"><ele>543.0</ele><time>2026-04-05T09:09:37.592Z</time></trkpt><trkpt lat="43.7297183" lon="12.1978467"><ele>541.0</ele><time>2026-04-05T09:09:38.592Z</time></trkpt><trkpt lat="43.7298083" lon="12.1980167"><ele>539.0</ele><time>2026-04-05T09:09:39.592Z</time></trkpt><trkpt lat="43.7299317" lon="12.1981583"><ele>539.3333333333333</ele><time>2026-04-05T09:09:40.591Z</time></trkpt><trkpt lat="43.7300817" lon="12.1982917"><ele>539.6666666666666</ele><time>2026-04-05T09:09:41.592Z</time></trkpt><trkpt lat="43.7302533" lon="12.1984"><ele>540.0</ele><time>2026-04-05T09:09:42.591Z</time></trkpt><trkpt lat="43.7304133" lon="12.1985083"><ele>540.0</ele><time>2026-04-05T09:09:43.591Z</time></trkpt><trkpt lat="43.7305667" lon="12.198605"><ele>540.0</ele><time>2026-04-05T09:09:44.591Z</time></trkpt><trkpt lat="43.7307317" lon="12.1986583"><ele>540.0</ele><time>2026-04-05T09:09:45.592Z</time></trkpt><trkpt lat="43.7309067" lon="12.1986567"><ele>538.6666666666666</ele><time>2026-04-05T09:09:46.592Z</time></trkpt><trkpt lat="43.731085" lon="12.1985983"><ele>537.3333333333333</ele><time>2026-04-05T09:09:47.592Z</time></trkpt><trkpt lat="43.7312533" lon="12.19856"><ele>536.0</ele><time>2026-04-05T09:09:48.592Z</time></trkpt><trkpt lat="43.7314133" lon="12.19853"><ele>536.0</ele><time>2026-04-05T09:09:49.592Z</time></trkpt><trkpt lat="43.7315483" lon="12.19854"><ele>536.0</ele><time>2026-04-05T09:09:50.592Z</time></trkpt><trkpt lat="43.7316767" lon="12.1986017"><ele>536.0</ele><time>2026-04-05T09:09:51.592Z</time></trkpt><trkpt lat="43.731795" lon="12.1987283"><ele>536.0</ele><time>2026-04-05T09:09:52.592Z</time></trkpt><trkpt lat="43.7318983" lon="12.198895"><ele>539.0</ele><time>2026-04-05T09:09:53.592Z</time></trkpt><trkpt lat="43.7319967" lon="12.1990383"><ele>542.0</ele><time>2026-04-05T09:09:54.592Z</time></trkpt><trkpt lat="43.732125" lon="12.1991333"><ele>545.0</ele><time>2026-04-05T09:09:55.592Z</time></trkpt><trkpt lat="43.7322783" lon="12.19918"><ele>548.0</ele><time>2026-04-05T09:09:56.592Z</time></trkpt><trkpt lat="43.73244" lon="12.1991267"><ele>548.0</ele><time>2026-04-05T09:09:57.592Z</time></trkpt><trkpt lat="43.732595" lon="12.1990567"><ele>548.0</ele><time>2026-04-05T09:09:58.591Z</time></trkpt><trkpt lat="43.7327567" lon="12.19901"><ele>548.0</ele><time>2026-04-05T09:09:59.592Z</time></trkpt><trkpt lat="43.7329283" lon="12.1990133"><ele>545.6666666666666</ele><time>2026-04-05T09:10:00.592Z</time></trkpt><trkpt lat="43.7331133" lon="12.199085"><ele>543.3333333333334</ele><time>2026-04-05T09:10:01.591Z</time></trkpt><trkpt lat="43.73329" lon="12.1992133"><ele>541.0</ele><time>2026-04-05T09:10:02.592Z</time></trkpt><trkpt lat="43.733465" lon="12.1993383"><ele>535.3333333333334</ele><time>2026-04-05T09:10:03.592Z</time></trkpt><trkpt lat="43.7336333" lon="12.1994483"><ele>529.6666666666666</ele><time>2026-04-05T09:10:04.591Z</time></trkpt><trkpt lat="43.7338117" lon="12.1995183"><ele>524.0</ele><time>2026-04-05T09:10:05.591Z</time></trkpt><trkpt lat="43.7340067" lon="12.1995483"><ele>524.0</ele><time>2026-04-05T09:10:06.592Z</time></trkpt><trkpt lat="43.7341867" lon="12.1995567"><ele>524.0</ele><time>2026-04-05T09:10:07.591Z</time></trkpt><trkpt lat="43.7343683" lon="12.199565"><ele>524.0</ele><time>2026-04-05T09:10:08.591Z</time></trkpt><trkpt lat="43.73454" lon="12.1996133"><ele>530.0</ele><time>2026-04-05T09:10:09.592Z</time></trkpt><trkpt lat="43.7347167" lon="12.1997033"><ele>536.0</ele><time>2026-04-05T09:10:10.591Z</time></trkpt><trkpt lat="43.734905" lon="12.1998233"><ele>542.0</ele><time>2026-04-05T09:10:11.592Z</time></trkpt><trkpt lat="43.7350883" lon="12.1999683"><ele>533.6666666666666</ele><time>2026-04-05T09:10:12.592Z</time></trkpt><trkpt lat="43.7352567" lon="12.2001033"><ele>525.3333333333334</ele><time>2026-04-05T09:10:13.592Z</time></trkpt><trkpt lat="43.73541" lon="12.20023"><ele>517.0</ele><time>2026-04-05T09:10:14.592Z</time></trkpt><trkpt lat="43.7355433" lon="12.200355"><ele>517.0</ele><time>2026-04-05T09:10:15.591Z</time></trkpt><trkpt lat="43.7356483" lon="12.200465"><ele>517.0</ele><time>2026-04-05T09:10:16.592Z</time></trkpt><trkpt lat="43.7357333" lon="12.2006033"><ele>517.0</ele><time>2026-04-05T09:10:17.592Z</time></trkpt><trkpt lat="43.7357883" lon="12.2007783"><ele>517.0</ele><time>2026-04-05T09:10:18.591Z</time></trkpt><trkpt lat="43.7358183" lon="12.2009917"><ele>521.75</ele><time>2026-04-05T09:10:19.591Z</time></trkpt><trkpt lat="43.7358183" lon="12.20119"><ele>526.5</ele><time>2026-04-05T09:10:20.591Z</time></trkpt><trkpt lat="43.7358333" lon="12.2013617"><ele>531.25</ele><time>2026-04-05T09:10:21.592Z</time></trkpt><trkpt lat="43.735875" lon="12.2015083"><ele>536.0</ele><time>2026-04-05T09:10:22.592Z</time></trkpt><trkpt lat="43.7359617" lon="12.2016367"><ele>537.3333333333333</ele><time>2026-04-05T09:10:23.592Z</time></trkpt><trkpt lat="43.7361017" lon="12.2017017"><ele>538.6666666666666</ele><time>2026-04-05T09:10:24.591Z</time></trkpt><trkpt lat="43.736285" lon="12.201685"><ele>540.0</ele><time>2026-04-05T09:10:25.592Z</time></trkpt><trkpt lat="43.7364733" lon="12.2016283"><ele>540.0</ele><time>2026-04-05T09:10:26.592Z</time></trkpt><trkpt lat="43.7366833" lon="12.2015483"><ele>540.0</ele><time>2026-04-05T09:10:27.592Z</time></trkpt><trkpt lat="43.73691" lon="12.2014533"><ele>530.0</ele><time>2026-04-05T09:10:28.591Z</time></trkpt><trkpt lat="43.737135" lon="12.2013167"><ele>520.0</ele><time>2026-04-05T09:10:29.591Z</time></trkpt><trkpt lat="43.7373483" lon="12.2011733"><ele>520.0</ele><time>2026-04-05T09:10:30.591Z</time></trkpt><trkpt lat="43.7375417" lon="12.2010467"><ele>520.0</ele><time>2026-04-05T09:10:31.592Z</time></trkpt><trkpt lat="43.7377067" lon="12.2009133"><ele>520.0</ele><time>2026-04-05T09:10:32.592Z</time></trkpt><trkpt lat="43.7378433" lon="12.2007817"><ele>512.5</ele><time>2026-04-05T09:10:33.592Z</time></trkpt><trkpt lat="43.7379483" lon="12.2006617"><ele>505.0</ele><time>2026-04-05T09:10:34.592Z</time></trkpt><trkpt lat="43.73804" lon="12.200565"><ele>497.5</ele><time>2026-04-05T09:10:35.592Z</time></trkpt><trkpt lat="43.7381333" lon="12.2004967"><ele>490.0</ele><time>2026-04-05T09:10:36.592Z</time></trkpt><trkpt lat="43.7382417" lon="12.2004867"><ele>490.0</ele><time>2026-04-05T09:10:37.592Z</time></trkpt><trkpt lat="43.7383683" lon="12.2005417"><ele>490.0</ele><time>2026-04-05T09:10:38.591Z</time></trkpt><trkpt lat="43.7384917" lon="12.2006383"><ele>490.0</ele><time>2026-04-05T09:10:39.592Z</time></trkpt><trkpt lat="43.7386" lon="12.2007833"><ele>490.0</ele><time>2026-04-05T09:10:40.592Z</time></trkpt><trkpt lat="43.73869" lon="12.2009733"><ele>493.6666666666667</ele><time>2026-04-05T09:10:41.592Z</time></trkpt><trkpt lat="43.738735" lon="12.2011867"><ele>497.33333333333337</ele><time>2026-04-05T09:10:42.592Z</time></trkpt><trkpt lat="43.738765" lon="12.2014033"><ele>501.0</ele><time>2026-04-05T09:10:43.591Z</time></trkpt><trkpt lat="43.73878" lon="12.201585"><ele>507.5</ele><time>2026-04-05T09:10:44.592Z</time></trkpt><trkpt lat="43.7388317" lon="12.2017233"><ele>514.0</ele><time>2026-04-05T09:10:45.591Z</time></trkpt><trkpt lat="43.7389417" lon="12.2018017"><ele>520.5</ele><time>2026-04-05T09:10:46.591Z</time></trkpt><trkpt lat="43.739095" lon="12.2018183"><ele>527.0</ele><time>2026-04-05T09:10:47.591Z</time></trkpt><trkpt lat="43.7392783" lon="12.2017817"><ele>523.6666666666666</ele><time>2026-04-05T09:10:48.592Z</time></trkpt><trkpt lat="43.73947" lon="12.2017367"><ele>520.3333333333334</ele><time>2026-04-05T09:10:49.591Z</time></trkpt><trkpt lat="43.7396917" lon="12.201685"><ele>517.0</ele><time>2026-04-05T09:10:50.592Z</time></trkpt><trkpt lat="43.7399167" lon="12.201635"><ele>517.0</ele><time>2026-04-05T09:10:51.591Z</time></trkpt><trkpt lat="43.7401333" lon="12.2015867"><ele>517.0</ele><time>2026-04-05T09:10:52.592Z</time></trkpt><trkpt lat="43.740345" lon="12.2015483"><ele>517.0</ele><time>2026-04-05T09:10:53.591Z</time></trkpt><trkpt lat="43.7405367" lon="12.2015267"><ele>514.75</ele><time>2026-04-05T09:10:54.591Z</time></trkpt><trkpt lat="43.740695" lon="12.2015133"><ele>512.5</ele><time>2026-04-05T09:10:55.592Z</time></trkpt><trkpt lat="43.74083" lon="12.2014967"><ele>510.25</ele><time>2026-04-05T09:10:56.591Z</time></trkpt><trkpt lat="43.74095" lon="12.2015017"><ele>508.0</ele><time>2026-04-05T09:10:57.592Z</time></trkpt><trkpt lat="43.7410583" lon="12.2015383"><ele>503.25</ele><time>2026-04-05T09:10:58.591Z</time></trkpt><trkpt lat="43.7411467" lon="12.20165"><ele>498.5</ele><time>2026-04-05T09:10:59.592Z</time></trkpt><trkpt lat="43.7412233" lon="12.2018317"><ele>493.75</ele><time>2026-04-05T09:11:00.592Z</time></trkpt><trkpt lat="43.7412633" lon="12.20206"><ele>489.0</ele><time>2026-04-05T09:11:01.592Z</time></trkpt><trkpt lat="43.7412983" lon="12.2022767"><ele>491.75</ele><time>2026-04-05T09:11:02.592Z</time></trkpt><trkpt lat="43.7413483" lon="12.2024683"><ele>494.5</ele><time>2026-04-05T09:11:03.592Z</time></trkpt><trkpt lat="43.741425" lon="12.202625"><ele>497.25</ele><time>2026-04-05T09:11:04.592Z</time></trkpt><trkpt lat="43.741535" lon="12.2027333"><ele>500.0</ele><time>2026-04-05T09:11:05.591Z</time></trkpt><trkpt lat="43.741645" lon="12.2027983"><ele>500.0</ele><time>2026-04-05T09:11:06.592Z</time></trkpt><trkpt lat="43.7417483" lon="12.2028067"><ele>500.0</ele><time>2026-04-05T09:11:07.591Z</time></trkpt><trkpt lat="43.7418467" lon="12.2027583"><ele>500.0</ele><time>2026-04-05T09:11:08.592Z</time></trkpt><trkpt lat="43.7419367" lon="12.2026533"><ele>500.0</ele><time>2026-04-05T09:11:09.592Z</time></trkpt><trkpt lat="43.7420033" lon="12.2024633"><ele>497.0</ele><time>2026-04-05T09:11:10.592Z</time></trkpt><trkpt lat="43.7420483" lon="12.2022567"><ele>494.0</ele><time>2026-04-05T09:11:11.591Z</time></trkpt><trkpt lat="43.742095" lon="12.2020917"><ele>491.0</ele><time>2026-04-05T09:11:12.592Z</time></trkpt><trkpt lat="43.7421467" lon="12.2019567"><ele>488.0</ele><time>2026-04-05T09:11:13.592Z</time></trkpt><trkpt lat="43.74221" lon="12.2018483"><ele>488.0</ele><time>2026-04-05T09:11:14.592Z</time></trkpt><trkpt lat="43.74231" lon="12.2017933"><ele>488.0</ele><time>2026-04-05T09:11:15.592Z</time></trkpt><trkpt lat="43.7424383" lon="12.2018"><ele>488.0</ele><time>2026-04-05T09:11:16.591Z</time></trkpt><trkpt lat="43.74259" lon="12.2018733"><ele>488.0</ele><time>2026-04-05T09:11:17.592Z</time></trkpt><trkpt lat="43.7427683" lon="12.2019533"><ele>486.66666666666663</ele><time>2026-04-05T09:11:18.592Z</time></trkpt><trkpt lat="43.7429733" lon="12.2019933"><ele>485.33333333333337</ele><time>2026-04-05T09:11:19.591Z</time></trkpt><trkpt lat="43.7431833" lon="12.2020317"><ele>484.0</ele><time>2026-04-05T09:11:20.592Z</time></trkpt><trkpt lat="43.7433733" lon="12.2020383"><ele>484.0</ele><time>2026-04-05T09:11:21.592Z</time></trkpt><trkpt lat="43.743545" lon="12.2020267"><ele>484.0</ele><time>2026-04-05T09:11:22.592Z</time></trkpt><trkpt lat="43.743705" lon="12.2019783"><ele>484.0</ele><time>2026-04-05T09:11:23.592Z</time></trkpt><trkpt lat="43.7438517" lon="12.2018783"><ele>483.0</ele><time>2026-04-05T09:11:24.591Z</time></trkpt><trkpt lat="43.7439867" lon="12.20173"><ele>482.0</ele><time>2026-04-05T09:11:25.592Z</time></trkpt><trkpt lat="43.7441167" lon="12.2015433"><ele>481.0</ele><time>2026-04-05T09:11:26.592Z</time></trkpt><trkpt lat="43.7442417" lon="12.2013333"><ele>481.0</ele><time>2026-04-05T09:11:27.591Z</time></trkpt><trkpt lat="43.74436" lon="12.2011333"><ele>481.0</ele><time>2026-04-05T09:11:28.592Z</time></trkpt><trkpt lat="43.7444567" lon="12.2008983"><ele>481.0</ele><time>2026-04-05T09:11:29.591Z</time></trkpt><trkpt lat="43.744545" lon="12.2006517"><ele>485.33333333333337</ele><time>2026-04-05T09:11:30.591Z</time></trkpt><trkpt lat="43.7446283" lon="12.200415"><ele>489.66666666666663</ele><time>2026-04-05T09:11:31.591Z</time></trkpt><trkpt lat="43.7447233" lon="12.2001917"><ele>494.0</ele><time>2026-04-05T09:11:32.591Z</time></trkpt><trkpt lat="43.74483" lon="12.1999783"><ele>489.66666666666663</ele><time>2026-04-05T09:11:33.592Z</time></trkpt><trkpt lat="43.744955" lon="12.1997783"><ele>485.33333333333337</ele><time>2026-04-05T09:11:34.591Z</time></trkpt><trkpt lat="43.7450767" lon="12.1995917"><ele>481.0</ele><time>2026-04-05T09:11:35.592Z</time></trkpt><trkpt lat="43.7452067" lon="12.1994033"><ele>481.6666666666667</ele><time>2026-04-05T09:11:36.591Z</time></trkpt><trkpt lat="43.7453433" lon="12.199205"><ele>482.33333333333337</ele><time>2026-04-05T09:11:37.592Z</time></trkpt><trkpt lat="43.7454867" lon="12.19902"><ele>483.0</ele><time>2026-04-05T09:11:38.591Z</time></trkpt><trkpt lat="43.7456267" lon="12.1988367"><ele>483.0</ele><time>2026-04-05T09:11:39.592Z</time></trkpt><trkpt lat="43.7457683" lon="12.1986617"><ele>483.0</ele><time>2026-04-05T09:11:40.591Z</time></trkpt><trkpt lat="43.7459133" lon="12.1985017"><ele>483.0</ele><time>2026-04-05T09:11:41.592Z</time></trkpt><trkpt lat="43.74607" lon="12.1983667"><ele>481.33333333333337</ele><time>2026-04-05T09:11:42.591Z</time></trkpt><trkpt lat="43.74623" lon="12.198255"><ele>479.6666666666667</ele><time>2026-04-05T09:11:43.591Z</time></trkpt><trkpt lat="43.7463817" lon="12.198155"><ele>478.0</ele><time>2026-04-05T09:11:44.591Z</time></trkpt><trkpt lat="43.74653" lon="12.1980583"><ele>478.0</ele><time>2026-04-05T09:11:45.591Z</time></trkpt><trkpt lat="43.746675" lon="12.1979683"><ele>478.0</ele><time>2026-04-05T09:11:46.591Z</time></trkpt><trkpt lat="43.7468217" lon="12.1978833"><ele>478.0</ele><time>2026-04-05T09:11:47.592Z</time></trkpt><trkpt lat="43.7469767" lon="12.1978283"><ele>478.0</ele><time>2026-04-05T09:11:48.591Z</time></trkpt><trkpt lat="43.7471283" lon="12.1978183"><ele>478.0</ele><time>2026-04-05T09:11:49.591Z</time></trkpt><trkpt lat="43.7472917" lon="12.1978533"><ele>478.0</ele><time>2026-04-05T09:11:50.592Z</time></trkpt><trkpt lat="43.747465" lon="12.1979233"><ele>478.0</ele><time>2026-04-05T09:11:51.591Z</time></trkpt><trkpt lat="43.7476383" lon="12.1979867"><ele>478.0</ele><time>2026-04-05T09:11:52.592Z</time></trkpt><trkpt lat="43.7478067" lon="12.1980767"><ele>478.0</ele><time>2026-04-05T09:11:53.592Z</time></trkpt><trkpt lat="43.7479667" lon="12.19821"><ele>481.33333333333337</ele><time>2026-04-05T09:11:54.592Z</time></trkpt><trkpt lat="43.7481183" lon="12.1983867"><ele>484.66666666666663</ele><time>2026-04-05T09:11:55.592Z</time></trkpt><trkpt lat="43.748245" lon="12.19859"><ele>488.0</ele><time>2026-04-05T09:11:56.591Z</time></trkpt><trkpt lat="43.748375" lon="12.1988033"><ele>488.0</ele><time>2026-04-05T09:11:57.592Z</time></trkpt><trkpt lat="43.748505" lon="12.1989767"><ele>488.0</ele><time>2026-04-05T09:11:58.592Z</time></trkpt><trkpt lat="43.7486567" lon="12.1991083"><ele>488.0</ele><time>2026-04-05T09:11:59.592Z</time></trkpt><trkpt lat="43.74883" lon="12.1991983"><ele>491.3333333333333</ele><time>2026-04-05T09:12:00.592Z</time></trkpt><trkpt lat="43.749025" lon="12.1992383"><ele>494.66666666666663</ele><time>2026-04-05T09:12:01.592Z</time></trkpt><trkpt lat="43.7492417" lon="12.199245"><ele>498.0</ele><time>2026-04-05T09:12:02.592Z</time></trkpt><trkpt lat="43.749475" lon="12.19923"><ele>498.0</ele><time>2026-04-05T09:12:03.592Z</time></trkpt><trkpt lat="43.7497083" lon="12.1992083"><ele>498.0</ele><time>2026-04-05T09:12:04.592Z</time></trkpt><trkpt lat="43.749925" lon="12.199175"><ele>498.0</ele><time>2026-04-05T09:12:05.591Z</time></trkpt><trkpt lat="43.7501283" lon="12.19913"><ele>498.0</ele><time>2026-04-05T09:12:06.592Z</time></trkpt><trkpt lat="43.7503083" lon="12.1990583"><ele>498.0</ele><time>2026-04-05T09:12:07.591Z</time></trkpt><trkpt lat="43.75048" lon="12.19898"><ele>494.33333333333337</ele><time>2026-04-05T09:12:08.592Z</time></trkpt><trkpt lat="43.75064" lon="12.1989"><ele>490.6666666666667</ele><time>2026-04-05T09:12:09.591Z</time></trkpt><trkpt lat="43.7507817" lon="12.1987883"><ele>487.0</ele><time>2026-04-05T09:12:10.592Z</time></trkpt><trkpt lat="43.7509083" lon="12.1986217"><ele>487.0</ele><time>2026-04-05T09:12:11.591Z</time></trkpt><trkpt lat="43.751035" lon="12.19844"><ele>487.0</ele><time>2026-04-05T09:12:12.592Z</time></trkpt><trkpt lat="43.7511517" lon="12.1982633"><ele>487.0</ele><time>2026-04-05T09:12:13.592Z</time></trkpt><trkpt lat="43.7512867" lon="12.198115"><ele>487.0</ele><time>2026-04-05T09:12:14.592Z</time></trkpt><trkpt lat="43.7514333" lon="12.19799"><ele>487.0</ele><time>2026-04-05T09:12:15.591Z</time></trkpt><trkpt lat="43.7516067" lon="12.1979017"><ele>487.0</ele><time>2026-04-05T09:12:16.592Z</time></trkpt><trkpt lat="43.751785" lon="12.197865"><ele>488.33333333333337</ele><time>2026-04-05T09:12:17.591Z</time></trkpt><trkpt lat="43.7519783" lon="12.1978767"><ele>489.66666666666663</ele><time>2026-04-05T09:12:18.592Z</time></trkpt><trkpt lat="43.7521633" lon="12.1979117"><ele>491.0</ele><time>2026-04-05T09:12:19.591Z</time></trkpt><trkpt lat="43.7523383" lon="12.1979433"><ele>491.0</ele><time>2026-04-05T09:12:20.592Z</time></trkpt><trkpt lat="43.7525167" lon="12.1979333"><ele>491.0</ele><time>2026-04-05T09:12:21.592Z</time></trkpt><trkpt lat="43.7526883" lon="12.1978717"><ele>491.0</ele><time>2026-04-05T09:12:22.591Z</time></trkpt><trkpt lat="43.75285" lon="12.1977617"><ele>494.0</ele><time>2026-04-05T09:12:23.592Z</time></trkpt><trkpt lat="43.7529917" lon="12.197605"><ele>497.0</ele><time>2026-04-05T09:12:24.592Z</time></trkpt><trkpt lat="43.753135" lon="12.19744"><ele>500.0</ele><time>2026-04-05T09:12:25.591Z</time></trkpt><trkpt lat="43.7532867" lon="12.197285"><ele>493.0</ele><time>2026-04-05T09:12:26.592Z</time></trkpt><trkpt lat="43.75346" lon="12.1971517"><ele>486.0</ele><time>2026-04-05T09:12:27.592Z</time></trkpt><trkpt lat="43.7536417" lon="12.1970717"><ele>479.0</ele><time>2026-04-05T09:12:28.592Z</time></trkpt><trkpt lat="43.7538317" lon="12.197055"><ele>479.0</ele><time>2026-04-05T09:12:29.592Z</time></trkpt><trkpt lat="43.7540217" lon="12.1970883"><ele>479.0</ele><time>2026-04-05T09:12:30.591Z</time></trkpt><trkpt lat="43.7541967" lon="12.1971667"><ele>479.0</ele><time>2026-04-05T09:12:31.592Z</time></trkpt><trkpt lat="43.7543617" lon="12.19725"><ele>482.0</ele><time>2026-04-05T09:12:32.592Z</time></trkpt><trkpt lat="43.7545283" lon="12.197295"><ele>485.0</ele><time>2026-04-05T09:12:33.592Z</time></trkpt><trkpt lat="43.7547033" lon="12.1973083"><ele>488.0</ele><time>2026-04-05T09:12:34.592Z</time></trkpt><trkpt lat="43.75487" lon="12.197275"><ele>488.0</ele><time>2026-04-05T09:12:35.592Z</time></trkpt><trkpt lat="43.7550433" lon="12.1971717"><ele>488.0</ele><time>2026-04-05T09:12:36.592Z</time></trkpt><trkpt lat="43.7552117" lon="12.1970133"><ele>488.0</ele><time>2026-04-05T09:12:37.592Z</time></trkpt><trkpt lat="43.7553817" lon="12.1968017"><ele>484.5</ele><time>2026-04-05T09:12:38.591Z</time></trkpt><trkpt lat="43.7555483" lon="12.1965717"><ele>481.0</ele><time>2026-04-05T09:12:39.592Z</time></trkpt><trkpt lat="43.755705" lon="12.1963417"><ele>481.0</ele><time>2026-04-05T09:12:40.592Z</time></trkpt><trkpt lat="43.7558467" lon="12.1961333"><ele>481.0</ele><time>2026-04-05T09:12:41.592Z</time></trkpt><trkpt lat="43.7559717" lon="12.19596"><ele>481.0</ele><time>2026-04-05T09:12:42.591Z</time></trkpt><trkpt lat="43.7560917" lon="12.19581"><ele>483.6666666666667</ele><time>2026-04-05T09:12:43.591Z</time></trkpt><trkpt lat="43.7562217" lon="12.195685"><ele>486.33333333333337</ele><time>2026-04-05T09:12:44.591Z</time></trkpt><trkpt lat="43.7563617" lon="12.1956117"><ele>489.0</ele><time>2026-04-05T09:12:45.592Z</time></trkpt><trkpt lat="43.7565" lon="12.1955683"><ele>489.0</ele><time>2026-04-05T09:12:46.592Z</time></trkpt><trkpt lat="43.756645" lon="12.195615"><ele>489.0</ele><time>2026-04-05T09:12:47.591Z</time></trkpt><trkpt lat="43.75676" lon="12.1957033"><ele>489.0</ele><time>2026-04-05T09:12:48.592Z</time></trkpt><trkpt lat="43.7568683" lon="12.1958533"><ele>489.0</ele><time>2026-04-05T09:12:49.592Z</time></trkpt><trkpt lat="43.756945" lon="12.1960583"><ele>486.33333333333337</ele><time>2026-04-05T09:12:50.592Z</time></trkpt><trkpt lat="43.75701" lon="12.1962917"><ele>483.6666666666667</ele><time>2026-04-05T09:12:51.591Z</time></trkpt><trkpt lat="43.75707" lon="12.1965117"><ele>481.0</ele><time>2026-04-05T09:12:52.591Z</time></trkpt><trkpt lat="43.7571317" lon="12.1967217"><ele>481.0</ele><time>2026-04-05T09:12:53.592Z</time></trkpt><trkpt lat="43.757205" lon="12.19691"><ele>481.0</ele><time>2026-04-05T09:12:54.591Z</time></trkpt><trkpt lat="43.7573017" lon="12.197065"><ele>481.0</ele><time>2026-04-05T09:12:55.591Z</time></trkpt><trkpt lat="43.7574183" lon="12.1971867"><ele>481.0</ele><time>2026-04-05T09:12:56.592Z</time></trkpt><trkpt lat="43.757565" lon="12.19726"><ele>478.0</ele><time>2026-04-05T09:12:57.592Z</time></trkpt><trkpt lat="43.7577117" lon="12.1973333"><ele>475.0</ele><time>2026-04-05T09:12:58.592Z</time></trkpt><trkpt lat="43.7578533" lon="12.1974367"><ele>472.0</ele><time>2026-04-05T09:12:59.591Z</time></trkpt><trkpt lat="43.7579917" lon="12.1975883"><ele>472.0</ele><time>2026-04-05T09:13:00.592Z</time></trkpt><trkpt lat="43.758115" lon="12.1978"><ele>472.0</ele><time>2026-04-05T09:13:01.592Z</time></trkpt><trkpt lat="43.7582383" lon="12.1980333"><ele>472.0</ele><time>2026-04-05T09:13:02.592Z</time></trkpt><trkpt lat="43.7583617" lon="12.19827"><ele>477.33333333333337</ele><time>2026-04-05T09:13:03.591Z</time></trkpt><trkpt lat="43.7584833" lon="12.1985067"><ele>482.66666666666663</ele><time>2026-04-05T09:13:04.591Z</time></trkpt><trkpt lat="43.7586017" lon="12.1987317"><ele>488.0</ele><time>2026-04-05T09:13:05.592Z</time></trkpt><trkpt lat="43.7587133" lon="12.1989483"><ele>479.66666666666663</ele><time>2026-04-05T09:13:06.592Z</time></trkpt><trkpt lat="43.7588233" lon="12.199155"><ele>471.33333333333337</ele><time>2026-04-05T09:13:07.592Z</time></trkpt><trkpt lat="43.75894" lon="12.19934"><ele>463.0</ele><time>2026-04-05T09:13:08.591Z</time></trkpt><trkpt lat="43.7590483" lon="12.1995083"><ele>463.0</ele><time>2026-04-05T09:13:09.591Z</time></trkpt><trkpt lat="43.7591817" lon="12.19967"><ele>463.0</ele><time>2026-04-05T09:13:10.591Z</time></trkpt><trkpt lat="43.7593333" lon="12.1998117"><ele>463.0</ele><time>2026-04-05T09:13:11.591Z</time></trkpt><trkpt lat="43.7595133" lon="12.1999233"><ele>463.33333333333337</ele><time>2026-04-05T09:13:12.592Z</time></trkpt><trkpt lat="43.7597283" lon="12.2000017"><ele>463.66666666666663</ele><time>2026-04-05T09:13:13.592Z</time></trkpt><trkpt lat="43.7599483" lon="12.200045"><ele>464.0</ele><time>2026-04-05T09:13:14.591Z</time></trkpt><trkpt lat="43.7601683" lon="12.2000867"><ele>462.0</ele><time>2026-04-05T09:13:15.592Z</time></trkpt><trkpt lat="43.7603683" lon="12.2001167"><ele>460.0</ele><time>2026-04-05T09:13:16.591Z</time></trkpt><trkpt lat="43.7605583" lon="12.2001533"><ele>458.0</ele><time>2026-04-05T09:13:17.591Z</time></trkpt><trkpt lat="43.7607367" lon="12.2001633"><ele>458.0</ele><time>2026-04-05T09:13:18.592Z</time></trkpt><trkpt lat="43.760915" lon="12.200125"><ele>458.0</ele><time>2026-04-05T09:13:19.592Z</time></trkpt><trkpt lat="43.761075" lon="12.20002"><ele>458.0</ele><time>2026-04-05T09:13:20.592Z</time></trkpt><trkpt lat="43.7612133" lon="12.1998783"><ele>453.0</ele><time>2026-04-05T09:13:21.592Z</time></trkpt><trkpt lat="43.7613367" lon="12.19973"><ele>448.0</ele><time>2026-04-05T09:13:22.592Z</time></trkpt><trkpt lat="43.76146" lon="12.1996083"><ele>443.0</ele><time>2026-04-05T09:13:23.592Z</time></trkpt><trkpt lat="43.7616" lon="12.1995233"><ele>443.0</ele><time>2026-04-05T09:13:24.591Z</time></trkpt><trkpt lat="43.7617617" lon="12.1994683"><ele>443.0</ele><time>2026-04-05T09:13:25.591Z</time></trkpt><trkpt lat="43.7619433" lon="12.1994683"><ele>443.0</ele><time>2026-04-05T09:13:26.591Z</time></trkpt><trkpt lat="43.76213" lon="12.19952"><ele>444.0</ele><time>2026-04-05T09:13:27.592Z</time></trkpt><trkpt lat="43.7623133" lon="12.19956"><ele>445.0</ele><time>2026-04-05T09:13:28.592Z</time></trkpt><trkpt lat="43.7624917" lon="12.1995717"><ele>446.0</ele><time>2026-04-05T09:13:29.591Z</time></trkpt><trkpt lat="43.7626733" lon="12.1995467"><ele>446.66666666666663</ele><time>2026-04-05T09:13:30.592Z</time></trkpt><trkpt lat="43.7628433" lon="12.199505"><ele>447.33333333333337</ele><time>2026-04-05T09:13:31.592Z</time></trkpt><trkpt lat="43.763" lon="12.1994333"><ele>448.0</ele><time>2026-04-05T09:13:32.592Z</time></trkpt><trkpt lat="43.7631383" lon="12.1993333"><ele>448.0</ele><time>2026-04-05T09:13:33.592Z</time></trkpt><trkpt lat="43.763265" lon="12.19921"><ele>448.0</ele><time>2026-04-05T09:13:34.592Z</time></trkpt><trkpt lat="43.7633833" lon="12.1990583"><ele>448.0</ele><time>2026-04-05T09:13:35.592Z</time></trkpt><trkpt lat="43.7634967" lon="12.1989283"><ele>446.6666666666667</ele><time>2026-04-05T09:13:36.592Z</time></trkpt><trkpt lat="43.7636117" lon="12.1987883"><ele>445.33333333333337</ele><time>2026-04-05T09:13:37.591Z</time></trkpt><trkpt lat="43.7637317" lon="12.1986667"><ele>444.0</ele><time>2026-04-05T09:13:38.592Z</time></trkpt><trkpt lat="43.76385" lon="12.1985383"><ele>444.0</ele><time>2026-04-05T09:13:39.592Z</time></trkpt><trkpt lat="43.7639717" lon="12.1984417"><ele>444.0</ele><time>2026-04-05T09:13:40.592Z</time></trkpt><trkpt lat="43.7641083" lon="12.1983967"><ele>444.0</ele><time>2026-04-05T09:13:41.592Z</time></trkpt><trkpt lat="43.7642567" lon="12.1984017"><ele>444.0</ele><time>2026-04-05T09:13:42.592Z</time></trkpt><trkpt lat="43.764415" lon="12.1984367"><ele>442.25</ele><time>2026-04-05T09:13:43.592Z</time></trkpt><trkpt lat="43.7645617" lon="12.1985017"><ele>440.5</ele><time>2026-04-05T09:13:44.591Z</time></trkpt><trkpt lat="43.7646983" lon="12.19856"><ele>438.75</ele><time>2026-04-05T09:13:45.592Z</time></trkpt><trkpt lat="43.7648317" lon="12.1986217"><ele>437.0</ele><time>2026-04-05T09:13:46.591Z</time></trkpt><trkpt lat="43.7649533" lon="12.19868"><ele>437.0</ele><time>2026-04-05T09:13:47.592Z</time></trkpt><trkpt lat="43.7650833" lon="12.198735"><ele>437.0</ele><time>2026-04-05T09:13:48.592Z</time></trkpt><trkpt lat="43.7652033" lon="12.1987983"><ele>437.0</ele><time>2026-04-05T09:13:49.592Z</time></trkpt><trkpt lat="43.7653217" lon="12.19885"><ele>437.0</ele><time>2026-04-05T09:13:50.592Z</time></trkpt><trkpt lat="43.76543" lon="12.1989233"><ele>435.75</ele><time>2026-04-05T09:13:51.592Z</time></trkpt><trkpt lat="43.7655267" lon="12.1990233"><ele>434.5</ele><time>2026-04-05T09:13:52.592Z</time></trkpt><trkpt lat="43.7656217" lon="12.1991517"><ele>433.25</ele><time>2026-04-05T09:13:53.592Z</time></trkpt><trkpt lat="43.7657033" lon="12.1992967"><ele>432.0</ele><time>2026-04-05T09:13:54.591Z</time></trkpt><trkpt lat="43.7657833" lon="12.19944"><ele>432.0</ele><time>2026-04-05T09:13:55.592Z</time></trkpt><trkpt lat="43.765855" lon="12.1995817"><ele>432.0</ele><time>2026-04-05T09:13:56.591Z</time></trkpt><trkpt lat="43.7659383" lon="12.199725"><ele>432.0</ele><time>2026-04-05T09:13:57.592Z</time></trkpt><trkpt lat="43.7660217" lon="12.199875"><ele>432.0</ele><time>2026-04-05T09:13:58.592Z</time></trkpt><trkpt lat="43.76609" lon="12.2000217"><ele>431.75</ele><time>2026-04-05T09:13:59.592Z</time></trkpt><trkpt lat="43.7661583" lon="12.200155"><ele>431.5</ele><time>2026-04-05T09:14:00.592Z</time></trkpt><trkpt lat="43.7662533" lon="12.2002567"><ele>431.25</ele><time>2026-04-05T09:14:01.591Z</time></trkpt><trkpt lat="43.766365" lon="12.20034"><ele>431.0</ele><time>2026-04-05T09:14:02.592Z</time></trkpt><trkpt lat="43.7665017" lon="12.200405"><ele>431.0</ele><time>2026-04-05T09:14:03.592Z</time></trkpt><trkpt lat="43.7666483" lon="12.2004383"><ele>431.0</ele><time>2026-04-05T09:14:04.592Z</time></trkpt><trkpt lat="43.7667933" lon="12.2004617"><ele>431.0</ele><time>2026-04-05T09:14:05.592Z</time></trkpt><trkpt lat="43.7669467" lon="12.2004783"><ele>431.0</ele><time>2026-04-05T09:14:06.592Z</time></trkpt><trkpt lat="43.7670967" lon="12.2004883"><ele>431.3333333333333</ele><time>2026-04-05T09:14:07.592Z</time></trkpt><trkpt lat="43.7672617" lon="12.20047"><ele>431.66666666666663</ele><time>2026-04-05T09:14:08.591Z</time></trkpt><trkpt lat="43.7674267" lon="12.20042"><ele>432.0</ele><time>2026-04-05T09:14:09.592Z</time></trkpt><trkpt lat="43.767595" lon="12.200345"><ele>432.66666666666663</ele><time>2026-04-05T09:14:10.592Z</time></trkpt><trkpt lat="43.7677517" lon="12.2002633"><ele>433.3333333333333</ele><time>2026-04-05T09:14:11.591Z</time></trkpt><trkpt lat="43.7679167" lon="12.2001867"><ele>434.0</ele><time>2026-04-05T09:14:12.592Z</time></trkpt><trkpt lat="43.7680833" lon="12.2001317"><ele>434.0</ele><time>2026-04-05T09:14:13.592Z</time></trkpt><trkpt lat="43.7682517" lon="12.20011"><ele>434.0</ele><time>2026-04-05T09:14:14.591Z</time></trkpt><trkpt lat="43.76842" lon="12.2001283"><ele>434.0</ele><time>2026-04-05T09:14:15.591Z</time></trkpt><trkpt lat="43.7685933" lon="12.200185"><ele>431.66666666666663</ele><time>2026-04-05T09:14:16.592Z</time></trkpt><trkpt lat="43.7687717" lon="12.2002717"><ele>429.33333333333337</ele><time>2026-04-05T09:14:17.592Z</time></trkpt><trkpt lat="43.7689483" lon="12.2003833"><ele>427.0</ele><time>2026-04-05T09:14:18.592Z</time></trkpt><trkpt lat="43.769105" lon="12.20049"><ele>427.0</ele><time>2026-04-05T09:14:19.591Z</time></trkpt><trkpt lat="43.769265" lon="12.200605"><ele>427.0</ele><time>2026-04-05T09:14:20.591Z</time></trkpt><trkpt lat="43.76942" lon="12.2006933"><ele>427.0</ele><time>2026-04-05T09:14:21.592Z</time></trkpt><trkpt lat="43.769585" lon="12.2007533"><ele>430.33333333333337</ele><time>2026-04-05T09:14:22.591Z</time></trkpt><trkpt lat="43.769765" lon="12.2007533"><ele>433.66666666666663</ele><time>2026-04-05T09:14:23.591Z</time></trkpt><trkpt lat="43.7699517" lon="12.2007133"><ele>437.0</ele><time>2026-04-05T09:14:24.591Z</time></trkpt><trkpt lat="43.7701283" lon="12.20069"><ele>436.0</ele><time>2026-04-05T09:14:25.592Z</time></trkpt><trkpt lat="43.7703" lon="12.2006733"><ele>435.0</ele><time>2026-04-05T09:14:26.592Z</time></trkpt><trkpt lat="43.7704783" lon="12.2006583"><ele>434.0</ele><time>2026-04-05T09:14:27.592Z</time></trkpt><trkpt lat="43.7706533" lon="12.2006433"><ele>434.0</ele><time>2026-04-05T09:14:28.591Z</time></trkpt><trkpt lat="43.7708233" lon="12.20067"><ele>434.0</ele><time>2026-04-05T09:14:29.592Z</time></trkpt><trkpt lat="43.770985" lon="12.2007417"><ele>434.0</ele><time>2026-04-05T09:14:30.592Z</time></trkpt><trkpt lat="43.771135" lon="12.200855"><ele>431.3333333333333</ele><time>2026-04-05T09:14:31.592Z</time></trkpt><trkpt lat="43.771285" lon="12.2009917"><ele>428.66666666666663</ele><time>2026-04-05T09:14:32.592Z</time></trkpt><trkpt lat="43.7714333" lon="12.2011183"><ele>426.0</ele><time>2026-04-05T09:14:33.592Z</time></trkpt><trkpt lat="43.7715983" lon="12.2012317"><ele>426.0</ele><time>2026-04-05T09:14:34.592Z</time></trkpt><trkpt lat="43.771765" lon="12.2013267"><ele>426.0</ele><time>2026-04-05T09:14:35.592Z</time></trkpt><trkpt lat="43.7719367" lon="12.2013833"><ele>426.0</ele><time>2026-04-05T09:14:36.592Z</time></trkpt><trkpt lat="43.7721117" lon="12.2014"><ele>426.0</ele><time>2026-04-05T09:14:37.592Z</time></trkpt><trkpt lat="43.77229" lon="12.201385"><ele>426.0</ele><time>2026-04-05T09:14:38.591Z</time></trkpt><trkpt lat="43.7724717" lon="12.201355"><ele>426.0</ele><time>2026-04-05T09:14:39.591Z</time></trkpt><trkpt lat="43.77265" lon="12.2013367"><ele>424.66666666666663</ele><time>2026-04-05T09:14:40.592Z</time></trkpt><trkpt lat="43.7728217" lon="12.2013333"><ele>423.3333333333333</ele><time>2026-04-05T09:14:41.592Z</time></trkpt><trkpt lat="43.7729933" lon="12.2013467"><ele>422.0</ele><time>2026-04-05T09:14:42.592Z</time></trkpt><trkpt lat="43.773165" lon="12.2013867"><ele>422.0</ele><time>2026-04-05T09:14:43.591Z</time></trkpt><trkpt lat="43.7733283" lon="12.2014567"><ele>422.0</ele><time>2026-04-05T09:14:44.591Z</time></trkpt><trkpt lat="43.7734883" lon="12.2015117"><ele>422.0</ele><time>2026-04-05T09:14:45.592Z</time></trkpt><trkpt lat="43.7736533" lon="12.2016067"><ele>424.66666666666663</ele><time>2026-04-05T09:14:46.592Z</time></trkpt><trkpt lat="43.773825" lon="12.2017183"><ele>427.33333333333337</ele><time>2026-04-05T09:14:47.591Z</time></trkpt><trkpt lat="43.773985" lon="12.2018433"><ele>430.0</ele><time>2026-04-05T09:14:48.591Z</time></trkpt><trkpt lat="43.7741433" lon="12.2019583"><ele>430.0</ele><time>2026-04-05T09:14:49.592Z</time></trkpt><trkpt lat="43.7743067" lon="12.20203"><ele>430.0</ele><time>2026-04-05T09:14:50.592Z</time></trkpt><trkpt lat="43.7744883" lon="12.2020583"><ele>430.0</ele><time>2026-04-05T09:14:51.592Z</time></trkpt><trkpt lat="43.7746667" lon="12.2020917"><ele>429.33333333333337</ele><time>2026-04-05T09:14:52.592Z</time></trkpt><trkpt lat="43.774835" lon="12.2021583"><ele>428.66666666666663</ele><time>2026-04-05T09:14:53.592Z</time></trkpt><trkpt lat="43.7749883" lon="12.20228"><ele>428.0</ele><time>2026-04-05T09:14:54.592Z</time></trkpt><trkpt lat="43.775135" lon="12.20243"><ele>426.3333333333333</ele><time>2026-04-05T09:14:55.592Z</time></trkpt><trkpt lat="43.7752767" lon="12.2026"><ele>424.66666666666663</ele><time>2026-04-05T09:14:56.591Z</time></trkpt><trkpt lat="43.77541" lon="12.2027533"><ele>423.0</ele><time>2026-04-05T09:14:57.592Z</time></trkpt><trkpt lat="43.77554" lon="12.2028767"><ele>423.0</ele><time>2026-04-05T09:14:58.591Z</time></trkpt><trkpt lat="43.77568" lon="12.202985"><ele>423.0</ele><time>2026-04-05T09:14:59.592Z</time></trkpt><trkpt lat="43.77581" lon="12.20308"><ele>423.0</ele><time>2026-04-05T09:15:00.592Z</time></trkpt><trkpt lat="43.7759267" lon="12.203185"><ele>423.0</ele><time>2026-04-05T09:15:01.591Z</time></trkpt><trkpt lat="43.77604" lon="12.2032817"><ele>424.0</ele><time>2026-04-05T09:15:02.591Z</time></trkpt><trkpt lat="43.776155" lon="12.20337"><ele>425.0</ele><time>2026-04-05T09:15:03.591Z</time></trkpt><trkpt lat="43.7762717" lon="12.2034567"><ele>426.0</ele><time>2026-04-05T09:15:04.592Z</time></trkpt><trkpt lat="43.776385" lon="12.2035483"><ele>427.0</ele><time>2026-04-05T09:15:05.592Z</time></trkpt><trkpt lat="43.776495" lon="12.2036383"><ele>427.0</ele><time>2026-04-05T09:15:06.591Z</time></trkpt><trkpt lat="43.7766017" lon="12.2037183"><ele>427.0</ele><time>2026-04-05T09:15:07.591Z</time></trkpt><trkpt lat="43.7767117" lon="12.2037933"><ele>427.0</ele><time>2026-04-05T09:15:08.591Z</time></trkpt><trkpt lat="43.776815" lon="12.2038733"><ele>427.0</ele><time>2026-04-05T09:15:09.591Z</time></trkpt><trkpt lat="43.77692" lon="12.20395"><ele>427.75</ele><time>2026-04-05T09:15:10.592Z</time></trkpt><trkpt lat="43.7770167" lon="12.20403"><ele>428.5</ele><time>2026-04-05T09:15:11.591Z</time></trkpt><trkpt lat="43.7771167" lon="12.20411"><ele>429.25</ele><time>2026-04-05T09:15:12.591Z</time></trkpt><trkpt lat="43.7772167" lon="12.2041867"><ele>430.0</ele><time>2026-04-05T09:15:13.592Z</time></trkpt><trkpt lat="43.7773267" lon="12.2042667"><ele>430.0</ele><time>2026-04-05T09:15:14.591Z</time></trkpt><trkpt lat="43.777435" lon="12.2043433"><ele>430.0</ele><time>2026-04-05T09:15:15.591Z</time></trkpt><trkpt lat="43.77754" lon="12.2044167"><ele>430.0</ele><time>2026-04-05T09:15:16.592Z</time></trkpt><trkpt lat="43.7776467" lon="12.2044983"><ele>430.0</ele><time>2026-04-05T09:15:17.592Z</time></trkpt><trkpt lat="43.7777567" lon="12.20458"><ele>431.25</ele><time>2026-04-05T09:15:18.591Z</time></trkpt><trkpt lat="43.7778767" lon="12.204665"><ele>432.5</ele><time>2026-04-05T09:15:19.592Z</time></trkpt><trkpt lat="43.7780067" lon="12.2047567"><ele>433.75</ele><time>2026-04-05T09:15:20.591Z</time></trkpt><trkpt lat="43.778135" lon="12.204845"><ele>435.0</ele><time>2026-04-05T09:15:21.592Z</time></trkpt><trkpt lat="43.7782617" lon="12.204935"><ele>435.0</ele><time>2026-04-05T09:15:22.592Z</time></trkpt><trkpt lat="43.7783983" lon="12.2050167"><ele>435.0</ele><time>2026-04-05T09:15:23.592Z</time></trkpt><trkpt lat="43.7785317" lon="12.2050683"><ele>435.0</ele><time>2026-04-05T09:15:24.592Z</time></trkpt><trkpt lat="43.7786733" lon="12.2050883"><ele>435.0</ele><time>2026-04-05T09:15:25.591Z</time></trkpt><trkpt lat="43.7787967" lon="12.2050633"><ele>434.2</ele><time>2026-04-05T09:15:26.591Z</time></trkpt><trkpt lat="43.77891" lon="12.2050417"><ele>433.4</ele><time>2026-04-05T09:15:27.592Z</time></trkpt><trkpt lat="43.779025" lon="12.2050183"><ele>432.6</ele><time>2026-04-05T09:15:28.591Z</time></trkpt><trkpt lat="43.779125" lon="12.2049933"><ele>431.8</ele><time>2026-04-05T09:15:29.591Z</time></trkpt><trkpt lat="43.7792383" lon="12.20497"><ele>431.0</ele><time>2026-04-05T09:15:30.591Z</time></trkpt><trkpt lat="43.7793633" lon="12.2049683"><ele>427.75</ele><time>2026-04-05T09:15:31.592Z</time></trkpt><trkpt lat="43.7795017" lon="12.2050117"><ele>424.5</ele><time>2026-04-05T09:15:32.591Z</time></trkpt><trkpt lat="43.77964" lon="12.2050867"><ele>421.25</ele><time>2026-04-05T09:15:33.591Z</time></trkpt><trkpt lat="43.7797733" lon="12.2051667"><ele>418.0</ele><time>2026-04-05T09:15:34.592Z</time></trkpt><trkpt lat="43.7799" lon="12.20526"><ele>418.0</ele><time>2026-04-05T09:15:35.591Z</time></trkpt><trkpt lat="43.780005" lon="12.20537"><ele>418.0</ele><time>2026-04-05T09:15:36.591Z</time></trkpt><trkpt lat="43.7800833" lon="12.2055233"><ele>418.0</ele><time>2026-04-05T09:15:37.591Z</time></trkpt><trkpt lat="43.7801217" lon="12.2057433"><ele>418.0</ele><time>2026-04-05T09:15:38.592Z</time></trkpt><trkpt lat="43.7803683" lon="12.2060883"><ele>417.6666666666667</ele><time>2026-04-05T09:15:39.915Z</time></trkpt><trkpt lat="43.7803817" lon="12.206335"><ele>417.33333333333337</ele><time>2026-04-05T09:15:41.089Z</time></trkpt><trkpt lat="43.7804633" lon="12.20661"><ele>417.0</ele><time>2026-04-05T09:15:42.089Z</time></trkpt><trkpt lat="43.78056" lon="12.20689"><ele>417.0</ele><time>2026-04-05T09:15:43.088Z</time></trkpt><trkpt lat="43.780785" lon="12.2073067"><ele>417.0</ele><time>2026-04-05T09:15:44.589Z</time></trkpt><trkpt lat="43.7809333" lon="12.2075567"><ele>415.66666666666663</ele><time>2026-04-05T09:15:45.588Z</time></trkpt><trkpt lat="43.7810817" lon="12.2077867"><ele>414.3333333333333</ele><time>2026-04-05T09:15:46.588Z</time></trkpt><trkpt lat="43.78122" lon="12.2079917"><ele>413.0</ele><time>2026-04-05T09:15:47.589Z</time></trkpt><trkpt lat="43.7813517" lon="12.2081967"><ele>413.0</ele><time>2026-04-05T09:15:48.588Z</time></trkpt><trkpt lat="43.7814517" lon="12.2084217"><ele>413.0</ele><time>2026-04-05T09:15:49.589Z</time></trkpt><trkpt lat="43.7815083" lon="12.20869"><ele>413.0</ele><time>2026-04-05T09:15:50.589Z</time></trkpt><trkpt lat="43.7815517" lon="12.20898"><ele>412.66666666666663</ele><time>2026-04-05T09:15:51.589Z</time></trkpt><trkpt lat="43.7815917" lon="12.2092617"><ele>412.33333333333337</ele><time>2026-04-05T09:15:52.589Z</time></trkpt><trkpt lat="43.7816283" lon="12.2095333"><ele>412.0</ele><time>2026-04-05T09:15:53.589Z</time></trkpt><trkpt lat="43.7816583" lon="12.2097717"><ele>412.0</ele><time>2026-04-05T09:15:54.589Z</time></trkpt><trkpt lat="43.7816917" lon="12.2099833"><ele>412.0</ele><time>2026-04-05T09:15:55.589Z</time></trkpt><trkpt lat="43.781725" lon="12.2101633"><ele>412.0</ele><time>2026-04-05T09:15:56.588Z</time></trkpt><trkpt lat="43.7817817" lon="12.2103183"><ele>412.0</ele><time>2026-04-05T09:15:57.589Z</time></trkpt><trkpt lat="43.7818883" lon="12.210425"><ele>412.0</ele><time>2026-04-05T09:15:58.589Z</time></trkpt><trkpt lat="43.7820433" lon="12.2104817"><ele>412.0</ele><time>2026-04-05T09:15:59.588Z</time></trkpt><trkpt lat="43.782245" lon="12.2105083"><ele>412.0</ele><time>2026-04-05T09:16:00.589Z</time></trkpt><trkpt lat="43.782465" lon="12.2105317"><ele>412.0</ele><time>2026-04-05T09:16:01.588Z</time></trkpt><trkpt lat="43.7826733" lon="12.2105533"><ele>412.0</ele><time>2026-04-05T09:16:02.589Z</time></trkpt><trkpt lat="43.7828733" lon="12.21059"><ele>412.0</ele><time>2026-04-05T09:16:03.589Z</time></trkpt><trkpt lat="43.7830533" lon="12.210635"><ele>415.0</ele><time>2026-04-05T09:16:04.589Z</time></trkpt><trkpt lat="43.783245" lon="12.2107133"><ele>418.0</ele><time>2026-04-05T09:16:05.588Z</time></trkpt><trkpt lat="43.78344" lon="12.2108133"><ele>421.0</ele><time>2026-04-05T09:16:06.588Z</time></trkpt><trkpt lat="43.7836217" lon="12.210895"><ele>421.0</ele><time>2026-04-05T09:16:07.589Z</time></trkpt><trkpt lat="43.783795" lon="12.2109617"><ele>421.0</ele><time>2026-04-05T09:16:08.588Z</time></trkpt><trkpt lat="43.7839633" lon="12.2110267"><ele>421.0</ele><time>2026-04-05T09:16:09.589Z</time></trkpt><trkpt lat="43.7841267" lon="12.2110933"><ele>421.0</ele><time>2026-04-05T09:16:10.588Z</time></trkpt><trkpt lat="43.784275" lon="12.21113"><ele>421.0</ele><time>2026-04-05T09:16:11.589Z</time></trkpt><trkpt lat="43.78442" lon="12.21112"><ele>421.0</ele><time>2026-04-05T09:16:12.589Z</time></trkpt><trkpt lat="43.7845567" lon="12.2110783"><ele>421.0</ele><time>2026-04-05T09:16:13.588Z</time></trkpt><trkpt lat="43.7846817" lon="12.2109983"><ele>420.0</ele><time>2026-04-05T09:16:14.589Z</time></trkpt><trkpt lat="43.78479" lon="12.210885"><ele>419.0</ele><time>2026-04-05T09:16:15.589Z</time></trkpt><trkpt lat="43.7848667" lon="12.21072"><ele>418.0</ele><time>2026-04-05T09:16:16.589Z</time></trkpt><trkpt lat="43.7849067" lon="12.2105283"><ele>417.0</ele><time>2026-04-05T09:16:17.589Z</time></trkpt><trkpt lat="43.7849533" lon="12.2103583"><ele>417.0</ele><time>2026-04-05T09:16:18.589Z</time></trkpt><trkpt lat="43.785015" lon="12.2102017"><ele>417.0</ele><time>2026-04-05T09:16:19.589Z</time></trkpt><trkpt lat="43.7851" lon="12.2100617"><ele>417.0</ele><time>2026-04-05T09:16:20.589Z</time></trkpt><trkpt lat="43.7852183" lon="12.2099883"><ele>417.0</ele><time>2026-04-05T09:16:21.588Z</time></trkpt><trkpt lat="43.78537" lon="12.2099583"><ele>419.25</ele><time>2026-04-05T09:16:22.589Z</time></trkpt><trkpt lat="43.7855217" lon="12.2099467"><ele>421.5</ele><time>2026-04-05T09:16:23.588Z</time></trkpt><trkpt lat="43.7856617" lon="12.2099483"><ele>423.75</ele><time>2026-04-05T09:16:24.588Z</time></trkpt><trkpt lat="43.7857983" lon="12.2099667"><ele>426.0</ele><time>2026-04-05T09:16:25.588Z</time></trkpt><trkpt lat="43.7859267" lon="12.21"><ele>427.0</ele><time>2026-04-05T09:16:26.589Z</time></trkpt><trkpt lat="43.7860617" lon="12.210045"><ele>428.0</ele><time>2026-04-05T09:16:27.589Z</time></trkpt><trkpt lat="43.7862017" lon="12.210065"><ele>429.0</ele><time>2026-04-05T09:16:28.589Z</time></trkpt><trkpt lat="43.7863383" lon="12.2100417"><ele>430.0</ele><time>2026-04-05T09:16:29.589Z</time></trkpt><trkpt lat="43.7864833" lon="12.20998"><ele>430.0</ele><time>2026-04-05T09:16:30.588Z</time></trkpt><trkpt lat="43.786615" lon="12.2099133"><ele>430.0</ele><time>2026-04-05T09:16:31.588Z</time></trkpt><trkpt lat="43.78675" lon="12.20985"><ele>430.0</ele><time>2026-04-05T09:16:32.588Z</time></trkpt><trkpt lat="43.7868867" lon="12.2097933"><ele>430.0</ele><time>2026-04-05T09:16:33.589Z</time></trkpt><trkpt lat="43.7870217" lon="12.2097667"><ele>428.6666666666667</ele><time>2026-04-05T09:16:34.588Z</time></trkpt><trkpt lat="43.7871583" lon="12.2097867"><ele>427.33333333333337</ele><time>2026-04-05T09:16:35.588Z</time></trkpt><trkpt lat="43.7872967" lon="12.2098783"><ele>426.0</ele><time>2026-04-05T09:16:36.589Z</time></trkpt><trkpt lat="43.7874633" lon="12.21002"><ele>426.0</ele><time>2026-04-05T09:16:37.589Z</time></trkpt><trkpt lat="43.7876367" lon="12.210175"><ele>426.0</ele><time>2026-04-05T09:16:38.589Z</time></trkpt><trkpt lat="43.7878033" lon="12.210315"><ele>426.0</ele><time>2026-04-05T09:16:39.589Z</time></trkpt><trkpt lat="43.7879567" lon="12.2104283"><ele>425.33333333333337</ele><time>2026-04-05T09:16:40.589Z</time></trkpt><trkpt lat="43.7881233" lon="12.210495"><ele>424.6666666666667</ele><time>2026-04-05T09:16:41.589Z</time></trkpt><trkpt lat="43.7883017" lon="12.210495"><ele>424.0</ele><time>2026-04-05T09:16:42.588Z</time></trkpt><trkpt lat="43.7884883" lon="12.2104267"><ele>427.6666666666667</ele><time>2026-04-05T09:16:43.589Z</time></trkpt><trkpt lat="43.7886733" lon="12.2102833"><ele>431.33333333333337</ele><time>2026-04-05T09:16:44.589Z</time></trkpt><trkpt lat="43.7888617" lon="12.210115"><ele>435.0</ele><time>2026-04-05T09:16:45.589Z</time></trkpt><trkpt lat="43.78904" lon="12.2099433"><ele>431.33333333333337</ele><time>2026-04-05T09:16:46.588Z</time></trkpt><trkpt lat="43.7892167" lon="12.2097983"><ele>427.6666666666667</ele><time>2026-04-05T09:16:47.589Z</time></trkpt><trkpt lat="43.7894133" lon="12.209685"><ele>424.0</ele><time>2026-04-05T09:16:48.589Z</time></trkpt><trkpt lat="43.78962" lon="12.209615"><ele>424.0</ele><time>2026-04-05T09:16:49.589Z</time></trkpt><trkpt lat="43.7898217" lon="12.20956"><ele>424.0</ele><time>2026-04-05T09:16:50.589Z</time></trkpt><trkpt lat="43.7900283" lon="12.2095083"><ele>424.0</ele><time>2026-04-05T09:16:51.588Z</time></trkpt><trkpt lat="43.7902383" lon="12.2094767"><ele>424.0</ele><time>2026-04-05T09:16:52.589Z</time></trkpt><trkpt lat="43.7904517" lon="12.2094683"><ele>424.0</ele><time>2026-04-05T09:16:53.588Z</time></trkpt><trkpt lat="43.7906683" lon="12.20949"><ele>424.0</ele><time>2026-04-05T09:16:54.589Z</time></trkpt><trkpt lat="43.7908617" lon="12.2095217"><ele>421.6666666666667</ele><time>2026-04-05T09:16:55.589Z</time></trkpt><trkpt lat="43.7910383" lon="12.2095433"><ele>419.33333333333337</ele><time>2026-04-05T09:16:56.589Z</time></trkpt><trkpt lat="43.7912017" lon="12.20958"><ele>417.0</ele><time>2026-04-05T09:16:57.589Z</time></trkpt><trkpt lat="43.7913567" lon="12.209635"><ele>417.0</ele><time>2026-04-05T09:16:58.588Z</time></trkpt><trkpt lat="43.7914833" lon="12.20972"><ele>417.0</ele><time>2026-04-05T09:16:59.589Z</time></trkpt><trkpt lat="43.7915833" lon="12.2098417"><ele>417.0</ele><time>2026-04-05T09:17:00.589Z</time></trkpt><trkpt lat="43.7916483" lon="12.2100167"><ele>417.0</ele><time>2026-04-05T09:17:01.588Z</time></trkpt><trkpt lat="43.7916767" lon="12.2102383"><ele>421.66666666666663</ele><time>2026-04-05T09:17:02.589Z</time></trkpt><trkpt lat="43.79168" lon="12.2104983"><ele>426.3333333333333</ele><time>2026-04-05T09:17:03.588Z</time></trkpt><trkpt lat="43.79167" lon="12.210795"><ele>431.0</ele><time>2026-04-05T09:17:04.588Z</time></trkpt><trkpt lat="43.7916617" lon="12.2110733"><ele>431.0</ele><time>2026-04-05T09:17:05.588Z</time></trkpt><trkpt lat="43.7916517" lon="12.2113183"><ele>431.0</ele><time>2026-04-05T09:17:06.589Z</time></trkpt><trkpt lat="43.791645" lon="12.21153"><ele>431.0</ele><time>2026-04-05T09:17:07.589Z</time></trkpt><trkpt lat="43.7916717" lon="12.21172"><ele>432.66666666666663</ele><time>2026-04-05T09:17:08.589Z</time></trkpt><trkpt lat="43.7917483" lon="12.2118783"><ele>434.33333333333337</ele><time>2026-04-05T09:17:09.589Z</time></trkpt><trkpt lat="43.7918917" lon="12.2119683"><ele>436.0</ele><time>2026-04-05T09:17:10.588Z</time></trkpt><trkpt lat="43.7920767" lon="12.2120033"><ele>436.33333333333337</ele><time>2026-04-05T09:17:11.589Z</time></trkpt><trkpt lat="43.79229" lon="12.2119917"><ele>436.66666666666663</ele><time>2026-04-05T09:17:12.589Z</time></trkpt><trkpt lat="43.7925167" lon="12.2119517"><ele>437.0</ele><time>2026-04-05T09:17:13.589Z</time></trkpt><trkpt lat="43.792755" lon="12.211865"><ele>437.0</ele><time>2026-04-05T09:17:14.589Z</time></trkpt><trkpt lat="43.7930083" lon="12.2117233"><ele>437.0</ele><time>2026-04-05T09:17:15.588Z</time></trkpt><trkpt lat="43.7932633" lon="12.2115733"><ele>432.5</ele><time>2026-04-05T09:17:16.589Z</time></trkpt><trkpt lat="43.7935" lon="12.2114317"><ele>428.0</ele><time>2026-04-05T09:17:17.589Z</time></trkpt><trkpt lat="43.7937217" lon="12.211305"><ele>428.0</ele><time>2026-04-05T09:17:18.588Z</time></trkpt><trkpt lat="43.7939217" lon="12.2111833"><ele>428.0</ele><time>2026-04-05T09:17:19.589Z</time></trkpt><trkpt lat="43.794105" lon="12.211065"><ele>428.0</ele><time>2026-04-05T09:17:20.589Z</time></trkpt><trkpt lat="43.794295" lon="12.2109767"><ele>428.66666666666663</ele><time>2026-04-05T09:17:21.589Z</time></trkpt><trkpt lat="43.7944917" lon="12.2109017"><ele>429.33333333333337</ele><time>2026-04-05T09:17:22.589Z</time></trkpt><trkpt lat="43.794695" lon="12.2108733"><ele>430.0</ele><time>2026-04-05T09:17:23.589Z</time></trkpt><trkpt lat="43.7949033" lon="12.210885"><ele>430.0</ele><time>2026-04-05T09:17:24.588Z</time></trkpt><trkpt lat="43.7951117" lon="12.2109333"><ele>430.0</ele><time>2026-04-05T09:17:25.589Z</time></trkpt><trkpt lat="43.7953317" lon="12.2110167"><ele>430.0</ele><time>2026-04-05T09:17:26.589Z</time></trkpt><trkpt lat="43.79556" lon="12.2111233"><ele>429.33333333333337</ele><time>2026-04-05T09:17:27.588Z</time></trkpt><trkpt lat="43.79577" lon="12.21125"><ele>428.66666666666663</ele><time>2026-04-05T09:17:28.588Z</time></trkpt><trkpt lat="43.79596" lon="12.2113867"><ele>428.0</ele><time>2026-04-05T09:17:29.588Z</time></trkpt><trkpt lat="43.7961467" lon="12.211505"><ele>428.0</ele><time>2026-04-05T09:17:30.589Z</time></trkpt><trkpt lat="43.796335" lon="12.21165"><ele>428.0</ele><time>2026-04-05T09:17:31.588Z</time></trkpt><trkpt lat="43.79652" lon="12.211795"><ele>428.0</ele><time>2026-04-05T09:17:32.588Z</time></trkpt><trkpt lat="43.7966933" lon="12.2119583"><ele>429.0</ele><time>2026-04-05T09:17:33.588Z</time></trkpt><trkpt lat="43.7968433" lon="12.212145"><ele>430.0</ele><time>2026-04-05T09:17:34.588Z</time></trkpt><trkpt lat="43.7969933" lon="12.2123467"><ele>431.0</ele><time>2026-04-05T09:17:35.589Z</time></trkpt><trkpt lat="43.7971317" lon="12.2125683"><ele>431.0</ele><time>2026-04-05T09:17:36.589Z</time></trkpt><trkpt lat="43.7972567" lon="12.2127883"><ele>431.0</ele><time>2026-04-05T09:17:37.589Z</time></trkpt><trkpt lat="43.7973783" lon="12.2129933"><ele>431.0</ele><time>2026-04-05T09:17:38.589Z</time></trkpt><trkpt lat="43.7974933" lon="12.2131767"><ele>428.3333333333333</ele><time>2026-04-05T09:17:39.589Z</time></trkpt><trkpt lat="43.7976333" lon="12.2133267"><ele>425.66666666666663</ele><time>2026-04-05T09:17:40.589Z</time></trkpt><trkpt lat="43.7977817" lon="12.2134333"><ele>423.0</ele><time>2026-04-05T09:17:41.589Z</time></trkpt><trkpt lat="43.7979" lon="12.2135667"><ele>423.0</ele><time>2026-04-05T09:17:42.589Z</time></trkpt><trkpt lat="43.798" lon="12.2137367"><ele>423.0</ele><time>2026-04-05T09:17:43.589Z</time></trkpt><trkpt lat="43.7980733" lon="12.2139683"><ele>423.0</ele><time>2026-04-05T09:17:44.589Z</time></trkpt><trkpt lat="43.7981317" lon="12.2142267"><ele>427.33333333333337</ele><time>2026-04-05T09:17:45.588Z</time></trkpt><trkpt lat="43.79821" lon="12.2144767"><ele>431.6666666666667</ele><time>2026-04-05T09:17:46.588Z</time></trkpt><trkpt lat="43.7983117" lon="12.21473"><ele>436.0</ele><time>2026-04-05T09:17:47.588Z</time></trkpt><trkpt lat="43.79843" lon="12.2149467"><ele>430.0</ele><time>2026-04-05T09:17:48.588Z</time></trkpt><trkpt lat="43.7985567" lon="12.2151233"><ele>424.0</ele><time>2026-04-05T09:17:49.589Z</time></trkpt><trkpt lat="43.79867" lon="12.215285"><ele>418.0</ele><time>2026-04-05T09:17:50.589Z</time></trkpt><trkpt lat="43.7987783" lon="12.21541"><ele>418.0</ele><time>2026-04-05T09:17:51.589Z</time></trkpt><trkpt lat="43.7988517" lon="12.2155367"><ele>418.0</ele><time>2026-04-05T09:17:52.589Z</time></trkpt><trkpt lat="43.7988867" lon="12.2156967"><ele>418.0</ele><time>2026-04-05T09:17:53.589Z</time></trkpt><trkpt lat="43.7988883" lon="12.2158767"><ele>418.0</ele><time>2026-04-05T09:17:54.589Z</time></trkpt><trkpt lat="43.7988833" lon="12.216065"><ele>421.75</ele><time>2026-04-05T09:17:55.588Z</time></trkpt><trkpt lat="43.7989233" lon="12.21623"><ele>425.5</ele><time>2026-04-05T09:17:56.588Z</time></trkpt><trkpt lat="43.79901" lon="12.2163717"><ele>429.25</ele><time>2026-04-05T09:17:57.589Z</time></trkpt><trkpt lat="43.799145" lon="12.2164633"><ele>433.0</ele><time>2026-04-05T09:17:58.589Z</time></trkpt><trkpt lat="43.7993117" lon="12.2165217"><ele>433.33333333333337</ele><time>2026-04-05T09:17:59.588Z</time></trkpt><trkpt lat="43.7995083" lon="12.21656"><ele>433.66666666666663</ele><time>2026-04-05T09:18:00.589Z</time></trkpt><trkpt lat="43.7996917" lon="12.2166217"><ele>434.0</ele><time>2026-04-05T09:18:01.588Z</time></trkpt><trkpt lat="43.7998683" lon="12.2167033"><ele>434.0</ele><time>2026-04-05T09:18:02.589Z</time></trkpt><trkpt lat="43.8000067" lon="12.2168333"><ele>434.0</ele><time>2026-04-05T09:18:03.589Z</time></trkpt><trkpt lat="43.800135" lon="12.21703"><ele>434.0</ele><time>2026-04-05T09:18:04.588Z</time></trkpt><trkpt lat="43.8002417" lon="12.2172417"><ele>429.3333333333333</ele><time>2026-04-05T09:18:05.589Z</time></trkpt><trkpt lat="43.800375" lon="12.2174233"><ele>424.66666666666663</ele><time>2026-04-05T09:18:06.588Z</time></trkpt><trkpt lat="43.8005083" lon="12.2175817"><ele>420.0</ele><time>2026-04-05T09:18:07.588Z</time></trkpt><trkpt lat="43.800635" lon="12.2177583"><ele>420.0</ele><time>2026-04-05T09:18:08.588Z</time></trkpt><trkpt lat="43.80075" lon="12.21794"><ele>420.0</ele><time>2026-04-05T09:18:09.589Z</time></trkpt><trkpt lat="43.80084" lon="12.218125"><ele>420.0</ele><time>2026-04-05T09:18:10.588Z</time></trkpt><trkpt lat="43.8009" lon="12.2183217"><ele>427.66666666666663</ele><time>2026-04-05T09:18:11.588Z</time></trkpt><trkpt lat="43.8009217" lon="12.21854"><ele>435.3333333333333</ele><time>2026-04-05T09:18:12.588Z</time></trkpt><trkpt lat="43.8008933" lon="12.218755"><ele>443.0</ele><time>2026-04-05T09:18:13.59Z</time></trkpt><trkpt lat="43.8008617" lon="12.2189517"><ele>444.75</ele><time>2026-04-05T09:18:14.59Z</time></trkpt><trkpt lat="43.8008517" lon="12.2191267"><ele>446.5</ele><time>2026-04-05T09:18:15.59Z</time></trkpt><trkpt lat="43.8008783" lon="12.219285"><ele>448.25</ele><time>2026-04-05T09:18:16.589Z</time></trkpt><trkpt lat="43.8009567" lon="12.2194033"><ele>450.0</ele><time>2026-04-05T09:18:17.59Z</time></trkpt><trkpt lat="43.801075" lon="12.219465"><ele>445.5</ele><time>2026-04-05T09:18:18.59Z</time></trkpt><trkpt lat="43.8012233" lon="12.2194767"><ele>441.0</ele><time>2026-04-05T09:18:19.589Z</time></trkpt><trkpt lat="43.8013667" lon="12.219465"><ele>436.5</ele><time>2026-04-05T09:18:20.589Z</time></trkpt><trkpt lat="43.801505" lon="12.2194867"><ele>432.0</ele><time>2026-04-05T09:18:21.59Z</time></trkpt><trkpt lat="43.8016267" lon="12.21957"><ele>432.0</ele><time>2026-04-05T09:18:22.589Z</time></trkpt><trkpt lat="43.801735" lon="12.2197317"><ele>432.0</ele><time>2026-04-05T09:18:23.59Z</time></trkpt><trkpt lat="43.8018283" lon="12.2199533"><ele>432.0</ele><time>2026-04-05T09:18:24.59Z</time></trkpt><trkpt lat="43.801935" lon="12.2201767"><ele>430.66666666666663</ele><time>2026-04-05T09:18:25.59Z</time></trkpt><trkpt lat="43.8020467" lon="12.2204117"><ele>429.3333333333333</ele><time>2026-04-05T09:18:26.589Z</time></trkpt><trkpt lat="43.802155" lon="12.2206817"><ele>428.0</ele><time>2026-04-05T09:18:27.59Z</time></trkpt><trkpt lat="43.80224" lon="12.2209567"><ele>428.0</ele><time>2026-04-05T09:18:28.59Z</time></trkpt><trkpt lat="43.8023017" lon="12.2212233"><ele>428.0</ele><time>2026-04-05T09:18:29.589Z</time></trkpt><trkpt lat="43.8023617" lon="12.22146"><ele>428.0</ele><time>2026-04-05T09:18:30.59Z</time></trkpt><trkpt lat="43.802415" lon="12.221675"><ele>434.3333333333333</ele><time>2026-04-05T09:18:31.59Z</time></trkpt><trkpt lat="43.8024733" lon="12.221875"><ele>440.66666666666663</ele><time>2026-04-05T09:18:32.59Z</time></trkpt><trkpt lat="43.8025583" lon="12.2220683"><ele>447.0</ele><time>2026-04-05T09:18:33.589Z</time></trkpt><trkpt lat="43.8026867" lon="12.22223"><ele>437.66666666666663</ele><time>2026-04-05T09:18:34.59Z</time></trkpt><trkpt lat="43.8028233" lon="12.2223967"><ele>428.3333333333333</ele><time>2026-04-05T09:18:35.59Z</time></trkpt><trkpt lat="43.8029333" lon="12.222555"><ele>419.0</ele><time>2026-04-05T09:18:36.589Z</time></trkpt><trkpt lat="43.8030117" lon="12.2227017"><ele>419.0</ele><time>2026-04-05T09:18:37.59Z</time></trkpt><trkpt lat="43.803055" lon="12.222875"><ele>419.0</ele><time>2026-04-05T09:18:38.589Z</time></trkpt><trkpt lat="43.8030517" lon="12.2230783"><ele>419.0</ele><time>2026-04-05T09:18:39.59Z</time></trkpt><trkpt lat="43.8030133" lon="12.2232983"><ele>419.0</ele><time>2026-04-05T09:18:40.589Z</time></trkpt><trkpt lat="43.8029467" lon="12.2235367"><ele>420.66666666666663</ele><time>2026-04-05T09:18:41.589Z</time></trkpt><trkpt lat="43.8028667" lon="12.2237633"><ele>422.33333333333337</ele><time>2026-04-05T09:18:42.59Z</time></trkpt><trkpt lat="43.8028017" lon="12.2239533"><ele>424.0</ele><time>2026-04-05T09:18:43.59Z</time></trkpt><trkpt lat="43.802745" lon="12.2241433"><ele>424.6666666666667</ele><time>2026-04-05T09:18:44.59Z</time></trkpt><trkpt lat="43.8027367" lon="12.2243383"><ele>425.33333333333337</ele><time>2026-04-05T09:18:45.589Z</time></trkpt><trkpt lat="43.8027867" lon="12.2245533"><ele>426.0</ele><time>2026-04-05T09:18:46.589Z</time></trkpt><trkpt lat="43.80287" lon="12.2247783"><ele>429.75</ele><time>2026-04-05T09:18:47.589Z</time></trkpt><trkpt lat="43.8029533" lon="12.224995"><ele>433.5</ele><time>2026-04-05T09:18:48.589Z</time></trkpt><trkpt lat="43.803025" lon="12.2251667"><ele>437.25</ele><time>2026-04-05T09:18:49.59Z</time></trkpt><trkpt lat="43.8031083" lon="12.2253"><ele>441.0</ele><time>2026-04-05T09:18:50.589Z</time></trkpt><trkpt lat="43.80322" lon="12.2253817"><ele>441.0</ele><time>2026-04-05T09:18:51.589Z</time></trkpt><trkpt lat="43.8033633" lon="12.2253933"><ele>441.0</ele><time>2026-04-05T09:18:52.59Z</time></trkpt><trkpt lat="43.8035333" lon="12.2253483"><ele>441.0</ele><time>2026-04-05T09:18:53.59Z</time></trkpt><trkpt lat="43.8037333" lon="12.225275"><ele>442.0</ele><time>2026-04-05T09:18:54.59Z</time></trkpt><trkpt lat="43.8039317" lon="12.2252083"><ele>443.0</ele><time>2026-04-05T09:18:55.589Z</time></trkpt><trkpt lat="43.8040983" lon="12.2251217"><ele>444.0</ele><time>2026-04-05T09:18:56.59Z</time></trkpt><trkpt lat="43.8042433" lon="12.22503"><ele>440.25</ele><time>2026-04-05T09:18:57.59Z</time></trkpt><trkpt lat="43.8043733" lon="12.224955"><ele>436.5</ele><time>2026-04-05T09:18:58.59Z</time></trkpt><trkpt lat="43.8044833" lon="12.224915"><ele>432.75</ele><time>2026-04-05T09:18:59.59Z</time></trkpt><trkpt lat="43.8046017" lon="12.2249533"><ele>429.0</ele><time>2026-04-05T09:19:00.59Z</time></trkpt><trkpt lat="43.8047217" lon="12.2250583"><ele>429.0</ele><time>2026-04-05T09:19:01.59Z</time></trkpt><trkpt lat="43.8048467" lon="12.2252067"><ele>429.0</ele><time>2026-04-05T09:19:02.589Z</time></trkpt><trkpt lat="43.80499" lon="12.2253583"><ele>429.0</ele><time>2026-04-05T09:19:03.59Z</time></trkpt><trkpt lat="43.8051383" lon="12.22549"><ele>427.75</ele><time>2026-04-05T09:19:04.59Z</time></trkpt><trkpt lat="43.8052683" lon="12.2255833"><ele>426.5</ele><time>2026-04-05T09:19:05.59Z</time></trkpt><trkpt lat="43.8053667" lon="12.2256667"><ele>425.25</ele><time>2026-04-05T09:19:06.59Z</time></trkpt><trkpt lat="43.8054367" lon="12.2257767"><ele>424.0</ele><time>2026-04-05T09:19:07.59Z</time></trkpt><trkpt lat="43.8054717" lon="12.2259333"><ele>424.0</ele><time>2026-04-05T09:19:08.59Z</time></trkpt><trkpt lat="43.8054667" lon="12.2261283"><ele>424.0</ele><time>2026-04-05T09:19:09.589Z</time></trkpt><trkpt lat="43.8054183" lon="12.226345"><ele>424.0</ele><time>2026-04-05T09:19:10.589Z</time></trkpt><trkpt lat="43.8053567" lon="12.2265717"><ele>426.25</ele><time>2026-04-05T09:19:11.589Z</time></trkpt><trkpt lat="43.8053083" lon="12.2267567"><ele>428.5</ele><time>2026-04-05T09:19:12.59Z</time></trkpt><trkpt lat="43.8052717" lon="12.2269133"><ele>430.75</ele><time>2026-04-05T09:19:13.59Z</time></trkpt><trkpt lat="43.8052667" lon="12.2270567"><ele>433.0</ele><time>2026-04-05T09:19:14.59Z</time></trkpt><trkpt lat="43.8053017" lon="12.22718"><ele>433.0</ele><time>2026-04-05T09:19:15.59Z</time></trkpt><trkpt lat="43.8053867" lon="12.2272567"><ele>433.0</ele><time>2026-04-05T09:19:16.59Z</time></trkpt><trkpt lat="43.8055083" lon="12.2272783"><ele>433.0</ele><time>2026-04-05T09:19:17.589Z</time></trkpt><trkpt lat="43.8057133" lon="12.2272233"><ele>433.0</ele><time>2026-04-05T09:19:18.59Z</time></trkpt><trkpt lat="43.8059467" lon="12.2271467"><ele>431.6666666666667</ele><time>2026-04-05T09:19:19.59Z</time></trkpt><trkpt lat="43.8061533" lon="12.227065"><ele>430.33333333333337</ele><time>2026-04-05T09:19:20.589Z</time></trkpt><trkpt lat="43.8063583" lon="12.226975"><ele>429.0</ele><time>2026-04-05T09:19:21.589Z</time></trkpt><trkpt lat="43.8065383" lon="12.22686"><ele>429.0</ele><time>2026-04-05T09:19:22.589Z</time></trkpt><trkpt lat="43.8067033" lon="12.2267517"><ele>429.0</ele><time>2026-04-05T09:19:23.59Z</time></trkpt><trkpt lat="43.8068717" lon="12.2266617"><ele>429.0</ele><time>2026-04-05T09:19:24.589Z</time></trkpt><trkpt lat="43.8070333" lon="12.2266033"><ele>428.66666666666663</ele><time>2026-04-05T09:19:25.589Z</time></trkpt><trkpt lat="43.8072" lon="12.2266033"><ele>428.3333333333333</ele><time>2026-04-05T09:19:26.59Z</time></trkpt><trkpt lat="43.8073767" lon="12.2266783"><ele>428.0</ele><time>2026-04-05T09:19:27.59Z</time></trkpt><trkpt lat="43.8075567" lon="12.2267867"><ele>422.0</ele><time>2026-04-05T09:19:28.59Z</time></trkpt><trkpt lat="43.807735" lon="12.2268983"><ele>416.0</ele><time>2026-04-05T09:19:29.59Z</time></trkpt><trkpt lat="43.807905" lon="12.2270067"><ele>410.0</ele><time>2026-04-05T09:19:30.589Z</time></trkpt><trkpt lat="43.808065" lon="12.2271333"><ele>410.0</ele><time>2026-04-05T09:19:31.589Z</time></trkpt><trkpt lat="43.808215" lon="12.227285"><ele>410.0</ele><time>2026-04-05T09:19:32.59Z</time></trkpt><trkpt lat="43.8083617" lon="12.22747"><ele>410.0</ele><time>2026-04-05T09:19:33.59Z</time></trkpt><trkpt lat="43.8085117" lon="12.2276517"><ele>404.0</ele><time>2026-04-05T09:19:34.59Z</time></trkpt><trkpt lat="43.8086767" lon="12.227855"><ele>398.0</ele><time>2026-04-05T09:19:35.59Z</time></trkpt><trkpt lat="43.8088433" lon="12.2281"><ele>404.66666666666663</ele><time>2026-04-05T09:19:36.59Z</time></trkpt><trkpt lat="43.8089917" lon="12.2283333"><ele>411.33333333333337</ele><time>2026-04-05T09:19:37.59Z</time></trkpt><trkpt lat="43.8091333" lon="12.2285417"><ele>418.0</ele><time>2026-04-05T09:19:38.589Z</time></trkpt><trkpt lat="43.809265" lon="12.2287383"><ele>409.6666666666667</ele><time>2026-04-05T09:19:39.59Z</time></trkpt><trkpt lat="43.8093783" lon="12.2289083"><ele>401.33333333333337</ele><time>2026-04-05T09:19:40.589Z</time></trkpt><trkpt lat="43.80946" lon="12.2290867"><ele>393.0</ele><time>2026-04-05T09:19:41.589Z</time></trkpt><trkpt lat="43.8095133" lon="12.22929"><ele>393.0</ele><time>2026-04-05T09:19:42.59Z</time></trkpt><trkpt lat="43.80954" lon="12.2295233"><ele>393.0</ele><time>2026-04-05T09:19:43.59Z</time></trkpt><trkpt lat="43.809525" lon="12.2297733"><ele>393.0</ele><time>2026-04-05T09:19:44.59Z</time></trkpt><trkpt lat="43.8094883" lon="12.230015"><ele>392.33333333333337</ele><time>2026-04-05T09:19:45.589Z</time></trkpt><trkpt lat="43.8094033" lon="12.2302667"><ele>391.6666666666667</ele><time>2026-04-05T09:19:46.59Z</time></trkpt><trkpt lat="43.8093083" lon="12.2305317"><ele>391.0</ele><time>2026-04-05T09:19:47.589Z</time></trkpt><trkpt lat="43.80923" lon="12.2308483"><ele>406.0</ele><time>2026-04-05T09:19:48.59Z</time></trkpt><trkpt lat="43.8091733" lon="12.2311867"><ele>421.0</ele><time>2026-04-05T09:19:49.59Z</time></trkpt><trkpt lat="43.8091267" lon="12.2314967"><ele>421.0</ele><time>2026-04-05T09:19:50.59Z</time></trkpt><trkpt lat="43.809085" lon="12.2317917"><ele>421.0</ele><time>2026-04-05T09:19:51.59Z</time></trkpt><trkpt lat="43.8090433" lon="12.23207"><ele>421.0</ele><time>2026-04-05T09:19:52.59Z</time></trkpt><trkpt lat="43.8090033" lon="12.23233"><ele>418.6666666666667</ele><time>2026-04-05T09:19:53.59Z</time></trkpt><trkpt lat="43.808975" lon="12.2325783"><ele>416.33333333333337</ele><time>2026-04-05T09:19:54.59Z</time></trkpt><trkpt lat="43.8089833" lon="12.23282"><ele>414.0</ele><time>2026-04-05T09:19:55.589Z</time></trkpt><trkpt lat="43.8090283" lon="12.23306"><ele>415.66666666666663</ele><time>2026-04-05T09:19:56.589Z</time></trkpt><trkpt lat="43.8091217" lon="12.2332883"><ele>417.3333333333333</ele><time>2026-04-05T09:19:57.59Z</time></trkpt><trkpt lat="43.8092383" lon="12.2334783"><ele>419.0</ele><time>2026-04-05T09:19:58.59Z</time></trkpt><trkpt lat="43.80935" lon="12.233665"><ele>411.3333333333333</ele><time>2026-04-05T09:19:59.589Z</time></trkpt><trkpt lat="43.8094367" lon="12.2338583"><ele>403.66666666666663</ele><time>2026-04-05T09:20:00.589Z</time></trkpt><trkpt lat="43.80949" lon="12.2340867"><ele>396.0</ele><time>2026-04-05T09:20:01.589Z</time></trkpt><trkpt lat="43.8095083" lon="12.2343417"><ele>396.0</ele><time>2026-04-05T09:20:02.59Z</time></trkpt><trkpt lat="43.80951" lon="12.2346417"><ele>396.0</ele><time>2026-04-05T09:20:03.59Z</time></trkpt><trkpt lat="43.8095083" lon="12.2349533"><ele>396.0</ele><time>2026-04-05T09:20:04.589Z</time></trkpt><trkpt lat="43.809505" lon="12.235245"><ele>396.0</ele><time>2026-04-05T09:20:05.59Z</time></trkpt><trkpt lat="43.8094933" lon="12.2355217"><ele>396.0</ele><time>2026-04-05T09:20:06.59Z</time></trkpt><trkpt lat="43.8095033" lon="12.2357817"><ele>396.0</ele><time>2026-04-05T09:20:07.589Z</time></trkpt><trkpt lat="43.8095467" lon="12.2360267"><ele>396.0</ele><time>2026-04-05T09:20:08.59Z</time></trkpt><trkpt lat="43.8096283" lon="12.2362467"><ele>396.0</ele><time>2026-04-05T09:20:09.59Z</time></trkpt><trkpt lat="43.8097567" lon="12.23644"><ele>396.0</ele><time>2026-04-05T09:20:10.589Z</time></trkpt><trkpt lat="43.8099133" lon="12.2365767"><ele>399.0</ele><time>2026-04-05T09:20:11.59Z</time></trkpt><trkpt lat="43.8100683" lon="12.2366967"><ele>402.0</ele><time>2026-04-05T09:20:12.59Z</time></trkpt><trkpt lat="43.8102133" lon="12.236815"><ele>405.0</ele><time>2026-04-05T09:20:13.589Z</time></trkpt><trkpt lat="43.810335" lon="12.236955"><ele>401.75</ele><time>2026-04-05T09:20:14.59Z</time></trkpt><trkpt lat="43.810415" lon="12.2371217"><ele>398.5</ele><time>2026-04-05T09:20:15.59Z</time></trkpt><trkpt lat="43.8104467" lon="12.2373067"><ele>395.25</ele><time>2026-04-05T09:20:16.589Z</time></trkpt><trkpt lat="43.81042" lon="12.2374817"><ele>392.0</ele><time>2026-04-05T09:20:17.589Z</time></trkpt><trkpt lat="43.8103367" lon="12.2376433"><ele>392.0</ele><time>2026-04-05T09:20:18.589Z</time></trkpt><trkpt lat="43.8102017" lon="12.2377883"><ele>392.0</ele><time>2026-04-05T09:20:19.59Z</time></trkpt><trkpt lat="43.8100417" lon="12.2379183"><ele>392.0</ele><time>2026-04-05T09:20:20.589Z</time></trkpt><trkpt lat="43.8098733" lon="12.2380633"><ele>394.0</ele><time>2026-04-05T09:20:21.59Z</time></trkpt><trkpt lat="43.8096967" lon="12.2382183"><ele>396.0</ele><time>2026-04-05T09:20:22.589Z</time></trkpt><trkpt lat="43.809535" lon="12.2383583"><ele>398.0</ele><time>2026-04-05T09:20:23.59Z</time></trkpt><trkpt lat="43.809385" lon="12.2385067"><ele>398.3333333333333</ele><time>2026-04-05T09:20:24.589Z</time></trkpt><trkpt lat="43.80925" lon="12.2386767"><ele>398.66666666666663</ele><time>2026-04-05T09:20:25.59Z</time></trkpt><trkpt lat="43.8091183" lon="12.2388733"><ele>399.0</ele><time>2026-04-05T09:20:26.59Z</time></trkpt><trkpt lat="43.8090167" lon="12.2390983"><ele>399.0</ele><time>2026-04-05T09:20:27.589Z</time></trkpt><trkpt lat="43.808945" lon="12.2393367"><ele>399.0</ele><time>2026-04-05T09:20:28.59Z</time></trkpt><trkpt lat="43.808895" lon="12.2395917"><ele>399.0</ele><time>2026-04-05T09:20:29.59Z</time></trkpt><trkpt lat="43.8088817" lon="12.2398533"><ele>398.33333333333337</ele><time>2026-04-05T09:20:30.589Z</time></trkpt><trkpt lat="43.8088933" lon="12.2401183"><ele>397.6666666666667</ele><time>2026-04-05T09:20:31.59Z</time></trkpt><trkpt lat="43.8089283" lon="12.2403833"><ele>397.0</ele><time>2026-04-05T09:20:32.59Z</time></trkpt><trkpt lat="43.8089933" lon="12.240635"><ele>397.0</ele><time>2026-04-05T09:20:33.59Z</time></trkpt><trkpt lat="43.8090883" lon="12.2408617"><ele>397.0</ele><time>2026-04-05T09:20:34.589Z</time></trkpt><trkpt lat="43.809215" lon="12.241065"><ele>397.0</ele><time>2026-04-05T09:20:35.59Z</time></trkpt><trkpt lat="43.8093967" lon="12.241235"><ele>395.0</ele><time>2026-04-05T09:20:36.59Z</time></trkpt><trkpt lat="43.8096067" lon="12.2413783"><ele>393.0</ele><time>2026-04-05T09:20:37.59Z</time></trkpt><trkpt lat="43.809865" lon="12.241515"><ele>390.0</ele><time>2026-04-05T09:20:38.589Z</time></trkpt><trkpt lat="43.81016" lon="12.24164"><ele>387.0</ele><time>2026-04-05T09:20:39.59Z</time></trkpt><trkpt lat="43.81048" lon="12.2417817"><ele>387.0</ele><time>2026-04-05T09:20:40.59Z</time></trkpt><trkpt lat="43.810785" lon="12.2419183"><ele>387.0</ele><time>2026-04-05T09:20:41.589Z</time></trkpt><trkpt lat="43.8110733" lon="12.24204"><ele>386.5</ele><time>2026-04-05T09:20:42.59Z</time></trkpt><trkpt lat="43.811335" lon="12.24216"><ele>386.0</ele><time>2026-04-05T09:20:43.59Z</time></trkpt><trkpt lat="43.811575" lon="12.2422667"><ele>386.66666666666663</ele><time>2026-04-05T09:20:44.59Z</time></trkpt><trkpt lat="43.8117883" lon="12.2423567"><ele>387.33333333333337</ele><time>2026-04-05T09:20:45.59Z</time></trkpt><trkpt lat="43.8119883" lon="12.2424067"><ele>388.0</ele><time>2026-04-05T09:20:46.589Z</time></trkpt><trkpt lat="43.8121867" lon="12.2423967"><ele>388.6666666666667</ele><time>2026-04-05T09:20:47.59Z</time></trkpt><trkpt lat="43.8123783" lon="12.2423217"><ele>389.33333333333337</ele><time>2026-04-05T09:20:48.589Z</time></trkpt><trkpt lat="43.812565" lon="12.2422133"><ele>390.0</ele><time>2026-04-05T09:20:49.59Z</time></trkpt><trkpt lat="43.812725" lon="12.2420817"><ele>388.66666666666663</ele><time>2026-04-05T09:20:50.59Z</time></trkpt><trkpt lat="43.8128867" lon="12.2419683"><ele>387.3333333333333</ele><time>2026-04-05T09:20:51.59Z</time></trkpt><trkpt lat="43.8130533" lon="12.2418733"><ele>386.0</ele><time>2026-04-05T09:20:52.59Z</time></trkpt><trkpt lat="43.8132317" lon="12.24183"><ele>386.0</ele><time>2026-04-05T09:20:53.589Z</time></trkpt><trkpt lat="43.81342" lon="12.24182"><ele>386.0</ele><time>2026-04-05T09:20:54.59Z</time></trkpt><trkpt lat="43.8136133" lon="12.2418533"><ele>386.0</ele><time>2026-04-05T09:20:55.59Z</time></trkpt><trkpt lat="43.813815" lon="12.2419533"><ele>383.0</ele><time>2026-04-05T09:20:56.59Z</time></trkpt><trkpt lat="43.8140367" lon="12.2420983"><ele>380.0</ele><time>2026-04-05T09:20:57.59Z</time></trkpt><trkpt lat="43.8142767" lon="12.2422567"><ele>381.0</ele><time>2026-04-05T09:20:58.589Z</time></trkpt><trkpt lat="43.81453" lon="12.242415"><ele>382.0</ele><time>2026-04-05T09:20:59.59Z</time></trkpt><trkpt lat="43.8147983" lon="12.24258"><ele>382.0</ele><time>2026-04-05T09:21:00.589Z</time></trkpt><trkpt lat="43.815055" lon="12.2427483"><ele>382.0</ele><time>2026-04-05T09:21:01.59Z</time></trkpt><trkpt lat="43.815295" lon="12.2429067"><ele>383.0</ele><time>2026-04-05T09:21:02.589Z</time></trkpt><trkpt lat="43.8155283" lon="12.2430517"><ele>384.0</ele><time>2026-04-05T09:21:03.589Z</time></trkpt><trkpt lat="43.81575" lon="12.243195"><ele>384.0</ele><time>2026-04-05T09:21:04.59Z</time></trkpt><trkpt lat="43.8159667" lon="12.2433383"><ele>384.0</ele><time>2026-04-05T09:21:05.59Z</time></trkpt><trkpt lat="43.8161867" lon="12.2434767"><ele>380.0</ele><time>2026-04-05T09:21:06.59Z</time></trkpt><trkpt lat="43.8164117" lon="12.2436133"><ele>376.0</ele><time>2026-04-05T09:21:07.59Z</time></trkpt><trkpt lat="43.8166383" lon="12.243745"><ele>374.5</ele><time>2026-04-05T09:21:08.589Z</time></trkpt><trkpt lat="43.8168617" lon="12.2438917"><ele>373.0</ele><time>2026-04-05T09:21:09.59Z</time></trkpt><trkpt lat="43.8170717" lon="12.2440317"><ele>373.0</ele><time>2026-04-05T09:21:10.59Z</time></trkpt><trkpt lat="43.8172783" lon="12.2441717"><ele>373.0</ele><time>2026-04-05T09:21:11.589Z</time></trkpt><trkpt lat="43.8174833" lon="12.2443"><ele>370.66666666666663</ele><time>2026-04-05T09:21:12.589Z</time></trkpt><trkpt lat="43.8176767" lon="12.2444267"><ele>368.3333333333333</ele><time>2026-04-05T09:21:13.589Z</time></trkpt><trkpt lat="43.8178683" lon="12.2445467"><ele>366.0</ele><time>2026-04-05T09:21:14.59Z</time></trkpt><trkpt lat="43.8180467" lon="12.2446783"><ele>365.3333333333333</ele><time>2026-04-05T09:21:15.59Z</time></trkpt><trkpt lat="43.8182133" lon="12.2448183"><ele>364.66666666666663</ele><time>2026-04-05T09:21:16.589Z</time></trkpt><trkpt lat="43.8183633" lon="12.2449883"><ele>364.0</ele><time>2026-04-05T09:21:17.589Z</time></trkpt><trkpt lat="43.8185117" lon="12.2451683"><ele>364.0</ele><time>2026-04-05T09:21:18.59Z</time></trkpt><trkpt lat="43.818655" lon="12.2453683"><ele>364.0</ele><time>2026-04-05T09:21:19.59Z</time></trkpt><trkpt lat="43.81878" lon="12.2455767"><ele>364.0</ele><time>2026-04-05T09:21:20.589Z</time></trkpt><trkpt lat="43.8188933" lon="12.245795"><ele>365.3333333333333</ele><time>2026-04-05T09:21:21.59Z</time></trkpt><trkpt lat="43.818995" lon="12.2460067"><ele>366.6666666666667</ele><time>2026-04-05T09:21:22.589Z</time></trkpt><trkpt lat="43.8190933" lon="12.2462033"><ele>368.0</ele><time>2026-04-05T09:21:23.589Z</time></trkpt><trkpt lat="43.8191867" lon="12.246385"><ele>367.33333333333337</ele><time>2026-04-05T09:21:24.59Z</time></trkpt><trkpt lat="43.8192817" lon="12.2465633"><ele>366.6666666666667</ele><time>2026-04-05T09:21:25.59Z</time></trkpt><trkpt lat="43.8193683" lon="12.24675"><ele>366.0</ele><time>2026-04-05T09:21:26.589Z</time></trkpt><trkpt lat="43.8194583" lon="12.24693"><ele>365.6666666666667</ele><time>2026-04-05T09:21:27.589Z</time></trkpt><trkpt lat="43.8195467" lon="12.2471117"><ele>365.33333333333337</ele><time>2026-04-05T09:21:28.589Z</time></trkpt><trkpt lat="43.8196367" lon="12.247285"><ele>365.0</ele><time>2026-04-05T09:21:29.589Z</time></trkpt><trkpt lat="43.8197183" lon="12.2474417"><ele>365.0</ele><time>2026-04-05T09:21:30.589Z</time></trkpt><trkpt lat="43.8197917" lon="12.24759"><ele>365.0</ele><time>2026-04-05T09:21:31.59Z</time></trkpt><trkpt lat="43.8198633" lon="12.2477267"><ele>365.0</ele><time>2026-04-05T09:21:32.589Z</time></trkpt><trkpt lat="43.8199233" lon="12.2478517"><ele>365.0</ele><time>2026-04-05T09:21:33.59Z</time></trkpt><trkpt lat="43.819985" lon="12.2479667"><ele>365.0</ele><time>2026-04-05T09:21:34.59Z</time></trkpt><trkpt lat="43.8200667" lon="12.2480467"><ele>365.0</ele><time>2026-04-05T09:21:35.589Z</time></trkpt><trkpt lat="43.820165" lon="12.2480833"><ele>365.0</ele><time>2026-04-05T09:21:36.589Z</time></trkpt><trkpt lat="43.820275" lon="12.248075"><ele>365.0</ele><time>2026-04-05T09:21:37.59Z</time></trkpt><trkpt lat="43.8203983" lon="12.2480317"><ele>365.0</ele><time>2026-04-05T09:21:38.59Z</time></trkpt><trkpt lat="43.8205317" lon="12.247945"><ele>364.6666666666667</ele><time>2026-04-05T09:21:39.59Z</time></trkpt><trkpt lat="43.82067" lon="12.2478567"><ele>364.3333333333333</ele><time>2026-04-05T09:21:40.59Z</time></trkpt><trkpt lat="43.8208033" lon="12.2477683"><ele>364.0</ele><time>2026-04-05T09:21:41.589Z</time></trkpt><trkpt lat="43.82095" lon="12.2476917"><ele>365.0</ele><time>2026-04-05T09:21:42.59Z</time></trkpt><trkpt lat="43.821105" lon="12.2476183"><ele>366.0</ele><time>2026-04-05T09:21:43.59Z</time></trkpt><trkpt lat="43.82125" lon="12.2475383"><ele>367.0</ele><time>2026-04-05T09:21:44.59Z</time></trkpt><trkpt lat="43.821395" lon="12.2474717"><ele>367.0</ele><time>2026-04-05T09:21:45.59Z</time></trkpt><trkpt lat="43.82154" lon="12.24742"><ele>367.0</ele><time>2026-04-05T09:21:46.589Z</time></trkpt><trkpt lat="43.82168" lon="12.24738"><ele>367.0</ele><time>2026-04-05T09:21:47.589Z</time></trkpt><trkpt lat="43.8218283" lon="12.2473583"><ele>367.0</ele><time>2026-04-05T09:21:48.59Z</time></trkpt><trkpt lat="43.8219883" lon="12.2473567"><ele>365.3333333333333</ele><time>2026-04-05T09:21:49.589Z</time></trkpt><trkpt lat="43.82215" lon="12.24738"><ele>363.6666666666667</ele><time>2026-04-05T09:21:50.589Z</time></trkpt><trkpt lat="43.8223083" lon="12.24742"><ele>362.0</ele><time>2026-04-05T09:21:51.59Z</time></trkpt><trkpt lat="43.8224633" lon="12.2474567"><ele>362.0</ele><time>2026-04-05T09:21:52.59Z</time></trkpt><trkpt lat="43.82262" lon="12.247505"><ele>362.0</ele><time>2026-04-05T09:21:53.59Z</time></trkpt><trkpt lat="43.822765" lon="12.2475383"><ele>362.0</ele><time>2026-04-05T09:21:54.59Z</time></trkpt><trkpt lat="43.8229083" lon="12.2475683"><ele>360.25</ele><time>2026-04-05T09:21:55.589Z</time></trkpt><trkpt lat="43.8230533" lon="12.2476017"><ele>358.5</ele><time>2026-04-05T09:21:56.589Z</time></trkpt><trkpt lat="43.8232017" lon="12.2476333"><ele>356.75</ele><time>2026-04-05T09:21:57.59Z</time></trkpt><trkpt lat="43.8233467" lon="12.2476683"><ele>355.0</ele><time>2026-04-05T09:21:58.59Z</time></trkpt><trkpt lat="43.8234933" lon="12.2477133"><ele>354.0</ele><time>2026-04-05T09:21:59.59Z</time></trkpt><trkpt lat="43.8236317" lon="12.247765"><ele>353.0</ele><time>2026-04-05T09:22:00.59Z</time></trkpt><trkpt lat="43.8237667" lon="12.2478467"><ele>352.0</ele><time>2026-04-05T09:22:01.59Z</time></trkpt><trkpt lat="43.8238967" lon="12.2479483"><ele>351.0</ele><time>2026-04-05T09:22:02.59Z</time></trkpt><trkpt lat="43.824025" lon="12.2480517"><ele>351.6666666666667</ele><time>2026-04-05T09:22:03.59Z</time></trkpt><trkpt lat="43.8241467" lon="12.2481683"><ele>352.33333333333337</ele><time>2026-04-05T09:22:04.589Z</time></trkpt><trkpt lat="43.82426" lon="12.2483117"><ele>353.0</ele><time>2026-04-05T09:22:05.589Z</time></trkpt><trkpt lat="43.824365" lon="12.24847"><ele>349.33333333333337</ele><time>2026-04-05T09:22:06.589Z</time></trkpt><trkpt lat="43.824465" lon="12.2486433"><ele>345.6666666666667</ele><time>2026-04-05T09:22:07.59Z</time></trkpt><trkpt lat="43.8245667" lon="12.2488283"><ele>342.0</ele><time>2026-04-05T09:22:08.589Z</time></trkpt><trkpt lat="43.8246683" lon="12.249025"><ele>342.0</ele><time>2026-04-05T09:22:09.59Z</time></trkpt><trkpt lat="43.82477" lon="12.24922"><ele>342.0</ele><time>2026-04-05T09:22:10.59Z</time></trkpt><trkpt lat="43.8248733" lon="12.2494217"><ele>342.0</ele><time>2026-04-05T09:22:11.59Z</time></trkpt><trkpt lat="43.82498" lon="12.2496233"><ele>341.6666666666667</ele><time>2026-04-05T09:22:12.589Z</time></trkpt><trkpt lat="43.82509" lon="12.24983"><ele>341.33333333333337</ele><time>2026-04-05T09:22:13.589Z</time></trkpt><trkpt lat="43.8252083" lon="12.250045"><ele>341.0</ele><time>2026-04-05T09:22:14.59Z</time></trkpt><trkpt lat="43.8253267" lon="12.2502717"><ele>338.6666666666667</ele><time>2026-04-05T09:22:15.589Z</time></trkpt><trkpt lat="43.8254483" lon="12.2505117"><ele>336.3333333333333</ele><time>2026-04-05T09:22:16.59Z</time></trkpt><trkpt lat="43.82558" lon="12.2507567"><ele>334.0</ele><time>2026-04-05T09:22:17.59Z</time></trkpt><trkpt lat="43.82572" lon="12.25101"><ele>334.0</ele><time>2026-04-05T09:22:18.589Z</time></trkpt><trkpt lat="43.825855" lon="12.2512733"><ele>334.0</ele><time>2026-04-05T09:22:19.589Z</time></trkpt><trkpt lat="43.82599" lon="12.2515383"><ele>331.5</ele><time>2026-04-05T09:22:20.589Z</time></trkpt><trkpt lat="43.8261317" lon="12.2518083"><ele>329.0</ele><time>2026-04-05T09:22:21.589Z</time></trkpt><trkpt lat="43.82627" lon="12.2520783"><ele>330.5</ele><time>2026-04-05T09:22:22.59Z</time></trkpt><trkpt lat="43.8264117" lon="12.2523533"><ele>332.0</ele><time>2026-04-05T09:22:23.589Z</time></trkpt><trkpt lat="43.826555" lon="12.2526417"><ele>332.0</ele><time>2026-04-05T09:22:24.59Z</time></trkpt><trkpt lat="43.8267067" lon="12.25293"><ele>332.0</ele><time>2026-04-05T09:22:25.59Z</time></trkpt><trkpt lat="43.8268583" lon="12.253215"><ele>329.5</ele><time>2026-04-05T09:22:26.59Z</time></trkpt><trkpt lat="43.8270117" lon="12.25351"><ele>327.0</ele><time>2026-04-05T09:22:27.59Z</time></trkpt><trkpt lat="43.827165" lon="12.25381"><ele>328.5</ele><time>2026-04-05T09:22:28.589Z</time></trkpt><trkpt lat="43.8273183" lon="12.2541033"><ele>330.0</ele><time>2026-04-05T09:22:29.59Z</time></trkpt><trkpt lat="43.8274767" lon="12.2544"><ele>330.0</ele><time>2026-04-05T09:22:30.59Z</time></trkpt><trkpt lat="43.8276333" lon="12.2547033"><ele>330.0</ele><time>2026-04-05T09:22:31.589Z</time></trkpt><trkpt lat="43.8277933" lon="12.25501"><ele>329.5</ele><time>2026-04-05T09:22:32.589Z</time></trkpt><trkpt lat="43.827945" lon="12.2553117"><ele>329.0</ele><time>2026-04-05T09:22:33.59Z</time></trkpt><trkpt lat="43.8280883" lon="12.255595"><ele>332.5</ele><time>2026-04-05T09:22:34.59Z</time></trkpt><trkpt lat="43.8282317" lon="12.2558717"><ele>336.0</ele><time>2026-04-05T09:22:35.59Z</time></trkpt><trkpt lat="43.8283733" lon="12.256145"><ele>335.5</ele><time>2026-04-05T09:22:36.589Z</time></trkpt><trkpt lat="43.828515" lon="12.2564133"><ele>335.0</ele><time>2026-04-05T09:22:37.59Z</time></trkpt><trkpt lat="43.8286617" lon="12.25668"><ele>335.0</ele><time>2026-04-05T09:22:38.59Z</time></trkpt><trkpt lat="43.8288017" lon="12.2569483"><ele>335.0</ele><time>2026-04-05T09:22:39.59Z</time></trkpt><trkpt lat="43.8289483" lon="12.257215"><ele>338.5</ele><time>2026-04-05T09:22:40.59Z</time></trkpt><trkpt lat="43.82909" lon="12.25747"><ele>342.0</ele><time>2026-04-05T09:22:41.59Z</time></trkpt><trkpt lat="43.8292233" lon="12.2577283"><ele>339.5</ele><time>2026-04-05T09:22:42.59Z</time></trkpt><trkpt lat="43.8293533" lon="12.2580017"><ele>337.0</ele><time>2026-04-05T09:22:43.59Z</time></trkpt><trkpt lat="43.8294717" lon="12.258285"><ele>337.0</ele><time>2026-04-05T09:22:44.59Z</time></trkpt><trkpt lat="43.829575" lon="12.2585833"><ele>337.0</ele><time>2026-04-05T09:22:45.59Z</time></trkpt><trkpt lat="43.8296617" lon="12.2589083"><ele>337.0</ele><time>2026-04-05T09:22:46.59Z</time></trkpt><trkpt lat="43.8297417" lon="12.2592367"><ele>337.0</ele><time>2026-04-05T09:22:47.589Z</time></trkpt><trkpt lat="43.8298083" lon="12.2595583"><ele>338.5</ele><time>2026-04-05T09:22:48.59Z</time></trkpt><trkpt lat="43.82987" lon="12.25988"><ele>340.0</ele><time>2026-04-05T09:22:49.589Z</time></trkpt><trkpt lat="43.8299167" lon="12.2602133"><ele>340.0</ele><time>2026-04-05T09:22:50.589Z</time></trkpt><trkpt lat="43.8299483" lon="12.2605333"><ele>340.0</ele><time>2026-04-05T09:22:51.59Z</time></trkpt><trkpt lat="43.829965" lon="12.26083"><ele>340.0</ele><time>2026-04-05T09:22:52.589Z</time></trkpt><trkpt lat="43.82998" lon="12.2611067"><ele>341.66666666666663</ele><time>2026-04-05T09:22:53.59Z</time></trkpt><trkpt lat="43.8299983" lon="12.2613767"><ele>343.3333333333333</ele><time>2026-04-05T09:22:54.59Z</time></trkpt><trkpt lat="43.8300467" lon="12.26164"><ele>345.0</ele><time>2026-04-05T09:22:55.59Z</time></trkpt><trkpt lat="43.83013" lon="12.261875"><ele>344.3333333333333</ele><time>2026-04-05T09:22:56.59Z</time></trkpt><trkpt lat="43.8302517" lon="12.262065"><ele>343.66666666666663</ele><time>2026-04-05T09:22:57.59Z</time></trkpt><trkpt lat="43.830405" lon="12.2622117"><ele>343.0</ele><time>2026-04-05T09:22:58.589Z</time></trkpt><trkpt lat="43.83059" lon="12.26229"><ele>345.3333333333333</ele><time>2026-04-05T09:22:59.59Z</time></trkpt><trkpt lat="43.8307833" lon="12.2623"><ele>347.6666666666667</ele><time>2026-04-05T09:23:00.589Z</time></trkpt><trkpt lat="43.8309883" lon="12.2622533"><ele>350.0</ele><time>2026-04-05T09:23:01.59Z</time></trkpt><trkpt lat="43.8312117" lon="12.2621583"><ele>350.0</ele><time>2026-04-05T09:23:02.59Z</time></trkpt><trkpt lat="43.8314417" lon="12.26205"><ele>350.0</ele><time>2026-04-05T09:23:03.589Z</time></trkpt><trkpt lat="43.8316533" lon="12.261965"><ele>350.6666666666667</ele><time>2026-04-05T09:23:04.59Z</time></trkpt><trkpt lat="43.8318433" lon="12.2618817"><ele>351.3333333333333</ele><time>2026-04-05T09:23:05.589Z</time></trkpt><trkpt lat="43.8320267" lon="12.2618067"><ele>352.0</ele><time>2026-04-05T09:23:06.59Z</time></trkpt><trkpt lat="43.83223" lon="12.2617583"><ele>352.0</ele><time>2026-04-05T09:23:07.59Z</time></trkpt><trkpt lat="43.83243" lon="12.261755"><ele>352.0</ele><time>2026-04-05T09:23:08.589Z</time></trkpt><trkpt lat="43.83264" lon="12.2617683"><ele>352.0</ele><time>2026-04-05T09:23:09.59Z</time></trkpt><trkpt lat="43.832855" lon="12.2617983"><ele>352.5</ele><time>2026-04-05T09:23:10.59Z</time></trkpt><trkpt lat="43.8330717" lon="12.2618467"><ele>353.0</ele><time>2026-04-05T09:23:11.589Z</time></trkpt><trkpt lat="43.8333017" lon="12.261895"><ele>353.0</ele><time>2026-04-05T09:23:12.589Z</time></trkpt><trkpt lat="43.83353" lon="12.261945"><ele>353.0</ele><time>2026-04-05T09:23:13.589Z</time></trkpt><trkpt lat="43.833755" lon="12.261985"><ele>353.0</ele><time>2026-04-05T09:23:14.59Z</time></trkpt><trkpt lat="43.8339717" lon="12.26203"><ele>353.0</ele><time>2026-04-05T09:23:15.59Z</time></trkpt><trkpt lat="43.83418" lon="12.26208"><ele>353.0</ele><time>2026-04-05T09:23:16.589Z</time></trkpt><trkpt lat="43.8343967" lon="12.2621267"><ele>352.6666666666667</ele><time>2026-04-05T09:23:17.59Z</time></trkpt><trkpt lat="43.83461" lon="12.26218"><ele>352.3333333333333</ele><time>2026-04-05T09:23:18.589Z</time></trkpt><trkpt lat="43.8348267" lon="12.2622167"><ele>352.0</ele><time>2026-04-05T09:23:19.59Z</time></trkpt><trkpt lat="43.83505" lon="12.2622217"><ele>354.5</ele><time>2026-04-05T09:23:20.589Z</time></trkpt><trkpt lat="43.8352767" lon="12.26219"><ele>357.0</ele><time>2026-04-05T09:23:21.59Z</time></trkpt><trkpt lat="43.835495" lon="12.262125"><ele>357.0</ele><time>2026-04-05T09:23:22.59Z</time></trkpt><trkpt lat="43.835705" lon="12.2620783"><ele>357.0</ele><time>2026-04-05T09:23:23.589Z</time></trkpt><trkpt lat="43.8359283" lon="12.2620617"><ele>357.0</ele><time>2026-04-05T09:23:24.59Z</time></trkpt><trkpt lat="43.8361533" lon="12.2620683"><ele>354.5</ele><time>2026-04-05T09:23:25.59Z</time></trkpt><trkpt lat="43.8363817" lon="12.26211"><ele>352.0</ele><time>2026-04-05T09:23:26.59Z</time></trkpt><trkpt lat="43.8366033" lon="12.262185"><ele>352.5</ele><time>2026-04-05T09:23:27.59Z</time></trkpt><trkpt lat="43.83682" lon="12.2622933"><ele>353.0</ele><time>2026-04-05T09:23:28.59Z</time></trkpt><trkpt lat="43.8370333" lon="12.2624333"><ele>353.0</ele><time>2026-04-05T09:23:29.589Z</time></trkpt><trkpt lat="43.837235" lon="12.26261"><ele>353.0</ele><time>2026-04-05T09:23:30.59Z</time></trkpt><trkpt lat="43.8374333" lon="12.2628183"><ele>353.0</ele><time>2026-04-05T09:23:31.59Z</time></trkpt><trkpt lat="43.8376183" lon="12.2630667"><ele>353.0</ele><time>2026-04-05T09:23:32.59Z</time></trkpt><trkpt lat="43.8378" lon="12.263335"><ele>353.0</ele><time>2026-04-05T09:23:33.59Z</time></trkpt><trkpt lat="43.8379867" lon="12.2636067"><ele>353.0</ele><time>2026-04-05T09:23:34.59Z</time></trkpt><trkpt lat="43.8381733" lon="12.2638883"><ele>354.0</ele><time>2026-04-05T09:23:35.59Z</time></trkpt><trkpt lat="43.83837" lon="12.2641717"><ele>355.0</ele><time>2026-04-05T09:23:36.59Z</time></trkpt><trkpt lat="43.8385733" lon="12.2644667"><ele>352.5</ele><time>2026-04-05T09:23:37.589Z</time></trkpt><trkpt lat="43.838775" lon="12.2647567"><ele>350.0</ele><time>2026-04-05T09:23:38.59Z</time></trkpt><trkpt lat="43.8389717" lon="12.265045"><ele>350.0</ele><time>2026-04-05T09:23:39.59Z</time></trkpt><trkpt lat="43.8391617" lon="12.26532"><ele>350.0</ele><time>2026-04-05T09:23:40.589Z</time></trkpt><trkpt lat="43.83934" lon="12.2655883"><ele>347.5</ele><time>2026-04-05T09:23:41.589Z</time></trkpt><trkpt lat="43.8395133" lon="12.2658383"><ele>345.0</ele><time>2026-04-05T09:23:42.589Z</time></trkpt><trkpt lat="43.839685" lon="12.266085"><ele>345.0</ele><time>2026-04-05T09:23:43.59Z</time></trkpt><trkpt lat="43.8398467" lon="12.2663217"><ele>345.0</ele><time>2026-04-05T09:23:44.59Z</time></trkpt><trkpt lat="43.8400017" lon="12.26655"><ele>343.0</ele><time>2026-04-05T09:23:45.59Z</time></trkpt><trkpt lat="43.8401483" lon="12.2667583"><ele>341.0</ele><time>2026-04-05T09:23:46.589Z</time></trkpt><trkpt lat="43.8402917" lon="12.2669583"><ele>339.0</ele><time>2026-04-05T09:23:47.59Z</time></trkpt><trkpt lat="43.8404067" lon="12.2671583"><ele>342.0</ele><time>2026-04-05T09:23:48.59Z</time></trkpt><trkpt lat="43.8405083" lon="12.2673883"><ele>345.0</ele><time>2026-04-05T09:23:49.59Z</time></trkpt><trkpt lat="43.8405967" lon="12.2676367"><ele>348.0</ele><time>2026-04-05T09:23:50.59Z</time></trkpt><trkpt lat="43.8406833" lon="12.2678883"><ele>350.6666666666667</ele><time>2026-04-05T09:23:51.59Z</time></trkpt><trkpt lat="43.8407617" lon="12.2681217"><ele>353.33333333333337</ele><time>2026-04-05T09:23:52.589Z</time></trkpt><trkpt lat="43.8408383" lon="12.2683433"><ele>356.0</ele><time>2026-04-05T09:23:53.59Z</time></trkpt><trkpt lat="43.8409267" lon="12.2685317"><ele>352.6666666666667</ele><time>2026-04-05T09:23:54.59Z</time></trkpt><trkpt lat="43.8410383" lon="12.2686967"><ele>349.3333333333333</ele><time>2026-04-05T09:23:55.59Z</time></trkpt><trkpt lat="43.841185" lon="12.2688283"><ele>346.0</ele><time>2026-04-05T09:23:56.589Z</time></trkpt><trkpt lat="43.8413633" lon="12.2689067"><ele>346.0</ele><time>2026-04-05T09:23:57.59Z</time></trkpt><trkpt lat="43.8415533" lon="12.2689217"><ele>346.0</ele><time>2026-04-05T09:23:58.589Z</time></trkpt><trkpt lat="43.8417417" lon="12.26889"><ele>346.0</ele><time>2026-04-05T09:23:59.589Z</time></trkpt><trkpt lat="43.84193" lon="12.26882"><ele>344.66666666666663</ele><time>2026-04-05T09:24:00.59Z</time></trkpt><trkpt lat="43.8420967" lon="12.2687467"><ele>343.3333333333333</ele><time>2026-04-05T09:24:01.59Z</time></trkpt><trkpt lat="43.8422533" lon="12.2686717"><ele>342.0</ele><time>2026-04-05T09:24:02.59Z</time></trkpt><trkpt lat="43.8423983" lon="12.2686367"><ele>342.0</ele><time>2026-04-05T09:24:03.589Z</time></trkpt><trkpt lat="43.8425467" lon="12.2686533"><ele>342.0</ele><time>2026-04-05T09:24:04.59Z</time></trkpt><trkpt lat="43.84268" lon="12.2687333"><ele>342.0</ele><time>2026-04-05T09:24:05.59Z</time></trkpt><trkpt lat="43.8427967" lon="12.26886"><ele>342.0</ele><time>2026-04-05T09:24:06.59Z</time></trkpt><trkpt lat="43.8428883" lon="12.2690233"><ele>337.0</ele><time>2026-04-05T09:24:07.59Z</time></trkpt><trkpt lat="43.8429367" lon="12.2692267"><ele>332.0</ele><time>2026-04-05T09:24:08.589Z</time></trkpt><trkpt lat="43.84295" lon="12.2694517"><ele>327.0</ele><time>2026-04-05T09:24:09.59Z</time></trkpt><trkpt lat="43.8429267" lon="12.2696783"><ele>328.6666666666667</ele><time>2026-04-05T09:24:10.589Z</time></trkpt><trkpt lat="43.8428683" lon="12.2699033"><ele>330.33333333333337</ele><time>2026-04-05T09:24:11.589Z</time></trkpt><trkpt lat="43.8427617" lon="12.270125"><ele>332.0</ele><time>2026-04-05T09:24:12.589Z</time></trkpt><trkpt lat="43.8426433" lon="12.2703367"><ele>340.6666666666667</ele><time>2026-04-05T09:24:13.59Z</time></trkpt><trkpt lat="43.84252" lon="12.2705317"><ele>349.3333333333333</ele><time>2026-04-05T09:24:14.589Z</time></trkpt><trkpt lat="43.8424083" lon="12.2707183"><ele>358.0</ele><time>2026-04-05T09:24:15.59Z</time></trkpt><trkpt lat="43.8423117" lon="12.27094"><ele>358.0</ele><time>2026-04-05T09:24:16.59Z</time></trkpt><trkpt lat="43.8422417" lon="12.2712"><ele>358.0</ele><time>2026-04-05T09:24:17.59Z</time></trkpt><trkpt lat="43.8422033" lon="12.2715033"><ele>358.0</ele><time>2026-04-05T09:24:18.589Z</time></trkpt><trkpt lat="43.8421717" lon="12.2718217"><ele>353.5</ele><time>2026-04-05T09:24:19.59Z</time></trkpt><trkpt lat="43.8421333" lon="12.2721383"><ele>349.0</ele><time>2026-04-05T09:24:20.589Z</time></trkpt><trkpt lat="43.8420967" lon="12.2724367"><ele>348.3333333333333</ele><time>2026-04-05T09:24:21.59Z</time></trkpt><trkpt lat="43.8420617" lon="12.2727267"><ele>347.6666666666667</ele><time>2026-04-05T09:24:22.589Z</time></trkpt><trkpt lat="43.84203" lon="12.2730067"><ele>347.0</ele><time>2026-04-05T09:24:23.589Z</time></trkpt><trkpt lat="43.8420017" lon="12.273265"><ele>347.0</ele><time>2026-04-05T09:24:24.589Z</time></trkpt><trkpt lat="43.8419867" lon="12.2735017"><ele>347.0</ele><time>2026-04-05T09:24:25.589Z</time></trkpt><trkpt lat="43.842005" lon="12.273725"><ele>347.0</ele><time>2026-04-05T09:24:26.589Z</time></trkpt><trkpt lat="43.8420617" lon="12.2739417"><ele>348.33333333333337</ele><time>2026-04-05T09:24:27.59Z</time></trkpt><trkpt lat="43.8421517" lon="12.274155"><ele>349.6666666666667</ele><time>2026-04-05T09:24:28.59Z</time></trkpt><trkpt lat="43.8422667" lon="12.2743633"><ele>351.0</ele><time>2026-04-05T09:24:29.59Z</time></trkpt><trkpt lat="43.8423967" lon="12.2745567"><ele>351.0</ele><time>2026-04-05T09:24:30.589Z</time></trkpt><trkpt lat="43.84254" lon="12.27475"><ele>351.0</ele><time>2026-04-05T09:24:31.589Z</time></trkpt><trkpt lat="43.8426867" lon="12.2749417"><ele>351.0</ele><time>2026-04-05T09:24:32.589Z</time></trkpt><trkpt lat="43.8428367" lon="12.2751233"><ele>351.3333333333333</ele><time>2026-04-05T09:24:33.59Z</time></trkpt><trkpt lat="43.84298" lon="12.2753183"><ele>351.66666666666663</ele><time>2026-04-05T09:24:34.59Z</time></trkpt><trkpt lat="43.843115" lon="12.2755067"><ele>352.0</ele><time>2026-04-05T09:24:35.589Z</time></trkpt><trkpt lat="43.8432533" lon="12.2756917"><ele>352.0</ele><time>2026-04-05T09:24:36.589Z</time></trkpt><trkpt lat="43.8434067" lon="12.2758683"><ele>352.0</ele><time>2026-04-05T09:24:37.589Z</time></trkpt><trkpt lat="43.843585" lon="12.2760067"><ele>352.0</ele><time>2026-04-05T09:24:38.59Z</time></trkpt><trkpt lat="43.8437933" lon="12.276105"><ele>350.66666666666663</ele><time>2026-04-05T09:24:39.589Z</time></trkpt><trkpt lat="43.843995" lon="12.2761867"><ele>349.3333333333333</ele><time>2026-04-05T09:24:40.59Z</time></trkpt><trkpt lat="43.8441867" lon="12.276255"><ele>348.0</ele><time>2026-04-05T09:24:41.59Z</time></trkpt><trkpt lat="43.8443717" lon="12.27632"><ele>347.3333333333333</ele><time>2026-04-05T09:24:42.59Z</time></trkpt><trkpt lat="43.8445317" lon="12.2764017"><ele>346.66666666666663</ele><time>2026-04-05T09:24:43.59Z</time></trkpt><trkpt lat="43.8446833" lon="12.2764983"><ele>346.0</ele><time>2026-04-05T09:24:44.59Z</time></trkpt><trkpt lat="43.8448283" lon="12.2766267"><ele>346.0</ele><time>2026-04-05T09:24:45.59Z</time></trkpt><trkpt lat="43.8449633" lon="12.2767817"><ele>346.0</ele><time>2026-04-05T09:24:46.59Z</time></trkpt><trkpt lat="43.8450817" lon="12.2769717"><ele>346.0</ele><time>2026-04-05T09:24:47.59Z</time></trkpt><trkpt lat="43.845185" lon="12.2772033"><ele>343.3333333333333</ele><time>2026-04-05T09:24:48.59Z</time></trkpt><trkpt lat="43.8452567" lon="12.2774417"><ele>340.6666666666667</ele><time>2026-04-05T09:24:49.589Z</time></trkpt><trkpt lat="43.8453383" lon="12.2776683"><ele>338.0</ele><time>2026-04-05T09:24:50.59Z</time></trkpt><trkpt lat="43.8454317" lon="12.2778833"><ele>338.0</ele><time>2026-04-05T09:24:51.59Z</time></trkpt><trkpt lat="43.845555" lon="12.27807"><ele>338.0</ele><time>2026-04-05T09:24:52.59Z</time></trkpt><trkpt lat="43.845695" lon="12.27821"><ele>338.0</ele><time>2026-04-05T09:24:53.589Z</time></trkpt><trkpt lat="43.8458683" lon="12.2782833"><ele>340.0</ele><time>2026-04-05T09:24:54.59Z</time></trkpt><trkpt lat="43.8460633" lon="12.27831"><ele>342.0</ele><time>2026-04-05T09:24:55.59Z</time></trkpt><trkpt lat="43.8462633" lon="12.2783017"><ele>344.0</ele><time>2026-04-05T09:24:56.589Z</time></trkpt><trkpt lat="43.8464733" lon="12.2782867"><ele>344.0</ele><time>2026-04-05T09:24:57.59Z</time></trkpt><trkpt lat="43.8467017" lon="12.278275"><ele>344.0</ele><time>2026-04-05T09:24:58.589Z</time></trkpt><trkpt lat="43.846925" lon="12.2782517"><ele>345.0</ele><time>2026-04-05T09:24:59.59Z</time></trkpt><trkpt lat="43.8471333" lon="12.2782167"><ele>346.0</ele><time>2026-04-05T09:25:00.59Z</time></trkpt><trkpt lat="43.8473333" lon="12.2781483"><ele>347.0</ele><time>2026-04-05T09:25:01.59Z</time></trkpt><trkpt lat="43.8475333" lon="12.2780117"><ele>345.5</ele><time>2026-04-05T09:25:02.59Z</time></trkpt><trkpt lat="43.8477217" lon="12.2778117"><ele>344.0</ele><time>2026-04-05T09:25:03.59Z</time></trkpt><trkpt lat="43.847885" lon="12.2775933"><ele>344.0</ele><time>2026-04-05T09:25:04.59Z</time></trkpt><trkpt lat="43.848045" lon="12.2773983"><ele>344.0</ele><time>2026-04-05T09:25:05.589Z</time></trkpt><trkpt lat="43.8482067" lon="12.277225"><ele>344.0</ele><time>2026-04-05T09:25:06.589Z</time></trkpt><trkpt lat="43.8483817" lon="12.2771017"><ele>339.0</ele><time>2026-04-05T09:25:07.59Z</time></trkpt><trkpt lat="43.8485683" lon="12.277025"><ele>334.0</ele><time>2026-04-05T09:25:08.59Z</time></trkpt><trkpt lat="43.8487867" lon="12.2770033"><ele>329.0</ele><time>2026-04-05T09:25:09.59Z</time></trkpt><trkpt lat="43.8490233" lon="12.2770083"><ele>329.0</ele><time>2026-04-05T09:25:10.589Z</time></trkpt><trkpt lat="43.8492583" lon="12.27701"><ele>329.0</ele><time>2026-04-05T09:25:11.589Z</time></trkpt><trkpt lat="43.84948" lon="12.2770233"><ele>331.33333333333337</ele><time>2026-04-05T09:25:12.589Z</time></trkpt><trkpt lat="43.8496917" lon="12.2770367"><ele>333.6666666666667</ele><time>2026-04-05T09:25:13.59Z</time></trkpt><trkpt lat="43.8498983" lon="12.277025"><ele>336.0</ele><time>2026-04-05T09:25:14.59Z</time></trkpt><trkpt lat="43.8501017" lon="12.2769467"><ele>339.0</ele><time>2026-04-05T09:25:15.59Z</time></trkpt><trkpt lat="43.8503167" lon="12.27681"><ele>342.0</ele><time>2026-04-05T09:25:16.589Z</time></trkpt><trkpt lat="43.8505283" lon="12.2766333"><ele>342.0</ele><time>2026-04-05T09:25:17.589Z</time></trkpt><trkpt lat="43.8507367" lon="12.2764667"><ele>342.0</ele><time>2026-04-05T09:25:18.59Z</time></trkpt><trkpt lat="43.85093" lon="12.27632"><ele>340.0</ele><time>2026-04-05T09:25:19.59Z</time></trkpt><trkpt lat="43.8511167" lon="12.2761883"><ele>338.0</ele><time>2026-04-05T09:25:20.59Z</time></trkpt><trkpt lat="43.8512917" lon="12.27607"><ele>336.0</ele><time>2026-04-05T09:25:21.59Z</time></trkpt><trkpt lat="43.851455" lon="12.2759617"><ele>336.0</ele><time>2026-04-05T09:25:22.59Z</time></trkpt><trkpt lat="43.8516117" lon="12.2758917"><ele>336.0</ele><time>2026-04-05T09:25:23.59Z</time></trkpt><trkpt lat="43.851775" lon="12.2758733"><ele>336.0</ele><time>2026-04-05T09:25:24.589Z</time></trkpt><trkpt lat="43.8519467" lon="12.27592"><ele>333.0</ele><time>2026-04-05T09:25:25.59Z</time></trkpt><trkpt lat="43.8521217" lon="12.2760317"><ele>330.0</ele><time>2026-04-05T09:25:26.59Z</time></trkpt><trkpt lat="43.8523117" lon="12.27621"><ele>327.0</ele><time>2026-04-05T09:25:27.59Z</time></trkpt><trkpt lat="43.8525083" lon="12.2763883"><ele>327.5</ele><time>2026-04-05T09:25:28.59Z</time></trkpt><trkpt lat="43.8527333" lon="12.276595"><ele>328.0</ele><time>2026-04-05T09:25:29.589Z</time></trkpt><trkpt lat="43.8529633" lon="12.2768017"><ele>328.0</ele><time>2026-04-05T09:25:30.59Z</time></trkpt><trkpt lat="43.8532" lon="12.2770067"><ele>328.0</ele><time>2026-04-05T09:25:31.59Z</time></trkpt><trkpt lat="43.8534267" lon="12.2772017"><ele>327.0</ele><time>2026-04-05T09:25:32.59Z</time></trkpt><trkpt lat="43.8536433" lon="12.2773883"><ele>326.0</ele><time>2026-04-05T09:25:33.589Z</time></trkpt><trkpt lat="43.8538417" lon="12.2775617"><ele>326.0</ele><time>2026-04-05T09:25:34.59Z</time></trkpt><trkpt lat="43.854025" lon="12.277725"><ele>326.0</ele><time>2026-04-05T09:25:35.59Z</time></trkpt><trkpt lat="43.85419" lon="12.2778767"><ele>326.0</ele><time>2026-04-05T09:25:36.59Z</time></trkpt><trkpt lat="43.8543233" lon="12.2780067"><ele>325.0</ele><time>2026-04-05T09:25:37.589Z</time></trkpt><trkpt lat="43.8544283" lon="12.2781517"><ele>324.0</ele><time>2026-04-05T09:25:38.59Z</time></trkpt><trkpt lat="43.8545183" lon="12.2783167"><ele>323.0</ele><time>2026-04-05T09:25:39.589Z</time></trkpt><trkpt lat="43.8545783" lon="12.2785183"><ele>323.0</ele><time>2026-04-05T09:25:40.589Z</time></trkpt><trkpt lat="43.8546067" lon="12.2787217"><ele>323.0</ele><time>2026-04-05T09:25:41.59Z</time></trkpt><trkpt lat="43.854625" lon="12.2789167"><ele>323.0</ele><time>2026-04-05T09:25:42.589Z</time></trkpt><trkpt lat="43.8546367" lon="12.2790933"><ele>323.0</ele><time>2026-04-05T09:25:43.59Z</time></trkpt><trkpt lat="43.854635" lon="12.2792517"><ele>323.0</ele><time>2026-04-05T09:25:44.59Z</time></trkpt><trkpt lat="43.8546133" lon="12.2794017"><ele>323.0</ele><time>2026-04-05T09:25:45.59Z</time></trkpt><trkpt lat="43.854575" lon="12.2795417"><ele>323.0</ele><time>2026-04-05T09:25:46.59Z</time></trkpt><trkpt lat="43.8545183" lon="12.2796767"><ele>323.0</ele><time>2026-04-05T09:25:47.59Z</time></trkpt><trkpt lat="43.85445" lon="12.279795"><ele>323.0</ele><time>2026-04-05T09:25:48.589Z</time></trkpt><trkpt lat="43.8543733" lon="12.279895"><ele>324.0</ele><time>2026-04-05T09:25:49.59Z</time></trkpt><trkpt lat="43.8542817" lon="12.2799867"><ele>325.0</ele><time>2026-04-05T09:25:50.589Z</time></trkpt><trkpt lat="43.8541917" lon="12.2800867"><ele>326.0</ele><time>2026-04-05T09:25:51.59Z</time></trkpt><trkpt lat="43.854105" lon="12.2802083"><ele>327.0</ele><time>2026-04-05T09:25:52.59Z</time></trkpt><trkpt lat="43.8540317" lon="12.280355"><ele>327.0</ele><time>2026-04-05T09:25:53.59Z</time></trkpt><trkpt lat="43.8539767" lon="12.2805333"><ele>327.0</ele><time>2026-04-05T09:25:54.59Z</time></trkpt><trkpt lat="43.8539367" lon="12.28074"><ele>327.0</ele><time>2026-04-05T09:25:55.589Z</time></trkpt><trkpt lat="43.8539017" lon="12.2809817"><ele>325.3333333333333</ele><time>2026-04-05T09:25:56.59Z</time></trkpt><trkpt lat="43.8538633" lon="12.281215"><ele>323.66666666666663</ele><time>2026-04-05T09:25:57.59Z</time></trkpt><trkpt lat="43.85384" lon="12.2814333"><ele>322.0</ele><time>2026-04-05T09:25:58.59Z</time></trkpt><trkpt lat="43.8538333" lon="12.2816317"><ele>322.0</ele><time>2026-04-05T09:25:59.59Z</time></trkpt><trkpt lat="43.8538767" lon="12.281825"><ele>322.0</ele><time>2026-04-05T09:26:00.59Z</time></trkpt><trkpt lat="43.853955" lon="12.2820133"><ele>322.0</ele><time>2026-04-05T09:26:01.59Z</time></trkpt><trkpt lat="43.8540583" lon="12.2821783"><ele>323.0</ele><time>2026-04-05T09:26:02.59Z</time></trkpt><trkpt lat="43.854165" lon="12.282305"><ele>324.0</ele><time>2026-04-05T09:26:03.59Z</time></trkpt><trkpt lat="43.8542867" lon="12.2823667"><ele>325.0</ele><time>2026-04-05T09:26:04.59Z</time></trkpt><trkpt lat="43.8544367" lon="12.28236"><ele>326.0</ele><time>2026-04-05T09:26:05.59Z</time></trkpt><trkpt lat="43.854605" lon="12.2823"><ele>327.6666666666667</ele><time>2026-04-05T09:26:06.589Z</time></trkpt><trkpt lat="43.8547783" lon="12.2821983"><ele>329.3333333333333</ele><time>2026-04-05T09:26:07.59Z</time></trkpt><trkpt lat="43.8549733" lon="12.2821167"><ele>331.0</ele><time>2026-04-05T09:26:08.589Z</time></trkpt><trkpt lat="43.855155" lon="12.2820717"><ele>331.0</ele><time>2026-04-05T09:26:09.59Z</time></trkpt><trkpt lat="43.8553233" lon="12.282045"><ele>331.0</ele><time>2026-04-05T09:26:10.59Z</time></trkpt><trkpt lat="43.8554817" lon="12.2820183"><ele>331.0</ele><time>2026-04-05T09:26:11.59Z</time></trkpt><trkpt lat="43.8556317" lon="12.2819733"><ele>331.0</ele><time>2026-04-05T09:26:12.589Z</time></trkpt><trkpt lat="43.8557783" lon="12.281905"><ele>331.0</ele><time>2026-04-05T09:26:13.59Z</time></trkpt><trkpt lat="43.855895" lon="12.2817817"><ele>331.0</ele><time>2026-04-05T09:26:14.589Z</time></trkpt><trkpt lat="43.85598" lon="12.2816"><ele>331.0</ele><time>2026-04-05T09:26:15.59Z</time></trkpt><trkpt lat="43.8560367" lon="12.281395"><ele>331.0</ele><time>2026-04-05T09:26:16.59Z</time></trkpt><trkpt lat="43.856075" lon="12.2811917"><ele>331.0</ele><time>2026-04-05T09:26:17.589Z</time></trkpt><trkpt lat="43.8561183" lon="12.28101"><ele>331.0</ele><time>2026-04-05T09:26:18.589Z</time></trkpt><trkpt lat="43.8561917" lon="12.28085"><ele>331.0</ele><time>2026-04-05T09:26:19.59Z</time></trkpt><trkpt lat="43.8563033" lon="12.2807283"><ele>331.0</ele><time>2026-04-05T09:26:20.59Z</time></trkpt><trkpt lat="43.8564533" lon="12.280645"><ele>331.0</ele><time>2026-04-05T09:26:21.59Z</time></trkpt><trkpt lat="43.8566217" lon="12.2805717"><ele>326.66666666666663</ele><time>2026-04-05T09:26:22.59Z</time></trkpt><trkpt lat="43.8568133" lon="12.2805033"><ele>322.3333333333333</ele><time>2026-04-05T09:26:23.59Z</time></trkpt><trkpt lat="43.8570133" lon="12.2804233"><ele>318.0</ele><time>2026-04-05T09:26:24.589Z</time></trkpt><trkpt lat="43.8572117" lon="12.28033"><ele>318.0</ele><time>2026-04-05T09:26:25.59Z</time></trkpt><trkpt lat="43.8574" lon="12.280235"><ele>318.0</ele><time>2026-04-05T09:26:26.59Z</time></trkpt><trkpt lat="43.8575783" lon="12.2801367"><ele>318.0</ele><time>2026-04-05T09:26:27.59Z</time></trkpt><trkpt lat="43.8577467" lon="12.280045"><ele>319.0</ele><time>2026-04-05T09:26:28.589Z</time></trkpt><trkpt lat="43.8579233" lon="12.2799733"><ele>320.0</ele><time>2026-04-05T09:26:29.59Z</time></trkpt><trkpt lat="43.858095" lon="12.2799333"><ele>321.0</ele><time>2026-04-05T09:26:30.59Z</time></trkpt><trkpt lat="43.8582667" lon="12.2799233"><ele>321.0</ele><time>2026-04-05T09:26:31.59Z</time></trkpt><trkpt lat="43.8584383" lon="12.2799733"><ele>321.0</ele><time>2026-04-05T09:26:32.589Z</time></trkpt><trkpt lat="43.858605" lon="12.280075"><ele>321.0</ele><time>2026-04-05T09:26:33.59Z</time></trkpt><trkpt lat="43.8587567" lon="12.2802267"><ele>321.3333333333333</ele><time>2026-04-05T09:26:34.59Z</time></trkpt><trkpt lat="43.8589017" lon="12.2804217"><ele>321.66666666666663</ele><time>2026-04-05T09:26:35.589Z</time></trkpt><trkpt lat="43.8590317" lon="12.28066"><ele>322.0</ele><time>2026-04-05T09:26:36.589Z</time></trkpt><trkpt lat="43.8591483" lon="12.28093"><ele>322.0</ele><time>2026-04-05T09:26:37.59Z</time></trkpt><trkpt lat="43.8592683" lon="12.28118"><ele>322.0</ele><time>2026-04-05T09:26:38.59Z</time></trkpt><trkpt lat="43.8593883" lon="12.2814267"><ele>322.0</ele><time>2026-04-05T09:26:39.59Z</time></trkpt><trkpt lat="43.859525" lon="12.28166"><ele>319.0</ele><time>2026-04-05T09:26:40.59Z</time></trkpt><trkpt lat="43.8596733" lon="12.2818717"><ele>316.0</ele><time>2026-04-05T09:26:41.589Z</time></trkpt><trkpt lat="43.8598317" lon="12.282065"><ele>313.0</ele><time>2026-04-05T09:26:42.59Z</time></trkpt><trkpt lat="43.8600033" lon="12.2822433"><ele>312.0</ele><time>2026-04-05T09:26:43.59Z</time></trkpt><trkpt lat="43.8601933" lon="12.2823983"><ele>311.0</ele><time>2026-04-05T09:26:44.59Z</time></trkpt><trkpt lat="43.860395" lon="12.28254"><ele>310.0</ele><time>2026-04-05T09:26:45.589Z</time></trkpt><trkpt lat="43.86059" lon="12.2826767"><ele>310.0</ele><time>2026-04-05T09:26:46.59Z</time></trkpt><trkpt lat="43.860785" lon="12.2828283"><ele>310.0</ele><time>2026-04-05T09:26:47.59Z</time></trkpt><trkpt lat="43.8609733" lon="12.283005"><ele>311.0</ele><time>2026-04-05T09:26:48.59Z</time></trkpt><trkpt lat="43.8611433" lon="12.2832"><ele>312.0</ele><time>2026-04-05T09:26:49.59Z</time></trkpt><trkpt lat="43.8612917" lon="12.28337"><ele>313.0</ele><time>2026-04-05T09:26:50.59Z</time></trkpt><trkpt lat="43.8614283" lon="12.2835233"><ele>313.0</ele><time>2026-04-05T09:26:51.589Z</time></trkpt><trkpt lat="43.861575" lon="12.2836333"><ele>313.0</ele><time>2026-04-05T09:26:52.589Z</time></trkpt><trkpt lat="43.8617367" lon="12.2836833"><ele>313.0</ele><time>2026-04-05T09:26:53.59Z</time></trkpt><trkpt lat="43.8619183" lon="12.28366"><ele>314.0</ele><time>2026-04-05T09:26:54.59Z</time></trkpt><trkpt lat="43.8620983" lon="12.28359"><ele>315.0</ele><time>2026-04-05T09:26:55.59Z</time></trkpt><trkpt lat="43.862275" lon="12.28347"><ele>316.0</ele><time>2026-04-05T09:26:56.59Z</time></trkpt><trkpt lat="43.8624333" lon="12.28334"><ele>316.0</ele><time>2026-04-05T09:26:57.59Z</time></trkpt><trkpt lat="43.862585" lon="12.2832333"><ele>316.0</ele><time>2026-04-05T09:26:58.59Z</time></trkpt><trkpt lat="43.8627417" lon="12.2831733"><ele>316.0</ele><time>2026-04-05T09:26:59.59Z</time></trkpt><trkpt lat="43.8628933" lon="12.28316"><ele>315.75</ele><time>2026-04-05T09:27:00.59Z</time></trkpt><trkpt lat="43.86303" lon="12.2831633"><ele>315.5</ele><time>2026-04-05T09:27:01.59Z</time></trkpt><trkpt lat="43.86316" lon="12.2832133"><ele>315.25</ele><time>2026-04-05T09:27:02.59Z</time></trkpt><trkpt lat="43.86329" lon="12.28333"><ele>315.0</ele><time>2026-04-05T09:27:03.589Z</time></trkpt><trkpt lat="43.8634133" lon="12.2834683"><ele>313.5</ele><time>2026-04-05T09:27:04.59Z</time></trkpt><trkpt lat="43.863525" lon="12.283595"><ele>312.0</ele><time>2026-04-05T09:27:05.589Z</time></trkpt><trkpt lat="43.8636167" lon="12.2837183"><ele>310.5</ele><time>2026-04-05T09:27:06.59Z</time></trkpt><trkpt lat="43.863725" lon="12.2837933"><ele>309.0</ele><time>2026-04-05T09:27:07.59Z</time></trkpt><trkpt lat="43.8638383" lon="12.283805"><ele>309.0</ele><time>2026-04-05T09:27:08.59Z</time></trkpt><trkpt lat="43.8639483" lon="12.2837583"><ele>309.0</ele><time>2026-04-05T09:27:09.59Z</time></trkpt><trkpt lat="43.8640367" lon="12.2836917"><ele>309.0</ele><time>2026-04-05T09:27:10.59Z</time></trkpt><trkpt lat="43.8641117" lon="12.283605"><ele>309.0</ele><time>2026-04-05T09:27:11.59Z</time></trkpt><trkpt lat="43.86419" lon="12.2835233"><ele>309.0</ele><time>2026-04-05T09:27:12.589Z</time></trkpt><trkpt lat="43.8642733" lon="12.2834583"><ele>306.5</ele><time>2026-04-05T09:27:13.589Z</time></trkpt><trkpt lat="43.864375" lon="12.2834033"><ele>304.0</ele><time>2026-04-05T09:27:14.59Z</time></trkpt><trkpt lat="43.8644833" lon="12.283375"><ele>301.5</ele><time>2026-04-05T09:27:15.59Z</time></trkpt><trkpt lat="43.8646" lon="12.2833767"><ele>299.0</ele><time>2026-04-05T09:27:16.59Z</time></trkpt><trkpt lat="43.8647133" lon="12.2834167"><ele>299.0</ele><time>2026-04-05T09:27:17.589Z</time></trkpt><trkpt lat="43.8648167" lon="12.2835133"><ele>299.0</ele><time>2026-04-05T09:27:18.59Z</time></trkpt><trkpt lat="43.864905" lon="12.2836083"><ele>299.0</ele><time>2026-04-05T09:27:19.589Z</time></trkpt><trkpt lat="43.8649917" lon="12.2837"><ele>299.0</ele><time>2026-04-05T09:27:20.59Z</time></trkpt><trkpt lat="43.8650933" lon="12.2837517"><ele>296.0</ele><time>2026-04-05T09:27:21.589Z</time></trkpt><trkpt lat="43.8652167" lon="12.28377"><ele>293.0</ele><time>2026-04-05T09:27:22.59Z</time></trkpt><trkpt lat="43.865375" lon="12.2837467"><ele>290.0</ele><time>2026-04-05T09:27:23.589Z</time></trkpt><trkpt lat="43.8655333" lon="12.2836733"><ele>290.0</ele><time>2026-04-05T09:27:24.59Z</time></trkpt><trkpt lat="43.86568" lon="12.2835983"><ele>290.0</ele><time>2026-04-05T09:27:25.589Z</time></trkpt><trkpt lat="43.8658217" lon="12.2835467"><ele>290.0</ele><time>2026-04-05T09:27:26.589Z</time></trkpt><trkpt lat="43.865975" lon="12.2835533"><ele>289.25</ele><time>2026-04-05T09:27:27.589Z</time></trkpt><trkpt lat="43.8661217" lon="12.2836233"><ele>288.5</ele><time>2026-04-05T09:27:28.589Z</time></trkpt><trkpt lat="43.8662433" lon="12.2837367"><ele>287.75</ele><time>2026-04-05T09:27:29.59Z</time></trkpt><trkpt lat="43.86635" lon="12.2838783"><ele>287.0</ele><time>2026-04-05T09:27:30.59Z</time></trkpt><trkpt lat="43.8664433" lon="12.2840367"><ele>287.0</ele><time>2026-04-05T09:27:31.59Z</time></trkpt><trkpt lat="43.8665333" lon="12.2841833"><ele>287.0</ele><time>2026-04-05T09:27:32.59Z</time></trkpt><trkpt lat="43.8666267" lon="12.2843217"><ele>287.0</ele><time>2026-04-05T09:27:33.59Z</time></trkpt><trkpt lat="43.8667117" lon="12.284455"><ele>287.0</ele><time>2026-04-05T09:27:34.59Z</time></trkpt><trkpt lat="43.866795" lon="12.2845933"><ele>286.5</ele><time>2026-04-05T09:27:35.589Z</time></trkpt><trkpt lat="43.86688" lon="12.2847317"><ele>286.0</ele><time>2026-04-05T09:27:36.59Z</time></trkpt><trkpt lat="43.866965" lon="12.2848617"><ele>285.5</ele><time>2026-04-05T09:27:37.59Z</time></trkpt><trkpt lat="43.8670517" lon="12.2849917"><ele>285.0</ele><time>2026-04-05T09:27:38.589Z</time></trkpt><trkpt lat="43.8671367" lon="12.2851083"><ele>285.0</ele><time>2026-04-05T09:27:39.59Z</time></trkpt><trkpt lat="43.8672417" lon="12.2851817"><ele>285.0</ele><time>2026-04-05T09:27:40.59Z</time></trkpt><trkpt lat="43.8673717" lon="12.2852083"><ele>285.0</ele><time>2026-04-05T09:27:41.59Z</time></trkpt><trkpt lat="43.8675" lon="12.2851883"><ele>285.0</ele><time>2026-04-05T09:27:42.59Z</time></trkpt><trkpt lat="43.867625" lon="12.2851217"><ele>283.0</ele><time>2026-04-05T09:27:43.589Z</time></trkpt><trkpt lat="43.8677517" lon="12.2850367"><ele>281.0</ele><time>2026-04-05T09:27:44.59Z</time></trkpt><trkpt lat="43.8678767" lon="12.2849417"><ele>279.0</ele><time>2026-04-05T09:27:45.59Z</time></trkpt><trkpt lat="43.867995" lon="12.2848567"><ele>277.0</ele><time>2026-04-05T09:27:46.59Z</time></trkpt><trkpt lat="43.8681083" lon="12.28477"><ele>277.5</ele><time>2026-04-05T09:27:47.59Z</time></trkpt><trkpt lat="43.8682317" lon="12.2846883"><ele>278.0</ele><time>2026-04-05T09:27:48.59Z</time></trkpt><trkpt lat="43.8683517" lon="12.2845967"><ele>278.5</ele><time>2026-04-05T09:27:49.59Z</time></trkpt><trkpt lat="43.8684733" lon="12.284505"><ele>279.0</ele><time>2026-04-05T09:27:50.59Z</time></trkpt><trkpt lat="43.8686" lon="12.284415"><ele>280.75</ele><time>2026-04-05T09:27:51.589Z</time></trkpt><trkpt lat="43.868725" lon="12.2843217"><ele>282.5</ele><time>2026-04-05T09:27:52.589Z</time></trkpt><trkpt lat="43.868855" lon="12.2842367"><ele>284.25</ele><time>2026-04-05T09:27:53.59Z</time></trkpt><trkpt lat="43.8689867" lon="12.2841683"><ele>286.0</ele><time>2026-04-05T09:27:54.589Z</time></trkpt><trkpt lat="43.8691233" lon="12.284115"><ele>286.0</ele><time>2026-04-05T09:27:55.59Z</time></trkpt><trkpt lat="43.8692667" lon="12.284085"><ele>286.0</ele><time>2026-04-05T09:27:56.59Z</time></trkpt><trkpt lat="43.8694467" lon="12.28407"><ele>286.0</ele><time>2026-04-05T09:27:57.59Z</time></trkpt><trkpt lat="43.8696633" lon="12.2840733"><ele>286.3333333333333</ele><time>2026-04-05T09:27:58.59Z</time></trkpt><trkpt lat="43.8698833" lon="12.2840817"><ele>286.6666666666667</ele><time>2026-04-05T09:27:59.59Z</time></trkpt><trkpt lat="43.870095" lon="12.2840833"><ele>287.0</ele><time>2026-04-05T09:28:00.589Z</time></trkpt><trkpt lat="43.8702967" lon="12.2840817"><ele>286.0</ele><time>2026-04-05T09:28:01.589Z</time></trkpt><trkpt lat="43.8704983" lon="12.2840633"><ele>285.0</ele><time>2026-04-05T09:28:02.59Z</time></trkpt><trkpt lat="43.8706933" lon="12.2840133"><ele>284.0</ele><time>2026-04-05T09:28:03.59Z</time></trkpt><trkpt lat="43.87087" lon="12.2839583"><ele>287.33333333333337</ele><time>2026-04-05T09:28:04.59Z</time></trkpt><trkpt lat="43.8710417" lon="12.28391"><ele>290.6666666666667</ele><time>2026-04-05T09:28:05.59Z</time></trkpt><trkpt lat="43.87121" lon="12.2838583"><ele>294.0</ele><time>2026-04-05T09:28:06.59Z</time></trkpt><trkpt lat="43.8713767" lon="12.2838067"><ele>294.0</ele><time>2026-04-05T09:28:07.589Z</time></trkpt><trkpt lat="43.87154" lon="12.2837633"><ele>294.0</ele><time>2026-04-05T09:28:08.589Z</time></trkpt><trkpt lat="43.871705" lon="12.28372"><ele>294.0</ele><time>2026-04-05T09:28:09.59Z</time></trkpt><trkpt lat="43.87188" lon="12.2836533"><ele>292.6666666666667</ele><time>2026-04-05T09:28:10.589Z</time></trkpt><trkpt lat="43.872065" lon="12.2835817"><ele>291.33333333333337</ele><time>2026-04-05T09:28:11.589Z</time></trkpt><trkpt lat="43.87224" lon="12.2835067"><ele>290.0</ele><time>2026-04-05T09:28:12.59Z</time></trkpt><trkpt lat="43.872415" lon="12.2834367"><ele>290.0</ele><time>2026-04-05T09:28:13.59Z</time></trkpt><trkpt lat="43.8725933" lon="12.2833717"><ele>290.0</ele><time>2026-04-05T09:28:14.59Z</time></trkpt><trkpt lat="43.872795" lon="12.283275"><ele>290.0</ele><time>2026-04-05T09:28:15.589Z</time></trkpt><trkpt lat="43.8729967" lon="12.283155"><ele>293.6666666666667</ele><time>2026-04-05T09:28:16.59Z</time></trkpt><trkpt lat="43.8731817" lon="12.28304"><ele>297.3333333333333</ele><time>2026-04-05T09:28:17.59Z</time></trkpt><trkpt lat="43.8733467" lon="12.2829317"><ele>301.0</ele><time>2026-04-05T09:28:18.59Z</time></trkpt><trkpt lat="43.8735017" lon="12.2828217"><ele>301.0</ele><time>2026-04-05T09:28:19.59Z</time></trkpt><trkpt lat="43.8736467" lon="12.2827283"><ele>301.0</ele><time>2026-04-05T09:28:20.59Z</time></trkpt><trkpt lat="43.8737867" lon="12.2826567"><ele>301.0</ele><time>2026-04-05T09:28:21.59Z</time></trkpt><trkpt lat="43.8739383" lon="12.2826083"><ele>301.0</ele><time>2026-04-05T09:28:22.589Z</time></trkpt><trkpt lat="43.8740967" lon="12.2825767"><ele>301.0</ele><time>2026-04-05T09:28:23.589Z</time></trkpt><trkpt lat="43.8742533" lon="12.282565"><ele>301.0</ele><time>2026-04-05T09:28:24.59Z</time></trkpt><trkpt lat="43.874395" lon="12.2825633"><ele>302.5</ele><time>2026-04-05T09:28:25.59Z</time></trkpt><trkpt lat="43.8745333" lon="12.2825667"><ele>304.0</ele><time>2026-04-05T09:28:26.59Z</time></trkpt><trkpt lat="43.87466" lon="12.2825683"><ele>305.5</ele><time>2026-04-05T09:28:27.59Z</time></trkpt><trkpt lat="43.8748017" lon="12.28254"><ele>307.0</ele><time>2026-04-05T09:28:28.59Z</time></trkpt><trkpt lat="43.87493" lon="12.282545"><ele>307.0</ele><time>2026-04-05T09:28:29.589Z</time></trkpt><trkpt lat="43.875055" lon="12.2825817"><ele>307.0</ele><time>2026-04-05T09:28:30.59Z</time></trkpt><trkpt lat="43.8751733" lon="12.282655"><ele>307.0</ele><time>2026-04-05T09:28:31.59Z</time></trkpt><trkpt lat="43.8752733" lon="12.2827567"><ele>307.0</ele><time>2026-04-05T09:28:32.59Z</time></trkpt><trkpt lat="43.8753567" lon="12.282855"><ele>306.8</ele><time>2026-04-05T09:28:33.589Z</time></trkpt><trkpt lat="43.875435" lon="12.2829517"><ele>306.6</ele><time>2026-04-05T09:28:34.59Z</time></trkpt><trkpt lat="43.8755133" lon="12.28304"><ele>306.40000000000003</ele><time>2026-04-05T09:28:35.589Z</time></trkpt><trkpt lat="43.875595" lon="12.28311"><ele>306.2</ele><time>2026-04-05T09:28:36.59Z</time></trkpt><trkpt lat="43.87569" lon="12.28314"><ele>306.0</ele><time>2026-04-05T09:28:37.589Z</time></trkpt><trkpt lat="43.87578" lon="12.283125"><ele>306.0</ele><time>2026-04-05T09:28:38.59Z</time></trkpt><trkpt lat="43.87587" lon="12.2830567"><ele>306.0</ele><time>2026-04-05T09:28:39.59Z</time></trkpt><trkpt lat="43.8759433" lon="12.2829417"><ele>306.0</ele><time>2026-04-05T09:28:40.59Z</time></trkpt><trkpt lat="43.8760067" lon="12.2828"><ele>306.0</ele><time>2026-04-05T09:28:41.59Z</time></trkpt><trkpt lat="43.8760533" lon="12.28264"><ele>305.25</ele><time>2026-04-05T09:28:42.59Z</time></trkpt><trkpt lat="43.8761017" lon="12.2824917"><ele>304.5</ele><time>2026-04-05T09:28:43.59Z</time></trkpt><trkpt lat="43.8761567" lon="12.2823417"><ele>303.75</ele><time>2026-04-05T09:28:44.589Z</time></trkpt><trkpt lat="43.8762233" lon="12.2822017"><ele>303.0</ele><time>2026-04-05T09:28:45.59Z</time></trkpt><trkpt lat="43.876305" lon="12.2820717"><ele>303.0</ele><time>2026-04-05T09:28:46.589Z</time></trkpt><trkpt lat="43.8764033" lon="12.2819483"><ele>303.0</ele><time>2026-04-05T09:28:47.589Z</time></trkpt><trkpt lat="43.8765033" lon="12.2818367"><ele>303.0</ele><time>2026-04-05T09:28:48.59Z</time></trkpt><trkpt lat="43.8766067" lon="12.28173"><ele>303.0</ele><time>2026-04-05T09:28:49.59Z</time></trkpt><trkpt lat="43.8767067" lon="12.2816233"><ele>303.75</ele><time>2026-04-05T09:28:50.59Z</time></trkpt><trkpt lat="43.8768017" lon="12.281515"><ele>304.5</ele><time>2026-04-05T09:28:51.59Z</time></trkpt><trkpt lat="43.8768783" lon="12.281395"><ele>305.25</ele><time>2026-04-05T09:28:52.59Z</time></trkpt><trkpt lat="43.8769333" lon="12.2812467"><ele>306.0</ele><time>2026-04-05T09:28:53.59Z</time></trkpt><trkpt lat="43.87696" lon="12.2810833"><ele>306.0</ele><time>2026-04-05T09:28:54.589Z</time></trkpt><trkpt lat="43.87696" lon="12.28093"><ele>306.0</ele><time>2026-04-05T09:28:55.59Z</time></trkpt><trkpt lat="43.87697" lon="12.2807883"><ele>306.0</ele><time>2026-04-05T09:28:56.59Z</time></trkpt><trkpt lat="43.8770067" lon="12.2806583"><ele>306.0</ele><time>2026-04-05T09:28:57.59Z</time></trkpt><trkpt lat="43.8770767" lon="12.280545"><ele>306.0</ele><time>2026-04-05T09:28:58.589Z</time></trkpt><trkpt lat="43.8771717" lon="12.2804633"><ele>309.0</ele><time>2026-04-05T09:28:59.59Z</time></trkpt><trkpt lat="43.8772833" lon="12.2804117"><ele>312.0</ele><time>2026-04-05T09:29:00.59Z</time></trkpt><trkpt lat="43.8773967" lon="12.2803867"><ele>315.0</ele><time>2026-04-05T09:29:01.59Z</time></trkpt><trkpt lat="43.8775167" lon="12.2803883"><ele>318.0</ele><time>2026-04-05T09:29:02.59Z</time></trkpt><trkpt lat="43.877635" lon="12.2804183"><ele>317.5</ele><time>2026-04-05T09:29:03.59Z</time></trkpt><trkpt lat="43.8777533" lon="12.2804733"><ele>317.0</ele><time>2026-04-05T09:29:04.59Z</time></trkpt><trkpt lat="43.8778667" lon="12.2805383"><ele>316.5</ele><time>2026-04-05T09:29:05.59Z</time></trkpt><trkpt lat="43.877985" lon="12.28061"><ele>316.0</ele><time>2026-04-05T09:29:06.59Z</time></trkpt><trkpt lat="43.8781017" lon="12.2806933"><ele>316.0</ele><time>2026-04-05T09:29:07.59Z</time></trkpt><trkpt lat="43.87823" lon="12.2807867"><ele>316.0</ele><time>2026-04-05T09:29:08.59Z</time></trkpt><trkpt lat="43.8783667" lon="12.2808817"><ele>316.0</ele><time>2026-04-05T09:29:09.59Z</time></trkpt><trkpt lat="43.878505" lon="12.2809833"><ele>321.66666666666663</ele><time>2026-04-05T09:29:10.59Z</time></trkpt><trkpt lat="43.87865" lon="12.2810767"><ele>327.3333333333333</ele><time>2026-04-05T09:29:11.59Z</time></trkpt><trkpt lat="43.8788333" lon="12.28116"><ele>333.0</ele><time>2026-04-05T09:29:12.59Z</time></trkpt><trkpt lat="43.8790433" lon="12.28124"><ele>333.0</ele><time>2026-04-05T09:29:13.59Z</time></trkpt><trkpt lat="43.8792633" lon="12.2813333"><ele>333.0</ele><time>2026-04-05T09:29:14.59Z</time></trkpt><trkpt lat="43.8794883" lon="12.281445"><ele>327.0</ele><time>2026-04-05T09:29:15.589Z</time></trkpt><trkpt lat="43.87971" lon="12.2815517"><ele>321.0</ele><time>2026-04-05T09:29:16.59Z</time></trkpt><trkpt lat="43.8799167" lon="12.281645"><ele>327.0</ele><time>2026-04-05T09:29:17.59Z</time></trkpt><trkpt lat="43.880105" lon="12.281735"><ele>333.0</ele><time>2026-04-05T09:29:18.59Z</time></trkpt><trkpt lat="43.8802967" lon="12.2818267"><ele>339.0</ele><time>2026-04-05T09:29:19.59Z</time></trkpt><trkpt lat="43.8804783" lon="12.2819483"><ele>339.0</ele><time>2026-04-05T09:29:20.589Z</time></trkpt><trkpt lat="43.880635" lon="12.2821167"><ele>339.0</ele><time>2026-04-05T09:29:21.59Z</time></trkpt><trkpt lat="43.8807733" lon="12.282335"><ele>339.0</ele><time>2026-04-05T09:29:22.59Z</time></trkpt><trkpt lat="43.880915" lon="12.2825767"><ele>338.3333333333333</ele><time>2026-04-05T09:29:23.59Z</time></trkpt><trkpt lat="43.8810567" lon="12.28281"><ele>337.66666666666663</ele><time>2026-04-05T09:29:24.59Z</time></trkpt><trkpt lat="43.8811867" lon="12.28302"><ele>337.0</ele><time>2026-04-05T09:29:25.59Z</time></trkpt><trkpt lat="43.8813117" lon="12.28322"><ele>333.66666666666663</ele><time>2026-04-05T09:29:26.59Z</time></trkpt><trkpt lat="43.8814333" lon="12.283405"><ele>330.3333333333333</ele><time>2026-04-05T09:29:27.59Z</time></trkpt><trkpt lat="43.88155" lon="12.2835783"><ele>327.0</ele><time>2026-04-05T09:29:28.589Z</time></trkpt><trkpt lat="43.8816767" lon="12.2837183"><ele>328.0</ele><time>2026-04-05T09:29:29.59Z</time></trkpt><trkpt lat="43.8818233" lon="12.2838183"><ele>329.0</ele><time>2026-04-05T09:29:30.589Z</time></trkpt><trkpt lat="43.881995" lon="12.2838683"><ele>330.0</ele><time>2026-04-05T09:29:31.59Z</time></trkpt><trkpt lat="43.88218" lon="12.2838917"><ele>330.0</ele><time>2026-04-05T09:29:32.59Z</time></trkpt><trkpt lat="43.8823633" lon="12.2839"><ele>330.0</ele><time>2026-04-05T09:29:33.59Z</time></trkpt><trkpt lat="43.8825483" lon="12.2838667"><ele>330.0</ele><time>2026-04-05T09:29:34.589Z</time></trkpt><trkpt lat="43.8827367" lon="12.2837867"><ele>326.3333333333333</ele><time>2026-04-05T09:29:35.589Z</time></trkpt><trkpt lat="43.8829333" lon="12.2836567"><ele>322.66666666666663</ele><time>2026-04-05T09:29:36.589Z</time></trkpt><trkpt lat="43.8831217" lon="12.28351"><ele>319.0</ele><time>2026-04-05T09:29:37.589Z</time></trkpt><trkpt lat="43.8833083" lon="12.2833633"><ele>321.3333333333333</ele><time>2026-04-05T09:29:38.59Z</time></trkpt><trkpt lat="43.8834833" lon="12.283225"><ele>323.6666666666667</ele><time>2026-04-05T09:29:39.59Z</time></trkpt><trkpt lat="43.88365" lon="12.28312"><ele>326.0</ele><time>2026-04-05T09:29:40.59Z</time></trkpt><trkpt lat="43.8838283" lon="12.2830783"><ele>321.33333333333337</ele><time>2026-04-05T09:29:41.59Z</time></trkpt><trkpt lat="43.88402" lon="12.2831067"><ele>316.6666666666667</ele><time>2026-04-05T09:29:42.59Z</time></trkpt><trkpt lat="43.8842233" lon="12.2831867"><ele>312.0</ele><time>2026-04-05T09:29:43.589Z</time></trkpt><trkpt lat="43.884415" lon="12.283275"><ele>312.0</ele><time>2026-04-05T09:29:44.59Z</time></trkpt><trkpt lat="43.8845933" lon="12.2833717"><ele>312.0</ele><time>2026-04-05T09:29:45.589Z</time></trkpt><trkpt lat="43.8847467" lon="12.28349"><ele>312.0</ele><time>2026-04-05T09:29:46.59Z</time></trkpt><trkpt lat="43.884875" lon="12.2836517"><ele>312.0</ele><time>2026-04-05T09:29:47.59Z</time></trkpt><trkpt lat="43.88498" lon="12.283825"><ele>312.0</ele><time>2026-04-05T09:29:48.589Z</time></trkpt><trkpt lat="43.88505" lon="12.2840217"><ele>312.0</ele><time>2026-04-05T09:29:49.589Z</time></trkpt><trkpt lat="43.88511" lon="12.2842133"><ele>309.25</ele><time>2026-04-05T09:29:50.59Z</time></trkpt><trkpt lat="43.8851717" lon="12.2843683"><ele>306.5</ele><time>2026-04-05T09:29:51.59Z</time></trkpt><trkpt lat="43.8852683" lon="12.284495"><ele>303.75</ele><time>2026-04-05T09:29:52.59Z</time></trkpt><trkpt lat="43.8854067" lon="12.2845617"><ele>301.0</ele><time>2026-04-05T09:29:53.59Z</time></trkpt><trkpt lat="43.8855667" lon="12.28458"><ele>301.0</ele><time>2026-04-05T09:29:54.59Z</time></trkpt><trkpt lat="43.8857317" lon="12.2846"><ele>301.0</ele><time>2026-04-05T09:29:55.59Z</time></trkpt><trkpt lat="43.8858867" lon="12.2846417"><ele>301.0</ele><time>2026-04-05T09:29:56.59Z</time></trkpt><trkpt lat="43.8860367" lon="12.2847367"><ele>298.3333333333333</ele><time>2026-04-05T09:29:57.59Z</time></trkpt><trkpt lat="43.88617" lon="12.28489"><ele>295.6666666666667</ele><time>2026-04-05T09:29:58.589Z</time></trkpt><trkpt lat="43.8863017" lon="12.285065"><ele>293.0</ele><time>2026-04-05T09:29:59.59Z</time></trkpt><trkpt lat="43.8864217" lon="12.2852317"><ele>293.0</ele><time>2026-04-05T09:30:00.59Z</time></trkpt><trkpt lat="43.8865533" lon="12.285365"><ele>293.0</ele><time>2026-04-05T09:30:01.59Z</time></trkpt><trkpt lat="43.8867017" lon="12.2854483"><ele>293.0</ele><time>2026-04-05T09:30:02.589Z</time></trkpt><trkpt lat="43.8868533" lon="12.2854783"><ele>292.75</ele><time>2026-04-05T09:30:03.589Z</time></trkpt><trkpt lat="43.887005" lon="12.2854817"><ele>292.5</ele><time>2026-04-05T09:30:04.59Z</time></trkpt><trkpt lat="43.8871433" lon="12.2854633"><ele>292.25</ele><time>2026-04-05T09:30:05.589Z</time></trkpt><trkpt lat="43.88727" lon="12.2854383"><ele>292.0</ele><time>2026-04-05T09:30:06.59Z</time></trkpt><trkpt lat="43.8873933" lon="12.28543"><ele>292.0</ele><time>2026-04-05T09:30:07.589Z</time></trkpt><trkpt lat="43.8875217" lon="12.285475"><ele>292.0</ele><time>2026-04-05T09:30:08.59Z</time></trkpt><trkpt lat="43.8876333" lon="12.2855733"><ele>292.0</ele><time>2026-04-05T09:30:09.589Z</time></trkpt><trkpt lat="43.88773" lon="12.285695"><ele>292.0</ele><time>2026-04-05T09:30:10.59Z</time></trkpt><trkpt lat="43.887815" lon="12.28581"><ele>291.0</ele><time>2026-04-05T09:30:11.59Z</time></trkpt><trkpt lat="43.88789" lon="12.2859067"><ele>290.0</ele><time>2026-04-05T09:30:12.59Z</time></trkpt><trkpt lat="43.8879633" lon="12.2860017"><ele>289.0</ele><time>2026-04-05T09:30:13.589Z</time></trkpt><trkpt lat="43.8880383" lon="12.2861017"><ele>288.0</ele><time>2026-04-05T09:30:14.59Z</time></trkpt><trkpt lat="43.8881083" lon="12.2862"><ele>287.0</ele><time>2026-04-05T09:30:15.589Z</time></trkpt><trkpt lat="43.888175" lon="12.2863017"><ele>287.0</ele><time>2026-04-05T09:30:16.59Z</time></trkpt><trkpt lat="43.88823" lon="12.2863983"><ele>287.0</ele><time>2026-04-05T09:30:17.59Z</time></trkpt><trkpt lat="43.88827" lon="12.28649"><ele>287.0</ele><time>2026-04-05T09:30:18.59Z</time></trkpt><trkpt lat="43.888295" lon="12.2865783"><ele>287.0</ele><time>2026-04-05T09:30:19.59Z</time></trkpt><trkpt lat="43.888315" lon="12.286735"><ele>287.0</ele><time>2026-04-05T09:30:21.59Z</time></trkpt><trkpt lat="43.88831" lon="12.2868233"><ele>287.0</ele><time>2026-04-05T09:30:22.59Z</time></trkpt><trkpt lat="43.8883167" lon="12.2869183"><ele>286.8</ele><time>2026-04-05T09:30:23.589Z</time></trkpt><trkpt lat="43.8883417" lon="12.2870333"><ele>286.6</ele><time>2026-04-05T09:30:24.59Z</time></trkpt><trkpt lat="43.8883767" lon="12.2871617"><ele>286.40000000000003</ele><time>2026-04-05T09:30:25.59Z</time></trkpt><trkpt lat="43.8883983" lon="12.2873083"><ele>286.2</ele><time>2026-04-05T09:30:26.59Z</time></trkpt><trkpt lat="43.8884317" lon="12.287445"><ele>286.0</ele><time>2026-04-05T09:30:27.59Z</time></trkpt><trkpt lat="43.8884817" lon="12.2875717"><ele>287.0</ele><time>2026-04-05T09:30:28.59Z</time></trkpt><trkpt lat="43.8885433" lon="12.2876883"><ele>288.0</ele><time>2026-04-05T09:30:29.59Z</time></trkpt><trkpt lat="43.8886167" lon="12.2877933"><ele>289.0</ele><time>2026-04-05T09:30:30.59Z</time></trkpt><trkpt lat="43.8887033" lon="12.2878833"><ele>290.0</ele><time>2026-04-05T09:30:31.59Z</time></trkpt><trkpt lat="43.8888183" lon="12.2879567"><ele>291.0</ele><time>2026-04-05T09:30:32.59Z</time></trkpt><trkpt lat="43.88896" lon="12.288025"><ele>291.0</ele><time>2026-04-05T09:30:33.59Z</time></trkpt><trkpt lat="43.8891133" lon="12.288085"><ele>291.0</ele><time>2026-04-05T09:30:34.589Z</time></trkpt><trkpt lat="43.8892683" lon="12.2881467"><ele>291.0</ele><time>2026-04-05T09:30:35.59Z</time></trkpt><trkpt lat="43.88942" lon="12.2881983"><ele>290.6666666666667</ele><time>2026-04-05T09:30:36.59Z</time></trkpt><trkpt lat="43.88957" lon="12.2882533"><ele>290.33333333333337</ele><time>2026-04-05T09:30:37.589Z</time></trkpt><trkpt lat="43.8897183" lon="12.2883083"><ele>290.0</ele><time>2026-04-05T09:30:38.59Z</time></trkpt><trkpt lat="43.88987" lon="12.288365"><ele>290.0</ele><time>2026-04-05T09:30:39.59Z</time></trkpt><trkpt lat="43.8900133" lon="12.2884167"><ele>290.0</ele><time>2026-04-05T09:30:40.589Z</time></trkpt><trkpt lat="43.8901533" lon="12.2884783"><ele>290.0</ele><time>2026-04-05T09:30:41.59Z</time></trkpt><trkpt lat="43.8902883" lon="12.2885233"><ele>290.0</ele><time>2026-04-05T09:30:42.59Z</time></trkpt><trkpt lat="43.8904133" lon="12.2885733"><ele>291.25</ele><time>2026-04-05T09:30:43.589Z</time></trkpt><trkpt lat="43.8905317" lon="12.288615"><ele>292.5</ele><time>2026-04-05T09:30:44.59Z</time></trkpt><trkpt lat="43.8906417" lon="12.28866"><ele>293.75</ele><time>2026-04-05T09:30:45.59Z</time></trkpt><trkpt lat="43.890745" lon="12.288705"><ele>295.0</ele><time>2026-04-05T09:30:46.589Z</time></trkpt><trkpt lat="43.8908567" lon="12.2887333"><ele>295.8</ele><time>2026-04-05T09:30:47.59Z</time></trkpt><trkpt lat="43.89096" lon="12.2887683"><ele>296.6</ele><time>2026-04-05T09:30:48.589Z</time></trkpt><trkpt lat="43.8910617" lon="12.288805"><ele>297.4</ele><time>2026-04-05T09:30:49.589Z</time></trkpt><trkpt lat="43.8911617" lon="12.288835"><ele>298.2</ele><time>2026-04-05T09:30:50.59Z</time></trkpt><trkpt lat="43.8912533" lon="12.2888733"><ele>299.0</ele><time>2026-04-05T09:30:51.59Z</time></trkpt><trkpt lat="43.8913433" lon="12.2889033"><ele>298.0</ele><time>2026-04-05T09:30:52.59Z</time></trkpt><trkpt lat="43.8914283" lon="12.2889333"><ele>297.0</ele><time>2026-04-05T09:30:53.589Z</time></trkpt><trkpt lat="43.8915083" lon="12.2889633"><ele>296.0</ele><time>2026-04-05T09:30:54.59Z</time></trkpt><trkpt lat="43.8915883" lon="12.2889867"><ele>295.0</ele><time>2026-04-05T09:30:55.589Z</time></trkpt><trkpt lat="43.8916733" lon="12.28902"><ele>294.0</ele><time>2026-04-05T09:30:56.59Z</time></trkpt><trkpt lat="43.8917533" lon="12.2890483"><ele>293.0</ele><time>2026-04-05T09:30:57.59Z</time></trkpt><trkpt lat="43.8918383" lon="12.289075"><ele>293.0</ele><time>2026-04-05T09:30:58.59Z</time></trkpt><trkpt lat="43.8919217" lon="12.2891083"><ele>293.0</ele><time>2026-04-05T09:30:59.59Z</time></trkpt><trkpt lat="43.8920133" lon="12.2891333"><ele>293.0</ele><time>2026-04-05T09:31:00.59Z</time></trkpt><trkpt lat="43.892105" lon="12.289165"><ele>293.0</ele><time>2026-04-05T09:31:01.59Z</time></trkpt><trkpt lat="43.892195" lon="12.2892"><ele>293.0</ele><time>2026-04-05T09:31:02.59Z</time></trkpt><trkpt lat="43.8922883" lon="12.2892317"><ele>293.0</ele><time>2026-04-05T09:31:03.59Z</time></trkpt><trkpt lat="43.892375" lon="12.2892667"><ele>293.0</ele><time>2026-04-05T09:31:04.59Z</time></trkpt><trkpt lat="43.89245" lon="12.2892933"><ele>293.0</ele><time>2026-04-05T09:31:05.589Z</time></trkpt><trkpt lat="43.8925283" lon="12.28932"><ele>293.0</ele><time>2026-04-05T09:31:06.59Z</time></trkpt><trkpt lat="43.892615" lon="12.289355"><ele>293.0</ele><time>2026-04-05T09:31:07.59Z</time></trkpt><trkpt lat="43.8927117" lon="12.2893933"><ele>293.0</ele><time>2026-04-05T09:31:08.59Z</time></trkpt><trkpt lat="43.89281" lon="12.2894317"><ele>293.0</ele><time>2026-04-05T09:31:09.59Z</time></trkpt><trkpt lat="43.8929067" lon="12.28947"><ele>293.0</ele><time>2026-04-05T09:31:10.59Z</time></trkpt><trkpt lat="43.8930167" lon="12.2894933"><ele>293.0</ele><time>2026-04-05T09:31:11.59Z</time></trkpt><trkpt lat="43.8931133" lon="12.2895033"><ele>293.0</ele><time>2026-04-05T09:31:12.589Z</time></trkpt><trkpt lat="43.893205" lon="12.289495"><ele>293.0</ele><time>2026-04-05T09:31:13.589Z</time></trkpt><trkpt lat="43.8932917" lon="12.2894817"><ele>293.0</ele><time>2026-04-05T09:31:14.59Z</time></trkpt><trkpt lat="43.8933767" lon="12.28947"><ele>293.0</ele><time>2026-04-05T09:31:15.59Z</time></trkpt><trkpt lat="43.8934583" lon="12.2894533"><ele>293.0</ele><time>2026-04-05T09:31:16.59Z</time></trkpt><trkpt lat="43.8935433" lon="12.289435"><ele>293.0</ele><time>2026-04-05T09:31:17.59Z</time></trkpt><trkpt lat="43.8936267" lon="12.2894117"><ele>293.0</ele><time>2026-04-05T09:31:18.591Z</time></trkpt><trkpt lat="43.8937083" lon="12.289395"><ele>293.0</ele><time>2026-04-05T09:31:19.59Z</time></trkpt><trkpt lat="43.893785" lon="12.28938"><ele>292.4</ele><time>2026-04-05T09:31:20.59Z</time></trkpt><trkpt lat="43.8938667" lon="12.289355"><ele>291.8</ele><time>2026-04-05T09:31:21.59Z</time></trkpt><trkpt lat="43.8939517" lon="12.2893283"><ele>291.2</ele><time>2026-04-05T09:31:22.591Z</time></trkpt><trkpt lat="43.8940433" lon="12.2892983"><ele>290.6</ele><time>2026-04-05T09:31:23.591Z</time></trkpt><trkpt lat="43.8941417" lon="12.2892767"><ele>290.0</ele><time>2026-04-05T09:31:24.591Z</time></trkpt><trkpt lat="43.894235" lon="12.2892533"><ele>289.5</ele><time>2026-04-05T09:31:25.59Z</time></trkpt><trkpt lat="43.8943267" lon="12.2892217"><ele>289.0</ele><time>2026-04-05T09:31:26.591Z</time></trkpt><trkpt lat="43.8944167" lon="12.2891917"><ele>288.5</ele><time>2026-04-05T09:31:27.591Z</time></trkpt><trkpt lat="43.8945033" lon="12.289165"><ele>288.0</ele><time>2026-04-05T09:31:28.591Z</time></trkpt><trkpt lat="43.89457" lon="12.289145"><ele>287.5</ele><time>2026-04-05T09:31:29.591Z</time></trkpt><trkpt lat="43.8946367" lon="12.2891183"><ele>287.0</ele><time>2026-04-05T09:31:31.591Z</time></trkpt><trkpt lat="43.8947083" lon="12.28903"><ele>287.0</ele><time>2026-04-05T09:31:35.591Z</time></trkpt><trkpt lat="43.8947817" lon="12.2889467"><ele>287.0</ele><time>2026-04-05T09:31:38.591Z</time></trkpt><trkpt lat="43.89485" lon="12.2888833"><ele>287.0</ele><time>2026-04-05T09:31:40.59Z</time></trkpt><trkpt lat="43.8949117" lon="12.28881"><ele>287.0</ele><time>2026-04-05T09:31:42.59Z</time></trkpt><trkpt lat="43.894955" lon="12.28873"><ele>287.0</ele><time>2026-04-05T09:31:43.59Z</time></trkpt><trkpt lat="43.8950083" lon="12.2885967"><ele>287.0</ele><time>2026-04-05T09:31:44.591Z</time></trkpt><trkpt lat="43.89507" lon="12.288415"><ele>285.75</ele><time>2026-04-05T09:31:45.591Z</time></trkpt><trkpt lat="43.895145" lon="12.2882333"><ele>284.5</ele><time>2026-04-05T09:31:46.591Z</time></trkpt><trkpt lat="43.8952255" lon="12.2880759"><ele>283.25</ele><time>2026-04-05T09:31:47.59Z</time></trkpt><trkpt lat="43.8953142" lon="12.2879426"><ele>282.0</ele><time>2026-04-05T09:31:48.59Z</time></trkpt><trkpt lat="43.8954088" lon="12.2878337"><ele>282.0</ele><time>2026-04-05T09:31:49.591Z</time></trkpt><trkpt lat="43.895507" lon="12.2877387"><ele>282.0</ele><time>2026-04-05T09:31:50.59Z</time></trkpt><trkpt lat="43.8955987" lon="12.2876505"><ele>282.0</ele><time>2026-04-05T09:31:51.591Z</time></trkpt><trkpt lat="43.8956956" lon="12.2875847"><ele>282.0</ele><time>2026-04-05T09:31:52.591Z</time></trkpt><trkpt lat="43.8958029" lon="12.2875578"><ele>282.0</ele><time>2026-04-05T09:31:53.591Z</time></trkpt><trkpt lat="43.8959194" lon="12.2875779"><ele>281.75</ele><time>2026-04-05T09:31:54.591Z</time></trkpt><trkpt lat="43.8960359" lon="12.2876524"><ele>281.5</ele><time>2026-04-05T09:31:55.591Z</time></trkpt><trkpt lat="43.8961576" lon="12.2877585"><ele>281.25</ele><time>2026-04-05T09:31:56.59Z</time></trkpt><trkpt lat="43.8962809" lon="12.2878797"><ele>281.0</ele><time>2026-04-05T09:31:57.591Z</time></trkpt><trkpt lat="43.8964072" lon="12.2880004"><ele>280.25</ele><time>2026-04-05T09:31:58.591Z</time></trkpt><trkpt lat="43.8965388" lon="12.2881137"><ele>279.5</ele><time>2026-04-05T09:31:59.59Z</time></trkpt><trkpt lat="43.8966577" lon="12.2882244"><ele>278.75</ele><time>2026-04-05T09:32:00.591Z</time></trkpt><trkpt lat="43.8967659" lon="12.2883323"><ele>278.0</ele><time>2026-04-05T09:32:01.591Z</time></trkpt><trkpt lat="43.8968666" lon="12.2884296"><ele>278.0</ele><time>2026-04-05T09:32:02.591Z</time></trkpt><trkpt lat="43.8969667" lon="12.2885212"><ele>278.0</ele><time>2026-04-05T09:32:03.591Z</time></trkpt><trkpt lat="43.8970671" lon="12.2886036"><ele>278.0</ele><time>2026-04-05T09:32:04.591Z</time></trkpt><trkpt lat="43.897168" lon="12.2886869"><ele>278.0</ele><time>2026-04-05T09:32:05.591Z</time></trkpt><trkpt lat="43.8972673" lon="12.2887682"><ele>278.0</ele><time>2026-04-05T09:32:06.59Z</time></trkpt><trkpt lat="43.8973621" lon="12.2888456"><ele>278.0</ele><time>2026-04-05T09:32:07.591Z</time></trkpt><trkpt lat="43.8974485" lon="12.288918"><ele>278.0</ele><time>2026-04-05T09:32:08.59Z</time></trkpt><trkpt lat="43.897522" lon="12.2889874"><ele>278.0</ele><time>2026-04-05T09:32:09.591Z</time></trkpt><trkpt lat="43.897585" lon="12.2890419"><ele>278.0</ele><time>2026-04-05T09:32:10.591Z</time></trkpt><trkpt lat="43.8976486" lon="12.2890708"><ele>278.0</ele><time>2026-04-05T09:32:11.59Z</time></trkpt><trkpt lat="43.897718" lon="12.2890736"><ele>277.2</ele><time>2026-04-05T09:32:12.591Z</time></trkpt><trkpt lat="43.8977955" lon="12.2890424"><ele>276.4</ele><time>2026-04-05T09:32:13.591Z</time></trkpt><trkpt lat="43.8978817" lon="12.2889806"><ele>275.59999999999997</ele><time>2026-04-05T09:32:14.59Z</time></trkpt><trkpt lat="43.8979834" lon="12.2889289"><ele>274.8</ele><time>2026-04-05T09:32:15.591Z</time></trkpt><trkpt lat="43.8980933" lon="12.2889068"><ele>274.0</ele><time>2026-04-05T09:32:16.59Z</time></trkpt><trkpt lat="43.8982056" lon="12.2888988"><ele>274.0</ele><time>2026-04-05T09:32:17.59Z</time></trkpt><trkpt lat="43.8983215" lon="12.2888967"><ele>274.0</ele><time>2026-04-05T09:32:18.591Z</time></trkpt><trkpt lat="43.8984356" lon="12.2889119"><ele>274.0</ele><time>2026-04-05T09:32:19.591Z</time></trkpt><trkpt lat="43.8985517" lon="12.288945"><ele>274.0</ele><time>2026-04-05T09:32:20.59Z</time></trkpt><trkpt lat="43.8986644" lon="12.288996"><ele>271.8</ele><time>2026-04-05T09:32:21.591Z</time></trkpt><trkpt lat="43.8987626" lon="12.2890585"><ele>269.59999999999997</ele><time>2026-04-05T09:32:22.591Z</time></trkpt><trkpt lat="43.8988532" lon="12.2891298"><ele>267.4</ele><time>2026-04-05T09:32:23.591Z</time></trkpt><trkpt lat="43.8989403" lon="12.2892037"><ele>265.2</ele><time>2026-04-05T09:32:24.591Z</time></trkpt><trkpt lat="43.8990213" lon="12.2892898"><ele>263.0</ele><time>2026-04-05T09:32:25.59Z</time></trkpt><trkpt lat="43.8990977" lon="12.2893887"><ele>263.0</ele><time>2026-04-05T09:32:26.591Z</time></trkpt><trkpt lat="43.8991674" lon="12.2894942"><ele>263.0</ele><time>2026-04-05T09:32:27.591Z</time></trkpt><trkpt lat="43.8992389" lon="12.289605"><ele>263.0</ele><time>2026-04-05T09:32:28.59Z</time></trkpt><trkpt lat="43.8993232" lon="12.2897298"><ele>263.0</ele><time>2026-04-05T09:32:29.591Z</time></trkpt><trkpt lat="43.8994256" lon="12.2898851"><ele>263.33333333333337</ele><time>2026-04-05T09:32:30.591Z</time></trkpt><trkpt lat="43.8995365" lon="12.2900797"><ele>263.6666666666667</ele><time>2026-04-05T09:32:31.591Z</time></trkpt><trkpt lat="43.8996453" lon="12.2902898"><ele>264.0</ele><time>2026-04-05T09:32:32.591Z</time></trkpt><trkpt lat="43.8997435" lon="12.2904879"><ele>262.3333333333333</ele><time>2026-04-05T09:32:33.591Z</time></trkpt><trkpt lat="43.8998423" lon="12.2906695"><ele>260.66666666666663</ele><time>2026-04-05T09:32:34.591Z</time></trkpt><trkpt lat="43.899938" lon="12.2908396"><ele>259.0</ele><time>2026-04-05T09:32:35.591Z</time></trkpt><trkpt lat="43.9000225" lon="12.2910037"><ele>259.3333333333333</ele><time>2026-04-05T09:32:36.591Z</time></trkpt><trkpt lat="43.9000948" lon="12.2911785"><ele>259.6666666666667</ele><time>2026-04-05T09:32:37.591Z</time></trkpt><trkpt lat="43.9001456" lon="12.2913759"><ele>260.0</ele><time>2026-04-05T09:32:38.59Z</time></trkpt><trkpt lat="43.9001702" lon="12.2916028"><ele>260.0</ele><time>2026-04-05T09:32:39.59Z</time></trkpt><trkpt lat="43.9001849" lon="12.2918513"><ele>260.0</ele><time>2026-04-05T09:32:40.591Z</time></trkpt><trkpt lat="43.9002013" lon="12.2921108"><ele>260.0</ele><time>2026-04-05T09:32:41.591Z</time></trkpt><trkpt lat="43.9002158" lon="12.2923722"><ele>258.6666666666667</ele><time>2026-04-05T09:32:42.591Z</time></trkpt><trkpt lat="43.9002262" lon="12.2926147"><ele>257.3333333333333</ele><time>2026-04-05T09:32:43.591Z</time></trkpt><trkpt lat="43.9002373" lon="12.2928479"><ele>256.0</ele><time>2026-04-05T09:32:44.591Z</time></trkpt><trkpt lat="43.9002487" lon="12.2930784"><ele>254.66666666666666</ele><time>2026-04-05T09:32:45.591Z</time></trkpt><trkpt lat="43.9002802" lon="12.293301"><ele>253.33333333333331</ele><time>2026-04-05T09:32:46.591Z</time></trkpt><trkpt lat="43.900355" lon="12.2935168"><ele>252.0</ele><time>2026-04-05T09:32:47.59Z</time></trkpt><trkpt lat="43.9004868" lon="12.2937095"><ele>252.0</ele><time>2026-04-05T09:32:48.591Z</time></trkpt><trkpt lat="43.9006545" lon="12.2938867"><ele>252.0</ele><time>2026-04-05T09:32:49.591Z</time></trkpt><trkpt lat="43.9008397" lon="12.2940623"><ele>252.0</ele><time>2026-04-05T09:32:50.59Z</time></trkpt><trkpt lat="43.9010207" lon="12.2942308"><ele>250.33333333333331</ele><time>2026-04-05T09:32:51.591Z</time></trkpt><trkpt lat="43.9011826" lon="12.2943945"><ele>248.66666666666666</ele><time>2026-04-05T09:32:52.591Z</time></trkpt><trkpt lat="43.9013263" lon="12.2945569"><ele>247.0</ele><time>2026-04-05T09:32:53.591Z</time></trkpt><trkpt lat="43.9014781" lon="12.2947107"><ele>244.66666666666666</ele><time>2026-04-05T09:32:54.591Z</time></trkpt><trkpt lat="43.9016404" lon="12.2948403"><ele>242.33333333333331</ele><time>2026-04-05T09:32:55.59Z</time></trkpt><trkpt lat="43.9018316" lon="12.2949293"><ele>240.0</ele><time>2026-04-05T09:32:56.59Z</time></trkpt><trkpt lat="43.9020324" lon="12.2949884"><ele>240.0</ele><time>2026-04-05T09:32:57.591Z</time></trkpt><trkpt lat="43.9022279" lon="12.2950396"><ele>240.0</ele><time>2026-04-05T09:32:58.591Z</time></trkpt><trkpt lat="43.9024078" lon="12.2950809"><ele>240.0</ele><time>2026-04-05T09:32:59.591Z</time></trkpt><trkpt lat="43.9025688" lon="12.2951174"><ele>239.5</ele><time>2026-04-05T09:33:00.591Z</time></trkpt><trkpt lat="43.9027208" lon="12.295139"><ele>239.0</ele><time>2026-04-05T09:33:01.591Z</time></trkpt><trkpt lat="43.9028612" lon="12.2951348"><ele>238.5</ele><time>2026-04-05T09:33:02.591Z</time></trkpt><trkpt lat="43.9029933" lon="12.2950978"><ele>238.0</ele><time>2026-04-05T09:33:03.591Z</time></trkpt><trkpt lat="43.9031151" lon="12.2950296"><ele>238.0</ele><time>2026-04-05T09:33:04.591Z</time></trkpt><trkpt lat="43.9032252" lon="12.2949235"><ele>238.0</ele><time>2026-04-05T09:33:05.59Z</time></trkpt><trkpt lat="43.9033178" lon="12.2947766"><ele>238.0</ele><time>2026-04-05T09:33:06.591Z</time></trkpt><trkpt lat="43.9033958" lon="12.2946108"><ele>238.0</ele><time>2026-04-05T09:33:07.59Z</time></trkpt><trkpt lat="43.9034656" lon="12.2944448"><ele>237.75</ele><time>2026-04-05T09:33:08.591Z</time></trkpt><trkpt lat="43.9035391" lon="12.2942868"><ele>237.5</ele><time>2026-04-05T09:33:09.59Z</time></trkpt><trkpt lat="43.9036258" lon="12.294131"><ele>237.25</ele><time>2026-04-05T09:33:10.591Z</time></trkpt><trkpt lat="43.9037255" lon="12.2939875"><ele>237.0</ele><time>2026-04-05T09:33:11.591Z</time></trkpt><trkpt lat="43.9038319" lon="12.2938562"><ele>240.0</ele><time>2026-04-05T09:33:12.59Z</time></trkpt><trkpt lat="43.9039375" lon="12.2937382"><ele>243.0</ele><time>2026-04-05T09:33:13.59Z</time></trkpt><trkpt lat="43.9040382" lon="12.2936276"><ele>246.0</ele><time>2026-04-05T09:33:14.591Z</time></trkpt><trkpt lat="43.9041366" lon="12.2935254"><ele>249.0</ele><time>2026-04-05T09:33:15.591Z</time></trkpt><trkpt lat="43.9042418" lon="12.2934197"><ele>246.75</ele><time>2026-04-05T09:33:16.591Z</time></trkpt><trkpt lat="43.9043647" lon="12.2933335"><ele>244.5</ele><time>2026-04-05T09:33:17.591Z</time></trkpt><trkpt lat="43.9044927" lon="12.2932827"><ele>242.25</ele><time>2026-04-05T09:33:18.59Z</time></trkpt><trkpt lat="43.9046556" lon="12.293276"><ele>240.0</ele><time>2026-04-05T09:33:19.59Z</time></trkpt><trkpt lat="43.9048356" lon="12.2933099"><ele>240.0</ele><time>2026-04-05T09:33:20.59Z</time></trkpt><trkpt lat="43.9050445" lon="12.2933804"><ele>240.0</ele><time>2026-04-05T09:33:21.59Z</time></trkpt><trkpt lat="43.9052636" lon="12.293467"><ele>240.0</ele><time>2026-04-05T09:33:22.591Z</time></trkpt><trkpt lat="43.9054727" lon="12.2935465"><ele>240.33333333333331</ele><time>2026-04-05T09:33:23.591Z</time></trkpt><trkpt lat="43.9056675" lon="12.2936002"><ele>240.66666666666666</ele><time>2026-04-05T09:33:24.591Z</time></trkpt><trkpt lat="43.9058507" lon="12.2936372"><ele>241.0</ele><time>2026-04-05T09:33:25.591Z</time></trkpt><trkpt lat="43.9060334" lon="12.2936644"><ele>241.0</ele><time>2026-04-05T09:33:26.59Z</time></trkpt><trkpt lat="43.9062111" lon="12.2936929"><ele>241.0</ele><time>2026-04-05T09:33:27.59Z</time></trkpt><trkpt lat="43.9063857" lon="12.2937282"><ele>241.0</ele><time>2026-04-05T09:33:28.591Z</time></trkpt><trkpt lat="43.9065574" lon="12.2937613"><ele>241.0</ele><time>2026-04-05T09:33:29.591Z</time></trkpt><trkpt lat="43.9067274" lon="12.2937983"><ele>241.0</ele><time>2026-04-05T09:33:30.591Z</time></trkpt><trkpt lat="43.9068972" lon="12.2938385"><ele>241.0</ele><time>2026-04-05T09:33:31.591Z</time></trkpt><trkpt lat="43.9070659" lon="12.2938855"><ele>239.0</ele><time>2026-04-05T09:33:32.591Z</time></trkpt><trkpt lat="43.9072341" lon="12.2939294"><ele>237.0</ele><time>2026-04-05T09:33:33.591Z</time></trkpt><trkpt lat="43.907401" lon="12.2939724"><ele>235.0</ele><time>2026-04-05T09:33:34.591Z</time></trkpt><trkpt lat="43.9075685" lon="12.2940153"><ele>236.33333333333331</ele><time>2026-04-05T09:33:35.591Z</time></trkpt><trkpt lat="43.9077256" lon="12.2940472"><ele>237.66666666666669</ele><time>2026-04-05T09:33:36.591Z</time></trkpt><trkpt lat="43.9078795" lon="12.2940783"><ele>239.0</ele><time>2026-04-05T09:33:37.591Z</time></trkpt><trkpt lat="43.9080254" lon="12.2941132"><ele>239.0</ele><time>2026-04-05T09:33:38.591Z</time></trkpt><trkpt lat="43.9081647" lon="12.2941805"><ele>239.0</ele><time>2026-04-05T09:33:39.591Z</time></trkpt><trkpt lat="43.9082739" lon="12.2942844"><ele>239.0</ele><time>2026-04-05T09:33:40.591Z</time></trkpt><trkpt lat="43.9083643" lon="12.2944208"><ele>239.0</ele><time>2026-04-05T09:33:41.591Z</time></trkpt><trkpt lat="43.9084348" lon="12.2945919"><ele>240.25</ele><time>2026-04-05T09:33:42.591Z</time></trkpt><trkpt lat="43.9084917" lon="12.2947708"><ele>241.5</ele><time>2026-04-05T09:33:43.591Z</time></trkpt><trkpt lat="43.908545" lon="12.2949475"><ele>242.75</ele><time>2026-04-05T09:33:44.59Z</time></trkpt><trkpt lat="43.9086012" lon="12.2951123"><ele>244.0</ele><time>2026-04-05T09:33:45.59Z</time></trkpt><trkpt lat="43.9086582" lon="12.2952773"><ele>244.0</ele><time>2026-04-05T09:33:46.59Z</time></trkpt><trkpt lat="43.9087153" lon="12.2954482"><ele>244.0</ele><time>2026-04-05T09:33:47.591Z</time></trkpt><trkpt lat="43.9087824" lon="12.2956512"><ele>244.0</ele><time>2026-04-05T09:33:48.591Z</time></trkpt><trkpt lat="43.9088515" lon="12.2958977"><ele>243.33333333333331</ele><time>2026-04-05T09:33:49.59Z</time></trkpt><trkpt lat="43.9089257" lon="12.2961698"><ele>242.66666666666669</ele><time>2026-04-05T09:33:50.591Z</time></trkpt><trkpt lat="43.9089934" lon="12.296437"><ele>242.0</ele><time>2026-04-05T09:33:51.591Z</time></trkpt><trkpt lat="43.9090456" lon="12.2966854"><ele>241.66666666666669</ele><time>2026-04-05T09:33:52.591Z</time></trkpt><trkpt lat="43.9091018" lon="12.2969202"><ele>241.33333333333331</ele><time>2026-04-05T09:33:53.591Z</time></trkpt><trkpt lat="43.9091841" lon="12.297141"><ele>241.0</ele><time>2026-04-05T09:33:54.591Z</time></trkpt><trkpt lat="43.9092974" lon="12.2973661"><ele>242.66666666666666</ele><time>2026-04-05T09:33:55.591Z</time></trkpt><trkpt lat="43.9094215" lon="12.2975758"><ele>244.33333333333331</ele><time>2026-04-05T09:33:56.591Z</time></trkpt><trkpt lat="43.9095456" lon="12.2977719"><ele>246.0</ele><time>2026-04-05T09:33:57.591Z</time></trkpt><trkpt lat="43.9096803" lon="12.2979475"><ele>246.66666666666669</ele><time>2026-04-05T09:33:58.59Z</time></trkpt><trkpt lat="43.9098364" lon="12.2981081"><ele>247.33333333333334</ele><time>2026-04-05T09:33:59.591Z</time></trkpt><trkpt lat="43.9100045" lon="12.2982466"><ele>248.0</ele><time>2026-04-05T09:34:00.591Z</time></trkpt><trkpt lat="43.9101632" lon="12.2983663"><ele>248.0</ele><time>2026-04-05T09:34:01.591Z</time></trkpt><trkpt lat="43.9103067" lon="12.2984917"><ele>248.0</ele><time>2026-04-05T09:34:02.59Z</time></trkpt><trkpt lat="43.9104233" lon="12.2986467"><ele>248.0</ele><time>2026-04-05T09:34:03.591Z</time></trkpt><trkpt lat="43.9105083" lon="12.2988383"><ele>247.33333333333334</ele><time>2026-04-05T09:34:04.591Z</time></trkpt><trkpt lat="43.91055" lon="12.299085"><ele>246.66666666666669</ele><time>2026-04-05T09:34:05.59Z</time></trkpt><trkpt lat="43.91056" lon="12.29937"><ele>246.0</ele><time>2026-04-05T09:34:06.591Z</time></trkpt><trkpt lat="43.9105567" lon="12.299675"><ele>246.0</ele><time>2026-04-05T09:34:07.591Z</time></trkpt><trkpt lat="43.9105417" lon="12.2999967"><ele>246.0</ele><time>2026-04-05T09:34:08.59Z</time></trkpt><trkpt lat="43.9105083" lon="12.3003317"><ele>247.5</ele><time>2026-04-05T09:34:09.59Z</time></trkpt><trkpt lat="43.9104633" lon="12.3006833"><ele>249.0</ele><time>2026-04-05T09:34:10.59Z</time></trkpt><trkpt lat="43.910405" lon="12.30103"><ele>249.0</ele><time>2026-04-05T09:34:11.591Z</time></trkpt><trkpt lat="43.910345" lon="12.3013483"><ele>249.0</ele><time>2026-04-05T09:34:12.591Z</time></trkpt><trkpt lat="43.9102967" lon="12.3016483"><ele>249.33333333333331</ele><time>2026-04-05T09:34:13.59Z</time></trkpt><trkpt lat="43.9102667" lon="12.30192"><ele>249.66666666666666</ele><time>2026-04-05T09:34:14.59Z</time></trkpt><trkpt lat="43.9102317" lon="12.30216"><ele>250.0</ele><time>2026-04-05T09:34:15.59Z</time></trkpt><trkpt lat="43.9101733" lon="12.3023667"><ele>248.75</ele><time>2026-04-05T09:34:16.59Z</time></trkpt><trkpt lat="43.910085" lon="12.3025367"><ele>247.5</ele><time>2026-04-05T09:34:17.591Z</time></trkpt><trkpt lat="43.9100283" lon="12.3026767"><ele>246.25</ele><time>2026-04-05T09:34:18.591Z</time></trkpt><trkpt lat="43.9100133" lon="12.302835"><ele>245.0</ele><time>2026-04-05T09:34:19.591Z</time></trkpt><trkpt lat="43.9100483" lon="12.303015"><ele>243.66666666666669</ele><time>2026-04-05T09:34:20.591Z</time></trkpt><trkpt lat="43.9101383" lon="12.3031883"><ele>242.33333333333331</ele><time>2026-04-05T09:34:21.591Z</time></trkpt><trkpt lat="43.9102667" lon="12.3033583"><ele>241.0</ele><time>2026-04-05T09:34:22.59Z</time></trkpt><trkpt lat="43.9104133" lon="12.3035417"><ele>241.0</ele><time>2026-04-05T09:34:23.591Z</time></trkpt><trkpt lat="43.91056" lon="12.30373"><ele>241.0</ele><time>2026-04-05T09:34:24.591Z</time></trkpt><trkpt lat="43.9107117" lon="12.3038917"><ele>241.0</ele><time>2026-04-05T09:34:25.59Z</time></trkpt><trkpt lat="43.9108917" lon="12.3040267"><ele>236.0</ele><time>2026-04-05T09:34:26.591Z</time></trkpt><trkpt lat="43.9111" lon="12.30411"><ele>231.0</ele><time>2026-04-05T09:34:27.591Z</time></trkpt><trkpt lat="43.91134" lon="12.304145"><ele>231.0</ele><time>2026-04-05T09:34:28.59Z</time></trkpt><trkpt lat="43.9116" lon="12.3041783"><ele>231.0</ele><time>2026-04-05T09:34:29.591Z</time></trkpt><trkpt lat="43.91185" lon="12.304205"><ele>231.0</ele><time>2026-04-05T09:34:30.591Z</time></trkpt><trkpt lat="43.9120867" lon="12.3042233"><ele>231.0</ele><time>2026-04-05T09:34:31.591Z</time></trkpt><trkpt lat="43.9123183" lon="12.304265"><ele>231.0</ele><time>2026-04-05T09:34:32.591Z</time></trkpt><trkpt lat="43.912545" lon="12.30433"><ele>231.0</ele><time>2026-04-05T09:34:33.591Z</time></trkpt><trkpt lat="43.9127717" lon="12.3044317"><ele>229.5</ele><time>2026-04-05T09:34:34.59Z</time></trkpt><trkpt lat="43.9129983" lon="12.30455"><ele>228.0</ele><time>2026-04-05T09:34:35.591Z</time></trkpt><trkpt lat="43.9132367" lon="12.3046733"><ele>229.5</ele><time>2026-04-05T09:34:36.591Z</time></trkpt><trkpt lat="43.91349" lon="12.3047983"><ele>231.0</ele><time>2026-04-05T09:34:37.591Z</time></trkpt><trkpt lat="43.9137383" lon="12.304935"><ele>231.0</ele><time>2026-04-05T09:34:38.59Z</time></trkpt><trkpt lat="43.9139733" lon="12.3050667"><ele>231.0</ele><time>2026-04-05T09:34:39.591Z</time></trkpt><trkpt lat="43.9141983" lon="12.3051917"><ele>231.5</ele><time>2026-04-05T09:34:40.591Z</time></trkpt><trkpt lat="43.914425" lon="12.30531"><ele>232.0</ele><time>2026-04-05T09:34:41.591Z</time></trkpt><trkpt lat="43.9146467" lon="12.3054267"><ele>232.0</ele><time>2026-04-05T09:34:42.591Z</time></trkpt><trkpt lat="43.9148633" lon="12.3055383"><ele>232.0</ele><time>2026-04-05T09:34:43.591Z</time></trkpt><trkpt lat="43.9150833" lon="12.3056567"><ele>232.0</ele><time>2026-04-05T09:34:44.59Z</time></trkpt><trkpt lat="43.9152917" lon="12.305765"><ele>232.0</ele><time>2026-04-05T09:34:45.591Z</time></trkpt><trkpt lat="43.9154883" lon="12.3058633"><ele>232.0</ele><time>2026-04-05T09:34:46.59Z</time></trkpt><trkpt lat="43.915675" lon="12.3059367"><ele>232.0</ele><time>2026-04-05T09:34:47.59Z</time></trkpt><trkpt lat="43.9158567" lon="12.3060033"><ele>232.0</ele><time>2026-04-05T09:34:48.59Z</time></trkpt><trkpt lat="43.9160267" lon="12.306055"><ele>232.0</ele><time>2026-04-05T09:34:49.591Z</time></trkpt><trkpt lat="43.9161917" lon="12.3061083"><ele>232.5</ele><time>2026-04-05T09:34:50.591Z</time></trkpt><trkpt lat="43.9163467" lon="12.3061683"><ele>233.0</ele><time>2026-04-05T09:34:51.591Z</time></trkpt><trkpt lat="43.9164883" lon="12.30624"><ele>233.5</ele><time>2026-04-05T09:34:52.591Z</time></trkpt><trkpt lat="43.9166083" lon="12.3063217"><ele>234.0</ele><time>2026-04-05T09:34:53.591Z</time></trkpt><trkpt lat="43.9167017" lon="12.3064233"><ele>233.0</ele><time>2026-04-05T09:34:54.591Z</time></trkpt><trkpt lat="43.9167983" lon="12.306535"><ele>232.0</ele><time>2026-04-05T09:34:55.591Z</time></trkpt><trkpt lat="43.9168917" lon="12.306665"><ele>231.0</ele><time>2026-04-05T09:34:56.591Z</time></trkpt><trkpt lat="43.9169767" lon="12.3067917"><ele>230.0</ele><time>2026-04-05T09:34:57.59Z</time></trkpt><trkpt lat="43.9170567" lon="12.30691"><ele>230.0</ele><time>2026-04-05T09:34:58.59Z</time></trkpt><trkpt lat="43.9171333" lon="12.307025"><ele>230.0</ele><time>2026-04-05T09:34:59.591Z</time></trkpt><trkpt lat="43.9172083" lon="12.3071333"><ele>230.0</ele><time>2026-04-05T09:35:00.591Z</time></trkpt><trkpt lat="43.917285" lon="12.307255"><ele>230.0</ele><time>2026-04-05T09:35:01.591Z</time></trkpt><trkpt lat="43.9173767" lon="12.307375"><ele>229.66666666666669</ele><time>2026-04-05T09:35:02.591Z</time></trkpt><trkpt lat="43.917485" lon="12.3075067"><ele>229.33333333333331</ele><time>2026-04-05T09:35:03.591Z</time></trkpt><trkpt lat="43.9176033" lon="12.3076583"><ele>229.0</ele><time>2026-04-05T09:35:04.59Z</time></trkpt><trkpt lat="43.91772" lon="12.307835"><ele>229.0</ele><time>2026-04-05T09:35:05.591Z</time></trkpt><trkpt lat="43.9178433" lon="12.3080267"><ele>229.0</ele><time>2026-04-05T09:35:06.591Z</time></trkpt><trkpt lat="43.91799" lon="12.308225"><ele>229.0</ele><time>2026-04-05T09:35:07.591Z</time></trkpt><trkpt lat="43.9181383" lon="12.308435"><ele>228.33333333333331</ele><time>2026-04-05T09:35:08.591Z</time></trkpt><trkpt lat="43.918295" lon="12.3086567"><ele>227.66666666666669</ele><time>2026-04-05T09:35:09.59Z</time></trkpt><trkpt lat="43.9184433" lon="12.30888"><ele>227.0</ele><time>2026-04-05T09:35:10.59Z</time></trkpt><trkpt lat="43.9185933" lon="12.3090883"><ele>226.0</ele><time>2026-04-05T09:35:11.591Z</time></trkpt><trkpt lat="43.9187367" lon="12.3092833"><ele>225.0</ele><time>2026-04-05T09:35:12.591Z</time></trkpt><trkpt lat="43.9188733" lon="12.30946"><ele>224.0</ele><time>2026-04-05T09:35:13.59Z</time></trkpt><trkpt lat="43.9190017" lon="12.3096317"><ele>224.0</ele><time>2026-04-05T09:35:14.591Z</time></trkpt><trkpt lat="43.919125" lon="12.3098017"><ele>224.0</ele><time>2026-04-05T09:35:15.591Z</time></trkpt><trkpt lat="43.919245" lon="12.3099683"><ele>224.0</ele><time>2026-04-05T09:35:16.591Z</time></trkpt><trkpt lat="43.919355" lon="12.3101283"><ele>224.0</ele><time>2026-04-05T09:35:17.59Z</time></trkpt><trkpt lat="43.9194517" lon="12.3102883"><ele>224.0</ele><time>2026-04-05T09:35:18.591Z</time></trkpt><trkpt lat="43.9195433" lon="12.3104467"><ele>224.0</ele><time>2026-04-05T09:35:19.591Z</time></trkpt><trkpt lat="43.91964" lon="12.310595"><ele>224.0</ele><time>2026-04-05T09:35:20.591Z</time></trkpt><trkpt lat="43.9197317" lon="12.310755"><ele>222.0</ele><time>2026-04-05T09:35:21.59Z</time></trkpt><trkpt lat="43.919815" lon="12.3109483"><ele>220.0</ele><time>2026-04-05T09:35:22.591Z</time></trkpt><trkpt lat="43.9198983" lon="12.3111483"><ele>218.0</ele><time>2026-04-05T09:35:23.591Z</time></trkpt><trkpt lat="43.9199717" lon="12.3113483"><ele>217.66666666666669</ele><time>2026-04-05T09:35:24.59Z</time></trkpt><trkpt lat="43.920065" lon="12.31153"><ele>217.33333333333331</ele><time>2026-04-05T09:35:25.59Z</time></trkpt><trkpt lat="43.9201767" lon="12.3116917"><ele>217.0</ele><time>2026-04-05T09:35:26.59Z</time></trkpt><trkpt lat="43.9203167" lon="12.311845"><ele>217.0</ele><time>2026-04-05T09:35:27.59Z</time></trkpt><trkpt lat="43.920465" lon="12.3119833"><ele>217.0</ele><time>2026-04-05T09:35:28.59Z</time></trkpt><trkpt lat="43.9206033" lon="12.3121183"><ele>217.0</ele><time>2026-04-05T09:35:29.591Z</time></trkpt><trkpt lat="43.9207367" lon="12.3122417"><ele>214.0</ele><time>2026-04-05T09:35:30.591Z</time></trkpt><trkpt lat="43.9208717" lon="12.31237"><ele>211.0</ele><time>2026-04-05T09:35:31.591Z</time></trkpt><trkpt lat="43.9210117" lon="12.312505"><ele>208.0</ele><time>2026-04-05T09:35:32.59Z</time></trkpt><trkpt lat="43.9211467" lon="12.3126467"><ele>208.0</ele><time>2026-04-05T09:35:33.591Z</time></trkpt><trkpt lat="43.92129" lon="12.3127767"><ele>208.0</ele><time>2026-04-05T09:35:34.591Z</time></trkpt><trkpt lat="43.92143" lon="12.3128983"><ele>208.0</ele><time>2026-04-05T09:35:35.591Z</time></trkpt><trkpt lat="43.92156" lon="12.3130267"><ele>207.66666666666666</ele><time>2026-04-05T09:35:36.591Z</time></trkpt><trkpt lat="43.9216883" lon="12.3131683"><ele>207.33333333333331</ele><time>2026-04-05T09:35:37.591Z</time></trkpt><trkpt lat="43.9218183" lon="12.3133267"><ele>207.0</ele><time>2026-04-05T09:35:38.591Z</time></trkpt><trkpt lat="43.921945" lon="12.31351"><ele>208.66666666666669</ele><time>2026-04-05T09:35:39.59Z</time></trkpt><trkpt lat="43.922065" lon="12.3137"><ele>210.33333333333334</ele><time>2026-04-05T09:35:40.591Z</time></trkpt><trkpt lat="43.9221783" lon="12.3138817"><ele>212.0</ele><time>2026-04-05T09:35:41.591Z</time></trkpt><trkpt lat="43.9222883" lon="12.314065"><ele>212.0</ele><time>2026-04-05T09:35:42.591Z</time></trkpt><trkpt lat="43.9223983" lon="12.3142367"><ele>212.0</ele><time>2026-04-05T09:35:43.591Z</time></trkpt><trkpt lat="43.9224959" lon="12.314397"><ele>212.0</ele><time>2026-04-05T09:35:44.591Z</time></trkpt><trkpt lat="43.9225844" lon="12.3145459"><ele>213.25</ele><time>2026-04-05T09:35:45.591Z</time></trkpt><trkpt lat="43.9226674" lon="12.3146801"><ele>214.5</ele><time>2026-04-05T09:35:46.591Z</time></trkpt><trkpt lat="43.9227425" lon="12.3148051"><ele>215.75</ele><time>2026-04-05T09:35:47.59Z</time></trkpt><trkpt lat="43.9228087" lon="12.314924"><ele>217.0</ele><time>2026-04-05T09:35:48.591Z</time></trkpt><trkpt lat="43.922872" lon="12.3150499"><ele>217.0</ele><time>2026-04-05T09:35:49.591Z</time></trkpt><trkpt lat="43.9229318" lon="12.315197"><ele>217.0</ele><time>2026-04-05T09:35:50.591Z</time></trkpt><trkpt lat="43.9229851" lon="12.3153698"><ele>217.0</ele><time>2026-04-05T09:35:51.591Z</time></trkpt><trkpt lat="43.9230397" lon="12.3155606"><ele>217.0</ele><time>2026-04-05T09:35:52.59Z</time></trkpt><trkpt lat="43.9230903" lon="12.3157505"><ele>217.0</ele><time>2026-04-05T09:35:53.591Z</time></trkpt><trkpt lat="43.9231384" lon="12.3159265"><ele>217.0</ele><time>2026-04-05T09:35:54.591Z</time></trkpt><trkpt lat="43.9231971" lon="12.316096"><ele>217.0</ele><time>2026-04-05T09:35:55.591Z</time></trkpt><trkpt lat="43.9232803" lon="12.3162553"><ele>217.0</ele><time>2026-04-05T09:35:56.591Z</time></trkpt><trkpt lat="43.9233791" lon="12.3164081"><ele>215.66666666666666</ele><time>2026-04-05T09:35:57.591Z</time></trkpt><trkpt lat="43.9234907" lon="12.3165567"><ele>214.33333333333331</ele><time>2026-04-05T09:35:58.591Z</time></trkpt><trkpt lat="43.9236069" lon="12.3167024"><ele>213.0</ele><time>2026-04-05T09:35:59.591Z</time></trkpt><trkpt lat="43.923723" lon="12.3168471"><ele>213.0</ele><time>2026-04-05T09:36:00.59Z</time></trkpt><trkpt lat="43.92383" lon="12.3169943"><ele>213.0</ele><time>2026-04-05T09:36:01.591Z</time></trkpt><trkpt lat="43.9239348" lon="12.3171382"><ele>213.0</ele><time>2026-04-05T09:36:02.59Z</time></trkpt><trkpt lat="43.9240373" lon="12.3172845"><ele>213.0</ele><time>2026-04-05T09:36:03.591Z</time></trkpt><trkpt lat="43.9241418" lon="12.3174258"><ele>213.5</ele><time>2026-04-05T09:36:04.59Z</time></trkpt><trkpt lat="43.9242474" lon="12.3175645"><ele>214.0</ele><time>2026-04-05T09:36:05.591Z</time></trkpt><trkpt lat="43.9243547" lon="12.317694"><ele>214.5</ele><time>2026-04-05T09:36:06.591Z</time></trkpt><trkpt lat="43.9244696" lon="12.3178048"><ele>215.0</ele><time>2026-04-05T09:36:07.591Z</time></trkpt><trkpt lat="43.924604" lon="12.3178931"><ele>215.0</ele><time>2026-04-05T09:36:08.59Z</time></trkpt><trkpt lat="43.9247539" lon="12.3179706"><ele>215.0</ele><time>2026-04-05T09:36:09.59Z</time></trkpt><trkpt lat="43.9249168" lon="12.3180456"><ele>215.0</ele><time>2026-04-05T09:36:10.59Z</time></trkpt><trkpt lat="43.9250744" lon="12.3181179"><ele>214.0</ele><time>2026-04-05T09:36:11.591Z</time></trkpt><trkpt lat="43.9252242" lon="12.3181795"><ele>213.0</ele><time>2026-04-05T09:36:12.591Z</time></trkpt><trkpt lat="43.9253674" lon="12.318261"><ele>212.0</ele><time>2026-04-05T09:36:13.591Z</time></trkpt><trkpt lat="43.9255006" lon="12.3183832"><ele>212.0</ele><time>2026-04-05T09:36:14.591Z</time></trkpt><trkpt lat="43.9256241" lon="12.3185541"><ele>212.0</ele><time>2026-04-05T09:36:15.591Z</time></trkpt><trkpt lat="43.9257358" lon="12.3187515"><ele>212.0</ele><time>2026-04-05T09:36:16.591Z</time></trkpt><trkpt lat="43.9258287" lon="12.3189407"><ele>213.0</ele><time>2026-04-05T09:36:17.59Z</time></trkpt><trkpt lat="43.9259177" lon="12.3191117"><ele>214.0</ele><time>2026-04-05T09:36:18.59Z</time></trkpt><trkpt lat="43.9260099" lon="12.3192672"><ele>215.0</ele><time>2026-04-05T09:36:19.591Z</time></trkpt><trkpt lat="43.9260996" lon="12.3194254"><ele>216.0</ele><time>2026-04-05T09:36:20.591Z</time></trkpt><trkpt lat="43.9261942" lon="12.3195892"><ele>214.75</ele><time>2026-04-05T09:36:21.591Z</time></trkpt><trkpt lat="43.926289" lon="12.31975"><ele>213.5</ele><time>2026-04-05T09:36:22.591Z</time></trkpt><trkpt lat="43.9263832" lon="12.3199018"><ele>212.25</ele><time>2026-04-05T09:36:23.591Z</time></trkpt><trkpt lat="43.9264728" lon="12.3200515"><ele>211.0</ele><time>2026-04-05T09:36:24.591Z</time></trkpt><trkpt lat="43.9265566" lon="12.3202002"><ele>211.0</ele><time>2026-04-05T09:36:25.591Z</time></trkpt><trkpt lat="43.9266401" lon="12.320352"><ele>211.0</ele><time>2026-04-05T09:36:26.591Z</time></trkpt><trkpt lat="43.9267299" lon="12.3205062"><ele>211.0</ele><time>2026-04-05T09:36:27.59Z</time></trkpt><trkpt lat="43.9268167" lon="12.3206649"><ele>211.0</ele><time>2026-04-05T09:36:28.59Z</time></trkpt><trkpt lat="43.9269019" lon="12.3208218"><ele>210.25</ele><time>2026-04-05T09:36:29.591Z</time></trkpt><trkpt lat="43.9269901" lon="12.3209746"><ele>209.5</ele><time>2026-04-05T09:36:30.59Z</time></trkpt><trkpt lat="43.9270782" lon="12.3211337"><ele>208.75</ele><time>2026-04-05T09:36:31.59Z</time></trkpt><trkpt lat="43.9271677" lon="12.3212914"><ele>208.0</ele><time>2026-04-05T09:36:32.59Z</time></trkpt><trkpt lat="43.9272591" lon="12.3214447"><ele>207.5</ele><time>2026-04-05T09:36:33.591Z</time></trkpt><trkpt lat="43.9273483" lon="12.3215967"><ele>207.0</ele><time>2026-04-05T09:36:34.59Z</time></trkpt><trkpt lat="43.9274362" lon="12.3217489"><ele>206.5</ele><time>2026-04-05T09:36:35.59Z</time></trkpt><trkpt lat="43.9275328" lon="12.3218937"><ele>206.0</ele><time>2026-04-05T09:36:36.59Z</time></trkpt><trkpt lat="43.9276253" lon="12.3220319"><ele>205.5</ele><time>2026-04-05T09:36:37.591Z</time></trkpt><trkpt lat="43.9277176" lon="12.3221573"><ele>205.0</ele><time>2026-04-05T09:36:38.59Z</time></trkpt><trkpt lat="43.9278161" lon="12.3222711"><ele>204.5</ele><time>2026-04-05T09:36:39.591Z</time></trkpt><trkpt lat="43.9279144" lon="12.3223851"><ele>204.0</ele><time>2026-04-05T09:36:40.59Z</time></trkpt><trkpt lat="43.9280077" lon="12.3225013"><ele>204.2</ele><time>2026-04-05T09:36:41.591Z</time></trkpt><trkpt lat="43.9280956" lon="12.3226146"><ele>204.39999999999998</ele><time>2026-04-05T09:36:42.591Z</time></trkpt><trkpt lat="43.9281791" lon="12.3227181"><ele>204.6</ele><time>2026-04-05T09:36:43.591Z</time></trkpt><trkpt lat="43.9282635" lon="12.322811"><ele>204.8</ele><time>2026-04-05T09:36:44.59Z</time></trkpt><trkpt lat="43.9283361" lon="12.3228984"><ele>205.0</ele><time>2026-04-05T09:36:45.59Z</time></trkpt><trkpt lat="43.9283957" lon="12.3229897"><ele>204.6</ele><time>2026-04-05T09:36:46.59Z</time></trkpt><trkpt lat="43.9284437" lon="12.3231013"><ele>204.2</ele><time>2026-04-05T09:36:47.59Z</time></trkpt><trkpt lat="43.9284793" lon="12.323223"><ele>203.8</ele><time>2026-04-05T09:36:48.591Z</time></trkpt><trkpt lat="43.9285359" lon="12.3233279"><ele>203.4</ele><time>2026-04-05T09:36:49.591Z</time></trkpt><trkpt lat="43.9286223" lon="12.3234015"><ele>203.0</ele><time>2026-04-05T09:36:50.59Z</time></trkpt><trkpt lat="43.9287392" lon="12.323461"><ele>203.0</ele><time>2026-04-05T09:36:51.591Z</time></trkpt><trkpt lat="43.9288596" lon="12.3235515"><ele>203.0</ele><time>2026-04-05T09:36:52.59Z</time></trkpt><trkpt lat="43.9289862" lon="12.3236796"><ele>203.0</ele><time>2026-04-05T09:36:53.591Z</time></trkpt><trkpt lat="43.9291224" lon="12.3238358"><ele>202.33333333333334</ele><time>2026-04-05T09:36:54.591Z</time></trkpt><trkpt lat="43.9292561" lon="12.3239946"><ele>201.66666666666669</ele><time>2026-04-05T09:36:55.59Z</time></trkpt><trkpt lat="43.9293814" lon="12.3241448"><ele>201.0</ele><time>2026-04-05T09:36:56.591Z</time></trkpt><trkpt lat="43.9295007" lon="12.3242937"><ele>201.0</ele><time>2026-04-05T09:36:57.591Z</time></trkpt><trkpt lat="43.9296191" lon="12.3244432"><ele>201.0</ele><time>2026-04-05T09:36:58.591Z</time></trkpt><trkpt lat="43.9297438" lon="12.3245957"><ele>201.0</ele><time>2026-04-05T09:36:59.591Z</time></trkpt><trkpt lat="43.9298788" lon="12.3247567"><ele>201.0</ele><time>2026-04-05T09:37:00.591Z</time></trkpt><trkpt lat="43.9300283" lon="12.324946"><ele>201.0</ele><time>2026-04-05T09:37:01.591Z</time></trkpt><trkpt lat="43.930171" lon="12.3251674"><ele>201.0</ele><time>2026-04-05T09:37:02.59Z</time></trkpt><trkpt lat="43.9302983" lon="12.3254014"><ele>200.33333333333331</ele><time>2026-04-05T09:37:03.59Z</time></trkpt><trkpt lat="43.9304077" lon="12.3256275"><ele>199.66666666666666</ele><time>2026-04-05T09:37:04.591Z</time></trkpt><trkpt lat="43.9305128" lon="12.3258392"><ele>199.0</ele><time>2026-04-05T09:37:05.591Z</time></trkpt><trkpt lat="43.9306067" lon="12.3260418"><ele>199.0</ele><time>2026-04-05T09:37:06.591Z</time></trkpt><trkpt lat="43.9307015" lon="12.3262268"><ele>199.0</ele><time>2026-04-05T09:37:07.591Z</time></trkpt><trkpt lat="43.9307892" lon="12.3264082"><ele>199.0</ele><time>2026-04-05T09:37:08.59Z</time></trkpt><trkpt lat="43.9308689" lon="12.3265909"><ele>198.33333333333331</ele><time>2026-04-05T09:37:09.591Z</time></trkpt><trkpt lat="43.9309391" lon="12.3267966"><ele>197.66666666666669</ele><time>2026-04-05T09:37:10.59Z</time></trkpt><trkpt lat="43.9309974" lon="12.3270376"><ele>197.0</ele><time>2026-04-05T09:37:11.59Z</time></trkpt><trkpt lat="43.9310459" lon="12.3273252"><ele>197.0</ele><time>2026-04-05T09:37:12.59Z</time></trkpt><trkpt lat="43.9310891" lon="12.3276476"><ele>197.0</ele><time>2026-04-05T09:37:13.591Z</time></trkpt><trkpt lat="43.9311375" lon="12.3279917"><ele>196.0</ele><time>2026-04-05T09:37:14.59Z</time></trkpt><trkpt lat="43.9311959" lon="12.3283462"><ele>195.0</ele><time>2026-04-05T09:37:15.59Z</time></trkpt><trkpt lat="43.9312563" lon="12.3287093"><ele>194.5</ele><time>2026-04-05T09:37:16.591Z</time></trkpt><trkpt lat="43.9313164" lon="12.3290818"><ele>194.0</ele><time>2026-04-05T09:37:17.59Z</time></trkpt><trkpt lat="43.9313759" lon="12.3294493"><ele>193.0</ele><time>2026-04-05T09:37:18.591Z</time></trkpt><trkpt lat="43.9314354" lon="12.3298043"><ele>192.0</ele><time>2026-04-05T09:37:19.591Z</time></trkpt><trkpt lat="43.931498" lon="12.3301333"><ele>192.0</ele><time>2026-04-05T09:37:20.591Z</time></trkpt><trkpt lat="43.931558" lon="12.3304589"><ele>192.0</ele><time>2026-04-05T09:37:21.591Z</time></trkpt><trkpt lat="43.9316198" lon="12.3307707"><ele>190.33333333333334</ele><time>2026-04-05T09:37:22.591Z</time></trkpt><trkpt lat="43.9316763" lon="12.3310746"><ele>188.66666666666669</ele><time>2026-04-05T09:37:23.591Z</time></trkpt><trkpt lat="43.9317263" lon="12.3313713"><ele>187.0</ele><time>2026-04-05T09:37:24.59Z</time></trkpt><trkpt lat="43.9318042" lon="12.3316519"><ele>185.0</ele><time>2026-04-05T09:37:25.59Z</time></trkpt><trkpt lat="43.9319176" lon="12.3319233"><ele>183.0</ele><time>2026-04-05T09:37:26.591Z</time></trkpt><trkpt lat="43.9320736" lon="12.3321862"><ele>183.0</ele><time>2026-04-05T09:37:27.591Z</time></trkpt><trkpt lat="43.932254" lon="12.3324411"><ele>183.0</ele><time>2026-04-05T09:37:28.591Z</time></trkpt><trkpt lat="43.9324423" lon="12.3326937"><ele>184.0</ele><time>2026-04-05T09:37:29.591Z</time></trkpt><trkpt lat="43.93263" lon="12.332953"><ele>185.0</ele><time>2026-04-05T09:37:30.591Z</time></trkpt><trkpt lat="43.9328145" lon="12.3332168"><ele>185.5</ele><time>2026-04-05T09:37:31.59Z</time></trkpt><trkpt lat="43.9330033" lon="12.3334825"><ele>186.0</ele><time>2026-04-05T09:37:32.591Z</time></trkpt><trkpt lat="43.9331903" lon="12.3337487"><ele>184.5</ele><time>2026-04-05T09:37:33.591Z</time></trkpt><trkpt lat="43.9333802" lon="12.3340187"><ele>183.0</ele><time>2026-04-05T09:37:34.59Z</time></trkpt><trkpt lat="43.9335698" lon="12.3342923"><ele>182.5</ele><time>2026-04-05T09:37:35.591Z</time></trkpt><trkpt lat="43.9337589" lon="12.3345699"><ele>182.0</ele><time>2026-04-05T09:37:36.59Z</time></trkpt><trkpt lat="43.9339512" lon="12.3348427"><ele>181.5</ele><time>2026-04-05T09:37:37.591Z</time></trkpt><trkpt lat="43.9341411" lon="12.3351181"><ele>181.0</ele><time>2026-04-05T09:37:38.59Z</time></trkpt><trkpt lat="43.9343326" lon="12.3353922"><ele>183.5</ele><time>2026-04-05T09:37:39.59Z</time></trkpt><trkpt lat="43.9345142" lon="12.335657"><ele>186.0</ele><time>2026-04-05T09:37:40.591Z</time></trkpt><trkpt lat="43.9346843" lon="12.3359049"><ele>186.0</ele><time>2026-04-05T09:37:41.591Z</time></trkpt><trkpt lat="43.9348466" lon="12.3361454"><ele>186.0</ele><time>2026-04-05T09:37:42.591Z</time></trkpt><trkpt lat="43.9350082" lon="12.3363774"><ele>191.0</ele><time>2026-04-05T09:37:43.591Z</time></trkpt><trkpt lat="43.9351723" lon="12.3366029"><ele>196.0</ele><time>2026-04-05T09:37:44.59Z</time></trkpt><trkpt lat="43.9353308" lon="12.336827"><ele>196.0</ele><time>2026-04-05T09:37:45.591Z</time></trkpt><trkpt lat="43.935481" lon="12.3370574"><ele>196.0</ele><time>2026-04-05T09:37:46.591Z</time></trkpt><trkpt lat="43.9356121" lon="12.3373006"><ele>196.0</ele><time>2026-04-05T09:37:47.591Z</time></trkpt><trkpt lat="43.935711" lon="12.3375701"><ele>193.66666666666666</ele><time>2026-04-05T09:37:48.59Z</time></trkpt><trkpt lat="43.935775" lon="12.3378661"><ele>191.33333333333331</ele><time>2026-04-05T09:37:49.59Z</time></trkpt><trkpt lat="43.9358067" lon="12.3381777"><ele>189.0</ele><time>2026-04-05T09:37:50.591Z</time></trkpt><trkpt lat="43.9358067" lon="12.3384986"><ele>188.0</ele><time>2026-04-05T09:37:51.591Z</time></trkpt><trkpt lat="43.9357893" lon="12.3388095"><ele>187.0</ele><time>2026-04-05T09:37:52.591Z</time></trkpt><trkpt lat="43.9357691" lon="12.3390994"><ele>186.0</ele><time>2026-04-05T09:37:53.591Z</time></trkpt><trkpt lat="43.9357613" lon="12.3393756"><ele>186.0</ele><time>2026-04-05T09:37:54.591Z</time></trkpt><trkpt lat="43.9357759" lon="12.339639"><ele>186.0</ele><time>2026-04-05T09:37:55.59Z</time></trkpt><trkpt lat="43.9358163" lon="12.3399075"><ele>186.0</ele><time>2026-04-05T09:37:56.591Z</time></trkpt><trkpt lat="43.9358769" lon="12.3401814"><ele>189.33333333333331</ele><time>2026-04-05T09:37:57.591Z</time></trkpt><trkpt lat="43.9359383" lon="12.3404551"><ele>192.66666666666666</ele><time>2026-04-05T09:37:58.591Z</time></trkpt><trkpt lat="43.9359937" lon="12.3407185"><ele>196.0</ele><time>2026-04-05T09:37:59.591Z</time></trkpt><trkpt lat="43.9360521" lon="12.3409616"><ele>196.0</ele><time>2026-04-05T09:38:00.591Z</time></trkpt><trkpt lat="43.9361042" lon="12.341187"><ele>196.0</ele><time>2026-04-05T09:38:01.59Z</time></trkpt><trkpt lat="43.936145" lon="12.3414013"><ele>196.0</ele><time>2026-04-05T09:38:02.591Z</time></trkpt><trkpt lat="43.9361694" lon="12.3416113"><ele>196.0</ele><time>2026-04-05T09:38:03.591Z</time></trkpt><trkpt lat="43.936167" lon="12.3418194"><ele>196.0</ele><time>2026-04-05T09:38:04.591Z</time></trkpt><trkpt lat="43.9361404" lon="12.3420167"><ele>196.0</ele><time>2026-04-05T09:38:05.591Z</time></trkpt><trkpt lat="43.936091" lon="12.3422012"><ele>196.0</ele><time>2026-04-05T09:38:06.591Z</time></trkpt><trkpt lat="43.9360162" lon="12.3423647"><ele>196.0</ele><time>2026-04-05T09:38:07.591Z</time></trkpt><trkpt lat="43.9359039" lon="12.342506"><ele>196.0</ele><time>2026-04-05T09:38:08.591Z</time></trkpt><trkpt lat="43.9357728" lon="12.3426283"><ele>196.0</ele><time>2026-04-05T09:38:09.591Z</time></trkpt><trkpt lat="43.9356313" lon="12.3427451"><ele>191.33333333333331</ele><time>2026-04-05T09:38:10.591Z</time></trkpt><trkpt lat="43.9354746" lon="12.3428441"><ele>186.66666666666666</ele><time>2026-04-05T09:38:11.59Z</time></trkpt><trkpt lat="43.9353097" lon="12.3429419"><ele>182.0</ele><time>2026-04-05T09:38:12.591Z</time></trkpt><trkpt lat="43.9351547" lon="12.3430388"><ele>181.25</ele><time>2026-04-05T09:38:13.591Z</time></trkpt><trkpt lat="43.9350107" lon="12.3431322"><ele>180.5</ele><time>2026-04-05T09:38:14.591Z</time></trkpt><trkpt lat="43.9348788" lon="12.3432214"><ele>179.75</ele><time>2026-04-05T09:38:15.59Z</time></trkpt><trkpt lat="43.934762" lon="12.3433227"><ele>179.0</ele><time>2026-04-05T09:38:16.591Z</time></trkpt><trkpt lat="43.9346622" lon="12.3434574"><ele>179.0</ele><time>2026-04-05T09:38:17.591Z</time></trkpt><trkpt lat="43.9345837" lon="12.3436398"><ele>179.0</ele><time>2026-04-05T09:38:18.591Z</time></trkpt><trkpt lat="43.9345269" lon="12.3438447"><ele>179.0</ele><time>2026-04-05T09:38:19.59Z</time></trkpt><trkpt lat="43.9344962" lon="12.3440534"><ele>179.0</ele><time>2026-04-05T09:38:20.59Z</time></trkpt><trkpt lat="43.934475" lon="12.3442514"><ele>179.0</ele><time>2026-04-05T09:38:21.591Z</time></trkpt><trkpt lat="43.9344777" lon="12.3444426"><ele>179.0</ele><time>2026-04-05T09:38:22.591Z</time></trkpt><trkpt lat="43.9345057" lon="12.3446305"><ele>179.0</ele><time>2026-04-05T09:38:23.59Z</time></trkpt><trkpt lat="43.9345662" lon="12.3448127"><ele>180.0</ele><time>2026-04-05T09:38:24.59Z</time></trkpt><trkpt lat="43.9346476" lon="12.3450015"><ele>181.0</ele><time>2026-04-05T09:38:25.591Z</time></trkpt><trkpt lat="43.9347418" lon="12.345198"><ele>182.0</ele><time>2026-04-05T09:38:26.59Z</time></trkpt><trkpt lat="43.9348427" lon="12.3454045"><ele>180.66666666666666</ele><time>2026-04-05T09:38:27.591Z</time></trkpt><trkpt lat="43.9349407" lon="12.3456157"><ele>179.33333333333334</ele><time>2026-04-05T09:38:28.59Z</time></trkpt><trkpt lat="43.935035" lon="12.3458192"><ele>178.0</ele><time>2026-04-05T09:38:29.59Z</time></trkpt><trkpt lat="43.9351395" lon="12.3459987"><ele>178.0</ele><time>2026-04-05T09:38:30.591Z</time></trkpt><trkpt lat="43.9352726" lon="12.3461499"><ele>178.0</ele><time>2026-04-05T09:38:31.591Z</time></trkpt><trkpt lat="43.9354367" lon="12.3462633"><ele>178.0</ele><time>2026-04-05T09:38:32.591Z</time></trkpt><trkpt lat="43.9356245" lon="12.3463603"><ele>179.66666666666669</ele><time>2026-04-05T09:38:33.591Z</time></trkpt><trkpt lat="43.9358221" lon="12.3464524"><ele>181.33333333333334</ele><time>2026-04-05T09:38:34.591Z</time></trkpt><trkpt lat="43.9360237" lon="12.3465539"><ele>183.0</ele><time>2026-04-05T09:38:35.591Z</time></trkpt><trkpt lat="43.9362252" lon="12.3466594"><ele>183.0</ele><time>2026-04-05T09:38:36.591Z</time></trkpt><trkpt lat="43.9364332" lon="12.346762"><ele>183.0</ele><time>2026-04-05T09:38:37.591Z</time></trkpt><trkpt lat="43.9366386" lon="12.3468588"><ele>183.0</ele><time>2026-04-05T09:38:38.59Z</time></trkpt><trkpt lat="43.9368394" lon="12.346963"><ele>183.33333333333334</ele><time>2026-04-05T09:38:39.591Z</time></trkpt><trkpt lat="43.9370402" lon="12.3470941"><ele>183.66666666666669</ele><time>2026-04-05T09:38:40.591Z</time></trkpt><trkpt lat="43.9372357" lon="12.3472541"><ele>184.0</ele><time>2026-04-05T09:38:41.59Z</time></trkpt><trkpt lat="43.9374151" lon="12.3474247"><ele>180.66666666666669</ele><time>2026-04-05T09:38:42.59Z</time></trkpt><trkpt lat="43.9375797" lon="12.347589"><ele>177.33333333333334</ele><time>2026-04-05T09:38:43.59Z</time></trkpt><trkpt lat="43.937734" lon="12.3477488"><ele>174.0</ele><time>2026-04-05T09:38:44.59Z</time></trkpt><trkpt lat="43.9378827" lon="12.3479015"><ele>176.66666666666666</ele><time>2026-04-05T09:38:45.591Z</time></trkpt><trkpt lat="43.9380163" lon="12.3480645"><ele>179.33333333333331</ele><time>2026-04-05T09:38:46.59Z</time></trkpt><trkpt lat="43.9381381" lon="12.3482524"><ele>182.0</ele><time>2026-04-05T09:38:47.591Z</time></trkpt><trkpt lat="43.9382347" lon="12.348466"><ele>182.0</ele><time>2026-04-05T09:38:48.591Z</time></trkpt><trkpt lat="43.9382986" lon="12.3487097"><ele>182.0</ele><time>2026-04-05T09:38:49.59Z</time></trkpt><trkpt lat="43.9383252" lon="12.3489861"><ele>182.0</ele><time>2026-04-05T09:38:50.591Z</time></trkpt><trkpt lat="43.9383171" lon="12.349288"><ele>182.5</ele><time>2026-04-05T09:38:51.591Z</time></trkpt><trkpt lat="43.93829" lon="12.3496034"><ele>183.0</ele><time>2026-04-05T09:38:52.59Z</time></trkpt><trkpt lat="43.9382522" lon="12.349908"><ele>181.66666666666666</ele><time>2026-04-05T09:38:53.591Z</time></trkpt><trkpt lat="43.938213" lon="12.3501934"><ele>180.33333333333331</ele><time>2026-04-05T09:38:54.591Z</time></trkpt><trkpt lat="43.9381854" lon="12.3504631"><ele>179.0</ele><time>2026-04-05T09:38:55.591Z</time></trkpt><trkpt lat="43.9381645" lon="12.3507233"><ele>179.0</ele><time>2026-04-05T09:38:56.591Z</time></trkpt><trkpt lat="43.9381658" lon="12.3509705"><ele>179.0</ele><time>2026-04-05T09:38:57.59Z</time></trkpt><trkpt lat="43.9382096" lon="12.351214"><ele>179.0</ele><time>2026-04-05T09:38:58.591Z</time></trkpt><trkpt lat="43.9382955" lon="12.3514439"><ele>175.0</ele><time>2026-04-05T09:38:59.591Z</time></trkpt><trkpt lat="43.938416" lon="12.3516627"><ele>171.0</ele><time>2026-04-05T09:39:00.59Z</time></trkpt><trkpt lat="43.9385608" lon="12.3518773"><ele>167.0</ele><time>2026-04-05T09:39:01.591Z</time></trkpt><trkpt lat="43.9387144" lon="12.3520894"><ele>168.33333333333331</ele><time>2026-04-05T09:39:02.59Z</time></trkpt><trkpt lat="43.9388657" lon="12.3523045"><ele>169.66666666666666</ele><time>2026-04-05T09:39:03.59Z</time></trkpt><trkpt lat="43.9390155" lon="12.3525211"><ele>171.0</ele><time>2026-04-05T09:39:04.591Z</time></trkpt><trkpt lat="43.9391579" lon="12.352732"><ele>169.33333333333334</ele><time>2026-04-05T09:39:05.591Z</time></trkpt><trkpt lat="43.9392988" lon="12.352932"><ele>167.66666666666669</ele><time>2026-04-05T09:39:06.59Z</time></trkpt><trkpt lat="43.9394402" lon="12.3531206"><ele>166.0</ele><time>2026-04-05T09:39:07.59Z</time></trkpt><trkpt lat="43.9395921" lon="12.3532949"><ele>166.0</ele><time>2026-04-05T09:39:08.591Z</time></trkpt><trkpt lat="43.939753" lon="12.3534669"><ele>166.0</ele><time>2026-04-05T09:39:09.591Z</time></trkpt><trkpt lat="43.9399141" lon="12.3536335"><ele>166.0</ele><time>2026-04-05T09:39:10.59Z</time></trkpt><trkpt lat="43.9400694" lon="12.3537921"><ele>165.0</ele><time>2026-04-05T09:39:11.59Z</time></trkpt><trkpt lat="43.9402247" lon="12.3539373"><ele>164.0</ele><time>2026-04-05T09:39:12.591Z</time></trkpt><trkpt lat="43.940378" lon="12.354081"><ele>163.0</ele><time>2026-04-05T09:39:13.591Z</time></trkpt><trkpt lat="43.940536" lon="12.3542288"><ele>163.0</ele><time>2026-04-05T09:39:14.591Z</time></trkpt><trkpt lat="43.9406971" lon="12.354375"><ele>163.0</ele><time>2026-04-05T09:39:15.59Z</time></trkpt><trkpt lat="43.9408603" lon="12.3545254"><ele>163.0</ele><time>2026-04-05T09:39:16.591Z</time></trkpt><trkpt lat="43.9410338" lon="12.354681"><ele>163.0</ele><time>2026-04-05T09:39:17.591Z</time></trkpt><trkpt lat="43.9412184" lon="12.3548424"><ele>163.0</ele><time>2026-04-05T09:39:18.591Z</time></trkpt><trkpt lat="43.9414067" lon="12.355008"><ele>163.0</ele><time>2026-04-05T09:39:19.591Z</time></trkpt><trkpt lat="43.9415961" lon="12.3551805"><ele>162.0</ele><time>2026-04-05T09:39:20.591Z</time></trkpt><trkpt lat="43.9417914" lon="12.3553618"><ele>161.0</ele><time>2026-04-05T09:39:21.591Z</time></trkpt><trkpt lat="43.9419884" lon="12.3555424"><ele>160.5</ele><time>2026-04-05T09:39:22.591Z</time></trkpt><trkpt lat="43.9421871" lon="12.3557218"><ele>160.0</ele><time>2026-04-05T09:39:23.591Z</time></trkpt><trkpt lat="43.9423861" lon="12.3558991"><ele>160.5</ele><time>2026-04-05T09:39:24.591Z</time></trkpt><trkpt lat="43.9425884" lon="12.3560786"><ele>161.0</ele><time>2026-04-05T09:39:25.59Z</time></trkpt><trkpt lat="43.9427869" lon="12.3562592"><ele>161.5</ele><time>2026-04-05T09:39:26.591Z</time></trkpt><trkpt lat="43.9429806" lon="12.3564391"><ele>162.0</ele><time>2026-04-05T09:39:27.59Z</time></trkpt><trkpt lat="43.9431565" lon="12.3566294"><ele>162.0</ele><time>2026-04-05T09:39:28.591Z</time></trkpt><trkpt lat="43.9433196" lon="12.3568335"><ele>162.0</ele><time>2026-04-05T09:39:29.59Z</time></trkpt><trkpt lat="43.9434751" lon="12.3570605"><ele>162.0</ele><time>2026-04-05T09:39:30.591Z</time></trkpt><trkpt lat="43.9436318" lon="12.3573071"><ele>161.0</ele><time>2026-04-05T09:39:31.591Z</time></trkpt><trkpt lat="43.9437857" lon="12.3575575"><ele>160.0</ele><time>2026-04-05T09:39:32.591Z</time></trkpt><trkpt lat="43.9439346" lon="12.3578009"><ele>161.0</ele><time>2026-04-05T09:39:33.59Z</time></trkpt><trkpt lat="43.9440823" lon="12.3580394"><ele>162.0</ele><time>2026-04-05T09:39:34.591Z</time></trkpt><trkpt lat="43.9442362" lon="12.3582765"><ele>160.0</ele><time>2026-04-05T09:39:35.591Z</time></trkpt><trkpt lat="43.9443983" lon="12.3585237"><ele>158.0</ele><time>2026-04-05T09:39:36.591Z</time></trkpt><trkpt lat="43.9445644" lon="12.3587816"><ele>159.0</ele><time>2026-04-05T09:39:37.59Z</time></trkpt><trkpt lat="43.9447318" lon="12.3590377"><ele>160.0</ele><time>2026-04-05T09:39:38.591Z</time></trkpt><trkpt lat="43.9448858" lon="12.3592808"><ele>160.0</ele><time>2026-04-05T09:39:39.591Z</time></trkpt><trkpt lat="43.945026" lon="12.359517"><ele>160.0</ele><time>2026-04-05T09:39:40.59Z</time></trkpt><trkpt lat="43.9451605" lon="12.3597398"><ele>160.0</ele><time>2026-04-05T09:39:41.591Z</time></trkpt><trkpt lat="43.9452904" lon="12.3599455"><ele>160.0</ele><time>2026-04-05T09:39:42.59Z</time></trkpt><trkpt lat="43.9454203" lon="12.3601323"><ele>160.0</ele><time>2026-04-05T09:39:43.59Z</time></trkpt><trkpt lat="43.945549" lon="12.3602986"><ele>160.0</ele><time>2026-04-05T09:39:44.591Z</time></trkpt><trkpt lat="43.9456758" lon="12.3604374"><ele>160.33333333333334</ele><time>2026-04-05T09:39:45.591Z</time></trkpt><trkpt lat="43.9458066" lon="12.3605474"><ele>160.66666666666666</ele><time>2026-04-05T09:39:46.591Z</time></trkpt><trkpt lat="43.9459445" lon="12.3606535"><ele>161.0</ele><time>2026-04-05T09:39:47.591Z</time></trkpt><trkpt lat="43.9460851" lon="12.3607578"><ele>161.0</ele><time>2026-04-05T09:39:48.591Z</time></trkpt><trkpt lat="43.9462266" lon="12.3608619"><ele>161.0</ele><time>2026-04-05T09:39:49.59Z</time></trkpt><trkpt lat="43.9463643" lon="12.3609595"><ele>161.0</ele><time>2026-04-05T09:39:50.591Z</time></trkpt><trkpt lat="43.9465046" lon="12.3610574"><ele>161.0</ele><time>2026-04-05T09:39:51.591Z</time></trkpt><trkpt lat="43.9466612" lon="12.3611773"><ele>161.0</ele><time>2026-04-05T09:39:52.591Z</time></trkpt><trkpt lat="43.9468329" lon="12.3613265"><ele>161.0</ele><time>2026-04-05T09:39:53.591Z</time></trkpt><trkpt lat="43.9469995" lon="12.3614971"><ele>161.66666666666666</ele><time>2026-04-05T09:39:54.591Z</time></trkpt><trkpt lat="43.947153" lon="12.3616607"><ele>162.33333333333334</ele><time>2026-04-05T09:39:55.591Z</time></trkpt><trkpt lat="43.9473082" lon="12.3618207"><ele>163.0</ele><time>2026-04-05T09:39:56.591Z</time></trkpt><trkpt lat="43.9474641" lon="12.3619826"><ele>163.0</ele><time>2026-04-05T09:39:57.591Z</time></trkpt><trkpt lat="43.9476186" lon="12.3621513"><ele>163.0</ele><time>2026-04-05T09:39:58.591Z</time></trkpt><trkpt lat="43.9477656" lon="12.3623291"><ele>163.0</ele><time>2026-04-05T09:39:59.59Z</time></trkpt><trkpt lat="43.9479081" lon="12.3625162"><ele>163.0</ele><time>2026-04-05T09:40:00.591Z</time></trkpt><trkpt lat="43.9480405" lon="12.3627246"><ele>163.0</ele><time>2026-04-05T09:40:01.591Z</time></trkpt><trkpt lat="43.9481675" lon="12.3629494"><ele>163.0</ele><time>2026-04-05T09:40:02.591Z</time></trkpt><trkpt lat="43.9482838" lon="12.3631886"><ele>162.33333333333334</ele><time>2026-04-05T09:40:03.591Z</time></trkpt><trkpt lat="43.9483898" lon="12.3634403"><ele>161.66666666666666</ele><time>2026-04-05T09:40:04.591Z</time></trkpt><trkpt lat="43.9484867" lon="12.3637065"><ele>161.0</ele><time>2026-04-05T09:40:05.591Z</time></trkpt><trkpt lat="43.9485874" lon="12.3639705"><ele>161.0</ele><time>2026-04-05T09:40:06.591Z</time></trkpt><trkpt lat="43.9486832" lon="12.364229"><ele>161.0</ele><time>2026-04-05T09:40:07.591Z</time></trkpt><trkpt lat="43.9487749" lon="12.3644826"><ele>161.0</ele><time>2026-04-05T09:40:08.59Z</time></trkpt><trkpt lat="43.9488764" lon="12.364726"><ele>163.0</ele><time>2026-04-05T09:40:09.591Z</time></trkpt><trkpt lat="43.9489872" lon="12.3649645"><ele>165.0</ele><time>2026-04-05T09:40:10.591Z</time></trkpt><trkpt lat="43.9491081" lon="12.3651906"><ele>167.0</ele><time>2026-04-05T09:40:11.591Z</time></trkpt><trkpt lat="43.9492442" lon="12.3653998"><ele>167.0</ele><time>2026-04-05T09:40:12.591Z</time></trkpt><trkpt lat="43.9493939" lon="12.3655998"><ele>167.0</ele><time>2026-04-05T09:40:13.59Z</time></trkpt><trkpt lat="43.9495452" lon="12.3657956"><ele>167.0</ele><time>2026-04-05T09:40:14.59Z</time></trkpt><trkpt lat="43.9497006" lon="12.3659917"><ele>167.0</ele><time>2026-04-05T09:40:15.591Z</time></trkpt><trkpt lat="43.9498628" lon="12.366185"><ele>167.0</ele><time>2026-04-05T09:40:16.59Z</time></trkpt><trkpt lat="43.9500302" lon="12.3663759"><ele>167.0</ele><time>2026-04-05T09:40:17.591Z</time></trkpt><trkpt lat="43.9502059" lon="12.366569"><ele>162.0</ele><time>2026-04-05T09:40:18.591Z</time></trkpt><trkpt lat="43.950387" lon="12.3667719"><ele>157.0</ele><time>2026-04-05T09:40:19.59Z</time></trkpt><trkpt lat="43.9505646" lon="12.3669785"><ele>157.0</ele><time>2026-04-05T09:40:20.591Z</time></trkpt><trkpt lat="43.950735" lon="12.3671725"><ele>157.0</ele><time>2026-04-05T09:40:21.59Z</time></trkpt><trkpt lat="43.9509031" lon="12.3673661"><ele>157.0</ele><time>2026-04-05T09:40:22.59Z</time></trkpt><trkpt lat="43.9510697" lon="12.3675556"><ele>158.0</ele><time>2026-04-05T09:40:23.591Z</time></trkpt><trkpt lat="43.9512331" lon="12.3677375"><ele>159.0</ele><time>2026-04-05T09:40:24.591Z</time></trkpt><trkpt lat="43.9513834" lon="12.3679143"><ele>160.0</ele><time>2026-04-05T09:40:25.591Z</time></trkpt><trkpt lat="43.9515241" lon="12.368085"><ele>161.66666666666669</ele><time>2026-04-05T09:40:26.591Z</time></trkpt><trkpt lat="43.9516533" lon="12.3682527"><ele>163.33333333333334</ele><time>2026-04-05T09:40:27.591Z</time></trkpt><trkpt lat="43.9517744" lon="12.3684143"><ele>165.0</ele><time>2026-04-05T09:40:28.591Z</time></trkpt><trkpt lat="43.9518911" lon="12.3685844"><ele>165.0</ele><time>2026-04-05T09:40:29.59Z</time></trkpt><trkpt lat="43.9520021" lon="12.368759"><ele>165.0</ele><time>2026-04-05T09:40:30.59Z</time></trkpt><trkpt lat="43.9521142" lon="12.3689453"><ele>165.0</ele><time>2026-04-05T09:40:31.591Z</time></trkpt><trkpt lat="43.9522228" lon="12.3691474"><ele>165.66666666666666</ele><time>2026-04-05T09:40:32.591Z</time></trkpt><trkpt lat="43.9523177" lon="12.3693678"><ele>166.33333333333331</ele><time>2026-04-05T09:40:33.591Z</time></trkpt><trkpt lat="43.9524009" lon="12.3695987"><ele>167.0</ele><time>2026-04-05T09:40:34.591Z</time></trkpt><trkpt lat="43.9524739" lon="12.3698371"><ele>165.33333333333331</ele><time>2026-04-05T09:40:35.591Z</time></trkpt><trkpt lat="43.9525416" lon="12.3700609"><ele>163.66666666666666</ele><time>2026-04-05T09:40:36.591Z</time></trkpt><trkpt lat="43.9526074" lon="12.3702712"><ele>162.0</ele><time>2026-04-05T09:40:37.591Z</time></trkpt><trkpt lat="43.9526678" lon="12.3704729"><ele>162.5</ele><time>2026-04-05T09:40:38.591Z</time></trkpt><trkpt lat="43.952723" lon="12.3706666"><ele>163.0</ele><time>2026-04-05T09:40:39.591Z</time></trkpt><trkpt lat="43.9527754" lon="12.3708492"><ele>163.5</ele><time>2026-04-05T09:40:40.59Z</time></trkpt><trkpt lat="43.9528223" lon="12.3710233"><ele>164.0</ele><time>2026-04-05T09:40:41.591Z</time></trkpt><trkpt lat="43.9528716" lon="12.3711896"><ele>164.0</ele><time>2026-04-05T09:40:42.591Z</time></trkpt><trkpt lat="43.9529205" lon="12.3713463"><ele>164.0</ele><time>2026-04-05T09:40:43.59Z</time></trkpt><trkpt lat="43.9529634" lon="12.3714954"><ele>164.0</ele><time>2026-04-05T09:40:44.59Z</time></trkpt><trkpt lat="43.9530063" lon="12.3716342"><ele>164.0</ele><time>2026-04-05T09:40:45.591Z</time></trkpt><trkpt lat="43.9530468" lon="12.3717711"><ele>164.0</ele><time>2026-04-05T09:40:46.59Z</time></trkpt><trkpt lat="43.9530837" lon="12.3719057"><ele>164.0</ele><time>2026-04-05T09:40:47.591Z</time></trkpt><trkpt lat="43.9531217" lon="12.3720321"><ele>164.0</ele><time>2026-04-05T09:40:48.59Z</time></trkpt><trkpt lat="43.9531595" lon="12.3721608"><ele>164.0</ele><time>2026-04-05T09:40:49.59Z</time></trkpt><trkpt lat="43.9531926" lon="12.3722851"><ele>164.0</ele><time>2026-04-05T09:40:50.59Z</time></trkpt><trkpt lat="43.9532295" lon="12.3724077"><ele>164.16666666666666</ele><time>2026-04-05T09:40:51.59Z</time></trkpt><trkpt lat="43.9532597" lon="12.3725187"><ele>164.33333333333331</ele><time>2026-04-05T09:40:52.59Z</time></trkpt><trkpt lat="43.953281" lon="12.3726101"><ele>164.5</ele><time>2026-04-05T09:40:53.591Z</time></trkpt><trkpt lat="43.9532915" lon="12.3727761"><ele>164.66666666666666</ele><time>2026-04-05T09:40:55.591Z</time></trkpt><trkpt lat="43.9532877" lon="12.372864"><ele>164.83333333333334</ele><time>2026-04-05T09:40:56.59Z</time></trkpt><trkpt lat="43.9532914" lon="12.3729592"><ele>165.0</ele><time>2026-04-05T09:40:57.59Z</time></trkpt><trkpt lat="43.9533182" lon="12.3730537"><ele>165.2</ele><time>2026-04-05T09:40:58.591Z</time></trkpt><trkpt lat="43.9533629" lon="12.3731462"><ele>165.4</ele><time>2026-04-05T09:40:59.591Z</time></trkpt><trkpt lat="43.9534216" lon="12.3732393"><ele>165.60000000000002</ele><time>2026-04-05T09:41:00.59Z</time></trkpt><trkpt lat="43.9534876" lon="12.3733417"><ele>165.8</ele><time>2026-04-05T09:41:01.591Z</time></trkpt><trkpt lat="43.9535435" lon="12.3734639"><ele>166.0</ele><time>2026-04-05T09:41:02.59Z</time></trkpt><trkpt lat="43.9535907" lon="12.3736156"><ele>165.0</ele><time>2026-04-05T09:41:03.591Z</time></trkpt><trkpt lat="43.9536385" lon="12.3737814"><ele>164.0</ele><time>2026-04-05T09:41:04.59Z</time></trkpt><trkpt lat="43.9536924" lon="12.3739672"><ele>163.0</ele><time>2026-04-05T09:41:05.59Z</time></trkpt><trkpt lat="43.9537509" lon="12.3741707"><ele>162.0</ele><time>2026-04-05T09:41:06.591Z</time></trkpt><trkpt lat="43.9538113" lon="12.3743828"><ele>162.0</ele><time>2026-04-05T09:41:07.591Z</time></trkpt><trkpt lat="43.9538734" lon="12.3746104"><ele>162.0</ele><time>2026-04-05T09:41:08.59Z</time></trkpt><trkpt lat="43.9539446" lon="12.3748429"><ele>162.0</ele><time>2026-04-05T09:41:09.591Z</time></trkpt><trkpt lat="43.9540183" lon="12.3750855"><ele>162.33333333333334</ele><time>2026-04-05T09:41:10.591Z</time></trkpt><trkpt lat="43.9540938" lon="12.3753411"><ele>162.66666666666669</ele><time>2026-04-05T09:41:11.591Z</time></trkpt><trkpt lat="43.954167" lon="12.3756042"><ele>163.0</ele><time>2026-04-05T09:41:12.591Z</time></trkpt><trkpt lat="43.9542469" lon="12.3758675"><ele>161.0</ele><time>2026-04-05T09:41:13.591Z</time></trkpt><trkpt lat="43.9543269" lon="12.3761325"><ele>159.0</ele><time>2026-04-05T09:41:14.591Z</time></trkpt><trkpt lat="43.954408" lon="12.3763906"><ele>157.0</ele><time>2026-04-05T09:41:15.591Z</time></trkpt><trkpt lat="43.9544961" lon="12.3766275"><ele>157.0</ele><time>2026-04-05T09:41:16.59Z</time></trkpt><trkpt lat="43.9545851" lon="12.3768534"><ele>157.0</ele><time>2026-04-05T09:41:17.591Z</time></trkpt><trkpt lat="43.9546814" lon="12.3770819"><ele>157.0</ele><time>2026-04-05T09:41:18.591Z</time></trkpt><trkpt lat="43.95478" lon="12.3773168"><ele>158.33333333333334</ele><time>2026-04-05T09:41:19.591Z</time></trkpt><trkpt lat="43.9548756" lon="12.3775546"><ele>159.66666666666666</ele><time>2026-04-05T09:41:20.59Z</time></trkpt><trkpt lat="43.9549775" lon="12.3777946"><ele>161.0</ele><time>2026-04-05T09:41:21.591Z</time></trkpt><trkpt lat="43.9550858" lon="12.3780374"><ele>156.0</ele><time>2026-04-05T09:41:22.591Z</time></trkpt><trkpt lat="43.9552028" lon="12.3783057"><ele>151.0</ele><time>2026-04-05T09:41:23.591Z</time></trkpt><trkpt lat="43.9553197" lon="12.3786001"><ele>152.0</ele><time>2026-04-05T09:41:24.591Z</time></trkpt><trkpt lat="43.95544" lon="12.3789082"><ele>153.0</ele><time>2026-04-05T09:41:25.591Z</time></trkpt><trkpt lat="43.9555546" lon="12.379207"><ele>153.0</ele><time>2026-04-05T09:41:26.59Z</time></trkpt><trkpt lat="43.955673" lon="12.3794913"><ele>153.0</ele><time>2026-04-05T09:41:27.591Z</time></trkpt><trkpt lat="43.9557901" lon="12.3797727"><ele>146.5</ele><time>2026-04-05T09:41:28.591Z</time></trkpt><trkpt lat="43.955907" lon="12.3800619"><ele>140.0</ele><time>2026-04-05T09:41:29.591Z</time></trkpt><trkpt lat="43.9560285" lon="12.3803558"><ele>143.5</ele><time>2026-04-05T09:41:30.59Z</time></trkpt><trkpt lat="43.9561516" lon="12.380659"><ele>147.0</ele><time>2026-04-05T09:41:31.59Z</time></trkpt><trkpt lat="43.9562758" lon="12.3809654"><ele>147.0</ele><time>2026-04-05T09:41:32.591Z</time></trkpt><trkpt lat="43.9564038" lon="12.3812787"><ele>147.0</ele><time>2026-04-05T09:41:33.591Z</time></trkpt><trkpt lat="43.9565355" lon="12.3816003"><ele>149.5</ele><time>2026-04-05T09:41:34.591Z</time></trkpt><trkpt lat="43.9566644" lon="12.3819118"><ele>152.0</ele><time>2026-04-05T09:41:35.59Z</time></trkpt><trkpt lat="43.9567916" lon="12.3822125"><ele>146.0</ele><time>2026-04-05T09:41:36.59Z</time></trkpt><trkpt lat="43.956912" lon="12.3825086"><ele>140.0</ele><time>2026-04-05T09:41:37.59Z</time></trkpt><trkpt lat="43.9570303" lon="12.3827971"><ele>143.5</ele><time>2026-04-05T09:41:38.591Z</time></trkpt><trkpt lat="43.9571469" lon="12.383075"><ele>147.0</ele><time>2026-04-05T09:41:39.59Z</time></trkpt><trkpt lat="43.9572595" lon="12.3833413"><ele>147.0</ele><time>2026-04-05T09:41:40.591Z</time></trkpt><trkpt lat="43.9573591" lon="12.3835971"><ele>147.0</ele><time>2026-04-05T09:41:41.591Z</time></trkpt><trkpt lat="43.9574567" lon="12.3838455"><ele>147.0</ele><time>2026-04-05T09:41:42.591Z</time></trkpt><trkpt lat="43.9575564" lon="12.3840915"><ele>142.66666666666666</ele><time>2026-04-05T09:41:43.591Z</time></trkpt><trkpt lat="43.9576529" lon="12.3843411"><ele>138.33333333333331</ele><time>2026-04-05T09:41:44.591Z</time></trkpt><trkpt lat="43.9577354" lon="12.3846094"><ele>134.0</ele><time>2026-04-05T09:41:45.591Z</time></trkpt><trkpt lat="43.9577949" lon="12.3849023"><ele>134.5</ele><time>2026-04-05T09:41:46.591Z</time></trkpt><trkpt lat="43.9578356" lon="12.3852109"><ele>135.0</ele><time>2026-04-05T09:41:47.591Z</time></trkpt><trkpt lat="43.957858" lon="12.3855329"><ele>135.0</ele><time>2026-04-05T09:41:48.591Z</time></trkpt><trkpt lat="43.9578576" lon="12.3858602"><ele>135.0</ele><time>2026-04-05T09:41:49.591Z</time></trkpt><trkpt lat="43.9578386" lon="12.3861729"><ele>134.66666666666666</ele><time>2026-04-05T09:41:50.591Z</time></trkpt><trkpt lat="43.9577982" lon="12.3864688"><ele>134.33333333333331</ele><time>2026-04-05T09:41:51.59Z</time></trkpt><trkpt lat="43.9577432" lon="12.386753"><ele>134.0</ele><time>2026-04-05T09:41:52.59Z</time></trkpt><trkpt lat="43.9576755" lon="12.387027"><ele>135.33333333333331</ele><time>2026-04-05T09:41:53.59Z</time></trkpt><trkpt lat="43.9576085" lon="12.387292"><ele>136.66666666666666</ele><time>2026-04-05T09:41:54.59Z</time></trkpt><trkpt lat="43.9575448" lon="12.3875457"><ele>138.0</ele><time>2026-04-05T09:41:55.591Z</time></trkpt><trkpt lat="43.9574799" lon="12.3877908"><ele>136.66666666666666</ele><time>2026-04-05T09:41:56.591Z</time></trkpt><trkpt lat="43.9574163" lon="12.388027"><ele>135.33333333333331</ele><time>2026-04-05T09:41:57.591Z</time></trkpt><trkpt lat="43.9573556" lon="12.3882589"><ele>134.0</ele><time>2026-04-05T09:41:58.591Z</time></trkpt><trkpt lat="43.9572931" lon="12.3884913"><ele>134.0</ele><time>2026-04-05T09:41:59.591Z</time></trkpt><trkpt lat="43.9572364" lon="12.3887163"><ele>134.0</ele><time>2026-04-05T09:42:00.59Z</time></trkpt><trkpt lat="43.9571786" lon="12.3889421"><ele>134.0</ele><time>2026-04-05T09:42:01.591Z</time></trkpt><trkpt lat="43.957123" lon="12.3891666"><ele>133.0</ele><time>2026-04-05T09:42:02.591Z</time></trkpt><trkpt lat="43.9570755" lon="12.3893974"><ele>132.0</ele><time>2026-04-05T09:42:03.591Z</time></trkpt><trkpt lat="43.957038" lon="12.3896403"><ele>131.0</ele><time>2026-04-05T09:42:04.59Z</time></trkpt><trkpt lat="43.9570127" lon="12.3899089"><ele>131.0</ele><time>2026-04-05T09:42:05.591Z</time></trkpt><trkpt lat="43.9569876" lon="12.3902002"><ele>131.0</ele><time>2026-04-05T09:42:06.591Z</time></trkpt><trkpt lat="43.9569666" lon="12.3904926"><ele>131.0</ele><time>2026-04-05T09:42:07.591Z</time></trkpt><trkpt lat="43.9569575" lon="12.3907786"><ele>130.66666666666666</ele><time>2026-04-05T09:42:08.591Z</time></trkpt><trkpt lat="43.9569647" lon="12.3910496"><ele>130.33333333333334</ele><time>2026-04-05T09:42:09.591Z</time></trkpt><trkpt lat="43.9569817" lon="12.391311"><ele>130.0</ele><time>2026-04-05T09:42:10.591Z</time></trkpt><trkpt lat="43.9570151" lon="12.3915676"><ele>130.0</ele><time>2026-04-05T09:42:11.591Z</time></trkpt><trkpt lat="43.9570604" lon="12.3918156"><ele>130.0</ele><time>2026-04-05T09:42:12.591Z</time></trkpt><trkpt lat="43.9571148" lon="12.3920514"><ele>130.0</ele><time>2026-04-05T09:42:13.59Z</time></trkpt><trkpt lat="43.9571799" lon="12.3922895"><ele>130.33333333333334</ele><time>2026-04-05T09:42:14.591Z</time></trkpt><trkpt lat="43.9572635" lon="12.3925362"><ele>130.66666666666666</ele><time>2026-04-05T09:42:15.59Z</time></trkpt><trkpt lat="43.957357" lon="12.3928182"><ele>131.0</ele><time>2026-04-05T09:42:16.591Z</time></trkpt><trkpt lat="43.9574533" lon="12.3931262"><ele>129.0</ele><time>2026-04-05T09:42:17.59Z</time></trkpt><trkpt lat="43.9575571" lon="12.393451"><ele>127.0</ele><time>2026-04-05T09:42:18.59Z</time></trkpt><trkpt lat="43.9576801" lon="12.3937945"><ele>127.5</ele><time>2026-04-05T09:42:19.591Z</time></trkpt><trkpt lat="43.9578083" lon="12.3941591"><ele>128.0</ele><time>2026-04-05T09:42:20.591Z</time></trkpt><trkpt lat="43.9579382" lon="12.394535"><ele>130.0</ele><time>2026-04-05T09:42:21.591Z</time></trkpt><trkpt lat="43.958064" lon="12.3948935"><ele>132.0</ele><time>2026-04-05T09:42:22.591Z</time></trkpt><trkpt lat="43.958181" lon="12.3952229"><ele>129.5</ele><time>2026-04-05T09:42:23.591Z</time></trkpt><trkpt lat="43.9582876" lon="12.3955352"><ele>127.0</ele><time>2026-04-05T09:42:24.59Z</time></trkpt><trkpt lat="43.9583913" lon="12.3958283"><ele>127.0</ele><time>2026-04-05T09:42:25.591Z</time></trkpt><trkpt lat="43.958489" lon="12.3961112"><ele>127.0</ele><time>2026-04-05T09:42:26.59Z</time></trkpt><trkpt lat="43.9585885" lon="12.3963869"><ele>127.0</ele><time>2026-04-05T09:42:27.591Z</time></trkpt><trkpt lat="43.9586864" lon="12.3966554"><ele>128.0</ele><time>2026-04-05T09:42:28.591Z</time></trkpt><trkpt lat="43.9587829" lon="12.3969207"><ele>129.0</ele><time>2026-04-05T09:42:29.591Z</time></trkpt><trkpt lat="43.9588719" lon="12.3971694"><ele>130.0</ele><time>2026-04-05T09:42:30.591Z</time></trkpt><trkpt lat="43.9589599" lon="12.3974116"><ele>130.66666666666669</ele><time>2026-04-05T09:42:31.591Z</time></trkpt><trkpt lat="43.9590587" lon="12.3976411"><ele>131.33333333333334</ele><time>2026-04-05T09:42:32.59Z</time></trkpt><trkpt lat="43.9591646" lon="12.3978617"><ele>132.0</ele><time>2026-04-05T09:42:33.591Z</time></trkpt><trkpt lat="43.9592684" lon="12.3980869"><ele>132.0</ele><time>2026-04-05T09:42:34.591Z</time></trkpt><trkpt lat="43.959377" lon="12.3983195"><ele>132.0</ele><time>2026-04-05T09:42:35.591Z</time></trkpt><trkpt lat="43.9594982" lon="12.3985627"><ele>132.0</ele><time>2026-04-05T09:42:36.591Z</time></trkpt><trkpt lat="43.9596306" lon="12.3988161"><ele>128.5</ele><time>2026-04-05T09:42:37.59Z</time></trkpt><trkpt lat="43.9597688" lon="12.3990814"><ele>125.0</ele><time>2026-04-05T09:42:38.591Z</time></trkpt><trkpt lat="43.9599181" lon="12.399362"><ele>125.0</ele><time>2026-04-05T09:42:39.591Z</time></trkpt><trkpt lat="43.9600747" lon="12.3996524"><ele>125.0</ele><time>2026-04-05T09:42:40.59Z</time></trkpt><trkpt lat="43.960228" lon="12.3999357"><ele>125.0</ele><time>2026-04-05T09:42:41.591Z</time></trkpt><trkpt lat="43.9603704" lon="12.4002046"><ele>125.0</ele><time>2026-04-05T09:42:42.591Z</time></trkpt><trkpt lat="43.9605095" lon="12.4004541"><ele>124.33333333333333</ele><time>2026-04-05T09:42:43.591Z</time></trkpt><trkpt lat="43.9606436" lon="12.4006864"><ele>123.66666666666666</ele><time>2026-04-05T09:42:44.59Z</time></trkpt><trkpt lat="43.9607742" lon="12.4008945"><ele>123.0</ele><time>2026-04-05T09:42:45.59Z</time></trkpt><trkpt lat="43.9609083" lon="12.4010765"><ele>123.0</ele><time>2026-04-05T09:42:46.591Z</time></trkpt><trkpt lat="43.9610344" lon="12.4012313"><ele>123.0</ele><time>2026-04-05T09:42:47.59Z</time></trkpt><trkpt lat="43.9611424" lon="12.4013598"><ele>123.0</ele><time>2026-04-05T09:42:48.59Z</time></trkpt><trkpt lat="43.9612262" lon="12.4014804"><ele>123.0</ele><time>2026-04-05T09:42:49.59Z</time></trkpt><trkpt lat="43.9612895" lon="12.4015994"><ele>124.2</ele><time>2026-04-05T09:42:50.591Z</time></trkpt><trkpt lat="43.9613474" lon="12.4017097"><ele>125.4</ele><time>2026-04-05T09:42:51.59Z</time></trkpt><trkpt lat="43.9614198" lon="12.4017885"><ele>126.60000000000001</ele><time>2026-04-05T09:42:52.59Z</time></trkpt><trkpt lat="43.9615182" lon="12.4018256"><ele>127.80000000000001</ele><time>2026-04-05T09:42:53.591Z</time></trkpt><trkpt lat="43.9616605" lon="12.4018472"><ele>129.0</ele><time>2026-04-05T09:42:54.591Z</time></trkpt><trkpt lat="43.9618378" lon="12.4019021"><ele>129.0</ele><time>2026-04-05T09:42:55.591Z</time></trkpt><trkpt lat="43.9620359" lon="12.4020047"><ele>129.0</ele><time>2026-04-05T09:42:56.59Z</time></trkpt><trkpt lat="43.9622276" lon="12.4021252"><ele>129.0</ele><time>2026-04-05T09:42:57.591Z</time></trkpt><trkpt lat="43.9624053" lon="12.4022411"><ele>129.0</ele><time>2026-04-05T09:42:58.59Z</time></trkpt><trkpt lat="43.9625761" lon="12.4023459"><ele>129.0</ele><time>2026-04-05T09:42:59.59Z</time></trkpt><trkpt lat="43.9627511" lon="12.4024433"><ele>129.0</ele><time>2026-04-05T09:43:00.591Z</time></trkpt><trkpt lat="43.9629206" lon="12.4025435"><ele>129.0</ele><time>2026-04-05T09:43:01.591Z</time></trkpt><trkpt lat="43.9630914" lon="12.4026436"><ele>129.0</ele><time>2026-04-05T09:43:02.591Z</time></trkpt><trkpt lat="43.9632594" lon="12.4027593"><ele>129.0</ele><time>2026-04-05T09:43:03.591Z</time></trkpt><trkpt lat="43.9634291" lon="12.4028932"><ele>129.0</ele><time>2026-04-05T09:43:04.591Z</time></trkpt><trkpt lat="43.963602" lon="12.4030425"><ele>129.0</ele><time>2026-04-05T09:43:05.59Z</time></trkpt><trkpt lat="43.9637814" lon="12.4031993"><ele>129.0</ele><time>2026-04-05T09:43:06.591Z</time></trkpt><trkpt lat="43.9639579" lon="12.403374"><ele>129.0</ele><time>2026-04-05T09:43:07.59Z</time></trkpt><trkpt lat="43.9641234" lon="12.4035712"><ele>129.0</ele><time>2026-04-05T09:43:08.59Z</time></trkpt><trkpt lat="43.9642879" lon="12.4037756"><ele>129.0</ele><time>2026-04-05T09:43:09.59Z</time></trkpt><trkpt lat="43.9644427" lon="12.403991"><ele>126.33333333333334</ele><time>2026-04-05T09:43:10.59Z</time></trkpt><trkpt lat="43.964587" lon="12.404213"><ele>123.66666666666667</ele><time>2026-04-05T09:43:11.59Z</time></trkpt><trkpt lat="43.9647323" lon="12.4044254"><ele>121.0</ele><time>2026-04-05T09:43:12.591Z</time></trkpt><trkpt lat="43.9648738" lon="12.4046251"><ele>120.66666666666667</ele><time>2026-04-05T09:43:13.591Z</time></trkpt><trkpt lat="43.96501" lon="12.4048118"><ele>120.33333333333334</ele><time>2026-04-05T09:43:14.591Z</time></trkpt><trkpt lat="43.9651441" lon="12.4050033"><ele>120.0</ele><time>2026-04-05T09:43:15.591Z</time></trkpt><trkpt lat="43.965274" lon="12.4051934"><ele>120.0</ele><time>2026-04-05T09:43:16.591Z</time></trkpt><trkpt lat="43.9654004" lon="12.4053699"><ele>120.0</ele><time>2026-04-05T09:43:17.591Z</time></trkpt><trkpt lat="43.9655253" lon="12.4055347"><ele>120.0</ele><time>2026-04-05T09:43:18.591Z</time></trkpt><trkpt lat="43.9656515" lon="12.4056971"><ele>119.0</ele><time>2026-04-05T09:43:19.59Z</time></trkpt><trkpt lat="43.9659081" lon="12.4058835"><ele>118.0</ele><time>2026-04-05T09:43:21.138Z</time></trkpt><trkpt lat="43.9658832" lon="12.4061365"><ele>118.0</ele><time>2026-04-05T09:43:22.043Z</time></trkpt><trkpt lat="43.9660996" lon="12.4062694"><ele>118.0</ele><time>2026-04-05T09:43:23.09Z</time></trkpt><trkpt lat="43.9662536" lon="12.4065159"><ele>118.5</ele><time>2026-04-05T09:43:24.09Z</time></trkpt><trkpt lat="43.9664343" lon="12.4069091"><ele>119.0</ele><time>2026-04-05T09:43:25.589Z</time></trkpt><trkpt lat="43.9665445" lon="12.4071876"><ele>118.0</ele><time>2026-04-05T09:43:26.59Z</time></trkpt><trkpt lat="43.9666481" lon="12.4074512"><ele>117.0</ele><time>2026-04-05T09:43:27.59Z</time></trkpt><trkpt lat="43.9667519" lon="12.4076962"><ele>116.0</ele><time>2026-04-05T09:43:28.589Z</time></trkpt><trkpt lat="43.9668528" lon="12.4079304"><ele>116.33333333333333</ele><time>2026-04-05T09:43:29.59Z</time></trkpt><trkpt lat="43.9669506" lon="12.4081516"><ele>116.66666666666666</ele><time>2026-04-05T09:43:30.59Z</time></trkpt><trkpt lat="43.9670484" lon="12.4083654"><ele>117.0</ele><time>2026-04-05T09:43:31.59Z</time></trkpt><trkpt lat="43.9671451" lon="12.4085814"><ele>117.0</ele><time>2026-04-05T09:43:32.59Z</time></trkpt><trkpt lat="43.9672411" lon="12.4087884"><ele>117.0</ele><time>2026-04-05T09:43:33.589Z</time></trkpt><trkpt lat="43.9673351" lon="12.4089844"><ele>117.0</ele><time>2026-04-05T09:43:34.589Z</time></trkpt><trkpt lat="43.967427" lon="12.4091798"><ele>117.0</ele><time>2026-04-05T09:43:35.59Z</time></trkpt><trkpt lat="43.9675218" lon="12.4093807"><ele>117.0</ele><time>2026-04-05T09:43:36.59Z</time></trkpt><trkpt lat="43.9676143" lon="12.4095948"><ele>117.0</ele><time>2026-04-05T09:43:37.589Z</time></trkpt><trkpt lat="43.9677067" lon="12.4098233"><ele>116.0</ele><time>2026-04-05T09:43:38.589Z</time></trkpt><trkpt lat="43.9678067" lon="12.410055"><ele>115.0</ele><time>2026-04-05T09:43:39.59Z</time></trkpt><trkpt lat="43.9679167" lon="12.4102633"><ele>114.0</ele><time>2026-04-05T09:43:40.589Z</time></trkpt><trkpt lat="43.9680017" lon="12.4104717"><ele>115.33333333333334</ele><time>2026-04-05T09:43:41.59Z</time></trkpt><trkpt lat="43.9680933" lon="12.4106533"><ele>116.66666666666667</ele><time>2026-04-05T09:43:42.59Z</time></trkpt><trkpt lat="43.9681867" lon="12.4108217"><ele>118.0</ele><time>2026-04-05T09:43:43.59Z</time></trkpt><trkpt lat="43.9682933" lon="12.4109917"><ele>118.0</ele><time>2026-04-05T09:43:44.589Z</time></trkpt><trkpt lat="43.9684217" lon="12.4111683"><ele>118.0</ele><time>2026-04-05T09:43:45.59Z</time></trkpt><trkpt lat="43.968565" lon="12.41134"><ele>118.0</ele><time>2026-04-05T09:43:46.589Z</time></trkpt><trkpt lat="43.9687183" lon="12.4115033"><ele>118.0</ele><time>2026-04-05T09:43:47.59Z</time></trkpt><trkpt lat="43.9688767" lon="12.4116517"><ele>118.0</ele><time>2026-04-05T09:43:48.59Z</time></trkpt><trkpt lat="43.9690467" lon="12.4117867"><ele>118.0</ele><time>2026-04-05T09:43:49.59Z</time></trkpt><trkpt lat="43.9692167" lon="12.4119033"><ele>118.33333333333334</ele><time>2026-04-05T09:43:50.59Z</time></trkpt><trkpt lat="43.969385" lon="12.412015"><ele>118.66666666666666</ele><time>2026-04-05T09:43:51.589Z</time></trkpt><trkpt lat="43.96956" lon="12.41211"><ele>119.0</ele><time>2026-04-05T09:43:52.589Z</time></trkpt><trkpt lat="43.9697367" lon="12.4121867"><ele>119.0</ele><time>2026-04-05T09:43:53.589Z</time></trkpt><trkpt lat="43.9699083" lon="12.412255"><ele>119.0</ele><time>2026-04-05T09:43:54.59Z</time></trkpt><trkpt lat="43.9700867" lon="12.412295"><ele>119.0</ele><time>2026-04-05T09:43:55.59Z</time></trkpt><trkpt lat="43.97026" lon="12.4123333"><ele>117.66666666666666</ele><time>2026-04-05T09:43:56.59Z</time></trkpt><trkpt lat="43.97044" lon="12.4123467"><ele>116.33333333333334</ele><time>2026-04-05T09:43:57.59Z</time></trkpt><trkpt lat="43.970615" lon="12.4123417"><ele>115.0</ele><time>2026-04-05T09:43:58.589Z</time></trkpt><trkpt lat="43.97079" lon="12.412335"><ele>115.66666666666667</ele><time>2026-04-05T09:43:59.59Z</time></trkpt><trkpt lat="43.97095" lon="12.4123133"><ele>116.33333333333334</ele><time>2026-04-05T09:44:00.589Z</time></trkpt><trkpt lat="43.9711033" lon="12.4122867"><ele>117.0</ele><time>2026-04-05T09:44:01.589Z</time></trkpt><trkpt lat="43.9712483" lon="12.4122517"><ele>117.0</ele><time>2026-04-05T09:44:02.589Z</time></trkpt><trkpt lat="43.9713883" lon="12.412205"><ele>117.0</ele><time>2026-04-05T09:44:03.59Z</time></trkpt><trkpt lat="43.9715283" lon="12.4121583"><ele>117.0</ele><time>2026-04-05T09:44:04.589Z</time></trkpt><trkpt lat="43.97167" lon="12.4121083"><ele>117.0</ele><time>2026-04-05T09:44:05.59Z</time></trkpt><trkpt lat="43.971805" lon="12.41206"><ele>117.8</ele><time>2026-04-05T09:44:06.59Z</time></trkpt><trkpt lat="43.971935" lon="12.41201"><ele>118.6</ele><time>2026-04-05T09:44:07.589Z</time></trkpt><trkpt lat="43.9720433" lon="12.41196"><ele>119.39999999999999</ele><time>2026-04-05T09:44:08.59Z</time></trkpt><trkpt lat="43.972135" lon="12.411915"><ele>120.19999999999999</ele><time>2026-04-05T09:44:09.589Z</time></trkpt><trkpt lat="43.97221" lon="12.4118783"><ele>121.0</ele><time>2026-04-05T09:44:10.59Z</time></trkpt><trkpt lat="43.9722767" lon="12.4118583"><ele>121.00000000000001</ele><time>2026-04-05T09:44:11.59Z</time></trkpt><trkpt lat="43.972345" lon="12.411865"><ele>121.0</ele><time>2026-04-05T09:44:12.59Z</time></trkpt><trkpt lat="43.972405" lon="12.4119067"><ele>121.0</ele><time>2026-04-05T09:44:13.59Z</time></trkpt><trkpt lat="43.9724417" lon="12.4119833"><ele>121.0</ele><time>2026-04-05T09:44:14.59Z</time></trkpt><trkpt lat="43.972425" lon="12.4120917"><ele>121.00000000000001</ele><time>2026-04-05T09:44:15.589Z</time></trkpt><trkpt lat="43.9723783" lon="12.4122067"><ele>121.0</ele><time>2026-04-05T09:44:16.589Z</time></trkpt><trkpt lat="43.97231" lon="12.412315"><ele>122.0</ele><time>2026-04-05T09:44:17.59Z</time></trkpt><trkpt lat="43.9722533" lon="12.4124333"><ele>123.0</ele><time>2026-04-05T09:44:18.59Z</time></trkpt><trkpt lat="43.9722283" lon="12.4125667"><ele>124.0</ele><time>2026-04-05T09:44:19.59Z</time></trkpt><trkpt lat="43.9722467" lon="12.412695"><ele>125.0</ele><time>2026-04-05T09:44:20.589Z</time></trkpt><trkpt lat="43.9723017" lon="12.41278"><ele>126.0</ele><time>2026-04-05T09:44:21.59Z</time></trkpt><trkpt lat="43.9723883" lon="12.4127967"><ele>126.0</ele><time>2026-04-05T09:44:22.59Z</time></trkpt><trkpt lat="43.9724833" lon="12.4127633"><ele>126.0</ele><time>2026-04-05T09:44:23.589Z</time></trkpt><trkpt lat="43.972585" lon="12.4126883"><ele>126.0</ele><time>2026-04-05T09:44:24.59Z</time></trkpt><trkpt lat="43.9726783" lon="12.41261"><ele>126.0</ele><time>2026-04-05T09:44:25.59Z</time></trkpt><trkpt lat="43.97277" lon="12.4125733"><ele>126.0</ele><time>2026-04-05T09:44:26.59Z</time></trkpt><trkpt lat="43.9728517" lon="12.4125917"><ele>128.0</ele><time>2026-04-05T09:44:27.59Z</time></trkpt><trkpt lat="43.972905" lon="12.4126633"><ele>130.0</ele><time>2026-04-05T09:44:28.589Z</time></trkpt><trkpt lat="43.9728967" lon="12.4127833"><ele>132.0</ele><time>2026-04-05T09:44:29.59Z</time></trkpt><trkpt lat="43.9728483" lon="12.41293"><ele>134.0</ele><time>2026-04-05T09:44:30.589Z</time></trkpt><trkpt lat="43.9727833" lon="12.4131017"><ele>136.0</ele><time>2026-04-05T09:44:31.589Z</time></trkpt><trkpt lat="43.9727333" lon="12.4133333"><ele>138.33333333333334</ele><time>2026-04-05T09:44:32.59Z</time></trkpt><trkpt lat="43.9727033" lon="12.4135867"><ele>140.66666666666666</ele><time>2026-04-05T09:44:33.59Z</time></trkpt><trkpt lat="43.9727017" lon="12.4138483"><ele>143.0</ele><time>2026-04-05T09:44:34.589Z</time></trkpt><trkpt lat="43.9727267" lon="12.4141433"><ele>148.5</ele><time>2026-04-05T09:44:35.59Z</time></trkpt><trkpt lat="43.97276" lon="12.414475"><ele>154.0</ele><time>2026-04-05T09:44:36.59Z</time></trkpt><trkpt lat="43.97279" lon="12.4147967"><ele>155.66666666666669</ele><time>2026-04-05T09:44:37.59Z</time></trkpt><trkpt lat="43.9728183" lon="12.4150967"><ele>157.33333333333334</ele><time>2026-04-05T09:44:38.59Z</time></trkpt><trkpt lat="43.97284" lon="12.4153767"><ele>159.0</ele><time>2026-04-05T09:44:39.59Z</time></trkpt><trkpt lat="43.972855" lon="12.415645"><ele>159.66666666666666</ele><time>2026-04-05T09:44:40.59Z</time></trkpt><trkpt lat="43.9728683" lon="12.4159167"><ele>160.33333333333331</ele><time>2026-04-05T09:44:41.59Z</time></trkpt><trkpt lat="43.9728533" lon="12.4162067"><ele>161.0</ele><time>2026-04-05T09:44:42.59Z</time></trkpt><trkpt lat="43.9728167" lon="12.4164883"><ele>161.33333333333331</ele><time>2026-04-05T09:44:43.589Z</time></trkpt><trkpt lat="43.9727733" lon="12.41675"><ele>161.66666666666666</ele><time>2026-04-05T09:44:44.59Z</time></trkpt><trkpt lat="43.9727183" lon="12.4169867"><ele>162.0</ele><time>2026-04-05T09:44:45.59Z</time></trkpt><trkpt lat="43.9726433" lon="12.417205"><ele>162.66666666666666</ele><time>2026-04-05T09:44:46.589Z</time></trkpt><trkpt lat="43.972545" lon="12.417425"><ele>163.33333333333331</ele><time>2026-04-05T09:44:47.589Z</time></trkpt><trkpt lat="43.972415" lon="12.417615"><ele>164.0</ele><time>2026-04-05T09:44:48.59Z</time></trkpt><trkpt lat="43.97226" lon="12.4177867"><ele>164.66666666666666</ele><time>2026-04-05T09:44:49.59Z</time></trkpt><trkpt lat="43.972105" lon="12.4179683"><ele>165.33333333333334</ele><time>2026-04-05T09:44:50.589Z</time></trkpt><trkpt lat="43.9719717" lon="12.4181617"><ele>166.0</ele><time>2026-04-05T09:44:51.59Z</time></trkpt><trkpt lat="43.9718533" lon="12.4183533"><ele>166.0</ele><time>2026-04-05T09:44:52.59Z</time></trkpt><trkpt lat="43.9717583" lon="12.4185283"><ele>166.0</ele><time>2026-04-05T09:44:53.59Z</time></trkpt><trkpt lat="43.9716933" lon="12.4187217"><ele>166.0</ele><time>2026-04-05T09:44:54.59Z</time></trkpt><trkpt lat="43.9716717" lon="12.4189267"><ele>165.0</ele><time>2026-04-05T09:44:55.591Z</time></trkpt><trkpt lat="43.9716783" lon="12.419115"><ele>164.0</ele><time>2026-04-05T09:44:56.59Z</time></trkpt><trkpt lat="43.971705" lon="12.41928"><ele>163.0</ele><time>2026-04-05T09:44:57.59Z</time></trkpt><trkpt lat="43.971765" lon="12.41941"><ele>162.0</ele><time>2026-04-05T09:44:58.59Z</time></trkpt><trkpt lat="43.9718683" lon="12.4194817"><ele>164.5</ele><time>2026-04-05T09:44:59.59Z</time></trkpt><trkpt lat="43.9719917" lon="12.4195"><ele>167.0</ele><time>2026-04-05T09:45:00.591Z</time></trkpt><trkpt lat="43.9721133" lon="12.4195033"><ele>169.5</ele><time>2026-04-05T09:45:01.59Z</time></trkpt><trkpt lat="43.9722167" lon="12.4195633"><ele>172.0</ele><time>2026-04-05T09:45:02.591Z</time></trkpt><trkpt lat="43.972285" lon="12.4196717"><ele>172.5</ele><time>2026-04-05T09:45:03.591Z</time></trkpt><trkpt lat="43.9722967" lon="12.4198267"><ele>173.0</ele><time>2026-04-05T09:45:04.591Z</time></trkpt><trkpt lat="43.97226" lon="12.4200033"><ele>173.5</ele><time>2026-04-05T09:45:05.591Z</time></trkpt><trkpt lat="43.9721867" lon="12.4202017"><ele>174.0</ele><time>2026-04-05T09:45:06.59Z</time></trkpt><trkpt lat="43.9721133" lon="12.42041"><ele>174.75</ele><time>2026-04-05T09:45:07.591Z</time></trkpt><trkpt lat="43.9720383" lon="12.4205933"><ele>175.5</ele><time>2026-04-05T09:45:08.59Z</time></trkpt><trkpt lat="43.9719733" lon="12.420745"><ele>176.25</ele><time>2026-04-05T09:45:09.591Z</time></trkpt><trkpt lat="43.97192" lon="12.4208817"><ele>177.0</ele><time>2026-04-05T09:45:10.591Z</time></trkpt><trkpt lat="43.9718967" lon="12.4210183"><ele>177.0</ele><time>2026-04-05T09:45:11.59Z</time></trkpt><trkpt lat="43.9719083" lon="12.4211433"><ele>177.0</ele><time>2026-04-05T09:45:12.591Z</time></trkpt><trkpt lat="43.97198" lon="12.421245"><ele>177.0</ele><time>2026-04-05T09:45:13.591Z</time></trkpt><trkpt lat="43.9721117" lon="12.42131"><ele>177.0</ele><time>2026-04-05T09:45:14.591Z</time></trkpt><trkpt lat="43.9722767" lon="12.421345"><ele>177.75</ele><time>2026-04-05T09:45:15.591Z</time></trkpt><trkpt lat="43.9724267" lon="12.4213917"><ele>178.5</ele><time>2026-04-05T09:45:16.591Z</time></trkpt><trkpt lat="43.9725483" lon="12.4214567"><ele>179.25</ele><time>2026-04-05T09:45:17.591Z</time></trkpt><trkpt lat="43.9726467" lon="12.4215433"><ele>180.0</ele><time>2026-04-05T09:45:18.59Z</time></trkpt><trkpt lat="43.9727" lon="12.4216733"><ele>181.0</ele><time>2026-04-05T09:45:19.591Z</time></trkpt><trkpt lat="43.9727083" lon="12.4218267"><ele>182.0</ele><time>2026-04-05T09:45:20.591Z</time></trkpt><trkpt lat="43.9726583" lon="12.42199"><ele>183.0</ele><time>2026-04-05T09:45:21.59Z</time></trkpt><trkpt lat="43.9725833" lon="12.4221567"><ele>184.0</ele><time>2026-04-05T09:45:22.591Z</time></trkpt><trkpt lat="43.97252" lon="12.4223133"><ele>184.0</ele><time>2026-04-05T09:45:23.59Z</time></trkpt><trkpt lat="43.972495" lon="12.4224833"><ele>184.0</ele><time>2026-04-05T09:45:24.591Z</time></trkpt><trkpt lat="43.97252" lon="12.4226867"><ele>184.0</ele><time>2026-04-05T09:45:25.591Z</time></trkpt><trkpt lat="43.97258" lon="12.4228983"><ele>184.0</ele><time>2026-04-05T09:45:26.591Z</time></trkpt><trkpt lat="43.97266" lon="12.4231133"><ele>188.66666666666669</ele><time>2026-04-05T09:45:27.59Z</time></trkpt><trkpt lat="43.9727233" lon="12.4233133"><ele>193.33333333333334</ele><time>2026-04-05T09:45:28.591Z</time></trkpt><trkpt lat="43.9727567" lon="12.4235217"><ele>198.0</ele><time>2026-04-05T09:45:29.59Z</time></trkpt><trkpt lat="43.9727667" lon="12.4237167"><ele>198.2</ele><time>2026-04-05T09:45:30.59Z</time></trkpt><trkpt lat="43.9727667" lon="12.4238833"><ele>198.4</ele><time>2026-04-05T09:45:31.59Z</time></trkpt><trkpt lat="43.9727917" lon="12.4240233"><ele>198.6</ele><time>2026-04-05T09:45:32.59Z</time></trkpt><trkpt lat="43.972855" lon="12.4241167"><ele>198.79999999999998</ele><time>2026-04-05T09:45:33.59Z</time></trkpt><trkpt lat="43.9729317" lon="12.424155"><ele>199.0</ele><time>2026-04-05T09:45:34.59Z</time></trkpt><trkpt lat="43.97303" lon="12.42411"><ele>199.0</ele><time>2026-04-05T09:45:35.59Z</time></trkpt><trkpt lat="43.9731017" lon="12.4239933"><ele>199.0</ele><time>2026-04-05T09:45:36.59Z</time></trkpt><trkpt lat="43.973155" lon="12.4238317"><ele>199.0</ele><time>2026-04-05T09:45:37.591Z</time></trkpt><trkpt lat="43.9732017" lon="12.4236917"><ele>199.0</ele><time>2026-04-05T09:45:38.591Z</time></trkpt><trkpt lat="43.9732683" lon="12.4235917"><ele>199.0</ele><time>2026-04-05T09:45:39.591Z</time></trkpt><trkpt lat="43.97336" lon="12.42354"><ele>201.0</ele><time>2026-04-05T09:45:40.59Z</time></trkpt><trkpt lat="43.9734717" lon="12.423565"><ele>203.0</ele><time>2026-04-05T09:45:41.591Z</time></trkpt><trkpt lat="43.9735967" lon="12.4236533"><ele>205.0</ele><time>2026-04-05T09:45:42.591Z</time></trkpt><trkpt lat="43.9737217" lon="12.4237483"><ele>207.0</ele><time>2026-04-05T09:45:43.591Z</time></trkpt><trkpt lat="43.9738367" lon="12.42381"><ele>207.0</ele><time>2026-04-05T09:45:44.59Z</time></trkpt><trkpt lat="43.97395" lon="12.4238217"><ele>207.0</ele><time>2026-04-05T09:45:45.59Z</time></trkpt><trkpt lat="43.97405" lon="12.4237817"><ele>207.0</ele><time>2026-04-05T09:45:46.59Z</time></trkpt><trkpt lat="43.97413" lon="12.42369"><ele>207.0</ele><time>2026-04-05T09:45:47.59Z</time></trkpt><trkpt lat="43.9741667" lon="12.42357"><ele>207.0</ele><time>2026-04-05T09:45:48.591Z</time></trkpt><trkpt lat="43.9741817" lon="12.42345"><ele>209.83333333333334</ele><time>2026-04-05T09:45:49.591Z</time></trkpt><trkpt lat="43.9742133" lon="12.4233633"><ele>212.66666666666669</ele><time>2026-04-05T09:45:50.591Z</time></trkpt><trkpt lat="43.97426" lon="12.4232883"><ele>215.5</ele><time>2026-04-05T09:45:51.59Z</time></trkpt><trkpt lat="43.974345" lon="12.4232867"><ele>218.33333333333334</ele><time>2026-04-05T09:45:52.59Z</time></trkpt><trkpt lat="43.9744367" lon="12.4233417"><ele>221.16666666666669</ele><time>2026-04-05T09:45:53.591Z</time></trkpt><trkpt lat="43.974515" lon="12.4234667"><ele>224.0</ele><time>2026-04-05T09:45:54.59Z</time></trkpt><trkpt lat="43.97459" lon="12.42365"><ele>226.0</ele><time>2026-04-05T09:45:55.59Z</time></trkpt><trkpt lat="43.9746683" lon="12.4238867"><ele>228.0</ele><time>2026-04-05T09:45:56.591Z</time></trkpt><trkpt lat="43.974755" lon="12.42414"><ele>230.0</ele><time>2026-04-05T09:45:57.59Z</time></trkpt><trkpt lat="43.9748483" lon="12.4243867"><ele>230.0</ele><time>2026-04-05T09:45:58.591Z</time></trkpt><trkpt lat="43.9749183" lon="12.4246433"><ele>230.0</ele><time>2026-04-05T09:45:59.591Z</time></trkpt><trkpt lat="43.97497" lon="12.4248883"><ele>230.0</ele><time>2026-04-05T09:46:00.591Z</time></trkpt><trkpt lat="43.975" lon="12.42514"><ele>232.0</ele><time>2026-04-05T09:46:01.59Z</time></trkpt><trkpt lat="43.975015" lon="12.425375"><ele>234.0</ele><time>2026-04-05T09:46:02.591Z</time></trkpt><trkpt lat="43.9750483" lon="12.4256017"><ele>236.0</ele><time>2026-04-05T09:46:03.59Z</time></trkpt><trkpt lat="43.9751267" lon="12.4257933"><ele>244.0</ele><time>2026-04-05T09:46:04.591Z</time></trkpt><trkpt lat="43.9752317" lon="12.42597"><ele>252.0</ele><time>2026-04-05T09:46:05.591Z</time></trkpt><trkpt lat="43.97535" lon="12.4261167"><ele>260.0</ele><time>2026-04-05T09:46:06.591Z</time></trkpt><trkpt lat="43.9754433" lon="12.4262717"><ele>260.25</ele><time>2026-04-05T09:46:07.591Z</time></trkpt><trkpt lat="43.975515" lon="12.4264517"><ele>260.5</ele><time>2026-04-05T09:46:08.591Z</time></trkpt><trkpt lat="43.975545" lon="12.4266617"><ele>260.75</ele><time>2026-04-05T09:46:09.591Z</time></trkpt><trkpt lat="43.9755583" lon="12.426855"><ele>261.0</ele><time>2026-04-05T09:46:10.591Z</time></trkpt><trkpt lat="43.975575" lon="12.4270233"><ele>260.5</ele><time>2026-04-05T09:46:11.591Z</time></trkpt><trkpt lat="43.97561" lon="12.4271883"><ele>260.0</ele><time>2026-04-05T09:46:12.59Z</time></trkpt><trkpt lat="43.9757" lon="12.427335"><ele>259.5</ele><time>2026-04-05T09:46:13.591Z</time></trkpt><trkpt lat="43.9758133" lon="12.4274683"><ele>259.0</ele><time>2026-04-05T09:46:14.591Z</time></trkpt><trkpt lat="43.9759317" lon="12.4275967"><ele>257.75</ele><time>2026-04-05T09:46:15.591Z</time></trkpt><trkpt lat="43.9760417" lon="12.4277217"><ele>256.5</ele><time>2026-04-05T09:46:16.59Z</time></trkpt><trkpt lat="43.9761583" lon="12.4278367"><ele>255.25</ele><time>2026-04-05T09:46:17.59Z</time></trkpt><trkpt lat="43.9762767" lon="12.4279317"><ele>254.0</ele><time>2026-04-05T09:46:18.591Z</time></trkpt><trkpt lat="43.976405" lon="12.4279917"><ele>254.0</ele><time>2026-04-05T09:46:19.591Z</time></trkpt><trkpt lat="43.9765533" lon="12.4279967"><ele>254.0</ele><time>2026-04-05T09:46:20.591Z</time></trkpt><trkpt lat="43.9767133" lon="12.4279617"><ele>254.0</ele><time>2026-04-05T09:46:21.591Z</time></trkpt><trkpt lat="43.9768683" lon="12.4279033"><ele>260.33333333333337</ele><time>2026-04-05T09:46:22.59Z</time></trkpt><trkpt lat="43.9770233" lon="12.4278017"><ele>266.6666666666667</ele><time>2026-04-05T09:46:23.591Z</time></trkpt><trkpt lat="43.9771633" lon="12.4277317"><ele>273.0</ele><time>2026-04-05T09:46:24.591Z</time></trkpt><trkpt lat="43.9772917" lon="12.4277067"><ele>273.0</ele><time>2026-04-05T09:46:25.591Z</time></trkpt><trkpt lat="43.977435" lon="12.4277317"><ele>273.0</ele><time>2026-04-05T09:46:26.591Z</time></trkpt><trkpt lat="43.9776067" lon="12.427775"><ele>273.0</ele><time>2026-04-05T09:46:27.591Z</time></trkpt><trkpt lat="43.9777733" lon="12.4277983"><ele>272.0</ele><time>2026-04-05T09:46:28.591Z</time></trkpt><trkpt lat="43.9779183" lon="12.4278167"><ele>271.0</ele><time>2026-04-05T09:46:29.59Z</time></trkpt><trkpt lat="43.9780483" lon="12.4278667"><ele>270.0</ele><time>2026-04-05T09:46:30.591Z</time></trkpt><trkpt lat="43.9781667" lon="12.42794"><ele>269.0</ele><time>2026-04-05T09:46:31.591Z</time></trkpt><trkpt lat="43.9782567" lon="12.42804"><ele>269.0</ele><time>2026-04-05T09:46:32.591Z</time></trkpt><trkpt lat="43.9783283" lon="12.4281617"><ele>269.0</ele><time>2026-04-05T09:46:33.591Z</time></trkpt><trkpt lat="43.9783967" lon="12.428325"><ele>269.0</ele><time>2026-04-05T09:46:34.59Z</time></trkpt><trkpt lat="43.9784667" lon="12.428515"><ele>269.0</ele><time>2026-04-05T09:46:35.591Z</time></trkpt><trkpt lat="43.978545" lon="12.4287233"><ele>269.6666666666667</ele><time>2026-04-05T09:46:36.591Z</time></trkpt><trkpt lat="43.9786233" lon="12.4289233"><ele>270.3333333333333</ele><time>2026-04-05T09:46:37.59Z</time></trkpt><trkpt lat="43.9786967" lon="12.4291183"><ele>271.0</ele><time>2026-04-05T09:46:38.591Z</time></trkpt><trkpt lat="43.97877" lon="12.4293033"><ele>271.0</ele><time>2026-04-05T09:46:39.59Z</time></trkpt><trkpt lat="43.978845" lon="12.4294733"><ele>271.0</ele><time>2026-04-05T09:46:40.59Z</time></trkpt><trkpt lat="43.9789217" lon="12.4296233"><ele>271.0</ele><time>2026-04-05T09:46:41.59Z</time></trkpt><trkpt lat="43.979025" lon="12.42975"><ele>271.0</ele><time>2026-04-05T09:46:42.591Z</time></trkpt><trkpt lat="43.9791483" lon="12.4298267"><ele>263.66666666666663</ele><time>2026-04-05T09:46:43.59Z</time></trkpt><trkpt lat="43.979305" lon="12.429835"><ele>256.3333333333333</ele><time>2026-04-05T09:46:44.591Z</time></trkpt><trkpt lat="43.9794833" lon="12.4297833"><ele>249.0</ele><time>2026-04-05T09:46:45.591Z</time></trkpt><trkpt lat="43.9796767" lon="12.4297133"><ele>249.0</ele><time>2026-04-05T09:46:46.591Z</time></trkpt><trkpt lat="43.9798617" lon="12.4296633"><ele>249.0</ele><time>2026-04-05T09:46:47.591Z</time></trkpt><trkpt lat="43.98004" lon="12.429625"><ele>249.0</ele><time>2026-04-05T09:46:48.591Z</time></trkpt><trkpt lat="43.9802117" lon="12.4295983"><ele>249.66666666666669</ele><time>2026-04-05T09:46:49.591Z</time></trkpt><trkpt lat="43.9803917" lon="12.429585"><ele>250.33333333333334</ele><time>2026-04-05T09:46:50.591Z</time></trkpt><trkpt lat="43.9805633" lon="12.4296267"><ele>251.0</ele><time>2026-04-05T09:46:51.591Z</time></trkpt><trkpt lat="43.9807233" lon="12.4297133"><ele>248.33333333333334</ele><time>2026-04-05T09:46:52.591Z</time></trkpt><trkpt lat="43.9808617" lon="12.4298567"><ele>245.66666666666669</ele><time>2026-04-05T09:46:53.591Z</time></trkpt><trkpt lat="43.98099" lon="12.4300433"><ele>243.0</ele><time>2026-04-05T09:46:54.59Z</time></trkpt><trkpt lat="43.9811133" lon="12.4302233"><ele>243.0</ele><time>2026-04-05T09:46:55.59Z</time></trkpt><trkpt lat="43.9812317" lon="12.4303833"><ele>243.0</ele><time>2026-04-05T09:46:56.591Z</time></trkpt><trkpt lat="43.9813467" lon="12.4305433"><ele>243.0</ele><time>2026-04-05T09:46:57.59Z</time></trkpt><trkpt lat="43.9814183" lon="12.4307583"><ele>243.0</ele><time>2026-04-05T09:46:58.93Z</time></trkpt><trkpt lat="43.9815883" lon="12.4310633"><ele>243.0</ele><time>2026-04-05T09:47:00.299Z</time></trkpt><trkpt lat="43.9817133" lon="12.4313433"><ele>238.33333333333331</ele><time>2026-04-05T09:47:01.589Z</time></trkpt><trkpt lat="43.9817283" lon="12.4316267"><ele>233.66666666666666</ele><time>2026-04-05T09:47:02.589Z</time></trkpt><trkpt lat="43.9817217" lon="12.4319017"><ele>229.0</ele><time>2026-04-05T09:47:03.59Z</time></trkpt><trkpt lat="43.98169" lon="12.43221"><ele>232.5</ele><time>2026-04-05T09:47:04.59Z</time></trkpt><trkpt lat="43.98167" lon="12.432525"><ele>236.0</ele><time>2026-04-05T09:47:05.59Z</time></trkpt><trkpt lat="43.98164" lon="12.4328533"><ele>235.5</ele><time>2026-04-05T09:47:06.59Z</time></trkpt><trkpt lat="43.981615" lon="12.4331833"><ele>235.0</ele><time>2026-04-05T09:47:07.59Z</time></trkpt><trkpt lat="43.9815783" lon="12.4334933"><ele>235.0</ele><time>2026-04-05T09:47:08.589Z</time></trkpt><trkpt lat="43.9815483" lon="12.43379"><ele>235.0</ele><time>2026-04-05T09:47:09.59Z</time></trkpt><trkpt lat="43.981525" lon="12.4340767"><ele>235.0</ele><time>2026-04-05T09:47:10.59Z</time></trkpt><trkpt lat="43.981495" lon="12.43435"><ele>235.33333333333331</ele><time>2026-04-05T09:47:11.59Z</time></trkpt><trkpt lat="43.9814633" lon="12.4346217"><ele>235.66666666666669</ele><time>2026-04-05T09:47:12.59Z</time></trkpt><trkpt lat="43.9814417" lon="12.4348733"><ele>236.0</ele><time>2026-04-05T09:47:13.589Z</time></trkpt><trkpt lat="43.98143" lon="12.4351083"><ele>237.33333333333334</ele><time>2026-04-05T09:47:14.589Z</time></trkpt><trkpt lat="43.981425" lon="12.435335"><ele>238.66666666666669</ele><time>2026-04-05T09:47:15.589Z</time></trkpt><trkpt lat="43.9814683" lon="12.4355733"><ele>240.0</ele><time>2026-04-05T09:47:16.59Z</time></trkpt><trkpt lat="43.9815533" lon="12.435825"><ele>240.0</ele><time>2026-04-05T09:47:17.59Z</time></trkpt><trkpt lat="43.98166" lon="12.4361167"><ele>240.0</ele><time>2026-04-05T09:47:18.59Z</time></trkpt><trkpt lat="43.98177" lon="12.436405"><ele>239.66666666666669</ele><time>2026-04-05T09:47:19.59Z</time></trkpt><trkpt lat="43.9818633" lon="12.4366833"><ele>239.33333333333334</ele><time>2026-04-05T09:47:20.59Z</time></trkpt><trkpt lat="43.98193" lon="12.4369567"><ele>239.0</ele><time>2026-04-05T09:47:21.589Z</time></trkpt><trkpt lat="43.9819917" lon="12.4372233"><ele>238.0</ele><time>2026-04-05T09:47:22.59Z</time></trkpt><trkpt lat="43.9820433" lon="12.437495"><ele>237.0</ele><time>2026-04-05T09:47:23.589Z</time></trkpt><trkpt lat="43.9820817" lon="12.43777"><ele>236.0</ele><time>2026-04-05T09:47:24.59Z</time></trkpt><trkpt lat="43.9821133" lon="12.4380417"><ele>234.66666666666669</ele><time>2026-04-05T09:47:25.59Z</time></trkpt><trkpt lat="43.9821383" lon="12.4383"><ele>233.33333333333331</ele><time>2026-04-05T09:47:26.589Z</time></trkpt><trkpt lat="43.9821583" lon="12.43855"><ele>232.0</ele><time>2026-04-05T09:47:27.589Z</time></trkpt><trkpt lat="43.982165" lon="12.438785"><ele>230.66666666666666</ele><time>2026-04-05T09:47:28.589Z</time></trkpt><trkpt lat="43.982185" lon="12.439025"><ele>229.33333333333331</ele><time>2026-04-05T09:47:29.59Z</time></trkpt><trkpt lat="43.98217" lon="12.439265"><ele>228.0</ele><time>2026-04-05T09:47:30.59Z</time></trkpt><trkpt lat="43.982125" lon="12.4395167"><ele>226.33333333333331</ele><time>2026-04-05T09:47:31.59Z</time></trkpt><trkpt lat="43.9820633" lon="12.43978"><ele>224.66666666666666</ele><time>2026-04-05T09:47:32.589Z</time></trkpt><trkpt lat="43.9819883" lon="12.4400567"><ele>223.0</ele><time>2026-04-05T09:47:33.59Z</time></trkpt><trkpt lat="43.9819033" lon="12.4403433"><ele>220.66666666666666</ele><time>2026-04-05T09:47:34.589Z</time></trkpt><trkpt lat="43.98182" lon="12.4406333"><ele>218.33333333333331</ele><time>2026-04-05T09:47:35.59Z</time></trkpt><trkpt lat="43.98174" lon="12.4409033"><ele>216.0</ele><time>2026-04-05T09:47:36.589Z</time></trkpt><trkpt lat="43.98167" lon="12.441155"><ele>221.0</ele><time>2026-04-05T09:47:37.59Z</time></trkpt><trkpt lat="43.9816033" lon="12.4413867"><ele>226.0</ele><time>2026-04-05T09:47:38.59Z</time></trkpt><trkpt lat="43.981545" lon="12.4415983"><ele>231.0</ele><time>2026-04-05T09:47:39.589Z</time></trkpt><trkpt lat="43.981485" lon="12.441785"><ele>231.0</ele><time>2026-04-05T09:47:40.589Z</time></trkpt><trkpt lat="43.9814117" lon="12.4419467"><ele>231.0</ele><time>2026-04-05T09:47:41.589Z</time></trkpt><trkpt lat="43.9813183" lon="12.44209"><ele>231.0</ele><time>2026-04-05T09:47:42.59Z</time></trkpt><trkpt lat="43.9811967" lon="12.4422233"><ele>231.0</ele><time>2026-04-05T09:47:43.589Z</time></trkpt><trkpt lat="43.98105" lon="12.4423567"><ele>232.0</ele><time>2026-04-05T09:47:44.59Z</time></trkpt><trkpt lat="43.9808833" lon="12.4424817"><ele>233.0</ele><time>2026-04-05T09:47:45.59Z</time></trkpt><trkpt lat="43.9807067" lon="12.4426217"><ele>234.0</ele><time>2026-04-05T09:47:46.59Z</time></trkpt><trkpt lat="43.9805433" lon="12.44276"><ele>234.0</ele><time>2026-04-05T09:47:47.59Z</time></trkpt><trkpt lat="43.98039" lon="12.442895"><ele>234.0</ele><time>2026-04-05T09:47:48.59Z</time></trkpt><trkpt lat="43.9802367" lon="12.443045"><ele>234.0</ele><time>2026-04-05T09:47:49.589Z</time></trkpt><trkpt lat="43.9800983" lon="12.44322"><ele>232.33333333333331</ele><time>2026-04-05T09:47:50.59Z</time></trkpt><trkpt lat="43.9799717" lon="12.4434233"><ele>230.66666666666666</ele><time>2026-04-05T09:47:51.59Z</time></trkpt><trkpt lat="43.97986" lon="12.44368"><ele>229.0</ele><time>2026-04-05T09:47:52.59Z</time></trkpt><trkpt lat="43.9797517" lon="12.443965"><ele>224.5</ele><time>2026-04-05T09:47:53.59Z</time></trkpt><trkpt lat="43.9796383" lon="12.4442717"><ele>220.0</ele><time>2026-04-05T09:47:54.59Z</time></trkpt><trkpt lat="43.979525" lon="12.4445967"><ele>216.5</ele><time>2026-04-05T09:47:55.589Z</time></trkpt><trkpt lat="43.9794067" lon="12.4449317"><ele>213.0</ele><time>2026-04-05T09:47:56.589Z</time></trkpt><trkpt lat="43.9792933" lon="12.4452667"><ele>214.5</ele><time>2026-04-05T09:47:57.59Z</time></trkpt><trkpt lat="43.9791717" lon="12.4456217"><ele>216.0</ele><time>2026-04-05T09:47:58.59Z</time></trkpt><trkpt lat="43.9790417" lon="12.4459933"><ele>213.5</ele><time>2026-04-05T09:47:59.59Z</time></trkpt><trkpt lat="43.9789083" lon="12.4463683"><ele>211.0</ele><time>2026-04-05T09:48:00.59Z</time></trkpt><trkpt lat="43.978785" lon="12.4467217"><ele>211.0</ele><time>2026-04-05T09:48:01.589Z</time></trkpt><trkpt lat="43.9786717" lon="12.4470683"><ele>211.0</ele><time>2026-04-05T09:48:02.59Z</time></trkpt><trkpt lat="43.97857" lon="12.4473983"><ele>208.5</ele><time>2026-04-05T09:48:03.59Z</time></trkpt><trkpt lat="43.9784733" lon="12.447725"><ele>206.0</ele><time>2026-04-05T09:48:04.59Z</time></trkpt><trkpt lat="43.9783817" lon="12.4480383"><ele>206.33333333333334</ele><time>2026-04-05T09:48:05.589Z</time></trkpt><trkpt lat="43.9782983" lon="12.44833"><ele>206.66666666666669</ele><time>2026-04-05T09:48:06.589Z</time></trkpt><trkpt lat="43.9782167" lon="12.4486183"><ele>207.0</ele><time>2026-04-05T09:48:07.59Z</time></trkpt><trkpt lat="43.9781333" lon="12.4488967"><ele>207.0</ele><time>2026-04-05T09:48:08.589Z</time></trkpt><trkpt lat="43.97804" lon="12.4491483"><ele>207.0</ele><time>2026-04-05T09:48:09.59Z</time></trkpt><trkpt lat="43.977905" lon="12.4493633"><ele>207.0</ele><time>2026-04-05T09:48:10.59Z</time></trkpt><trkpt lat="43.9777417" lon="12.4495617"><ele>205.5</ele><time>2026-04-05T09:48:11.59Z</time></trkpt><trkpt lat="43.97755" lon="12.44978"><ele>204.0</ele><time>2026-04-05T09:48:12.59Z</time></trkpt><trkpt lat="43.977345" lon="12.4500117"><ele>204.0</ele><time>2026-04-05T09:48:13.589Z</time></trkpt><trkpt lat="43.977135" lon="12.45027"><ele>204.0</ele><time>2026-04-05T09:48:14.59Z</time></trkpt><trkpt lat="43.9769267" lon="12.450515"><ele>206.0</ele><time>2026-04-05T09:48:15.59Z</time></trkpt><trkpt lat="43.97673" lon="12.4507433"><ele>208.0</ele><time>2026-04-05T09:48:16.59Z</time></trkpt><trkpt lat="43.97655" lon="12.4509783"><ele>208.0</ele><time>2026-04-05T09:48:17.59Z</time></trkpt><trkpt lat="43.9763767" lon="12.4512083"><ele>208.0</ele><time>2026-04-05T09:48:18.589Z</time></trkpt><trkpt lat="43.9762067" lon="12.4514117"><ele>208.0</ele><time>2026-04-05T09:48:19.589Z</time></trkpt><trkpt lat="43.9760417" lon="12.451605"><ele>208.0</ele><time>2026-04-05T09:48:20.59Z</time></trkpt><trkpt lat="43.9758833" lon="12.451785"><ele>208.0</ele><time>2026-04-05T09:48:21.589Z</time></trkpt><trkpt lat="43.9757267" lon="12.45196"><ele>208.33333333333331</ele><time>2026-04-05T09:48:22.59Z</time></trkpt><trkpt lat="43.9755717" lon="12.4521133"><ele>208.66666666666669</ele><time>2026-04-05T09:48:23.589Z</time></trkpt><trkpt lat="43.9754083" lon="12.45225"><ele>209.0</ele><time>2026-04-05T09:48:24.59Z</time></trkpt><trkpt lat="43.9752133" lon="12.452335"><ele>210.0</ele><time>2026-04-05T09:48:25.59Z</time></trkpt><trkpt lat="43.9750017" lon="12.4523567"><ele>211.0</ele><time>2026-04-05T09:48:26.59Z</time></trkpt><trkpt lat="43.9747683" lon="12.4523567"><ele>212.0</ele><time>2026-04-05T09:48:27.59Z</time></trkpt><trkpt lat="43.9745483" lon="12.45237"><ele>212.0</ele><time>2026-04-05T09:48:28.59Z</time></trkpt><trkpt lat="43.9743433" lon="12.452385"><ele>212.0</ele><time>2026-04-05T09:48:29.59Z</time></trkpt><trkpt lat="43.9741567" lon="12.452385"><ele>212.0</ele><time>2026-04-05T09:48:30.59Z</time></trkpt><trkpt lat="43.9739883" lon="12.45236"><ele>214.0</ele><time>2026-04-05T09:48:31.589Z</time></trkpt><trkpt lat="43.9738233" lon="12.4523017"><ele>216.0</ele><time>2026-04-05T09:48:32.59Z</time></trkpt><trkpt lat="43.97367" lon="12.4522133"><ele>218.0</ele><time>2026-04-05T09:48:33.589Z</time></trkpt><trkpt lat="43.9735183" lon="12.4521183"><ele>218.0</ele><time>2026-04-05T09:48:34.59Z</time></trkpt><trkpt lat="43.9733783" lon="12.4520383"><ele>218.0</ele><time>2026-04-05T09:48:35.589Z</time></trkpt><trkpt lat="43.9732367" lon="12.4519917"><ele>218.0</ele><time>2026-04-05T09:48:36.589Z</time></trkpt><trkpt lat="43.9730917" lon="12.45199"><ele>218.0</ele><time>2026-04-05T09:48:37.59Z</time></trkpt><trkpt lat="43.972925" lon="12.452015"><ele>219.33333333333334</ele><time>2026-04-05T09:48:38.59Z</time></trkpt><trkpt lat="43.9727517" lon="12.452035"><ele>220.66666666666669</ele><time>2026-04-05T09:48:39.59Z</time></trkpt><trkpt lat="43.9725583" lon="12.452045"><ele>222.0</ele><time>2026-04-05T09:48:40.59Z</time></trkpt><trkpt lat="43.9723833" lon="12.4520517"><ele>223.75</ele><time>2026-04-05T09:48:41.59Z</time></trkpt><trkpt lat="43.972225" lon="12.4520467"><ele>225.5</ele><time>2026-04-05T09:48:42.589Z</time></trkpt><trkpt lat="43.97209" lon="12.4520533"><ele>227.25</ele><time>2026-04-05T09:48:43.59Z</time></trkpt><trkpt lat="43.9719767" lon="12.4520583"><ele>229.0</ele><time>2026-04-05T09:48:44.59Z</time></trkpt><trkpt lat="43.971905" lon="12.4520917"><ele>230.6</ele><time>2026-04-05T09:48:45.589Z</time></trkpt><trkpt lat="43.9718567" lon="12.452155"><ele>232.2</ele><time>2026-04-05T09:48:46.59Z</time></trkpt><trkpt lat="43.9718467" lon="12.4522533"><ele>233.79999999999998</ele><time>2026-04-05T09:48:47.589Z</time></trkpt><trkpt lat="43.9718767" lon="12.4523567"><ele>235.39999999999998</ele><time>2026-04-05T09:48:48.59Z</time></trkpt><trkpt lat="43.9719717" lon="12.4524333"><ele>237.0</ele><time>2026-04-05T09:48:49.589Z</time></trkpt><trkpt lat="43.9720967" lon="12.452505"><ele>237.0</ele><time>2026-04-05T09:48:50.589Z</time></trkpt><trkpt lat="43.9722417" lon="12.45257"><ele>237.0</ele><time>2026-04-05T09:48:51.59Z</time></trkpt><trkpt lat="43.9723783" lon="12.4526367"><ele>237.0</ele><time>2026-04-05T09:48:52.59Z</time></trkpt><trkpt lat="43.9725017" lon="12.4527217"><ele>237.0</ele><time>2026-04-05T09:48:53.59Z</time></trkpt><trkpt lat="43.972615" lon="12.4528167"><ele>234.5</ele><time>2026-04-05T09:48:54.59Z</time></trkpt><trkpt lat="43.972705" lon="12.4529317"><ele>232.0</ele><time>2026-04-05T09:48:55.589Z</time></trkpt><trkpt lat="43.972755" lon="12.45308"><ele>229.5</ele><time>2026-04-05T09:48:56.589Z</time></trkpt><trkpt lat="43.972765" lon="12.4532583"><ele>227.0</ele><time>2026-04-05T09:48:57.589Z</time></trkpt><trkpt lat="43.9727283" lon="12.4534533"><ele>226.33333333333334</ele><time>2026-04-05T09:48:58.59Z</time></trkpt><trkpt lat="43.97266" lon="12.45366"><ele>225.66666666666669</ele><time>2026-04-05T09:48:59.59Z</time></trkpt><trkpt lat="43.9725733" lon="12.4538833"><ele>225.0</ele><time>2026-04-05T09:49:00.589Z</time></trkpt><trkpt lat="43.9725" lon="12.4540933"><ele>227.0</ele><time>2026-04-05T09:49:01.59Z</time></trkpt><trkpt lat="43.972435" lon="12.45431"><ele>229.0</ele><time>2026-04-05T09:49:02.59Z</time></trkpt><trkpt lat="43.9724167" lon="12.454555"><ele>231.0</ele><time>2026-04-05T09:49:03.589Z</time></trkpt><trkpt lat="43.9724533" lon="12.4548133"><ele>227.66666666666669</ele><time>2026-04-05T09:49:04.59Z</time></trkpt><trkpt lat="43.9725383" lon="12.455065"><ele>224.33333333333334</ele><time>2026-04-05T09:49:05.59Z</time></trkpt><trkpt lat="43.97264" lon="12.4553067"><ele>221.0</ele><time>2026-04-05T09:49:06.589Z</time></trkpt><trkpt lat="43.9727267" lon="12.455535"><ele>221.0</ele><time>2026-04-05T09:49:07.589Z</time></trkpt><trkpt lat="43.9727983" lon="12.4557467"><ele>221.0</ele><time>2026-04-05T09:49:08.59Z</time></trkpt><trkpt lat="43.9728383" lon="12.4559733"><ele>221.0</ele><time>2026-04-05T09:49:09.589Z</time></trkpt><trkpt lat="43.9728417" lon="12.4562083"><ele>220.33333333333334</ele><time>2026-04-05T09:49:10.59Z</time></trkpt><trkpt lat="43.972815" lon="12.456465"><ele>219.66666666666669</ele><time>2026-04-05T09:49:11.59Z</time></trkpt><trkpt lat="43.9727633" lon="12.4567267"><ele>219.0</ele><time>2026-04-05T09:49:12.591Z</time></trkpt><trkpt lat="43.972715" lon="12.45697"><ele>216.66666666666669</ele><time>2026-04-05T09:49:13.591Z</time></trkpt><trkpt lat="43.972675" lon="12.4572167"><ele>214.33333333333334</ele><time>2026-04-05T09:49:14.591Z</time></trkpt><trkpt lat="43.9726667" lon="12.4574717"><ele>212.0</ele><time>2026-04-05T09:49:15.591Z</time></trkpt><trkpt lat="43.972695" lon="12.45776"><ele>209.5</ele><time>2026-04-05T09:49:16.591Z</time></trkpt><trkpt lat="43.97275" lon="12.4580567"><ele>207.0</ele><time>2026-04-05T09:49:17.591Z</time></trkpt><trkpt lat="43.972815" lon="12.4583733"><ele>207.0</ele><time>2026-04-05T09:49:18.591Z</time></trkpt><trkpt lat="43.972895" lon="12.4586983"><ele>207.0</ele><time>2026-04-05T09:49:19.591Z</time></trkpt><trkpt lat="43.9729883" lon="12.45904"><ele>209.0</ele><time>2026-04-05T09:49:20.591Z</time></trkpt><trkpt lat="43.973095" lon="12.4593783"><ele>211.0</ele><time>2026-04-05T09:49:21.591Z</time></trkpt><trkpt lat="43.973225" lon="12.45971"><ele>206.5</ele><time>2026-04-05T09:49:22.59Z</time></trkpt><trkpt lat="43.9733733" lon="12.4600583"><ele>202.0</ele><time>2026-04-05T09:49:23.591Z</time></trkpt><trkpt lat="43.9735333" lon="12.460435"><ele>206.5</ele><time>2026-04-05T09:49:24.59Z</time></trkpt><trkpt lat="43.9736983" lon="12.460815"><ele>211.0</ele><time>2026-04-05T09:49:25.59Z</time></trkpt><trkpt lat="43.9738517" lon="12.461165"><ele>213.0</ele><time>2026-04-05T09:49:26.591Z</time></trkpt><trkpt lat="43.9739933" lon="12.46149"><ele>215.0</ele><time>2026-04-05T09:49:27.59Z</time></trkpt><trkpt lat="43.9741233" lon="12.4617917"><ele>216.33333333333334</ele><time>2026-04-05T09:49:28.591Z</time></trkpt><trkpt lat="43.9742317" lon="12.46207"><ele>217.66666666666669</ele><time>2026-04-05T09:49:29.591Z</time></trkpt><trkpt lat="43.9743283" lon="12.4623183"><ele>219.0</ele><time>2026-04-05T09:49:30.591Z</time></trkpt><trkpt lat="43.974435" lon="12.4625267"><ele>219.0</ele><time>2026-04-05T09:49:31.591Z</time></trkpt><trkpt lat="43.974565" lon="12.4626833"><ele>219.0</ele><time>2026-04-05T09:49:32.591Z</time></trkpt><trkpt lat="43.9747" lon="12.4628017"><ele>219.0</ele><time>2026-04-05T09:49:33.591Z</time></trkpt><trkpt lat="43.974835" lon="12.46287"><ele>219.0</ele><time>2026-04-05T09:49:34.591Z</time></trkpt><trkpt lat="43.97497" lon="12.46292"><ele>219.0</ele><time>2026-04-05T09:49:35.591Z</time></trkpt><trkpt lat="43.9750983" lon="12.4629633"><ele>219.0</ele><time>2026-04-05T09:49:36.591Z</time></trkpt><trkpt lat="43.975245" lon="12.4630067"><ele>219.0</ele><time>2026-04-05T09:49:37.591Z</time></trkpt><trkpt lat="43.9754067" lon="12.4630317"><ele>219.33333333333331</ele><time>2026-04-05T09:49:38.59Z</time></trkpt><trkpt lat="43.975585" lon="12.463025"><ele>219.66666666666666</ele><time>2026-04-05T09:49:39.591Z</time></trkpt><trkpt lat="43.9757567" lon="12.463005"><ele>220.0</ele><time>2026-04-05T09:49:40.591Z</time></trkpt><trkpt lat="43.9759167" lon="12.46299"><ele>217.75</ele><time>2026-04-05T09:49:41.591Z</time></trkpt><trkpt lat="43.9760617" lon="12.4629833"><ele>215.5</ele><time>2026-04-05T09:49:42.59Z</time></trkpt><trkpt lat="43.9761933" lon="12.4630083"><ele>213.25</ele><time>2026-04-05T09:49:43.59Z</time></trkpt><trkpt lat="43.976305" lon="12.4630817"><ele>211.0</ele><time>2026-04-05T09:49:44.591Z</time></trkpt><trkpt lat="43.9764017" lon="12.463185"><ele>211.0</ele><time>2026-04-05T09:49:45.59Z</time></trkpt><trkpt lat="43.9764717" lon="12.4633067"><ele>211.0</ele><time>2026-04-05T09:49:46.591Z</time></trkpt><trkpt lat="43.9765233" lon="12.4634167"><ele>211.0</ele><time>2026-04-05T09:49:47.591Z</time></trkpt><trkpt lat="43.9765667" lon="12.4635017"><ele>211.0</ele><time>2026-04-05T09:49:48.591Z</time></trkpt><trkpt lat="43.976695" lon="12.4635017"><ele>211.0</ele><time>2026-04-05T09:49:50.591Z</time></trkpt><trkpt lat="43.9767367" lon="12.4633833"><ele>208.5</ele><time>2026-04-05T09:49:51.59Z</time></trkpt><trkpt lat="43.976755" lon="12.4631983"><ele>206.0</ele><time>2026-04-05T09:49:52.591Z</time></trkpt><trkpt lat="43.9767617" lon="12.4629983"><ele>203.5</ele><time>2026-04-05T09:49:53.591Z</time></trkpt><trkpt lat="43.9767717" lon="12.4628167"><ele>201.0</ele><time>2026-04-05T09:49:54.591Z</time></trkpt><trkpt lat="43.976795" lon="12.4626467"><ele>201.0</ele><time>2026-04-05T09:49:55.59Z</time></trkpt><trkpt lat="43.9768433" lon="12.4624983"><ele>201.0</ele><time>2026-04-05T09:49:56.59Z</time></trkpt><trkpt lat="43.9769167" lon="12.4623817"><ele>201.0</ele><time>2026-04-05T09:49:57.591Z</time></trkpt><trkpt lat="43.9770217" lon="12.4623017"><ele>201.0</ele><time>2026-04-05T09:49:58.591Z</time></trkpt><trkpt lat="43.9771417" lon="12.4622617"><ele>201.0</ele><time>2026-04-05T09:49:59.591Z</time></trkpt><trkpt lat="43.97729" lon="12.4622617"><ele>201.0</ele><time>2026-04-05T09:50:00.591Z</time></trkpt><trkpt lat="43.9774517" lon="12.46227"><ele>201.0</ele><time>2026-04-05T09:50:01.591Z</time></trkpt><trkpt lat="43.977605" lon="12.4622717"><ele>198.0</ele><time>2026-04-05T09:50:02.59Z</time></trkpt><trkpt lat="43.97776" lon="12.4622683"><ele>195.0</ele><time>2026-04-05T09:50:03.591Z</time></trkpt><trkpt lat="43.9779333" lon="12.4622617"><ele>192.0</ele><time>2026-04-05T09:50:04.59Z</time></trkpt><trkpt lat="43.9781183" lon="12.462245"><ele>192.0</ele><time>2026-04-05T09:50:05.591Z</time></trkpt><trkpt lat="43.978315" lon="12.4622167"><ele>192.0</ele><time>2026-04-05T09:50:06.591Z</time></trkpt><trkpt lat="43.97851" lon="12.4621717"><ele>192.0</ele><time>2026-04-05T09:50:07.591Z</time></trkpt><trkpt lat="43.9787133" lon="12.4621333"><ele>191.0</ele><time>2026-04-05T09:50:08.591Z</time></trkpt><trkpt lat="43.978915" lon="12.46209"><ele>190.0</ele><time>2026-04-05T09:50:09.591Z</time></trkpt><trkpt lat="43.979115" lon="12.462035"><ele>189.0</ele><time>2026-04-05T09:50:10.591Z</time></trkpt><trkpt lat="43.979315" lon="12.4619867"><ele>187.66666666666666</ele><time>2026-04-05T09:50:11.591Z</time></trkpt><trkpt lat="43.9795017" lon="12.4619383"><ele>186.33333333333331</ele><time>2026-04-05T09:50:12.59Z</time></trkpt><trkpt lat="43.9796833" lon="12.4618917"><ele>185.0</ele><time>2026-04-05T09:50:13.591Z</time></trkpt><trkpt lat="43.979865" lon="12.4618417"><ele>183.33333333333331</ele><time>2026-04-05T09:50:14.59Z</time></trkpt><trkpt lat="43.9800467" lon="12.4617733"><ele>181.66666666666666</ele><time>2026-04-05T09:50:15.59Z</time></trkpt><trkpt lat="43.9802317" lon="12.46166"><ele>180.0</ele><time>2026-04-05T09:50:16.591Z</time></trkpt><trkpt lat="43.9804167" lon="12.4614883"><ele>180.0</ele><time>2026-04-05T09:50:17.591Z</time></trkpt><trkpt lat="43.9805817" lon="12.461315"><ele>180.0</ele><time>2026-04-05T09:50:18.591Z</time></trkpt><trkpt lat="43.9807267" lon="12.4611467"><ele>180.0</ele><time>2026-04-05T09:50:19.59Z</time></trkpt><trkpt lat="43.980865" lon="12.460985"><ele>180.33333333333334</ele><time>2026-04-05T09:50:20.59Z</time></trkpt><trkpt lat="43.981005" lon="12.460835"><ele>180.66666666666669</ele><time>2026-04-05T09:50:21.591Z</time></trkpt><trkpt lat="43.9811417" lon="12.46068"><ele>181.0</ele><time>2026-04-05T09:50:22.591Z</time></trkpt><trkpt lat="43.981275" lon="12.460545"><ele>180.33333333333334</ele><time>2026-04-05T09:50:23.591Z</time></trkpt><trkpt lat="43.9814117" lon="12.46043"><ele>179.66666666666666</ele><time>2026-04-05T09:50:24.59Z</time></trkpt><trkpt lat="43.9815567" lon="12.4603433"><ele>179.0</ele><time>2026-04-05T09:50:25.59Z</time></trkpt><trkpt lat="43.9817217" lon="12.460305"><ele>179.0</ele><time>2026-04-05T09:50:26.591Z</time></trkpt><trkpt lat="43.9819083" lon="12.4602883"><ele>179.0</ele><time>2026-04-05T09:50:27.591Z</time></trkpt><trkpt lat="43.9821183" lon="12.4602717"><ele>179.0</ele><time>2026-04-05T09:50:28.591Z</time></trkpt><trkpt lat="43.9823417" lon="12.46024"><ele>180.66666666666666</ele><time>2026-04-05T09:50:29.591Z</time></trkpt><trkpt lat="43.9825617" lon="12.46022"><ele>182.33333333333334</ele><time>2026-04-05T09:50:30.591Z</time></trkpt><trkpt lat="43.982765" lon="12.46021"><ele>184.0</ele><time>2026-04-05T09:50:31.591Z</time></trkpt><trkpt lat="43.9829567" lon="12.4601983"><ele>184.0</ele><time>2026-04-05T09:50:32.59Z</time></trkpt><trkpt lat="43.9831383" lon="12.4601917"><ele>184.0</ele><time>2026-04-05T09:50:33.591Z</time></trkpt><trkpt lat="43.983315" lon="12.4601967"><ele>184.0</ele><time>2026-04-05T09:50:34.59Z</time></trkpt><trkpt lat="43.983485" lon="12.4602267"><ele>183.0</ele><time>2026-04-05T09:50:35.591Z</time></trkpt><trkpt lat="43.9836483" lon="12.4602867"><ele>182.0</ele><time>2026-04-05T09:50:36.591Z</time></trkpt><trkpt lat="43.9838167" lon="12.4603583"><ele>181.0</ele><time>2026-04-05T09:50:37.59Z</time></trkpt><trkpt lat="43.983985" lon="12.4604317"><ele>179.66666666666669</ele><time>2026-04-05T09:50:38.591Z</time></trkpt><trkpt lat="43.9841517" lon="12.4605017"><ele>178.33333333333334</ele><time>2026-04-05T09:50:39.59Z</time></trkpt><trkpt lat="43.9843217" lon="12.460565"><ele>177.0</ele><time>2026-04-05T09:50:40.591Z</time></trkpt><trkpt lat="43.9844967" lon="12.46062"><ele>175.66666666666666</ele><time>2026-04-05T09:50:41.591Z</time></trkpt><trkpt lat="43.9846767" lon="12.460655"><ele>174.33333333333331</ele><time>2026-04-05T09:50:42.59Z</time></trkpt><trkpt lat="43.9848633" lon="12.4606883"><ele>173.0</ele><time>2026-04-05T09:50:43.59Z</time></trkpt><trkpt lat="43.9850617" lon="12.4607367"><ele>172.33333333333331</ele><time>2026-04-05T09:50:44.591Z</time></trkpt><trkpt lat="43.9852667" lon="12.460805"><ele>171.66666666666666</ele><time>2026-04-05T09:50:45.591Z</time></trkpt><trkpt lat="43.985485" lon="12.4608783"><ele>171.0</ele><time>2026-04-05T09:50:46.591Z</time></trkpt><trkpt lat="43.9857133" lon="12.46096"><ele>171.0</ele><time>2026-04-05T09:50:47.59Z</time></trkpt><trkpt lat="43.98595" lon="12.4610533"><ele>171.0</ele><time>2026-04-05T09:50:48.59Z</time></trkpt><trkpt lat="43.9861783" lon="12.4611483"><ele>171.0</ele><time>2026-04-05T09:50:49.591Z</time></trkpt><trkpt lat="43.986395" lon="12.4612483"><ele>171.0</ele><time>2026-04-05T09:50:50.591Z</time></trkpt><trkpt lat="43.9866067" lon="12.4613483"><ele>173.0</ele><time>2026-04-05T09:50:51.591Z</time></trkpt><trkpt lat="43.9868133" lon="12.4614483"><ele>175.0</ele><time>2026-04-05T09:50:52.591Z</time></trkpt><trkpt lat="43.98703" lon="12.4615517"><ele>177.0</ele><time>2026-04-05T09:50:53.591Z</time></trkpt><trkpt lat="43.9872517" lon="12.4616517"><ele>177.0</ele><time>2026-04-05T09:50:54.591Z</time></trkpt><trkpt lat="43.9874717" lon="12.46175"><ele>177.0</ele><time>2026-04-05T09:50:55.59Z</time></trkpt><trkpt lat="43.9876967" lon="12.4618583"><ele>180.0</ele><time>2026-04-05T09:50:56.59Z</time></trkpt><trkpt lat="43.987915" lon="12.4619633"><ele>183.0</ele><time>2026-04-05T09:50:57.59Z</time></trkpt><trkpt lat="43.988125" lon="12.4620583"><ele>183.66666666666666</ele><time>2026-04-05T09:50:58.591Z</time></trkpt><trkpt lat="43.988325" lon="12.4621583"><ele>184.33333333333331</ele><time>2026-04-05T09:50:59.591Z</time></trkpt><trkpt lat="43.98852" lon="12.46226"><ele>185.0</ele><time>2026-04-05T09:51:00.591Z</time></trkpt><trkpt lat="43.98869" lon="12.4623683"><ele>185.0</ele><time>2026-04-05T09:51:01.591Z</time></trkpt><trkpt lat="43.98885" lon="12.4624733"><ele>185.0</ele><time>2026-04-05T09:51:02.591Z</time></trkpt><trkpt lat="43.9890083" lon="12.46257"><ele>185.0</ele><time>2026-04-05T09:51:03.591Z</time></trkpt><trkpt lat="43.9891667" lon="12.4626583"><ele>185.33333333333331</ele><time>2026-04-05T09:51:04.591Z</time></trkpt><trkpt lat="43.9893117" lon="12.4627433"><ele>185.66666666666666</ele><time>2026-04-05T09:51:05.591Z</time></trkpt><trkpt lat="43.9894517" lon="12.462825"><ele>186.0</ele><time>2026-04-05T09:51:06.59Z</time></trkpt><trkpt lat="43.9896033" lon="12.4629117"><ele>185.0</ele><time>2026-04-05T09:51:07.591Z</time></trkpt><trkpt lat="43.9897483" lon="12.4630267"><ele>184.0</ele><time>2026-04-05T09:51:08.591Z</time></trkpt><trkpt lat="43.9898917" lon="12.4631583"><ele>183.0</ele><time>2026-04-05T09:51:09.591Z</time></trkpt><trkpt lat="43.9900417" lon="12.4633033"><ele>181.33333333333334</ele><time>2026-04-05T09:51:10.591Z</time></trkpt><trkpt lat="43.9901967" lon="12.4634517"><ele>179.66666666666669</ele><time>2026-04-05T09:51:11.591Z</time></trkpt><trkpt lat="43.9903517" lon="12.4636017"><ele>178.0</ele><time>2026-04-05T09:51:12.591Z</time></trkpt><trkpt lat="43.99049" lon="12.4637583"><ele>178.66666666666669</ele><time>2026-04-05T09:51:13.591Z</time></trkpt><trkpt lat="43.9906167" lon="12.4639267"><ele>179.33333333333334</ele><time>2026-04-05T09:51:14.591Z</time></trkpt><trkpt lat="43.9907483" lon="12.464105"><ele>180.0</ele><time>2026-04-05T09:51:15.591Z</time></trkpt><trkpt lat="43.9908833" lon="12.4642783"><ele>178.33333333333334</ele><time>2026-04-05T09:51:16.591Z</time></trkpt><trkpt lat="43.991015" lon="12.4644567"><ele>176.66666666666669</ele><time>2026-04-05T09:51:17.591Z</time></trkpt><trkpt lat="43.9911433" lon="12.46464"><ele>175.0</ele><time>2026-04-05T09:51:18.59Z</time></trkpt><trkpt lat="43.9912733" lon="12.4648267"><ele>175.0</ele><time>2026-04-05T09:51:19.591Z</time></trkpt><trkpt lat="43.9914117" lon="12.4650183"><ele>175.0</ele><time>2026-04-05T09:51:20.59Z</time></trkpt><trkpt lat="43.991555" lon="12.4652083"><ele>175.0</ele><time>2026-04-05T09:51:21.591Z</time></trkpt><trkpt lat="43.99169" lon="12.4654"><ele>175.66666666666669</ele><time>2026-04-05T09:51:22.591Z</time></trkpt><trkpt lat="43.991825" lon="12.4655867"><ele>176.33333333333334</ele><time>2026-04-05T09:51:23.591Z</time></trkpt><trkpt lat="43.991955" lon="12.46577"><ele>177.0</ele><time>2026-04-05T09:51:24.59Z</time></trkpt><trkpt lat="43.9920817" lon="12.4659483"><ele>177.0</ele><time>2026-04-05T09:51:25.59Z</time></trkpt><trkpt lat="43.9922" lon="12.46613"><ele>177.0</ele><time>2026-04-05T09:51:26.59Z</time></trkpt><trkpt lat="43.9923167" lon="12.4663233"><ele>177.0</ele><time>2026-04-05T09:51:27.591Z</time></trkpt><trkpt lat="43.9924333" lon="12.4665267"><ele>176.66666666666666</ele><time>2026-04-05T09:51:28.591Z</time></trkpt><trkpt lat="43.9925567" lon="12.4667317"><ele>176.33333333333331</ele><time>2026-04-05T09:51:29.59Z</time></trkpt><trkpt lat="43.9926817" lon="12.4669317"><ele>176.0</ele><time>2026-04-05T09:51:30.591Z</time></trkpt><trkpt lat="43.992815" lon="12.4671267"><ele>176.0</ele><time>2026-04-05T09:51:31.591Z</time></trkpt><trkpt lat="43.9929467" lon="12.4673233"><ele>176.0</ele><time>2026-04-05T09:51:32.591Z</time></trkpt><trkpt lat="43.9930817" lon="12.4675217"><ele>176.0</ele><time>2026-04-05T09:51:33.59Z</time></trkpt><trkpt lat="43.9932183" lon="12.46772"><ele>176.33333333333331</ele><time>2026-04-05T09:51:34.591Z</time></trkpt><trkpt lat="43.9933483" lon="12.4679167"><ele>176.66666666666666</ele><time>2026-04-05T09:51:35.591Z</time></trkpt><trkpt lat="43.993475" lon="12.4681117"><ele>177.0</ele><time>2026-04-05T09:51:36.59Z</time></trkpt><trkpt lat="43.993595" lon="12.4683117"><ele>177.0</ele><time>2026-04-05T09:51:37.591Z</time></trkpt><trkpt lat="43.9937183" lon="12.4685067"><ele>177.0</ele><time>2026-04-05T09:51:38.591Z</time></trkpt><trkpt lat="43.9938483" lon="12.46871"><ele>177.0</ele><time>2026-04-05T09:51:39.59Z</time></trkpt><trkpt lat="43.9939867" lon="12.4689133"><ele>176.66666666666666</ele><time>2026-04-05T09:51:40.59Z</time></trkpt><trkpt lat="43.994125" lon="12.4691117"><ele>176.33333333333331</ele><time>2026-04-05T09:51:41.591Z</time></trkpt><trkpt lat="43.9942667" lon="12.4693133"><ele>176.0</ele><time>2026-04-05T09:51:42.591Z</time></trkpt><trkpt lat="43.9944117" lon="12.4695233"><ele>175.66666666666666</ele><time>2026-04-05T09:51:43.591Z</time></trkpt><trkpt lat="43.9945633" lon="12.4697417"><ele>175.33333333333334</ele><time>2026-04-05T09:51:44.59Z</time></trkpt><trkpt lat="43.9947167" lon="12.46997"><ele>175.0</ele><time>2026-04-05T09:51:45.59Z</time></trkpt><trkpt lat="43.9948733" lon="12.4702033"><ele>175.0</ele><time>2026-04-05T09:51:46.591Z</time></trkpt><trkpt lat="43.9950383" lon="12.4704333"><ele>175.0</ele><time>2026-04-05T09:51:47.59Z</time></trkpt><trkpt lat="43.9952" lon="12.470655"><ele>175.0</ele><time>2026-04-05T09:51:48.591Z</time></trkpt><trkpt lat="43.99536" lon="12.4708717"><ele>175.0</ele><time>2026-04-05T09:51:49.591Z</time></trkpt><trkpt lat="43.99552" lon="12.4710867"><ele>175.0</ele><time>2026-04-05T09:51:50.591Z</time></trkpt><trkpt lat="43.9956767" lon="12.4712967"><ele>175.33333333333334</ele><time>2026-04-05T09:51:51.59Z</time></trkpt><trkpt lat="43.99583" lon="12.4715"><ele>175.66666666666666</ele><time>2026-04-05T09:51:52.591Z</time></trkpt><trkpt lat="43.99597" lon="12.4716867"><ele>176.0</ele><time>2026-04-05T09:51:53.591Z</time></trkpt><trkpt lat="43.996105" lon="12.4718617"><ele>176.0</ele><time>2026-04-05T09:51:54.591Z</time></trkpt><trkpt lat="43.996235" lon="12.472035"><ele>176.0</ele><time>2026-04-05T09:51:55.59Z</time></trkpt><trkpt lat="43.9963633" lon="12.4722033"><ele>176.0</ele><time>2026-04-05T09:51:56.591Z</time></trkpt><trkpt lat="43.9964817" lon="12.4723633"><ele>176.66666666666666</ele><time>2026-04-05T09:51:57.59Z</time></trkpt><trkpt lat="43.996595" lon="12.4725133"><ele>177.33333333333334</ele><time>2026-04-05T09:51:58.59Z</time></trkpt><trkpt lat="43.996715" lon="12.4726683"><ele>178.0</ele><time>2026-04-05T09:51:59.591Z</time></trkpt><trkpt lat="43.99684" lon="12.4728483"><ele>181.0</ele><time>2026-04-05T09:52:00.59Z</time></trkpt><trkpt lat="43.9969617" lon="12.4730483"><ele>184.0</ele><time>2026-04-05T09:52:01.591Z</time></trkpt><trkpt lat="43.9970867" lon="12.4732433"><ele>187.0</ele><time>2026-04-05T09:52:02.591Z</time></trkpt><trkpt lat="43.9972067" lon="12.473425"><ele>187.0</ele><time>2026-04-05T09:52:03.59Z</time></trkpt><trkpt lat="43.9973467" lon="12.4735767"><ele>187.0</ele><time>2026-04-05T09:52:04.59Z</time></trkpt><trkpt lat="43.9975017" lon="12.4737033"><ele>187.0</ele><time>2026-04-05T09:52:05.591Z</time></trkpt><trkpt lat="43.9976767" lon="12.4738233"><ele>188.0</ele><time>2026-04-05T09:52:06.591Z</time></trkpt><trkpt lat="43.9978633" lon="12.473945"><ele>189.0</ele><time>2026-04-05T09:52:07.591Z</time></trkpt><trkpt lat="43.99805" lon="12.4740633"><ele>190.0</ele><time>2026-04-05T09:52:08.591Z</time></trkpt><trkpt lat="43.998225" lon="12.4741783"><ele>190.66666666666669</ele><time>2026-04-05T09:52:09.59Z</time></trkpt><trkpt lat="43.99841" lon="12.47429"><ele>191.33333333333334</ele><time>2026-04-05T09:52:10.591Z</time></trkpt><trkpt lat="43.9985933" lon="12.474395"><ele>192.0</ele><time>2026-04-05T09:52:11.59Z</time></trkpt><trkpt lat="43.99877" lon="12.4745"><ele>192.0</ele><time>2026-04-05T09:52:12.591Z</time></trkpt><trkpt lat="43.9989417" lon="12.474595"><ele>192.0</ele><time>2026-04-05T09:52:13.59Z</time></trkpt><trkpt lat="43.999115" lon="12.4747017"><ele>192.0</ele><time>2026-04-05T09:52:14.591Z</time></trkpt><trkpt lat="43.9992817" lon="12.4747967"><ele>194.33333333333331</ele><time>2026-04-05T09:52:15.591Z</time></trkpt><trkpt lat="43.99944" lon="12.4749017"><ele>196.66666666666666</ele><time>2026-04-05T09:52:16.591Z</time></trkpt><trkpt lat="43.9995917" lon="12.475"><ele>199.0</ele><time>2026-04-05T09:52:17.591Z</time></trkpt><trkpt lat="43.9997333" lon="12.4751"><ele>199.0</ele><time>2026-04-05T09:52:18.591Z</time></trkpt><trkpt lat="43.9998717" lon="12.4752083"><ele>199.0</ele><time>2026-04-05T09:52:19.591Z</time></trkpt><trkpt lat="44.0000083" lon="12.4753217"><ele>199.0</ele><time>2026-04-05T09:52:20.591Z</time></trkpt><trkpt lat="44.0001383" lon="12.4754583"><ele>197.0</ele><time>2026-04-05T09:52:21.59Z</time></trkpt><trkpt lat="44.0002567" lon="12.475635"><ele>195.0</ele><time>2026-04-05T09:52:22.591Z</time></trkpt><trkpt lat="44.00036" lon="12.4758317"><ele>193.0</ele><time>2026-04-05T09:52:23.591Z</time></trkpt><trkpt lat="44.0004567" lon="12.4760617"><ele>189.66666666666666</ele><time>2026-04-05T09:52:24.59Z</time></trkpt><trkpt lat="44.0005583" lon="12.4763083"><ele>186.33333333333331</ele><time>2026-04-05T09:52:25.591Z</time></trkpt><trkpt lat="44.0006533" lon="12.4765617"><ele>183.0</ele><time>2026-04-05T09:52:26.591Z</time></trkpt><trkpt lat="44.000735" lon="12.4768183"><ele>183.0</ele><time>2026-04-05T09:52:27.591Z</time></trkpt><trkpt lat="44.00081" lon="12.477095"><ele>183.0</ele><time>2026-04-05T09:52:28.59Z</time></trkpt><trkpt lat="44.0008833" lon="12.477375"><ele>183.0</ele><time>2026-04-05T09:52:29.591Z</time></trkpt><trkpt lat="44.000955" lon="12.4776467"><ele>183.66666666666666</ele><time>2026-04-05T09:52:30.59Z</time></trkpt><trkpt lat="44.0010217" lon="12.477905"><ele>184.33333333333331</ele><time>2026-04-05T09:52:31.59Z</time></trkpt><trkpt lat="44.0010833" lon="12.4781517"><ele>185.0</ele><time>2026-04-05T09:52:32.59Z</time></trkpt><trkpt lat="44.0011467" lon="12.478385"><ele>185.0</ele><time>2026-04-05T09:52:33.59Z</time></trkpt><trkpt lat="44.0012333" lon="12.4786117"><ele>185.0</ele><time>2026-04-05T09:52:34.59Z</time></trkpt><trkpt lat="44.0013417" lon="12.4788367"><ele>185.0</ele><time>2026-04-05T09:52:35.591Z</time></trkpt><trkpt lat="44.0014583" lon="12.4790567"><ele>185.33333333333331</ele><time>2026-04-05T09:52:36.591Z</time></trkpt><trkpt lat="44.0015767" lon="12.4792583"><ele>185.66666666666666</ele><time>2026-04-05T09:52:37.591Z</time></trkpt><trkpt lat="44.00168" lon="12.47945"><ele>186.0</ele><time>2026-04-05T09:52:38.591Z</time></trkpt><trkpt lat="44.00176" lon="12.4796233"><ele>184.25</ele><time>2026-04-05T09:52:39.59Z</time></trkpt><trkpt lat="44.001805" lon="12.4798017"><ele>182.5</ele><time>2026-04-05T09:52:40.59Z</time></trkpt><trkpt lat="44.0018133" lon="12.4799883"><ele>180.75</ele><time>2026-04-05T09:52:41.591Z</time></trkpt><trkpt lat="44.001785" lon="12.4801783"><ele>179.0</ele><time>2026-04-05T09:52:42.591Z</time></trkpt><trkpt lat="44.001745" lon="12.4803717"><ele>178.0</ele><time>2026-04-05T09:52:43.59Z</time></trkpt><trkpt lat="44.0017067" lon="12.4805217"><ele>177.0</ele><time>2026-04-05T09:52:44.59Z</time></trkpt><trkpt lat="44.001685" lon="12.480645"><ele>176.0</ele><time>2026-04-05T09:52:45.591Z</time></trkpt><trkpt lat="44.001685" lon="12.4807567"><ele>175.0</ele><time>2026-04-05T09:52:46.59Z</time></trkpt><trkpt lat="44.001735" lon="12.48084"><ele>174.0</ele><time>2026-04-05T09:52:47.59Z</time></trkpt><trkpt lat="44.0018133" lon="12.4808717"><ele>173.0</ele><time>2026-04-05T09:52:48.591Z</time></trkpt><trkpt lat="44.0019133" lon="12.4808217"><ele>173.0</ele><time>2026-04-05T09:52:49.591Z</time></trkpt><trkpt lat="44.0020117" lon="12.4806983"><ele>173.0</ele><time>2026-04-05T09:52:50.591Z</time></trkpt><trkpt lat="44.002125" lon="12.4805333"><ele>173.0</ele><time>2026-04-05T09:52:51.59Z</time></trkpt><trkpt lat="44.0022333" lon="12.480345"><ele>174.5</ele><time>2026-04-05T09:52:52.591Z</time></trkpt><trkpt lat="44.0023333" lon="12.4801783"><ele>176.0</ele><time>2026-04-05T09:52:53.591Z</time></trkpt><trkpt lat="44.002435" lon="12.4800517"><ele>177.5</ele><time>2026-04-05T09:52:54.591Z</time></trkpt><trkpt lat="44.0025217" lon="12.4799683"><ele>179.0</ele><time>2026-04-05T09:52:55.591Z</time></trkpt><trkpt lat="44.0026167" lon="12.47996"><ele>176.0</ele><time>2026-04-05T09:52:56.591Z</time></trkpt><trkpt lat="44.0027017" lon="12.4800167"><ele>173.0</ele><time>2026-04-05T09:52:57.591Z</time></trkpt><trkpt lat="44.0027633" lon="12.4801233"><ele>170.0</ele><time>2026-04-05T09:52:58.591Z</time></trkpt><trkpt lat="44.0027917" lon="12.4802783"><ele>167.0</ele><time>2026-04-05T09:52:59.591Z</time></trkpt><trkpt lat="44.002805" lon="12.4804617"><ele>164.0</ele><time>2026-04-05T09:53:00.59Z</time></trkpt><trkpt lat="44.00283" lon="12.4806483"><ele>163.33333333333331</ele><time>2026-04-05T09:53:01.591Z</time></trkpt><trkpt lat="44.002895" lon="12.480815"><ele>162.66666666666666</ele><time>2026-04-05T09:53:02.591Z</time></trkpt><trkpt lat="44.003005" lon="12.480955"><ele>162.0</ele><time>2026-04-05T09:53:03.59Z</time></trkpt><trkpt lat="44.003165" lon="12.481095"><ele>158.66666666666666</ele><time>2026-04-05T09:53:04.59Z</time></trkpt><trkpt lat="44.0033417" lon="12.481225"><ele>155.33333333333331</ele><time>2026-04-05T09:53:05.591Z</time></trkpt><trkpt lat="44.0035133" lon="12.481345"><ele>152.0</ele><time>2026-04-05T09:53:06.591Z</time></trkpt><trkpt lat="44.00367" lon="12.4814683"><ele>152.0</ele><time>2026-04-05T09:53:07.591Z</time></trkpt><trkpt lat="44.0038333" lon="12.4816017"><ele>152.0</ele><time>2026-04-05T09:53:08.591Z</time></trkpt><trkpt lat="44.003995" lon="12.481755"><ele>152.0</ele><time>2026-04-05T09:53:09.59Z</time></trkpt><trkpt lat="44.004145" lon="12.4819483"><ele>149.66666666666666</ele><time>2026-04-05T09:53:10.591Z</time></trkpt><trkpt lat="44.0042867" lon="12.482165"><ele>147.33333333333334</ele><time>2026-04-05T09:53:11.59Z</time></trkpt><trkpt lat="44.004425" lon="12.4823767"><ele>145.0</ele><time>2026-04-05T09:53:12.59Z</time></trkpt><trkpt lat="44.0045567" lon="12.4825817"><ele>145.0</ele><time>2026-04-05T09:53:13.59Z</time></trkpt><trkpt lat="44.0046883" lon="12.48278"><ele>145.0</ele><time>2026-04-05T09:53:14.59Z</time></trkpt><trkpt lat="44.0048133" lon="12.482975"><ele>145.0</ele><time>2026-04-05T09:53:15.59Z</time></trkpt><trkpt lat="44.0049417" lon="12.4831667"><ele>144.0</ele><time>2026-04-05T09:53:16.591Z</time></trkpt><trkpt lat="44.0050683" lon="12.483355"><ele>143.0</ele><time>2026-04-05T09:53:17.59Z</time></trkpt><trkpt lat="44.005195" lon="12.483555"><ele>142.0</ele><time>2026-04-05T09:53:18.59Z</time></trkpt><trkpt lat="44.005325" lon="12.4837533"><ele>140.33333333333334</ele><time>2026-04-05T09:53:19.591Z</time></trkpt><trkpt lat="44.00546" lon="12.4839517"><ele>138.66666666666666</ele><time>2026-04-05T09:53:20.59Z</time></trkpt><trkpt lat="44.0055933" lon="12.48415"><ele>137.0</ele><time>2026-04-05T09:53:21.591Z</time></trkpt><trkpt lat="44.00573" lon="12.484355"><ele>137.33333333333331</ele><time>2026-04-05T09:53:22.591Z</time></trkpt><trkpt lat="44.00587" lon="12.4845617"><ele>137.66666666666666</ele><time>2026-04-05T09:53:23.591Z</time></trkpt><trkpt lat="44.0060017" lon="12.4847683"><ele>138.0</ele><time>2026-04-05T09:53:24.591Z</time></trkpt><trkpt lat="44.0061267" lon="12.4849633"><ele>138.66666666666666</ele><time>2026-04-05T09:53:25.591Z</time></trkpt><trkpt lat="44.0062517" lon="12.48516"><ele>139.33333333333331</ele><time>2026-04-05T09:53:26.591Z</time></trkpt><trkpt lat="44.0063767" lon="12.4853467"><ele>140.0</ele><time>2026-04-05T09:53:27.59Z</time></trkpt><trkpt lat="44.0065083" lon="12.485515"><ele>140.0</ele><time>2026-04-05T09:53:28.59Z</time></trkpt><trkpt lat="44.00665" lon="12.4856667"><ele>140.0</ele><time>2026-04-05T09:53:29.591Z</time></trkpt><trkpt lat="44.00681" lon="12.4857983"><ele>140.0</ele><time>2026-04-05T09:53:30.59Z</time></trkpt><trkpt lat="44.0069917" lon="12.4858983"><ele>138.66666666666666</ele><time>2026-04-05T09:53:31.59Z</time></trkpt><trkpt lat="44.0071933" lon="12.4859983"><ele>137.33333333333334</ele><time>2026-04-05T09:53:32.591Z</time></trkpt><trkpt lat="44.0074067" lon="12.4861117"><ele>136.0</ele><time>2026-04-05T09:53:33.59Z</time></trkpt><trkpt lat="44.00761" lon="12.4862367"><ele>134.0</ele><time>2026-04-05T09:53:34.59Z</time></trkpt><trkpt lat="44.0078017" lon="12.4863717"><ele>132.0</ele><time>2026-04-05T09:53:35.59Z</time></trkpt><trkpt lat="44.0079867" lon="12.4865083"><ele>130.0</ele><time>2026-04-05T09:53:36.591Z</time></trkpt><trkpt lat="44.00817" lon="12.4866517"><ele>132.0</ele><time>2026-04-05T09:53:37.591Z</time></trkpt><trkpt lat="44.0083517" lon="12.4868067"><ele>134.0</ele><time>2026-04-05T09:53:38.591Z</time></trkpt><trkpt lat="44.0085367" lon="12.4869683"><ele>136.0</ele><time>2026-04-05T09:53:39.59Z</time></trkpt><trkpt lat="44.0087183" lon="12.4871467"><ele>136.0</ele><time>2026-04-05T09:53:40.591Z</time></trkpt><trkpt lat="44.0089083" lon="12.4873367"><ele>136.0</ele><time>2026-04-05T09:53:41.591Z</time></trkpt><trkpt lat="44.0091217" lon="12.4875517"><ele>139.0</ele><time>2026-04-05T09:53:42.59Z</time></trkpt><trkpt lat="44.0093533" lon="12.48779"><ele>142.0</ele><time>2026-04-05T09:53:43.591Z</time></trkpt><trkpt lat="44.0095733" lon="12.4880467"><ele>142.0</ele><time>2026-04-05T09:53:44.591Z</time></trkpt><trkpt lat="44.0097867" lon="12.488285"><ele>142.0</ele><time>2026-04-05T09:53:45.591Z</time></trkpt><trkpt lat="44.009995" lon="12.4885133"><ele>143.5</ele><time>2026-04-05T09:53:46.591Z</time></trkpt><trkpt lat="44.0102" lon="12.4887167"><ele>145.0</ele><time>2026-04-05T09:53:47.591Z</time></trkpt><trkpt lat="44.0103883" lon="12.4888967"><ele>146.0</ele><time>2026-04-05T09:53:48.591Z</time></trkpt><trkpt lat="44.0105667" lon="12.489055"><ele>147.0</ele><time>2026-04-05T09:53:49.59Z</time></trkpt><trkpt lat="44.0107433" lon="12.489205"><ele>148.0</ele><time>2026-04-05T09:53:50.591Z</time></trkpt><trkpt lat="44.0109367" lon="12.48936"><ele>148.0</ele><time>2026-04-05T09:53:51.59Z</time></trkpt><trkpt lat="44.0111583" lon="12.489525"><ele>148.0</ele><time>2026-04-05T09:53:52.591Z</time></trkpt><trkpt lat="44.0114017" lon="12.4897017"><ele>148.5</ele><time>2026-04-05T09:53:53.591Z</time></trkpt><trkpt lat="44.0116367" lon="12.4898883"><ele>149.0</ele><time>2026-04-05T09:53:54.59Z</time></trkpt><trkpt lat="44.011855" lon="12.4900683"><ele>144.5</ele><time>2026-04-05T09:53:55.59Z</time></trkpt><trkpt lat="44.0120733" lon="12.4902433"><ele>140.0</ele><time>2026-04-05T09:53:56.591Z</time></trkpt><trkpt lat="44.0122933" lon="12.4904083"><ele>136.5</ele><time>2026-04-05T09:53:57.59Z</time></trkpt><trkpt lat="44.0125067" lon="12.49058"><ele>133.0</ele><time>2026-04-05T09:53:58.591Z</time></trkpt><trkpt lat="44.0127217" lon="12.4907433"><ele>133.0</ele><time>2026-04-05T09:53:59.591Z</time></trkpt><trkpt lat="44.0129333" lon="12.4909117"><ele>133.0</ele><time>2026-04-05T09:54:00.591Z</time></trkpt><trkpt lat="44.0131433" lon="12.4910883"><ele>132.0</ele><time>2026-04-05T09:54:01.59Z</time></trkpt><trkpt lat="44.01335" lon="12.4912733"><ele>131.0</ele><time>2026-04-05T09:54:02.59Z</time></trkpt><trkpt lat="44.0135617" lon="12.4914667"><ele>131.0</ele><time>2026-04-05T09:54:03.59Z</time></trkpt><trkpt lat="44.01378" lon="12.491675"><ele>131.0</ele><time>2026-04-05T09:54:04.59Z</time></trkpt><trkpt lat="44.0140017" lon="12.4919033"><ele>133.0</ele><time>2026-04-05T09:54:05.591Z</time></trkpt><trkpt lat="44.01423" lon="12.4921317"><ele>135.0</ele><time>2026-04-05T09:54:06.591Z</time></trkpt><trkpt lat="44.0144633" lon="12.492355"><ele>135.0</ele><time>2026-04-05T09:54:07.59Z</time></trkpt><trkpt lat="44.01468" lon="12.4925867"><ele>135.0</ele><time>2026-04-05T09:54:08.591Z</time></trkpt><trkpt lat="44.01489" lon="12.492795"><ele>133.0</ele><time>2026-04-05T09:54:09.59Z</time></trkpt><trkpt lat="44.0150833" lon="12.4929967"><ele>131.0</ele><time>2026-04-05T09:54:10.591Z</time></trkpt><trkpt lat="44.0152683" lon="12.49319"><ele>131.0</ele><time>2026-04-05T09:54:11.59Z</time></trkpt><trkpt lat="44.0154483" lon="12.493385"><ele>131.0</ele><time>2026-04-05T09:54:12.591Z</time></trkpt><trkpt lat="44.0156233" lon="12.4935883"><ele>128.0</ele><time>2026-04-05T09:54:13.591Z</time></trkpt><trkpt lat="44.0157933" lon="12.49381"><ele>125.0</ele><time>2026-04-05T09:54:14.59Z</time></trkpt><trkpt lat="44.0159683" lon="12.4940383"><ele>125.0</ele><time>2026-04-05T09:54:15.59Z</time></trkpt><trkpt lat="44.01614" lon="12.4942567"><ele>125.0</ele><time>2026-04-05T09:54:16.591Z</time></trkpt><trkpt lat="44.0163067" lon="12.49447"><ele>121.0</ele><time>2026-04-05T09:54:17.591Z</time></trkpt><trkpt lat="44.0164767" lon="12.4946817"><ele>117.0</ele><time>2026-04-05T09:54:18.59Z</time></trkpt><trkpt lat="44.0166367" lon="12.4949033"><ele>122.0</ele><time>2026-04-05T09:54:19.591Z</time></trkpt><trkpt lat="44.0168017" lon="12.4951233"><ele>127.0</ele><time>2026-04-05T09:54:20.59Z</time></trkpt><trkpt lat="44.01697" lon="12.4953517"><ele>122.0</ele><time>2026-04-05T09:54:21.591Z</time></trkpt><trkpt lat="44.017125" lon="12.4956033"><ele>117.0</ele><time>2026-04-05T09:54:22.591Z</time></trkpt><trkpt lat="44.0172617" lon="12.4958467"><ele>117.0</ele><time>2026-04-05T09:54:23.591Z</time></trkpt><trkpt lat="44.0173833" lon="12.4960833"><ele>117.0</ele><time>2026-04-05T09:54:24.591Z</time></trkpt><trkpt lat="44.0175017" lon="12.4963067"><ele>117.0</ele><time>2026-04-05T09:54:25.59Z</time></trkpt><trkpt lat="44.01761" lon="12.4965183"><ele>119.66666666666666</ele><time>2026-04-05T09:54:26.59Z</time></trkpt><trkpt lat="44.0177" lon="12.49672"><ele>122.33333333333333</ele><time>2026-04-05T09:54:27.59Z</time></trkpt><trkpt lat="44.017785" lon="12.49689"><ele>125.0</ele><time>2026-04-05T09:54:28.591Z</time></trkpt><trkpt lat="44.01787" lon="12.49703"><ele>124.8</ele><time>2026-04-05T09:54:29.591Z</time></trkpt><trkpt lat="44.0179533" lon="12.4971417"><ele>124.6</ele><time>2026-04-05T09:54:30.591Z</time></trkpt><trkpt lat="44.0180383" lon="12.4972183"><ele>124.4</ele><time>2026-04-05T09:54:31.591Z</time></trkpt><trkpt lat="44.018115" lon="12.4972783"><ele>124.2</ele><time>2026-04-05T09:54:32.59Z</time></trkpt><trkpt lat="44.0182083" lon="12.4973383"><ele>124.0</ele><time>2026-04-05T09:54:34.591Z</time></trkpt><trkpt lat="44.0182733" lon="12.4973683"><ele>124.0</ele><time>2026-04-05T09:54:35.591Z</time></trkpt><trkpt lat="44.0183683" lon="12.4974067"><ele>124.0</ele><time>2026-04-05T09:54:36.591Z</time></trkpt><trkpt lat="44.018505" lon="12.4974467"><ele>124.0</ele><time>2026-04-05T09:54:37.591Z</time></trkpt><trkpt lat="44.0186617" lon="12.4975"><ele>124.0</ele><time>2026-04-05T09:54:38.591Z</time></trkpt><trkpt lat="44.018815" lon="12.4975433"><ele>124.0</ele><time>2026-04-05T09:54:39.591Z</time></trkpt><trkpt lat="44.0189717" lon="12.4975817"><ele>124.0</ele><time>2026-04-05T09:54:40.59Z</time></trkpt><trkpt lat="44.0191133" lon="12.49765"><ele>124.0</ele><time>2026-04-05T09:54:41.59Z</time></trkpt><trkpt lat="44.0192333" lon="12.497765"><ele>122.75</ele><time>2026-04-05T09:54:42.59Z</time></trkpt><trkpt lat="44.0193283" lon="12.4979083"><ele>121.5</ele><time>2026-04-05T09:54:43.591Z</time></trkpt><trkpt lat="44.01941" lon="12.49808"><ele>120.25</ele><time>2026-04-05T09:54:44.591Z</time></trkpt><trkpt lat="44.0194883" lon="12.4982467"><ele>119.0</ele><time>2026-04-05T09:54:45.59Z</time></trkpt><trkpt lat="44.0195617" lon="12.49842"><ele>117.5</ele><time>2026-04-05T09:54:46.591Z</time></trkpt><trkpt lat="44.019645" lon="12.4985683"><ele>116.0</ele><time>2026-04-05T09:54:47.591Z</time></trkpt><trkpt lat="44.0197367" lon="12.4987167"><ele>114.5</ele><time>2026-04-05T09:54:48.591Z</time></trkpt><trkpt lat="44.01985" lon="12.4988567"><ele>113.0</ele><time>2026-04-05T09:54:49.59Z</time></trkpt><trkpt lat="44.01999" lon="12.4990167"><ele>111.5</ele><time>2026-04-05T09:54:50.591Z</time></trkpt><trkpt lat="44.0201583" lon="12.4992017"><ele>110.0</ele><time>2026-04-05T09:54:51.59Z</time></trkpt><trkpt lat="44.02034" lon="12.49941"><ele>107.0</ele><time>2026-04-05T09:54:52.591Z</time></trkpt><trkpt lat="44.0205233" lon="12.49962"><ele>104.0</ele><time>2026-04-05T09:54:53.591Z</time></trkpt><trkpt lat="44.02071" lon="12.4998317"><ele>104.0</ele><time>2026-04-05T09:54:54.59Z</time></trkpt><trkpt lat="44.0208767" lon="12.5000483"><ele>104.0</ele><time>2026-04-05T09:54:55.591Z</time></trkpt><trkpt lat="44.0210383" lon="12.500275"><ele>104.5</ele><time>2026-04-05T09:54:56.591Z</time></trkpt><trkpt lat="44.0212" lon="12.5005017"><ele>105.0</ele><time>2026-04-05T09:54:57.591Z</time></trkpt><trkpt lat="44.0213667" lon="12.5007217"><ele>105.0</ele><time>2026-04-05T09:54:58.59Z</time></trkpt><trkpt lat="44.0215317" lon="12.50095"><ele>105.0</ele><time>2026-04-05T09:54:59.591Z</time></trkpt><trkpt lat="44.021695" lon="12.5011683"><ele>102.66666666666666</ele><time>2026-04-05T09:55:00.591Z</time></trkpt><trkpt lat="44.0218483" lon="12.501385"><ele>100.33333333333333</ele><time>2026-04-05T09:55:01.591Z</time></trkpt><trkpt lat="44.0219933" lon="12.5015867"><ele>98.0</ele><time>2026-04-05T09:55:02.591Z</time></trkpt><trkpt lat="44.0221333" lon="12.50178"><ele>98.0</ele><time>2026-04-05T09:55:03.591Z</time></trkpt><trkpt lat="44.022265" lon="12.50197"><ele>98.0</ele><time>2026-04-05T09:55:04.591Z</time></trkpt><trkpt lat="44.0223867" lon="12.502165"><ele>98.0</ele><time>2026-04-05T09:55:05.59Z</time></trkpt><trkpt lat="44.0224883" lon="12.5023733"><ele>96.33333333333333</ele><time>2026-04-05T09:55:06.591Z</time></trkpt><trkpt lat="44.022575" lon="12.502605"><ele>94.66666666666666</ele><time>2026-04-05T09:55:07.59Z</time></trkpt><trkpt lat="44.0226567" lon="12.5028417"><ele>93.0</ele><time>2026-04-05T09:55:08.59Z</time></trkpt><trkpt lat="44.0227517" lon="12.50306"><ele>92.33333333333333</ele><time>2026-04-05T09:55:09.59Z</time></trkpt><trkpt lat="44.02283" lon="12.50329"><ele>91.66666666666666</ele><time>2026-04-05T09:55:10.591Z</time></trkpt><trkpt lat="44.0228617" lon="12.5035233"><ele>91.0</ele><time>2026-04-05T09:55:11.59Z</time></trkpt><trkpt lat="44.0228617" lon="12.5037817"><ele>90.33333333333333</ele><time>2026-04-05T09:55:12.591Z</time></trkpt><trkpt lat="44.022845" lon="12.504035"><ele>89.66666666666667</ele><time>2026-04-05T09:55:13.59Z</time></trkpt><trkpt lat="44.02283" lon="12.50428"><ele>89.0</ele><time>2026-04-05T09:55:14.59Z</time></trkpt><trkpt lat="44.0228233" lon="12.5045233"><ele>89.33333333333334</ele><time>2026-04-05T09:55:15.591Z</time></trkpt><trkpt lat="44.022835" lon="12.5047667"><ele>89.66666666666667</ele><time>2026-04-05T09:55:16.59Z</time></trkpt><trkpt lat="44.0228733" lon="12.5050117"><ele>90.0</ele><time>2026-04-05T09:55:17.59Z</time></trkpt><trkpt lat="44.0229433" lon="12.50527"><ele>90.33333333333333</ele><time>2026-04-05T09:55:18.591Z</time></trkpt><trkpt lat="44.0230217" lon="12.50555"><ele>90.66666666666666</ele><time>2026-04-05T09:55:19.59Z</time></trkpt><trkpt lat="44.0230983" lon="12.5058433"><ele>91.0</ele><time>2026-04-05T09:55:20.591Z</time></trkpt><trkpt lat="44.0231767" lon="12.5061483"><ele>92.33333333333333</ele><time>2026-04-05T09:55:21.59Z</time></trkpt><trkpt lat="44.023245" lon="12.5064433"><ele>93.66666666666667</ele><time>2026-04-05T09:55:22.59Z</time></trkpt><trkpt lat="44.0233033" lon="12.506725"><ele>95.0</ele><time>2026-04-05T09:55:23.591Z</time></trkpt><trkpt lat="44.023365" lon="12.506985"><ele>95.66666666666667</ele><time>2026-04-05T09:55:24.591Z</time></trkpt><trkpt lat="44.023425" lon="12.507245"><ele>96.33333333333334</ele><time>2026-04-05T09:55:25.59Z</time></trkpt><trkpt lat="44.02351" lon="12.5075217"><ele>97.0</ele><time>2026-04-05T09:55:26.591Z</time></trkpt><trkpt lat="44.02358" lon="12.50781"><ele>97.66666666666667</ele><time>2026-04-05T09:55:27.591Z</time></trkpt><trkpt lat="44.02362" lon="12.5080917"><ele>98.33333333333334</ele><time>2026-04-05T09:55:28.59Z</time></trkpt><trkpt lat="44.0236633" lon="12.5083667"><ele>99.0</ele><time>2026-04-05T09:55:29.591Z</time></trkpt><trkpt lat="44.0237617" lon="12.5086217"><ele>99.5</ele><time>2026-04-05T09:55:30.59Z</time></trkpt><trkpt lat="44.0239" lon="12.5088767"><ele>100.0</ele><time>2026-04-05T09:55:31.591Z</time></trkpt><trkpt lat="44.0240383" lon="12.5091433"><ele>98.66666666666667</ele><time>2026-04-05T09:55:32.59Z</time></trkpt><trkpt lat="44.02416" lon="12.509415"><ele>97.33333333333334</ele><time>2026-04-05T09:55:33.59Z</time></trkpt><trkpt lat="44.0242583" lon="12.509685"><ele>96.0</ele><time>2026-04-05T09:55:34.59Z</time></trkpt><trkpt lat="44.0243567" lon="12.5099433"><ele>96.0</ele><time>2026-04-05T09:55:35.591Z</time></trkpt><trkpt lat="44.024455" lon="12.51019"><ele>96.0</ele><time>2026-04-05T09:55:36.591Z</time></trkpt><trkpt lat="44.0245533" lon="12.51042"><ele>96.0</ele><time>2026-04-05T09:55:37.591Z</time></trkpt><trkpt lat="44.0246917" lon="12.510645"><ele>95.0</ele><time>2026-04-05T09:55:38.59Z</time></trkpt><trkpt lat="44.0248717" lon="12.510835"><ele>94.0</ele><time>2026-04-05T09:55:39.591Z</time></trkpt><trkpt lat="44.02508" lon="12.51102"><ele>91.0</ele><time>2026-04-05T09:55:40.591Z</time></trkpt><trkpt lat="44.0252967" lon="12.5112433"><ele>88.0</ele><time>2026-04-05T09:55:41.59Z</time></trkpt><trkpt lat="44.0255" lon="12.5115083"><ele>88.0</ele><time>2026-04-05T09:55:42.591Z</time></trkpt><trkpt lat="44.0256967" lon="12.5117767"><ele>88.0</ele><time>2026-04-05T09:55:43.59Z</time></trkpt><trkpt lat="44.02587" lon="12.5120367"><ele>83.0</ele><time>2026-04-05T09:55:44.591Z</time></trkpt><trkpt lat="44.0260333" lon="12.5122867"><ele>78.0</ele><time>2026-04-05T09:55:45.591Z</time></trkpt><trkpt lat="44.0261817" lon="12.5125183"><ele>78.0</ele><time>2026-04-05T09:55:46.59Z</time></trkpt><trkpt lat="44.0263017" lon="12.5127383"><ele>78.0</ele><time>2026-04-05T09:55:47.59Z</time></trkpt><trkpt lat="44.0264083" lon="12.512925"><ele>78.0</ele><time>2026-04-05T09:55:48.59Z</time></trkpt><trkpt lat="44.0265083" lon="12.51305"><ele>78.66666666666667</ele><time>2026-04-05T09:55:49.591Z</time></trkpt><trkpt lat="44.0266217" lon="12.51313"><ele>79.33333333333334</ele><time>2026-04-05T09:55:50.591Z</time></trkpt><trkpt lat="44.02677" lon="12.51313"><ele>80.0</ele><time>2026-04-05T09:55:51.591Z</time></trkpt><trkpt lat="44.0269433" lon="12.5130817"><ele>80.0</ele><time>2026-04-05T09:55:52.59Z</time></trkpt><trkpt lat="44.0271567" lon="12.5130017"><ele>80.0</ele><time>2026-04-05T09:55:53.59Z</time></trkpt><trkpt lat="44.0273967" lon="12.5129067"><ele>78.0</ele><time>2026-04-05T09:55:54.591Z</time></trkpt><trkpt lat="44.0276583" lon="12.5128083"><ele>76.0</ele><time>2026-04-05T09:55:55.59Z</time></trkpt><trkpt lat="44.0279283" lon="12.512715"><ele>76.0</ele><time>2026-04-05T09:55:56.59Z</time></trkpt><trkpt lat="44.0281783" lon="12.5126217"><ele>76.0</ele><time>2026-04-05T09:55:57.591Z</time></trkpt><trkpt lat="44.0284067" lon="12.5125383"><ele>75.33333333333333</ele><time>2026-04-05T09:55:58.59Z</time></trkpt><trkpt lat="44.0286217" lon="12.512455"><ele>74.66666666666667</ele><time>2026-04-05T09:55:59.59Z</time></trkpt><trkpt lat="44.0288117" lon="12.51238"><ele>74.0</ele><time>2026-04-05T09:56:00.591Z</time></trkpt><trkpt lat="44.02899" lon="12.512315"><ele>74.66666666666667</ele><time>2026-04-05T09:56:01.591Z</time></trkpt><trkpt lat="44.0291567" lon="12.51228"><ele>75.33333333333333</ele><time>2026-04-05T09:56:02.591Z</time></trkpt><trkpt lat="44.0293233" lon="12.5123033"><ele>76.0</ele><time>2026-04-05T09:56:03.591Z</time></trkpt><trkpt lat="44.02949" lon="12.5123983"><ele>76.0</ele><time>2026-04-05T09:56:04.591Z</time></trkpt><trkpt lat="44.0296667" lon="12.5125183"><ele>76.0</ele><time>2026-04-05T09:56:05.591Z</time></trkpt><trkpt lat="44.02986" lon="12.51265"><ele>76.0</ele><time>2026-04-05T09:56:06.591Z</time></trkpt><trkpt lat="44.0300483" lon="12.5127683"><ele>75.0</ele><time>2026-04-05T09:56:07.591Z</time></trkpt><trkpt lat="44.0302217" lon="12.512895"><ele>74.0</ele><time>2026-04-05T09:56:08.591Z</time></trkpt><trkpt lat="44.0303917" lon="12.51302"><ele>73.0</ele><time>2026-04-05T09:56:09.591Z</time></trkpt><trkpt lat="44.030545" lon="12.5131917"><ele>72.66666666666666</ele><time>2026-04-05T09:56:10.591Z</time></trkpt><trkpt lat="44.0306917" lon="12.5134033"><ele>72.33333333333333</ele><time>2026-04-05T09:56:11.591Z</time></trkpt><trkpt lat="44.0308467" lon="12.5136367"><ele>72.0</ele><time>2026-04-05T09:56:12.591Z</time></trkpt><trkpt lat="44.031005" lon="12.5138667"><ele>69.66666666666667</ele><time>2026-04-05T09:56:13.59Z</time></trkpt><trkpt lat="44.0311517" lon="12.51409"><ele>67.33333333333334</ele><time>2026-04-05T09:56:14.59Z</time></trkpt><trkpt lat="44.0312917" lon="12.5142983"><ele>65.0</ele><time>2026-04-05T09:56:15.591Z</time></trkpt><trkpt lat="44.0314517" lon="12.514485"><ele>63.333333333333336</ele><time>2026-04-05T09:56:16.591Z</time></trkpt><trkpt lat="44.0316367" lon="12.514635"><ele>61.66666666666667</ele><time>2026-04-05T09:56:17.591Z</time></trkpt><trkpt lat="44.0318267" lon="12.5147667"><ele>60.0</ele><time>2026-04-05T09:56:18.591Z</time></trkpt><trkpt lat="44.0320067" lon="12.5148917"><ele>59.0</ele><time>2026-04-05T09:56:19.59Z</time></trkpt><trkpt lat="44.0321717" lon="12.515"><ele>58.0</ele><time>2026-04-05T09:56:20.59Z</time></trkpt><trkpt lat="44.0323467" lon="12.5150583"><ele>57.0</ele><time>2026-04-05T09:56:21.591Z</time></trkpt><trkpt lat="44.0325383" lon="12.5150533"><ele>55.33333333333333</ele><time>2026-04-05T09:56:22.591Z</time></trkpt><trkpt lat="44.0327367" lon="12.51502"><ele>53.666666666666664</ele><time>2026-04-05T09:56:23.591Z</time></trkpt><trkpt lat="44.032935" lon="12.5149783"><ele>52.0</ele><time>2026-04-05T09:56:24.591Z</time></trkpt><trkpt lat="44.0331083" lon="12.51493"><ele>52.0</ele><time>2026-04-05T09:56:25.591Z</time></trkpt><trkpt lat="44.0332583" lon="12.5148533"><ele>52.0</ele><time>2026-04-05T09:56:26.591Z</time></trkpt><trkpt lat="44.03339" lon="12.51472"><ele>52.0</ele><time>2026-04-05T09:56:27.59Z</time></trkpt><trkpt lat="44.0334933" lon="12.5145367"><ele>52.25</ele><time>2026-04-05T09:56:28.591Z</time></trkpt><trkpt lat="44.0335767" lon="12.51437"><ele>52.5</ele><time>2026-04-05T09:56:29.591Z</time></trkpt><trkpt lat="44.03365" lon="12.5142383"><ele>52.75</ele><time>2026-04-05T09:56:30.591Z</time></trkpt><trkpt lat="44.0337367" lon="12.5141467"><ele>53.0</ele><time>2026-04-05T09:56:31.591Z</time></trkpt><trkpt lat="44.0338467" lon="12.5141067"><ele>53.0</ele><time>2026-04-05T09:56:32.591Z</time></trkpt><trkpt lat="44.03397" lon="12.514145"><ele>53.0</ele><time>2026-04-05T09:56:33.591Z</time></trkpt><trkpt lat="44.0341133" lon="12.5142583"><ele>53.0</ele><time>2026-04-05T09:56:34.591Z</time></trkpt><trkpt lat="44.0342767" lon="12.5144267"><ele>52.333333333333336</ele><time>2026-04-05T09:56:35.59Z</time></trkpt><trkpt lat="44.0344433" lon="12.5146117"><ele>51.66666666666667</ele><time>2026-04-05T09:56:36.591Z</time></trkpt><trkpt lat="44.0345933" lon="12.5147683"><ele>51.0</ele><time>2026-04-05T09:56:37.591Z</time></trkpt><trkpt lat="44.0347417" lon="12.514895"><ele>51.0</ele><time>2026-04-05T09:56:38.591Z</time></trkpt><trkpt lat="44.0349083" lon="12.5149517"><ele>51.0</ele><time>2026-04-05T09:56:39.591Z</time></trkpt><trkpt lat="44.0350967" lon="12.5149467"><ele>51.0</ele><time>2026-04-05T09:56:40.591Z</time></trkpt><trkpt lat="44.0353033" lon="12.5149133"><ele>48.666666666666664</ele><time>2026-04-05T09:56:41.591Z</time></trkpt><trkpt lat="44.035515" lon="12.5149217"><ele>46.33333333333333</ele><time>2026-04-05T09:56:42.59Z</time></trkpt><trkpt lat="44.0357233" lon="12.514985"><ele>44.0</ele><time>2026-04-05T09:56:43.591Z</time></trkpt><trkpt lat="44.0359183" lon="12.5150633"><ele>42.33333333333333</ele><time>2026-04-05T09:56:44.591Z</time></trkpt><trkpt lat="44.036095" lon="12.5151483"><ele>40.666666666666664</ele><time>2026-04-05T09:56:45.591Z</time></trkpt><trkpt lat="44.0362467" lon="12.515225"><ele>39.0</ele><time>2026-04-05T09:56:46.59Z</time></trkpt><trkpt lat="44.0363717" lon="12.5152883"><ele>39.0</ele><time>2026-04-05T09:56:47.59Z</time></trkpt><trkpt lat="44.0364783" lon="12.515345"><ele>39.0</ele><time>2026-04-05T09:56:48.591Z</time></trkpt><trkpt lat="44.0365667" lon="12.5153917"><ele>39.0</ele><time>2026-04-05T09:56:49.591Z</time></trkpt><trkpt lat="44.0366433" lon="12.515425"><ele>39.0</ele><time>2026-04-05T09:56:50.59Z</time></trkpt><trkpt lat="44.036725" lon="12.5154383"><ele>39.0</ele><time>2026-04-05T09:56:51.59Z</time></trkpt><trkpt lat="44.0368033" lon="12.51543"><ele>37.5</ele><time>2026-04-05T09:56:52.591Z</time></trkpt><trkpt lat="44.0368867" lon="12.515375"><ele>36.0</ele><time>2026-04-05T09:56:53.59Z</time></trkpt><trkpt lat="44.03697" lon="12.515255"><ele>34.5</ele><time>2026-04-05T09:56:54.591Z</time></trkpt><trkpt lat="44.0370433" lon="12.5150983"><ele>33.0</ele><time>2026-04-05T09:56:55.591Z</time></trkpt><trkpt lat="44.0371" lon="12.51496"><ele>33.0</ele><time>2026-04-05T09:56:56.591Z</time></trkpt><trkpt lat="44.0371683" lon="12.5148633"><ele>33.0</ele><time>2026-04-05T09:56:57.591Z</time></trkpt><trkpt lat="44.037255" lon="12.5148367"><ele>33.0</ele><time>2026-04-05T09:56:58.591Z</time></trkpt><trkpt lat="44.0373483" lon="12.514885"><ele>33.0</ele><time>2026-04-05T09:56:59.59Z</time></trkpt><trkpt lat="44.0374417" lon="12.5150083"><ele>33.0</ele><time>2026-04-05T09:57:00.591Z</time></trkpt><trkpt lat="44.037525" lon="12.51521"><ele>29.333333333333332</ele><time>2026-04-05T09:57:01.591Z</time></trkpt><trkpt lat="44.0376067" lon="12.5154633"><ele>25.666666666666664</ele><time>2026-04-05T09:57:02.591Z</time></trkpt><trkpt lat="44.0377017" lon="12.5157383"><ele>22.0</ele><time>2026-04-05T09:57:03.59Z</time></trkpt><trkpt lat="44.0378017" lon="12.5159917"><ele>22.0</ele><time>2026-04-05T09:57:04.59Z</time></trkpt><trkpt lat="44.03789" lon="12.516235"><ele>22.0</ele><time>2026-04-05T09:57:05.59Z</time></trkpt><trkpt lat="44.0379733" lon="12.5164617"><ele>22.0</ele><time>2026-04-05T09:57:06.59Z</time></trkpt><trkpt lat="44.0380633" lon="12.516695"><ele>21.333333333333332</ele><time>2026-04-05T09:57:07.59Z</time></trkpt><trkpt lat="44.038175" lon="12.5169333"><ele>20.666666666666668</ele><time>2026-04-05T09:57:08.591Z</time></trkpt><trkpt lat="44.0383083" lon="12.517165"><ele>20.0</ele><time>2026-04-05T09:57:09.591Z</time></trkpt><trkpt lat="44.0384583" lon="12.5173617"><ele>18.333333333333336</ele><time>2026-04-05T09:57:10.591Z</time></trkpt><trkpt lat="44.0386033" lon="12.5175333"><ele>16.666666666666668</ele><time>2026-04-05T09:57:11.591Z</time></trkpt><trkpt lat="44.0387533" lon="12.5176783"><ele>15.0</ele><time>2026-04-05T09:57:12.591Z</time></trkpt><trkpt lat="44.0388883" lon="12.517815"><ele>14.666666666666668</ele><time>2026-04-05T09:57:13.591Z</time></trkpt><trkpt lat="44.0390267" lon="12.51795"><ele>14.333333333333334</ele><time>2026-04-05T09:57:14.59Z</time></trkpt><trkpt lat="44.0391667" lon="12.5180833"><ele>14.0</ele><time>2026-04-05T09:57:15.591Z</time></trkpt><trkpt lat="44.0392983" lon="12.518235"><ele>13.666666666666668</ele><time>2026-04-05T09:57:16.591Z</time></trkpt><trkpt lat="44.03943" lon="12.5183967"><ele>13.333333333333332</ele><time>2026-04-05T09:57:17.59Z</time></trkpt><trkpt lat="44.03956" lon="12.5185617"><ele>13.0</ele><time>2026-04-05T09:57:18.591Z</time></trkpt><trkpt lat="44.0396933" lon="12.51873"><ele>13.0</ele><time>2026-04-05T09:57:19.59Z</time></trkpt><trkpt lat="44.0398267" lon="12.5189033"><ele>13.0</ele><time>2026-04-05T09:57:20.591Z</time></trkpt><trkpt lat="44.039955" lon="12.519095"><ele>13.0</ele><time>2026-04-05T09:57:21.591Z</time></trkpt><trkpt lat="44.040075" lon="12.5193"><ele>13.0</ele><time>2026-04-05T09:57:22.591Z</time></trkpt><trkpt lat="44.0401983" lon="12.5195167"><ele>13.0</ele><time>2026-04-05T09:57:23.59Z</time></trkpt><trkpt lat="44.0403167" lon="12.5197517"><ele>13.0</ele><time>2026-04-05T09:57:24.59Z</time></trkpt><trkpt lat="44.0404333" lon="12.52"><ele>12.666666666666666</ele><time>2026-04-05T09:57:25.591Z</time></trkpt><trkpt lat="44.04055" lon="12.5202517"><ele>12.333333333333332</ele><time>2026-04-05T09:57:26.591Z</time></trkpt><trkpt lat="44.0406717" lon="12.520485"><ele>12.0</ele><time>2026-04-05T09:57:27.591Z</time></trkpt><trkpt lat="44.0407817" lon="12.5207183"><ele>12.333333333333332</ele><time>2026-04-05T09:57:28.591Z</time></trkpt><trkpt lat="44.0408967" lon="12.5209467"><ele>12.666666666666666</ele><time>2026-04-05T09:57:29.591Z</time></trkpt><trkpt lat="44.0410083" lon="12.521175"><ele>13.0</ele><time>2026-04-05T09:57:30.59Z</time></trkpt><trkpt lat="44.041125" lon="12.52139"><ele>13.333333333333332</ele><time>2026-04-05T09:57:31.591Z</time></trkpt><trkpt lat="44.0412417" lon="12.5216017"><ele>13.666666666666668</ele><time>2026-04-05T09:57:32.591Z</time></trkpt><trkpt lat="44.0413617" lon="12.521815"><ele>14.0</ele><time>2026-04-05T09:57:33.591Z</time></trkpt><trkpt lat="44.0414717" lon="12.522025"><ele>14.0</ele><time>2026-04-05T09:57:34.59Z</time></trkpt><trkpt lat="44.04159" lon="12.522225"><ele>14.0</ele><time>2026-04-05T09:57:35.591Z</time></trkpt><trkpt lat="44.0416967" lon="12.5224233"><ele>14.0</ele><time>2026-04-05T09:57:36.59Z</time></trkpt><trkpt lat="44.041805" lon="12.5226067"><ele>13.666666666666668</ele><time>2026-04-05T09:57:37.591Z</time></trkpt><trkpt lat="44.041895" lon="12.5228017"><ele>13.333333333333332</ele><time>2026-04-05T09:57:38.59Z</time></trkpt><trkpt lat="44.041955" lon="12.5230067"><ele>13.0</ele><time>2026-04-05T09:57:39.591Z</time></trkpt><trkpt lat="44.04199" lon="12.5232467"><ele>12.666666666666666</ele><time>2026-04-05T09:57:40.591Z</time></trkpt><trkpt lat="44.0419917" lon="12.5234833"><ele>12.333333333333332</ele><time>2026-04-05T09:57:41.591Z</time></trkpt><trkpt lat="44.041965" lon="12.5237067"><ele>12.0</ele><time>2026-04-05T09:57:42.591Z</time></trkpt><trkpt lat="44.0419217" lon="12.523915"><ele>13.25</ele><time>2026-04-05T09:57:43.59Z</time></trkpt><trkpt lat="44.041865" lon="12.5240933"><ele>14.5</ele><time>2026-04-05T09:57:44.59Z</time></trkpt><trkpt lat="44.0418083" lon="12.5242517"><ele>15.75</ele><time>2026-04-05T09:57:45.591Z</time></trkpt><trkpt lat="44.041745" lon="12.52441"><ele>17.0</ele><time>2026-04-05T09:57:46.591Z</time></trkpt><trkpt lat="44.0416883" lon="12.5245617"><ele>17.25</ele><time>2026-04-05T09:57:47.591Z</time></trkpt><trkpt lat="44.0416333" lon="12.5247117"><ele>17.5</ele><time>2026-04-05T09:57:48.591Z</time></trkpt><trkpt lat="44.0415733" lon="12.524855"><ele>17.75</ele><time>2026-04-05T09:57:49.591Z</time></trkpt><trkpt lat="44.0415083" lon="12.52501"><ele>18.0</ele><time>2026-04-05T09:57:50.592Z</time></trkpt><trkpt lat="44.0414567" lon="12.5251733"><ele>18.0</ele><time>2026-04-05T09:57:51.592Z</time></trkpt><trkpt lat="44.0414267" lon="12.5253583"><ele>18.0</ele><time>2026-04-05T09:57:52.592Z</time></trkpt><trkpt lat="44.04142" lon="12.52556"><ele>18.0</ele><time>2026-04-05T09:57:53.591Z</time></trkpt><trkpt lat="44.0414467" lon="12.5257833"><ele>18.0</ele><time>2026-04-05T09:57:54.592Z</time></trkpt><trkpt lat="44.0414967" lon="12.5260467"><ele>19.666666666666668</ele><time>2026-04-05T09:57:55.591Z</time></trkpt><trkpt lat="44.04153" lon="12.52634"><ele>21.333333333333336</ele><time>2026-04-05T09:57:56.592Z</time></trkpt><trkpt lat="44.0415683" lon="12.52664"><ele>23.0</ele><time>2026-04-05T09:57:57.592Z</time></trkpt><trkpt lat="44.041625" lon="12.5269333"><ele>20.333333333333336</ele><time>2026-04-05T09:57:58.591Z</time></trkpt><trkpt lat="44.0416883" lon="12.527205"><ele>17.666666666666668</ele><time>2026-04-05T09:57:59.591Z</time></trkpt><trkpt lat="44.0417633" lon="12.5274683"><ele>15.0</ele><time>2026-04-05T09:58:00.592Z</time></trkpt><trkpt lat="44.0418483" lon="12.5277233"><ele>16.666666666666668</ele><time>2026-04-05T09:58:01.591Z</time></trkpt><trkpt lat="44.041945" lon="12.5279683"><ele>18.333333333333336</ele><time>2026-04-05T09:58:02.591Z</time></trkpt><trkpt lat="44.042065" lon="12.5281933"><ele>20.0</ele><time>2026-04-05T09:58:03.591Z</time></trkpt><trkpt lat="44.042185" lon="12.5283967"><ele>20.0</ele><time>2026-04-05T09:58:04.592Z</time></trkpt><trkpt lat="44.0422983" lon="12.5285933"><ele>20.0</ele><time>2026-04-05T09:58:05.592Z</time></trkpt><trkpt lat="44.0424083" lon="12.5287817"><ele>20.0</ele><time>2026-04-05T09:58:06.591Z</time></trkpt><trkpt lat="44.04251" lon="12.5289533"><ele>19.75</ele><time>2026-04-05T09:58:07.591Z</time></trkpt><trkpt lat="44.0426033" lon="12.529115"><ele>19.5</ele><time>2026-04-05T09:58:08.592Z</time></trkpt><trkpt lat="44.04269" lon="12.5292667"><ele>19.25</ele><time>2026-04-05T09:58:09.592Z</time></trkpt><trkpt lat="44.042745" lon="12.5294267"><ele>19.0</ele><time>2026-04-05T09:58:10.591Z</time></trkpt><trkpt lat="44.0427817" lon="12.5296217"><ele>19.666666666666664</ele><time>2026-04-05T09:58:11.592Z</time></trkpt><trkpt lat="44.04279" lon="12.5298367"><ele>20.333333333333332</ele><time>2026-04-05T09:58:12.591Z</time></trkpt><trkpt lat="44.0427633" lon="12.5300683"><ele>21.0</ele><time>2026-04-05T09:58:13.592Z</time></trkpt><trkpt lat="44.0426983" lon="12.5303283"><ele>21.333333333333332</ele><time>2026-04-05T09:58:14.591Z</time></trkpt><trkpt lat="44.0426133" lon="12.5305983"><ele>21.666666666666664</ele><time>2026-04-05T09:58:15.592Z</time></trkpt><trkpt lat="44.042515" lon="12.5308767"><ele>22.0</ele><time>2026-04-05T09:58:16.592Z</time></trkpt><trkpt lat="44.0424067" lon="12.5311717"><ele>20.0</ele><time>2026-04-05T09:58:17.592Z</time></trkpt><trkpt lat="44.0422933" lon="12.5314883"><ele>18.0</ele><time>2026-04-05T09:58:18.592Z</time></trkpt><trkpt lat="44.042175" lon="12.5318167"><ele>17.0</ele><time>2026-04-05T09:58:19.591Z</time></trkpt><trkpt lat="44.0420667" lon="12.5321283"><ele>16.0</ele><time>2026-04-05T09:58:20.592Z</time></trkpt><trkpt lat="44.0419617" lon="12.532425"><ele>16.0</ele><time>2026-04-05T09:58:21.592Z</time></trkpt><trkpt lat="44.0418617" lon="12.53271"><ele>16.0</ele><time>2026-04-05T09:58:22.592Z</time></trkpt><trkpt lat="44.0417667" lon="12.53299"><ele>15.0</ele><time>2026-04-05T09:58:23.591Z</time></trkpt><trkpt lat="44.0416767" lon="12.53325"><ele>14.0</ele><time>2026-04-05T09:58:24.591Z</time></trkpt><trkpt lat="44.0415933" lon="12.5335"><ele>13.0</ele><time>2026-04-05T09:58:25.592Z</time></trkpt><trkpt lat="44.0415133" lon="12.5337283"><ele>15.0</ele><time>2026-04-05T09:58:26.592Z</time></trkpt><trkpt lat="44.0414517" lon="12.5339467"><ele>17.0</ele><time>2026-04-05T09:58:27.591Z</time></trkpt><trkpt lat="44.041415" lon="12.534165"><ele>19.0</ele><time>2026-04-05T09:58:28.591Z</time></trkpt><trkpt lat="44.041415" lon="12.534385"><ele>18.0</ele><time>2026-04-05T09:58:29.592Z</time></trkpt><trkpt lat="44.04147" lon="12.5345967"><ele>17.0</ele><time>2026-04-05T09:58:30.591Z</time></trkpt><trkpt lat="44.0415667" lon="12.5348117"><ele>16.0</ele><time>2026-04-05T09:58:31.591Z</time></trkpt><trkpt lat="44.04168" lon="12.5350083"><ele>15.333333333333332</ele><time>2026-04-05T09:58:32.592Z</time></trkpt><trkpt lat="44.0418083" lon="12.5351917"><ele>14.666666666666668</ele><time>2026-04-05T09:58:33.591Z</time></trkpt><trkpt lat="44.041935" lon="12.5353767"><ele>14.0</ele><time>2026-04-05T09:58:34.592Z</time></trkpt><trkpt lat="44.042075" lon="12.5355633"><ele>13.666666666666668</ele><time>2026-04-05T09:58:35.592Z</time></trkpt><trkpt lat="44.042225" lon="12.535745"><ele>13.333333333333332</ele><time>2026-04-05T09:58:36.592Z</time></trkpt><trkpt lat="44.04238" lon="12.5359217"><ele>13.0</ele><time>2026-04-05T09:58:37.592Z</time></trkpt><trkpt lat="44.04254" lon="12.5361033"><ele>13.0</ele><time>2026-04-05T09:58:38.591Z</time></trkpt><trkpt lat="44.0427033" lon="12.536275"><ele>13.0</ele><time>2026-04-05T09:58:39.591Z</time></trkpt><trkpt lat="44.0428733" lon="12.53645"><ele>13.0</ele><time>2026-04-05T09:58:40.592Z</time></trkpt><trkpt lat="44.0430333" lon="12.53662"><ele>13.0</ele><time>2026-04-05T09:58:41.592Z</time></trkpt><trkpt lat="44.0431717" lon="12.5367917"><ele>13.0</ele><time>2026-04-05T09:58:42.591Z</time></trkpt><trkpt lat="44.0433183" lon="12.5369283"><ele>13.0</ele><time>2026-04-05T09:58:43.592Z</time></trkpt><trkpt lat="44.04346" lon="12.5370483"><ele>16.666666666666664</ele><time>2026-04-05T09:58:44.591Z</time></trkpt><trkpt lat="44.0436117" lon="12.53713"><ele>20.333333333333332</ele><time>2026-04-05T09:58:45.592Z</time></trkpt><trkpt lat="44.04377" lon="12.5371733"><ele>24.0</ele><time>2026-04-05T09:58:46.592Z</time></trkpt><trkpt lat="44.0439117" lon="12.5371967"><ele>24.0</ele><time>2026-04-05T09:58:47.592Z</time></trkpt><trkpt lat="44.0440317" lon="12.5372067"><ele>24.0</ele><time>2026-04-05T09:58:48.592Z</time></trkpt><trkpt lat="44.0441233" lon="12.537275"><ele>24.0</ele><time>2026-04-05T09:58:49.592Z</time></trkpt><trkpt lat="44.04419" lon="12.5373917"><ele>24.0</ele><time>2026-04-05T09:58:50.591Z</time></trkpt><trkpt lat="44.04422" lon="12.5375567"><ele>24.0</ele><time>2026-04-05T09:58:51.591Z</time></trkpt><trkpt lat="44.044245" lon="12.53776"><ele>24.0</ele><time>2026-04-05T09:58:52.591Z</time></trkpt><trkpt lat="44.044285" lon="12.537975"><ele>24.0</ele><time>2026-04-05T09:58:53.591Z</time></trkpt><trkpt lat="44.0443783" lon="12.5381733"><ele>24.5</ele><time>2026-04-05T09:58:54.591Z</time></trkpt><trkpt lat="44.044475" lon="12.5383367"><ele>25.0</ele><time>2026-04-05T09:58:55.592Z</time></trkpt><trkpt lat="44.0445683" lon="12.5384617"><ele>25.5</ele><time>2026-04-05T09:58:56.591Z</time></trkpt><trkpt lat="44.04463" lon="12.5385933"><ele>26.0</ele><time>2026-04-05T09:58:57.592Z</time></trkpt><trkpt lat="44.0446533" lon="12.53873"><ele>24.5</ele><time>2026-04-05T09:58:58.591Z</time></trkpt><trkpt lat="44.0446567" lon="12.5388767"><ele>23.0</ele><time>2026-04-05T09:58:59.592Z</time></trkpt><trkpt lat="44.0446083" lon="12.539025"><ele>21.5</ele><time>2026-04-05T09:59:00.591Z</time></trkpt><trkpt lat="44.044495" lon="12.5391633"><ele>20.0</ele><time>2026-04-05T09:59:01.591Z</time></trkpt><trkpt lat="44.0443767" lon="12.539295"><ele>20.0</ele><time>2026-04-05T09:59:02.591Z</time></trkpt><trkpt lat="44.0442817" lon="12.539445"><ele>20.0</ele><time>2026-04-05T09:59:03.592Z</time></trkpt><trkpt lat="44.04422" lon="12.5396283"><ele>20.0</ele><time>2026-04-05T09:59:04.592Z</time></trkpt><trkpt lat="44.044195" lon="12.5398417"><ele>20.0</ele><time>2026-04-05T09:59:05.591Z</time></trkpt><trkpt lat="44.0442" lon="12.5400917"><ele>17.0</ele><time>2026-04-05T09:59:06.592Z</time></trkpt><trkpt lat="44.04421" lon="12.5403617"><ele>14.0</ele><time>2026-04-05T09:59:07.592Z</time></trkpt><trkpt lat="44.044225" lon="12.5406417"><ele>11.0</ele><time>2026-04-05T09:59:08.591Z</time></trkpt><trkpt lat="44.0442467" lon="12.5409333"><ele>11.0</ele><time>2026-04-05T09:59:09.592Z</time></trkpt><trkpt lat="44.04428" lon="12.5412217"><ele>11.0</ele><time>2026-04-05T09:59:10.591Z</time></trkpt><trkpt lat="44.044305" lon="12.5414933"><ele>11.0</ele><time>2026-04-05T09:59:11.592Z</time></trkpt><trkpt lat="44.0443367" lon="12.541745"><ele>11.0</ele><time>2026-04-05T09:59:12.592Z</time></trkpt><trkpt lat="44.0443533" lon="12.541985"><ele>11.0</ele><time>2026-04-05T09:59:13.592Z</time></trkpt><trkpt lat="44.0443567" lon="12.54221"><ele>11.0</ele><time>2026-04-05T09:59:14.591Z</time></trkpt><trkpt lat="44.0443333" lon="12.5424383"><ele>11.0</ele><time>2026-04-05T09:59:15.591Z</time></trkpt><trkpt lat="44.0442733" lon="12.54266"><ele>11.0</ele><time>2026-04-05T09:59:16.592Z</time></trkpt><trkpt lat="44.04418" lon="12.542875"><ele>11.0</ele><time>2026-04-05T09:59:17.592Z</time></trkpt><trkpt lat="44.0440667" lon="12.5431017"><ele>11.0</ele><time>2026-04-05T09:59:18.591Z</time></trkpt><trkpt lat="44.0439467" lon="12.5433317"><ele>11.0</ele><time>2026-04-05T09:59:19.592Z</time></trkpt><trkpt lat="44.0438267" lon="12.543575"><ele>11.0</ele><time>2026-04-05T09:59:20.592Z</time></trkpt><trkpt lat="44.0437233" lon="12.5438367"><ele>11.0</ele><time>2026-04-05T09:59:21.592Z</time></trkpt><trkpt lat="44.0436217" lon="12.5441"><ele>11.0</ele><time>2026-04-05T09:59:22.592Z</time></trkpt><trkpt lat="44.0435317" lon="12.544365"><ele>11.0</ele><time>2026-04-05T09:59:23.591Z</time></trkpt><trkpt lat="44.0434367" lon="12.544615"><ele>10.333333333333332</ele><time>2026-04-05T09:59:24.592Z</time></trkpt><trkpt lat="44.043355" lon="12.544845"><ele>9.666666666666666</ele><time>2026-04-05T09:59:25.592Z</time></trkpt><trkpt lat="44.043275" lon="12.5450667"><ele>9.0</ele><time>2026-04-05T09:59:26.592Z</time></trkpt><trkpt lat="44.043215" lon="12.5452683"><ele>11.0</ele><time>2026-04-05T09:59:27.592Z</time></trkpt><trkpt lat="44.0431767" lon="12.5454667"><ele>13.0</ele><time>2026-04-05T09:59:28.592Z</time></trkpt><trkpt lat="44.04316" lon="12.5456683"><ele>15.0</ele><time>2026-04-05T09:59:29.592Z</time></trkpt><trkpt lat="44.043205" lon="12.545865"><ele>17.0</ele><time>2026-04-05T09:59:30.591Z</time></trkpt><trkpt lat="44.043295" lon="12.546035"><ele>18.0</ele><time>2026-04-05T09:59:31.592Z</time></trkpt><trkpt lat="44.0434" lon="12.5461833"><ele>19.0</ele><time>2026-04-05T09:59:32.592Z</time></trkpt><trkpt lat="44.0434917" lon="12.546325"><ele>20.0</ele><time>2026-04-05T09:59:33.591Z</time></trkpt><trkpt lat="44.0435683" lon="12.5464933"><ele>21.0</ele><time>2026-04-05T09:59:34.591Z</time></trkpt><trkpt lat="44.0436317" lon="12.5466883"><ele>21.0</ele><time>2026-04-05T09:59:35.591Z</time></trkpt><trkpt lat="44.0436783" lon="12.546915"><ele>21.0</ele><time>2026-04-05T09:59:36.591Z</time></trkpt><trkpt lat="44.0437183" lon="12.5471617"><ele>21.0</ele><time>2026-04-05T09:59:37.592Z</time></trkpt><trkpt lat="44.043765" lon="12.5474067"><ele>20.333333333333332</ele><time>2026-04-05T09:59:38.591Z</time></trkpt><trkpt lat="44.0437883" lon="12.5476867"><ele>19.666666666666664</ele><time>2026-04-05T09:59:39.591Z</time></trkpt><trkpt lat="44.0438033" lon="12.54796"><ele>19.0</ele><time>2026-04-05T09:59:40.592Z</time></trkpt><trkpt lat="44.043825" lon="12.548215"><ele>18.666666666666664</ele><time>2026-04-05T09:59:41.591Z</time></trkpt><trkpt lat="44.043845" lon="12.54846"><ele>18.333333333333332</ele><time>2026-04-05T09:59:42.592Z</time></trkpt><trkpt lat="44.04389" lon="12.5487"><ele>18.0</ele><time>2026-04-05T09:59:43.592Z</time></trkpt><trkpt lat="44.0439617" lon="12.54893"><ele>17.333333333333332</ele><time>2026-04-05T09:59:44.592Z</time></trkpt><trkpt lat="44.0440433" lon="12.549135"><ele>16.666666666666664</ele><time>2026-04-05T09:59:45.591Z</time></trkpt><trkpt lat="44.044125" lon="12.549325"><ele>16.0</ele><time>2026-04-05T09:59:46.592Z</time></trkpt><trkpt lat="44.0442" lon="12.549495"><ele>16.8</ele><time>2026-04-05T09:59:47.591Z</time></trkpt><trkpt lat="44.04427" lon="12.549645"><ele>17.6</ele><time>2026-04-05T09:59:48.591Z</time></trkpt><trkpt lat="44.0443533" lon="12.549765"><ele>18.4</ele><time>2026-04-05T09:59:49.592Z</time></trkpt><trkpt lat="44.0444317" lon="12.5498517"><ele>19.2</ele><time>2026-04-05T09:59:50.592Z</time></trkpt><trkpt lat="44.044495" lon="12.5499183"><ele>20.0</ele><time>2026-04-05T09:59:51.591Z</time></trkpt><trkpt lat="44.044555" lon="12.5499767"><ele>20.0</ele><time>2026-04-05T09:59:52.591Z</time></trkpt><trkpt lat="44.0446183" lon="12.5500333"><ele>20.0</ele><time>2026-04-05T09:59:53.591Z</time></trkpt><trkpt lat="44.0446733" lon="12.55009"><ele>20.0</ele><time>2026-04-05T09:59:54.591Z</time></trkpt><trkpt lat="44.0447217" lon="12.55015"><ele>20.0</ele><time>2026-04-05T09:59:55.591Z</time></trkpt><trkpt lat="44.04479" lon="12.55027"><ele>20.0</ele><time>2026-04-05T09:59:57.591Z</time></trkpt><trkpt lat="44.0448367" lon="12.5504117"><ele>20.0</ele><time>2026-04-05T09:59:59.592Z</time></trkpt><trkpt lat="44.04483" lon="12.5505783"><ele>21.0</ele><time>2026-04-05T10:00:01.591Z</time></trkpt><trkpt lat="44.0447683" lon="12.55072"><ele>22.0</ele><time>2026-04-05T10:00:03.592Z</time></trkpt><trkpt lat="44.0447367" lon="12.5508633"><ele>23.0</ele><time>2026-04-05T10:00:05.592Z</time></trkpt><trkpt lat="44.0447817" lon="12.5510283"><ele>24.0</ele><time>2026-04-05T10:00:07.591Z</time></trkpt><trkpt lat="44.0448333" lon="12.5510883"><ele>25.0</ele><time>2026-04-05T10:00:08.592Z</time></trkpt><trkpt lat="44.04488" lon="12.5511583"><ele>25.142857142857146</ele><time>2026-04-05T10:00:09.592Z</time></trkpt><trkpt lat="44.0449233" lon="12.5512433"><ele>25.285714285714285</ele><time>2026-04-05T10:00:10.592Z</time></trkpt><trkpt lat="44.044955" lon="12.5513317"><ele>25.42857142857143</ele><time>2026-04-05T10:00:11.592Z</time></trkpt><trkpt lat="44.0449917" lon="12.551415"><ele>25.571428571428573</ele><time>2026-04-05T10:00:12.592Z</time></trkpt><trkpt lat="44.04504" lon="12.55149"><ele>25.714285714285715</ele><time>2026-04-05T10:00:13.592Z</time></trkpt><trkpt lat="44.0450983" lon="12.5515583"><ele>25.857142857142858</ele><time>2026-04-05T10:00:14.592Z</time></trkpt><trkpt lat="44.0451633" lon="12.5516283"><ele>26.0</ele><time>2026-04-05T10:00:15.591Z</time></trkpt><trkpt lat="44.04523" lon="12.5517"><ele>24.499999999999996</ele><time>2026-04-05T10:00:16.592Z</time></trkpt><trkpt lat="44.0452983" lon="12.551775"><ele>23.0</ele><time>2026-04-05T10:00:17.592Z</time></trkpt><trkpt lat="44.04537" lon="12.5518433"><ele>21.5</ele><time>2026-04-05T10:00:18.591Z</time></trkpt><trkpt lat="44.0454433" lon="12.5518983"><ele>20.0</ele><time>2026-04-05T10:00:19.592Z</time></trkpt><trkpt lat="44.04551" lon="12.551965"><ele>18.5</ele><time>2026-04-05T10:00:20.592Z</time></trkpt><trkpt lat="44.045575" lon="12.5520283"><ele>17.0</ele><time>2026-04-05T10:00:21.592Z</time></trkpt><trkpt lat="44.0456317" lon="12.552105"><ele>16.166666666666668</ele><time>2026-04-05T10:00:22.591Z</time></trkpt><trkpt lat="44.0456817" lon="12.55217"><ele>15.333333333333334</ele><time>2026-04-05T10:00:23.592Z</time></trkpt><trkpt lat="44.04576" lon="12.552275"><ele>14.5</ele><time>2026-04-05T10:00:25.592Z</time></trkpt><trkpt lat="44.0458217" lon="12.5523633"><ele>13.666666666666668</ele><time>2026-04-05T10:00:27.592Z</time></trkpt><trkpt lat="44.04587" lon="12.552435"><ele>12.833333333333334</ele><time>2026-04-05T10:00:29.592Z</time></trkpt><trkpt lat="44.0459283" lon="12.5525433"><ele>12.0</ele><time>2026-04-05T10:00:32.592Z</time></trkpt><trkpt lat="44.0459617" lon="12.55263"><ele>12.0</ele><time>2026-04-05T10:00:34.592Z</time></trkpt><trkpt lat="44.04598" lon="12.5527883"><ele>12.0</ele><time>2026-04-05T10:00:36.592Z</time></trkpt><trkpt lat="44.0459817" lon="12.5529067"><ele>12.0</ele><time>2026-04-05T10:00:37.592Z</time></trkpt><trkpt lat="44.0459833" lon="12.5530483"><ele>12.0</ele><time>2026-04-05T10:00:38.592Z</time></trkpt><trkpt lat="44.0459783" lon="12.553195"><ele>12.0</ele><time>2026-04-05T10:00:39.592Z</time></trkpt><trkpt lat="44.0459483" lon="12.553345"><ele>12.333333333333332</ele><time>2026-04-05T10:00:40.592Z</time></trkpt><trkpt lat="44.0458967" lon="12.55351"><ele>12.666666666666666</ele><time>2026-04-05T10:00:41.592Z</time></trkpt><trkpt lat="44.04582" lon="12.5537033"><ele>13.0</ele><time>2026-04-05T10:00:42.592Z</time></trkpt><trkpt lat="44.045725" lon="12.5539267"><ele>13.0</ele><time>2026-04-05T10:00:43.592Z</time></trkpt><trkpt lat="44.045635" lon="12.5541683"><ele>13.0</ele><time>2026-04-05T10:00:44.592Z</time></trkpt><trkpt lat="44.0455367" lon="12.5544467"><ele>13.0</ele><time>2026-04-05T10:00:45.592Z</time></trkpt><trkpt lat="44.0454483" lon="12.5547433"><ele>12.0</ele><time>2026-04-05T10:00:46.592Z</time></trkpt><trkpt lat="44.04536" lon="12.5550483"><ele>11.0</ele><time>2026-04-05T10:00:47.591Z</time></trkpt><trkpt lat="44.0452717" lon="12.5553617"><ele>10.666666666666666</ele><time>2026-04-05T10:00:48.592Z</time></trkpt><trkpt lat="44.0451983" lon="12.5556617"><ele>10.333333333333334</ele><time>2026-04-05T10:00:49.591Z</time></trkpt><trkpt lat="44.0451233" lon="12.5559483"><ele>10.0</ele><time>2026-04-05T10:00:50.591Z</time></trkpt><trkpt lat="44.0450467" lon="12.55623"><ele>9.666666666666668</ele><time>2026-04-05T10:00:51.591Z</time></trkpt><trkpt lat="44.0449717" lon="12.556495"><ele>9.333333333333334</ele><time>2026-04-05T10:00:52.592Z</time></trkpt><trkpt lat="44.0449033" lon="12.5567417"><ele>9.0</ele><time>2026-04-05T10:00:53.592Z</time></trkpt><trkpt lat="44.0448383" lon="12.556975"><ele>9.5</ele><time>2026-04-05T10:00:54.592Z</time></trkpt><trkpt lat="44.04478" lon="12.5571933"><ele>10.0</ele><time>2026-04-05T10:00:55.592Z</time></trkpt><trkpt lat="44.04473" lon="12.557385"><ele>10.5</ele><time>2026-04-05T10:00:56.591Z</time></trkpt><trkpt lat="44.04469" lon="12.5575383"><ele>11.0</ele><time>2026-04-05T10:00:57.591Z</time></trkpt><trkpt lat="44.0446583" lon="12.55766"><ele>11.0</ele><time>2026-04-05T10:00:58.592Z</time></trkpt><trkpt lat="44.044635" lon="12.557755"><ele>11.0</ele><time>2026-04-05T10:00:59.592Z</time></trkpt><trkpt lat="44.0446133" lon="12.5578433"><ele>11.0</ele><time>2026-04-05T10:01:01.591Z</time></trkpt><trkpt lat="44.0445933" lon="12.557955"><ele>11.0</ele><time>2026-04-05T10:01:05.591Z</time></trkpt><trkpt lat="44.0445783" lon="12.558045"><ele>11.0</ele><time>2026-04-05T10:01:08.592Z</time></trkpt><trkpt lat="44.044545" lon="12.5581533"><ele>11.0</ele><time>2026-04-05T10:01:12.592Z</time></trkpt><trkpt lat="44.0445133" lon="12.5582417"><ele>11.0</ele><time>2026-04-05T10:01:14.592Z</time></trkpt><trkpt lat="44.0444767" lon="12.5583433"><ele>11.0</ele><time>2026-04-05T10:01:16.592Z</time></trkpt><trkpt lat="44.044425" lon="12.55848"><ele>11.0</ele><time>2026-04-05T10:01:18.591Z</time></trkpt><trkpt lat="44.0443967" lon="12.55856"><ele>11.0</ele><time>2026-04-05T10:01:19.591Z</time></trkpt><trkpt lat="44.044375" lon="12.5586517"><ele>11.0</ele><time>2026-04-05T10:01:20.592Z</time></trkpt><trkpt lat="44.0443517" lon="12.5587433"><ele>11.0</ele><time>2026-04-05T10:01:21.592Z</time></trkpt><trkpt lat="44.0443267" lon="12.558835"><ele>11.0</ele><time>2026-04-05T10:01:22.592Z</time></trkpt><trkpt lat="44.0443008" lon="12.5589397"><ele>10.833333333333332</ele><time>2026-04-05T10:01:23.592Z</time></trkpt><trkpt lat="44.0442772" lon="12.559035"><ele>10.666666666666666</ele><time>2026-04-05T10:01:24.591Z</time></trkpt><trkpt lat="44.0442612" lon="12.5591243"><ele>10.5</ele><time>2026-04-05T10:01:25.592Z</time></trkpt><trkpt lat="44.0442346" lon="12.5592657"><ele>10.333333333333334</ele><time>2026-04-05T10:01:27.591Z</time></trkpt><trkpt lat="44.0441889" lon="12.5593478"><ele>10.166666666666668</ele><time>2026-04-05T10:01:29.591Z</time></trkpt><trkpt lat="44.0440868" lon="12.5594244"><ele>10.0</ele><time>2026-04-05T10:01:31.591Z</time></trkpt><trkpt lat="44.0439779" lon="12.5594618"><ele>10.333333333333334</ele><time>2026-04-05T10:01:33.592Z</time></trkpt><trkpt lat="44.0438862" lon="12.5595419"><ele>10.666666666666668</ele><time>2026-04-05T10:01:35.592Z</time></trkpt><trkpt lat="44.0438374" lon="12.5596978"><ele>11.0</ele><time>2026-04-05T10:01:37.592Z</time></trkpt><trkpt lat="44.0438426" lon="12.559788"><ele>11.333333333333334</ele><time>2026-04-05T10:01:38.592Z</time></trkpt><trkpt lat="44.043868" lon="12.5598778"><ele>11.666666666666666</ele><time>2026-04-05T10:01:39.591Z</time></trkpt><trkpt lat="44.0439111" lon="12.5599589"><ele>12.0</ele><time>2026-04-05T10:01:40.592Z</time></trkpt><trkpt lat="44.0439714" lon="12.5600254"><ele>12.0</ele><time>2026-04-05T10:01:41.592Z</time></trkpt><trkpt lat="44.044056" lon="12.5600699"><ele>12.0</ele><time>2026-04-05T10:01:42.592Z</time></trkpt><trkpt lat="44.0441583" lon="12.5600897"><ele>12.0</ele><time>2026-04-05T10:01:43.592Z</time></trkpt><trkpt lat="44.0442675" lon="12.560113"><ele>12.0</ele><time>2026-04-05T10:01:44.592Z</time></trkpt><trkpt lat="44.0443694" lon="12.5601672"><ele>12.0</ele><time>2026-04-05T10:01:45.592Z</time></trkpt><trkpt lat="44.0444643" lon="12.5602587"><ele>12.0</ele><time>2026-04-05T10:01:46.592Z</time></trkpt><trkpt lat="44.0445573" lon="12.5603709"><ele>12.0</ele><time>2026-04-05T10:01:47.591Z</time></trkpt><trkpt lat="44.0446397" lon="12.5604867"><ele>12.0</ele><time>2026-04-05T10:01:48.592Z</time></trkpt><trkpt lat="44.0447181" lon="12.5605909"><ele>12.0</ele><time>2026-04-05T10:01:49.592Z</time></trkpt><trkpt lat="44.0447907" lon="12.5606972"><ele>12.0</ele><time>2026-04-05T10:01:50.592Z</time></trkpt><trkpt lat="44.0448534" lon="12.5607896"><ele>12.0</ele><time>2026-04-05T10:01:51.592Z</time></trkpt><trkpt lat="44.0449016" lon="12.5608631"><ele>12.0</ele><time>2026-04-05T10:01:52.591Z</time></trkpt><trkpt lat="44.0449408" lon="12.5609982"><ele>12.0</ele><time>2026-04-05T10:01:54.592Z</time></trkpt><trkpt lat="44.0448935" lon="12.5610819"><ele>12.0</ele><time>2026-04-05T10:01:55.592Z</time></trkpt><trkpt lat="44.0448173" lon="12.561168"><ele>12.0</ele><time>2026-04-05T10:01:56.592Z</time></trkpt><trkpt lat="44.0447457" lon="12.5612467"><ele>11.833333333333334</ele><time>2026-04-05T10:01:57.592Z</time></trkpt><trkpt lat="44.0446851" lon="12.5613125"><ele>11.666666666666666</ele><time>2026-04-05T10:01:58.591Z</time></trkpt><trkpt lat="44.0446316" lon="12.5613772"><ele>11.5</ele><time>2026-04-05T10:01:59.592Z</time></trkpt><trkpt lat="44.0445738" lon="12.5614561"><ele>11.333333333333332</ele><time>2026-04-05T10:02:00.592Z</time></trkpt><trkpt lat="44.0445096" lon="12.5615619"><ele>11.166666666666666</ele><time>2026-04-05T10:02:01.592Z</time></trkpt><trkpt lat="44.0444302" lon="12.5616764"><ele>11.0</ele><time>2026-04-05T10:02:02.592Z</time></trkpt><trkpt lat="44.0443354" lon="12.5618003"><ele>11.0</ele><time>2026-04-05T10:02:03.591Z</time></trkpt><trkpt lat="44.044236" lon="12.561946"><ele>11.0</ele><time>2026-04-05T10:02:04.591Z</time></trkpt><trkpt lat="44.0441255" lon="12.5621093"><ele>11.0</ele><time>2026-04-05T10:02:05.591Z</time></trkpt><trkpt lat="44.0440168" lon="12.5622722"><ele>10.75</ele><time>2026-04-05T10:02:06.592Z</time></trkpt><trkpt lat="44.0439182" lon="12.5624171"><ele>10.5</ele><time>2026-04-05T10:02:07.592Z</time></trkpt><trkpt lat="44.043834" lon="12.5625509"><ele>10.25</ele><time>2026-04-05T10:02:08.592Z</time></trkpt><trkpt lat="44.0437546" lon="12.5626703"><ele>10.0</ele><time>2026-04-05T10:02:09.592Z</time></trkpt><trkpt lat="44.0436866" lon="12.5627692"><ele>10.0</ele><time>2026-04-05T10:02:10.592Z</time></trkpt><trkpt lat="44.0436384" lon="12.5628457"><ele>10.0</ele><time>2026-04-05T10:02:11.591Z</time></trkpt><trkpt lat="44.0436217" lon="12.5629308"><ele>10.0</ele><time>2026-04-05T10:02:12.592Z</time></trkpt><trkpt lat="44.0436331" lon="12.5630228"><ele>10.0</ele><time>2026-04-05T10:02:13.592Z</time></trkpt><trkpt lat="44.043686" lon="12.563112"><ele>10.0</ele><time>2026-04-05T10:02:14.592Z</time></trkpt><trkpt lat="44.0437691" lon="12.5631812"><ele>10.0</ele><time>2026-04-05T10:02:15.592Z</time></trkpt><trkpt lat="44.0438475" lon="12.5632442"><ele>10.0</ele><time>2026-04-05T10:02:16.592Z</time></trkpt><trkpt lat="44.0438987" lon="12.5633016"><ele>10.0</ele><time>2026-04-05T10:02:17.592Z</time></trkpt><trkpt lat="44.0438959" lon="12.5634493"><ele>10.0</ele><time>2026-04-05T10:02:19.591Z</time></trkpt><trkpt lat="44.0438561" lon="12.5635396"><ele>10.0</ele><time>2026-04-05T10:02:20.592Z</time></trkpt><trkpt lat="44.0438253" lon="12.5636366"><ele>10.0</ele><time>2026-04-05T10:02:21.592Z</time></trkpt><trkpt lat="44.043825" lon="12.5637319"><ele>10.0</ele><time>2026-04-05T10:02:22.592Z</time></trkpt><trkpt lat="44.0438854" lon="12.5638499"><ele>9.8</ele><time>2026-04-05T10:02:24.592Z</time></trkpt><trkpt lat="44.043945" lon="12.5639073"><ele>9.6</ele><time>2026-04-05T10:02:26.592Z</time></trkpt><trkpt lat="44.044023" lon="12.5640269"><ele>9.4</ele><time>2026-04-05T10:02:28.591Z</time></trkpt><trkpt lat="44.0440747" lon="12.5641182"><ele>9.2</ele><time>2026-04-05T10:02:29.592Z</time></trkpt><trkpt lat="44.0441416" lon="12.5642196"><ele>9.0</ele><time>2026-04-05T10:02:30.592Z</time></trkpt><trkpt lat="44.0442113" lon="12.5643273"><ele>9.0</ele><time>2026-04-05T10:02:31.592Z</time></trkpt><trkpt lat="44.0442762" lon="12.564422"><ele>9.0</ele><time>2026-04-05T10:02:32.592Z</time></trkpt><trkpt lat="44.044337" lon="12.5645092"><ele>9.0</ele><time>2026-04-05T10:02:33.592Z</time></trkpt><trkpt lat="44.0443974" lon="12.5645875"><ele>9.0</ele><time>2026-04-05T10:02:34.592Z</time></trkpt><trkpt lat="44.0444528" lon="12.5646615"><ele>9.0</ele><time>2026-04-05T10:02:35.592Z</time></trkpt><trkpt lat="44.0445264" lon="12.5647605"><ele>9.0</ele><time>2026-04-05T10:02:37.592Z</time></trkpt><trkpt lat="44.0445725" lon="12.5648228"><ele>9.0</ele><time>2026-04-05T10:02:44.591Z</time></trkpt><trkpt lat="44.0446259" lon="12.5649242"><ele>9.0</ele><time>2026-04-05T10:02:47.592Z</time></trkpt><trkpt lat="44.0446995" lon="12.5650301"><ele>9.0</ele><time>2026-04-05T10:02:48.592Z</time></trkpt><trkpt lat="44.0448023" lon="12.5651766"><ele>9.0</ele><time>2026-04-05T10:02:49.592Z</time></trkpt><trkpt lat="44.0449019" lon="12.565314"><ele>8.8</ele><time>2026-04-05T10:02:50.592Z</time></trkpt><trkpt lat="44.0449868" lon="12.5654293"><ele>8.600000000000001</ele><time>2026-04-05T10:02:51.591Z</time></trkpt><trkpt lat="44.0450575" lon="12.5655205"><ele>8.4</ele><time>2026-04-05T10:02:52.592Z</time></trkpt><trkpt lat="44.0451085" lon="12.5655828"><ele>8.200000000000001</ele><time>2026-04-05T10:02:53.592Z</time></trkpt><trkpt lat="44.0451581" lon="12.5656698"><ele>8.0</ele><time>2026-04-05T10:02:55.592Z</time></trkpt><trkpt lat="44.0451191" lon="12.5658431"><ele>8.0</ele><time>2026-04-05T10:02:57.592Z</time></trkpt><trkpt lat="44.0450434" lon="12.5659757"><ele>8.0</ele><time>2026-04-05T10:02:58.591Z</time></trkpt><trkpt lat="44.0449327" lon="12.5661263"><ele>8.0</ele><time>2026-04-05T10:02:59.592Z</time></trkpt><trkpt lat="44.0448043" lon="12.5663068"><ele>7.666666666666666</ele><time>2026-04-05T10:03:00.592Z</time></trkpt><trkpt lat="44.0446557" lon="12.5665175"><ele>7.333333333333334</ele><time>2026-04-05T10:03:01.592Z</time></trkpt><trkpt lat="44.0445095" lon="12.5667401"><ele>7.0</ele><time>2026-04-05T10:03:02.591Z</time></trkpt><trkpt lat="44.0443688" lon="12.566951"><ele>7.333333333333334</ele><time>2026-04-05T10:03:03.591Z</time></trkpt><trkpt lat="44.0442373" lon="12.567153"><ele>7.666666666666666</ele><time>2026-04-05T10:03:04.592Z</time></trkpt><trkpt lat="44.0441098" lon="12.5673499"><ele>8.0</ele><time>2026-04-05T10:03:05.592Z</time></trkpt><trkpt lat="44.0439794" lon="12.5675353"><ele>8.0</ele><time>2026-04-05T10:03:06.591Z</time></trkpt><trkpt lat="44.0438487" lon="12.5677208"><ele>8.0</ele><time>2026-04-05T10:03:07.592Z</time></trkpt><trkpt lat="44.043704" lon="12.5679172"><ele>8.0</ele><time>2026-04-05T10:03:08.591Z</time></trkpt><trkpt lat="44.0435479" lon="12.5681265"><ele>8.333333333333332</ele><time>2026-04-05T10:03:09.592Z</time></trkpt><trkpt lat="44.0433929" lon="12.5683421"><ele>8.666666666666666</ele><time>2026-04-05T10:03:10.592Z</time></trkpt><trkpt lat="44.0432421" lon="12.5685569"><ele>9.0</ele><time>2026-04-05T10:03:11.592Z</time></trkpt><trkpt lat="44.043101" lon="12.5687638"><ele>10.333333333333332</ele><time>2026-04-05T10:03:12.592Z</time></trkpt><trkpt lat="44.04297" lon="12.5689744"><ele>11.666666666666666</ele><time>2026-04-05T10:03:13.592Z</time></trkpt><trkpt lat="44.0428568" lon="12.5692009"><ele>13.0</ele><time>2026-04-05T10:03:14.592Z</time></trkpt><trkpt lat="44.0427607" lon="12.569456"><ele>13.0</ele><time>2026-04-05T10:03:15.591Z</time></trkpt><trkpt lat="44.0426845" lon="12.5697222"><ele>13.0</ele><time>2026-04-05T10:03:16.592Z</time></trkpt><trkpt lat="44.0426211" lon="12.5699978"><ele>13.0</ele><time>2026-04-05T10:03:17.592Z</time></trkpt><trkpt lat="44.0425623" lon="12.5702699"><ele>12.666666666666666</ele><time>2026-04-05T10:03:18.592Z</time></trkpt><trkpt lat="44.0425037" lon="12.570528"><ele>12.333333333333332</ele><time>2026-04-05T10:03:19.592Z</time></trkpt><trkpt lat="44.0424499" lon="12.5707731"><ele>12.0</ele><time>2026-04-05T10:03:20.592Z</time></trkpt><trkpt lat="44.042409" lon="12.571017"><ele>11.333333333333334</ele><time>2026-04-05T10:03:21.592Z</time></trkpt><trkpt lat="44.0423825" lon="12.5712725"><ele>10.666666666666668</ele><time>2026-04-05T10:03:22.591Z</time></trkpt><trkpt lat="44.0423839" lon="12.5715401"><ele>10.0</ele><time>2026-04-05T10:03:23.592Z</time></trkpt><trkpt lat="44.0424197" lon="12.5718084"><ele>10.0</ele><time>2026-04-05T10:03:24.592Z</time></trkpt><trkpt lat="44.0424708" lon="12.5720886"><ele>10.0</ele><time>2026-04-05T10:03:25.592Z</time></trkpt><trkpt lat="44.0425684" lon="12.5723304"><ele>10.0</ele><time>2026-04-05T10:03:26.592Z</time></trkpt><trkpt lat="44.0427087" lon="12.5725283"><ele>10.0</ele><time>2026-04-05T10:03:27.592Z</time></trkpt><trkpt lat="44.0428569" lon="12.5727124"><ele>10.0</ele><time>2026-04-05T10:03:28.592Z</time></trkpt><trkpt lat="44.042997" lon="12.572875"><ele>10.0</ele><time>2026-04-05T10:03:29.591Z</time></trkpt><trkpt lat="44.04313" lon="12.5730283"><ele>10.0</ele><time>2026-04-05T10:03:30.592Z</time></trkpt><trkpt lat="44.0432599" lon="12.5731956"><ele>10.0</ele><time>2026-04-05T10:03:31.592Z</time></trkpt><trkpt lat="44.043388" lon="12.5733655"><ele>10.0</ele><time>2026-04-05T10:03:32.592Z</time></trkpt><trkpt lat="44.0435053" lon="12.5735306"><ele>10.0</ele><time>2026-04-05T10:03:33.592Z</time></trkpt><trkpt lat="44.0436177" lon="12.5736936"><ele>10.0</ele><time>2026-04-05T10:03:34.592Z</time></trkpt><trkpt lat="44.0437334" lon="12.5738592"><ele>10.0</ele><time>2026-04-05T10:03:35.592Z</time></trkpt><trkpt lat="44.0438461" lon="12.5740301"><ele>10.0</ele><time>2026-04-05T10:03:36.591Z</time></trkpt><trkpt lat="44.0439535" lon="12.5741869"><ele>10.0</ele><time>2026-04-05T10:03:37.592Z</time></trkpt><trkpt lat="44.0440572" lon="12.5743384"><ele>10.0</ele><time>2026-04-05T10:03:38.591Z</time></trkpt><trkpt lat="44.044161" lon="12.5744851"><ele>10.25</ele><time>2026-04-05T10:03:39.591Z</time></trkpt><trkpt lat="44.0442591" lon="12.5746241"><ele>10.5</ele><time>2026-04-05T10:03:40.591Z</time></trkpt><trkpt lat="44.0443515" lon="12.5747558"><ele>10.75</ele><time>2026-04-05T10:03:41.592Z</time></trkpt><trkpt lat="44.0444382" lon="12.5748782"><ele>11.0</ele><time>2026-04-05T10:03:42.591Z</time></trkpt><trkpt lat="44.0445182" lon="12.5749902"><ele>11.0</ele><time>2026-04-05T10:03:43.591Z</time></trkpt><trkpt lat="44.0445863" lon="12.5750905"><ele>11.0</ele><time>2026-04-05T10:03:44.592Z</time></trkpt><trkpt lat="44.0446438" lon="12.575177"><ele>11.0</ele><time>2026-04-05T10:03:45.591Z</time></trkpt><trkpt lat="44.0446868" lon="12.5752457"><ele>11.0</ele><time>2026-04-05T10:03:46.591Z</time></trkpt><trkpt lat="44.0447438" lon="12.5753509"><ele>11.0</ele><time>2026-04-05T10:03:48.591Z</time></trkpt><trkpt lat="44.0447655" lon="12.5754865"><ele>11.0</ele><time>2026-04-05T10:03:50.592Z</time></trkpt><trkpt lat="44.0447701" lon="12.5756349"><ele>11.0</ele><time>2026-04-05T10:03:52.591Z</time></trkpt><trkpt lat="44.0448542" lon="12.5757331"><ele>11.0</ele><time>2026-04-05T10:03:54.592Z</time></trkpt><trkpt lat="44.0449232" lon="12.5757524"><ele>11.0</ele><time>2026-04-05T10:03:55.591Z</time></trkpt><trkpt lat="44.0449992" lon="12.5757833"><ele>11.0</ele><time>2026-04-05T10:03:56.592Z</time></trkpt><trkpt lat="44.0450722" lon="12.5758336"><ele>11.0</ele><time>2026-04-05T10:03:57.591Z</time></trkpt><trkpt lat="44.0451439" lon="12.5759106"><ele>11.0</ele><time>2026-04-05T10:03:58.592Z</time></trkpt><trkpt lat="44.0452171" lon="12.5760126"><ele>10.75</ele><time>2026-04-05T10:03:59.592Z</time></trkpt><trkpt lat="44.0453" lon="12.5761319"><ele>10.5</ele><time>2026-04-05T10:04:00.592Z</time></trkpt><trkpt lat="44.0453959" lon="12.5762709"><ele>10.25</ele><time>2026-04-05T10:04:01.592Z</time></trkpt><trkpt lat="44.045502" lon="12.5764273"><ele>10.0</ele><time>2026-04-05T10:04:02.592Z</time></trkpt><trkpt lat="44.0456124" lon="12.5765912"><ele>10.0</ele><time>2026-04-05T10:04:03.591Z</time></trkpt><trkpt lat="44.0457199" lon="12.5767523"><ele>10.0</ele><time>2026-04-05T10:04:04.592Z</time></trkpt><trkpt lat="44.0458331" lon="12.5769088"><ele>10.0</ele><time>2026-04-05T10:04:05.592Z</time></trkpt><trkpt lat="44.0459495" lon="12.5770721"><ele>9.333333333333334</ele><time>2026-04-05T10:04:06.592Z</time></trkpt><trkpt lat="44.046073" lon="12.5772455"><ele>8.666666666666666</ele><time>2026-04-05T10:04:07.591Z</time></trkpt><trkpt lat="44.0461928" lon="12.5774094"><ele>8.0</ele><time>2026-04-05T10:04:08.591Z</time></trkpt><trkpt lat="44.0463024" lon="12.5775662"><ele>8.0</ele><time>2026-04-05T10:04:09.591Z</time></trkpt><trkpt lat="44.0464066" lon="12.5777214"><ele>8.0</ele><time>2026-04-05T10:04:10.591Z</time></trkpt><trkpt lat="44.0465073" lon="12.5778733"><ele>8.0</ele><time>2026-04-05T10:04:11.592Z</time></trkpt><trkpt lat="44.0466085" lon="12.5780259"><ele>7.5</ele><time>2026-04-05T10:04:12.592Z</time></trkpt><trkpt lat="44.0467118" lon="12.5781736"><ele>7.0</ele><time>2026-04-05T10:04:13.591Z</time></trkpt><trkpt lat="44.0468112" lon="12.5783179"><ele>6.5</ele><time>2026-04-05T10:04:14.591Z</time></trkpt><trkpt lat="44.0469075" lon="12.5784584"><ele>6.0</ele><time>2026-04-05T10:04:15.592Z</time></trkpt><trkpt lat="44.0470055" lon="12.5785988"><ele>6.0</ele><time>2026-04-05T10:04:16.592Z</time></trkpt><trkpt lat="44.0471024" lon="12.5787357"><ele>6.0</ele><time>2026-04-05T10:04:17.592Z</time></trkpt><trkpt lat="44.0471981" lon="12.5788687"><ele>6.0</ele><time>2026-04-05T10:04:18.591Z</time></trkpt><trkpt lat="44.0472864" lon="12.5790035"><ele>6.0</ele><time>2026-04-05T10:04:19.592Z</time></trkpt><trkpt lat="44.0473726" lon="12.5791362"><ele>6.0</ele><time>2026-04-05T10:04:20.592Z</time></trkpt><trkpt lat="44.0474533" lon="12.5792558"><ele>6.0</ele><time>2026-04-05T10:04:21.592Z</time></trkpt><trkpt lat="44.0475281" lon="12.5793639"><ele>6.0</ele><time>2026-04-05T10:04:22.592Z</time></trkpt><trkpt lat="44.0475967" lon="12.579465"><ele>6.0</ele><time>2026-04-05T10:04:23.592Z</time></trkpt><trkpt lat="44.0476607" lon="12.5795596"><ele>6.0</ele><time>2026-04-05T10:04:24.592Z</time></trkpt><trkpt lat="44.0477196" lon="12.5796458"><ele>6.25</ele><time>2026-04-05T10:04:25.592Z</time></trkpt><trkpt lat="44.0477693" lon="12.5797184"><ele>6.5</ele><time>2026-04-05T10:04:26.591Z</time></trkpt><trkpt lat="44.0478388" lon="12.5798124"><ele>6.75</ele><time>2026-04-05T10:04:28.592Z</time></trkpt><trkpt lat="44.0480317" lon="12.5800911"><ele>7.0</ele><time>2026-04-05T10:04:43.592Z</time></trkpt><trkpt lat="44.0481483" lon="12.5802034"><ele>7.0</ele><time>2026-04-05T10:04:44.592Z</time></trkpt><trkpt lat="44.04826" lon="12.5802907"><ele>7.0</ele><time>2026-04-05T10:04:45.592Z</time></trkpt><trkpt lat="44.0483628" lon="12.5803976"><ele>7.0</ele><time>2026-04-05T10:04:46.592Z</time></trkpt><trkpt lat="44.0484563" lon="12.5805069"><ele>7.0</ele><time>2026-04-05T10:04:47.592Z</time></trkpt><trkpt lat="44.0485406" lon="12.580615"><ele>6.6</ele><time>2026-04-05T10:04:48.592Z</time></trkpt><trkpt lat="44.0486265" lon="12.580719"><ele>6.199999999999999</ele><time>2026-04-05T10:04:49.592Z</time></trkpt><trkpt lat="44.0487135" lon="12.5808178"><ele>5.8</ele><time>2026-04-05T10:04:50.592Z</time></trkpt><trkpt lat="44.0487959" lon="12.5809091"><ele>5.4</ele><time>2026-04-05T10:04:51.592Z</time></trkpt><trkpt lat="44.0488775" lon="12.5809943"><ele>5.0</ele><time>2026-04-05T10:04:52.591Z</time></trkpt><trkpt lat="44.0489543" lon="12.5810815"><ele>5.0</ele><time>2026-04-05T10:04:53.592Z</time></trkpt><trkpt lat="44.0490234" lon="12.5811583"><ele>5.0</ele><time>2026-04-05T10:04:54.592Z</time></trkpt><trkpt lat="44.0490672" lon="12.5812229"><ele>5.0</ele><time>2026-04-05T10:04:55.591Z</time></trkpt><trkpt lat="44.0491084" lon="12.5813226"><ele>5.0</ele><time>2026-04-05T10:04:57.592Z</time></trkpt><trkpt lat="44.049195" lon="12.5814588"><ele>5.0</ele><time>2026-04-05T10:04:59.592Z</time></trkpt><trkpt lat="44.0492579" lon="12.5815375"><ele>4.666666666666667</ele><time>2026-04-05T10:05:00.591Z</time></trkpt><trkpt lat="44.0493137" lon="12.581607"><ele>4.333333333333334</ele><time>2026-04-05T10:05:01.592Z</time></trkpt><trkpt lat="44.0493699" lon="12.5816809"><ele>4.0</ele><time>2026-04-05T10:05:02.592Z</time></trkpt><trkpt lat="44.049429" lon="12.5817645"><ele>3.666666666666667</ele><time>2026-04-05T10:05:03.591Z</time></trkpt><trkpt lat="44.0494866" lon="12.5818425"><ele>3.3333333333333335</ele><time>2026-04-05T10:05:04.592Z</time></trkpt><trkpt lat="44.0495403" lon="12.5819077"><ele>3.0</ele><time>2026-04-05T10:05:05.592Z</time></trkpt><trkpt lat="44.0496216" lon="12.5820142"><ele>3.0</ele><time>2026-04-05T10:05:07.592Z</time></trkpt><trkpt lat="44.0496709" lon="12.5820886"><ele>3.0</ele><time>2026-04-05T10:05:08.592Z</time></trkpt><trkpt lat="44.0497552" lon="12.5821939"><ele>3.0</ele><time>2026-04-05T10:05:09.592Z</time></trkpt><trkpt lat="44.0498708" lon="12.5823316"><ele>3.0</ele><time>2026-04-05T10:05:10.592Z</time></trkpt><trkpt lat="44.0499814" lon="12.5824591"><ele>3.2</ele><time>2026-04-05T10:05:11.592Z</time></trkpt><trkpt lat="44.0500637" lon="12.5825548"><ele>3.4</ele><time>2026-04-05T10:05:12.593Z</time></trkpt><trkpt lat="44.0501297" lon="12.5826126"><ele>3.6000000000000005</ele><time>2026-04-05T10:05:13.593Z</time></trkpt><trkpt lat="44.0502098" lon="12.5826637"><ele>3.8000000000000003</ele><time>2026-04-05T10:05:15.592Z</time></trkpt><trkpt lat="44.0502952" lon="12.5827324"><ele>4.0</ele><time>2026-04-05T10:05:17.593Z</time></trkpt><trkpt lat="44.0503658" lon="12.5828172"><ele>4.0</ele><time>2026-04-05T10:05:18.593Z</time></trkpt><trkpt lat="44.0504591" lon="12.5829299"><ele>4.0</ele><time>2026-04-05T10:05:19.593Z</time></trkpt><trkpt lat="44.0505565" lon="12.5830513"><ele>4.0</ele><time>2026-04-05T10:05:20.592Z</time></trkpt><trkpt lat="44.0506475" lon="12.5831668"><ele>4.0</ele><time>2026-04-05T10:05:21.593Z</time></trkpt><trkpt lat="44.0507263" lon="12.5832765"><ele>4.0</ele><time>2026-04-05T10:05:22.593Z</time></trkpt><trkpt lat="44.0507916" lon="12.5833888"><ele>4.0</ele><time>2026-04-05T10:05:23.593Z</time></trkpt><trkpt lat="44.0508393" lon="12.5835121"><ele>4.0</ele><time>2026-04-05T10:05:24.592Z</time></trkpt><trkpt lat="44.0508663" lon="12.5836417"><ele>4.0</ele><time>2026-04-05T10:05:25.593Z</time></trkpt><trkpt lat="44.0508642" lon="12.583787"><ele>4.0</ele><time>2026-04-05T10:05:26.593Z</time></trkpt><trkpt lat="44.0508383" lon="12.5839405"><ele>4.0</ele><time>2026-04-05T10:05:27.593Z</time></trkpt><trkpt lat="44.0507974" lon="12.5840952"><ele>4.0</ele><time>2026-04-05T10:05:28.593Z</time></trkpt><trkpt lat="44.0507497" lon="12.5842523"><ele>4.0</ele><time>2026-04-05T10:05:29.593Z</time></trkpt><trkpt lat="44.0506999" lon="12.5844076"><ele>4.0</ele><time>2026-04-05T10:05:30.593Z</time></trkpt><trkpt lat="44.0506581" lon="12.5845415"><ele>4.166666666666666</ele><time>2026-04-05T10:05:31.593Z</time></trkpt><trkpt lat="44.0506153" lon="12.5846653"><ele>4.333333333333333</ele><time>2026-04-05T10:05:32.593Z</time></trkpt><trkpt lat="44.0505728" lon="12.5847816"><ele>4.5</ele><time>2026-04-05T10:05:33.593Z</time></trkpt><trkpt lat="44.0505313" lon="12.5848912"><ele>4.666666666666667</ele><time>2026-04-05T10:05:34.593Z</time></trkpt><trkpt lat="44.0504946" lon="12.5849945"><ele>4.833333333333334</ele><time>2026-04-05T10:05:35.593Z</time></trkpt><trkpt lat="44.050458" lon="12.5850953"><ele>5.0</ele><time>2026-04-05T10:05:36.593Z</time></trkpt><trkpt lat="44.0504253" lon="12.5851907"><ele>5.0</ele><time>2026-04-05T10:05:37.592Z</time></trkpt><trkpt lat="44.0503935" lon="12.5852798"><ele>5.0</ele><time>2026-04-05T10:05:38.593Z</time></trkpt><trkpt lat="44.0503579" lon="12.5853733"><ele>5.0</ele><time>2026-04-05T10:05:39.592Z</time></trkpt><trkpt lat="44.0503128" lon="12.5854791"><ele>5.0</ele><time>2026-04-05T10:05:40.593Z</time></trkpt><trkpt lat="44.0502599" lon="12.585597"><ele>5.0</ele><time>2026-04-05T10:05:41.593Z</time></trkpt><trkpt lat="44.0501998" lon="12.585722"><ele>5.0</ele><time>2026-04-05T10:05:42.592Z</time></trkpt><trkpt lat="44.0501307" lon="12.5858591"><ele>4.75</ele><time>2026-04-05T10:05:43.592Z</time></trkpt><trkpt lat="44.050056" lon="12.5860058"><ele>4.5</ele><time>2026-04-05T10:05:44.593Z</time></trkpt><trkpt lat="44.049983" lon="12.5861485"><ele>4.25</ele><time>2026-04-05T10:05:45.593Z</time></trkpt><trkpt lat="44.0499128" lon="12.5862804"><ele>4.0</ele><time>2026-04-05T10:05:46.592Z</time></trkpt><trkpt lat="44.0498546" lon="12.5863987"><ele>4.333333333333333</ele><time>2026-04-05T10:05:47.592Z</time></trkpt><trkpt lat="44.0498114" lon="12.5864969"><ele>4.666666666666666</ele><time>2026-04-05T10:05:48.593Z</time></trkpt><trkpt lat="44.0497405" lon="12.5866026"><ele>5.0</ele><time>2026-04-05T10:05:50.593Z</time></trkpt><trkpt lat="44.0496717" lon="12.5866048"><ele>5.333333333333333</ele><time>2026-04-05T10:05:52.593Z</time></trkpt><trkpt lat="44.0495913" lon="12.5865394"><ele>5.666666666666667</ele><time>2026-04-05T10:05:55.593Z</time></trkpt><trkpt lat="44.0495465" lon="12.5864468"><ele>6.0</ele><time>2026-04-05T10:05:57.592Z</time></trkpt><trkpt lat="44.049502" lon="12.5863499"><ele>6.0</ele><time>2026-04-05T10:05:59.592Z</time></trkpt><trkpt lat="44.0494515" lon="12.5862558"><ele>6.0</ele><time>2026-04-05T10:06:01.593Z</time></trkpt><trkpt lat="44.0494091" lon="12.586179"><ele>6.0</ele><time>2026-04-05T10:06:03.593Z</time></trkpt><trkpt lat="44.0493254" lon="12.5860907"><ele>6.0</ele><time>2026-04-05T10:06:07.639Z</time></trkpt><trkpt lat="44.0492679" lon="12.5860475"><ele>6.0</ele><time>2026-04-05T10:06:09.611Z</time></trkpt><trkpt lat="44.049215" lon="12.5860992"><ele>6.0</ele><time>2026-04-05T10:06:11.692Z</time></trkpt><trkpt lat="44.0491561" lon="12.5861894"><ele>5.6</ele><time>2026-04-05T10:06:12.593Z</time></trkpt><trkpt lat="44.0490837" lon="12.586278"><ele>5.199999999999999</ele><time>2026-04-05T10:06:13.593Z</time></trkpt><trkpt lat="44.0490045" lon="12.5863717"><ele>4.800000000000001</ele><time>2026-04-05T10:06:14.593Z</time></trkpt><trkpt lat="44.0489254" lon="12.5864657"><ele>4.4</ele><time>2026-04-05T10:06:15.593Z</time></trkpt><trkpt lat="44.0488484" lon="12.5865541"><ele>4.0</ele><time>2026-04-05T10:06:16.593Z</time></trkpt><trkpt lat="44.0487831" lon="12.5866325"><ele>4.0</ele><time>2026-04-05T10:06:17.593Z</time></trkpt><trkpt lat="44.0487309" lon="12.586695"><ele>4.0</ele><time>2026-04-05T10:06:18.593Z</time></trkpt><trkpt lat="44.0486598" lon="12.5867747"><ele>4.0</ele><time>2026-04-05T10:06:20.592Z</time></trkpt><trkpt lat="44.0485656" lon="12.586781"><ele>4.0</ele><time>2026-04-05T10:06:23.593Z</time></trkpt><trkpt lat="44.0484713" lon="12.586648"><ele>4.0</ele><time>2026-04-05T10:06:25.592Z</time></trkpt><trkpt lat="44.0484221" lon="12.5865212"><ele>3.9999999999999996</ele><time>2026-04-05T10:06:27.593Z</time></trkpt><trkpt lat="44.0484404" lon="12.5864192"><ele>4.0</ele><time>2026-04-05T10:06:29.593Z</time></trkpt><trkpt lat="44.0485216" lon="12.5863102"><ele>4.0</ele><time>2026-04-05T10:06:31.593Z</time></trkpt><trkpt lat="44.0485734" lon="12.5862545"><ele>4.0</ele><time>2026-04-05T10:06:32.592Z</time></trkpt><trkpt lat="44.0486487" lon="12.5861901"><ele>3.9999999999999996</ele><time>2026-04-05T10:06:34.593Z</time></trkpt><trkpt lat="44.0487255" lon="12.5862518"><ele>4.0</ele><time>2026-04-05T10:06:37.592Z</time></trkpt><trkpt lat="44.0487666" lon="12.5863326"><ele>4.0</ele><time>2026-04-05T10:06:41.514Z</time></trkpt></trkseg></trk></gpx>